<?xml version="1.0" encoding="UTF-8" standalone="no" ?>
<gpx xmlns="http://www.topografix.com/GPX/1/1" xmlns:xsi="http://www.w3.org/2001/XMLSchema-instance" xsi:schemaLocation="http://www.topografix.com/GPX/1/1 http://www.topografix.com/GPX/1/1/gpx.xsd" version="1.1" creator="VisuGPX - https://www.visugpx.com">
  <metadata>
    <name>E604</name>
    <desc><![CDATA[Est 63 kms - 634 m D- Branville - Pont l évêque - Bonnebosq 06/12/2023]]></desc>
  </metadata>
  <trk>
    <name><![CDATA[Sortie vélo dans l'après-midi]]></name>
    <trkseg>
      <trkpt lat="49.28607" lon="-0.10051">
        <ele>-3.8</ele>
        <time>2023-12-06T13:06:03Z</time>
      </trkpt>
      <trkpt lat="49.28609" lon="-0.10044">
        <ele>5.4</ele>
        <time>2023-12-06T13:06:04Z</time>
      </trkpt>
      <trkpt lat="49.28612" lon="-0.10036">
        <ele>6.8</ele>
        <time>2023-12-06T13:06:05Z</time>
      </trkpt>
      <trkpt lat="49.28615" lon="-0.10029">
        <ele>7</ele>
        <time>2023-12-06T13:06:06Z</time>
      </trkpt>
      <trkpt lat="49.28618" lon="-0.10022">
        <ele>7</ele>
        <time>2023-12-06T13:06:07Z</time>
      </trkpt>
      <trkpt lat="49.2862" lon="-0.10014">
        <ele>6.8</ele>
        <time>2023-12-06T13:06:08Z</time>
      </trkpt>
      <trkpt lat="49.28623" lon="-0.10006">
        <ele>7</ele>
        <time>2023-12-06T13:06:09Z</time>
      </trkpt>
      <trkpt lat="49.28626" lon="-0.09998">
        <ele>6.8</ele>
        <time>2023-12-06T13:06:10Z</time>
      </trkpt>
      <trkpt lat="49.28629" lon="-0.0999">
        <ele>6.8</ele>
        <time>2023-12-06T13:06:11Z</time>
      </trkpt>
      <trkpt lat="49.28632" lon="-0.09982">
        <ele>6.8</ele>
        <time>2023-12-06T13:06:12Z</time>
      </trkpt>
      <trkpt lat="49.28636" lon="-0.09975">
        <ele>6.8</ele>
        <time>2023-12-06T13:06:13Z</time>
      </trkpt>
      <trkpt lat="49.28639" lon="-0.09968">
        <ele>6.8</ele>
        <time>2023-12-06T13:06:14Z</time>
      </trkpt>
      <trkpt lat="49.28643" lon="-0.09962">
        <ele>6.8</ele>
        <time>2023-12-06T13:06:15Z</time>
      </trkpt>
      <trkpt lat="49.28646" lon="-0.09956">
        <ele>7</ele>
        <time>2023-12-06T13:06:16Z</time>
      </trkpt>
      <trkpt lat="49.28649" lon="-0.0995">
        <ele>7</ele>
        <time>2023-12-06T13:06:17Z</time>
      </trkpt>
      <trkpt lat="49.28652" lon="-0.09944">
        <ele>7.2</ele>
        <time>2023-12-06T13:06:18Z</time>
      </trkpt>
      <trkpt lat="49.28656" lon="-0.09939">
        <ele>7.4</ele>
        <time>2023-12-06T13:06:19Z</time>
      </trkpt>
      <trkpt lat="49.28659" lon="-0.09934">
        <ele>7.6</ele>
        <time>2023-12-06T13:06:21Z</time>
      </trkpt>
      <trkpt lat="49.28662" lon="-0.09929">
        <ele>7.4</ele>
        <time>2023-12-06T13:06:22Z</time>
      </trkpt>
      <trkpt lat="49.28664" lon="-0.09926">
        <ele>7.2</ele>
        <time>2023-12-06T13:06:23Z</time>
      </trkpt>
      <trkpt lat="49.28666" lon="-0.09923">
        <ele>7.2</ele>
        <time>2023-12-06T13:06:24Z</time>
      </trkpt>
      <trkpt lat="49.28666" lon="-0.09922">
        <ele>7.2</ele>
        <time>2023-12-06T13:06:25Z</time>
      </trkpt>
      <trkpt lat="49.28666" lon="-0.09922">
        <ele>7.2</ele>
        <time>2023-12-06T13:06:26Z</time>
      </trkpt>
      <trkpt lat="49.28667" lon="-0.0992">
        <ele>7.2</ele>
        <time>2023-12-06T13:06:27Z</time>
      </trkpt>
      <trkpt lat="49.28668" lon="-0.09919">
        <ele>7.2</ele>
        <time>2023-12-06T13:06:28Z</time>
      </trkpt>
      <trkpt lat="49.28669" lon="-0.09917">
        <ele>7.4</ele>
        <time>2023-12-06T13:06:29Z</time>
      </trkpt>
      <trkpt lat="49.2867" lon="-0.09914">
        <ele>7.6</ele>
        <time>2023-12-06T13:06:30Z</time>
      </trkpt>
      <trkpt lat="49.28672" lon="-0.09912">
        <ele>7.8</ele>
        <time>2023-12-06T13:06:31Z</time>
      </trkpt>
      <trkpt lat="49.28674" lon="-0.0991">
        <ele>8</ele>
        <time>2023-12-06T13:06:32Z</time>
      </trkpt>
      <trkpt lat="49.28676" lon="-0.09908">
        <ele>8.2</ele>
        <time>2023-12-06T13:06:33Z</time>
      </trkpt>
      <trkpt lat="49.28678" lon="-0.09906">
        <ele>8.2</ele>
        <time>2023-12-06T13:06:34Z</time>
      </trkpt>
      <trkpt lat="49.28679" lon="-0.09903">
        <ele>8.4</ele>
        <time>2023-12-06T13:06:35Z</time>
      </trkpt>
      <trkpt lat="49.2868" lon="-0.09901">
        <ele>8.4</ele>
        <time>2023-12-06T13:06:36Z</time>
      </trkpt>
      <trkpt lat="49.2868" lon="-0.09898">
        <ele>8.4</ele>
        <time>2023-12-06T13:06:37Z</time>
      </trkpt>
      <trkpt lat="49.28679" lon="-0.09895">
        <ele>8.4</ele>
        <time>2023-12-06T13:06:38Z</time>
      </trkpt>
      <trkpt lat="49.28678" lon="-0.09892">
        <ele>8.6</ele>
        <time>2023-12-06T13:06:39Z</time>
      </trkpt>
      <trkpt lat="49.28676" lon="-0.09889">
        <ele>8.6</ele>
        <time>2023-12-06T13:06:40Z</time>
      </trkpt>
      <trkpt lat="49.28673" lon="-0.09887">
        <ele>8.6</ele>
        <time>2023-12-06T13:06:41Z</time>
      </trkpt>
      <trkpt lat="49.28671" lon="-0.09883">
        <ele>8.6</ele>
        <time>2023-12-06T13:06:42Z</time>
      </trkpt>
      <trkpt lat="49.28668" lon="-0.0988">
        <ele>8.8</ele>
        <time>2023-12-06T13:06:43Z</time>
      </trkpt>
      <trkpt lat="49.28664" lon="-0.09876">
        <ele>8.8</ele>
        <time>2023-12-06T13:06:44Z</time>
      </trkpt>
      <trkpt lat="49.28661" lon="-0.09872">
        <ele>8.8</ele>
        <time>2023-12-06T13:06:45Z</time>
      </trkpt>
      <trkpt lat="49.28659" lon="-0.09868">
        <ele>8.8</ele>
        <time>2023-12-06T13:06:46Z</time>
      </trkpt>
      <trkpt lat="49.28655" lon="-0.09863">
        <ele>8.8</ele>
        <time>2023-12-06T13:06:47Z</time>
      </trkpt>
      <trkpt lat="49.28653" lon="-0.0986">
        <ele>9</ele>
        <time>2023-12-06T13:06:48Z</time>
      </trkpt>
      <trkpt lat="49.28649" lon="-0.09857">
        <ele>9</ele>
        <time>2023-12-06T13:06:49Z</time>
      </trkpt>
      <trkpt lat="49.28646" lon="-0.09854">
        <ele>9</ele>
        <time>2023-12-06T13:06:50Z</time>
      </trkpt>
      <trkpt lat="49.28642" lon="-0.09849">
        <ele>9</ele>
        <time>2023-12-06T13:06:51Z</time>
      </trkpt>
      <trkpt lat="49.28639" lon="-0.09845">
        <ele>9</ele>
        <time>2023-12-06T13:06:52Z</time>
      </trkpt>
      <trkpt lat="49.28635" lon="-0.0984">
        <ele>9</ele>
        <time>2023-12-06T13:06:53Z</time>
      </trkpt>
      <trkpt lat="49.28631" lon="-0.09835">
        <ele>9</ele>
        <time>2023-12-06T13:06:54Z</time>
      </trkpt>
      <trkpt lat="49.28626" lon="-0.09829">
        <ele>9</ele>
        <time>2023-12-06T13:06:55Z</time>
      </trkpt>
      <trkpt lat="49.28622" lon="-0.09826">
        <ele>9</ele>
        <time>2023-12-06T13:06:56Z</time>
      </trkpt>
      <trkpt lat="49.28617" lon="-0.0982">
        <ele>9</ele>
        <time>2023-12-06T13:06:57Z</time>
      </trkpt>
      <trkpt lat="49.28612" lon="-0.09814">
        <ele>9</ele>
        <time>2023-12-06T13:06:58Z</time>
      </trkpt>
      <trkpt lat="49.28608" lon="-0.09809">
        <ele>9</ele>
        <time>2023-12-06T13:06:59Z</time>
      </trkpt>
      <trkpt lat="49.28605" lon="-0.09805">
        <ele>9</ele>
        <time>2023-12-06T13:07:00Z</time>
      </trkpt>
      <trkpt lat="49.286" lon="-0.09799">
        <ele>9</ele>
        <time>2023-12-06T13:07:01Z</time>
      </trkpt>
      <trkpt lat="49.28596" lon="-0.09794">
        <ele>9</ele>
        <time>2023-12-06T13:07:02Z</time>
      </trkpt>
      <trkpt lat="49.28593" lon="-0.09789">
        <ele>9</ele>
        <time>2023-12-06T13:07:03Z</time>
      </trkpt>
      <trkpt lat="49.28589" lon="-0.09783">
        <ele>9</ele>
        <time>2023-12-06T13:07:04Z</time>
      </trkpt>
      <trkpt lat="49.28585" lon="-0.09776">
        <ele>9</ele>
        <time>2023-12-06T13:07:05Z</time>
      </trkpt>
      <trkpt lat="49.28582" lon="-0.0977">
        <ele>8.8</ele>
        <time>2023-12-06T13:07:06Z</time>
      </trkpt>
      <trkpt lat="49.28578" lon="-0.09763">
        <ele>8.8</ele>
        <time>2023-12-06T13:07:07Z</time>
      </trkpt>
      <trkpt lat="49.28574" lon="-0.09756">
        <ele>8.8</ele>
        <time>2023-12-06T13:07:08Z</time>
      </trkpt>
      <trkpt lat="49.28571" lon="-0.09752">
        <ele>8.8</ele>
        <time>2023-12-06T13:07:09Z</time>
      </trkpt>
      <trkpt lat="49.28569" lon="-0.09747">
        <ele>8.8</ele>
        <time>2023-12-06T13:07:10Z</time>
      </trkpt>
      <trkpt lat="49.28567" lon="-0.09742">
        <ele>8.8</ele>
        <time>2023-12-06T13:07:11Z</time>
      </trkpt>
      <trkpt lat="49.28567" lon="-0.09738">
        <ele>8.8</ele>
        <time>2023-12-06T13:07:12Z</time>
      </trkpt>
      <trkpt lat="49.28568" lon="-0.09733">
        <ele>8.8</ele>
        <time>2023-12-06T13:07:13Z</time>
      </trkpt>
      <trkpt lat="49.2857" lon="-0.09731">
        <ele>8.8</ele>
        <time>2023-12-06T13:07:14Z</time>
      </trkpt>
      <trkpt lat="49.28572" lon="-0.0973">
        <ele>8.8</ele>
        <time>2023-12-06T13:07:15Z</time>
      </trkpt>
      <trkpt lat="49.28573" lon="-0.09729">
        <ele>8.8</ele>
        <time>2023-12-06T13:07:16Z</time>
      </trkpt>
      <trkpt lat="49.28576" lon="-0.09728">
        <ele>9</ele>
        <time>2023-12-06T13:07:17Z</time>
      </trkpt>
      <trkpt lat="49.28578" lon="-0.09727">
        <ele>9.2</ele>
        <time>2023-12-06T13:07:18Z</time>
      </trkpt>
      <trkpt lat="49.28581" lon="-0.09726">
        <ele>9.4</ele>
        <time>2023-12-06T13:07:19Z</time>
      </trkpt>
      <trkpt lat="49.28583" lon="-0.09724">
        <ele>9.6</ele>
        <time>2023-12-06T13:07:20Z</time>
      </trkpt>
      <trkpt lat="49.28585" lon="-0.09723">
        <ele>9.6</ele>
        <time>2023-12-06T13:07:21Z</time>
      </trkpt>
      <trkpt lat="49.28587" lon="-0.09722">
        <ele>9.8</ele>
        <time>2023-12-06T13:07:22Z</time>
      </trkpt>
      <trkpt lat="49.28589" lon="-0.09721">
        <ele>9.8</ele>
        <time>2023-12-06T13:07:23Z</time>
      </trkpt>
      <trkpt lat="49.2859" lon="-0.09721">
        <ele>9.8</ele>
        <time>2023-12-06T13:07:24Z</time>
      </trkpt>
      <trkpt lat="49.28591" lon="-0.0972">
        <ele>10</ele>
        <time>2023-12-06T13:07:25Z</time>
      </trkpt>
      <trkpt lat="49.28592" lon="-0.0972">
        <ele>10</ele>
        <time>2023-12-06T13:07:26Z</time>
      </trkpt>
      <trkpt lat="49.28593" lon="-0.0972">
        <ele>10</ele>
        <time>2023-12-06T13:07:27Z</time>
      </trkpt>
      <trkpt lat="49.28594" lon="-0.0972">
        <ele>10</ele>
        <time>2023-12-06T13:07:28Z</time>
      </trkpt>
      <trkpt lat="49.28607" lon="-0.09715">
        <ele>10.4</ele>
        <time>2023-12-06T13:07:49Z</time>
      </trkpt>
      <trkpt lat="49.28609" lon="-0.09713">
        <ele>10.2</ele>
        <time>2023-12-06T13:07:50Z</time>
      </trkpt>
      <trkpt lat="49.28612" lon="-0.0971">
        <ele>10.2</ele>
        <time>2023-12-06T13:07:51Z</time>
      </trkpt>
      <trkpt lat="49.28616" lon="-0.09707">
        <ele>10.4</ele>
        <time>2023-12-06T13:07:52Z</time>
      </trkpt>
      <trkpt lat="49.2862" lon="-0.09704">
        <ele>10.4</ele>
        <time>2023-12-06T13:07:53Z</time>
      </trkpt>
      <trkpt lat="49.28624" lon="-0.09701">
        <ele>10.4</ele>
        <time>2023-12-06T13:07:54Z</time>
      </trkpt>
      <trkpt lat="49.28628" lon="-0.09699">
        <ele>10.4</ele>
        <time>2023-12-06T13:07:55Z</time>
      </trkpt>
      <trkpt lat="49.28633" lon="-0.09696">
        <ele>10.4</ele>
        <time>2023-12-06T13:07:56Z</time>
      </trkpt>
      <trkpt lat="49.28637" lon="-0.09696">
        <ele>10.4</ele>
        <time>2023-12-06T13:07:57Z</time>
      </trkpt>
      <trkpt lat="49.28642" lon="-0.09699">
        <ele>10.4</ele>
        <time>2023-12-06T13:07:58Z</time>
      </trkpt>
      <trkpt lat="49.28646" lon="-0.09701">
        <ele>10.4</ele>
        <time>2023-12-06T13:07:59Z</time>
      </trkpt>
      <trkpt lat="49.28652" lon="-0.09703">
        <ele>10.4</ele>
        <time>2023-12-06T13:08:00Z</time>
      </trkpt>
      <trkpt lat="49.28657" lon="-0.09705">
        <ele>10.4</ele>
        <time>2023-12-06T13:08:01Z</time>
      </trkpt>
      <trkpt lat="49.28661" lon="-0.0971">
        <ele>10.4</ele>
        <time>2023-12-06T13:08:02Z</time>
      </trkpt>
      <trkpt lat="49.28665" lon="-0.09715">
        <ele>10.4</ele>
        <time>2023-12-06T13:08:03Z</time>
      </trkpt>
      <trkpt lat="49.28668" lon="-0.0972">
        <ele>10.6</ele>
        <time>2023-12-06T13:08:04Z</time>
      </trkpt>
      <trkpt lat="49.28671" lon="-0.09723">
        <ele>10.6</ele>
        <time>2023-12-06T13:08:05Z</time>
      </trkpt>
      <trkpt lat="49.28675" lon="-0.09725">
        <ele>10.6</ele>
        <time>2023-12-06T13:08:06Z</time>
      </trkpt>
      <trkpt lat="49.28678" lon="-0.09726">
        <ele>10.6</ele>
        <time>2023-12-06T13:08:07Z</time>
      </trkpt>
      <trkpt lat="49.28681" lon="-0.09727">
        <ele>10.6</ele>
        <time>2023-12-06T13:08:08Z</time>
      </trkpt>
      <trkpt lat="49.28685" lon="-0.09727">
        <ele>10.8</ele>
        <time>2023-12-06T13:08:09Z</time>
      </trkpt>
      <trkpt lat="49.2869" lon="-0.09726">
        <ele>10.8</ele>
        <time>2023-12-06T13:08:10Z</time>
      </trkpt>
      <trkpt lat="49.28694" lon="-0.09725">
        <ele>10.8</ele>
        <time>2023-12-06T13:08:11Z</time>
      </trkpt>
      <trkpt lat="49.28699" lon="-0.09724">
        <ele>10.8</ele>
        <time>2023-12-06T13:08:12Z</time>
      </trkpt>
      <trkpt lat="49.28704" lon="-0.09724">
        <ele>10.8</ele>
        <time>2023-12-06T13:08:13Z</time>
      </trkpt>
      <trkpt lat="49.28709" lon="-0.09722">
        <ele>10.8</ele>
        <time>2023-12-06T13:08:14Z</time>
      </trkpt>
      <trkpt lat="49.28713" lon="-0.09722">
        <ele>10.8</ele>
        <time>2023-12-06T13:08:15Z</time>
      </trkpt>
      <trkpt lat="49.28718" lon="-0.09721">
        <ele>10.8</ele>
        <time>2023-12-06T13:08:16Z</time>
      </trkpt>
      <trkpt lat="49.28723" lon="-0.09722">
        <ele>10.8</ele>
        <time>2023-12-06T13:08:17Z</time>
      </trkpt>
      <trkpt lat="49.28729" lon="-0.09721">
        <ele>10.8</ele>
        <time>2023-12-06T13:08:18Z</time>
      </trkpt>
      <trkpt lat="49.28735" lon="-0.0972">
        <ele>10.6</ele>
        <time>2023-12-06T13:08:19Z</time>
      </trkpt>
      <trkpt lat="49.28739" lon="-0.09718">
        <ele>10.6</ele>
        <time>2023-12-06T13:08:20Z</time>
      </trkpt>
      <trkpt lat="49.28744" lon="-0.09715">
        <ele>10.6</ele>
        <time>2023-12-06T13:08:21Z</time>
      </trkpt>
      <trkpt lat="49.28749" lon="-0.09712">
        <ele>10.6</ele>
        <time>2023-12-06T13:08:22Z</time>
      </trkpt>
      <trkpt lat="49.28754" lon="-0.09707">
        <ele>10.6</ele>
        <time>2023-12-06T13:08:23Z</time>
      </trkpt>
      <trkpt lat="49.28758" lon="-0.09701">
        <ele>10.6</ele>
        <time>2023-12-06T13:08:24Z</time>
      </trkpt>
      <trkpt lat="49.28765" lon="-0.09696">
        <ele>10.4</ele>
        <time>2023-12-06T13:08:25Z</time>
      </trkpt>
      <trkpt lat="49.28769" lon="-0.09692">
        <ele>10.2</ele>
        <time>2023-12-06T13:08:26Z</time>
      </trkpt>
      <trkpt lat="49.28774" lon="-0.09686">
        <ele>10.2</ele>
        <time>2023-12-06T13:08:27Z</time>
      </trkpt>
      <trkpt lat="49.28779" lon="-0.09682">
        <ele>10.2</ele>
        <time>2023-12-06T13:08:28Z</time>
      </trkpt>
      <trkpt lat="49.28783" lon="-0.09679">
        <ele>10</ele>
        <time>2023-12-06T13:08:29Z</time>
      </trkpt>
      <trkpt lat="49.28788" lon="-0.09675">
        <ele>10</ele>
        <time>2023-12-06T13:08:30Z</time>
      </trkpt>
      <trkpt lat="49.28794" lon="-0.0967">
        <ele>10</ele>
        <time>2023-12-06T13:08:31Z</time>
      </trkpt>
      <trkpt lat="49.28799" lon="-0.09667">
        <ele>9.8</ele>
        <time>2023-12-06T13:08:32Z</time>
      </trkpt>
      <trkpt lat="49.28804" lon="-0.09663">
        <ele>9.8</ele>
        <time>2023-12-06T13:08:33Z</time>
      </trkpt>
      <trkpt lat="49.28811" lon="-0.09658">
        <ele>9.6</ele>
        <time>2023-12-06T13:08:34Z</time>
      </trkpt>
      <trkpt lat="49.28815" lon="-0.09654">
        <ele>9.6</ele>
        <time>2023-12-06T13:08:35Z</time>
      </trkpt>
      <trkpt lat="49.28821" lon="-0.09649">
        <ele>9.6</ele>
        <time>2023-12-06T13:08:36Z</time>
      </trkpt>
      <trkpt lat="49.28825" lon="-0.09645">
        <ele>9.4</ele>
        <time>2023-12-06T13:08:37Z</time>
      </trkpt>
      <trkpt lat="49.2883" lon="-0.09642">
        <ele>9.4</ele>
        <time>2023-12-06T13:08:38Z</time>
      </trkpt>
      <trkpt lat="49.28835" lon="-0.09638">
        <ele>9.4</ele>
        <time>2023-12-06T13:08:39Z</time>
      </trkpt>
      <trkpt lat="49.28841" lon="-0.09635">
        <ele>9.2</ele>
        <time>2023-12-06T13:08:40Z</time>
      </trkpt>
      <trkpt lat="49.28846" lon="-0.09631">
        <ele>9.2</ele>
        <time>2023-12-06T13:08:41Z</time>
      </trkpt>
      <trkpt lat="49.28852" lon="-0.09626">
        <ele>9.2</ele>
        <time>2023-12-06T13:08:42Z</time>
      </trkpt>
      <trkpt lat="49.28858" lon="-0.09622">
        <ele>9</ele>
        <time>2023-12-06T13:08:43Z</time>
      </trkpt>
      <trkpt lat="49.28862" lon="-0.09618">
        <ele>9</ele>
        <time>2023-12-06T13:08:44Z</time>
      </trkpt>
      <trkpt lat="49.28867" lon="-0.09615">
        <ele>8.8</ele>
        <time>2023-12-06T13:08:45Z</time>
      </trkpt>
      <trkpt lat="49.2887" lon="-0.09612">
        <ele>8.8</ele>
        <time>2023-12-06T13:08:46Z</time>
      </trkpt>
      <trkpt lat="49.28874" lon="-0.09609">
        <ele>8.6</ele>
        <time>2023-12-06T13:08:47Z</time>
      </trkpt>
      <trkpt lat="49.28877" lon="-0.09606">
        <ele>8.6</ele>
        <time>2023-12-06T13:08:48Z</time>
      </trkpt>
      <trkpt lat="49.28881" lon="-0.09602">
        <ele>8.6</ele>
        <time>2023-12-06T13:08:49Z</time>
      </trkpt>
      <trkpt lat="49.28885" lon="-0.09597">
        <ele>8.4</ele>
        <time>2023-12-06T13:08:50Z</time>
      </trkpt>
      <trkpt lat="49.28889" lon="-0.09592">
        <ele>8.4</ele>
        <time>2023-12-06T13:08:51Z</time>
      </trkpt>
      <trkpt lat="49.28893" lon="-0.09586">
        <ele>8.4</ele>
        <time>2023-12-06T13:08:52Z</time>
      </trkpt>
      <trkpt lat="49.28898" lon="-0.0958">
        <ele>8.2</ele>
        <time>2023-12-06T13:08:53Z</time>
      </trkpt>
      <trkpt lat="49.28902" lon="-0.09573">
        <ele>8.2</ele>
        <time>2023-12-06T13:08:54Z</time>
      </trkpt>
      <trkpt lat="49.28906" lon="-0.09567">
        <ele>8.2</ele>
        <time>2023-12-06T13:08:55Z</time>
      </trkpt>
      <trkpt lat="49.2891" lon="-0.0956">
        <ele>8.2</ele>
        <time>2023-12-06T13:08:56Z</time>
      </trkpt>
      <trkpt lat="49.28915" lon="-0.09553">
        <ele>8</ele>
        <time>2023-12-06T13:08:57Z</time>
      </trkpt>
      <trkpt lat="49.28919" lon="-0.09547">
        <ele>8</ele>
        <time>2023-12-06T13:08:58Z</time>
      </trkpt>
      <trkpt lat="49.28924" lon="-0.09541">
        <ele>8</ele>
        <time>2023-12-06T13:08:59Z</time>
      </trkpt>
      <trkpt lat="49.28929" lon="-0.09534">
        <ele>7.8</ele>
        <time>2023-12-06T13:09:00Z</time>
      </trkpt>
      <trkpt lat="49.28934" lon="-0.09527">
        <ele>7.8</ele>
        <time>2023-12-06T13:09:01Z</time>
      </trkpt>
      <trkpt lat="49.28939" lon="-0.0952">
        <ele>7.6</ele>
        <time>2023-12-06T13:09:02Z</time>
      </trkpt>
      <trkpt lat="49.28945" lon="-0.09514">
        <ele>7.6</ele>
        <time>2023-12-06T13:09:03Z</time>
      </trkpt>
      <trkpt lat="49.2895" lon="-0.09507">
        <ele>7.6</ele>
        <time>2023-12-06T13:09:04Z</time>
      </trkpt>
      <trkpt lat="49.28955" lon="-0.095">
        <ele>7.6</ele>
        <time>2023-12-06T13:09:05Z</time>
      </trkpt>
      <trkpt lat="49.2896" lon="-0.09494">
        <ele>7.4</ele>
        <time>2023-12-06T13:09:06Z</time>
      </trkpt>
      <trkpt lat="49.28965" lon="-0.09487">
        <ele>7.4</ele>
        <time>2023-12-06T13:09:07Z</time>
      </trkpt>
      <trkpt lat="49.2897" lon="-0.09481">
        <ele>7.4</ele>
        <time>2023-12-06T13:09:08Z</time>
      </trkpt>
      <trkpt lat="49.28976" lon="-0.09474">
        <ele>7.4</ele>
        <time>2023-12-06T13:09:09Z</time>
      </trkpt>
      <trkpt lat="49.28981" lon="-0.09467">
        <ele>7.4</ele>
        <time>2023-12-06T13:09:10Z</time>
      </trkpt>
      <trkpt lat="49.28986" lon="-0.0946">
        <ele>7.2</ele>
        <time>2023-12-06T13:09:11Z</time>
      </trkpt>
      <trkpt lat="49.28992" lon="-0.09453">
        <ele>7.2</ele>
        <time>2023-12-06T13:09:12Z</time>
      </trkpt>
      <trkpt lat="49.28997" lon="-0.09446">
        <ele>7.2</ele>
        <time>2023-12-06T13:09:13Z</time>
      </trkpt>
      <trkpt lat="49.29002" lon="-0.09439">
        <ele>7.2</ele>
        <time>2023-12-06T13:09:14Z</time>
      </trkpt>
      <trkpt lat="49.29007" lon="-0.09432">
        <ele>7.2</ele>
        <time>2023-12-06T13:09:15Z</time>
      </trkpt>
      <trkpt lat="49.29013" lon="-0.09426">
        <ele>7.2</ele>
        <time>2023-12-06T13:09:16Z</time>
      </trkpt>
      <trkpt lat="49.29018" lon="-0.09419">
        <ele>7.2</ele>
        <time>2023-12-06T13:09:17Z</time>
      </trkpt>
      <trkpt lat="49.29023" lon="-0.09412">
        <ele>7.2</ele>
        <time>2023-12-06T13:09:18Z</time>
      </trkpt>
      <trkpt lat="49.29028" lon="-0.09405">
        <ele>7</ele>
        <time>2023-12-06T13:09:19Z</time>
      </trkpt>
      <trkpt lat="49.29034" lon="-0.09398">
        <ele>7</ele>
        <time>2023-12-06T13:09:20Z</time>
      </trkpt>
      <trkpt lat="49.29039" lon="-0.09392">
        <ele>7</ele>
        <time>2023-12-06T13:09:21Z</time>
      </trkpt>
      <trkpt lat="49.29044" lon="-0.09387">
        <ele>7</ele>
        <time>2023-12-06T13:09:22Z</time>
      </trkpt>
      <trkpt lat="49.2905" lon="-0.09379">
        <ele>7</ele>
        <time>2023-12-06T13:09:23Z</time>
      </trkpt>
      <trkpt lat="49.29055" lon="-0.09372">
        <ele>7</ele>
        <time>2023-12-06T13:09:24Z</time>
      </trkpt>
      <trkpt lat="49.29061" lon="-0.09365">
        <ele>7</ele>
        <time>2023-12-06T13:09:25Z</time>
      </trkpt>
      <trkpt lat="49.29066" lon="-0.09359">
        <ele>7</ele>
        <time>2023-12-06T13:09:26Z</time>
      </trkpt>
      <trkpt lat="49.29072" lon="-0.09352">
        <ele>7</ele>
        <time>2023-12-06T13:09:27Z</time>
      </trkpt>
      <trkpt lat="49.29077" lon="-0.09346">
        <ele>7</ele>
        <time>2023-12-06T13:09:28Z</time>
      </trkpt>
      <trkpt lat="49.29083" lon="-0.09341">
        <ele>7</ele>
        <time>2023-12-06T13:09:29Z</time>
      </trkpt>
      <trkpt lat="49.2909" lon="-0.09336">
        <ele>7</ele>
        <time>2023-12-06T13:09:30Z</time>
      </trkpt>
      <trkpt lat="49.29096" lon="-0.09331">
        <ele>7.2</ele>
        <time>2023-12-06T13:09:31Z</time>
      </trkpt>
      <trkpt lat="49.29102" lon="-0.09326">
        <ele>7.2</ele>
        <time>2023-12-06T13:09:32Z</time>
      </trkpt>
      <trkpt lat="49.29108" lon="-0.09321">
        <ele>7.2</ele>
        <time>2023-12-06T13:09:33Z</time>
      </trkpt>
      <trkpt lat="49.29114" lon="-0.09317">
        <ele>7.2</ele>
        <time>2023-12-06T13:09:34Z</time>
      </trkpt>
      <trkpt lat="49.29121" lon="-0.09312">
        <ele>7.2</ele>
        <time>2023-12-06T13:09:35Z</time>
      </trkpt>
      <trkpt lat="49.29127" lon="-0.09308">
        <ele>7.2</ele>
        <time>2023-12-06T13:09:36Z</time>
      </trkpt>
      <trkpt lat="49.29133" lon="-0.09303">
        <ele>7.2</ele>
        <time>2023-12-06T13:09:37Z</time>
      </trkpt>
      <trkpt lat="49.29139" lon="-0.09299">
        <ele>7.2</ele>
        <time>2023-12-06T13:09:38Z</time>
      </trkpt>
      <trkpt lat="49.29145" lon="-0.09295">
        <ele>7.4</ele>
        <time>2023-12-06T13:09:39Z</time>
      </trkpt>
      <trkpt lat="49.29152" lon="-0.09291">
        <ele>7.4</ele>
        <time>2023-12-06T13:09:40Z</time>
      </trkpt>
      <trkpt lat="49.29158" lon="-0.09287">
        <ele>7.4</ele>
        <time>2023-12-06T13:09:41Z</time>
      </trkpt>
      <trkpt lat="49.29164" lon="-0.09283">
        <ele>7.4</ele>
        <time>2023-12-06T13:09:42Z</time>
      </trkpt>
      <trkpt lat="49.2917" lon="-0.09279">
        <ele>7.4</ele>
        <time>2023-12-06T13:09:43Z</time>
      </trkpt>
      <trkpt lat="49.29178" lon="-0.09274">
        <ele>7.4</ele>
        <time>2023-12-06T13:09:44Z</time>
      </trkpt>
      <trkpt lat="49.29183" lon="-0.09271">
        <ele>7.4</ele>
        <time>2023-12-06T13:09:45Z</time>
      </trkpt>
      <trkpt lat="49.29189" lon="-0.09267">
        <ele>7.6</ele>
        <time>2023-12-06T13:09:46Z</time>
      </trkpt>
      <trkpt lat="49.29196" lon="-0.09262">
        <ele>7.6</ele>
        <time>2023-12-06T13:09:47Z</time>
      </trkpt>
      <trkpt lat="49.29201" lon="-0.09258">
        <ele>7.6</ele>
        <time>2023-12-06T13:09:48Z</time>
      </trkpt>
      <trkpt lat="49.29208" lon="-0.09253">
        <ele>7.6</ele>
        <time>2023-12-06T13:09:49Z</time>
      </trkpt>
      <trkpt lat="49.29212" lon="-0.0925">
        <ele>7.6</ele>
        <time>2023-12-06T13:09:50Z</time>
      </trkpt>
      <trkpt lat="49.29218" lon="-0.09245">
        <ele>7.6</ele>
        <time>2023-12-06T13:09:51Z</time>
      </trkpt>
      <trkpt lat="49.29224" lon="-0.0924">
        <ele>7.6</ele>
        <time>2023-12-06T13:09:52Z</time>
      </trkpt>
      <trkpt lat="49.29227" lon="-0.09237">
        <ele>7.6</ele>
        <time>2023-12-06T13:09:53Z</time>
      </trkpt>
      <trkpt lat="49.29231" lon="-0.09233">
        <ele>7.6</ele>
        <time>2023-12-06T13:09:54Z</time>
      </trkpt>
      <trkpt lat="49.29235" lon="-0.09229">
        <ele>7.6</ele>
        <time>2023-12-06T13:09:55Z</time>
      </trkpt>
      <trkpt lat="49.29237" lon="-0.09227">
        <ele>7.8</ele>
        <time>2023-12-06T13:09:56Z</time>
      </trkpt>
      <trkpt lat="49.2924" lon="-0.09225">
        <ele>7.8</ele>
        <time>2023-12-06T13:09:57Z</time>
      </trkpt>
      <trkpt lat="49.29244" lon="-0.09222">
        <ele>7.8</ele>
        <time>2023-12-06T13:09:58Z</time>
      </trkpt>
      <trkpt lat="49.29247" lon="-0.09218">
        <ele>7.8</ele>
        <time>2023-12-06T13:09:59Z</time>
      </trkpt>
      <trkpt lat="49.2925" lon="-0.09215">
        <ele>7.8</ele>
        <time>2023-12-06T13:10:00Z</time>
      </trkpt>
      <trkpt lat="49.29254" lon="-0.09211">
        <ele>7.8</ele>
        <time>2023-12-06T13:10:01Z</time>
      </trkpt>
      <trkpt lat="49.29258" lon="-0.09207">
        <ele>7.8</ele>
        <time>2023-12-06T13:10:02Z</time>
      </trkpt>
      <trkpt lat="49.29263" lon="-0.09203">
        <ele>7.8</ele>
        <time>2023-12-06T13:10:03Z</time>
      </trkpt>
      <trkpt lat="49.29268" lon="-0.09198">
        <ele>8</ele>
        <time>2023-12-06T13:10:04Z</time>
      </trkpt>
      <trkpt lat="49.29273" lon="-0.09194">
        <ele>8</ele>
        <time>2023-12-06T13:10:05Z</time>
      </trkpt>
      <trkpt lat="49.29278" lon="-0.0919">
        <ele>8</ele>
        <time>2023-12-06T13:10:06Z</time>
      </trkpt>
      <trkpt lat="49.29285" lon="-0.09184">
        <ele>8</ele>
        <time>2023-12-06T13:10:07Z</time>
      </trkpt>
      <trkpt lat="49.29289" lon="-0.0918">
        <ele>8</ele>
        <time>2023-12-06T13:10:08Z</time>
      </trkpt>
      <trkpt lat="49.29294" lon="-0.09174">
        <ele>8</ele>
        <time>2023-12-06T13:10:09Z</time>
      </trkpt>
      <trkpt lat="49.29301" lon="-0.09168">
        <ele>8</ele>
        <time>2023-12-06T13:10:10Z</time>
      </trkpt>
      <trkpt lat="49.29306" lon="-0.09164">
        <ele>8</ele>
        <time>2023-12-06T13:10:11Z</time>
      </trkpt>
      <trkpt lat="49.29311" lon="-0.09159">
        <ele>8</ele>
        <time>2023-12-06T13:10:12Z</time>
      </trkpt>
      <trkpt lat="49.29317" lon="-0.09153">
        <ele>8</ele>
        <time>2023-12-06T13:10:13Z</time>
      </trkpt>
      <trkpt lat="49.29323" lon="-0.09148">
        <ele>7.8</ele>
        <time>2023-12-06T13:10:14Z</time>
      </trkpt>
      <trkpt lat="49.29329" lon="-0.09143">
        <ele>7.8</ele>
        <time>2023-12-06T13:10:15Z</time>
      </trkpt>
      <trkpt lat="49.29335" lon="-0.09138">
        <ele>7.8</ele>
        <time>2023-12-06T13:10:16Z</time>
      </trkpt>
      <trkpt lat="49.29341" lon="-0.09132">
        <ele>7.8</ele>
        <time>2023-12-06T13:10:17Z</time>
      </trkpt>
      <trkpt lat="49.29347" lon="-0.09127">
        <ele>7.6</ele>
        <time>2023-12-06T13:10:18Z</time>
      </trkpt>
      <trkpt lat="49.29353" lon="-0.09121">
        <ele>7.6</ele>
        <time>2023-12-06T13:10:19Z</time>
      </trkpt>
      <trkpt lat="49.29359" lon="-0.09115">
        <ele>7.6</ele>
        <time>2023-12-06T13:10:20Z</time>
      </trkpt>
      <trkpt lat="49.29364" lon="-0.0911">
        <ele>7.6</ele>
        <time>2023-12-06T13:10:21Z</time>
      </trkpt>
      <trkpt lat="49.2937" lon="-0.09104">
        <ele>7.6</ele>
        <time>2023-12-06T13:10:22Z</time>
      </trkpt>
      <trkpt lat="49.29376" lon="-0.09099">
        <ele>7.6</ele>
        <time>2023-12-06T13:10:23Z</time>
      </trkpt>
      <trkpt lat="49.29381" lon="-0.09093">
        <ele>7.6</ele>
        <time>2023-12-06T13:10:24Z</time>
      </trkpt>
      <trkpt lat="49.29387" lon="-0.09088">
        <ele>7.6</ele>
        <time>2023-12-06T13:10:25Z</time>
      </trkpt>
      <trkpt lat="49.29392" lon="-0.09083">
        <ele>7.6</ele>
        <time>2023-12-06T13:10:26Z</time>
      </trkpt>
      <trkpt lat="49.29397" lon="-0.09078">
        <ele>7.6</ele>
        <time>2023-12-06T13:10:27Z</time>
      </trkpt>
      <trkpt lat="49.29403" lon="-0.09072">
        <ele>7.6</ele>
        <time>2023-12-06T13:10:28Z</time>
      </trkpt>
      <trkpt lat="49.29407" lon="-0.09069">
        <ele>7.8</ele>
        <time>2023-12-06T13:10:29Z</time>
      </trkpt>
      <trkpt lat="49.29411" lon="-0.09066">
        <ele>7.8</ele>
        <time>2023-12-06T13:10:30Z</time>
      </trkpt>
      <trkpt lat="49.29417" lon="-0.09063">
        <ele>7.8</ele>
        <time>2023-12-06T13:10:31Z</time>
      </trkpt>
      <trkpt lat="49.29421" lon="-0.09062">
        <ele>8</ele>
        <time>2023-12-06T13:10:32Z</time>
      </trkpt>
      <trkpt lat="49.29424" lon="-0.09062">
        <ele>8</ele>
        <time>2023-12-06T13:10:33Z</time>
      </trkpt>
      <trkpt lat="49.29427" lon="-0.09062">
        <ele>8</ele>
        <time>2023-12-06T13:10:34Z</time>
      </trkpt>
      <trkpt lat="49.29429" lon="-0.09062">
        <ele>8.2</ele>
        <time>2023-12-06T13:10:35Z</time>
      </trkpt>
      <trkpt lat="49.29429" lon="-0.09062">
        <ele>8.4</ele>
        <time>2023-12-06T13:10:36Z</time>
      </trkpt>
      <trkpt lat="49.29429" lon="-0.09062">
        <ele>8.4</ele>
        <time>2023-12-06T13:10:37Z</time>
      </trkpt>
      <trkpt lat="49.29435" lon="-0.09061">
        <ele>9.2</ele>
        <time>2023-12-06T13:10:59Z</time>
      </trkpt>
      <trkpt lat="49.29436" lon="-0.0906">
        <ele>9.2</ele>
        <time>2023-12-06T13:11:00Z</time>
      </trkpt>
      <trkpt lat="49.29439" lon="-0.0906">
        <ele>9.2</ele>
        <time>2023-12-06T13:11:01Z</time>
      </trkpt>
      <trkpt lat="49.29441" lon="-0.09061">
        <ele>9.2</ele>
        <time>2023-12-06T13:11:02Z</time>
      </trkpt>
      <trkpt lat="49.29444" lon="-0.09062">
        <ele>9.2</ele>
        <time>2023-12-06T13:11:03Z</time>
      </trkpt>
      <trkpt lat="49.29446" lon="-0.09062">
        <ele>9.2</ele>
        <time>2023-12-06T13:11:04Z</time>
      </trkpt>
      <trkpt lat="49.29449" lon="-0.09062">
        <ele>9.2</ele>
        <time>2023-12-06T13:11:05Z</time>
      </trkpt>
      <trkpt lat="49.29451" lon="-0.09061">
        <ele>9.2</ele>
        <time>2023-12-06T13:11:06Z</time>
      </trkpt>
      <trkpt lat="49.29453" lon="-0.09059">
        <ele>9.2</ele>
        <time>2023-12-06T13:11:07Z</time>
      </trkpt>
      <trkpt lat="49.29455" lon="-0.09056">
        <ele>9.4</ele>
        <time>2023-12-06T13:11:08Z</time>
      </trkpt>
      <trkpt lat="49.29456" lon="-0.09052">
        <ele>9.4</ele>
        <time>2023-12-06T13:11:09Z</time>
      </trkpt>
      <trkpt lat="49.29456" lon="-0.09049">
        <ele>9.4</ele>
        <time>2023-12-06T13:11:10Z</time>
      </trkpt>
      <trkpt lat="49.29457" lon="-0.09044">
        <ele>9.4</ele>
        <time>2023-12-06T13:11:11Z</time>
      </trkpt>
      <trkpt lat="49.29458" lon="-0.09037">
        <ele>9.4</ele>
        <time>2023-12-06T13:11:12Z</time>
      </trkpt>
      <trkpt lat="49.2946" lon="-0.09031">
        <ele>9.4</ele>
        <time>2023-12-06T13:11:13Z</time>
      </trkpt>
      <trkpt lat="49.29462" lon="-0.09024">
        <ele>9.4</ele>
        <time>2023-12-06T13:11:14Z</time>
      </trkpt>
      <trkpt lat="49.29464" lon="-0.09016">
        <ele>9.4</ele>
        <time>2023-12-06T13:11:15Z</time>
      </trkpt>
      <trkpt lat="49.29466" lon="-0.0901">
        <ele>9.6</ele>
        <time>2023-12-06T13:11:16Z</time>
      </trkpt>
      <trkpt lat="49.29469" lon="-0.09001">
        <ele>9.6</ele>
        <time>2023-12-06T13:11:17Z</time>
      </trkpt>
      <trkpt lat="49.29473" lon="-0.08993">
        <ele>9.6</ele>
        <time>2023-12-06T13:11:18Z</time>
      </trkpt>
      <trkpt lat="49.29476" lon="-0.08985">
        <ele>9.6</ele>
        <time>2023-12-06T13:11:19Z</time>
      </trkpt>
      <trkpt lat="49.2948" lon="-0.08977">
        <ele>9.6</ele>
        <time>2023-12-06T13:11:20Z</time>
      </trkpt>
      <trkpt lat="49.29483" lon="-0.08969">
        <ele>9.6</ele>
        <time>2023-12-06T13:11:21Z</time>
      </trkpt>
      <trkpt lat="49.29486" lon="-0.0896">
        <ele>9.6</ele>
        <time>2023-12-06T13:11:22Z</time>
      </trkpt>
      <trkpt lat="49.29489" lon="-0.08952">
        <ele>9.6</ele>
        <time>2023-12-06T13:11:23Z</time>
      </trkpt>
      <trkpt lat="49.29491" lon="-0.08945">
        <ele>9.6</ele>
        <time>2023-12-06T13:11:24Z</time>
      </trkpt>
      <trkpt lat="49.29494" lon="-0.08934">
        <ele>9.4</ele>
        <time>2023-12-06T13:11:25Z</time>
      </trkpt>
      <trkpt lat="49.29497" lon="-0.08925">
        <ele>9.4</ele>
        <time>2023-12-06T13:11:26Z</time>
      </trkpt>
      <trkpt lat="49.295" lon="-0.08917">
        <ele>9.4</ele>
        <time>2023-12-06T13:11:27Z</time>
      </trkpt>
      <trkpt lat="49.29503" lon="-0.08908">
        <ele>9.4</ele>
        <time>2023-12-06T13:11:28Z</time>
      </trkpt>
      <trkpt lat="49.29506" lon="-0.089">
        <ele>9.4</ele>
        <time>2023-12-06T13:11:29Z</time>
      </trkpt>
      <trkpt lat="49.29509" lon="-0.08893">
        <ele>9.4</ele>
        <time>2023-12-06T13:11:30Z</time>
      </trkpt>
      <trkpt lat="49.29514" lon="-0.08883">
        <ele>9.4</ele>
        <time>2023-12-06T13:11:31Z</time>
      </trkpt>
      <trkpt lat="49.29518" lon="-0.08874">
        <ele>9.4</ele>
        <time>2023-12-06T13:11:32Z</time>
      </trkpt>
      <trkpt lat="49.29522" lon="-0.08866">
        <ele>9.4</ele>
        <time>2023-12-06T13:11:33Z</time>
      </trkpt>
      <trkpt lat="49.29526" lon="-0.08858">
        <ele>9.4</ele>
        <time>2023-12-06T13:11:34Z</time>
      </trkpt>
      <trkpt lat="49.2953" lon="-0.0885">
        <ele>9.4</ele>
        <time>2023-12-06T13:11:35Z</time>
      </trkpt>
      <trkpt lat="49.29534" lon="-0.08842">
        <ele>9.4</ele>
        <time>2023-12-06T13:11:36Z</time>
      </trkpt>
      <trkpt lat="49.29539" lon="-0.08833">
        <ele>9.2</ele>
        <time>2023-12-06T13:11:37Z</time>
      </trkpt>
      <trkpt lat="49.29543" lon="-0.08827">
        <ele>9.2</ele>
        <time>2023-12-06T13:11:38Z</time>
      </trkpt>
      <trkpt lat="49.29547" lon="-0.08822">
        <ele>9</ele>
        <time>2023-12-06T13:11:39Z</time>
      </trkpt>
      <trkpt lat="49.29552" lon="-0.08813">
        <ele>9</ele>
        <time>2023-12-06T13:11:40Z</time>
      </trkpt>
      <trkpt lat="49.29557" lon="-0.08807">
        <ele>9</ele>
        <time>2023-12-06T13:11:41Z</time>
      </trkpt>
      <trkpt lat="49.29561" lon="-0.08801">
        <ele>9</ele>
        <time>2023-12-06T13:11:42Z</time>
      </trkpt>
      <trkpt lat="49.29567" lon="-0.08795">
        <ele>9</ele>
        <time>2023-12-06T13:11:43Z</time>
      </trkpt>
      <trkpt lat="49.29573" lon="-0.08788">
        <ele>9</ele>
        <time>2023-12-06T13:11:44Z</time>
      </trkpt>
      <trkpt lat="49.29579" lon="-0.08781">
        <ele>9</ele>
        <time>2023-12-06T13:11:45Z</time>
      </trkpt>
      <trkpt lat="49.29583" lon="-0.08777">
        <ele>9</ele>
        <time>2023-12-06T13:11:46Z</time>
      </trkpt>
      <trkpt lat="49.2959" lon="-0.0877">
        <ele>9</ele>
        <time>2023-12-06T13:11:47Z</time>
      </trkpt>
      <trkpt lat="49.29595" lon="-0.08764">
        <ele>9</ele>
        <time>2023-12-06T13:11:48Z</time>
      </trkpt>
      <trkpt lat="49.29601" lon="-0.08759">
        <ele>9</ele>
        <time>2023-12-06T13:11:49Z</time>
      </trkpt>
      <trkpt lat="49.29607" lon="-0.08754">
        <ele>8.8</ele>
        <time>2023-12-06T13:11:50Z</time>
      </trkpt>
      <trkpt lat="49.29611" lon="-0.08751">
        <ele>8.8</ele>
        <time>2023-12-06T13:11:51Z</time>
      </trkpt>
      <trkpt lat="49.29619" lon="-0.08745">
        <ele>8.8</ele>
        <time>2023-12-06T13:11:52Z</time>
      </trkpt>
      <trkpt lat="49.29625" lon="-0.0874">
        <ele>8.8</ele>
        <time>2023-12-06T13:11:53Z</time>
      </trkpt>
      <trkpt lat="49.29631" lon="-0.08735">
        <ele>8.8</ele>
        <time>2023-12-06T13:11:54Z</time>
      </trkpt>
      <trkpt lat="49.29637" lon="-0.08731">
        <ele>8.8</ele>
        <time>2023-12-06T13:11:55Z</time>
      </trkpt>
      <trkpt lat="49.29643" lon="-0.08726">
        <ele>9</ele>
        <time>2023-12-06T13:11:56Z</time>
      </trkpt>
      <trkpt lat="49.29649" lon="-0.08721">
        <ele>9</ele>
        <time>2023-12-06T13:11:57Z</time>
      </trkpt>
      <trkpt lat="49.29655" lon="-0.08717">
        <ele>9</ele>
        <time>2023-12-06T13:11:58Z</time>
      </trkpt>
      <trkpt lat="49.29661" lon="-0.08712">
        <ele>9</ele>
        <time>2023-12-06T13:11:59Z</time>
      </trkpt>
      <trkpt lat="49.29667" lon="-0.08707">
        <ele>9</ele>
        <time>2023-12-06T13:12:00Z</time>
      </trkpt>
      <trkpt lat="49.29673" lon="-0.08702">
        <ele>9</ele>
        <time>2023-12-06T13:12:01Z</time>
      </trkpt>
      <trkpt lat="49.2968" lon="-0.08697">
        <ele>9</ele>
        <time>2023-12-06T13:12:02Z</time>
      </trkpt>
      <trkpt lat="49.29686" lon="-0.08692">
        <ele>9</ele>
        <time>2023-12-06T13:12:03Z</time>
      </trkpt>
      <trkpt lat="49.29692" lon="-0.08687">
        <ele>9</ele>
        <time>2023-12-06T13:12:04Z</time>
      </trkpt>
      <trkpt lat="49.29698" lon="-0.08682">
        <ele>9</ele>
        <time>2023-12-06T13:12:05Z</time>
      </trkpt>
      <trkpt lat="49.29704" lon="-0.08677">
        <ele>9</ele>
        <time>2023-12-06T13:12:06Z</time>
      </trkpt>
      <trkpt lat="49.2971" lon="-0.08672">
        <ele>9</ele>
        <time>2023-12-06T13:12:07Z</time>
      </trkpt>
      <trkpt lat="49.29715" lon="-0.08667">
        <ele>9</ele>
        <time>2023-12-06T13:12:08Z</time>
      </trkpt>
      <trkpt lat="49.29721" lon="-0.08662">
        <ele>9</ele>
        <time>2023-12-06T13:12:09Z</time>
      </trkpt>
      <trkpt lat="49.29727" lon="-0.08657">
        <ele>8.8</ele>
        <time>2023-12-06T13:12:10Z</time>
      </trkpt>
      <trkpt lat="49.29733" lon="-0.08651">
        <ele>9</ele>
        <time>2023-12-06T13:12:11Z</time>
      </trkpt>
      <trkpt lat="49.29738" lon="-0.08646">
        <ele>9</ele>
        <time>2023-12-06T13:12:12Z</time>
      </trkpt>
      <trkpt lat="49.29744" lon="-0.08641">
        <ele>9</ele>
        <time>2023-12-06T13:12:13Z</time>
      </trkpt>
      <trkpt lat="49.2975" lon="-0.08635">
        <ele>9</ele>
        <time>2023-12-06T13:12:14Z</time>
      </trkpt>
      <trkpt lat="49.29756" lon="-0.0863">
        <ele>9</ele>
        <time>2023-12-06T13:12:15Z</time>
      </trkpt>
      <trkpt lat="49.29761" lon="-0.08624">
        <ele>9</ele>
        <time>2023-12-06T13:12:16Z</time>
      </trkpt>
      <trkpt lat="49.29767" lon="-0.08618">
        <ele>9</ele>
        <time>2023-12-06T13:12:17Z</time>
      </trkpt>
      <trkpt lat="49.29772" lon="-0.08613">
        <ele>9</ele>
        <time>2023-12-06T13:12:18Z</time>
      </trkpt>
      <trkpt lat="49.29777" lon="-0.08607">
        <ele>9</ele>
        <time>2023-12-06T13:12:19Z</time>
      </trkpt>
      <trkpt lat="49.29783" lon="-0.08602">
        <ele>9</ele>
        <time>2023-12-06T13:12:20Z</time>
      </trkpt>
      <trkpt lat="49.29788" lon="-0.08596">
        <ele>9</ele>
        <time>2023-12-06T13:12:21Z</time>
      </trkpt>
      <trkpt lat="49.29793" lon="-0.08591">
        <ele>9</ele>
        <time>2023-12-06T13:12:22Z</time>
      </trkpt>
      <trkpt lat="49.29797" lon="-0.08586">
        <ele>9</ele>
        <time>2023-12-06T13:12:23Z</time>
      </trkpt>
      <trkpt lat="49.29801" lon="-0.08582">
        <ele>9</ele>
        <time>2023-12-06T13:12:24Z</time>
      </trkpt>
      <trkpt lat="49.29806" lon="-0.08577">
        <ele>9</ele>
        <time>2023-12-06T13:12:25Z</time>
      </trkpt>
      <trkpt lat="49.2981" lon="-0.08573">
        <ele>9</ele>
        <time>2023-12-06T13:12:26Z</time>
      </trkpt>
      <trkpt lat="49.29815" lon="-0.08569">
        <ele>9</ele>
        <time>2023-12-06T13:12:27Z</time>
      </trkpt>
      <trkpt lat="49.29819" lon="-0.08566">
        <ele>9</ele>
        <time>2023-12-06T13:12:28Z</time>
      </trkpt>
      <trkpt lat="49.29822" lon="-0.08562">
        <ele>9</ele>
        <time>2023-12-06T13:12:29Z</time>
      </trkpt>
      <trkpt lat="49.29825" lon="-0.08557">
        <ele>9</ele>
        <time>2023-12-06T13:12:30Z</time>
      </trkpt>
      <trkpt lat="49.29829" lon="-0.08553">
        <ele>9.2</ele>
        <time>2023-12-06T13:12:31Z</time>
      </trkpt>
      <trkpt lat="49.29833" lon="-0.08548">
        <ele>9.2</ele>
        <time>2023-12-06T13:12:32Z</time>
      </trkpt>
      <trkpt lat="49.29838" lon="-0.08543">
        <ele>9.4</ele>
        <time>2023-12-06T13:12:33Z</time>
      </trkpt>
      <trkpt lat="49.29842" lon="-0.08539">
        <ele>9.6</ele>
        <time>2023-12-06T13:12:34Z</time>
      </trkpt>
      <trkpt lat="49.29848" lon="-0.08533">
        <ele>9.8</ele>
        <time>2023-12-06T13:12:35Z</time>
      </trkpt>
      <trkpt lat="49.29852" lon="-0.08528">
        <ele>9.8</ele>
        <time>2023-12-06T13:12:36Z</time>
      </trkpt>
      <trkpt lat="49.29857" lon="-0.08523">
        <ele>9.8</ele>
        <time>2023-12-06T13:12:37Z</time>
      </trkpt>
      <trkpt lat="49.29861" lon="-0.08521">
        <ele>10</ele>
        <time>2023-12-06T13:12:38Z</time>
      </trkpt>
      <trkpt lat="49.29866" lon="-0.08518">
        <ele>10</ele>
        <time>2023-12-06T13:12:39Z</time>
      </trkpt>
      <trkpt lat="49.29872" lon="-0.08514">
        <ele>10</ele>
        <time>2023-12-06T13:12:40Z</time>
      </trkpt>
      <trkpt lat="49.29877" lon="-0.08509">
        <ele>10.2</ele>
        <time>2023-12-06T13:12:41Z</time>
      </trkpt>
      <trkpt lat="49.29882" lon="-0.08505">
        <ele>10.2</ele>
        <time>2023-12-06T13:12:42Z</time>
      </trkpt>
      <trkpt lat="49.29888" lon="-0.085">
        <ele>10.2</ele>
        <time>2023-12-06T13:12:43Z</time>
      </trkpt>
      <trkpt lat="49.29893" lon="-0.08494">
        <ele>10.2</ele>
        <time>2023-12-06T13:12:44Z</time>
      </trkpt>
      <trkpt lat="49.29898" lon="-0.08489">
        <ele>10</ele>
        <time>2023-12-06T13:12:45Z</time>
      </trkpt>
      <trkpt lat="49.29903" lon="-0.08484">
        <ele>10</ele>
        <time>2023-12-06T13:12:46Z</time>
      </trkpt>
      <trkpt lat="49.29908" lon="-0.08479">
        <ele>10</ele>
        <time>2023-12-06T13:12:47Z</time>
      </trkpt>
      <trkpt lat="49.29913" lon="-0.08474">
        <ele>10</ele>
        <time>2023-12-06T13:12:48Z</time>
      </trkpt>
      <trkpt lat="49.29917" lon="-0.08468">
        <ele>10</ele>
        <time>2023-12-06T13:12:49Z</time>
      </trkpt>
      <trkpt lat="49.29922" lon="-0.08462">
        <ele>10.2</ele>
        <time>2023-12-06T13:12:50Z</time>
      </trkpt>
      <trkpt lat="49.29926" lon="-0.08455">
        <ele>10.2</ele>
        <time>2023-12-06T13:12:51Z</time>
      </trkpt>
      <trkpt lat="49.2993" lon="-0.0845">
        <ele>10.2</ele>
        <time>2023-12-06T13:12:52Z</time>
      </trkpt>
      <trkpt lat="49.29934" lon="-0.08445">
        <ele>10.2</ele>
        <time>2023-12-06T13:12:53Z</time>
      </trkpt>
      <trkpt lat="49.29939" lon="-0.08439">
        <ele>10.2</ele>
        <time>2023-12-06T13:12:54Z</time>
      </trkpt>
      <trkpt lat="49.29943" lon="-0.08434">
        <ele>10.2</ele>
        <time>2023-12-06T13:12:55Z</time>
      </trkpt>
      <trkpt lat="49.29947" lon="-0.0843">
        <ele>10.2</ele>
        <time>2023-12-06T13:12:56Z</time>
      </trkpt>
      <trkpt lat="49.2995" lon="-0.08427">
        <ele>10.2</ele>
        <time>2023-12-06T13:12:57Z</time>
      </trkpt>
      <trkpt lat="49.29952" lon="-0.08425">
        <ele>10.4</ele>
        <time>2023-12-06T13:12:58Z</time>
      </trkpt>
      <trkpt lat="49.29954" lon="-0.08423">
        <ele>10.4</ele>
        <time>2023-12-06T13:12:59Z</time>
      </trkpt>
      <trkpt lat="49.29955" lon="-0.08422">
        <ele>10.4</ele>
        <time>2023-12-06T13:13:00Z</time>
      </trkpt>
      <trkpt lat="49.29956" lon="-0.08421">
        <ele>10.4</ele>
        <time>2023-12-06T13:13:01Z</time>
      </trkpt>
      <trkpt lat="49.29956" lon="-0.0842">
        <ele>10.4</ele>
        <time>2023-12-06T13:13:02Z</time>
      </trkpt>
      <trkpt lat="49.29959" lon="-0.08414">
        <ele>11</ele>
        <time>2023-12-06T13:13:15Z</time>
      </trkpt>
      <trkpt lat="49.29959" lon="-0.08411">
        <ele>11</ele>
        <time>2023-12-06T13:13:16Z</time>
      </trkpt>
      <trkpt lat="49.2996" lon="-0.08407">
        <ele>11</ele>
        <time>2023-12-06T13:13:17Z</time>
      </trkpt>
      <trkpt lat="49.29962" lon="-0.08404">
        <ele>11</ele>
        <time>2023-12-06T13:13:18Z</time>
      </trkpt>
      <trkpt lat="49.29963" lon="-0.084">
        <ele>11</ele>
        <time>2023-12-06T13:13:19Z</time>
      </trkpt>
      <trkpt lat="49.29965" lon="-0.08395">
        <ele>11</ele>
        <time>2023-12-06T13:13:20Z</time>
      </trkpt>
      <trkpt lat="49.29967" lon="-0.0839">
        <ele>11</ele>
        <time>2023-12-06T13:13:21Z</time>
      </trkpt>
      <trkpt lat="49.2997" lon="-0.08385">
        <ele>11</ele>
        <time>2023-12-06T13:13:22Z</time>
      </trkpt>
      <trkpt lat="49.29974" lon="-0.0838">
        <ele>11</ele>
        <time>2023-12-06T13:13:23Z</time>
      </trkpt>
      <trkpt lat="49.29979" lon="-0.08376">
        <ele>11</ele>
        <time>2023-12-06T13:13:24Z</time>
      </trkpt>
      <trkpt lat="49.29985" lon="-0.08372">
        <ele>11</ele>
        <time>2023-12-06T13:13:25Z</time>
      </trkpt>
      <trkpt lat="49.2999" lon="-0.08368">
        <ele>11</ele>
        <time>2023-12-06T13:13:26Z</time>
      </trkpt>
      <trkpt lat="49.29996" lon="-0.08364">
        <ele>11</ele>
        <time>2023-12-06T13:13:27Z</time>
      </trkpt>
      <trkpt lat="49.30002" lon="-0.08359">
        <ele>11</ele>
        <time>2023-12-06T13:13:28Z</time>
      </trkpt>
      <trkpt lat="49.30008" lon="-0.08353">
        <ele>11</ele>
        <time>2023-12-06T13:13:29Z</time>
      </trkpt>
      <trkpt lat="49.30014" lon="-0.08347">
        <ele>11</ele>
        <time>2023-12-06T13:13:30Z</time>
      </trkpt>
      <trkpt lat="49.3002" lon="-0.08341">
        <ele>11</ele>
        <time>2023-12-06T13:13:31Z</time>
      </trkpt>
      <trkpt lat="49.30025" lon="-0.08336">
        <ele>11</ele>
        <time>2023-12-06T13:13:32Z</time>
      </trkpt>
      <trkpt lat="49.30033" lon="-0.08329">
        <ele>10.8</ele>
        <time>2023-12-06T13:13:33Z</time>
      </trkpt>
      <trkpt lat="49.30039" lon="-0.08323">
        <ele>10.8</ele>
        <time>2023-12-06T13:13:34Z</time>
      </trkpt>
      <trkpt lat="49.30044" lon="-0.08317">
        <ele>10.6</ele>
        <time>2023-12-06T13:13:35Z</time>
      </trkpt>
      <trkpt lat="49.3005" lon="-0.08312">
        <ele>10.6</ele>
        <time>2023-12-06T13:13:36Z</time>
      </trkpt>
      <trkpt lat="49.30056" lon="-0.08306">
        <ele>10.6</ele>
        <time>2023-12-06T13:13:37Z</time>
      </trkpt>
      <trkpt lat="49.30062" lon="-0.083">
        <ele>10.4</ele>
        <time>2023-12-06T13:13:38Z</time>
      </trkpt>
      <trkpt lat="49.30067" lon="-0.08295">
        <ele>10.4</ele>
        <time>2023-12-06T13:13:39Z</time>
      </trkpt>
      <trkpt lat="49.30073" lon="-0.08289">
        <ele>10.4</ele>
        <time>2023-12-06T13:13:40Z</time>
      </trkpt>
      <trkpt lat="49.30078" lon="-0.08284">
        <ele>10.4</ele>
        <time>2023-12-06T13:13:41Z</time>
      </trkpt>
      <trkpt lat="49.30083" lon="-0.08278">
        <ele>10.4</ele>
        <time>2023-12-06T13:13:42Z</time>
      </trkpt>
      <trkpt lat="49.30089" lon="-0.08273">
        <ele>10.2</ele>
        <time>2023-12-06T13:13:43Z</time>
      </trkpt>
      <trkpt lat="49.30095" lon="-0.08267">
        <ele>10.2</ele>
        <time>2023-12-06T13:13:44Z</time>
      </trkpt>
      <trkpt lat="49.30101" lon="-0.08261">
        <ele>10.2</ele>
        <time>2023-12-06T13:13:45Z</time>
      </trkpt>
      <trkpt lat="49.30107" lon="-0.08255">
        <ele>10.2</ele>
        <time>2023-12-06T13:13:46Z</time>
      </trkpt>
      <trkpt lat="49.30113" lon="-0.08249">
        <ele>10.2</ele>
        <time>2023-12-06T13:13:47Z</time>
      </trkpt>
      <trkpt lat="49.30118" lon="-0.08243">
        <ele>10.2</ele>
        <time>2023-12-06T13:13:48Z</time>
      </trkpt>
      <trkpt lat="49.30124" lon="-0.08237">
        <ele>10.2</ele>
        <time>2023-12-06T13:13:49Z</time>
      </trkpt>
      <trkpt lat="49.30129" lon="-0.08232">
        <ele>10.2</ele>
        <time>2023-12-06T13:13:50Z</time>
      </trkpt>
      <trkpt lat="49.30135" lon="-0.08226">
        <ele>10.2</ele>
        <time>2023-12-06T13:13:51Z</time>
      </trkpt>
      <trkpt lat="49.3014" lon="-0.08221">
        <ele>10.2</ele>
        <time>2023-12-06T13:13:52Z</time>
      </trkpt>
      <trkpt lat="49.30145" lon="-0.08216">
        <ele>10</ele>
        <time>2023-12-06T13:13:53Z</time>
      </trkpt>
      <trkpt lat="49.30151" lon="-0.0821">
        <ele>10</ele>
        <time>2023-12-06T13:13:54Z</time>
      </trkpt>
      <trkpt lat="49.30156" lon="-0.08205">
        <ele>10</ele>
        <time>2023-12-06T13:13:55Z</time>
      </trkpt>
      <trkpt lat="49.30161" lon="-0.08199">
        <ele>10</ele>
        <time>2023-12-06T13:13:56Z</time>
      </trkpt>
      <trkpt lat="49.30167" lon="-0.08194">
        <ele>10</ele>
        <time>2023-12-06T13:13:57Z</time>
      </trkpt>
      <trkpt lat="49.30172" lon="-0.08188">
        <ele>9.8</ele>
        <time>2023-12-06T13:13:58Z</time>
      </trkpt>
      <trkpt lat="49.30177" lon="-0.08182">
        <ele>9.8</ele>
        <time>2023-12-06T13:13:59Z</time>
      </trkpt>
      <trkpt lat="49.30181" lon="-0.08175">
        <ele>9.8</ele>
        <time>2023-12-06T13:14:00Z</time>
      </trkpt>
      <trkpt lat="49.30185" lon="-0.08168">
        <ele>9.8</ele>
        <time>2023-12-06T13:14:01Z</time>
      </trkpt>
      <trkpt lat="49.30189" lon="-0.0816">
        <ele>9.8</ele>
        <time>2023-12-06T13:14:02Z</time>
      </trkpt>
      <trkpt lat="49.30193" lon="-0.08151">
        <ele>9.8</ele>
        <time>2023-12-06T13:14:03Z</time>
      </trkpt>
      <trkpt lat="49.30196" lon="-0.08143">
        <ele>9.8</ele>
        <time>2023-12-06T13:14:04Z</time>
      </trkpt>
      <trkpt lat="49.30199" lon="-0.08134">
        <ele>9.8</ele>
        <time>2023-12-06T13:14:05Z</time>
      </trkpt>
      <trkpt lat="49.30202" lon="-0.08125">
        <ele>9.8</ele>
        <time>2023-12-06T13:14:06Z</time>
      </trkpt>
      <trkpt lat="49.30205" lon="-0.08117">
        <ele>9.8</ele>
        <time>2023-12-06T13:14:07Z</time>
      </trkpt>
      <trkpt lat="49.30208" lon="-0.08108">
        <ele>9.8</ele>
        <time>2023-12-06T13:14:08Z</time>
      </trkpt>
      <trkpt lat="49.30211" lon="-0.08099">
        <ele>10</ele>
        <time>2023-12-06T13:14:09Z</time>
      </trkpt>
      <trkpt lat="49.30214" lon="-0.08091">
        <ele>10</ele>
        <time>2023-12-06T13:14:10Z</time>
      </trkpt>
      <trkpt lat="49.30217" lon="-0.08082">
        <ele>10</ele>
        <time>2023-12-06T13:14:11Z</time>
      </trkpt>
      <trkpt lat="49.3022" lon="-0.08073">
        <ele>10.2</ele>
        <time>2023-12-06T13:14:12Z</time>
      </trkpt>
      <trkpt lat="49.30223" lon="-0.08064">
        <ele>10.4</ele>
        <time>2023-12-06T13:14:13Z</time>
      </trkpt>
      <trkpt lat="49.30226" lon="-0.08056">
        <ele>10.2</ele>
        <time>2023-12-06T13:14:14Z</time>
      </trkpt>
      <trkpt lat="49.30229" lon="-0.08048">
        <ele>10.4</ele>
        <time>2023-12-06T13:14:15Z</time>
      </trkpt>
      <trkpt lat="49.30232" lon="-0.08041">
        <ele>10.6</ele>
        <time>2023-12-06T13:14:16Z</time>
      </trkpt>
      <trkpt lat="49.30235" lon="-0.08034">
        <ele>10.8</ele>
        <time>2023-12-06T13:14:17Z</time>
      </trkpt>
      <trkpt lat="49.30238" lon="-0.08027">
        <ele>11</ele>
        <time>2023-12-06T13:14:18Z</time>
      </trkpt>
      <trkpt lat="49.3024" lon="-0.08019">
        <ele>11</ele>
        <time>2023-12-06T13:14:19Z</time>
      </trkpt>
      <trkpt lat="49.30241" lon="-0.08011">
        <ele>11.2</ele>
        <time>2023-12-06T13:14:20Z</time>
      </trkpt>
      <trkpt lat="49.30241" lon="-0.08002">
        <ele>11.2</ele>
        <time>2023-12-06T13:14:21Z</time>
      </trkpt>
      <trkpt lat="49.30239" lon="-0.07995">
        <ele>11.2</ele>
        <time>2023-12-06T13:14:22Z</time>
      </trkpt>
      <trkpt lat="49.30236" lon="-0.07987">
        <ele>11.4</ele>
        <time>2023-12-06T13:14:23Z</time>
      </trkpt>
      <trkpt lat="49.30232" lon="-0.07981">
        <ele>11.4</ele>
        <time>2023-12-06T13:14:24Z</time>
      </trkpt>
      <trkpt lat="49.30227" lon="-0.07975">
        <ele>11.6</ele>
        <time>2023-12-06T13:14:25Z</time>
      </trkpt>
      <trkpt lat="49.30223" lon="-0.07968">
        <ele>11.8</ele>
        <time>2023-12-06T13:14:26Z</time>
      </trkpt>
      <trkpt lat="49.30218" lon="-0.07961">
        <ele>11.8</ele>
        <time>2023-12-06T13:14:27Z</time>
      </trkpt>
      <trkpt lat="49.30215" lon="-0.07956">
        <ele>11.8</ele>
        <time>2023-12-06T13:14:28Z</time>
      </trkpt>
      <trkpt lat="49.3021" lon="-0.0795">
        <ele>12</ele>
        <time>2023-12-06T13:14:29Z</time>
      </trkpt>
      <trkpt lat="49.30206" lon="-0.07944">
        <ele>12</ele>
        <time>2023-12-06T13:14:30Z</time>
      </trkpt>
      <trkpt lat="49.30203" lon="-0.07939">
        <ele>12</ele>
        <time>2023-12-06T13:14:31Z</time>
      </trkpt>
      <trkpt lat="49.30199" lon="-0.07933">
        <ele>12.2</ele>
        <time>2023-12-06T13:14:32Z</time>
      </trkpt>
      <trkpt lat="49.30194" lon="-0.07925">
        <ele>12.2</ele>
        <time>2023-12-06T13:14:33Z</time>
      </trkpt>
      <trkpt lat="49.3019" lon="-0.07919">
        <ele>12.4</ele>
        <time>2023-12-06T13:14:34Z</time>
      </trkpt>
      <trkpt lat="49.30187" lon="-0.07914">
        <ele>12.4</ele>
        <time>2023-12-06T13:14:35Z</time>
      </trkpt>
      <trkpt lat="49.30183" lon="-0.07908">
        <ele>12.4</ele>
        <time>2023-12-06T13:14:36Z</time>
      </trkpt>
      <trkpt lat="49.3018" lon="-0.07903">
        <ele>12.6</ele>
        <time>2023-12-06T13:14:37Z</time>
      </trkpt>
      <trkpt lat="49.30176" lon="-0.07896">
        <ele>12.6</ele>
        <time>2023-12-06T13:14:38Z</time>
      </trkpt>
      <trkpt lat="49.30173" lon="-0.07892">
        <ele>12.8</ele>
        <time>2023-12-06T13:14:39Z</time>
      </trkpt>
      <trkpt lat="49.30171" lon="-0.07889">
        <ele>13</ele>
        <time>2023-12-06T13:14:40Z</time>
      </trkpt>
      <trkpt lat="49.30168" lon="-0.07885">
        <ele>13</ele>
        <time>2023-12-06T13:14:41Z</time>
      </trkpt>
      <trkpt lat="49.30165" lon="-0.07882">
        <ele>13.2</ele>
        <time>2023-12-06T13:14:42Z</time>
      </trkpt>
      <trkpt lat="49.30162" lon="-0.07877">
        <ele>13.2</ele>
        <time>2023-12-06T13:14:43Z</time>
      </trkpt>
      <trkpt lat="49.30159" lon="-0.07872">
        <ele>13.2</ele>
        <time>2023-12-06T13:14:44Z</time>
      </trkpt>
      <trkpt lat="49.30156" lon="-0.07867">
        <ele>13.4</ele>
        <time>2023-12-06T13:14:45Z</time>
      </trkpt>
      <trkpt lat="49.30153" lon="-0.07862">
        <ele>13.4</ele>
        <time>2023-12-06T13:14:46Z</time>
      </trkpt>
      <trkpt lat="49.3015" lon="-0.07856">
        <ele>13.4</ele>
        <time>2023-12-06T13:14:47Z</time>
      </trkpt>
      <trkpt lat="49.30146" lon="-0.07851">
        <ele>13.6</ele>
        <time>2023-12-06T13:14:48Z</time>
      </trkpt>
      <trkpt lat="49.30143" lon="-0.07845">
        <ele>13.6</ele>
        <time>2023-12-06T13:14:49Z</time>
      </trkpt>
      <trkpt lat="49.3014" lon="-0.07839">
        <ele>14</ele>
        <time>2023-12-06T13:14:50Z</time>
      </trkpt>
      <trkpt lat="49.30136" lon="-0.07833">
        <ele>14</ele>
        <time>2023-12-06T13:14:51Z</time>
      </trkpt>
      <trkpt lat="49.30133" lon="-0.07826">
        <ele>14</ele>
        <time>2023-12-06T13:14:52Z</time>
      </trkpt>
      <trkpt lat="49.3013" lon="-0.0782">
        <ele>14.2</ele>
        <time>2023-12-06T13:14:53Z</time>
      </trkpt>
      <trkpt lat="49.30126" lon="-0.07813">
        <ele>14.2</ele>
        <time>2023-12-06T13:14:54Z</time>
      </trkpt>
      <trkpt lat="49.30122" lon="-0.07807">
        <ele>14.2</ele>
        <time>2023-12-06T13:14:55Z</time>
      </trkpt>
      <trkpt lat="49.30119" lon="-0.07801">
        <ele>14.2</ele>
        <time>2023-12-06T13:14:56Z</time>
      </trkpt>
      <trkpt lat="49.30115" lon="-0.07795">
        <ele>14.2</ele>
        <time>2023-12-06T13:14:57Z</time>
      </trkpt>
      <trkpt lat="49.30111" lon="-0.07789">
        <ele>14.4</ele>
        <time>2023-12-06T13:14:58Z</time>
      </trkpt>
      <trkpt lat="49.30107" lon="-0.07782">
        <ele>14.4</ele>
        <time>2023-12-06T13:14:59Z</time>
      </trkpt>
      <trkpt lat="49.30104" lon="-0.07776">
        <ele>14.4</ele>
        <time>2023-12-06T13:15:00Z</time>
      </trkpt>
      <trkpt lat="49.301" lon="-0.07769">
        <ele>14.4</ele>
        <time>2023-12-06T13:15:01Z</time>
      </trkpt>
      <trkpt lat="49.30097" lon="-0.07762">
        <ele>14.6</ele>
        <time>2023-12-06T13:15:02Z</time>
      </trkpt>
      <trkpt lat="49.30094" lon="-0.07755">
        <ele>14.6</ele>
        <time>2023-12-06T13:15:03Z</time>
      </trkpt>
      <trkpt lat="49.30091" lon="-0.07748">
        <ele>14.6</ele>
        <time>2023-12-06T13:15:04Z</time>
      </trkpt>
      <trkpt lat="49.30088" lon="-0.0774">
        <ele>14.6</ele>
        <time>2023-12-06T13:15:05Z</time>
      </trkpt>
      <trkpt lat="49.30085" lon="-0.07732">
        <ele>14.8</ele>
        <time>2023-12-06T13:15:06Z</time>
      </trkpt>
      <trkpt lat="49.30082" lon="-0.07725">
        <ele>14.8</ele>
        <time>2023-12-06T13:15:07Z</time>
      </trkpt>
      <trkpt lat="49.3008" lon="-0.07717">
        <ele>15</ele>
        <time>2023-12-06T13:15:08Z</time>
      </trkpt>
      <trkpt lat="49.30078" lon="-0.07709">
        <ele>15</ele>
        <time>2023-12-06T13:15:09Z</time>
      </trkpt>
      <trkpt lat="49.30075" lon="-0.07701">
        <ele>15</ele>
        <time>2023-12-06T13:15:10Z</time>
      </trkpt>
      <trkpt lat="49.30073" lon="-0.07692">
        <ele>15</ele>
        <time>2023-12-06T13:15:11Z</time>
      </trkpt>
      <trkpt lat="49.30071" lon="-0.07684">
        <ele>15</ele>
        <time>2023-12-06T13:15:12Z</time>
      </trkpt>
      <trkpt lat="49.30069" lon="-0.07674">
        <ele>15.2</ele>
        <time>2023-12-06T13:15:13Z</time>
      </trkpt>
      <trkpt lat="49.30068" lon="-0.07667">
        <ele>15.2</ele>
        <time>2023-12-06T13:15:14Z</time>
      </trkpt>
      <trkpt lat="49.30067" lon="-0.0766">
        <ele>15.2</ele>
        <time>2023-12-06T13:15:15Z</time>
      </trkpt>
      <trkpt lat="49.30065" lon="-0.07649">
        <ele>15.2</ele>
        <time>2023-12-06T13:15:16Z</time>
      </trkpt>
      <trkpt lat="49.30064" lon="-0.0764">
        <ele>15.4</ele>
        <time>2023-12-06T13:15:17Z</time>
      </trkpt>
      <trkpt lat="49.30063" lon="-0.07632">
        <ele>15.4</ele>
        <time>2023-12-06T13:15:18Z</time>
      </trkpt>
      <trkpt lat="49.30062" lon="-0.07623">
        <ele>15.6</ele>
        <time>2023-12-06T13:15:19Z</time>
      </trkpt>
      <trkpt lat="49.30062" lon="-0.07616">
        <ele>15.8</ele>
        <time>2023-12-06T13:15:20Z</time>
      </trkpt>
      <trkpt lat="49.30061" lon="-0.07606">
        <ele>15.8</ele>
        <time>2023-12-06T13:15:21Z</time>
      </trkpt>
      <trkpt lat="49.3006" lon="-0.07597">
        <ele>15.8</ele>
        <time>2023-12-06T13:15:22Z</time>
      </trkpt>
      <trkpt lat="49.30059" lon="-0.07588">
        <ele>15.8</ele>
        <time>2023-12-06T13:15:23Z</time>
      </trkpt>
      <trkpt lat="49.30059" lon="-0.0758">
        <ele>16</ele>
        <time>2023-12-06T13:15:24Z</time>
      </trkpt>
      <trkpt lat="49.30059" lon="-0.07572">
        <ele>16</ele>
        <time>2023-12-06T13:15:25Z</time>
      </trkpt>
      <trkpt lat="49.30058" lon="-0.07565">
        <ele>16.2</ele>
        <time>2023-12-06T13:15:26Z</time>
      </trkpt>
      <trkpt lat="49.30059" lon="-0.07557">
        <ele>16.2</ele>
        <time>2023-12-06T13:15:27Z</time>
      </trkpt>
      <trkpt lat="49.30059" lon="-0.07548">
        <ele>16.2</ele>
        <time>2023-12-06T13:15:28Z</time>
      </trkpt>
      <trkpt lat="49.30059" lon="-0.0754">
        <ele>16.4</ele>
        <time>2023-12-06T13:15:29Z</time>
      </trkpt>
      <trkpt lat="49.30059" lon="-0.07534">
        <ele>16.4</ele>
        <time>2023-12-06T13:15:30Z</time>
      </trkpt>
      <trkpt lat="49.3006" lon="-0.07527">
        <ele>16.6</ele>
        <time>2023-12-06T13:15:31Z</time>
      </trkpt>
      <trkpt lat="49.30061" lon="-0.07517">
        <ele>16.8</ele>
        <time>2023-12-06T13:15:32Z</time>
      </trkpt>
      <trkpt lat="49.30061" lon="-0.07511">
        <ele>16.8</ele>
        <time>2023-12-06T13:15:33Z</time>
      </trkpt>
      <trkpt lat="49.30062" lon="-0.07503">
        <ele>17.2</ele>
        <time>2023-12-06T13:15:34Z</time>
      </trkpt>
      <trkpt lat="49.30062" lon="-0.07495">
        <ele>17.6</ele>
        <time>2023-12-06T13:15:35Z</time>
      </trkpt>
      <trkpt lat="49.30061" lon="-0.07487">
        <ele>17.8</ele>
        <time>2023-12-06T13:15:36Z</time>
      </trkpt>
      <trkpt lat="49.3006" lon="-0.07478">
        <ele>18</ele>
        <time>2023-12-06T13:15:37Z</time>
      </trkpt>
      <trkpt lat="49.30059" lon="-0.07472">
        <ele>18</ele>
        <time>2023-12-06T13:15:38Z</time>
      </trkpt>
      <trkpt lat="49.30058" lon="-0.07464">
        <ele>18.2</ele>
        <time>2023-12-06T13:15:39Z</time>
      </trkpt>
      <trkpt lat="49.30057" lon="-0.07458">
        <ele>18.2</ele>
        <time>2023-12-06T13:15:40Z</time>
      </trkpt>
      <trkpt lat="49.30055" lon="-0.07449">
        <ele>18.2</ele>
        <time>2023-12-06T13:15:41Z</time>
      </trkpt>
      <trkpt lat="49.30054" lon="-0.07442">
        <ele>18.2</ele>
        <time>2023-12-06T13:15:42Z</time>
      </trkpt>
      <trkpt lat="49.30053" lon="-0.07435">
        <ele>18.4</ele>
        <time>2023-12-06T13:15:43Z</time>
      </trkpt>
      <trkpt lat="49.30052" lon="-0.07429">
        <ele>18.6</ele>
        <time>2023-12-06T13:15:44Z</time>
      </trkpt>
      <trkpt lat="49.3005" lon="-0.07424">
        <ele>18.6</ele>
        <time>2023-12-06T13:15:45Z</time>
      </trkpt>
      <trkpt lat="49.30048" lon="-0.0742">
        <ele>18.8</ele>
        <time>2023-12-06T13:15:46Z</time>
      </trkpt>
      <trkpt lat="49.30045" lon="-0.07419">
        <ele>19</ele>
        <time>2023-12-06T13:15:47Z</time>
      </trkpt>
      <trkpt lat="49.3004" lon="-0.0742">
        <ele>19.2</ele>
        <time>2023-12-06T13:15:48Z</time>
      </trkpt>
      <trkpt lat="49.30035" lon="-0.07423">
        <ele>19.4</ele>
        <time>2023-12-06T13:15:49Z</time>
      </trkpt>
      <trkpt lat="49.30031" lon="-0.07425">
        <ele>19.4</ele>
        <time>2023-12-06T13:15:50Z</time>
      </trkpt>
      <trkpt lat="49.30025" lon="-0.07429">
        <ele>19.6</ele>
        <time>2023-12-06T13:15:51Z</time>
      </trkpt>
      <trkpt lat="49.3002" lon="-0.07432">
        <ele>19.8</ele>
        <time>2023-12-06T13:15:52Z</time>
      </trkpt>
      <trkpt lat="49.30015" lon="-0.07435">
        <ele>20</ele>
        <time>2023-12-06T13:15:53Z</time>
      </trkpt>
      <trkpt lat="49.3001" lon="-0.07438">
        <ele>20</ele>
        <time>2023-12-06T13:15:54Z</time>
      </trkpt>
      <trkpt lat="49.30003" lon="-0.07442">
        <ele>20</ele>
        <time>2023-12-06T13:15:55Z</time>
      </trkpt>
      <trkpt lat="49.29998" lon="-0.07445">
        <ele>20.2</ele>
        <time>2023-12-06T13:15:56Z</time>
      </trkpt>
      <trkpt lat="49.29992" lon="-0.07446">
        <ele>20.2</ele>
        <time>2023-12-06T13:15:57Z</time>
      </trkpt>
      <trkpt lat="49.29986" lon="-0.07447">
        <ele>20.2</ele>
        <time>2023-12-06T13:15:58Z</time>
      </trkpt>
      <trkpt lat="49.29981" lon="-0.07446">
        <ele>20.2</ele>
        <time>2023-12-06T13:15:59Z</time>
      </trkpt>
      <trkpt lat="49.29975" lon="-0.07445">
        <ele>20.2</ele>
        <time>2023-12-06T13:16:00Z</time>
      </trkpt>
      <trkpt lat="49.29969" lon="-0.07442">
        <ele>20.2</ele>
        <time>2023-12-06T13:16:01Z</time>
      </trkpt>
      <trkpt lat="49.29964" lon="-0.07437">
        <ele>20.2</ele>
        <time>2023-12-06T13:16:02Z</time>
      </trkpt>
      <trkpt lat="49.29959" lon="-0.07432">
        <ele>20.2</ele>
        <time>2023-12-06T13:16:03Z</time>
      </trkpt>
      <trkpt lat="49.29956" lon="-0.07427">
        <ele>20.2</ele>
        <time>2023-12-06T13:16:04Z</time>
      </trkpt>
      <trkpt lat="49.29951" lon="-0.07419">
        <ele>20.2</ele>
        <time>2023-12-06T13:16:05Z</time>
      </trkpt>
      <trkpt lat="49.29947" lon="-0.07411">
        <ele>20.2</ele>
        <time>2023-12-06T13:16:06Z</time>
      </trkpt>
      <trkpt lat="49.29944" lon="-0.07403">
        <ele>20.2</ele>
        <time>2023-12-06T13:16:07Z</time>
      </trkpt>
      <trkpt lat="49.29941" lon="-0.07394">
        <ele>20.2</ele>
        <time>2023-12-06T13:16:08Z</time>
      </trkpt>
      <trkpt lat="49.29938" lon="-0.07387">
        <ele>20</ele>
        <time>2023-12-06T13:16:09Z</time>
      </trkpt>
      <trkpt lat="49.29935" lon="-0.07377">
        <ele>20</ele>
        <time>2023-12-06T13:16:10Z</time>
      </trkpt>
      <trkpt lat="49.29932" lon="-0.07368">
        <ele>20</ele>
        <time>2023-12-06T13:16:11Z</time>
      </trkpt>
      <trkpt lat="49.29929" lon="-0.07359">
        <ele>20</ele>
        <time>2023-12-06T13:16:12Z</time>
      </trkpt>
      <trkpt lat="49.29925" lon="-0.07349">
        <ele>20</ele>
        <time>2023-12-06T13:16:13Z</time>
      </trkpt>
      <trkpt lat="49.29922" lon="-0.07343">
        <ele>19.8</ele>
        <time>2023-12-06T13:16:14Z</time>
      </trkpt>
      <trkpt lat="49.29919" lon="-0.07336">
        <ele>19.8</ele>
        <time>2023-12-06T13:16:15Z</time>
      </trkpt>
      <trkpt lat="49.29915" lon="-0.07328">
        <ele>19.6</ele>
        <time>2023-12-06T13:16:16Z</time>
      </trkpt>
      <trkpt lat="49.2991" lon="-0.07322">
        <ele>19.6</ele>
        <time>2023-12-06T13:16:17Z</time>
      </trkpt>
      <trkpt lat="49.29906" lon="-0.07315">
        <ele>19.6</ele>
        <time>2023-12-06T13:16:18Z</time>
      </trkpt>
      <trkpt lat="49.29902" lon="-0.0731">
        <ele>19.4</ele>
        <time>2023-12-06T13:16:19Z</time>
      </trkpt>
      <trkpt lat="49.29895" lon="-0.07304">
        <ele>19.4</ele>
        <time>2023-12-06T13:16:20Z</time>
      </trkpt>
      <trkpt lat="49.2989" lon="-0.07298">
        <ele>19.2</ele>
        <time>2023-12-06T13:16:21Z</time>
      </trkpt>
      <trkpt lat="49.29884" lon="-0.07291">
        <ele>19.2</ele>
        <time>2023-12-06T13:16:22Z</time>
      </trkpt>
      <trkpt lat="49.29879" lon="-0.07287">
        <ele>19.2</ele>
        <time>2023-12-06T13:16:23Z</time>
      </trkpt>
      <trkpt lat="49.29874" lon="-0.07281">
        <ele>19</ele>
        <time>2023-12-06T13:16:24Z</time>
      </trkpt>
      <trkpt lat="49.29868" lon="-0.07275">
        <ele>19</ele>
        <time>2023-12-06T13:16:25Z</time>
      </trkpt>
      <trkpt lat="49.29863" lon="-0.07269">
        <ele>19</ele>
        <time>2023-12-06T13:16:26Z</time>
      </trkpt>
      <trkpt lat="49.29857" lon="-0.07264">
        <ele>19</ele>
        <time>2023-12-06T13:16:27Z</time>
      </trkpt>
      <trkpt lat="49.29852" lon="-0.07258">
        <ele>19</ele>
        <time>2023-12-06T13:16:28Z</time>
      </trkpt>
      <trkpt lat="49.29847" lon="-0.07252">
        <ele>19</ele>
        <time>2023-12-06T13:16:29Z</time>
      </trkpt>
      <trkpt lat="49.29841" lon="-0.07246">
        <ele>19</ele>
        <time>2023-12-06T13:16:30Z</time>
      </trkpt>
      <trkpt lat="49.29836" lon="-0.07241">
        <ele>18.8</ele>
        <time>2023-12-06T13:16:31Z</time>
      </trkpt>
      <trkpt lat="49.2983" lon="-0.07235">
        <ele>18.8</ele>
        <time>2023-12-06T13:16:32Z</time>
      </trkpt>
      <trkpt lat="49.29825" lon="-0.07229">
        <ele>18.8</ele>
        <time>2023-12-06T13:16:33Z</time>
      </trkpt>
      <trkpt lat="49.29821" lon="-0.07223">
        <ele>18.8</ele>
        <time>2023-12-06T13:16:34Z</time>
      </trkpt>
      <trkpt lat="49.29815" lon="-0.07218">
        <ele>18.8</ele>
        <time>2023-12-06T13:16:35Z</time>
      </trkpt>
      <trkpt lat="49.2981" lon="-0.07212">
        <ele>19</ele>
        <time>2023-12-06T13:16:36Z</time>
      </trkpt>
      <trkpt lat="49.29805" lon="-0.07207">
        <ele>19</ele>
        <time>2023-12-06T13:16:37Z</time>
      </trkpt>
      <trkpt lat="49.29799" lon="-0.07202">
        <ele>18.8</ele>
        <time>2023-12-06T13:16:38Z</time>
      </trkpt>
      <trkpt lat="49.29793" lon="-0.07197">
        <ele>18.8</ele>
        <time>2023-12-06T13:16:39Z</time>
      </trkpt>
      <trkpt lat="49.29788" lon="-0.07193">
        <ele>18.8</ele>
        <time>2023-12-06T13:16:40Z</time>
      </trkpt>
      <trkpt lat="49.29784" lon="-0.07189">
        <ele>18.8</ele>
        <time>2023-12-06T13:16:41Z</time>
      </trkpt>
      <trkpt lat="49.29777" lon="-0.07184">
        <ele>18.8</ele>
        <time>2023-12-06T13:16:42Z</time>
      </trkpt>
      <trkpt lat="49.29771" lon="-0.0718">
        <ele>18.8</ele>
        <time>2023-12-06T13:16:43Z</time>
      </trkpt>
      <trkpt lat="49.29765" lon="-0.07177">
        <ele>18.8</ele>
        <time>2023-12-06T13:16:44Z</time>
      </trkpt>
      <trkpt lat="49.29759" lon="-0.07175">
        <ele>18.8</ele>
        <time>2023-12-06T13:16:45Z</time>
      </trkpt>
      <trkpt lat="49.29753" lon="-0.07174">
        <ele>18.8</ele>
        <time>2023-12-06T13:16:46Z</time>
      </trkpt>
      <trkpt lat="49.29747" lon="-0.07172">
        <ele>18.8</ele>
        <time>2023-12-06T13:16:47Z</time>
      </trkpt>
      <trkpt lat="49.29741" lon="-0.07171">
        <ele>18.8</ele>
        <time>2023-12-06T13:16:48Z</time>
      </trkpt>
      <trkpt lat="49.29735" lon="-0.07169">
        <ele>18.8</ele>
        <time>2023-12-06T13:16:49Z</time>
      </trkpt>
      <trkpt lat="49.29729" lon="-0.07166">
        <ele>18.8</ele>
        <time>2023-12-06T13:16:50Z</time>
      </trkpt>
      <trkpt lat="49.29724" lon="-0.07163">
        <ele>18.8</ele>
        <time>2023-12-06T13:16:51Z</time>
      </trkpt>
      <trkpt lat="49.29719" lon="-0.07159">
        <ele>18.8</ele>
        <time>2023-12-06T13:16:52Z</time>
      </trkpt>
      <trkpt lat="49.29714" lon="-0.07155">
        <ele>18.8</ele>
        <time>2023-12-06T13:16:53Z</time>
      </trkpt>
      <trkpt lat="49.29709" lon="-0.0715">
        <ele>18.8</ele>
        <time>2023-12-06T13:16:54Z</time>
      </trkpt>
      <trkpt lat="49.29704" lon="-0.07144">
        <ele>18.8</ele>
        <time>2023-12-06T13:16:55Z</time>
      </trkpt>
      <trkpt lat="49.297" lon="-0.07139">
        <ele>19</ele>
        <time>2023-12-06T13:16:56Z</time>
      </trkpt>
      <trkpt lat="49.29695" lon="-0.07134">
        <ele>18.8</ele>
        <time>2023-12-06T13:16:57Z</time>
      </trkpt>
      <trkpt lat="49.2969" lon="-0.07128">
        <ele>19</ele>
        <time>2023-12-06T13:16:58Z</time>
      </trkpt>
      <trkpt lat="49.29685" lon="-0.07122">
        <ele>19</ele>
        <time>2023-12-06T13:16:59Z</time>
      </trkpt>
      <trkpt lat="49.29681" lon="-0.07117">
        <ele>19.2</ele>
        <time>2023-12-06T13:17:00Z</time>
      </trkpt>
      <trkpt lat="49.29675" lon="-0.0711">
        <ele>19.2</ele>
        <time>2023-12-06T13:17:01Z</time>
      </trkpt>
      <trkpt lat="49.2967" lon="-0.07105">
        <ele>19.4</ele>
        <time>2023-12-06T13:17:02Z</time>
      </trkpt>
      <trkpt lat="49.29666" lon="-0.07101">
        <ele>19.4</ele>
        <time>2023-12-06T13:17:03Z</time>
      </trkpt>
      <trkpt lat="49.29662" lon="-0.07096">
        <ele>19.4</ele>
        <time>2023-12-06T13:17:04Z</time>
      </trkpt>
      <trkpt lat="49.29657" lon="-0.0709">
        <ele>19.6</ele>
        <time>2023-12-06T13:17:05Z</time>
      </trkpt>
      <trkpt lat="49.29652" lon="-0.07085">
        <ele>19.6</ele>
        <time>2023-12-06T13:17:06Z</time>
      </trkpt>
      <trkpt lat="49.29647" lon="-0.07079">
        <ele>19.6</ele>
        <time>2023-12-06T13:17:07Z</time>
      </trkpt>
      <trkpt lat="49.29643" lon="-0.07074">
        <ele>19.6</ele>
        <time>2023-12-06T13:17:08Z</time>
      </trkpt>
      <trkpt lat="49.29639" lon="-0.0707">
        <ele>19.8</ele>
        <time>2023-12-06T13:17:09Z</time>
      </trkpt>
      <trkpt lat="49.29634" lon="-0.07064">
        <ele>19.8</ele>
        <time>2023-12-06T13:17:10Z</time>
      </trkpt>
      <trkpt lat="49.29629" lon="-0.07057">
        <ele>20</ele>
        <time>2023-12-06T13:17:11Z</time>
      </trkpt>
      <trkpt lat="49.29624" lon="-0.07051">
        <ele>20.2</ele>
        <time>2023-12-06T13:17:12Z</time>
      </trkpt>
      <trkpt lat="49.29619" lon="-0.07045">
        <ele>20.2</ele>
        <time>2023-12-06T13:17:13Z</time>
      </trkpt>
      <trkpt lat="49.29614" lon="-0.07039">
        <ele>20.4</ele>
        <time>2023-12-06T13:17:14Z</time>
      </trkpt>
      <trkpt lat="49.2961" lon="-0.07034">
        <ele>20.6</ele>
        <time>2023-12-06T13:17:15Z</time>
      </trkpt>
      <trkpt lat="49.29605" lon="-0.07028">
        <ele>20.6</ele>
        <time>2023-12-06T13:17:16Z</time>
      </trkpt>
      <trkpt lat="49.29601" lon="-0.07023">
        <ele>20.6</ele>
        <time>2023-12-06T13:17:17Z</time>
      </trkpt>
      <trkpt lat="49.29596" lon="-0.07017">
        <ele>20.8</ele>
        <time>2023-12-06T13:17:18Z</time>
      </trkpt>
      <trkpt lat="49.29591" lon="-0.07011">
        <ele>20.8</ele>
        <time>2023-12-06T13:17:19Z</time>
      </trkpt>
      <trkpt lat="49.29586" lon="-0.07006">
        <ele>21</ele>
        <time>2023-12-06T13:17:20Z</time>
      </trkpt>
      <trkpt lat="49.29582" lon="-0.07">
        <ele>21</ele>
        <time>2023-12-06T13:17:21Z</time>
      </trkpt>
      <trkpt lat="49.29577" lon="-0.06993">
        <ele>21.2</ele>
        <time>2023-12-06T13:17:22Z</time>
      </trkpt>
      <trkpt lat="49.29573" lon="-0.06987">
        <ele>21.2</ele>
        <time>2023-12-06T13:17:23Z</time>
      </trkpt>
      <trkpt lat="49.29568" lon="-0.06981">
        <ele>21.2</ele>
        <time>2023-12-06T13:17:24Z</time>
      </trkpt>
      <trkpt lat="49.29564" lon="-0.06975">
        <ele>21.2</ele>
        <time>2023-12-06T13:17:25Z</time>
      </trkpt>
      <trkpt lat="49.29559" lon="-0.06968">
        <ele>21.4</ele>
        <time>2023-12-06T13:17:26Z</time>
      </trkpt>
      <trkpt lat="49.29555" lon="-0.06962">
        <ele>21.4</ele>
        <time>2023-12-06T13:17:27Z</time>
      </trkpt>
      <trkpt lat="49.2955" lon="-0.06955">
        <ele>21.4</ele>
        <time>2023-12-06T13:17:28Z</time>
      </trkpt>
      <trkpt lat="49.29546" lon="-0.06948">
        <ele>21.4</ele>
        <time>2023-12-06T13:17:29Z</time>
      </trkpt>
      <trkpt lat="49.29541" lon="-0.06941">
        <ele>21.4</ele>
        <time>2023-12-06T13:17:30Z</time>
      </trkpt>
      <trkpt lat="49.29537" lon="-0.06934">
        <ele>21.4</ele>
        <time>2023-12-06T13:17:31Z</time>
      </trkpt>
      <trkpt lat="49.29533" lon="-0.06927">
        <ele>21.6</ele>
        <time>2023-12-06T13:17:32Z</time>
      </trkpt>
      <trkpt lat="49.29529" lon="-0.0692">
        <ele>21.6</ele>
        <time>2023-12-06T13:17:33Z</time>
      </trkpt>
      <trkpt lat="49.29525" lon="-0.06913">
        <ele>21.8</ele>
        <time>2023-12-06T13:17:34Z</time>
      </trkpt>
      <trkpt lat="49.29521" lon="-0.06905">
        <ele>21.8</ele>
        <time>2023-12-06T13:17:35Z</time>
      </trkpt>
      <trkpt lat="49.29517" lon="-0.06898">
        <ele>21.8</ele>
        <time>2023-12-06T13:17:36Z</time>
      </trkpt>
      <trkpt lat="49.29513" lon="-0.06891">
        <ele>21.8</ele>
        <time>2023-12-06T13:17:37Z</time>
      </trkpt>
      <trkpt lat="49.29509" lon="-0.06883">
        <ele>22.2</ele>
        <time>2023-12-06T13:17:38Z</time>
      </trkpt>
      <trkpt lat="49.29505" lon="-0.06875">
        <ele>22.2</ele>
        <time>2023-12-06T13:17:39Z</time>
      </trkpt>
      <trkpt lat="49.29502" lon="-0.06869">
        <ele>22.4</ele>
        <time>2023-12-06T13:17:40Z</time>
      </trkpt>
      <trkpt lat="49.29499" lon="-0.06861">
        <ele>22.4</ele>
        <time>2023-12-06T13:17:41Z</time>
      </trkpt>
      <trkpt lat="49.29496" lon="-0.06853">
        <ele>22.4</ele>
        <time>2023-12-06T13:17:42Z</time>
      </trkpt>
      <trkpt lat="49.29492" lon="-0.06843">
        <ele>22.4</ele>
        <time>2023-12-06T13:17:43Z</time>
      </trkpt>
      <trkpt lat="49.29488" lon="-0.06835">
        <ele>22.4</ele>
        <time>2023-12-06T13:17:44Z</time>
      </trkpt>
      <trkpt lat="49.29486" lon="-0.06828">
        <ele>22.6</ele>
        <time>2023-12-06T13:17:45Z</time>
      </trkpt>
      <trkpt lat="49.29484" lon="-0.06819">
        <ele>22.6</ele>
        <time>2023-12-06T13:17:46Z</time>
      </trkpt>
      <trkpt lat="49.29481" lon="-0.06809">
        <ele>22.6</ele>
        <time>2023-12-06T13:17:47Z</time>
      </trkpt>
      <trkpt lat="49.29479" lon="-0.06802">
        <ele>22.6</ele>
        <time>2023-12-06T13:17:48Z</time>
      </trkpt>
      <trkpt lat="49.29478" lon="-0.06793">
        <ele>22.6</ele>
        <time>2023-12-06T13:17:49Z</time>
      </trkpt>
      <trkpt lat="49.29476" lon="-0.06782">
        <ele>22.8</ele>
        <time>2023-12-06T13:17:50Z</time>
      </trkpt>
      <trkpt lat="49.29475" lon="-0.06775">
        <ele>22.8</ele>
        <time>2023-12-06T13:17:51Z</time>
      </trkpt>
      <trkpt lat="49.29474" lon="-0.06766">
        <ele>23</ele>
        <time>2023-12-06T13:17:52Z</time>
      </trkpt>
      <trkpt lat="49.29473" lon="-0.06757">
        <ele>23.2</ele>
        <time>2023-12-06T13:17:53Z</time>
      </trkpt>
      <trkpt lat="49.29472" lon="-0.06748">
        <ele>23.2</ele>
        <time>2023-12-06T13:17:54Z</time>
      </trkpt>
      <trkpt lat="49.29472" lon="-0.06737">
        <ele>23.4</ele>
        <time>2023-12-06T13:17:55Z</time>
      </trkpt>
      <trkpt lat="49.29471" lon="-0.0673">
        <ele>23.4</ele>
        <time>2023-12-06T13:17:56Z</time>
      </trkpt>
      <trkpt lat="49.2947" lon="-0.06722">
        <ele>23.6</ele>
        <time>2023-12-06T13:17:57Z</time>
      </trkpt>
      <trkpt lat="49.29469" lon="-0.06714">
        <ele>23.6</ele>
        <time>2023-12-06T13:17:58Z</time>
      </trkpt>
      <trkpt lat="49.29467" lon="-0.06704">
        <ele>23.6</ele>
        <time>2023-12-06T13:17:59Z</time>
      </trkpt>
      <trkpt lat="49.29467" lon="-0.06698">
        <ele>23.6</ele>
        <time>2023-12-06T13:18:00Z</time>
      </trkpt>
      <trkpt lat="49.29469" lon="-0.06689">
        <ele>23.8</ele>
        <time>2023-12-06T13:18:01Z</time>
      </trkpt>
      <trkpt lat="49.29472" lon="-0.06682">
        <ele>23.8</ele>
        <time>2023-12-06T13:18:02Z</time>
      </trkpt>
      <trkpt lat="49.29474" lon="-0.06675">
        <ele>24</ele>
        <time>2023-12-06T13:18:03Z</time>
      </trkpt>
      <trkpt lat="49.29476" lon="-0.06667">
        <ele>24</ele>
        <time>2023-12-06T13:18:04Z</time>
      </trkpt>
      <trkpt lat="49.29477" lon="-0.06658">
        <ele>24</ele>
        <time>2023-12-06T13:18:05Z</time>
      </trkpt>
      <trkpt lat="49.29479" lon="-0.0665">
        <ele>24.2</ele>
        <time>2023-12-06T13:18:06Z</time>
      </trkpt>
      <trkpt lat="49.2948" lon="-0.06641">
        <ele>24.4</ele>
        <time>2023-12-06T13:18:07Z</time>
      </trkpt>
      <trkpt lat="49.29481" lon="-0.06634">
        <ele>24.6</ele>
        <time>2023-12-06T13:18:08Z</time>
      </trkpt>
      <trkpt lat="49.29483" lon="-0.06624">
        <ele>24.8</ele>
        <time>2023-12-06T13:18:09Z</time>
      </trkpt>
      <trkpt lat="49.29485" lon="-0.06615">
        <ele>25</ele>
        <time>2023-12-06T13:18:10Z</time>
      </trkpt>
      <trkpt lat="49.29487" lon="-0.06607">
        <ele>25</ele>
        <time>2023-12-06T13:18:11Z</time>
      </trkpt>
      <trkpt lat="49.29489" lon="-0.066">
        <ele>25</ele>
        <time>2023-12-06T13:18:12Z</time>
      </trkpt>
      <trkpt lat="49.29491" lon="-0.06591">
        <ele>25.2</ele>
        <time>2023-12-06T13:18:13Z</time>
      </trkpt>
      <trkpt lat="49.29493" lon="-0.06581">
        <ele>25.4</ele>
        <time>2023-12-06T13:18:14Z</time>
      </trkpt>
      <trkpt lat="49.29495" lon="-0.06573">
        <ele>25.6</ele>
        <time>2023-12-06T13:18:15Z</time>
      </trkpt>
      <trkpt lat="49.29497" lon="-0.06564">
        <ele>25.6</ele>
        <time>2023-12-06T13:18:16Z</time>
      </trkpt>
      <trkpt lat="49.29499" lon="-0.06556">
        <ele>25.8</ele>
        <time>2023-12-06T13:18:17Z</time>
      </trkpt>
      <trkpt lat="49.29501" lon="-0.06547">
        <ele>25.8</ele>
        <time>2023-12-06T13:18:18Z</time>
      </trkpt>
      <trkpt lat="49.29503" lon="-0.06538">
        <ele>26</ele>
        <time>2023-12-06T13:18:19Z</time>
      </trkpt>
      <trkpt lat="49.29504" lon="-0.06529">
        <ele>26.2</ele>
        <time>2023-12-06T13:18:20Z</time>
      </trkpt>
      <trkpt lat="49.29506" lon="-0.0652">
        <ele>26.2</ele>
        <time>2023-12-06T13:18:21Z</time>
      </trkpt>
      <trkpt lat="49.29508" lon="-0.06512">
        <ele>26.2</ele>
        <time>2023-12-06T13:18:22Z</time>
      </trkpt>
      <trkpt lat="49.2951" lon="-0.06503">
        <ele>26.4</ele>
        <time>2023-12-06T13:18:23Z</time>
      </trkpt>
      <trkpt lat="49.29512" lon="-0.06494">
        <ele>26.6</ele>
        <time>2023-12-06T13:18:24Z</time>
      </trkpt>
      <trkpt lat="49.29514" lon="-0.06485">
        <ele>26.4</ele>
        <time>2023-12-06T13:18:25Z</time>
      </trkpt>
      <trkpt lat="49.29515" lon="-0.06478">
        <ele>26.6</ele>
        <time>2023-12-06T13:18:26Z</time>
      </trkpt>
      <trkpt lat="49.29517" lon="-0.06469">
        <ele>26.4</ele>
        <time>2023-12-06T13:18:27Z</time>
      </trkpt>
      <trkpt lat="49.29519" lon="-0.06458">
        <ele>26.4</ele>
        <time>2023-12-06T13:18:28Z</time>
      </trkpt>
      <trkpt lat="49.29521" lon="-0.06449">
        <ele>26.4</ele>
        <time>2023-12-06T13:18:29Z</time>
      </trkpt>
      <trkpt lat="49.29523" lon="-0.0644">
        <ele>26.4</ele>
        <time>2023-12-06T13:18:30Z</time>
      </trkpt>
      <trkpt lat="49.29525" lon="-0.0643">
        <ele>26.6</ele>
        <time>2023-12-06T13:18:31Z</time>
      </trkpt>
      <trkpt lat="49.29527" lon="-0.06421">
        <ele>26.6</ele>
        <time>2023-12-06T13:18:32Z</time>
      </trkpt>
      <trkpt lat="49.29529" lon="-0.06412">
        <ele>26.8</ele>
        <time>2023-12-06T13:18:33Z</time>
      </trkpt>
      <trkpt lat="49.29531" lon="-0.06402">
        <ele>26.8</ele>
        <time>2023-12-06T13:18:34Z</time>
      </trkpt>
      <trkpt lat="49.29533" lon="-0.06393">
        <ele>26.6</ele>
        <time>2023-12-06T13:18:35Z</time>
      </trkpt>
      <trkpt lat="49.29535" lon="-0.06384">
        <ele>26.8</ele>
        <time>2023-12-06T13:18:36Z</time>
      </trkpt>
      <trkpt lat="49.29538" lon="-0.06375">
        <ele>26.8</ele>
        <time>2023-12-06T13:18:37Z</time>
      </trkpt>
      <trkpt lat="49.29541" lon="-0.06367">
        <ele>26.8</ele>
        <time>2023-12-06T13:18:38Z</time>
      </trkpt>
      <trkpt lat="49.29545" lon="-0.06359">
        <ele>26.8</ele>
        <time>2023-12-06T13:18:39Z</time>
      </trkpt>
      <trkpt lat="49.29549" lon="-0.06351">
        <ele>26.8</ele>
        <time>2023-12-06T13:18:40Z</time>
      </trkpt>
      <trkpt lat="49.29553" lon="-0.06343">
        <ele>26.8</ele>
        <time>2023-12-06T13:18:41Z</time>
      </trkpt>
      <trkpt lat="49.29556" lon="-0.06335">
        <ele>26.8</ele>
        <time>2023-12-06T13:18:42Z</time>
      </trkpt>
      <trkpt lat="49.2956" lon="-0.06327">
        <ele>26.8</ele>
        <time>2023-12-06T13:18:43Z</time>
      </trkpt>
      <trkpt lat="49.29564" lon="-0.06319">
        <ele>26.8</ele>
        <time>2023-12-06T13:18:44Z</time>
      </trkpt>
      <trkpt lat="49.29567" lon="-0.0631">
        <ele>26.8</ele>
        <time>2023-12-06T13:18:45Z</time>
      </trkpt>
      <trkpt lat="49.2957" lon="-0.06301">
        <ele>26.8</ele>
        <time>2023-12-06T13:18:46Z</time>
      </trkpt>
      <trkpt lat="49.29573" lon="-0.06292">
        <ele>26.8</ele>
        <time>2023-12-06T13:18:47Z</time>
      </trkpt>
      <trkpt lat="49.29575" lon="-0.06283">
        <ele>26.8</ele>
        <time>2023-12-06T13:18:48Z</time>
      </trkpt>
      <trkpt lat="49.29576" lon="-0.06273">
        <ele>26.8</ele>
        <time>2023-12-06T13:18:49Z</time>
      </trkpt>
      <trkpt lat="49.29577" lon="-0.06264">
        <ele>26.8</ele>
        <time>2023-12-06T13:18:50Z</time>
      </trkpt>
      <trkpt lat="49.29578" lon="-0.06256">
        <ele>26.8</ele>
        <time>2023-12-06T13:18:51Z</time>
      </trkpt>
      <trkpt lat="49.29578" lon="-0.06247">
        <ele>26.8</ele>
        <time>2023-12-06T13:18:52Z</time>
      </trkpt>
      <trkpt lat="49.29578" lon="-0.06238">
        <ele>26.8</ele>
        <time>2023-12-06T13:18:53Z</time>
      </trkpt>
      <trkpt lat="49.29579" lon="-0.06229">
        <ele>26.8</ele>
        <time>2023-12-06T13:18:54Z</time>
      </trkpt>
      <trkpt lat="49.29578" lon="-0.0622">
        <ele>26.8</ele>
        <time>2023-12-06T13:18:55Z</time>
      </trkpt>
      <trkpt lat="49.29578" lon="-0.06212">
        <ele>26.8</ele>
        <time>2023-12-06T13:18:56Z</time>
      </trkpt>
      <trkpt lat="49.29578" lon="-0.06203">
        <ele>26.8</ele>
        <time>2023-12-06T13:18:57Z</time>
      </trkpt>
      <trkpt lat="49.29578" lon="-0.06194">
        <ele>26.8</ele>
        <time>2023-12-06T13:18:58Z</time>
      </trkpt>
      <trkpt lat="49.29577" lon="-0.06185">
        <ele>26.8</ele>
        <time>2023-12-06T13:18:59Z</time>
      </trkpt>
      <trkpt lat="49.29576" lon="-0.06176">
        <ele>26.8</ele>
        <time>2023-12-06T13:19:00Z</time>
      </trkpt>
      <trkpt lat="49.29575" lon="-0.06165">
        <ele>27</ele>
        <time>2023-12-06T13:19:01Z</time>
      </trkpt>
      <trkpt lat="49.29574" lon="-0.06156">
        <ele>27</ele>
        <time>2023-12-06T13:19:02Z</time>
      </trkpt>
      <trkpt lat="49.29574" lon="-0.06149">
        <ele>27.2</ele>
        <time>2023-12-06T13:19:03Z</time>
      </trkpt>
      <trkpt lat="49.29573" lon="-0.06138">
        <ele>27.4</ele>
        <time>2023-12-06T13:19:04Z</time>
      </trkpt>
      <trkpt lat="49.29572" lon="-0.06128">
        <ele>27.6</ele>
        <time>2023-12-06T13:19:05Z</time>
      </trkpt>
      <trkpt lat="49.29571" lon="-0.06121">
        <ele>27.8</ele>
        <time>2023-12-06T13:19:06Z</time>
      </trkpt>
      <trkpt lat="49.2957" lon="-0.06112">
        <ele>28.2</ele>
        <time>2023-12-06T13:19:07Z</time>
      </trkpt>
      <trkpt lat="49.2957" lon="-0.06103">
        <ele>28.4</ele>
        <time>2023-12-06T13:19:08Z</time>
      </trkpt>
      <trkpt lat="49.29569" lon="-0.06094">
        <ele>28.4</ele>
        <time>2023-12-06T13:19:09Z</time>
      </trkpt>
      <trkpt lat="49.29568" lon="-0.06087">
        <ele>28.6</ele>
        <time>2023-12-06T13:19:10Z</time>
      </trkpt>
      <trkpt lat="49.29568" lon="-0.06078">
        <ele>28.6</ele>
        <time>2023-12-06T13:19:11Z</time>
      </trkpt>
      <trkpt lat="49.29567" lon="-0.0607">
        <ele>28.8</ele>
        <time>2023-12-06T13:19:12Z</time>
      </trkpt>
      <trkpt lat="49.29567" lon="-0.06062">
        <ele>28.8</ele>
        <time>2023-12-06T13:19:13Z</time>
      </trkpt>
      <trkpt lat="49.29567" lon="-0.06054">
        <ele>28.8</ele>
        <time>2023-12-06T13:19:14Z</time>
      </trkpt>
      <trkpt lat="49.29566" lon="-0.06046">
        <ele>29</ele>
        <time>2023-12-06T13:19:15Z</time>
      </trkpt>
      <trkpt lat="49.29566" lon="-0.06038">
        <ele>29.2</ele>
        <time>2023-12-06T13:19:16Z</time>
      </trkpt>
      <trkpt lat="49.29565" lon="-0.0603">
        <ele>29.2</ele>
        <time>2023-12-06T13:19:17Z</time>
      </trkpt>
      <trkpt lat="49.29565" lon="-0.06022">
        <ele>29.4</ele>
        <time>2023-12-06T13:19:18Z</time>
      </trkpt>
      <trkpt lat="49.29564" lon="-0.06014">
        <ele>29.6</ele>
        <time>2023-12-06T13:19:19Z</time>
      </trkpt>
      <trkpt lat="49.29564" lon="-0.06006">
        <ele>29.8</ele>
        <time>2023-12-06T13:19:20Z</time>
      </trkpt>
      <trkpt lat="49.29564" lon="-0.05997">
        <ele>30</ele>
        <time>2023-12-06T13:19:21Z</time>
      </trkpt>
      <trkpt lat="49.29564" lon="-0.05989">
        <ele>30</ele>
        <time>2023-12-06T13:19:22Z</time>
      </trkpt>
      <trkpt lat="49.29564" lon="-0.0598">
        <ele>30</ele>
        <time>2023-12-06T13:19:23Z</time>
      </trkpt>
      <trkpt lat="49.29563" lon="-0.05971">
        <ele>30.2</ele>
        <time>2023-12-06T13:19:24Z</time>
      </trkpt>
      <trkpt lat="49.29563" lon="-0.05962">
        <ele>30.2</ele>
        <time>2023-12-06T13:19:25Z</time>
      </trkpt>
      <trkpt lat="49.29562" lon="-0.05952">
        <ele>30.4</ele>
        <time>2023-12-06T13:19:26Z</time>
      </trkpt>
      <trkpt lat="49.29562" lon="-0.05944">
        <ele>30.4</ele>
        <time>2023-12-06T13:19:27Z</time>
      </trkpt>
      <trkpt lat="49.29562" lon="-0.05933">
        <ele>30.6</ele>
        <time>2023-12-06T13:19:28Z</time>
      </trkpt>
      <trkpt lat="49.29561" lon="-0.05924">
        <ele>30.6</ele>
        <time>2023-12-06T13:19:29Z</time>
      </trkpt>
      <trkpt lat="49.29561" lon="-0.05917">
        <ele>30.8</ele>
        <time>2023-12-06T13:19:30Z</time>
      </trkpt>
      <trkpt lat="49.29561" lon="-0.05907">
        <ele>30.8</ele>
        <time>2023-12-06T13:19:31Z</time>
      </trkpt>
      <trkpt lat="49.29561" lon="-0.05898">
        <ele>30.8</ele>
        <time>2023-12-06T13:19:32Z</time>
      </trkpt>
      <trkpt lat="49.2956" lon="-0.05889">
        <ele>31</ele>
        <time>2023-12-06T13:19:33Z</time>
      </trkpt>
      <trkpt lat="49.2956" lon="-0.0588">
        <ele>31</ele>
        <time>2023-12-06T13:19:34Z</time>
      </trkpt>
      <trkpt lat="49.29558" lon="-0.0587">
        <ele>31</ele>
        <time>2023-12-06T13:19:35Z</time>
      </trkpt>
      <trkpt lat="49.29557" lon="-0.05861">
        <ele>31</ele>
        <time>2023-12-06T13:19:36Z</time>
      </trkpt>
      <trkpt lat="49.29556" lon="-0.05852">
        <ele>31</ele>
        <time>2023-12-06T13:19:37Z</time>
      </trkpt>
      <trkpt lat="49.29555" lon="-0.05843">
        <ele>31</ele>
        <time>2023-12-06T13:19:38Z</time>
      </trkpt>
      <trkpt lat="49.29553" lon="-0.05834">
        <ele>31</ele>
        <time>2023-12-06T13:19:39Z</time>
      </trkpt>
      <trkpt lat="49.29551" lon="-0.05825">
        <ele>31.2</ele>
        <time>2023-12-06T13:19:40Z</time>
      </trkpt>
      <trkpt lat="49.2955" lon="-0.05816">
        <ele>31.2</ele>
        <time>2023-12-06T13:19:41Z</time>
      </trkpt>
      <trkpt lat="49.29548" lon="-0.05807">
        <ele>31.2</ele>
        <time>2023-12-06T13:19:42Z</time>
      </trkpt>
      <trkpt lat="49.29547" lon="-0.05798">
        <ele>31.2</ele>
        <time>2023-12-06T13:19:43Z</time>
      </trkpt>
      <trkpt lat="49.29546" lon="-0.05789">
        <ele>31.2</ele>
        <time>2023-12-06T13:19:44Z</time>
      </trkpt>
      <trkpt lat="49.29545" lon="-0.0578">
        <ele>31.2</ele>
        <time>2023-12-06T13:19:45Z</time>
      </trkpt>
      <trkpt lat="49.29545" lon="-0.0577">
        <ele>31.4</ele>
        <time>2023-12-06T13:19:46Z</time>
      </trkpt>
      <trkpt lat="49.29544" lon="-0.05761">
        <ele>31.4</ele>
        <time>2023-12-06T13:19:47Z</time>
      </trkpt>
      <trkpt lat="49.29544" lon="-0.05751">
        <ele>31.4</ele>
        <time>2023-12-06T13:19:48Z</time>
      </trkpt>
      <trkpt lat="49.29544" lon="-0.05742">
        <ele>31.4</ele>
        <time>2023-12-06T13:19:49Z</time>
      </trkpt>
      <trkpt lat="49.29543" lon="-0.05733">
        <ele>31.4</ele>
        <time>2023-12-06T13:19:50Z</time>
      </trkpt>
      <trkpt lat="49.29541" lon="-0.05721">
        <ele>31.4</ele>
        <time>2023-12-06T13:19:51Z</time>
      </trkpt>
      <trkpt lat="49.2954" lon="-0.05714">
        <ele>31.6</ele>
        <time>2023-12-06T13:19:52Z</time>
      </trkpt>
      <trkpt lat="49.29537" lon="-0.05703">
        <ele>31.6</ele>
        <time>2023-12-06T13:19:53Z</time>
      </trkpt>
      <trkpt lat="49.29535" lon="-0.05696">
        <ele>31.6</ele>
        <time>2023-12-06T13:19:54Z</time>
      </trkpt>
      <trkpt lat="49.29532" lon="-0.05686">
        <ele>31.8</ele>
        <time>2023-12-06T13:19:55Z</time>
      </trkpt>
      <trkpt lat="49.29529" lon="-0.05676">
        <ele>31.8</ele>
        <time>2023-12-06T13:19:56Z</time>
      </trkpt>
      <trkpt lat="49.29528" lon="-0.05669">
        <ele>32</ele>
        <time>2023-12-06T13:19:57Z</time>
      </trkpt>
      <trkpt lat="49.29526" lon="-0.0566">
        <ele>32</ele>
        <time>2023-12-06T13:19:58Z</time>
      </trkpt>
      <trkpt lat="49.29524" lon="-0.05652">
        <ele>32.2</ele>
        <time>2023-12-06T13:19:59Z</time>
      </trkpt>
      <trkpt lat="49.29522" lon="-0.05645">
        <ele>32.2</ele>
        <time>2023-12-06T13:20:00Z</time>
      </trkpt>
      <trkpt lat="49.29519" lon="-0.05635">
        <ele>32.2</ele>
        <time>2023-12-06T13:20:01Z</time>
      </trkpt>
      <trkpt lat="49.29517" lon="-0.05627">
        <ele>32.4</ele>
        <time>2023-12-06T13:20:02Z</time>
      </trkpt>
      <trkpt lat="49.29515" lon="-0.05618">
        <ele>32.4</ele>
        <time>2023-12-06T13:20:03Z</time>
      </trkpt>
      <trkpt lat="49.29513" lon="-0.0561">
        <ele>32.6</ele>
        <time>2023-12-06T13:20:04Z</time>
      </trkpt>
      <trkpt lat="49.29511" lon="-0.05602">
        <ele>32.8</ele>
        <time>2023-12-06T13:20:05Z</time>
      </trkpt>
      <trkpt lat="49.2951" lon="-0.05593">
        <ele>32.6</ele>
        <time>2023-12-06T13:20:06Z</time>
      </trkpt>
      <trkpt lat="49.29508" lon="-0.05587">
        <ele>33</ele>
        <time>2023-12-06T13:20:07Z</time>
      </trkpt>
      <trkpt lat="49.29506" lon="-0.05577">
        <ele>33</ele>
        <time>2023-12-06T13:20:08Z</time>
      </trkpt>
      <trkpt lat="49.29504" lon="-0.05568">
        <ele>33</ele>
        <time>2023-12-06T13:20:09Z</time>
      </trkpt>
      <trkpt lat="49.29503" lon="-0.0556">
        <ele>33.2</ele>
        <time>2023-12-06T13:20:10Z</time>
      </trkpt>
      <trkpt lat="49.29501" lon="-0.05551">
        <ele>33.4</ele>
        <time>2023-12-06T13:20:11Z</time>
      </trkpt>
      <trkpt lat="49.295" lon="-0.05545">
        <ele>33.8</ele>
        <time>2023-12-06T13:20:12Z</time>
      </trkpt>
      <trkpt lat="49.29499" lon="-0.05535">
        <ele>34</ele>
        <time>2023-12-06T13:20:13Z</time>
      </trkpt>
      <trkpt lat="49.29498" lon="-0.05528">
        <ele>34</ele>
        <time>2023-12-06T13:20:14Z</time>
      </trkpt>
      <trkpt lat="49.29498" lon="-0.05518">
        <ele>34.2</ele>
        <time>2023-12-06T13:20:15Z</time>
      </trkpt>
      <trkpt lat="49.29497" lon="-0.05511">
        <ele>34.4</ele>
        <time>2023-12-06T13:20:16Z</time>
      </trkpt>
      <trkpt lat="49.29497" lon="-0.05503">
        <ele>34.6</ele>
        <time>2023-12-06T13:20:17Z</time>
      </trkpt>
      <trkpt lat="49.29496" lon="-0.05495">
        <ele>34.8</ele>
        <time>2023-12-06T13:20:18Z</time>
      </trkpt>
      <trkpt lat="49.29496" lon="-0.05486">
        <ele>35</ele>
        <time>2023-12-06T13:20:19Z</time>
      </trkpt>
      <trkpt lat="49.29495" lon="-0.05478">
        <ele>35</ele>
        <time>2023-12-06T13:20:20Z</time>
      </trkpt>
      <trkpt lat="49.29495" lon="-0.05471">
        <ele>35.2</ele>
        <time>2023-12-06T13:20:21Z</time>
      </trkpt>
      <trkpt lat="49.29494" lon="-0.05463">
        <ele>35.4</ele>
        <time>2023-12-06T13:20:22Z</time>
      </trkpt>
      <trkpt lat="49.29494" lon="-0.05455">
        <ele>35.6</ele>
        <time>2023-12-06T13:20:23Z</time>
      </trkpt>
      <trkpt lat="49.29493" lon="-0.05447">
        <ele>35.8</ele>
        <time>2023-12-06T13:20:24Z</time>
      </trkpt>
      <trkpt lat="49.29493" lon="-0.05439">
        <ele>35.8</ele>
        <time>2023-12-06T13:20:25Z</time>
      </trkpt>
      <trkpt lat="49.29492" lon="-0.05431">
        <ele>35.8</ele>
        <time>2023-12-06T13:20:26Z</time>
      </trkpt>
      <trkpt lat="49.29491" lon="-0.05424">
        <ele>36.2</ele>
        <time>2023-12-06T13:20:27Z</time>
      </trkpt>
      <trkpt lat="49.29491" lon="-0.05417">
        <ele>36.4</ele>
        <time>2023-12-06T13:20:28Z</time>
      </trkpt>
      <trkpt lat="49.2949" lon="-0.0541">
        <ele>36.8</ele>
        <time>2023-12-06T13:20:29Z</time>
      </trkpt>
      <trkpt lat="49.29489" lon="-0.05403">
        <ele>37</ele>
        <time>2023-12-06T13:20:30Z</time>
      </trkpt>
      <trkpt lat="49.29489" lon="-0.05396">
        <ele>37.4</ele>
        <time>2023-12-06T13:20:31Z</time>
      </trkpt>
      <trkpt lat="49.29488" lon="-0.05389">
        <ele>37.4</ele>
        <time>2023-12-06T13:20:32Z</time>
      </trkpt>
      <trkpt lat="49.29486" lon="-0.05382">
        <ele>37.6</ele>
        <time>2023-12-06T13:20:33Z</time>
      </trkpt>
      <trkpt lat="49.29485" lon="-0.05375">
        <ele>37.8</ele>
        <time>2023-12-06T13:20:34Z</time>
      </trkpt>
      <trkpt lat="49.29484" lon="-0.05368">
        <ele>37.8</ele>
        <time>2023-12-06T13:20:35Z</time>
      </trkpt>
      <trkpt lat="49.29482" lon="-0.05362">
        <ele>38.2</ele>
        <time>2023-12-06T13:20:36Z</time>
      </trkpt>
      <trkpt lat="49.2948" lon="-0.05354">
        <ele>38.4</ele>
        <time>2023-12-06T13:20:37Z</time>
      </trkpt>
      <trkpt lat="49.29479" lon="-0.05348">
        <ele>38.4</ele>
        <time>2023-12-06T13:20:38Z</time>
      </trkpt>
      <trkpt lat="49.29477" lon="-0.05341">
        <ele>38.8</ele>
        <time>2023-12-06T13:20:39Z</time>
      </trkpt>
      <trkpt lat="49.29476" lon="-0.05334">
        <ele>38.8</ele>
        <time>2023-12-06T13:20:40Z</time>
      </trkpt>
      <trkpt lat="49.29473" lon="-0.05328">
        <ele>39</ele>
        <time>2023-12-06T13:20:41Z</time>
      </trkpt>
      <trkpt lat="49.2947" lon="-0.0532">
        <ele>39.2</ele>
        <time>2023-12-06T13:20:42Z</time>
      </trkpt>
      <trkpt lat="49.29468" lon="-0.05314">
        <ele>39.4</ele>
        <time>2023-12-06T13:20:43Z</time>
      </trkpt>
      <trkpt lat="49.29466" lon="-0.05309">
        <ele>39.6</ele>
        <time>2023-12-06T13:20:44Z</time>
      </trkpt>
      <trkpt lat="49.29463" lon="-0.05302">
        <ele>39.8</ele>
        <time>2023-12-06T13:20:45Z</time>
      </trkpt>
      <trkpt lat="49.29461" lon="-0.05295">
        <ele>40</ele>
        <time>2023-12-06T13:20:46Z</time>
      </trkpt>
      <trkpt lat="49.29458" lon="-0.05288">
        <ele>40.4</ele>
        <time>2023-12-06T13:20:47Z</time>
      </trkpt>
      <trkpt lat="49.29455" lon="-0.05282">
        <ele>40.6</ele>
        <time>2023-12-06T13:20:48Z</time>
      </trkpt>
      <trkpt lat="49.29452" lon="-0.05275">
        <ele>40.8</ele>
        <time>2023-12-06T13:20:49Z</time>
      </trkpt>
      <trkpt lat="49.2945" lon="-0.05268">
        <ele>40.8</ele>
        <time>2023-12-06T13:20:50Z</time>
      </trkpt>
      <trkpt lat="49.29447" lon="-0.05261">
        <ele>41</ele>
        <time>2023-12-06T13:20:51Z</time>
      </trkpt>
      <trkpt lat="49.29444" lon="-0.05253">
        <ele>41.2</ele>
        <time>2023-12-06T13:20:52Z</time>
      </trkpt>
      <trkpt lat="49.29441" lon="-0.05246">
        <ele>41.4</ele>
        <time>2023-12-06T13:20:53Z</time>
      </trkpt>
      <trkpt lat="49.29438" lon="-0.0524">
        <ele>41.6</ele>
        <time>2023-12-06T13:20:54Z</time>
      </trkpt>
      <trkpt lat="49.29435" lon="-0.05232">
        <ele>41.8</ele>
        <time>2023-12-06T13:20:55Z</time>
      </trkpt>
      <trkpt lat="49.29432" lon="-0.05225">
        <ele>41.8</ele>
        <time>2023-12-06T13:20:56Z</time>
      </trkpt>
      <trkpt lat="49.29429" lon="-0.0522">
        <ele>42.2</ele>
        <time>2023-12-06T13:20:57Z</time>
      </trkpt>
      <trkpt lat="49.29427" lon="-0.05214">
        <ele>42.4</ele>
        <time>2023-12-06T13:20:58Z</time>
      </trkpt>
      <trkpt lat="49.29423" lon="-0.05206">
        <ele>42.6</ele>
        <time>2023-12-06T13:20:59Z</time>
      </trkpt>
      <trkpt lat="49.29421" lon="-0.05201">
        <ele>43</ele>
        <time>2023-12-06T13:21:00Z</time>
      </trkpt>
      <trkpt lat="49.29419" lon="-0.05194">
        <ele>43.2</ele>
        <time>2023-12-06T13:21:01Z</time>
      </trkpt>
      <trkpt lat="49.29416" lon="-0.05187">
        <ele>43.4</ele>
        <time>2023-12-06T13:21:02Z</time>
      </trkpt>
      <trkpt lat="49.29413" lon="-0.05181">
        <ele>43.4</ele>
        <time>2023-12-06T13:21:03Z</time>
      </trkpt>
      <trkpt lat="49.29411" lon="-0.05173">
        <ele>43.6</ele>
        <time>2023-12-06T13:21:04Z</time>
      </trkpt>
      <trkpt lat="49.29409" lon="-0.05167">
        <ele>43.6</ele>
        <time>2023-12-06T13:21:05Z</time>
      </trkpt>
      <trkpt lat="49.29406" lon="-0.05159">
        <ele>43.8</ele>
        <time>2023-12-06T13:21:06Z</time>
      </trkpt>
      <trkpt lat="49.29404" lon="-0.05153">
        <ele>43.8</ele>
        <time>2023-12-06T13:21:07Z</time>
      </trkpt>
      <trkpt lat="49.29402" lon="-0.05145">
        <ele>44</ele>
        <time>2023-12-06T13:21:08Z</time>
      </trkpt>
      <trkpt lat="49.29401" lon="-0.05138">
        <ele>44.2</ele>
        <time>2023-12-06T13:21:09Z</time>
      </trkpt>
      <trkpt lat="49.29399" lon="-0.0513">
        <ele>44.4</ele>
        <time>2023-12-06T13:21:10Z</time>
      </trkpt>
      <trkpt lat="49.29397" lon="-0.05122">
        <ele>44.4</ele>
        <time>2023-12-06T13:21:11Z</time>
      </trkpt>
      <trkpt lat="49.29395" lon="-0.05113">
        <ele>44.6</ele>
        <time>2023-12-06T13:21:12Z</time>
      </trkpt>
      <trkpt lat="49.29394" lon="-0.05104">
        <ele>44.8</ele>
        <time>2023-12-06T13:21:13Z</time>
      </trkpt>
      <trkpt lat="49.29392" lon="-0.05095">
        <ele>44.8</ele>
        <time>2023-12-06T13:21:14Z</time>
      </trkpt>
      <trkpt lat="49.29389" lon="-0.05084">
        <ele>44.8</ele>
        <time>2023-12-06T13:21:15Z</time>
      </trkpt>
      <trkpt lat="49.29388" lon="-0.05077">
        <ele>44.8</ele>
        <time>2023-12-06T13:21:16Z</time>
      </trkpt>
      <trkpt lat="49.29385" lon="-0.05068">
        <ele>44.8</ele>
        <time>2023-12-06T13:21:17Z</time>
      </trkpt>
      <trkpt lat="49.29383" lon="-0.05059">
        <ele>44.8</ele>
        <time>2023-12-06T13:21:18Z</time>
      </trkpt>
      <trkpt lat="49.29381" lon="-0.0505">
        <ele>44.8</ele>
        <time>2023-12-06T13:21:19Z</time>
      </trkpt>
      <trkpt lat="49.29378" lon="-0.05041">
        <ele>44.8</ele>
        <time>2023-12-06T13:21:20Z</time>
      </trkpt>
      <trkpt lat="49.29376" lon="-0.05032">
        <ele>44.8</ele>
        <time>2023-12-06T13:21:21Z</time>
      </trkpt>
      <trkpt lat="49.29373" lon="-0.05023">
        <ele>44.6</ele>
        <time>2023-12-06T13:21:22Z</time>
      </trkpt>
      <trkpt lat="49.2937" lon="-0.05014">
        <ele>44.2</ele>
        <time>2023-12-06T13:21:23Z</time>
      </trkpt>
      <trkpt lat="49.29368" lon="-0.05005">
        <ele>44</ele>
        <time>2023-12-06T13:21:24Z</time>
      </trkpt>
      <trkpt lat="49.29365" lon="-0.04996">
        <ele>43.8</ele>
        <time>2023-12-06T13:21:25Z</time>
      </trkpt>
      <trkpt lat="49.29362" lon="-0.04987">
        <ele>43.6</ele>
        <time>2023-12-06T13:21:26Z</time>
      </trkpt>
      <trkpt lat="49.29359" lon="-0.04978">
        <ele>43.4</ele>
        <time>2023-12-06T13:21:27Z</time>
      </trkpt>
      <trkpt lat="49.29355" lon="-0.0497">
        <ele>43.2</ele>
        <time>2023-12-06T13:21:28Z</time>
      </trkpt>
      <trkpt lat="49.29351" lon="-0.04961">
        <ele>43</ele>
        <time>2023-12-06T13:21:29Z</time>
      </trkpt>
      <trkpt lat="49.29348" lon="-0.04952">
        <ele>42.8</ele>
        <time>2023-12-06T13:21:30Z</time>
      </trkpt>
      <trkpt lat="49.29344" lon="-0.04943">
        <ele>42.6</ele>
        <time>2023-12-06T13:21:31Z</time>
      </trkpt>
      <trkpt lat="49.2934" lon="-0.04934">
        <ele>42.6</ele>
        <time>2023-12-06T13:21:32Z</time>
      </trkpt>
      <trkpt lat="49.29336" lon="-0.04925">
        <ele>42.4</ele>
        <time>2023-12-06T13:21:33Z</time>
      </trkpt>
      <trkpt lat="49.29332" lon="-0.04917">
        <ele>42.4</ele>
        <time>2023-12-06T13:21:34Z</time>
      </trkpt>
      <trkpt lat="49.29328" lon="-0.04908">
        <ele>42.2</ele>
        <time>2023-12-06T13:21:35Z</time>
      </trkpt>
      <trkpt lat="49.29322" lon="-0.04899">
        <ele>42.2</ele>
        <time>2023-12-06T13:21:36Z</time>
      </trkpt>
      <trkpt lat="49.29318" lon="-0.04891">
        <ele>42.2</ele>
        <time>2023-12-06T13:21:37Z</time>
      </trkpt>
      <trkpt lat="49.29314" lon="-0.04884">
        <ele>42.2</ele>
        <time>2023-12-06T13:21:38Z</time>
      </trkpt>
      <trkpt lat="49.2931" lon="-0.04876">
        <ele>42</ele>
        <time>2023-12-06T13:21:39Z</time>
      </trkpt>
      <trkpt lat="49.29305" lon="-0.04869">
        <ele>41.8</ele>
        <time>2023-12-06T13:21:40Z</time>
      </trkpt>
      <trkpt lat="49.29301" lon="-0.04862">
        <ele>41.8</ele>
        <time>2023-12-06T13:21:41Z</time>
      </trkpt>
      <trkpt lat="49.29297" lon="-0.04856">
        <ele>41.6</ele>
        <time>2023-12-06T13:21:42Z</time>
      </trkpt>
      <trkpt lat="49.29292" lon="-0.04849">
        <ele>41.4</ele>
        <time>2023-12-06T13:21:43Z</time>
      </trkpt>
      <trkpt lat="49.29288" lon="-0.04843">
        <ele>40.8</ele>
        <time>2023-12-06T13:21:44Z</time>
      </trkpt>
      <trkpt lat="49.29283" lon="-0.04836">
        <ele>40.6</ele>
        <time>2023-12-06T13:21:45Z</time>
      </trkpt>
      <trkpt lat="49.29278" lon="-0.04829">
        <ele>40.6</ele>
        <time>2023-12-06T13:21:46Z</time>
      </trkpt>
      <trkpt lat="49.29274" lon="-0.04823">
        <ele>40.4</ele>
        <time>2023-12-06T13:21:47Z</time>
      </trkpt>
      <trkpt lat="49.29269" lon="-0.04817">
        <ele>40.4</ele>
        <time>2023-12-06T13:21:48Z</time>
      </trkpt>
      <trkpt lat="49.29265" lon="-0.0481">
        <ele>40.4</ele>
        <time>2023-12-06T13:21:49Z</time>
      </trkpt>
      <trkpt lat="49.29261" lon="-0.04804">
        <ele>40.4</ele>
        <time>2023-12-06T13:21:50Z</time>
      </trkpt>
      <trkpt lat="49.29258" lon="-0.04797">
        <ele>40.4</ele>
        <time>2023-12-06T13:21:51Z</time>
      </trkpt>
      <trkpt lat="49.29254" lon="-0.0479">
        <ele>40.4</ele>
        <time>2023-12-06T13:21:52Z</time>
      </trkpt>
      <trkpt lat="49.29251" lon="-0.04784">
        <ele>40.4</ele>
        <time>2023-12-06T13:21:53Z</time>
      </trkpt>
      <trkpt lat="49.29249" lon="-0.04778">
        <ele>40.8</ele>
        <time>2023-12-06T13:21:54Z</time>
      </trkpt>
      <trkpt lat="49.29247" lon="-0.04771">
        <ele>41</ele>
        <time>2023-12-06T13:21:55Z</time>
      </trkpt>
      <trkpt lat="49.29245" lon="-0.04764">
        <ele>41.4</ele>
        <time>2023-12-06T13:21:56Z</time>
      </trkpt>
      <trkpt lat="49.29244" lon="-0.04758">
        <ele>41.6</ele>
        <time>2023-12-06T13:21:57Z</time>
      </trkpt>
      <trkpt lat="49.29242" lon="-0.04751">
        <ele>42</ele>
        <time>2023-12-06T13:21:58Z</time>
      </trkpt>
      <trkpt lat="49.29241" lon="-0.04745">
        <ele>42.4</ele>
        <time>2023-12-06T13:21:59Z</time>
      </trkpt>
      <trkpt lat="49.2924" lon="-0.04739">
        <ele>42.8</ele>
        <time>2023-12-06T13:22:00Z</time>
      </trkpt>
      <trkpt lat="49.29239" lon="-0.04733">
        <ele>43.2</ele>
        <time>2023-12-06T13:22:01Z</time>
      </trkpt>
      <trkpt lat="49.29238" lon="-0.04727">
        <ele>43.4</ele>
        <time>2023-12-06T13:22:02Z</time>
      </trkpt>
      <trkpt lat="49.29237" lon="-0.0472">
        <ele>43.8</ele>
        <time>2023-12-06T13:22:03Z</time>
      </trkpt>
      <trkpt lat="49.29236" lon="-0.04716">
        <ele>44</ele>
        <time>2023-12-06T13:22:04Z</time>
      </trkpt>
      <trkpt lat="49.29235" lon="-0.0471">
        <ele>44.2</ele>
        <time>2023-12-06T13:22:05Z</time>
      </trkpt>
      <trkpt lat="49.29234" lon="-0.04704">
        <ele>44.4</ele>
        <time>2023-12-06T13:22:06Z</time>
      </trkpt>
      <trkpt lat="49.29234" lon="-0.04699">
        <ele>44.6</ele>
        <time>2023-12-06T13:22:07Z</time>
      </trkpt>
      <trkpt lat="49.29233" lon="-0.04693">
        <ele>44.8</ele>
        <time>2023-12-06T13:22:08Z</time>
      </trkpt>
      <trkpt lat="49.29233" lon="-0.04688">
        <ele>45</ele>
        <time>2023-12-06T13:22:09Z</time>
      </trkpt>
      <trkpt lat="49.29233" lon="-0.04683">
        <ele>45.2</ele>
        <time>2023-12-06T13:22:10Z</time>
      </trkpt>
      <trkpt lat="49.29232" lon="-0.04678">
        <ele>45.8</ele>
        <time>2023-12-06T13:22:11Z</time>
      </trkpt>
      <trkpt lat="49.29232" lon="-0.04673">
        <ele>46.2</ele>
        <time>2023-12-06T13:22:12Z</time>
      </trkpt>
      <trkpt lat="49.29231" lon="-0.04668">
        <ele>46.6</ele>
        <time>2023-12-06T13:22:13Z</time>
      </trkpt>
      <trkpt lat="49.29231" lon="-0.04663">
        <ele>47</ele>
        <time>2023-12-06T13:22:14Z</time>
      </trkpt>
      <trkpt lat="49.29231" lon="-0.04657">
        <ele>47.4</ele>
        <time>2023-12-06T13:22:15Z</time>
      </trkpt>
      <trkpt lat="49.29231" lon="-0.04654">
        <ele>47.6</ele>
        <time>2023-12-06T13:22:16Z</time>
      </trkpt>
      <trkpt lat="49.2923" lon="-0.04649">
        <ele>48</ele>
        <time>2023-12-06T13:22:17Z</time>
      </trkpt>
      <trkpt lat="49.2923" lon="-0.04644">
        <ele>48.4</ele>
        <time>2023-12-06T13:22:18Z</time>
      </trkpt>
      <trkpt lat="49.2923" lon="-0.04639">
        <ele>48.8</ele>
        <time>2023-12-06T13:22:19Z</time>
      </trkpt>
      <trkpt lat="49.2923" lon="-0.04634">
        <ele>49</ele>
        <time>2023-12-06T13:22:20Z</time>
      </trkpt>
      <trkpt lat="49.2923" lon="-0.04629">
        <ele>49.4</ele>
        <time>2023-12-06T13:22:21Z</time>
      </trkpt>
      <trkpt lat="49.2923" lon="-0.04624">
        <ele>49.8</ele>
        <time>2023-12-06T13:22:22Z</time>
      </trkpt>
      <trkpt lat="49.2923" lon="-0.04619">
        <ele>50</ele>
        <time>2023-12-06T13:22:23Z</time>
      </trkpt>
      <trkpt lat="49.2923" lon="-0.04614">
        <ele>50.4</ele>
        <time>2023-12-06T13:22:24Z</time>
      </trkpt>
      <trkpt lat="49.2923" lon="-0.04611">
        <ele>50.8</ele>
        <time>2023-12-06T13:22:25Z</time>
      </trkpt>
      <trkpt lat="49.2923" lon="-0.04607">
        <ele>51.2</ele>
        <time>2023-12-06T13:22:26Z</time>
      </trkpt>
      <trkpt lat="49.2923" lon="-0.04603">
        <ele>51.4</ele>
        <time>2023-12-06T13:22:27Z</time>
      </trkpt>
      <trkpt lat="49.29231" lon="-0.04597">
        <ele>51.8</ele>
        <time>2023-12-06T13:22:28Z</time>
      </trkpt>
      <trkpt lat="49.29231" lon="-0.04593">
        <ele>52</ele>
        <time>2023-12-06T13:22:29Z</time>
      </trkpt>
      <trkpt lat="49.29231" lon="-0.04589">
        <ele>52.4</ele>
        <time>2023-12-06T13:22:30Z</time>
      </trkpt>
      <trkpt lat="49.29231" lon="-0.04584">
        <ele>52.6</ele>
        <time>2023-12-06T13:22:31Z</time>
      </trkpt>
      <trkpt lat="49.29231" lon="-0.0458">
        <ele>53</ele>
        <time>2023-12-06T13:22:32Z</time>
      </trkpt>
      <trkpt lat="49.29231" lon="-0.04576">
        <ele>53.4</ele>
        <time>2023-12-06T13:22:33Z</time>
      </trkpt>
      <trkpt lat="49.29231" lon="-0.04572">
        <ele>53.6</ele>
        <time>2023-12-06T13:22:34Z</time>
      </trkpt>
      <trkpt lat="49.29231" lon="-0.04567">
        <ele>53.8</ele>
        <time>2023-12-06T13:22:35Z</time>
      </trkpt>
      <trkpt lat="49.2923" lon="-0.04563">
        <ele>54.2</ele>
        <time>2023-12-06T13:22:36Z</time>
      </trkpt>
      <trkpt lat="49.29231" lon="-0.04559">
        <ele>54.4</ele>
        <time>2023-12-06T13:22:37Z</time>
      </trkpt>
      <trkpt lat="49.29231" lon="-0.04554">
        <ele>54.8</ele>
        <time>2023-12-06T13:22:38Z</time>
      </trkpt>
      <trkpt lat="49.29232" lon="-0.0455">
        <ele>55</ele>
        <time>2023-12-06T13:22:39Z</time>
      </trkpt>
      <trkpt lat="49.29232" lon="-0.04545">
        <ele>55.4</ele>
        <time>2023-12-06T13:22:40Z</time>
      </trkpt>
      <trkpt lat="49.29233" lon="-0.04541">
        <ele>55.6</ele>
        <time>2023-12-06T13:22:41Z</time>
      </trkpt>
      <trkpt lat="49.29234" lon="-0.04536">
        <ele>55.8</ele>
        <time>2023-12-06T13:22:42Z</time>
      </trkpt>
      <trkpt lat="49.29234" lon="-0.04532">
        <ele>56.2</ele>
        <time>2023-12-06T13:22:43Z</time>
      </trkpt>
      <trkpt lat="49.29234" lon="-0.04527">
        <ele>56.6</ele>
        <time>2023-12-06T13:22:44Z</time>
      </trkpt>
      <trkpt lat="49.29235" lon="-0.04523">
        <ele>56.8</ele>
        <time>2023-12-06T13:22:45Z</time>
      </trkpt>
      <trkpt lat="49.29236" lon="-0.04518">
        <ele>57.2</ele>
        <time>2023-12-06T13:22:46Z</time>
      </trkpt>
      <trkpt lat="49.29236" lon="-0.04514">
        <ele>57.2</ele>
        <time>2023-12-06T13:22:47Z</time>
      </trkpt>
      <trkpt lat="49.29237" lon="-0.0451">
        <ele>57.6</ele>
        <time>2023-12-06T13:22:48Z</time>
      </trkpt>
      <trkpt lat="49.29237" lon="-0.04505">
        <ele>58</ele>
        <time>2023-12-06T13:22:49Z</time>
      </trkpt>
      <trkpt lat="49.29238" lon="-0.04501">
        <ele>58.2</ele>
        <time>2023-12-06T13:22:50Z</time>
      </trkpt>
      <trkpt lat="49.29239" lon="-0.04496">
        <ele>58.6</ele>
        <time>2023-12-06T13:22:51Z</time>
      </trkpt>
      <trkpt lat="49.2924" lon="-0.04492">
        <ele>59</ele>
        <time>2023-12-06T13:22:52Z</time>
      </trkpt>
      <trkpt lat="49.2924" lon="-0.04487">
        <ele>59.2</ele>
        <time>2023-12-06T13:22:53Z</time>
      </trkpt>
      <trkpt lat="49.29241" lon="-0.04483">
        <ele>59.4</ele>
        <time>2023-12-06T13:22:54Z</time>
      </trkpt>
      <trkpt lat="49.29241" lon="-0.04479">
        <ele>59.8</ele>
        <time>2023-12-06T13:22:55Z</time>
      </trkpt>
      <trkpt lat="49.29242" lon="-0.04475">
        <ele>60</ele>
        <time>2023-12-06T13:22:56Z</time>
      </trkpt>
      <trkpt lat="49.29244" lon="-0.0447">
        <ele>60.6</ele>
        <time>2023-12-06T13:22:57Z</time>
      </trkpt>
      <trkpt lat="49.29245" lon="-0.04466">
        <ele>60.8</ele>
        <time>2023-12-06T13:22:58Z</time>
      </trkpt>
      <trkpt lat="49.29246" lon="-0.04461">
        <ele>61</ele>
        <time>2023-12-06T13:22:59Z</time>
      </trkpt>
      <trkpt lat="49.29247" lon="-0.04457">
        <ele>61.4</ele>
        <time>2023-12-06T13:23:00Z</time>
      </trkpt>
      <trkpt lat="49.29247" lon="-0.04453">
        <ele>61.6</ele>
        <time>2023-12-06T13:23:01Z</time>
      </trkpt>
      <trkpt lat="49.29248" lon="-0.04449">
        <ele>61.8</ele>
        <time>2023-12-06T13:23:02Z</time>
      </trkpt>
      <trkpt lat="49.29249" lon="-0.04445">
        <ele>62.2</ele>
        <time>2023-12-06T13:23:03Z</time>
      </trkpt>
      <trkpt lat="49.2925" lon="-0.04441">
        <ele>62.4</ele>
        <time>2023-12-06T13:23:04Z</time>
      </trkpt>
      <trkpt lat="49.29251" lon="-0.04438">
        <ele>62.6</ele>
        <time>2023-12-06T13:23:05Z</time>
      </trkpt>
      <trkpt lat="49.29252" lon="-0.04434">
        <ele>63</ele>
        <time>2023-12-06T13:23:06Z</time>
      </trkpt>
      <trkpt lat="49.29253" lon="-0.04431">
        <ele>63.2</ele>
        <time>2023-12-06T13:23:07Z</time>
      </trkpt>
      <trkpt lat="49.29254" lon="-0.04428">
        <ele>63.4</ele>
        <time>2023-12-06T13:23:08Z</time>
      </trkpt>
      <trkpt lat="49.29255" lon="-0.04424">
        <ele>63.8</ele>
        <time>2023-12-06T13:23:09Z</time>
      </trkpt>
      <trkpt lat="49.29256" lon="-0.0442">
        <ele>64</ele>
        <time>2023-12-06T13:23:10Z</time>
      </trkpt>
      <trkpt lat="49.29257" lon="-0.04416">
        <ele>64.2</ele>
        <time>2023-12-06T13:23:11Z</time>
      </trkpt>
      <trkpt lat="49.29258" lon="-0.04412">
        <ele>64.4</ele>
        <time>2023-12-06T13:23:12Z</time>
      </trkpt>
      <trkpt lat="49.2926" lon="-0.04408">
        <ele>64.8</ele>
        <time>2023-12-06T13:23:13Z</time>
      </trkpt>
      <trkpt lat="49.29261" lon="-0.04405">
        <ele>65</ele>
        <time>2023-12-06T13:23:14Z</time>
      </trkpt>
      <trkpt lat="49.29262" lon="-0.04401">
        <ele>65.4</ele>
        <time>2023-12-06T13:23:15Z</time>
      </trkpt>
      <trkpt lat="49.29263" lon="-0.04397">
        <ele>65.6</ele>
        <time>2023-12-06T13:23:16Z</time>
      </trkpt>
      <trkpt lat="49.29265" lon="-0.04393">
        <ele>65.8</ele>
        <time>2023-12-06T13:23:17Z</time>
      </trkpt>
      <trkpt lat="49.29266" lon="-0.0439">
        <ele>66</ele>
        <time>2023-12-06T13:23:18Z</time>
      </trkpt>
      <trkpt lat="49.29267" lon="-0.04386">
        <ele>66.4</ele>
        <time>2023-12-06T13:23:19Z</time>
      </trkpt>
      <trkpt lat="49.29268" lon="-0.04382">
        <ele>66.6</ele>
        <time>2023-12-06T13:23:20Z</time>
      </trkpt>
      <trkpt lat="49.29269" lon="-0.04379">
        <ele>66.8</ele>
        <time>2023-12-06T13:23:21Z</time>
      </trkpt>
      <trkpt lat="49.2927" lon="-0.04375">
        <ele>67.2</ele>
        <time>2023-12-06T13:23:22Z</time>
      </trkpt>
      <trkpt lat="49.29271" lon="-0.04372">
        <ele>67.4</ele>
        <time>2023-12-06T13:23:23Z</time>
      </trkpt>
      <trkpt lat="49.29273" lon="-0.04368">
        <ele>67.6</ele>
        <time>2023-12-06T13:23:24Z</time>
      </trkpt>
      <trkpt lat="49.29274" lon="-0.04364">
        <ele>68</ele>
        <time>2023-12-06T13:23:25Z</time>
      </trkpt>
      <trkpt lat="49.29275" lon="-0.04361">
        <ele>68.2</ele>
        <time>2023-12-06T13:23:26Z</time>
      </trkpt>
      <trkpt lat="49.29276" lon="-0.04357">
        <ele>68.4</ele>
        <time>2023-12-06T13:23:27Z</time>
      </trkpt>
      <trkpt lat="49.29278" lon="-0.04354">
        <ele>68.8</ele>
        <time>2023-12-06T13:23:28Z</time>
      </trkpt>
      <trkpt lat="49.29279" lon="-0.0435">
        <ele>69</ele>
        <time>2023-12-06T13:23:29Z</time>
      </trkpt>
      <trkpt lat="49.2928" lon="-0.04347">
        <ele>69.4</ele>
        <time>2023-12-06T13:23:30Z</time>
      </trkpt>
      <trkpt lat="49.29282" lon="-0.04344">
        <ele>69.6</ele>
        <time>2023-12-06T13:23:31Z</time>
      </trkpt>
      <trkpt lat="49.29283" lon="-0.0434">
        <ele>69.8</ele>
        <time>2023-12-06T13:23:32Z</time>
      </trkpt>
      <trkpt lat="49.29284" lon="-0.04336">
        <ele>70</ele>
        <time>2023-12-06T13:23:33Z</time>
      </trkpt>
      <trkpt lat="49.29285" lon="-0.04333">
        <ele>70.2</ele>
        <time>2023-12-06T13:23:34Z</time>
      </trkpt>
      <trkpt lat="49.29286" lon="-0.04329">
        <ele>70.4</ele>
        <time>2023-12-06T13:23:35Z</time>
      </trkpt>
      <trkpt lat="49.29287" lon="-0.04326">
        <ele>70.6</ele>
        <time>2023-12-06T13:23:36Z</time>
      </trkpt>
      <trkpt lat="49.29288" lon="-0.04323">
        <ele>71</ele>
        <time>2023-12-06T13:23:37Z</time>
      </trkpt>
      <trkpt lat="49.29289" lon="-0.04319">
        <ele>71.2</ele>
        <time>2023-12-06T13:23:38Z</time>
      </trkpt>
      <trkpt lat="49.2929" lon="-0.04315">
        <ele>71.4</ele>
        <time>2023-12-06T13:23:39Z</time>
      </trkpt>
      <trkpt lat="49.2929" lon="-0.04311">
        <ele>71.8</ele>
        <time>2023-12-06T13:23:40Z</time>
      </trkpt>
      <trkpt lat="49.2929" lon="-0.04307">
        <ele>72.2</ele>
        <time>2023-12-06T13:23:41Z</time>
      </trkpt>
      <trkpt lat="49.29289" lon="-0.04302">
        <ele>72.4</ele>
        <time>2023-12-06T13:23:42Z</time>
      </trkpt>
      <trkpt lat="49.29289" lon="-0.04298">
        <ele>72.6</ele>
        <time>2023-12-06T13:23:43Z</time>
      </trkpt>
      <trkpt lat="49.29288" lon="-0.04296">
        <ele>73</ele>
        <time>2023-12-06T13:23:44Z</time>
      </trkpt>
      <trkpt lat="49.29287" lon="-0.0429">
        <ele>73.2</ele>
        <time>2023-12-06T13:23:45Z</time>
      </trkpt>
      <trkpt lat="49.29286" lon="-0.04287">
        <ele>73.6</ele>
        <time>2023-12-06T13:23:46Z</time>
      </trkpt>
      <trkpt lat="49.29285" lon="-0.04283">
        <ele>73.8</ele>
        <time>2023-12-06T13:23:47Z</time>
      </trkpt>
      <trkpt lat="49.29284" lon="-0.04279">
        <ele>74.2</ele>
        <time>2023-12-06T13:23:48Z</time>
      </trkpt>
      <trkpt lat="49.29283" lon="-0.04276">
        <ele>74.4</ele>
        <time>2023-12-06T13:23:49Z</time>
      </trkpt>
      <trkpt lat="49.29282" lon="-0.04272">
        <ele>74.6</ele>
        <time>2023-12-06T13:23:50Z</time>
      </trkpt>
      <trkpt lat="49.2928" lon="-0.04268">
        <ele>74.8</ele>
        <time>2023-12-06T13:23:51Z</time>
      </trkpt>
      <trkpt lat="49.2928" lon="-0.04265">
        <ele>75.2</ele>
        <time>2023-12-06T13:23:52Z</time>
      </trkpt>
      <trkpt lat="49.29279" lon="-0.04261">
        <ele>75.4</ele>
        <time>2023-12-06T13:23:53Z</time>
      </trkpt>
      <trkpt lat="49.29278" lon="-0.04257">
        <ele>75.8</ele>
        <time>2023-12-06T13:23:54Z</time>
      </trkpt>
      <trkpt lat="49.29276" lon="-0.04253">
        <ele>76</ele>
        <time>2023-12-06T13:23:55Z</time>
      </trkpt>
      <trkpt lat="49.29275" lon="-0.04249">
        <ele>76.2</ele>
        <time>2023-12-06T13:23:56Z</time>
      </trkpt>
      <trkpt lat="49.29274" lon="-0.04245">
        <ele>76.6</ele>
        <time>2023-12-06T13:23:57Z</time>
      </trkpt>
      <trkpt lat="49.29274" lon="-0.04242">
        <ele>76.8</ele>
        <time>2023-12-06T13:23:58Z</time>
      </trkpt>
      <trkpt lat="49.29273" lon="-0.04238">
        <ele>77</ele>
        <time>2023-12-06T13:23:59Z</time>
      </trkpt>
      <trkpt lat="49.29272" lon="-0.04234">
        <ele>77.2</ele>
        <time>2023-12-06T13:24:00Z</time>
      </trkpt>
      <trkpt lat="49.29271" lon="-0.04229">
        <ele>77.4</ele>
        <time>2023-12-06T13:24:01Z</time>
      </trkpt>
      <trkpt lat="49.2927" lon="-0.04226">
        <ele>77.6</ele>
        <time>2023-12-06T13:24:02Z</time>
      </trkpt>
      <trkpt lat="49.29269" lon="-0.04223">
        <ele>77.8</ele>
        <time>2023-12-06T13:24:03Z</time>
      </trkpt>
      <trkpt lat="49.29268" lon="-0.0422">
        <ele>78.2</ele>
        <time>2023-12-06T13:24:04Z</time>
      </trkpt>
      <trkpt lat="49.29267" lon="-0.04216">
        <ele>78.4</ele>
        <time>2023-12-06T13:24:05Z</time>
      </trkpt>
      <trkpt lat="49.29266" lon="-0.04212">
        <ele>79</ele>
        <time>2023-12-06T13:24:06Z</time>
      </trkpt>
      <trkpt lat="49.29265" lon="-0.04209">
        <ele>79.2</ele>
        <time>2023-12-06T13:24:07Z</time>
      </trkpt>
      <trkpt lat="49.29264" lon="-0.04205">
        <ele>79.4</ele>
        <time>2023-12-06T13:24:08Z</time>
      </trkpt>
      <trkpt lat="49.29263" lon="-0.04202">
        <ele>79.8</ele>
        <time>2023-12-06T13:24:09Z</time>
      </trkpt>
      <trkpt lat="49.29262" lon="-0.04197">
        <ele>80</ele>
        <time>2023-12-06T13:24:10Z</time>
      </trkpt>
      <trkpt lat="49.29261" lon="-0.04194">
        <ele>80.4</ele>
        <time>2023-12-06T13:24:11Z</time>
      </trkpt>
      <trkpt lat="49.2926" lon="-0.0419">
        <ele>80.6</ele>
        <time>2023-12-06T13:24:12Z</time>
      </trkpt>
      <trkpt lat="49.29259" lon="-0.04187">
        <ele>81</ele>
        <time>2023-12-06T13:24:13Z</time>
      </trkpt>
      <trkpt lat="49.29257" lon="-0.04182">
        <ele>81.4</ele>
        <time>2023-12-06T13:24:14Z</time>
      </trkpt>
      <trkpt lat="49.29255" lon="-0.04179">
        <ele>81.6</ele>
        <time>2023-12-06T13:24:15Z</time>
      </trkpt>
      <trkpt lat="49.29255" lon="-0.04174">
        <ele>81.8</ele>
        <time>2023-12-06T13:24:16Z</time>
      </trkpt>
      <trkpt lat="49.29254" lon="-0.0417">
        <ele>82</ele>
        <time>2023-12-06T13:24:17Z</time>
      </trkpt>
      <trkpt lat="49.29252" lon="-0.04166">
        <ele>82.2</ele>
        <time>2023-12-06T13:24:18Z</time>
      </trkpt>
      <trkpt lat="49.2925" lon="-0.04162">
        <ele>82.4</ele>
        <time>2023-12-06T13:24:19Z</time>
      </trkpt>
      <trkpt lat="49.29248" lon="-0.04158">
        <ele>82.8</ele>
        <time>2023-12-06T13:24:20Z</time>
      </trkpt>
      <trkpt lat="49.29247" lon="-0.04153">
        <ele>83</ele>
        <time>2023-12-06T13:24:21Z</time>
      </trkpt>
      <trkpt lat="49.29246" lon="-0.04147">
        <ele>83.2</ele>
        <time>2023-12-06T13:24:22Z</time>
      </trkpt>
      <trkpt lat="49.29245" lon="-0.04144">
        <ele>83.6</ele>
        <time>2023-12-06T13:24:23Z</time>
      </trkpt>
      <trkpt lat="49.29244" lon="-0.04139">
        <ele>83.8</ele>
        <time>2023-12-06T13:24:24Z</time>
      </trkpt>
      <trkpt lat="49.29243" lon="-0.04134">
        <ele>84</ele>
        <time>2023-12-06T13:24:25Z</time>
      </trkpt>
      <trkpt lat="49.29241" lon="-0.04129">
        <ele>84.2</ele>
        <time>2023-12-06T13:24:26Z</time>
      </trkpt>
      <trkpt lat="49.2924" lon="-0.04125">
        <ele>84.4</ele>
        <time>2023-12-06T13:24:27Z</time>
      </trkpt>
      <trkpt lat="49.29239" lon="-0.0412">
        <ele>84.6</ele>
        <time>2023-12-06T13:24:28Z</time>
      </trkpt>
      <trkpt lat="49.29238" lon="-0.04116">
        <ele>84.6</ele>
        <time>2023-12-06T13:24:29Z</time>
      </trkpt>
      <trkpt lat="49.29238" lon="-0.04113">
        <ele>85</ele>
        <time>2023-12-06T13:24:30Z</time>
      </trkpt>
      <trkpt lat="49.29237" lon="-0.04108">
        <ele>85.2</ele>
        <time>2023-12-06T13:24:31Z</time>
      </trkpt>
      <trkpt lat="49.29236" lon="-0.04105">
        <ele>85.4</ele>
        <time>2023-12-06T13:24:32Z</time>
      </trkpt>
      <trkpt lat="49.29235" lon="-0.041">
        <ele>85.8</ele>
        <time>2023-12-06T13:24:33Z</time>
      </trkpt>
      <trkpt lat="49.29234" lon="-0.04096">
        <ele>86</ele>
        <time>2023-12-06T13:24:34Z</time>
      </trkpt>
      <trkpt lat="49.29233" lon="-0.04092">
        <ele>86.2</ele>
        <time>2023-12-06T13:24:35Z</time>
      </trkpt>
      <trkpt lat="49.29231" lon="-0.04087">
        <ele>86.4</ele>
        <time>2023-12-06T13:24:36Z</time>
      </trkpt>
      <trkpt lat="49.29229" lon="-0.04083">
        <ele>86.6</ele>
        <time>2023-12-06T13:24:37Z</time>
      </trkpt>
      <trkpt lat="49.29228" lon="-0.04079">
        <ele>86.8</ele>
        <time>2023-12-06T13:24:38Z</time>
      </trkpt>
      <trkpt lat="49.29226" lon="-0.04076">
        <ele>87</ele>
        <time>2023-12-06T13:24:39Z</time>
      </trkpt>
      <trkpt lat="49.29225" lon="-0.04071">
        <ele>87.2</ele>
        <time>2023-12-06T13:24:40Z</time>
      </trkpt>
      <trkpt lat="49.29223" lon="-0.04068">
        <ele>87.2</ele>
        <time>2023-12-06T13:24:41Z</time>
      </trkpt>
      <trkpt lat="49.29221" lon="-0.04064">
        <ele>87.4</ele>
        <time>2023-12-06T13:24:42Z</time>
      </trkpt>
      <trkpt lat="49.2922" lon="-0.0406">
        <ele>87.6</ele>
        <time>2023-12-06T13:24:43Z</time>
      </trkpt>
      <trkpt lat="49.29218" lon="-0.04055">
        <ele>87.8</ele>
        <time>2023-12-06T13:24:44Z</time>
      </trkpt>
      <trkpt lat="49.29216" lon="-0.04052">
        <ele>88</ele>
        <time>2023-12-06T13:24:45Z</time>
      </trkpt>
      <trkpt lat="49.29214" lon="-0.04048">
        <ele>88.2</ele>
        <time>2023-12-06T13:24:46Z</time>
      </trkpt>
      <trkpt lat="49.29212" lon="-0.04044">
        <ele>88.2</ele>
        <time>2023-12-06T13:24:47Z</time>
      </trkpt>
      <trkpt lat="49.2921" lon="-0.0404">
        <ele>88.6</ele>
        <time>2023-12-06T13:24:48Z</time>
      </trkpt>
      <trkpt lat="49.29208" lon="-0.04036">
        <ele>88.8</ele>
        <time>2023-12-06T13:24:49Z</time>
      </trkpt>
      <trkpt lat="49.29206" lon="-0.04033">
        <ele>89</ele>
        <time>2023-12-06T13:24:50Z</time>
      </trkpt>
      <trkpt lat="49.29203" lon="-0.04028">
        <ele>89.2</ele>
        <time>2023-12-06T13:24:51Z</time>
      </trkpt>
      <trkpt lat="49.29201" lon="-0.04024">
        <ele>89.4</ele>
        <time>2023-12-06T13:24:52Z</time>
      </trkpt>
      <trkpt lat="49.29199" lon="-0.0402">
        <ele>89.6</ele>
        <time>2023-12-06T13:24:53Z</time>
      </trkpt>
      <trkpt lat="49.29197" lon="-0.04017">
        <ele>89.8</ele>
        <time>2023-12-06T13:24:54Z</time>
      </trkpt>
      <trkpt lat="49.29195" lon="-0.04013">
        <ele>89.8</ele>
        <time>2023-12-06T13:24:55Z</time>
      </trkpt>
      <trkpt lat="49.29192" lon="-0.04008">
        <ele>90</ele>
        <time>2023-12-06T13:24:56Z</time>
      </trkpt>
      <trkpt lat="49.2919" lon="-0.04004">
        <ele>90.2</ele>
        <time>2023-12-06T13:24:57Z</time>
      </trkpt>
      <trkpt lat="49.29188" lon="-0.04">
        <ele>90.4</ele>
        <time>2023-12-06T13:24:58Z</time>
      </trkpt>
      <trkpt lat="49.29186" lon="-0.03994">
        <ele>90.4</ele>
        <time>2023-12-06T13:24:59Z</time>
      </trkpt>
      <trkpt lat="49.29184" lon="-0.0399">
        <ele>90.4</ele>
        <time>2023-12-06T13:25:00Z</time>
      </trkpt>
      <trkpt lat="49.29182" lon="-0.03986">
        <ele>90.6</ele>
        <time>2023-12-06T13:25:01Z</time>
      </trkpt>
      <trkpt lat="49.2918" lon="-0.0398">
        <ele>90.8</ele>
        <time>2023-12-06T13:25:02Z</time>
      </trkpt>
      <trkpt lat="49.29179" lon="-0.03976">
        <ele>90.8</ele>
        <time>2023-12-06T13:25:03Z</time>
      </trkpt>
      <trkpt lat="49.29177" lon="-0.0397">
        <ele>91</ele>
        <time>2023-12-06T13:25:04Z</time>
      </trkpt>
      <trkpt lat="49.29175" lon="-0.03965">
        <ele>91</ele>
        <time>2023-12-06T13:25:05Z</time>
      </trkpt>
      <trkpt lat="49.29173" lon="-0.03961">
        <ele>91.2</ele>
        <time>2023-12-06T13:25:06Z</time>
      </trkpt>
      <trkpt lat="49.29171" lon="-0.03955">
        <ele>91.2</ele>
        <time>2023-12-06T13:25:07Z</time>
      </trkpt>
      <trkpt lat="49.2917" lon="-0.03951">
        <ele>91.4</ele>
        <time>2023-12-06T13:25:08Z</time>
      </trkpt>
      <trkpt lat="49.29168" lon="-0.03946">
        <ele>91.4</ele>
        <time>2023-12-06T13:25:09Z</time>
      </trkpt>
      <trkpt lat="49.29167" lon="-0.0394">
        <ele>91.6</ele>
        <time>2023-12-06T13:25:10Z</time>
      </trkpt>
      <trkpt lat="49.29165" lon="-0.03934">
        <ele>91.8</ele>
        <time>2023-12-06T13:25:11Z</time>
      </trkpt>
      <trkpt lat="49.29164" lon="-0.0393">
        <ele>91.8</ele>
        <time>2023-12-06T13:25:12Z</time>
      </trkpt>
      <trkpt lat="49.29162" lon="-0.03923">
        <ele>91.8</ele>
        <time>2023-12-06T13:25:13Z</time>
      </trkpt>
      <trkpt lat="49.2916" lon="-0.03918">
        <ele>92</ele>
        <time>2023-12-06T13:25:14Z</time>
      </trkpt>
      <trkpt lat="49.29158" lon="-0.03914">
        <ele>92.2</ele>
        <time>2023-12-06T13:25:15Z</time>
      </trkpt>
      <trkpt lat="49.29156" lon="-0.03908">
        <ele>92.4</ele>
        <time>2023-12-06T13:25:16Z</time>
      </trkpt>
      <trkpt lat="49.29155" lon="-0.03903">
        <ele>92.4</ele>
        <time>2023-12-06T13:25:17Z</time>
      </trkpt>
      <trkpt lat="49.29154" lon="-0.03898">
        <ele>92.4</ele>
        <time>2023-12-06T13:25:18Z</time>
      </trkpt>
      <trkpt lat="49.29152" lon="-0.03892">
        <ele>92.4</ele>
        <time>2023-12-06T13:25:19Z</time>
      </trkpt>
      <trkpt lat="49.29151" lon="-0.03887">
        <ele>92.6</ele>
        <time>2023-12-06T13:25:20Z</time>
      </trkpt>
      <trkpt lat="49.2915" lon="-0.03883">
        <ele>92.6</ele>
        <time>2023-12-06T13:25:21Z</time>
      </trkpt>
      <trkpt lat="49.29147" lon="-0.03877">
        <ele>92.8</ele>
        <time>2023-12-06T13:25:22Z</time>
      </trkpt>
      <trkpt lat="49.29145" lon="-0.03872">
        <ele>92.8</ele>
        <time>2023-12-06T13:25:23Z</time>
      </trkpt>
      <trkpt lat="49.29144" lon="-0.03867">
        <ele>92.8</ele>
        <time>2023-12-06T13:25:24Z</time>
      </trkpt>
      <trkpt lat="49.29142" lon="-0.03862">
        <ele>92.8</ele>
        <time>2023-12-06T13:25:25Z</time>
      </trkpt>
      <trkpt lat="49.2914" lon="-0.03858">
        <ele>92.8</ele>
        <time>2023-12-06T13:25:26Z</time>
      </trkpt>
      <trkpt lat="49.29139" lon="-0.03853">
        <ele>93</ele>
        <time>2023-12-06T13:25:27Z</time>
      </trkpt>
      <trkpt lat="49.29137" lon="-0.03848">
        <ele>93.2</ele>
        <time>2023-12-06T13:25:28Z</time>
      </trkpt>
      <trkpt lat="49.29136" lon="-0.03842">
        <ele>93.2</ele>
        <time>2023-12-06T13:25:29Z</time>
      </trkpt>
      <trkpt lat="49.29134" lon="-0.03838">
        <ele>93.4</ele>
        <time>2023-12-06T13:25:30Z</time>
      </trkpt>
      <trkpt lat="49.29133" lon="-0.03832">
        <ele>93.6</ele>
        <time>2023-12-06T13:25:31Z</time>
      </trkpt>
      <trkpt lat="49.29131" lon="-0.03827">
        <ele>93.6</ele>
        <time>2023-12-06T13:25:32Z</time>
      </trkpt>
      <trkpt lat="49.2913" lon="-0.03823">
        <ele>93.6</ele>
        <time>2023-12-06T13:25:33Z</time>
      </trkpt>
      <trkpt lat="49.29129" lon="-0.03818">
        <ele>93.8</ele>
        <time>2023-12-06T13:25:34Z</time>
      </trkpt>
      <trkpt lat="49.29127" lon="-0.03812">
        <ele>93.8</ele>
        <time>2023-12-06T13:25:35Z</time>
      </trkpt>
      <trkpt lat="49.29125" lon="-0.03807">
        <ele>94</ele>
        <time>2023-12-06T13:25:36Z</time>
      </trkpt>
      <trkpt lat="49.29124" lon="-0.03804">
        <ele>94.2</ele>
        <time>2023-12-06T13:25:37Z</time>
      </trkpt>
      <trkpt lat="49.29123" lon="-0.03799">
        <ele>94.4</ele>
        <time>2023-12-06T13:25:38Z</time>
      </trkpt>
      <trkpt lat="49.29121" lon="-0.03795">
        <ele>94.6</ele>
        <time>2023-12-06T13:25:39Z</time>
      </trkpt>
      <trkpt lat="49.29119" lon="-0.03789">
        <ele>94.8</ele>
        <time>2023-12-06T13:25:40Z</time>
      </trkpt>
      <trkpt lat="49.29117" lon="-0.03785">
        <ele>94.8</ele>
        <time>2023-12-06T13:25:41Z</time>
      </trkpt>
      <trkpt lat="49.29116" lon="-0.03781">
        <ele>95</ele>
        <time>2023-12-06T13:25:42Z</time>
      </trkpt>
      <trkpt lat="49.29115" lon="-0.03775">
        <ele>95.4</ele>
        <time>2023-12-06T13:25:43Z</time>
      </trkpt>
      <trkpt lat="49.29113" lon="-0.0377">
        <ele>95.4</ele>
        <time>2023-12-06T13:25:44Z</time>
      </trkpt>
      <trkpt lat="49.29112" lon="-0.03766">
        <ele>95.6</ele>
        <time>2023-12-06T13:25:45Z</time>
      </trkpt>
      <trkpt lat="49.2911" lon="-0.0376">
        <ele>95.8</ele>
        <time>2023-12-06T13:25:46Z</time>
      </trkpt>
      <trkpt lat="49.29108" lon="-0.03755">
        <ele>96</ele>
        <time>2023-12-06T13:25:47Z</time>
      </trkpt>
      <trkpt lat="49.29107" lon="-0.03751">
        <ele>96.2</ele>
        <time>2023-12-06T13:25:48Z</time>
      </trkpt>
      <trkpt lat="49.29105" lon="-0.03745">
        <ele>96.2</ele>
        <time>2023-12-06T13:25:49Z</time>
      </trkpt>
      <trkpt lat="49.29104" lon="-0.03741">
        <ele>96.6</ele>
        <time>2023-12-06T13:25:50Z</time>
      </trkpt>
      <trkpt lat="49.29102" lon="-0.03736">
        <ele>97</ele>
        <time>2023-12-06T13:25:51Z</time>
      </trkpt>
      <trkpt lat="49.291" lon="-0.03731">
        <ele>97.2</ele>
        <time>2023-12-06T13:25:52Z</time>
      </trkpt>
      <trkpt lat="49.29099" lon="-0.03726">
        <ele>97.2</ele>
        <time>2023-12-06T13:25:53Z</time>
      </trkpt>
      <trkpt lat="49.29097" lon="-0.0372">
        <ele>97.4</ele>
        <time>2023-12-06T13:25:54Z</time>
      </trkpt>
      <trkpt lat="49.29095" lon="-0.03715">
        <ele>97.6</ele>
        <time>2023-12-06T13:25:55Z</time>
      </trkpt>
      <trkpt lat="49.29094" lon="-0.0371">
        <ele>97.6</ele>
        <time>2023-12-06T13:25:56Z</time>
      </trkpt>
      <trkpt lat="49.29092" lon="-0.03706">
        <ele>97.8</ele>
        <time>2023-12-06T13:25:57Z</time>
      </trkpt>
      <trkpt lat="49.2909" lon="-0.03702">
        <ele>98</ele>
        <time>2023-12-06T13:25:58Z</time>
      </trkpt>
      <trkpt lat="49.29089" lon="-0.03697">
        <ele>98</ele>
        <time>2023-12-06T13:25:59Z</time>
      </trkpt>
      <trkpt lat="49.29087" lon="-0.03691">
        <ele>98.2</ele>
        <time>2023-12-06T13:26:00Z</time>
      </trkpt>
      <trkpt lat="49.29086" lon="-0.03687">
        <ele>98.6</ele>
        <time>2023-12-06T13:26:01Z</time>
      </trkpt>
      <trkpt lat="49.29084" lon="-0.03683">
        <ele>98.8</ele>
        <time>2023-12-06T13:26:02Z</time>
      </trkpt>
      <trkpt lat="49.29083" lon="-0.03678">
        <ele>99.2</ele>
        <time>2023-12-06T13:26:03Z</time>
      </trkpt>
      <trkpt lat="49.29081" lon="-0.03673">
        <ele>99.4</ele>
        <time>2023-12-06T13:26:04Z</time>
      </trkpt>
      <trkpt lat="49.29079" lon="-0.03669">
        <ele>99.6</ele>
        <time>2023-12-06T13:26:05Z</time>
      </trkpt>
      <trkpt lat="49.29078" lon="-0.03665">
        <ele>99.6</ele>
        <time>2023-12-06T13:26:06Z</time>
      </trkpt>
      <trkpt lat="49.29076" lon="-0.0366">
        <ele>99.8</ele>
        <time>2023-12-06T13:26:07Z</time>
      </trkpt>
      <trkpt lat="49.29075" lon="-0.03656">
        <ele>100</ele>
        <time>2023-12-06T13:26:08Z</time>
      </trkpt>
      <trkpt lat="49.29073" lon="-0.03651">
        <ele>100.2</ele>
        <time>2023-12-06T13:26:09Z</time>
      </trkpt>
      <trkpt lat="49.29071" lon="-0.03646">
        <ele>100.4</ele>
        <time>2023-12-06T13:26:10Z</time>
      </trkpt>
      <trkpt lat="49.29069" lon="-0.03642">
        <ele>100.6</ele>
        <time>2023-12-06T13:26:11Z</time>
      </trkpt>
      <trkpt lat="49.29068" lon="-0.03637">
        <ele>100.8</ele>
        <time>2023-12-06T13:26:12Z</time>
      </trkpt>
      <trkpt lat="49.29066" lon="-0.03631">
        <ele>101</ele>
        <time>2023-12-06T13:26:13Z</time>
      </trkpt>
      <trkpt lat="49.29063" lon="-0.03627">
        <ele>101</ele>
        <time>2023-12-06T13:26:14Z</time>
      </trkpt>
      <trkpt lat="49.29061" lon="-0.03622">
        <ele>101.2</ele>
        <time>2023-12-06T13:26:15Z</time>
      </trkpt>
      <trkpt lat="49.29059" lon="-0.03618">
        <ele>101.4</ele>
        <time>2023-12-06T13:26:16Z</time>
      </trkpt>
      <trkpt lat="49.29057" lon="-0.03613">
        <ele>101.8</ele>
        <time>2023-12-06T13:26:17Z</time>
      </trkpt>
      <trkpt lat="49.29056" lon="-0.0361">
        <ele>101.8</ele>
        <time>2023-12-06T13:26:18Z</time>
      </trkpt>
      <trkpt lat="49.29054" lon="-0.03605">
        <ele>102.2</ele>
        <time>2023-12-06T13:26:19Z</time>
      </trkpt>
      <trkpt lat="49.29052" lon="-0.03602">
        <ele>102.2</ele>
        <time>2023-12-06T13:26:20Z</time>
      </trkpt>
      <trkpt lat="49.2905" lon="-0.03598">
        <ele>102.4</ele>
        <time>2023-12-06T13:26:21Z</time>
      </trkpt>
      <trkpt lat="49.29048" lon="-0.03593">
        <ele>102.6</ele>
        <time>2023-12-06T13:26:22Z</time>
      </trkpt>
      <trkpt lat="49.29046" lon="-0.03589">
        <ele>102.8</ele>
        <time>2023-12-06T13:26:23Z</time>
      </trkpt>
      <trkpt lat="49.29044" lon="-0.03583">
        <ele>103</ele>
        <time>2023-12-06T13:26:24Z</time>
      </trkpt>
      <trkpt lat="49.29041" lon="-0.03579">
        <ele>103.2</ele>
        <time>2023-12-06T13:26:25Z</time>
      </trkpt>
      <trkpt lat="49.29039" lon="-0.03573">
        <ele>103.4</ele>
        <time>2023-12-06T13:26:26Z</time>
      </trkpt>
      <trkpt lat="49.29037" lon="-0.03568">
        <ele>103.8</ele>
        <time>2023-12-06T13:26:27Z</time>
      </trkpt>
      <trkpt lat="49.29035" lon="-0.03564">
        <ele>104</ele>
        <time>2023-12-06T13:26:28Z</time>
      </trkpt>
      <trkpt lat="49.29032" lon="-0.0356">
        <ele>104.2</ele>
        <time>2023-12-06T13:26:29Z</time>
      </trkpt>
      <trkpt lat="49.2903" lon="-0.03556">
        <ele>104.6</ele>
        <time>2023-12-06T13:26:30Z</time>
      </trkpt>
      <trkpt lat="49.29028" lon="-0.03551">
        <ele>104.8</ele>
        <time>2023-12-06T13:26:31Z</time>
      </trkpt>
      <trkpt lat="49.29026" lon="-0.03546">
        <ele>105.2</ele>
        <time>2023-12-06T13:26:32Z</time>
      </trkpt>
      <trkpt lat="49.29024" lon="-0.03541">
        <ele>105.4</ele>
        <time>2023-12-06T13:26:33Z</time>
      </trkpt>
      <trkpt lat="49.29022" lon="-0.03538">
        <ele>105.8</ele>
        <time>2023-12-06T13:26:34Z</time>
      </trkpt>
      <trkpt lat="49.2902" lon="-0.03533">
        <ele>106</ele>
        <time>2023-12-06T13:26:35Z</time>
      </trkpt>
      <trkpt lat="49.29018" lon="-0.03529">
        <ele>106</ele>
        <time>2023-12-06T13:26:36Z</time>
      </trkpt>
      <trkpt lat="49.29017" lon="-0.03525">
        <ele>106.4</ele>
        <time>2023-12-06T13:26:37Z</time>
      </trkpt>
      <trkpt lat="49.29014" lon="-0.0352">
        <ele>106.6</ele>
        <time>2023-12-06T13:26:38Z</time>
      </trkpt>
      <trkpt lat="49.29012" lon="-0.03515">
        <ele>106.8</ele>
        <time>2023-12-06T13:26:39Z</time>
      </trkpt>
      <trkpt lat="49.29009" lon="-0.03511">
        <ele>107</ele>
        <time>2023-12-06T13:26:40Z</time>
      </trkpt>
      <trkpt lat="49.29007" lon="-0.03506">
        <ele>107.4</ele>
        <time>2023-12-06T13:26:41Z</time>
      </trkpt>
      <trkpt lat="49.29005" lon="-0.03502">
        <ele>107.6</ele>
        <time>2023-12-06T13:26:42Z</time>
      </trkpt>
      <trkpt lat="49.29003" lon="-0.03498">
        <ele>107.8</ele>
        <time>2023-12-06T13:26:43Z</time>
      </trkpt>
      <trkpt lat="49.29002" lon="-0.03493">
        <ele>108</ele>
        <time>2023-12-06T13:26:44Z</time>
      </trkpt>
      <trkpt lat="49.29" lon="-0.03489">
        <ele>108.2</ele>
        <time>2023-12-06T13:26:45Z</time>
      </trkpt>
      <trkpt lat="49.28998" lon="-0.03485">
        <ele>108.6</ele>
        <time>2023-12-06T13:26:46Z</time>
      </trkpt>
      <trkpt lat="49.28996" lon="-0.03481">
        <ele>108.8</ele>
        <time>2023-12-06T13:26:47Z</time>
      </trkpt>
      <trkpt lat="49.28993" lon="-0.03476">
        <ele>109.2</ele>
        <time>2023-12-06T13:26:48Z</time>
      </trkpt>
      <trkpt lat="49.28991" lon="-0.03472">
        <ele>109.4</ele>
        <time>2023-12-06T13:26:49Z</time>
      </trkpt>
      <trkpt lat="49.28989" lon="-0.03467">
        <ele>109.6</ele>
        <time>2023-12-06T13:26:50Z</time>
      </trkpt>
      <trkpt lat="49.28987" lon="-0.03464">
        <ele>109.8</ele>
        <time>2023-12-06T13:26:51Z</time>
      </trkpt>
      <trkpt lat="49.28985" lon="-0.03458">
        <ele>109.8</ele>
        <time>2023-12-06T13:26:52Z</time>
      </trkpt>
      <trkpt lat="49.28983" lon="-0.03454">
        <ele>110</ele>
        <time>2023-12-06T13:26:53Z</time>
      </trkpt>
      <trkpt lat="49.28982" lon="-0.03449">
        <ele>110</ele>
        <time>2023-12-06T13:26:54Z</time>
      </trkpt>
      <trkpt lat="49.2898" lon="-0.03444">
        <ele>110.2</ele>
        <time>2023-12-06T13:26:55Z</time>
      </trkpt>
      <trkpt lat="49.28978" lon="-0.0344">
        <ele>110.4</ele>
        <time>2023-12-06T13:26:56Z</time>
      </trkpt>
      <trkpt lat="49.28976" lon="-0.03435">
        <ele>110.6</ele>
        <time>2023-12-06T13:26:57Z</time>
      </trkpt>
      <trkpt lat="49.28974" lon="-0.03431">
        <ele>110.8</ele>
        <time>2023-12-06T13:26:58Z</time>
      </trkpt>
      <trkpt lat="49.28972" lon="-0.03425">
        <ele>110.8</ele>
        <time>2023-12-06T13:26:59Z</time>
      </trkpt>
      <trkpt lat="49.28971" lon="-0.0342">
        <ele>111</ele>
        <time>2023-12-06T13:27:00Z</time>
      </trkpt>
      <trkpt lat="49.2897" lon="-0.03415">
        <ele>111.2</ele>
        <time>2023-12-06T13:27:01Z</time>
      </trkpt>
      <trkpt lat="49.28969" lon="-0.03411">
        <ele>111.2</ele>
        <time>2023-12-06T13:27:02Z</time>
      </trkpt>
      <trkpt lat="49.28967" lon="-0.03406">
        <ele>111.4</ele>
        <time>2023-12-06T13:27:03Z</time>
      </trkpt>
      <trkpt lat="49.28965" lon="-0.034">
        <ele>111.6</ele>
        <time>2023-12-06T13:27:04Z</time>
      </trkpt>
      <trkpt lat="49.28964" lon="-0.03395">
        <ele>111.8</ele>
        <time>2023-12-06T13:27:05Z</time>
      </trkpt>
      <trkpt lat="49.28962" lon="-0.03389">
        <ele>112</ele>
        <time>2023-12-06T13:27:06Z</time>
      </trkpt>
      <trkpt lat="49.28961" lon="-0.03384">
        <ele>112.2</ele>
        <time>2023-12-06T13:27:07Z</time>
      </trkpt>
      <trkpt lat="49.2896" lon="-0.03379">
        <ele>112.4</ele>
        <time>2023-12-06T13:27:08Z</time>
      </trkpt>
      <trkpt lat="49.28958" lon="-0.03374">
        <ele>112.6</ele>
        <time>2023-12-06T13:27:09Z</time>
      </trkpt>
      <trkpt lat="49.28957" lon="-0.0337">
        <ele>112.8</ele>
        <time>2023-12-06T13:27:10Z</time>
      </trkpt>
      <trkpt lat="49.28955" lon="-0.03364">
        <ele>113</ele>
        <time>2023-12-06T13:27:11Z</time>
      </trkpt>
      <trkpt lat="49.28954" lon="-0.03359">
        <ele>113.4</ele>
        <time>2023-12-06T13:27:12Z</time>
      </trkpt>
      <trkpt lat="49.28952" lon="-0.03352">
        <ele>113.6</ele>
        <time>2023-12-06T13:27:13Z</time>
      </trkpt>
      <trkpt lat="49.28951" lon="-0.03347">
        <ele>113.8</ele>
        <time>2023-12-06T13:27:14Z</time>
      </trkpt>
      <trkpt lat="49.28949" lon="-0.03341">
        <ele>114</ele>
        <time>2023-12-06T13:27:15Z</time>
      </trkpt>
      <trkpt lat="49.28948" lon="-0.03336">
        <ele>114.2</ele>
        <time>2023-12-06T13:27:16Z</time>
      </trkpt>
      <trkpt lat="49.28946" lon="-0.03331">
        <ele>114.4</ele>
        <time>2023-12-06T13:27:17Z</time>
      </trkpt>
      <trkpt lat="49.28945" lon="-0.03327">
        <ele>114.6</ele>
        <time>2023-12-06T13:27:18Z</time>
      </trkpt>
      <trkpt lat="49.28944" lon="-0.0332">
        <ele>114.8</ele>
        <time>2023-12-06T13:27:19Z</time>
      </trkpt>
      <trkpt lat="49.28943" lon="-0.03315">
        <ele>115.2</ele>
        <time>2023-12-06T13:27:20Z</time>
      </trkpt>
      <trkpt lat="49.28942" lon="-0.03311">
        <ele>115.4</ele>
        <time>2023-12-06T13:27:21Z</time>
      </trkpt>
      <trkpt lat="49.2894" lon="-0.03305">
        <ele>115.4</ele>
        <time>2023-12-06T13:27:22Z</time>
      </trkpt>
      <trkpt lat="49.28938" lon="-0.03299">
        <ele>115.6</ele>
        <time>2023-12-06T13:27:23Z</time>
      </trkpt>
      <trkpt lat="49.28937" lon="-0.03294">
        <ele>115.8</ele>
        <time>2023-12-06T13:27:24Z</time>
      </trkpt>
      <trkpt lat="49.28936" lon="-0.03289">
        <ele>115.8</ele>
        <time>2023-12-06T13:27:25Z</time>
      </trkpt>
      <trkpt lat="49.28935" lon="-0.03284">
        <ele>116.2</ele>
        <time>2023-12-06T13:27:26Z</time>
      </trkpt>
      <trkpt lat="49.28934" lon="-0.03278">
        <ele>116.4</ele>
        <time>2023-12-06T13:27:27Z</time>
      </trkpt>
      <trkpt lat="49.28932" lon="-0.03272">
        <ele>116.8</ele>
        <time>2023-12-06T13:27:28Z</time>
      </trkpt>
      <trkpt lat="49.2893" lon="-0.03267">
        <ele>117</ele>
        <time>2023-12-06T13:27:29Z</time>
      </trkpt>
      <trkpt lat="49.28929" lon="-0.03263">
        <ele>117.2</ele>
        <time>2023-12-06T13:27:30Z</time>
      </trkpt>
      <trkpt lat="49.28928" lon="-0.03257">
        <ele>117.4</ele>
        <time>2023-12-06T13:27:31Z</time>
      </trkpt>
      <trkpt lat="49.28927" lon="-0.03251">
        <ele>117.4</ele>
        <time>2023-12-06T13:27:32Z</time>
      </trkpt>
      <trkpt lat="49.28926" lon="-0.03246">
        <ele>117.6</ele>
        <time>2023-12-06T13:27:33Z</time>
      </trkpt>
      <trkpt lat="49.28925" lon="-0.03241">
        <ele>117.6</ele>
        <time>2023-12-06T13:27:34Z</time>
      </trkpt>
      <trkpt lat="49.28924" lon="-0.03237">
        <ele>117.8</ele>
        <time>2023-12-06T13:27:35Z</time>
      </trkpt>
      <trkpt lat="49.28923" lon="-0.03232">
        <ele>118</ele>
        <time>2023-12-06T13:27:36Z</time>
      </trkpt>
      <trkpt lat="49.28921" lon="-0.03226">
        <ele>118.2</ele>
        <time>2023-12-06T13:27:37Z</time>
      </trkpt>
      <trkpt lat="49.2892" lon="-0.0322">
        <ele>118.4</ele>
        <time>2023-12-06T13:27:38Z</time>
      </trkpt>
      <trkpt lat="49.2892" lon="-0.03216">
        <ele>118.6</ele>
        <time>2023-12-06T13:27:39Z</time>
      </trkpt>
      <trkpt lat="49.28919" lon="-0.0321">
        <ele>118.8</ele>
        <time>2023-12-06T13:27:40Z</time>
      </trkpt>
      <trkpt lat="49.28918" lon="-0.03204">
        <ele>119</ele>
        <time>2023-12-06T13:27:41Z</time>
      </trkpt>
      <trkpt lat="49.28917" lon="-0.03199">
        <ele>119.2</ele>
        <time>2023-12-06T13:27:42Z</time>
      </trkpt>
      <trkpt lat="49.28916" lon="-0.03195">
        <ele>119.4</ele>
        <time>2023-12-06T13:27:43Z</time>
      </trkpt>
      <trkpt lat="49.28915" lon="-0.03189">
        <ele>119.4</ele>
        <time>2023-12-06T13:27:44Z</time>
      </trkpt>
      <trkpt lat="49.28915" lon="-0.03184">
        <ele>119.4</ele>
        <time>2023-12-06T13:27:45Z</time>
      </trkpt>
      <trkpt lat="49.28914" lon="-0.03179">
        <ele>119.6</ele>
        <time>2023-12-06T13:27:46Z</time>
      </trkpt>
      <trkpt lat="49.28913" lon="-0.03173">
        <ele>119.8</ele>
        <time>2023-12-06T13:27:47Z</time>
      </trkpt>
      <trkpt lat="49.28912" lon="-0.03168">
        <ele>120</ele>
        <time>2023-12-06T13:27:48Z</time>
      </trkpt>
      <trkpt lat="49.2891" lon="-0.03163">
        <ele>120.2</ele>
        <time>2023-12-06T13:27:49Z</time>
      </trkpt>
      <trkpt lat="49.28909" lon="-0.03158">
        <ele>120.4</ele>
        <time>2023-12-06T13:27:50Z</time>
      </trkpt>
      <trkpt lat="49.28908" lon="-0.03154">
        <ele>120.6</ele>
        <time>2023-12-06T13:27:51Z</time>
      </trkpt>
      <trkpt lat="49.28907" lon="-0.03149">
        <ele>120.8</ele>
        <time>2023-12-06T13:27:52Z</time>
      </trkpt>
      <trkpt lat="49.28906" lon="-0.03144">
        <ele>121</ele>
        <time>2023-12-06T13:27:53Z</time>
      </trkpt>
      <trkpt lat="49.28904" lon="-0.03138">
        <ele>121.2</ele>
        <time>2023-12-06T13:27:54Z</time>
      </trkpt>
      <trkpt lat="49.28903" lon="-0.03133">
        <ele>121.2</ele>
        <time>2023-12-06T13:27:55Z</time>
      </trkpt>
      <trkpt lat="49.28902" lon="-0.03129">
        <ele>121.4</ele>
        <time>2023-12-06T13:27:56Z</time>
      </trkpt>
      <trkpt lat="49.289" lon="-0.03124">
        <ele>121.6</ele>
        <time>2023-12-06T13:27:57Z</time>
      </trkpt>
      <trkpt lat="49.28899" lon="-0.03119">
        <ele>122</ele>
        <time>2023-12-06T13:27:58Z</time>
      </trkpt>
      <trkpt lat="49.28897" lon="-0.03114">
        <ele>122</ele>
        <time>2023-12-06T13:27:59Z</time>
      </trkpt>
      <trkpt lat="49.28896" lon="-0.03109">
        <ele>122.2</ele>
        <time>2023-12-06T13:28:00Z</time>
      </trkpt>
      <trkpt lat="49.28895" lon="-0.03104">
        <ele>122.4</ele>
        <time>2023-12-06T13:28:01Z</time>
      </trkpt>
      <trkpt lat="49.28893" lon="-0.031">
        <ele>122.4</ele>
        <time>2023-12-06T13:28:02Z</time>
      </trkpt>
      <trkpt lat="49.28892" lon="-0.03094">
        <ele>122.6</ele>
        <time>2023-12-06T13:28:03Z</time>
      </trkpt>
      <trkpt lat="49.2889" lon="-0.03089">
        <ele>122.6</ele>
        <time>2023-12-06T13:28:04Z</time>
      </trkpt>
      <trkpt lat="49.28889" lon="-0.03084">
        <ele>123</ele>
        <time>2023-12-06T13:28:05Z</time>
      </trkpt>
      <trkpt lat="49.28887" lon="-0.03079">
        <ele>123.2</ele>
        <time>2023-12-06T13:28:06Z</time>
      </trkpt>
      <trkpt lat="49.28886" lon="-0.03075">
        <ele>123.8</ele>
        <time>2023-12-06T13:28:07Z</time>
      </trkpt>
      <trkpt lat="49.28885" lon="-0.0307">
        <ele>124</ele>
        <time>2023-12-06T13:28:08Z</time>
      </trkpt>
      <trkpt lat="49.28883" lon="-0.03065">
        <ele>124.2</ele>
        <time>2023-12-06T13:28:09Z</time>
      </trkpt>
      <trkpt lat="49.28882" lon="-0.0306">
        <ele>124.4</ele>
        <time>2023-12-06T13:28:10Z</time>
      </trkpt>
      <trkpt lat="49.2888" lon="-0.03055">
        <ele>124.6</ele>
        <time>2023-12-06T13:28:11Z</time>
      </trkpt>
      <trkpt lat="49.28878" lon="-0.0305">
        <ele>124.8</ele>
        <time>2023-12-06T13:28:12Z</time>
      </trkpt>
      <trkpt lat="49.28877" lon="-0.03045">
        <ele>125.2</ele>
        <time>2023-12-06T13:28:13Z</time>
      </trkpt>
      <trkpt lat="49.28875" lon="-0.0304">
        <ele>125.4</ele>
        <time>2023-12-06T13:28:14Z</time>
      </trkpt>
      <trkpt lat="49.28874" lon="-0.03034">
        <ele>125.4</ele>
        <time>2023-12-06T13:28:15Z</time>
      </trkpt>
      <trkpt lat="49.28872" lon="-0.03029">
        <ele>125.6</ele>
        <time>2023-12-06T13:28:16Z</time>
      </trkpt>
      <trkpt lat="49.28871" lon="-0.03024">
        <ele>125.8</ele>
        <time>2023-12-06T13:28:17Z</time>
      </trkpt>
      <trkpt lat="49.28869" lon="-0.03019">
        <ele>126</ele>
        <time>2023-12-06T13:28:18Z</time>
      </trkpt>
      <trkpt lat="49.28868" lon="-0.03015">
        <ele>126.2</ele>
        <time>2023-12-06T13:28:19Z</time>
      </trkpt>
      <trkpt lat="49.28866" lon="-0.03009">
        <ele>126.2</ele>
        <time>2023-12-06T13:28:20Z</time>
      </trkpt>
      <trkpt lat="49.28865" lon="-0.03005">
        <ele>126.4</ele>
        <time>2023-12-06T13:28:21Z</time>
      </trkpt>
      <trkpt lat="49.28863" lon="-0.02999">
        <ele>126.6</ele>
        <time>2023-12-06T13:28:22Z</time>
      </trkpt>
      <trkpt lat="49.28862" lon="-0.02994">
        <ele>126.6</ele>
        <time>2023-12-06T13:28:23Z</time>
      </trkpt>
      <trkpt lat="49.2886" lon="-0.02988">
        <ele>126.8</ele>
        <time>2023-12-06T13:28:24Z</time>
      </trkpt>
      <trkpt lat="49.28858" lon="-0.02984">
        <ele>126.8</ele>
        <time>2023-12-06T13:28:25Z</time>
      </trkpt>
      <trkpt lat="49.28856" lon="-0.02978">
        <ele>127</ele>
        <time>2023-12-06T13:28:26Z</time>
      </trkpt>
      <trkpt lat="49.28855" lon="-0.02973">
        <ele>127.2</ele>
        <time>2023-12-06T13:28:27Z</time>
      </trkpt>
      <trkpt lat="49.28854" lon="-0.02968">
        <ele>127.2</ele>
        <time>2023-12-06T13:28:28Z</time>
      </trkpt>
      <trkpt lat="49.28852" lon="-0.02963">
        <ele>127.4</ele>
        <time>2023-12-06T13:28:29Z</time>
      </trkpt>
      <trkpt lat="49.28851" lon="-0.02957">
        <ele>127.6</ele>
        <time>2023-12-06T13:28:30Z</time>
      </trkpt>
      <trkpt lat="49.28849" lon="-0.02952">
        <ele>127.6</ele>
        <time>2023-12-06T13:28:31Z</time>
      </trkpt>
      <trkpt lat="49.28847" lon="-0.02945">
        <ele>127.8</ele>
        <time>2023-12-06T13:28:32Z</time>
      </trkpt>
      <trkpt lat="49.28845" lon="-0.02939">
        <ele>127.8</ele>
        <time>2023-12-06T13:28:33Z</time>
      </trkpt>
      <trkpt lat="49.28843" lon="-0.02935">
        <ele>128</ele>
        <time>2023-12-06T13:28:34Z</time>
      </trkpt>
      <trkpt lat="49.28841" lon="-0.02929">
        <ele>128</ele>
        <time>2023-12-06T13:28:35Z</time>
      </trkpt>
      <trkpt lat="49.28839" lon="-0.02922">
        <ele>128.2</ele>
        <time>2023-12-06T13:28:36Z</time>
      </trkpt>
      <trkpt lat="49.28838" lon="-0.02917">
        <ele>128.4</ele>
        <time>2023-12-06T13:28:37Z</time>
      </trkpt>
      <trkpt lat="49.28836" lon="-0.0291">
        <ele>128.6</ele>
        <time>2023-12-06T13:28:38Z</time>
      </trkpt>
      <trkpt lat="49.28834" lon="-0.02905">
        <ele>128.6</ele>
        <time>2023-12-06T13:28:39Z</time>
      </trkpt>
      <trkpt lat="49.28832" lon="-0.02899">
        <ele>128.8</ele>
        <time>2023-12-06T13:28:40Z</time>
      </trkpt>
      <trkpt lat="49.2883" lon="-0.02892">
        <ele>129</ele>
        <time>2023-12-06T13:28:41Z</time>
      </trkpt>
      <trkpt lat="49.28828" lon="-0.02886">
        <ele>129</ele>
        <time>2023-12-06T13:28:42Z</time>
      </trkpt>
      <trkpt lat="49.28827" lon="-0.02881">
        <ele>129.2</ele>
        <time>2023-12-06T13:28:43Z</time>
      </trkpt>
      <trkpt lat="49.28825" lon="-0.02874">
        <ele>129.2</ele>
        <time>2023-12-06T13:28:44Z</time>
      </trkpt>
      <trkpt lat="49.28823" lon="-0.02868">
        <ele>129.4</ele>
        <time>2023-12-06T13:28:45Z</time>
      </trkpt>
      <trkpt lat="49.28822" lon="-0.02862">
        <ele>129.4</ele>
        <time>2023-12-06T13:28:46Z</time>
      </trkpt>
      <trkpt lat="49.2882" lon="-0.02856">
        <ele>129.6</ele>
        <time>2023-12-06T13:28:47Z</time>
      </trkpt>
      <trkpt lat="49.28818" lon="-0.0285">
        <ele>129.6</ele>
        <time>2023-12-06T13:28:48Z</time>
      </trkpt>
      <trkpt lat="49.28815" lon="-0.02844">
        <ele>129.8</ele>
        <time>2023-12-06T13:28:49Z</time>
      </trkpt>
      <trkpt lat="49.28813" lon="-0.02839">
        <ele>129.8</ele>
        <time>2023-12-06T13:28:50Z</time>
      </trkpt>
      <trkpt lat="49.2881" lon="-0.02831">
        <ele>130</ele>
        <time>2023-12-06T13:28:51Z</time>
      </trkpt>
      <trkpt lat="49.28808" lon="-0.02824">
        <ele>130</ele>
        <time>2023-12-06T13:28:52Z</time>
      </trkpt>
      <trkpt lat="49.28806" lon="-0.02818">
        <ele>130</ele>
        <time>2023-12-06T13:28:53Z</time>
      </trkpt>
      <trkpt lat="49.28804" lon="-0.02811">
        <ele>130.2</ele>
        <time>2023-12-06T13:28:54Z</time>
      </trkpt>
      <trkpt lat="49.28802" lon="-0.02805">
        <ele>130.4</ele>
        <time>2023-12-06T13:28:55Z</time>
      </trkpt>
      <trkpt lat="49.288" lon="-0.02798">
        <ele>130.4</ele>
        <time>2023-12-06T13:28:56Z</time>
      </trkpt>
      <trkpt lat="49.28798" lon="-0.02792">
        <ele>130.6</ele>
        <time>2023-12-06T13:28:57Z</time>
      </trkpt>
      <trkpt lat="49.28796" lon="-0.02785">
        <ele>130.8</ele>
        <time>2023-12-06T13:28:58Z</time>
      </trkpt>
      <trkpt lat="49.28794" lon="-0.02779">
        <ele>131</ele>
        <time>2023-12-06T13:28:59Z</time>
      </trkpt>
      <trkpt lat="49.28792" lon="-0.02772">
        <ele>131.2</ele>
        <time>2023-12-06T13:29:00Z</time>
      </trkpt>
      <trkpt lat="49.28789" lon="-0.02766">
        <ele>131.2</ele>
        <time>2023-12-06T13:29:01Z</time>
      </trkpt>
      <trkpt lat="49.28787" lon="-0.02759">
        <ele>131.2</ele>
        <time>2023-12-06T13:29:02Z</time>
      </trkpt>
      <trkpt lat="49.28785" lon="-0.02752">
        <ele>131.2</ele>
        <time>2023-12-06T13:29:03Z</time>
      </trkpt>
      <trkpt lat="49.28782" lon="-0.02745">
        <ele>131.4</ele>
        <time>2023-12-06T13:29:04Z</time>
      </trkpt>
      <trkpt lat="49.2878" lon="-0.02738">
        <ele>131.4</ele>
        <time>2023-12-06T13:29:05Z</time>
      </trkpt>
      <trkpt lat="49.28778" lon="-0.02731">
        <ele>131.4</ele>
        <time>2023-12-06T13:29:06Z</time>
      </trkpt>
      <trkpt lat="49.28776" lon="-0.02723">
        <ele>131.4</ele>
        <time>2023-12-06T13:29:07Z</time>
      </trkpt>
      <trkpt lat="49.28774" lon="-0.02718">
        <ele>131.4</ele>
        <time>2023-12-06T13:29:08Z</time>
      </trkpt>
      <trkpt lat="49.28771" lon="-0.02709">
        <ele>131.4</ele>
        <time>2023-12-06T13:29:09Z</time>
      </trkpt>
      <trkpt lat="49.28769" lon="-0.02703">
        <ele>131.6</ele>
        <time>2023-12-06T13:29:10Z</time>
      </trkpt>
      <trkpt lat="49.28767" lon="-0.02696">
        <ele>131.6</ele>
        <time>2023-12-06T13:29:11Z</time>
      </trkpt>
      <trkpt lat="49.28765" lon="-0.02688">
        <ele>131.8</ele>
        <time>2023-12-06T13:29:12Z</time>
      </trkpt>
      <trkpt lat="49.28763" lon="-0.02681">
        <ele>132</ele>
        <time>2023-12-06T13:29:13Z</time>
      </trkpt>
      <trkpt lat="49.2876" lon="-0.02674">
        <ele>132.2</ele>
        <time>2023-12-06T13:29:14Z</time>
      </trkpt>
      <trkpt lat="49.28758" lon="-0.02665">
        <ele>132.2</ele>
        <time>2023-12-06T13:29:15Z</time>
      </trkpt>
      <trkpt lat="49.28755" lon="-0.02657">
        <ele>132.4</ele>
        <time>2023-12-06T13:29:16Z</time>
      </trkpt>
      <trkpt lat="49.28754" lon="-0.02651">
        <ele>132.4</ele>
        <time>2023-12-06T13:29:17Z</time>
      </trkpt>
      <trkpt lat="49.28751" lon="-0.02643">
        <ele>132.4</ele>
        <time>2023-12-06T13:29:18Z</time>
      </trkpt>
      <trkpt lat="49.28749" lon="-0.02636">
        <ele>132.4</ele>
        <time>2023-12-06T13:29:19Z</time>
      </trkpt>
      <trkpt lat="49.28747" lon="-0.02628">
        <ele>132.6</ele>
        <time>2023-12-06T13:29:20Z</time>
      </trkpt>
      <trkpt lat="49.28744" lon="-0.02619">
        <ele>132.6</ele>
        <time>2023-12-06T13:29:21Z</time>
      </trkpt>
      <trkpt lat="49.28742" lon="-0.02613">
        <ele>132.8</ele>
        <time>2023-12-06T13:29:22Z</time>
      </trkpt>
      <trkpt lat="49.2874" lon="-0.02606">
        <ele>133</ele>
        <time>2023-12-06T13:29:23Z</time>
      </trkpt>
      <trkpt lat="49.28737" lon="-0.02597">
        <ele>133</ele>
        <time>2023-12-06T13:29:24Z</time>
      </trkpt>
      <trkpt lat="49.28734" lon="-0.0259">
        <ele>133.2</ele>
        <time>2023-12-06T13:29:25Z</time>
      </trkpt>
      <trkpt lat="49.28733" lon="-0.02584">
        <ele>133.2</ele>
        <time>2023-12-06T13:29:26Z</time>
      </trkpt>
      <trkpt lat="49.2873" lon="-0.02576">
        <ele>133.4</ele>
        <time>2023-12-06T13:29:27Z</time>
      </trkpt>
      <trkpt lat="49.28728" lon="-0.02567">
        <ele>133.4</ele>
        <time>2023-12-06T13:29:28Z</time>
      </trkpt>
      <trkpt lat="49.28725" lon="-0.02561">
        <ele>133.6</ele>
        <time>2023-12-06T13:29:29Z</time>
      </trkpt>
      <trkpt lat="49.28723" lon="-0.02552">
        <ele>133.6</ele>
        <time>2023-12-06T13:29:30Z</time>
      </trkpt>
      <trkpt lat="49.2872" lon="-0.02545">
        <ele>133.8</ele>
        <time>2023-12-06T13:29:31Z</time>
      </trkpt>
      <trkpt lat="49.28719" lon="-0.02539">
        <ele>133.8</ele>
        <time>2023-12-06T13:29:32Z</time>
      </trkpt>
      <trkpt lat="49.28716" lon="-0.02531">
        <ele>134</ele>
        <time>2023-12-06T13:29:33Z</time>
      </trkpt>
      <trkpt lat="49.28713" lon="-0.02522">
        <ele>134</ele>
        <time>2023-12-06T13:29:34Z</time>
      </trkpt>
      <trkpt lat="49.28712" lon="-0.02516">
        <ele>134</ele>
        <time>2023-12-06T13:29:35Z</time>
      </trkpt>
      <trkpt lat="49.28709" lon="-0.02507">
        <ele>134</ele>
        <time>2023-12-06T13:29:36Z</time>
      </trkpt>
      <trkpt lat="49.28707" lon="-0.02499">
        <ele>134.2</ele>
        <time>2023-12-06T13:29:37Z</time>
      </trkpt>
      <trkpt lat="49.28704" lon="-0.02492">
        <ele>134.2</ele>
        <time>2023-12-06T13:29:38Z</time>
      </trkpt>
      <trkpt lat="49.28702" lon="-0.02484">
        <ele>134.4</ele>
        <time>2023-12-06T13:29:39Z</time>
      </trkpt>
      <trkpt lat="49.287" lon="-0.02477">
        <ele>134.4</ele>
        <time>2023-12-06T13:29:40Z</time>
      </trkpt>
      <trkpt lat="49.28698" lon="-0.0247">
        <ele>134.6</ele>
        <time>2023-12-06T13:29:41Z</time>
      </trkpt>
      <trkpt lat="49.28696" lon="-0.02463">
        <ele>134.6</ele>
        <time>2023-12-06T13:29:42Z</time>
      </trkpt>
      <trkpt lat="49.28694" lon="-0.02457">
        <ele>134.8</ele>
        <time>2023-12-06T13:29:43Z</time>
      </trkpt>
      <trkpt lat="49.28692" lon="-0.02449">
        <ele>134.8</ele>
        <time>2023-12-06T13:29:44Z</time>
      </trkpt>
      <trkpt lat="49.28689" lon="-0.0244">
        <ele>135</ele>
        <time>2023-12-06T13:29:45Z</time>
      </trkpt>
      <trkpt lat="49.28687" lon="-0.02432">
        <ele>135</ele>
        <time>2023-12-06T13:29:46Z</time>
      </trkpt>
      <trkpt lat="49.28685" lon="-0.02426">
        <ele>135.2</ele>
        <time>2023-12-06T13:29:47Z</time>
      </trkpt>
      <trkpt lat="49.28682" lon="-0.02416">
        <ele>135.2</ele>
        <time>2023-12-06T13:29:48Z</time>
      </trkpt>
      <trkpt lat="49.2868" lon="-0.02408">
        <ele>135.4</ele>
        <time>2023-12-06T13:29:49Z</time>
      </trkpt>
      <trkpt lat="49.28679" lon="-0.02401">
        <ele>135.4</ele>
        <time>2023-12-06T13:29:50Z</time>
      </trkpt>
      <trkpt lat="49.28676" lon="-0.02393">
        <ele>135.4</ele>
        <time>2023-12-06T13:29:51Z</time>
      </trkpt>
      <trkpt lat="49.28674" lon="-0.02385">
        <ele>135.4</ele>
        <time>2023-12-06T13:29:52Z</time>
      </trkpt>
      <trkpt lat="49.28671" lon="-0.02375">
        <ele>135.4</ele>
        <time>2023-12-06T13:29:53Z</time>
      </trkpt>
      <trkpt lat="49.2867" lon="-0.02368">
        <ele>135.6</ele>
        <time>2023-12-06T13:29:54Z</time>
      </trkpt>
      <trkpt lat="49.28667" lon="-0.0236">
        <ele>135.6</ele>
        <time>2023-12-06T13:29:55Z</time>
      </trkpt>
      <trkpt lat="49.28665" lon="-0.02352">
        <ele>135.6</ele>
        <time>2023-12-06T13:29:56Z</time>
      </trkpt>
      <trkpt lat="49.28662" lon="-0.02342">
        <ele>135.6</ele>
        <time>2023-12-06T13:29:57Z</time>
      </trkpt>
      <trkpt lat="49.28659" lon="-0.02334">
        <ele>135.8</ele>
        <time>2023-12-06T13:29:58Z</time>
      </trkpt>
      <trkpt lat="49.28657" lon="-0.02327">
        <ele>135.8</ele>
        <time>2023-12-06T13:29:59Z</time>
      </trkpt>
      <trkpt lat="49.28655" lon="-0.02319">
        <ele>135.8</ele>
        <time>2023-12-06T13:30:00Z</time>
      </trkpt>
      <trkpt lat="49.28652" lon="-0.0231">
        <ele>135.8</ele>
        <time>2023-12-06T13:30:01Z</time>
      </trkpt>
      <trkpt lat="49.2865" lon="-0.02303">
        <ele>135.8</ele>
        <time>2023-12-06T13:30:02Z</time>
      </trkpt>
      <trkpt lat="49.28647" lon="-0.02295">
        <ele>136</ele>
        <time>2023-12-06T13:30:03Z</time>
      </trkpt>
      <trkpt lat="49.28644" lon="-0.02286">
        <ele>136</ele>
        <time>2023-12-06T13:30:04Z</time>
      </trkpt>
      <trkpt lat="49.28642" lon="-0.02279">
        <ele>136</ele>
        <time>2023-12-06T13:30:05Z</time>
      </trkpt>
      <trkpt lat="49.28639" lon="-0.0227">
        <ele>136</ele>
        <time>2023-12-06T13:30:06Z</time>
      </trkpt>
      <trkpt lat="49.28636" lon="-0.02262">
        <ele>136</ele>
        <time>2023-12-06T13:30:07Z</time>
      </trkpt>
      <trkpt lat="49.28633" lon="-0.02253">
        <ele>136</ele>
        <time>2023-12-06T13:30:08Z</time>
      </trkpt>
      <trkpt lat="49.2863" lon="-0.02245">
        <ele>136</ele>
        <time>2023-12-06T13:30:09Z</time>
      </trkpt>
      <trkpt lat="49.28628" lon="-0.02238">
        <ele>136.2</ele>
        <time>2023-12-06T13:30:10Z</time>
      </trkpt>
      <trkpt lat="49.28626" lon="-0.02232">
        <ele>136.2</ele>
        <time>2023-12-06T13:30:11Z</time>
      </trkpt>
      <trkpt lat="49.28622" lon="-0.02223">
        <ele>136.2</ele>
        <time>2023-12-06T13:30:12Z</time>
      </trkpt>
      <trkpt lat="49.2862" lon="-0.02217">
        <ele>136.2</ele>
        <time>2023-12-06T13:30:13Z</time>
      </trkpt>
      <trkpt lat="49.28616" lon="-0.0221">
        <ele>136.2</ele>
        <time>2023-12-06T13:30:14Z</time>
      </trkpt>
      <trkpt lat="49.28613" lon="-0.02202">
        <ele>136.2</ele>
        <time>2023-12-06T13:30:15Z</time>
      </trkpt>
      <trkpt lat="49.28609" lon="-0.02195">
        <ele>136.2</ele>
        <time>2023-12-06T13:30:16Z</time>
      </trkpt>
      <trkpt lat="49.28605" lon="-0.02186">
        <ele>136.2</ele>
        <time>2023-12-06T13:30:17Z</time>
      </trkpt>
      <trkpt lat="49.28601" lon="-0.02179">
        <ele>136.2</ele>
        <time>2023-12-06T13:30:18Z</time>
      </trkpt>
      <trkpt lat="49.28598" lon="-0.02173">
        <ele>136.2</ele>
        <time>2023-12-06T13:30:19Z</time>
      </trkpt>
      <trkpt lat="49.28593" lon="-0.02164">
        <ele>136.2</ele>
        <time>2023-12-06T13:30:20Z</time>
      </trkpt>
      <trkpt lat="49.2859" lon="-0.02158">
        <ele>136.2</ele>
        <time>2023-12-06T13:30:21Z</time>
      </trkpt>
      <trkpt lat="49.28586" lon="-0.02149">
        <ele>136.2</ele>
        <time>2023-12-06T13:30:22Z</time>
      </trkpt>
      <trkpt lat="49.28582" lon="-0.02141">
        <ele>136.2</ele>
        <time>2023-12-06T13:30:23Z</time>
      </trkpt>
      <trkpt lat="49.28579" lon="-0.02135">
        <ele>136.4</ele>
        <time>2023-12-06T13:30:24Z</time>
      </trkpt>
      <trkpt lat="49.28574" lon="-0.02126">
        <ele>136.4</ele>
        <time>2023-12-06T13:30:25Z</time>
      </trkpt>
      <trkpt lat="49.28571" lon="-0.02119">
        <ele>136.6</ele>
        <time>2023-12-06T13:30:26Z</time>
      </trkpt>
      <trkpt lat="49.28568" lon="-0.02113">
        <ele>136.8</ele>
        <time>2023-12-06T13:30:27Z</time>
      </trkpt>
      <trkpt lat="49.28564" lon="-0.02104">
        <ele>136.8</ele>
        <time>2023-12-06T13:30:28Z</time>
      </trkpt>
      <trkpt lat="49.28561" lon="-0.02099">
        <ele>136.8</ele>
        <time>2023-12-06T13:30:29Z</time>
      </trkpt>
      <trkpt lat="49.28558" lon="-0.02091">
        <ele>137</ele>
        <time>2023-12-06T13:30:30Z</time>
      </trkpt>
      <trkpt lat="49.28555" lon="-0.02084">
        <ele>137</ele>
        <time>2023-12-06T13:30:31Z</time>
      </trkpt>
      <trkpt lat="49.28552" lon="-0.02076">
        <ele>137</ele>
        <time>2023-12-06T13:30:32Z</time>
      </trkpt>
      <trkpt lat="49.28549" lon="-0.02068">
        <ele>137.2</ele>
        <time>2023-12-06T13:30:33Z</time>
      </trkpt>
      <trkpt lat="49.28546" lon="-0.02061">
        <ele>137.2</ele>
        <time>2023-12-06T13:30:34Z</time>
      </trkpt>
      <trkpt lat="49.28542" lon="-0.02053">
        <ele>137.4</ele>
        <time>2023-12-06T13:30:35Z</time>
      </trkpt>
      <trkpt lat="49.28539" lon="-0.02045">
        <ele>137.4</ele>
        <time>2023-12-06T13:30:36Z</time>
      </trkpt>
      <trkpt lat="49.28535" lon="-0.02038">
        <ele>137.4</ele>
        <time>2023-12-06T13:30:37Z</time>
      </trkpt>
      <trkpt lat="49.28532" lon="-0.0203">
        <ele>137.6</ele>
        <time>2023-12-06T13:30:38Z</time>
      </trkpt>
      <trkpt lat="49.28528" lon="-0.02023">
        <ele>137.6</ele>
        <time>2023-12-06T13:30:39Z</time>
      </trkpt>
      <trkpt lat="49.28525" lon="-0.02015">
        <ele>137.8</ele>
        <time>2023-12-06T13:30:40Z</time>
      </trkpt>
      <trkpt lat="49.28521" lon="-0.02008">
        <ele>138</ele>
        <time>2023-12-06T13:30:41Z</time>
      </trkpt>
      <trkpt lat="49.28518" lon="-0.02">
        <ele>138</ele>
        <time>2023-12-06T13:30:42Z</time>
      </trkpt>
      <trkpt lat="49.28515" lon="-0.01992">
        <ele>138</ele>
        <time>2023-12-06T13:30:43Z</time>
      </trkpt>
      <trkpt lat="49.28511" lon="-0.01984">
        <ele>138.2</ele>
        <time>2023-12-06T13:30:44Z</time>
      </trkpt>
      <trkpt lat="49.28508" lon="-0.01976">
        <ele>138.2</ele>
        <time>2023-12-06T13:30:45Z</time>
      </trkpt>
      <trkpt lat="49.28505" lon="-0.01968">
        <ele>138.2</ele>
        <time>2023-12-06T13:30:46Z</time>
      </trkpt>
      <trkpt lat="49.28502" lon="-0.0196">
        <ele>138.2</ele>
        <time>2023-12-06T13:30:47Z</time>
      </trkpt>
      <trkpt lat="49.28499" lon="-0.01952">
        <ele>138.2</ele>
        <time>2023-12-06T13:30:48Z</time>
      </trkpt>
      <trkpt lat="49.28496" lon="-0.01944">
        <ele>138.2</ele>
        <time>2023-12-06T13:30:49Z</time>
      </trkpt>
      <trkpt lat="49.28493" lon="-0.01937">
        <ele>138.2</ele>
        <time>2023-12-06T13:30:50Z</time>
      </trkpt>
      <trkpt lat="49.28489" lon="-0.01929">
        <ele>138.2</ele>
        <time>2023-12-06T13:30:51Z</time>
      </trkpt>
      <trkpt lat="49.28486" lon="-0.01922">
        <ele>138.2</ele>
        <time>2023-12-06T13:30:52Z</time>
      </trkpt>
      <trkpt lat="49.28482" lon="-0.01914">
        <ele>138.4</ele>
        <time>2023-12-06T13:30:53Z</time>
      </trkpt>
      <trkpt lat="49.28479" lon="-0.01907">
        <ele>138.4</ele>
        <time>2023-12-06T13:30:54Z</time>
      </trkpt>
      <trkpt lat="49.28475" lon="-0.019">
        <ele>138.4</ele>
        <time>2023-12-06T13:30:55Z</time>
      </trkpt>
      <trkpt lat="49.28472" lon="-0.01894">
        <ele>138.4</ele>
        <time>2023-12-06T13:30:56Z</time>
      </trkpt>
      <trkpt lat="49.28468" lon="-0.01887">
        <ele>138.4</ele>
        <time>2023-12-06T13:30:57Z</time>
      </trkpt>
      <trkpt lat="49.28464" lon="-0.0188">
        <ele>138.4</ele>
        <time>2023-12-06T13:30:58Z</time>
      </trkpt>
      <trkpt lat="49.28461" lon="-0.01873">
        <ele>138.6</ele>
        <time>2023-12-06T13:30:59Z</time>
      </trkpt>
      <trkpt lat="49.28457" lon="-0.01867">
        <ele>138.6</ele>
        <time>2023-12-06T13:31:00Z</time>
      </trkpt>
      <trkpt lat="49.28452" lon="-0.0186">
        <ele>138.6</ele>
        <time>2023-12-06T13:31:01Z</time>
      </trkpt>
      <trkpt lat="49.28448" lon="-0.01854">
        <ele>138.6</ele>
        <time>2023-12-06T13:31:02Z</time>
      </trkpt>
      <trkpt lat="49.28444" lon="-0.01848">
        <ele>138.8</ele>
        <time>2023-12-06T13:31:03Z</time>
      </trkpt>
      <trkpt lat="49.2844" lon="-0.01841">
        <ele>139</ele>
        <time>2023-12-06T13:31:04Z</time>
      </trkpt>
      <trkpt lat="49.28436" lon="-0.01835">
        <ele>139</ele>
        <time>2023-12-06T13:31:05Z</time>
      </trkpt>
      <trkpt lat="49.28432" lon="-0.01828">
        <ele>139.2</ele>
        <time>2023-12-06T13:31:06Z</time>
      </trkpt>
      <trkpt lat="49.28427" lon="-0.01821">
        <ele>139.4</ele>
        <time>2023-12-06T13:31:07Z</time>
      </trkpt>
      <trkpt lat="49.28424" lon="-0.01814">
        <ele>139.6</ele>
        <time>2023-12-06T13:31:08Z</time>
      </trkpt>
      <trkpt lat="49.2842" lon="-0.01807">
        <ele>139.8</ele>
        <time>2023-12-06T13:31:09Z</time>
      </trkpt>
      <trkpt lat="49.28415" lon="-0.018">
        <ele>140</ele>
        <time>2023-12-06T13:31:10Z</time>
      </trkpt>
      <trkpt lat="49.28411" lon="-0.01793">
        <ele>140.2</ele>
        <time>2023-12-06T13:31:11Z</time>
      </trkpt>
      <trkpt lat="49.28407" lon="-0.01786">
        <ele>140.2</ele>
        <time>2023-12-06T13:31:12Z</time>
      </trkpt>
      <trkpt lat="49.28403" lon="-0.01778">
        <ele>140.2</ele>
        <time>2023-12-06T13:31:13Z</time>
      </trkpt>
      <trkpt lat="49.284" lon="-0.01771">
        <ele>140.2</ele>
        <time>2023-12-06T13:31:14Z</time>
      </trkpt>
      <trkpt lat="49.28396" lon="-0.01763">
        <ele>140.4</ele>
        <time>2023-12-06T13:31:15Z</time>
      </trkpt>
      <trkpt lat="49.28393" lon="-0.01756">
        <ele>140.4</ele>
        <time>2023-12-06T13:31:16Z</time>
      </trkpt>
      <trkpt lat="49.2839" lon="-0.01748">
        <ele>140.6</ele>
        <time>2023-12-06T13:31:17Z</time>
      </trkpt>
      <trkpt lat="49.28387" lon="-0.0174">
        <ele>140.6</ele>
        <time>2023-12-06T13:31:18Z</time>
      </trkpt>
      <trkpt lat="49.28384" lon="-0.01732">
        <ele>140.8</ele>
        <time>2023-12-06T13:31:19Z</time>
      </trkpt>
      <trkpt lat="49.28381" lon="-0.01724">
        <ele>140.8</ele>
        <time>2023-12-06T13:31:20Z</time>
      </trkpt>
      <trkpt lat="49.28379" lon="-0.01716">
        <ele>140.8</ele>
        <time>2023-12-06T13:31:21Z</time>
      </trkpt>
      <trkpt lat="49.28377" lon="-0.01708">
        <ele>141</ele>
        <time>2023-12-06T13:31:22Z</time>
      </trkpt>
      <trkpt lat="49.28375" lon="-0.017">
        <ele>141</ele>
        <time>2023-12-06T13:31:23Z</time>
      </trkpt>
      <trkpt lat="49.28373" lon="-0.01692">
        <ele>141.2</ele>
        <time>2023-12-06T13:31:24Z</time>
      </trkpt>
      <trkpt lat="49.28371" lon="-0.01683">
        <ele>141.2</ele>
        <time>2023-12-06T13:31:25Z</time>
      </trkpt>
      <trkpt lat="49.28368" lon="-0.01675">
        <ele>141.2</ele>
        <time>2023-12-06T13:31:26Z</time>
      </trkpt>
      <trkpt lat="49.28366" lon="-0.01667">
        <ele>141.2</ele>
        <time>2023-12-06T13:31:27Z</time>
      </trkpt>
      <trkpt lat="49.28364" lon="-0.01659">
        <ele>141.2</ele>
        <time>2023-12-06T13:31:28Z</time>
      </trkpt>
      <trkpt lat="49.28362" lon="-0.01652">
        <ele>141.2</ele>
        <time>2023-12-06T13:31:29Z</time>
      </trkpt>
      <trkpt lat="49.2836" lon="-0.01644">
        <ele>141.2</ele>
        <time>2023-12-06T13:31:30Z</time>
      </trkpt>
      <trkpt lat="49.28358" lon="-0.01637">
        <ele>141.4</ele>
        <time>2023-12-06T13:31:31Z</time>
      </trkpt>
      <trkpt lat="49.28356" lon="-0.0163">
        <ele>141.4</ele>
        <time>2023-12-06T13:31:32Z</time>
      </trkpt>
      <trkpt lat="49.28354" lon="-0.01622">
        <ele>141.4</ele>
        <time>2023-12-06T13:31:33Z</time>
      </trkpt>
      <trkpt lat="49.28352" lon="-0.01615">
        <ele>141.4</ele>
        <time>2023-12-06T13:31:34Z</time>
      </trkpt>
      <trkpt lat="49.28349" lon="-0.01608">
        <ele>141.4</ele>
        <time>2023-12-06T13:31:35Z</time>
      </trkpt>
      <trkpt lat="49.28347" lon="-0.016">
        <ele>141.4</ele>
        <time>2023-12-06T13:31:36Z</time>
      </trkpt>
      <trkpt lat="49.28345" lon="-0.01593">
        <ele>141.4</ele>
        <time>2023-12-06T13:31:37Z</time>
      </trkpt>
      <trkpt lat="49.28342" lon="-0.01586">
        <ele>141.6</ele>
        <time>2023-12-06T13:31:38Z</time>
      </trkpt>
      <trkpt lat="49.2834" lon="-0.01579">
        <ele>141.6</ele>
        <time>2023-12-06T13:31:39Z</time>
      </trkpt>
      <trkpt lat="49.28337" lon="-0.01572">
        <ele>141.8</ele>
        <time>2023-12-06T13:31:40Z</time>
      </trkpt>
      <trkpt lat="49.28334" lon="-0.01565">
        <ele>142</ele>
        <time>2023-12-06T13:31:41Z</time>
      </trkpt>
      <trkpt lat="49.28331" lon="-0.01558">
        <ele>142.2</ele>
        <time>2023-12-06T13:31:42Z</time>
      </trkpt>
      <trkpt lat="49.28328" lon="-0.01551">
        <ele>142.4</ele>
        <time>2023-12-06T13:31:43Z</time>
      </trkpt>
      <trkpt lat="49.28326" lon="-0.01543">
        <ele>142.8</ele>
        <time>2023-12-06T13:31:44Z</time>
      </trkpt>
      <trkpt lat="49.28323" lon="-0.01536">
        <ele>143</ele>
        <time>2023-12-06T13:31:45Z</time>
      </trkpt>
      <trkpt lat="49.2832" lon="-0.01529">
        <ele>143.2</ele>
        <time>2023-12-06T13:31:46Z</time>
      </trkpt>
      <trkpt lat="49.28317" lon="-0.01522">
        <ele>143.4</ele>
        <time>2023-12-06T13:31:47Z</time>
      </trkpt>
      <trkpt lat="49.28314" lon="-0.01515">
        <ele>143.6</ele>
        <time>2023-12-06T13:31:48Z</time>
      </trkpt>
      <trkpt lat="49.28312" lon="-0.01507">
        <ele>143.6</ele>
        <time>2023-12-06T13:31:49Z</time>
      </trkpt>
      <trkpt lat="49.28309" lon="-0.015">
        <ele>143.8</ele>
        <time>2023-12-06T13:31:50Z</time>
      </trkpt>
      <trkpt lat="49.28306" lon="-0.01493">
        <ele>144</ele>
        <time>2023-12-06T13:31:51Z</time>
      </trkpt>
      <trkpt lat="49.28303" lon="-0.01486">
        <ele>144</ele>
        <time>2023-12-06T13:31:52Z</time>
      </trkpt>
      <trkpt lat="49.283" lon="-0.01478">
        <ele>144</ele>
        <time>2023-12-06T13:31:53Z</time>
      </trkpt>
      <trkpt lat="49.28297" lon="-0.01471">
        <ele>144</ele>
        <time>2023-12-06T13:31:54Z</time>
      </trkpt>
      <trkpt lat="49.28294" lon="-0.01464">
        <ele>144.2</ele>
        <time>2023-12-06T13:31:55Z</time>
      </trkpt>
      <trkpt lat="49.28291" lon="-0.01457">
        <ele>144.2</ele>
        <time>2023-12-06T13:31:56Z</time>
      </trkpt>
      <trkpt lat="49.28289" lon="-0.0145">
        <ele>144.2</ele>
        <time>2023-12-06T13:31:57Z</time>
      </trkpt>
      <trkpt lat="49.28286" lon="-0.01444">
        <ele>144.2</ele>
        <time>2023-12-06T13:31:58Z</time>
      </trkpt>
      <trkpt lat="49.28284" lon="-0.01437">
        <ele>144.2</ele>
        <time>2023-12-06T13:31:59Z</time>
      </trkpt>
      <trkpt lat="49.28281" lon="-0.0143">
        <ele>144.4</ele>
        <time>2023-12-06T13:32:00Z</time>
      </trkpt>
      <trkpt lat="49.28278" lon="-0.01423">
        <ele>144.4</ele>
        <time>2023-12-06T13:32:01Z</time>
      </trkpt>
      <trkpt lat="49.28275" lon="-0.01416">
        <ele>144.6</ele>
        <time>2023-12-06T13:32:02Z</time>
      </trkpt>
      <trkpt lat="49.28273" lon="-0.01409">
        <ele>144.6</ele>
        <time>2023-12-06T13:32:03Z</time>
      </trkpt>
      <trkpt lat="49.2827" lon="-0.01402">
        <ele>144.8</ele>
        <time>2023-12-06T13:32:04Z</time>
      </trkpt>
      <trkpt lat="49.28268" lon="-0.01395">
        <ele>144.8</ele>
        <time>2023-12-06T13:32:05Z</time>
      </trkpt>
      <trkpt lat="49.28266" lon="-0.01387">
        <ele>145</ele>
        <time>2023-12-06T13:32:06Z</time>
      </trkpt>
      <trkpt lat="49.28263" lon="-0.0138">
        <ele>145</ele>
        <time>2023-12-06T13:32:07Z</time>
      </trkpt>
      <trkpt lat="49.28261" lon="-0.01372">
        <ele>145.2</ele>
        <time>2023-12-06T13:32:08Z</time>
      </trkpt>
      <trkpt lat="49.28259" lon="-0.01365">
        <ele>145.2</ele>
        <time>2023-12-06T13:32:09Z</time>
      </trkpt>
      <trkpt lat="49.28257" lon="-0.01357">
        <ele>145.2</ele>
        <time>2023-12-06T13:32:10Z</time>
      </trkpt>
      <trkpt lat="49.28255" lon="-0.0135">
        <ele>145.2</ele>
        <time>2023-12-06T13:32:11Z</time>
      </trkpt>
      <trkpt lat="49.28253" lon="-0.01343">
        <ele>145.2</ele>
        <time>2023-12-06T13:32:12Z</time>
      </trkpt>
      <trkpt lat="49.28251" lon="-0.01336">
        <ele>145.4</ele>
        <time>2023-12-06T13:32:13Z</time>
      </trkpt>
      <trkpt lat="49.28248" lon="-0.01329">
        <ele>145.4</ele>
        <time>2023-12-06T13:32:14Z</time>
      </trkpt>
      <trkpt lat="49.28246" lon="-0.01322">
        <ele>145.6</ele>
        <time>2023-12-06T13:32:15Z</time>
      </trkpt>
      <trkpt lat="49.28244" lon="-0.01315">
        <ele>146</ele>
        <time>2023-12-06T13:32:16Z</time>
      </trkpt>
      <trkpt lat="49.28242" lon="-0.01308">
        <ele>146.2</ele>
        <time>2023-12-06T13:32:17Z</time>
      </trkpt>
      <trkpt lat="49.2824" lon="-0.01301">
        <ele>146.4</ele>
        <time>2023-12-06T13:32:18Z</time>
      </trkpt>
      <trkpt lat="49.28237" lon="-0.01294">
        <ele>146.6</ele>
        <time>2023-12-06T13:32:19Z</time>
      </trkpt>
      <trkpt lat="49.28235" lon="-0.01287">
        <ele>146.6</ele>
        <time>2023-12-06T13:32:20Z</time>
      </trkpt>
      <trkpt lat="49.28233" lon="-0.0128">
        <ele>146.6</ele>
        <time>2023-12-06T13:32:21Z</time>
      </trkpt>
      <trkpt lat="49.2823" lon="-0.01273">
        <ele>146.8</ele>
        <time>2023-12-06T13:32:22Z</time>
      </trkpt>
      <trkpt lat="49.28228" lon="-0.01266">
        <ele>147</ele>
        <time>2023-12-06T13:32:23Z</time>
      </trkpt>
      <trkpt lat="49.28225" lon="-0.0126">
        <ele>147.2</ele>
        <time>2023-12-06T13:32:24Z</time>
      </trkpt>
      <trkpt lat="49.28223" lon="-0.01253">
        <ele>147.4</ele>
        <time>2023-12-06T13:32:25Z</time>
      </trkpt>
      <trkpt lat="49.2822" lon="-0.01247">
        <ele>147.6</ele>
        <time>2023-12-06T13:32:26Z</time>
      </trkpt>
      <trkpt lat="49.28218" lon="-0.01241">
        <ele>147.6</ele>
        <time>2023-12-06T13:32:27Z</time>
      </trkpt>
      <trkpt lat="49.28215" lon="-0.01234">
        <ele>147.8</ele>
        <time>2023-12-06T13:32:28Z</time>
      </trkpt>
      <trkpt lat="49.28212" lon="-0.01228">
        <ele>148</ele>
        <time>2023-12-06T13:32:29Z</time>
      </trkpt>
      <trkpt lat="49.28209" lon="-0.01222">
        <ele>148</ele>
        <time>2023-12-06T13:32:30Z</time>
      </trkpt>
      <trkpt lat="49.28206" lon="-0.01216">
        <ele>148.2</ele>
        <time>2023-12-06T13:32:31Z</time>
      </trkpt>
      <trkpt lat="49.28203" lon="-0.0121">
        <ele>148.2</ele>
        <time>2023-12-06T13:32:32Z</time>
      </trkpt>
      <trkpt lat="49.282" lon="-0.01204">
        <ele>148.4</ele>
        <time>2023-12-06T13:32:33Z</time>
      </trkpt>
      <trkpt lat="49.28197" lon="-0.01199">
        <ele>148.6</ele>
        <time>2023-12-06T13:32:34Z</time>
      </trkpt>
      <trkpt lat="49.28194" lon="-0.01194">
        <ele>148.8</ele>
        <time>2023-12-06T13:32:35Z</time>
      </trkpt>
      <trkpt lat="49.2819" lon="-0.01189">
        <ele>148.8</ele>
        <time>2023-12-06T13:32:36Z</time>
      </trkpt>
      <trkpt lat="49.28186" lon="-0.01184">
        <ele>149</ele>
        <time>2023-12-06T13:32:37Z</time>
      </trkpt>
      <trkpt lat="49.28182" lon="-0.01179">
        <ele>149.2</ele>
        <time>2023-12-06T13:32:38Z</time>
      </trkpt>
      <trkpt lat="49.28179" lon="-0.01175">
        <ele>149.4</ele>
        <time>2023-12-06T13:32:39Z</time>
      </trkpt>
      <trkpt lat="49.28175" lon="-0.0117">
        <ele>149.6</ele>
        <time>2023-12-06T13:32:40Z</time>
      </trkpt>
      <trkpt lat="49.28171" lon="-0.01166">
        <ele>149.6</ele>
        <time>2023-12-06T13:32:41Z</time>
      </trkpt>
      <trkpt lat="49.28167" lon="-0.01163">
        <ele>149.8</ele>
        <time>2023-12-06T13:32:42Z</time>
      </trkpt>
      <trkpt lat="49.28162" lon="-0.01159">
        <ele>149.8</ele>
        <time>2023-12-06T13:32:43Z</time>
      </trkpt>
      <trkpt lat="49.28159" lon="-0.01155">
        <ele>150</ele>
        <time>2023-12-06T13:32:44Z</time>
      </trkpt>
      <trkpt lat="49.28155" lon="-0.01151">
        <ele>150</ele>
        <time>2023-12-06T13:32:45Z</time>
      </trkpt>
      <trkpt lat="49.28151" lon="-0.01147">
        <ele>150</ele>
        <time>2023-12-06T13:32:46Z</time>
      </trkpt>
      <trkpt lat="49.28147" lon="-0.01144">
        <ele>150.2</ele>
        <time>2023-12-06T13:32:47Z</time>
      </trkpt>
      <trkpt lat="49.28143" lon="-0.0114">
        <ele>150.4</ele>
        <time>2023-12-06T13:32:48Z</time>
      </trkpt>
      <trkpt lat="49.28139" lon="-0.01136">
        <ele>150.6</ele>
        <time>2023-12-06T13:32:49Z</time>
      </trkpt>
      <trkpt lat="49.28134" lon="-0.01132">
        <ele>150.6</ele>
        <time>2023-12-06T13:32:50Z</time>
      </trkpt>
      <trkpt lat="49.28131" lon="-0.01129">
        <ele>150.8</ele>
        <time>2023-12-06T13:32:51Z</time>
      </trkpt>
      <trkpt lat="49.28127" lon="-0.01126">
        <ele>151</ele>
        <time>2023-12-06T13:32:52Z</time>
      </trkpt>
      <trkpt lat="49.28123" lon="-0.01122">
        <ele>151.2</ele>
        <time>2023-12-06T13:32:53Z</time>
      </trkpt>
      <trkpt lat="49.28118" lon="-0.01118">
        <ele>151.2</ele>
        <time>2023-12-06T13:32:54Z</time>
      </trkpt>
      <trkpt lat="49.28115" lon="-0.01115">
        <ele>151.2</ele>
        <time>2023-12-06T13:32:55Z</time>
      </trkpt>
      <trkpt lat="49.28111" lon="-0.01112">
        <ele>151.2</ele>
        <time>2023-12-06T13:32:56Z</time>
      </trkpt>
      <trkpt lat="49.28107" lon="-0.01108">
        <ele>151.4</ele>
        <time>2023-12-06T13:32:57Z</time>
      </trkpt>
      <trkpt lat="49.28103" lon="-0.01104">
        <ele>151.6</ele>
        <time>2023-12-06T13:32:58Z</time>
      </trkpt>
      <trkpt lat="49.28098" lon="-0.011">
        <ele>151.8</ele>
        <time>2023-12-06T13:32:59Z</time>
      </trkpt>
      <trkpt lat="49.28094" lon="-0.01096">
        <ele>152</ele>
        <time>2023-12-06T13:33:00Z</time>
      </trkpt>
      <trkpt lat="49.2809" lon="-0.01093">
        <ele>152</ele>
        <time>2023-12-06T13:33:01Z</time>
      </trkpt>
      <trkpt lat="49.28086" lon="-0.01089">
        <ele>152.2</ele>
        <time>2023-12-06T13:33:02Z</time>
      </trkpt>
      <trkpt lat="49.28082" lon="-0.01084">
        <ele>152.2</ele>
        <time>2023-12-06T13:33:03Z</time>
      </trkpt>
      <trkpt lat="49.28079" lon="-0.0108">
        <ele>152.4</ele>
        <time>2023-12-06T13:33:04Z</time>
      </trkpt>
      <trkpt lat="49.28075" lon="-0.01075">
        <ele>152.4</ele>
        <time>2023-12-06T13:33:05Z</time>
      </trkpt>
      <trkpt lat="49.28071" lon="-0.01071">
        <ele>152.4</ele>
        <time>2023-12-06T13:33:06Z</time>
      </trkpt>
      <trkpt lat="49.28067" lon="-0.01066">
        <ele>152.6</ele>
        <time>2023-12-06T13:33:07Z</time>
      </trkpt>
      <trkpt lat="49.28064" lon="-0.01061">
        <ele>152.8</ele>
        <time>2023-12-06T13:33:08Z</time>
      </trkpt>
      <trkpt lat="49.2806" lon="-0.01055">
        <ele>152.8</ele>
        <time>2023-12-06T13:33:09Z</time>
      </trkpt>
      <trkpt lat="49.28057" lon="-0.01049">
        <ele>153</ele>
        <time>2023-12-06T13:33:10Z</time>
      </trkpt>
      <trkpt lat="49.28054" lon="-0.01042">
        <ele>153</ele>
        <time>2023-12-06T13:33:11Z</time>
      </trkpt>
      <trkpt lat="49.28051" lon="-0.01036">
        <ele>153</ele>
        <time>2023-12-06T13:33:12Z</time>
      </trkpt>
      <trkpt lat="49.28048" lon="-0.01029">
        <ele>153</ele>
        <time>2023-12-06T13:33:13Z</time>
      </trkpt>
      <trkpt lat="49.28046" lon="-0.01021">
        <ele>153</ele>
        <time>2023-12-06T13:33:14Z</time>
      </trkpt>
      <trkpt lat="49.28044" lon="-0.01014">
        <ele>153.2</ele>
        <time>2023-12-06T13:33:15Z</time>
      </trkpt>
      <trkpt lat="49.28041" lon="-0.01007">
        <ele>153.2</ele>
        <time>2023-12-06T13:33:16Z</time>
      </trkpt>
      <trkpt lat="49.28039" lon="-0.01">
        <ele>153.2</ele>
        <time>2023-12-06T13:33:17Z</time>
      </trkpt>
      <trkpt lat="49.28037" lon="-0.00993">
        <ele>153.2</ele>
        <time>2023-12-06T13:33:18Z</time>
      </trkpt>
      <trkpt lat="49.28035" lon="-0.00986">
        <ele>153.2</ele>
        <time>2023-12-06T13:33:19Z</time>
      </trkpt>
      <trkpt lat="49.28033" lon="-0.00978">
        <ele>153.2</ele>
        <time>2023-12-06T13:33:20Z</time>
      </trkpt>
      <trkpt lat="49.2803" lon="-0.0097">
        <ele>153.2</ele>
        <time>2023-12-06T13:33:21Z</time>
      </trkpt>
      <trkpt lat="49.28028" lon="-0.00963">
        <ele>153.2</ele>
        <time>2023-12-06T13:33:22Z</time>
      </trkpt>
      <trkpt lat="49.28027" lon="-0.00955">
        <ele>153.4</ele>
        <time>2023-12-06T13:33:23Z</time>
      </trkpt>
      <trkpt lat="49.28025" lon="-0.00947">
        <ele>153.4</ele>
        <time>2023-12-06T13:33:24Z</time>
      </trkpt>
      <trkpt lat="49.28023" lon="-0.00939">
        <ele>153.4</ele>
        <time>2023-12-06T13:33:25Z</time>
      </trkpt>
      <trkpt lat="49.28021" lon="-0.00931">
        <ele>153.4</ele>
        <time>2023-12-06T13:33:26Z</time>
      </trkpt>
      <trkpt lat="49.28019" lon="-0.00923">
        <ele>153.4</ele>
        <time>2023-12-06T13:33:27Z</time>
      </trkpt>
      <trkpt lat="49.28016" lon="-0.00915">
        <ele>153.6</ele>
        <time>2023-12-06T13:33:28Z</time>
      </trkpt>
      <trkpt lat="49.28015" lon="-0.00906">
        <ele>153.8</ele>
        <time>2023-12-06T13:33:29Z</time>
      </trkpt>
      <trkpt lat="49.28013" lon="-0.00898">
        <ele>153.8</ele>
        <time>2023-12-06T13:33:30Z</time>
      </trkpt>
      <trkpt lat="49.28011" lon="-0.0089">
        <ele>153.8</ele>
        <time>2023-12-06T13:33:31Z</time>
      </trkpt>
      <trkpt lat="49.28009" lon="-0.00881">
        <ele>153.8</ele>
        <time>2023-12-06T13:33:32Z</time>
      </trkpt>
      <trkpt lat="49.28007" lon="-0.00872">
        <ele>153.8</ele>
        <time>2023-12-06T13:33:33Z</time>
      </trkpt>
      <trkpt lat="49.28006" lon="-0.00863">
        <ele>153.8</ele>
        <time>2023-12-06T13:33:34Z</time>
      </trkpt>
      <trkpt lat="49.28004" lon="-0.00855">
        <ele>153.8</ele>
        <time>2023-12-06T13:33:35Z</time>
      </trkpt>
      <trkpt lat="49.28002" lon="-0.00846">
        <ele>153.8</ele>
        <time>2023-12-06T13:33:36Z</time>
      </trkpt>
      <trkpt lat="49.28001" lon="-0.00837">
        <ele>153.8</ele>
        <time>2023-12-06T13:33:37Z</time>
      </trkpt>
      <trkpt lat="49.27999" lon="-0.00828">
        <ele>153.6</ele>
        <time>2023-12-06T13:33:38Z</time>
      </trkpt>
      <trkpt lat="49.27997" lon="-0.00818">
        <ele>153.6</ele>
        <time>2023-12-06T13:33:39Z</time>
      </trkpt>
      <trkpt lat="49.27996" lon="-0.00809">
        <ele>153.4</ele>
        <time>2023-12-06T13:33:40Z</time>
      </trkpt>
      <trkpt lat="49.27994" lon="-0.008">
        <ele>153.4</ele>
        <time>2023-12-06T13:33:41Z</time>
      </trkpt>
      <trkpt lat="49.27992" lon="-0.00791">
        <ele>153.4</ele>
        <time>2023-12-06T13:33:42Z</time>
      </trkpt>
      <trkpt lat="49.27991" lon="-0.00782">
        <ele>153.2</ele>
        <time>2023-12-06T13:33:43Z</time>
      </trkpt>
      <trkpt lat="49.27989" lon="-0.00773">
        <ele>153.2</ele>
        <time>2023-12-06T13:33:44Z</time>
      </trkpt>
      <trkpt lat="49.27987" lon="-0.00764">
        <ele>153</ele>
        <time>2023-12-06T13:33:45Z</time>
      </trkpt>
      <trkpt lat="49.27985" lon="-0.00755">
        <ele>153</ele>
        <time>2023-12-06T13:33:46Z</time>
      </trkpt>
      <trkpt lat="49.27984" lon="-0.00746">
        <ele>153</ele>
        <time>2023-12-06T13:33:47Z</time>
      </trkpt>
      <trkpt lat="49.27982" lon="-0.00737">
        <ele>152.8</ele>
        <time>2023-12-06T13:33:48Z</time>
      </trkpt>
      <trkpt lat="49.2798" lon="-0.00729">
        <ele>152.8</ele>
        <time>2023-12-06T13:33:49Z</time>
      </trkpt>
      <trkpt lat="49.27978" lon="-0.0072">
        <ele>152.6</ele>
        <time>2023-12-06T13:33:50Z</time>
      </trkpt>
      <trkpt lat="49.27976" lon="-0.00712">
        <ele>152.4</ele>
        <time>2023-12-06T13:33:51Z</time>
      </trkpt>
      <trkpt lat="49.27974" lon="-0.00703">
        <ele>152.2</ele>
        <time>2023-12-06T13:33:52Z</time>
      </trkpt>
      <trkpt lat="49.27971" lon="-0.00695">
        <ele>152.2</ele>
        <time>2023-12-06T13:33:53Z</time>
      </trkpt>
      <trkpt lat="49.27968" lon="-0.00687">
        <ele>152</ele>
        <time>2023-12-06T13:33:54Z</time>
      </trkpt>
      <trkpt lat="49.27965" lon="-0.00679">
        <ele>152</ele>
        <time>2023-12-06T13:33:55Z</time>
      </trkpt>
      <trkpt lat="49.27961" lon="-0.00671">
        <ele>151.8</ele>
        <time>2023-12-06T13:33:56Z</time>
      </trkpt>
      <trkpt lat="49.27957" lon="-0.00664">
        <ele>151.6</ele>
        <time>2023-12-06T13:33:57Z</time>
      </trkpt>
      <trkpt lat="49.27952" lon="-0.00657">
        <ele>151.6</ele>
        <time>2023-12-06T13:33:58Z</time>
      </trkpt>
      <trkpt lat="49.27947" lon="-0.00651">
        <ele>151.4</ele>
        <time>2023-12-06T13:33:59Z</time>
      </trkpt>
      <trkpt lat="49.27941" lon="-0.00647">
        <ele>151.4</ele>
        <time>2023-12-06T13:34:00Z</time>
      </trkpt>
      <trkpt lat="49.27935" lon="-0.00642">
        <ele>151.2</ele>
        <time>2023-12-06T13:34:01Z</time>
      </trkpt>
      <trkpt lat="49.27929" lon="-0.00639">
        <ele>151.2</ele>
        <time>2023-12-06T13:34:02Z</time>
      </trkpt>
      <trkpt lat="49.27923" lon="-0.00636">
        <ele>150.8</ele>
        <time>2023-12-06T13:34:03Z</time>
      </trkpt>
      <trkpt lat="49.27916" lon="-0.00633">
        <ele>150.6</ele>
        <time>2023-12-06T13:34:04Z</time>
      </trkpt>
      <trkpt lat="49.2791" lon="-0.00632">
        <ele>150</ele>
        <time>2023-12-06T13:34:05Z</time>
      </trkpt>
      <trkpt lat="49.27903" lon="-0.00631">
        <ele>149.6</ele>
        <time>2023-12-06T13:34:06Z</time>
      </trkpt>
      <trkpt lat="49.27898" lon="-0.00631">
        <ele>149.4</ele>
        <time>2023-12-06T13:34:07Z</time>
      </trkpt>
      <trkpt lat="49.27892" lon="-0.00631">
        <ele>149.4</ele>
        <time>2023-12-06T13:34:08Z</time>
      </trkpt>
      <trkpt lat="49.27888" lon="-0.00631">
        <ele>149.2</ele>
        <time>2023-12-06T13:34:09Z</time>
      </trkpt>
      <trkpt lat="49.27885" lon="-0.00631">
        <ele>148.8</ele>
        <time>2023-12-06T13:34:10Z</time>
      </trkpt>
      <trkpt lat="49.27882" lon="-0.00632">
        <ele>148.6</ele>
        <time>2023-12-06T13:34:11Z</time>
      </trkpt>
      <trkpt lat="49.2788" lon="-0.00632">
        <ele>148.2</ele>
        <time>2023-12-06T13:34:12Z</time>
      </trkpt>
      <trkpt lat="49.27879" lon="-0.00632">
        <ele>147.8</ele>
        <time>2023-12-06T13:34:13Z</time>
      </trkpt>
      <trkpt lat="49.27879" lon="-0.00632">
        <ele>147.6</ele>
        <time>2023-12-06T13:34:14Z</time>
      </trkpt>
      <trkpt lat="49.27879" lon="-0.00632">
        <ele>147.6</ele>
        <time>2023-12-06T13:34:15Z</time>
      </trkpt>
      <trkpt lat="49.27874" lon="-0.00627">
        <ele>147.8</ele>
        <time>2023-12-06T13:35:25Z</time>
      </trkpt>
      <trkpt lat="49.27873" lon="-0.00624">
        <ele>147.8</ele>
        <time>2023-12-06T13:35:26Z</time>
      </trkpt>
      <trkpt lat="49.27872" lon="-0.0062">
        <ele>147.8</ele>
        <time>2023-12-06T13:35:27Z</time>
      </trkpt>
      <trkpt lat="49.27871" lon="-0.00615">
        <ele>147.8</ele>
        <time>2023-12-06T13:35:28Z</time>
      </trkpt>
      <trkpt lat="49.27871" lon="-0.00611">
        <ele>147.8</ele>
        <time>2023-12-06T13:35:29Z</time>
      </trkpt>
      <trkpt lat="49.27871" lon="-0.00605">
        <ele>147.8</ele>
        <time>2023-12-06T13:35:30Z</time>
      </trkpt>
      <trkpt lat="49.27871" lon="-0.006">
        <ele>147.8</ele>
        <time>2023-12-06T13:35:31Z</time>
      </trkpt>
      <trkpt lat="49.27871" lon="-0.00594">
        <ele>147.6</ele>
        <time>2023-12-06T13:35:32Z</time>
      </trkpt>
      <trkpt lat="49.27871" lon="-0.00587">
        <ele>147.4</ele>
        <time>2023-12-06T13:35:33Z</time>
      </trkpt>
      <trkpt lat="49.27872" lon="-0.00579">
        <ele>147.4</ele>
        <time>2023-12-06T13:35:34Z</time>
      </trkpt>
      <trkpt lat="49.27872" lon="-0.00574">
        <ele>147.4</ele>
        <time>2023-12-06T13:35:35Z</time>
      </trkpt>
      <trkpt lat="49.27872" lon="-0.00567">
        <ele>147.2</ele>
        <time>2023-12-06T13:35:36Z</time>
      </trkpt>
      <trkpt lat="49.27872" lon="-0.00559">
        <ele>147.2</ele>
        <time>2023-12-06T13:35:37Z</time>
      </trkpt>
      <trkpt lat="49.27873" lon="-0.00552">
        <ele>147.2</ele>
        <time>2023-12-06T13:35:38Z</time>
      </trkpt>
      <trkpt lat="49.27873" lon="-0.00544">
        <ele>147.2</ele>
        <time>2023-12-06T13:35:39Z</time>
      </trkpt>
      <trkpt lat="49.27873" lon="-0.00536">
        <ele>147</ele>
        <time>2023-12-06T13:35:40Z</time>
      </trkpt>
      <trkpt lat="49.27873" lon="-0.00528">
        <ele>147</ele>
        <time>2023-12-06T13:35:41Z</time>
      </trkpt>
      <trkpt lat="49.27874" lon="-0.0052">
        <ele>147</ele>
        <time>2023-12-06T13:35:42Z</time>
      </trkpt>
      <trkpt lat="49.27874" lon="-0.00511">
        <ele>147</ele>
        <time>2023-12-06T13:35:43Z</time>
      </trkpt>
      <trkpt lat="49.27874" lon="-0.00501">
        <ele>147</ele>
        <time>2023-12-06T13:35:44Z</time>
      </trkpt>
      <trkpt lat="49.27875" lon="-0.00492">
        <ele>146.8</ele>
        <time>2023-12-06T13:35:45Z</time>
      </trkpt>
      <trkpt lat="49.27876" lon="-0.00485">
        <ele>146.8</ele>
        <time>2023-12-06T13:35:46Z</time>
      </trkpt>
      <trkpt lat="49.27877" lon="-0.00475">
        <ele>146.8</ele>
        <time>2023-12-06T13:35:47Z</time>
      </trkpt>
      <trkpt lat="49.27878" lon="-0.00466">
        <ele>147</ele>
        <time>2023-12-06T13:35:48Z</time>
      </trkpt>
      <trkpt lat="49.27879" lon="-0.00459">
        <ele>147</ele>
        <time>2023-12-06T13:35:49Z</time>
      </trkpt>
      <trkpt lat="49.27881" lon="-0.00448">
        <ele>147</ele>
        <time>2023-12-06T13:35:50Z</time>
      </trkpt>
      <trkpt lat="49.27882" lon="-0.00441">
        <ele>147</ele>
        <time>2023-12-06T13:35:51Z</time>
      </trkpt>
      <trkpt lat="49.27883" lon="-0.00433">
        <ele>147</ele>
        <time>2023-12-06T13:35:52Z</time>
      </trkpt>
      <trkpt lat="49.27884" lon="-0.00424">
        <ele>147</ele>
        <time>2023-12-06T13:35:53Z</time>
      </trkpt>
      <trkpt lat="49.27886" lon="-0.00416">
        <ele>147.2</ele>
        <time>2023-12-06T13:35:54Z</time>
      </trkpt>
      <trkpt lat="49.27888" lon="-0.00408">
        <ele>147.4</ele>
        <time>2023-12-06T13:35:55Z</time>
      </trkpt>
      <trkpt lat="49.2789" lon="-0.00398">
        <ele>147.6</ele>
        <time>2023-12-06T13:35:56Z</time>
      </trkpt>
      <trkpt lat="49.27892" lon="-0.00392">
        <ele>148</ele>
        <time>2023-12-06T13:35:57Z</time>
      </trkpt>
      <trkpt lat="49.27894" lon="-0.00385">
        <ele>148.2</ele>
        <time>2023-12-06T13:35:58Z</time>
      </trkpt>
      <trkpt lat="49.27896" lon="-0.00377">
        <ele>148.4</ele>
        <time>2023-12-06T13:35:59Z</time>
      </trkpt>
      <trkpt lat="49.27899" lon="-0.0037">
        <ele>148.6</ele>
        <time>2023-12-06T13:36:00Z</time>
      </trkpt>
      <trkpt lat="49.27901" lon="-0.00362">
        <ele>148.8</ele>
        <time>2023-12-06T13:36:01Z</time>
      </trkpt>
      <trkpt lat="49.27904" lon="-0.00355">
        <ele>149</ele>
        <time>2023-12-06T13:36:02Z</time>
      </trkpt>
      <trkpt lat="49.27907" lon="-0.00349">
        <ele>149.4</ele>
        <time>2023-12-06T13:36:03Z</time>
      </trkpt>
      <trkpt lat="49.2791" lon="-0.00342">
        <ele>149.6</ele>
        <time>2023-12-06T13:36:04Z</time>
      </trkpt>
      <trkpt lat="49.27914" lon="-0.00335">
        <ele>149.8</ele>
        <time>2023-12-06T13:36:05Z</time>
      </trkpt>
      <trkpt lat="49.27917" lon="-0.00328">
        <ele>150</ele>
        <time>2023-12-06T13:36:06Z</time>
      </trkpt>
      <trkpt lat="49.2792" lon="-0.00321">
        <ele>150</ele>
        <time>2023-12-06T13:36:07Z</time>
      </trkpt>
      <trkpt lat="49.27924" lon="-0.00315">
        <ele>150.2</ele>
        <time>2023-12-06T13:36:08Z</time>
      </trkpt>
      <trkpt lat="49.27928" lon="-0.00308">
        <ele>150.6</ele>
        <time>2023-12-06T13:36:09Z</time>
      </trkpt>
      <trkpt lat="49.27932" lon="-0.00302">
        <ele>150.6</ele>
        <time>2023-12-06T13:36:10Z</time>
      </trkpt>
      <trkpt lat="49.27936" lon="-0.00295">
        <ele>150.8</ele>
        <time>2023-12-06T13:36:11Z</time>
      </trkpt>
      <trkpt lat="49.27939" lon="-0.00289">
        <ele>151.2</ele>
        <time>2023-12-06T13:36:12Z</time>
      </trkpt>
      <trkpt lat="49.27944" lon="-0.00283">
        <ele>151.4</ele>
        <time>2023-12-06T13:36:13Z</time>
      </trkpt>
      <trkpt lat="49.27948" lon="-0.00277">
        <ele>151.8</ele>
        <time>2023-12-06T13:36:14Z</time>
      </trkpt>
      <trkpt lat="49.27952" lon="-0.00272">
        <ele>152</ele>
        <time>2023-12-06T13:36:15Z</time>
      </trkpt>
      <trkpt lat="49.27956" lon="-0.00266">
        <ele>152.2</ele>
        <time>2023-12-06T13:36:16Z</time>
      </trkpt>
      <trkpt lat="49.27961" lon="-0.00261">
        <ele>152.6</ele>
        <time>2023-12-06T13:36:17Z</time>
      </trkpt>
      <trkpt lat="49.27965" lon="-0.00255">
        <ele>152.6</ele>
        <time>2023-12-06T13:36:18Z</time>
      </trkpt>
      <trkpt lat="49.27969" lon="-0.0025">
        <ele>153</ele>
        <time>2023-12-06T13:36:19Z</time>
      </trkpt>
      <trkpt lat="49.27973" lon="-0.00244">
        <ele>153.2</ele>
        <time>2023-12-06T13:36:20Z</time>
      </trkpt>
      <trkpt lat="49.27977" lon="-0.00239">
        <ele>153.4</ele>
        <time>2023-12-06T13:36:21Z</time>
      </trkpt>
      <trkpt lat="49.27982" lon="-0.00233">
        <ele>153.6</ele>
        <time>2023-12-06T13:36:22Z</time>
      </trkpt>
      <trkpt lat="49.27986" lon="-0.00227">
        <ele>153.8</ele>
        <time>2023-12-06T13:36:23Z</time>
      </trkpt>
      <trkpt lat="49.2799" lon="-0.00221">
        <ele>154</ele>
        <time>2023-12-06T13:36:24Z</time>
      </trkpt>
      <trkpt lat="49.27994" lon="-0.00215">
        <ele>154.2</ele>
        <time>2023-12-06T13:36:25Z</time>
      </trkpt>
      <trkpt lat="49.27999" lon="-0.00208">
        <ele>154.6</ele>
        <time>2023-12-06T13:36:26Z</time>
      </trkpt>
      <trkpt lat="49.28003" lon="-0.00202">
        <ele>154.6</ele>
        <time>2023-12-06T13:36:27Z</time>
      </trkpt>
      <trkpt lat="49.28008" lon="-0.00195">
        <ele>155</ele>
        <time>2023-12-06T13:36:28Z</time>
      </trkpt>
      <trkpt lat="49.28012" lon="-0.00189">
        <ele>155.2</ele>
        <time>2023-12-06T13:36:29Z</time>
      </trkpt>
      <trkpt lat="49.28017" lon="-0.00182">
        <ele>155.4</ele>
        <time>2023-12-06T13:36:30Z</time>
      </trkpt>
      <trkpt lat="49.28021" lon="-0.00175">
        <ele>155.6</ele>
        <time>2023-12-06T13:36:31Z</time>
      </trkpt>
      <trkpt lat="49.28026" lon="-0.00168">
        <ele>155.8</ele>
        <time>2023-12-06T13:36:32Z</time>
      </trkpt>
      <trkpt lat="49.28031" lon="-0.00162">
        <ele>156</ele>
        <time>2023-12-06T13:36:33Z</time>
      </trkpt>
      <trkpt lat="49.28036" lon="-0.00155">
        <ele>156.2</ele>
        <time>2023-12-06T13:36:34Z</time>
      </trkpt>
      <trkpt lat="49.28041" lon="-0.00148">
        <ele>156.4</ele>
        <time>2023-12-06T13:36:35Z</time>
      </trkpt>
      <trkpt lat="49.28046" lon="-0.00141">
        <ele>156.4</ele>
        <time>2023-12-06T13:36:36Z</time>
      </trkpt>
      <trkpt lat="49.28051" lon="-0.00134">
        <ele>156.6</ele>
        <time>2023-12-06T13:36:37Z</time>
      </trkpt>
      <trkpt lat="49.28055" lon="-0.00127">
        <ele>156.6</ele>
        <time>2023-12-06T13:36:38Z</time>
      </trkpt>
      <trkpt lat="49.2806" lon="-0.00119">
        <ele>156.8</ele>
        <time>2023-12-06T13:36:39Z</time>
      </trkpt>
      <trkpt lat="49.28065" lon="-0.00112">
        <ele>156.8</ele>
        <time>2023-12-06T13:36:40Z</time>
      </trkpt>
      <trkpt lat="49.2807" lon="-0.00104">
        <ele>156.8</ele>
        <time>2023-12-06T13:36:41Z</time>
      </trkpt>
      <trkpt lat="49.28075" lon="-0.00096">
        <ele>156.8</ele>
        <time>2023-12-06T13:36:42Z</time>
      </trkpt>
      <trkpt lat="49.28079" lon="-0.00088">
        <ele>156.8</ele>
        <time>2023-12-06T13:36:43Z</time>
      </trkpt>
      <trkpt lat="49.28085" lon="-0.00079">
        <ele>156.8</ele>
        <time>2023-12-06T13:36:44Z</time>
      </trkpt>
      <trkpt lat="49.28089" lon="-0.00073">
        <ele>156.8</ele>
        <time>2023-12-06T13:36:45Z</time>
      </trkpt>
      <trkpt lat="49.28094" lon="-0.00066">
        <ele>156.8</ele>
        <time>2023-12-06T13:36:46Z</time>
      </trkpt>
      <trkpt lat="49.28099" lon="-0.00059">
        <ele>156.8</ele>
        <time>2023-12-06T13:36:47Z</time>
      </trkpt>
      <trkpt lat="49.28103" lon="-0.00052">
        <ele>156.8</ele>
        <time>2023-12-06T13:36:48Z</time>
      </trkpt>
      <trkpt lat="49.28107" lon="-0.00045">
        <ele>156.8</ele>
        <time>2023-12-06T13:36:49Z</time>
      </trkpt>
      <trkpt lat="49.28113" lon="-0.00036">
        <ele>156.8</ele>
        <time>2023-12-06T13:36:50Z</time>
      </trkpt>
      <trkpt lat="49.28116" lon="-0.0003">
        <ele>156.8</ele>
        <time>2023-12-06T13:36:51Z</time>
      </trkpt>
      <trkpt lat="49.28121" lon="-0.00023">
        <ele>156.8</ele>
        <time>2023-12-06T13:36:52Z</time>
      </trkpt>
      <trkpt lat="49.28126" lon="-0.00014">
        <ele>156.6</ele>
        <time>2023-12-06T13:36:53Z</time>
      </trkpt>
      <trkpt lat="49.28129" lon="-9.0E-5">
        <ele>156.6</ele>
        <time>2023-12-06T13:36:54Z</time>
      </trkpt>
      <trkpt lat="49.28132" lon="-2.0E-5">
        <ele>156.6</ele>
        <time>2023-12-06T13:36:55Z</time>
      </trkpt>
      <trkpt lat="49.28134" lon="5.0E-5">
        <ele>156.6</ele>
        <time>2023-12-06T13:36:56Z</time>
      </trkpt>
      <trkpt lat="49.28136" lon="0.00012">
        <ele>156.4</ele>
        <time>2023-12-06T13:36:57Z</time>
      </trkpt>
      <trkpt lat="49.28137" lon="0.00019">
        <ele>156.4</ele>
        <time>2023-12-06T13:36:58Z</time>
      </trkpt>
      <trkpt lat="49.28139" lon="0.00028">
        <ele>156.4</ele>
        <time>2023-12-06T13:36:59Z</time>
      </trkpt>
      <trkpt lat="49.28139" lon="0.00036">
        <ele>156.4</ele>
        <time>2023-12-06T13:37:00Z</time>
      </trkpt>
      <trkpt lat="49.28139" lon="0.00045">
        <ele>156.4</ele>
        <time>2023-12-06T13:37:01Z</time>
      </trkpt>
      <trkpt lat="49.28138" lon="0.00055">
        <ele>156.4</ele>
        <time>2023-12-06T13:37:02Z</time>
      </trkpt>
      <trkpt lat="49.28136" lon="0.00066">
        <ele>156.2</ele>
        <time>2023-12-06T13:37:03Z</time>
      </trkpt>
      <trkpt lat="49.28133" lon="0.00076">
        <ele>156.2</ele>
        <time>2023-12-06T13:37:04Z</time>
      </trkpt>
      <trkpt lat="49.2813" lon="0.00086">
        <ele>156.2</ele>
        <time>2023-12-06T13:37:05Z</time>
      </trkpt>
      <trkpt lat="49.28127" lon="0.00097">
        <ele>156.2</ele>
        <time>2023-12-06T13:37:06Z</time>
      </trkpt>
      <trkpt lat="49.28123" lon="0.00107">
        <ele>156.2</ele>
        <time>2023-12-06T13:37:07Z</time>
      </trkpt>
      <trkpt lat="49.2812" lon="0.00118">
        <ele>156</ele>
        <time>2023-12-06T13:37:08Z</time>
      </trkpt>
      <trkpt lat="49.28117" lon="0.00129">
        <ele>156</ele>
        <time>2023-12-06T13:37:09Z</time>
      </trkpt>
      <trkpt lat="49.28113" lon="0.0014">
        <ele>155.8</ele>
        <time>2023-12-06T13:37:10Z</time>
      </trkpt>
      <trkpt lat="49.2811" lon="0.00151">
        <ele>155.8</ele>
        <time>2023-12-06T13:37:11Z</time>
      </trkpt>
      <trkpt lat="49.28106" lon="0.00161">
        <ele>155.8</ele>
        <time>2023-12-06T13:37:12Z</time>
      </trkpt>
      <trkpt lat="49.28103" lon="0.00171">
        <ele>155.8</ele>
        <time>2023-12-06T13:37:13Z</time>
      </trkpt>
      <trkpt lat="49.281" lon="0.00181">
        <ele>155.8</ele>
        <time>2023-12-06T13:37:14Z</time>
      </trkpt>
      <trkpt lat="49.28096" lon="0.00191">
        <ele>155.8</ele>
        <time>2023-12-06T13:37:15Z</time>
      </trkpt>
      <trkpt lat="49.28093" lon="0.002">
        <ele>155.8</ele>
        <time>2023-12-06T13:37:16Z</time>
      </trkpt>
      <trkpt lat="49.2809" lon="0.0021">
        <ele>155.8</ele>
        <time>2023-12-06T13:37:17Z</time>
      </trkpt>
      <trkpt lat="49.28087" lon="0.00219">
        <ele>155.8</ele>
        <time>2023-12-06T13:37:18Z</time>
      </trkpt>
      <trkpt lat="49.28083" lon="0.00228">
        <ele>155.8</ele>
        <time>2023-12-06T13:37:19Z</time>
      </trkpt>
      <trkpt lat="49.2808" lon="0.00237">
        <ele>155.8</ele>
        <time>2023-12-06T13:37:20Z</time>
      </trkpt>
      <trkpt lat="49.28076" lon="0.00246">
        <ele>155.8</ele>
        <time>2023-12-06T13:37:21Z</time>
      </trkpt>
      <trkpt lat="49.28072" lon="0.00254">
        <ele>156</ele>
        <time>2023-12-06T13:37:22Z</time>
      </trkpt>
      <trkpt lat="49.28068" lon="0.00263">
        <ele>156</ele>
        <time>2023-12-06T13:37:23Z</time>
      </trkpt>
      <trkpt lat="49.28064" lon="0.00271">
        <ele>156</ele>
        <time>2023-12-06T13:37:24Z</time>
      </trkpt>
      <trkpt lat="49.28059" lon="0.00279">
        <ele>156</ele>
        <time>2023-12-06T13:37:25Z</time>
      </trkpt>
      <trkpt lat="49.28055" lon="0.00287">
        <ele>156</ele>
        <time>2023-12-06T13:37:26Z</time>
      </trkpt>
      <trkpt lat="49.28051" lon="0.00295">
        <ele>156</ele>
        <time>2023-12-06T13:37:27Z</time>
      </trkpt>
      <trkpt lat="49.28046" lon="0.00304">
        <ele>156</ele>
        <time>2023-12-06T13:37:28Z</time>
      </trkpt>
      <trkpt lat="49.28042" lon="0.00312">
        <ele>156</ele>
        <time>2023-12-06T13:37:29Z</time>
      </trkpt>
      <trkpt lat="49.28037" lon="0.0032">
        <ele>156</ele>
        <time>2023-12-06T13:37:30Z</time>
      </trkpt>
      <trkpt lat="49.28033" lon="0.00329">
        <ele>155.8</ele>
        <time>2023-12-06T13:37:31Z</time>
      </trkpt>
      <trkpt lat="49.28028" lon="0.00337">
        <ele>155.8</ele>
        <time>2023-12-06T13:37:32Z</time>
      </trkpt>
      <trkpt lat="49.28023" lon="0.00346">
        <ele>155.8</ele>
        <time>2023-12-06T13:37:33Z</time>
      </trkpt>
      <trkpt lat="49.28018" lon="0.00356">
        <ele>155.8</ele>
        <time>2023-12-06T13:37:34Z</time>
      </trkpt>
      <trkpt lat="49.28013" lon="0.00365">
        <ele>155.8</ele>
        <time>2023-12-06T13:37:35Z</time>
      </trkpt>
      <trkpt lat="49.28008" lon="0.00374">
        <ele>155.8</ele>
        <time>2023-12-06T13:37:36Z</time>
      </trkpt>
      <trkpt lat="49.28002" lon="0.00384">
        <ele>155.6</ele>
        <time>2023-12-06T13:37:37Z</time>
      </trkpt>
      <trkpt lat="49.27997" lon="0.00394">
        <ele>155.6</ele>
        <time>2023-12-06T13:37:38Z</time>
      </trkpt>
      <trkpt lat="49.27992" lon="0.00403">
        <ele>155.6</ele>
        <time>2023-12-06T13:37:39Z</time>
      </trkpt>
      <trkpt lat="49.27987" lon="0.00413">
        <ele>155.6</ele>
        <time>2023-12-06T13:37:40Z</time>
      </trkpt>
      <trkpt lat="49.27982" lon="0.00422">
        <ele>155.6</ele>
        <time>2023-12-06T13:37:41Z</time>
      </trkpt>
      <trkpt lat="49.27977" lon="0.00431">
        <ele>155.4</ele>
        <time>2023-12-06T13:37:42Z</time>
      </trkpt>
      <trkpt lat="49.27972" lon="0.0044">
        <ele>155.4</ele>
        <time>2023-12-06T13:37:43Z</time>
      </trkpt>
      <trkpt lat="49.27968" lon="0.0045">
        <ele>155.4</ele>
        <time>2023-12-06T13:37:44Z</time>
      </trkpt>
      <trkpt lat="49.27963" lon="0.00459">
        <ele>155.4</ele>
        <time>2023-12-06T13:37:45Z</time>
      </trkpt>
      <trkpt lat="49.27958" lon="0.00468">
        <ele>155.4</ele>
        <time>2023-12-06T13:37:46Z</time>
      </trkpt>
      <trkpt lat="49.27954" lon="0.00477">
        <ele>155.2</ele>
        <time>2023-12-06T13:37:47Z</time>
      </trkpt>
      <trkpt lat="49.27949" lon="0.00486">
        <ele>155.2</ele>
        <time>2023-12-06T13:37:48Z</time>
      </trkpt>
      <trkpt lat="49.27944" lon="0.00495">
        <ele>155.2</ele>
        <time>2023-12-06T13:37:49Z</time>
      </trkpt>
      <trkpt lat="49.27939" lon="0.00504">
        <ele>155.2</ele>
        <time>2023-12-06T13:37:50Z</time>
      </trkpt>
      <trkpt lat="49.27934" lon="0.00513">
        <ele>155.2</ele>
        <time>2023-12-06T13:37:51Z</time>
      </trkpt>
      <trkpt lat="49.27929" lon="0.00523">
        <ele>155.2</ele>
        <time>2023-12-06T13:37:52Z</time>
      </trkpt>
      <trkpt lat="49.27924" lon="0.00533">
        <ele>155.2</ele>
        <time>2023-12-06T13:37:53Z</time>
      </trkpt>
      <trkpt lat="49.27919" lon="0.00542">
        <ele>155.2</ele>
        <time>2023-12-06T13:37:54Z</time>
      </trkpt>
      <trkpt lat="49.27913" lon="0.00551">
        <ele>155.2</ele>
        <time>2023-12-06T13:37:55Z</time>
      </trkpt>
      <trkpt lat="49.27908" lon="0.0056">
        <ele>155.2</ele>
        <time>2023-12-06T13:37:56Z</time>
      </trkpt>
      <trkpt lat="49.27902" lon="0.00568">
        <ele>154.8</ele>
        <time>2023-12-06T13:37:57Z</time>
      </trkpt>
      <trkpt lat="49.27896" lon="0.00577">
        <ele>154.4</ele>
        <time>2023-12-06T13:37:58Z</time>
      </trkpt>
      <trkpt lat="49.27891" lon="0.00585">
        <ele>154</ele>
        <time>2023-12-06T13:37:59Z</time>
      </trkpt>
      <trkpt lat="49.27885" lon="0.00592">
        <ele>153.6</ele>
        <time>2023-12-06T13:38:00Z</time>
      </trkpt>
      <trkpt lat="49.27878" lon="0.006">
        <ele>153.4</ele>
        <time>2023-12-06T13:38:01Z</time>
      </trkpt>
      <trkpt lat="49.27872" lon="0.00607">
        <ele>153</ele>
        <time>2023-12-06T13:38:02Z</time>
      </trkpt>
      <trkpt lat="49.27865" lon="0.00614">
        <ele>152.8</ele>
        <time>2023-12-06T13:38:03Z</time>
      </trkpt>
      <trkpt lat="49.27859" lon="0.00621">
        <ele>152.8</ele>
        <time>2023-12-06T13:38:04Z</time>
      </trkpt>
      <trkpt lat="49.27852" lon="0.00628">
        <ele>152.6</ele>
        <time>2023-12-06T13:38:05Z</time>
      </trkpt>
      <trkpt lat="49.27845" lon="0.00635">
        <ele>152.6</ele>
        <time>2023-12-06T13:38:06Z</time>
      </trkpt>
      <trkpt lat="49.27838" lon="0.00642">
        <ele>152.6</ele>
        <time>2023-12-06T13:38:07Z</time>
      </trkpt>
      <trkpt lat="49.27832" lon="0.00649">
        <ele>152.4</ele>
        <time>2023-12-06T13:38:08Z</time>
      </trkpt>
      <trkpt lat="49.27825" lon="0.00656">
        <ele>152.4</ele>
        <time>2023-12-06T13:38:09Z</time>
      </trkpt>
      <trkpt lat="49.27819" lon="0.00664">
        <ele>152.2</ele>
        <time>2023-12-06T13:38:10Z</time>
      </trkpt>
      <trkpt lat="49.27813" lon="0.00672">
        <ele>152.2</ele>
        <time>2023-12-06T13:38:11Z</time>
      </trkpt>
      <trkpt lat="49.27807" lon="0.00681">
        <ele>152.2</ele>
        <time>2023-12-06T13:38:12Z</time>
      </trkpt>
      <trkpt lat="49.27801" lon="0.0069">
        <ele>152</ele>
        <time>2023-12-06T13:38:13Z</time>
      </trkpt>
      <trkpt lat="49.27796" lon="0.00699">
        <ele>151.6</ele>
        <time>2023-12-06T13:38:14Z</time>
      </trkpt>
      <trkpt lat="49.27791" lon="0.00709">
        <ele>151.6</ele>
        <time>2023-12-06T13:38:15Z</time>
      </trkpt>
      <trkpt lat="49.27786" lon="0.00719">
        <ele>151.4</ele>
        <time>2023-12-06T13:38:16Z</time>
      </trkpt>
      <trkpt lat="49.27781" lon="0.00728">
        <ele>151.4</ele>
        <time>2023-12-06T13:38:17Z</time>
      </trkpt>
      <trkpt lat="49.27776" lon="0.00738">
        <ele>151.2</ele>
        <time>2023-12-06T13:38:18Z</time>
      </trkpt>
      <trkpt lat="49.27771" lon="0.00747">
        <ele>151.2</ele>
        <time>2023-12-06T13:38:19Z</time>
      </trkpt>
      <trkpt lat="49.27766" lon="0.00757">
        <ele>151.2</ele>
        <time>2023-12-06T13:38:20Z</time>
      </trkpt>
      <trkpt lat="49.27761" lon="0.00766">
        <ele>151</ele>
        <time>2023-12-06T13:38:21Z</time>
      </trkpt>
      <trkpt lat="49.27755" lon="0.00775">
        <ele>151</ele>
        <time>2023-12-06T13:38:22Z</time>
      </trkpt>
      <trkpt lat="49.2775" lon="0.00785">
        <ele>151</ele>
        <time>2023-12-06T13:38:23Z</time>
      </trkpt>
      <trkpt lat="49.27745" lon="0.00794">
        <ele>151</ele>
        <time>2023-12-06T13:38:24Z</time>
      </trkpt>
      <trkpt lat="49.2774" lon="0.00803">
        <ele>150.8</ele>
        <time>2023-12-06T13:38:25Z</time>
      </trkpt>
      <trkpt lat="49.27735" lon="0.00813">
        <ele>150.8</ele>
        <time>2023-12-06T13:38:26Z</time>
      </trkpt>
      <trkpt lat="49.2773" lon="0.00823">
        <ele>151</ele>
        <time>2023-12-06T13:38:27Z</time>
      </trkpt>
      <trkpt lat="49.27726" lon="0.00832">
        <ele>151</ele>
        <time>2023-12-06T13:38:28Z</time>
      </trkpt>
      <trkpt lat="49.27721" lon="0.00842">
        <ele>151</ele>
        <time>2023-12-06T13:38:29Z</time>
      </trkpt>
      <trkpt lat="49.27717" lon="0.00852">
        <ele>151</ele>
        <time>2023-12-06T13:38:30Z</time>
      </trkpt>
      <trkpt lat="49.27712" lon="0.00862">
        <ele>150.8</ele>
        <time>2023-12-06T13:38:31Z</time>
      </trkpt>
      <trkpt lat="49.27708" lon="0.00873">
        <ele>150.8</ele>
        <time>2023-12-06T13:38:32Z</time>
      </trkpt>
      <trkpt lat="49.27705" lon="0.00883">
        <ele>150.8</ele>
        <time>2023-12-06T13:38:33Z</time>
      </trkpt>
      <trkpt lat="49.27701" lon="0.00893">
        <ele>150.8</ele>
        <time>2023-12-06T13:38:34Z</time>
      </trkpt>
      <trkpt lat="49.27697" lon="0.00904">
        <ele>150.8</ele>
        <time>2023-12-06T13:38:35Z</time>
      </trkpt>
      <trkpt lat="49.27694" lon="0.00916">
        <ele>150.8</ele>
        <time>2023-12-06T13:38:36Z</time>
      </trkpt>
      <trkpt lat="49.27691" lon="0.00927">
        <ele>150.8</ele>
        <time>2023-12-06T13:38:37Z</time>
      </trkpt>
      <trkpt lat="49.27688" lon="0.00939">
        <ele>150.8</ele>
        <time>2023-12-06T13:38:38Z</time>
      </trkpt>
      <trkpt lat="49.27686" lon="0.00951">
        <ele>150.8</ele>
        <time>2023-12-06T13:38:39Z</time>
      </trkpt>
      <trkpt lat="49.27684" lon="0.00964">
        <ele>150.8</ele>
        <time>2023-12-06T13:38:40Z</time>
      </trkpt>
      <trkpt lat="49.27682" lon="0.00976">
        <ele>150.8</ele>
        <time>2023-12-06T13:38:41Z</time>
      </trkpt>
      <trkpt lat="49.2768" lon="0.00989">
        <ele>150.6</ele>
        <time>2023-12-06T13:38:42Z</time>
      </trkpt>
      <trkpt lat="49.27679" lon="0.01002">
        <ele>150.6</ele>
        <time>2023-12-06T13:38:43Z</time>
      </trkpt>
      <trkpt lat="49.27677" lon="0.01016">
        <ele>150.6</ele>
        <time>2023-12-06T13:38:44Z</time>
      </trkpt>
      <trkpt lat="49.27675" lon="0.01029">
        <ele>150.4</ele>
        <time>2023-12-06T13:38:45Z</time>
      </trkpt>
      <trkpt lat="49.27674" lon="0.01042">
        <ele>150.4</ele>
        <time>2023-12-06T13:38:46Z</time>
      </trkpt>
      <trkpt lat="49.27672" lon="0.01055">
        <ele>150.4</ele>
        <time>2023-12-06T13:38:47Z</time>
      </trkpt>
      <trkpt lat="49.27671" lon="0.01068">
        <ele>150.4</ele>
        <time>2023-12-06T13:38:48Z</time>
      </trkpt>
      <trkpt lat="49.2767" lon="0.0108">
        <ele>150.4</ele>
        <time>2023-12-06T13:38:49Z</time>
      </trkpt>
      <trkpt lat="49.27668" lon="0.01093">
        <ele>150.4</ele>
        <time>2023-12-06T13:38:50Z</time>
      </trkpt>
      <trkpt lat="49.27667" lon="0.01105">
        <ele>150.4</ele>
        <time>2023-12-06T13:38:51Z</time>
      </trkpt>
      <trkpt lat="49.27666" lon="0.01116">
        <ele>150.4</ele>
        <time>2023-12-06T13:38:52Z</time>
      </trkpt>
      <trkpt lat="49.27664" lon="0.01128">
        <ele>150.4</ele>
        <time>2023-12-06T13:38:53Z</time>
      </trkpt>
      <trkpt lat="49.27663" lon="0.01139">
        <ele>150.4</ele>
        <time>2023-12-06T13:38:54Z</time>
      </trkpt>
      <trkpt lat="49.27662" lon="0.0115">
        <ele>150.4</ele>
        <time>2023-12-06T13:38:55Z</time>
      </trkpt>
      <trkpt lat="49.2766" lon="0.01161">
        <ele>150.4</ele>
        <time>2023-12-06T13:38:56Z</time>
      </trkpt>
      <trkpt lat="49.27659" lon="0.01172">
        <ele>150.4</ele>
        <time>2023-12-06T13:38:57Z</time>
      </trkpt>
      <trkpt lat="49.27657" lon="0.01183">
        <ele>150.4</ele>
        <time>2023-12-06T13:38:58Z</time>
      </trkpt>
      <trkpt lat="49.27656" lon="0.01194">
        <ele>150.2</ele>
        <time>2023-12-06T13:38:59Z</time>
      </trkpt>
      <trkpt lat="49.27655" lon="0.01205">
        <ele>150.2</ele>
        <time>2023-12-06T13:39:00Z</time>
      </trkpt>
      <trkpt lat="49.27653" lon="0.01216">
        <ele>150.2</ele>
        <time>2023-12-06T13:39:01Z</time>
      </trkpt>
      <trkpt lat="49.27652" lon="0.01228">
        <ele>150.2</ele>
        <time>2023-12-06T13:39:02Z</time>
      </trkpt>
      <trkpt lat="49.27651" lon="0.01239">
        <ele>150.2</ele>
        <time>2023-12-06T13:39:03Z</time>
      </trkpt>
      <trkpt lat="49.27649" lon="0.01251">
        <ele>150.2</ele>
        <time>2023-12-06T13:39:04Z</time>
      </trkpt>
      <trkpt lat="49.27648" lon="0.01262">
        <ele>150.2</ele>
        <time>2023-12-06T13:39:05Z</time>
      </trkpt>
      <trkpt lat="49.27647" lon="0.01274">
        <ele>150.2</ele>
        <time>2023-12-06T13:39:06Z</time>
      </trkpt>
      <trkpt lat="49.27645" lon="0.01285">
        <ele>150.2</ele>
        <time>2023-12-06T13:39:07Z</time>
      </trkpt>
      <trkpt lat="49.27644" lon="0.01297">
        <ele>150.2</ele>
        <time>2023-12-06T13:39:08Z</time>
      </trkpt>
      <trkpt lat="49.27643" lon="0.01308">
        <ele>150.2</ele>
        <time>2023-12-06T13:39:09Z</time>
      </trkpt>
      <trkpt lat="49.27641" lon="0.01319">
        <ele>150.2</ele>
        <time>2023-12-06T13:39:10Z</time>
      </trkpt>
      <trkpt lat="49.2764" lon="0.01331">
        <ele>150.2</ele>
        <time>2023-12-06T13:39:11Z</time>
      </trkpt>
      <trkpt lat="49.27638" lon="0.01342">
        <ele>150.2</ele>
        <time>2023-12-06T13:39:12Z</time>
      </trkpt>
      <trkpt lat="49.27637" lon="0.01354">
        <ele>150</ele>
        <time>2023-12-06T13:39:13Z</time>
      </trkpt>
      <trkpt lat="49.27635" lon="0.01366">
        <ele>150</ele>
        <time>2023-12-06T13:39:14Z</time>
      </trkpt>
      <trkpt lat="49.27634" lon="0.01377">
        <ele>149.8</ele>
        <time>2023-12-06T13:39:15Z</time>
      </trkpt>
      <trkpt lat="49.27632" lon="0.01388">
        <ele>149.8</ele>
        <time>2023-12-06T13:39:16Z</time>
      </trkpt>
      <trkpt lat="49.27631" lon="0.014">
        <ele>149.6</ele>
        <time>2023-12-06T13:39:17Z</time>
      </trkpt>
      <trkpt lat="49.27629" lon="0.01411">
        <ele>149.6</ele>
        <time>2023-12-06T13:39:18Z</time>
      </trkpt>
      <trkpt lat="49.27627" lon="0.01422">
        <ele>149.4</ele>
        <time>2023-12-06T13:39:19Z</time>
      </trkpt>
      <trkpt lat="49.27626" lon="0.01433">
        <ele>149.4</ele>
        <time>2023-12-06T13:39:20Z</time>
      </trkpt>
      <trkpt lat="49.27624" lon="0.01445">
        <ele>149.4</ele>
        <time>2023-12-06T13:39:21Z</time>
      </trkpt>
      <trkpt lat="49.27622" lon="0.01456">
        <ele>149.4</ele>
        <time>2023-12-06T13:39:22Z</time>
      </trkpt>
      <trkpt lat="49.27621" lon="0.01467">
        <ele>149.4</ele>
        <time>2023-12-06T13:39:23Z</time>
      </trkpt>
      <trkpt lat="49.27619" lon="0.01478">
        <ele>149.4</ele>
        <time>2023-12-06T13:39:24Z</time>
      </trkpt>
      <trkpt lat="49.27617" lon="0.0149">
        <ele>149.4</ele>
        <time>2023-12-06T13:39:25Z</time>
      </trkpt>
      <trkpt lat="49.27614" lon="0.01501">
        <ele>149.4</ele>
        <time>2023-12-06T13:39:26Z</time>
      </trkpt>
      <trkpt lat="49.27612" lon="0.01512">
        <ele>149.4</ele>
        <time>2023-12-06T13:39:27Z</time>
      </trkpt>
      <trkpt lat="49.2761" lon="0.01523">
        <ele>149.4</ele>
        <time>2023-12-06T13:39:28Z</time>
      </trkpt>
      <trkpt lat="49.27608" lon="0.01534">
        <ele>149.4</ele>
        <time>2023-12-06T13:39:29Z</time>
      </trkpt>
      <trkpt lat="49.27606" lon="0.01545">
        <ele>149.4</ele>
        <time>2023-12-06T13:39:30Z</time>
      </trkpt>
      <trkpt lat="49.27603" lon="0.01555">
        <ele>149.4</ele>
        <time>2023-12-06T13:39:31Z</time>
      </trkpt>
      <trkpt lat="49.27601" lon="0.01566">
        <ele>149.4</ele>
        <time>2023-12-06T13:39:32Z</time>
      </trkpt>
      <trkpt lat="49.27598" lon="0.01577">
        <ele>149.4</ele>
        <time>2023-12-06T13:39:33Z</time>
      </trkpt>
      <trkpt lat="49.27595" lon="0.01587">
        <ele>149.4</ele>
        <time>2023-12-06T13:39:34Z</time>
      </trkpt>
      <trkpt lat="49.27593" lon="0.01597">
        <ele>149.4</ele>
        <time>2023-12-06T13:39:35Z</time>
      </trkpt>
      <trkpt lat="49.2759" lon="0.01608">
        <ele>149.4</ele>
        <time>2023-12-06T13:39:36Z</time>
      </trkpt>
      <trkpt lat="49.27587" lon="0.01618">
        <ele>149.4</ele>
        <time>2023-12-06T13:39:37Z</time>
      </trkpt>
      <trkpt lat="49.27584" lon="0.01628">
        <ele>149.4</ele>
        <time>2023-12-06T13:39:38Z</time>
      </trkpt>
      <trkpt lat="49.27581" lon="0.01638">
        <ele>149.4</ele>
        <time>2023-12-06T13:39:39Z</time>
      </trkpt>
      <trkpt lat="49.27578" lon="0.01648">
        <ele>149.4</ele>
        <time>2023-12-06T13:39:40Z</time>
      </trkpt>
      <trkpt lat="49.27575" lon="0.01658">
        <ele>149.4</ele>
        <time>2023-12-06T13:39:41Z</time>
      </trkpt>
      <trkpt lat="49.27572" lon="0.01669">
        <ele>149.4</ele>
        <time>2023-12-06T13:39:42Z</time>
      </trkpt>
      <trkpt lat="49.27569" lon="0.01679">
        <ele>149.4</ele>
        <time>2023-12-06T13:39:43Z</time>
      </trkpt>
      <trkpt lat="49.27566" lon="0.01689">
        <ele>149.4</ele>
        <time>2023-12-06T13:39:44Z</time>
      </trkpt>
      <trkpt lat="49.27563" lon="0.017">
        <ele>149.4</ele>
        <time>2023-12-06T13:39:45Z</time>
      </trkpt>
      <trkpt lat="49.27559" lon="0.0171">
        <ele>149.4</ele>
        <time>2023-12-06T13:39:46Z</time>
      </trkpt>
      <trkpt lat="49.27556" lon="0.0172">
        <ele>149.4</ele>
        <time>2023-12-06T13:39:47Z</time>
      </trkpt>
      <trkpt lat="49.27554" lon="0.01731">
        <ele>149.4</ele>
        <time>2023-12-06T13:39:48Z</time>
      </trkpt>
      <trkpt lat="49.27551" lon="0.01741">
        <ele>149.4</ele>
        <time>2023-12-06T13:39:49Z</time>
      </trkpt>
      <trkpt lat="49.27548" lon="0.01751">
        <ele>149.4</ele>
        <time>2023-12-06T13:39:50Z</time>
      </trkpt>
      <trkpt lat="49.27545" lon="0.01761">
        <ele>149.4</ele>
        <time>2023-12-06T13:39:51Z</time>
      </trkpt>
      <trkpt lat="49.27542" lon="0.01771">
        <ele>149.4</ele>
        <time>2023-12-06T13:39:52Z</time>
      </trkpt>
      <trkpt lat="49.27538" lon="0.01781">
        <ele>149.4</ele>
        <time>2023-12-06T13:39:53Z</time>
      </trkpt>
      <trkpt lat="49.27535" lon="0.01792">
        <ele>149.4</ele>
        <time>2023-12-06T13:39:54Z</time>
      </trkpt>
      <trkpt lat="49.27532" lon="0.01802">
        <ele>149.4</ele>
        <time>2023-12-06T13:39:55Z</time>
      </trkpt>
      <trkpt lat="49.27529" lon="0.01813">
        <ele>149.6</ele>
        <time>2023-12-06T13:39:56Z</time>
      </trkpt>
      <trkpt lat="49.27526" lon="0.01824">
        <ele>149.4</ele>
        <time>2023-12-06T13:39:57Z</time>
      </trkpt>
      <trkpt lat="49.27523" lon="0.01835">
        <ele>149.4</ele>
        <time>2023-12-06T13:39:58Z</time>
      </trkpt>
      <trkpt lat="49.27519" lon="0.01846">
        <ele>149.4</ele>
        <time>2023-12-06T13:39:59Z</time>
      </trkpt>
      <trkpt lat="49.27516" lon="0.01857">
        <ele>149.4</ele>
        <time>2023-12-06T13:40:00Z</time>
      </trkpt>
      <trkpt lat="49.27512" lon="0.01868">
        <ele>149.4</ele>
        <time>2023-12-06T13:40:01Z</time>
      </trkpt>
      <trkpt lat="49.27509" lon="0.01878">
        <ele>149.4</ele>
        <time>2023-12-06T13:40:02Z</time>
      </trkpt>
      <trkpt lat="49.27506" lon="0.01889">
        <ele>149.6</ele>
        <time>2023-12-06T13:40:03Z</time>
      </trkpt>
      <trkpt lat="49.27503" lon="0.019">
        <ele>149.6</ele>
        <time>2023-12-06T13:40:04Z</time>
      </trkpt>
      <trkpt lat="49.275" lon="0.0191">
        <ele>149.6</ele>
        <time>2023-12-06T13:40:05Z</time>
      </trkpt>
      <trkpt lat="49.27497" lon="0.01921">
        <ele>149.6</ele>
        <time>2023-12-06T13:40:06Z</time>
      </trkpt>
      <trkpt lat="49.27494" lon="0.01931">
        <ele>149.4</ele>
        <time>2023-12-06T13:40:07Z</time>
      </trkpt>
      <trkpt lat="49.27491" lon="0.01941">
        <ele>149.4</ele>
        <time>2023-12-06T13:40:08Z</time>
      </trkpt>
      <trkpt lat="49.27487" lon="0.01951">
        <ele>149.4</ele>
        <time>2023-12-06T13:40:09Z</time>
      </trkpt>
      <trkpt lat="49.27485" lon="0.01961">
        <ele>149.4</ele>
        <time>2023-12-06T13:40:10Z</time>
      </trkpt>
      <trkpt lat="49.27482" lon="0.0197">
        <ele>149.4</ele>
        <time>2023-12-06T13:40:11Z</time>
      </trkpt>
      <trkpt lat="49.27479" lon="0.0198">
        <ele>149.4</ele>
        <time>2023-12-06T13:40:12Z</time>
      </trkpt>
      <trkpt lat="49.27476" lon="0.0199">
        <ele>149.4</ele>
        <time>2023-12-06T13:40:13Z</time>
      </trkpt>
      <trkpt lat="49.27473" lon="0.02">
        <ele>149.6</ele>
        <time>2023-12-06T13:40:14Z</time>
      </trkpt>
      <trkpt lat="49.2747" lon="0.0201">
        <ele>149.6</ele>
        <time>2023-12-06T13:40:15Z</time>
      </trkpt>
      <trkpt lat="49.27467" lon="0.0202">
        <ele>149.6</ele>
        <time>2023-12-06T13:40:16Z</time>
      </trkpt>
      <trkpt lat="49.27463" lon="0.0203">
        <ele>149.6</ele>
        <time>2023-12-06T13:40:17Z</time>
      </trkpt>
      <trkpt lat="49.2746" lon="0.0204">
        <ele>149.6</ele>
        <time>2023-12-06T13:40:18Z</time>
      </trkpt>
      <trkpt lat="49.27456" lon="0.0205">
        <ele>149.6</ele>
        <time>2023-12-06T13:40:19Z</time>
      </trkpt>
      <trkpt lat="49.27453" lon="0.02059">
        <ele>149.6</ele>
        <time>2023-12-06T13:40:20Z</time>
      </trkpt>
      <trkpt lat="49.27449" lon="0.02069">
        <ele>149.6</ele>
        <time>2023-12-06T13:40:21Z</time>
      </trkpt>
      <trkpt lat="49.27446" lon="0.02079">
        <ele>149.6</ele>
        <time>2023-12-06T13:40:22Z</time>
      </trkpt>
      <trkpt lat="49.27442" lon="0.02089">
        <ele>149.6</ele>
        <time>2023-12-06T13:40:23Z</time>
      </trkpt>
      <trkpt lat="49.27438" lon="0.02099">
        <ele>149.6</ele>
        <time>2023-12-06T13:40:24Z</time>
      </trkpt>
      <trkpt lat="49.27434" lon="0.02108">
        <ele>149.8</ele>
        <time>2023-12-06T13:40:25Z</time>
      </trkpt>
      <trkpt lat="49.2743" lon="0.02118">
        <ele>149.8</ele>
        <time>2023-12-06T13:40:26Z</time>
      </trkpt>
      <trkpt lat="49.27426" lon="0.02127">
        <ele>149.8</ele>
        <time>2023-12-06T13:40:27Z</time>
      </trkpt>
      <trkpt lat="49.27422" lon="0.02137">
        <ele>149.8</ele>
        <time>2023-12-06T13:40:28Z</time>
      </trkpt>
      <trkpt lat="49.27418" lon="0.02147">
        <ele>150</ele>
        <time>2023-12-06T13:40:29Z</time>
      </trkpt>
      <trkpt lat="49.27414" lon="0.02157">
        <ele>150</ele>
        <time>2023-12-06T13:40:30Z</time>
      </trkpt>
      <trkpt lat="49.27411" lon="0.02167">
        <ele>150</ele>
        <time>2023-12-06T13:40:31Z</time>
      </trkpt>
      <trkpt lat="49.27407" lon="0.02177">
        <ele>150</ele>
        <time>2023-12-06T13:40:32Z</time>
      </trkpt>
      <trkpt lat="49.27403" lon="0.02186">
        <ele>149.8</ele>
        <time>2023-12-06T13:40:33Z</time>
      </trkpt>
      <trkpt lat="49.27399" lon="0.02196">
        <ele>149.6</ele>
        <time>2023-12-06T13:40:34Z</time>
      </trkpt>
      <trkpt lat="49.27395" lon="0.02206">
        <ele>149.6</ele>
        <time>2023-12-06T13:40:35Z</time>
      </trkpt>
      <trkpt lat="49.27391" lon="0.02216">
        <ele>149.4</ele>
        <time>2023-12-06T13:40:36Z</time>
      </trkpt>
      <trkpt lat="49.27387" lon="0.02226">
        <ele>149.4</ele>
        <time>2023-12-06T13:40:37Z</time>
      </trkpt>
      <trkpt lat="49.27383" lon="0.02235">
        <ele>149.4</ele>
        <time>2023-12-06T13:40:38Z</time>
      </trkpt>
      <trkpt lat="49.27379" lon="0.02245">
        <ele>149.4</ele>
        <time>2023-12-06T13:40:39Z</time>
      </trkpt>
      <trkpt lat="49.27376" lon="0.02254">
        <ele>149.4</ele>
        <time>2023-12-06T13:40:40Z</time>
      </trkpt>
      <trkpt lat="49.27372" lon="0.02263">
        <ele>149.4</ele>
        <time>2023-12-06T13:40:41Z</time>
      </trkpt>
      <trkpt lat="49.27368" lon="0.02273">
        <ele>149.4</ele>
        <time>2023-12-06T13:40:42Z</time>
      </trkpt>
      <trkpt lat="49.27365" lon="0.02282">
        <ele>149.4</ele>
        <time>2023-12-06T13:40:43Z</time>
      </trkpt>
      <trkpt lat="49.27361" lon="0.0229">
        <ele>149.4</ele>
        <time>2023-12-06T13:40:44Z</time>
      </trkpt>
      <trkpt lat="49.27357" lon="0.023">
        <ele>149.4</ele>
        <time>2023-12-06T13:40:45Z</time>
      </trkpt>
      <trkpt lat="49.27354" lon="0.02308">
        <ele>149.4</ele>
        <time>2023-12-06T13:40:46Z</time>
      </trkpt>
      <trkpt lat="49.2735" lon="0.02317">
        <ele>149.4</ele>
        <time>2023-12-06T13:40:47Z</time>
      </trkpt>
      <trkpt lat="49.27347" lon="0.02325">
        <ele>149.4</ele>
        <time>2023-12-06T13:40:48Z</time>
      </trkpt>
      <trkpt lat="49.27343" lon="0.02334">
        <ele>149.4</ele>
        <time>2023-12-06T13:40:49Z</time>
      </trkpt>
      <trkpt lat="49.2734" lon="0.02342">
        <ele>149.4</ele>
        <time>2023-12-06T13:40:50Z</time>
      </trkpt>
      <trkpt lat="49.27336" lon="0.02351">
        <ele>149.4</ele>
        <time>2023-12-06T13:40:51Z</time>
      </trkpt>
      <trkpt lat="49.27333" lon="0.02359">
        <ele>149.4</ele>
        <time>2023-12-06T13:40:52Z</time>
      </trkpt>
      <trkpt lat="49.27329" lon="0.02368">
        <ele>149.4</ele>
        <time>2023-12-06T13:40:53Z</time>
      </trkpt>
      <trkpt lat="49.27326" lon="0.02376">
        <ele>149.4</ele>
        <time>2023-12-06T13:40:54Z</time>
      </trkpt>
      <trkpt lat="49.27323" lon="0.02384">
        <ele>149.4</ele>
        <time>2023-12-06T13:40:55Z</time>
      </trkpt>
      <trkpt lat="49.2732" lon="0.02392">
        <ele>149.4</ele>
        <time>2023-12-06T13:40:56Z</time>
      </trkpt>
      <trkpt lat="49.27317" lon="0.02399">
        <ele>149.4</ele>
        <time>2023-12-06T13:40:57Z</time>
      </trkpt>
      <trkpt lat="49.27315" lon="0.02407">
        <ele>149.4</ele>
        <time>2023-12-06T13:40:58Z</time>
      </trkpt>
      <trkpt lat="49.27314" lon="0.02413">
        <ele>149.4</ele>
        <time>2023-12-06T13:40:59Z</time>
      </trkpt>
      <trkpt lat="49.27314" lon="0.0242">
        <ele>149.4</ele>
        <time>2023-12-06T13:41:00Z</time>
      </trkpt>
      <trkpt lat="49.27316" lon="0.02426">
        <ele>149.4</ele>
        <time>2023-12-06T13:41:01Z</time>
      </trkpt>
      <trkpt lat="49.27319" lon="0.02432">
        <ele>149.4</ele>
        <time>2023-12-06T13:41:02Z</time>
      </trkpt>
      <trkpt lat="49.27323" lon="0.02437">
        <ele>149.4</ele>
        <time>2023-12-06T13:41:03Z</time>
      </trkpt>
      <trkpt lat="49.27327" lon="0.02441">
        <ele>149.4</ele>
        <time>2023-12-06T13:41:04Z</time>
      </trkpt>
      <trkpt lat="49.27332" lon="0.02445">
        <ele>149.4</ele>
        <time>2023-12-06T13:41:05Z</time>
      </trkpt>
      <trkpt lat="49.27336" lon="0.02449">
        <ele>149.4</ele>
        <time>2023-12-06T13:41:06Z</time>
      </trkpt>
      <trkpt lat="49.27341" lon="0.02453">
        <ele>149.6</ele>
        <time>2023-12-06T13:41:07Z</time>
      </trkpt>
      <trkpt lat="49.27346" lon="0.02457">
        <ele>150</ele>
        <time>2023-12-06T13:41:08Z</time>
      </trkpt>
      <trkpt lat="49.27352" lon="0.02461">
        <ele>150</ele>
        <time>2023-12-06T13:41:09Z</time>
      </trkpt>
      <trkpt lat="49.27355" lon="0.02465">
        <ele>150.2</ele>
        <time>2023-12-06T13:41:10Z</time>
      </trkpt>
      <trkpt lat="49.2736" lon="0.02469">
        <ele>150.2</ele>
        <time>2023-12-06T13:41:11Z</time>
      </trkpt>
      <trkpt lat="49.27366" lon="0.02474">
        <ele>150.2</ele>
        <time>2023-12-06T13:41:12Z</time>
      </trkpt>
      <trkpt lat="49.27369" lon="0.02478">
        <ele>150.4</ele>
        <time>2023-12-06T13:41:13Z</time>
      </trkpt>
      <trkpt lat="49.27374" lon="0.02483">
        <ele>150.4</ele>
        <time>2023-12-06T13:41:14Z</time>
      </trkpt>
      <trkpt lat="49.27378" lon="0.02488">
        <ele>150.4</ele>
        <time>2023-12-06T13:41:15Z</time>
      </trkpt>
      <trkpt lat="49.27383" lon="0.02494">
        <ele>150.4</ele>
        <time>2023-12-06T13:41:16Z</time>
      </trkpt>
      <trkpt lat="49.27388" lon="0.02502">
        <ele>150.6</ele>
        <time>2023-12-06T13:41:17Z</time>
      </trkpt>
      <trkpt lat="49.27392" lon="0.02509">
        <ele>150.6</ele>
        <time>2023-12-06T13:41:18Z</time>
      </trkpt>
      <trkpt lat="49.27396" lon="0.02515">
        <ele>150.6</ele>
        <time>2023-12-06T13:41:19Z</time>
      </trkpt>
      <trkpt lat="49.274" lon="0.02523">
        <ele>150.8</ele>
        <time>2023-12-06T13:41:20Z</time>
      </trkpt>
      <trkpt lat="49.27405" lon="0.02531">
        <ele>150.8</ele>
        <time>2023-12-06T13:41:21Z</time>
      </trkpt>
      <trkpt lat="49.2741" lon="0.0254">
        <ele>151</ele>
        <time>2023-12-06T13:41:22Z</time>
      </trkpt>
      <trkpt lat="49.27414" lon="0.02549">
        <ele>151</ele>
        <time>2023-12-06T13:41:23Z</time>
      </trkpt>
      <trkpt lat="49.2742" lon="0.02559">
        <ele>151</ele>
        <time>2023-12-06T13:41:24Z</time>
      </trkpt>
      <trkpt lat="49.27424" lon="0.02566">
        <ele>151</ele>
        <time>2023-12-06T13:41:25Z</time>
      </trkpt>
      <trkpt lat="49.27429" lon="0.02575">
        <ele>151.2</ele>
        <time>2023-12-06T13:41:26Z</time>
      </trkpt>
      <trkpt lat="49.27435" lon="0.02586">
        <ele>151.4</ele>
        <time>2023-12-06T13:41:27Z</time>
      </trkpt>
      <trkpt lat="49.27439" lon="0.02593">
        <ele>151.2</ele>
        <time>2023-12-06T13:41:28Z</time>
      </trkpt>
      <trkpt lat="49.27443" lon="0.02602">
        <ele>151.2</ele>
        <time>2023-12-06T13:41:29Z</time>
      </trkpt>
      <trkpt lat="49.27448" lon="0.02614">
        <ele>151.4</ele>
        <time>2023-12-06T13:41:30Z</time>
      </trkpt>
      <trkpt lat="49.27452" lon="0.02621">
        <ele>151.4</ele>
        <time>2023-12-06T13:41:31Z</time>
      </trkpt>
      <trkpt lat="49.27456" lon="0.0263">
        <ele>151.4</ele>
        <time>2023-12-06T13:41:32Z</time>
      </trkpt>
      <trkpt lat="49.27461" lon="0.02639">
        <ele>151.4</ele>
        <time>2023-12-06T13:41:33Z</time>
      </trkpt>
      <trkpt lat="49.27466" lon="0.02647">
        <ele>151</ele>
        <time>2023-12-06T13:41:34Z</time>
      </trkpt>
      <trkpt lat="49.27471" lon="0.02656">
        <ele>151</ele>
        <time>2023-12-06T13:41:35Z</time>
      </trkpt>
      <trkpt lat="49.27475" lon="0.02664">
        <ele>151</ele>
        <time>2023-12-06T13:41:36Z</time>
      </trkpt>
      <trkpt lat="49.2748" lon="0.02672">
        <ele>150.6</ele>
        <time>2023-12-06T13:41:37Z</time>
      </trkpt>
      <trkpt lat="49.27486" lon="0.02682">
        <ele>150.4</ele>
        <time>2023-12-06T13:41:38Z</time>
      </trkpt>
      <trkpt lat="49.2749" lon="0.02688">
        <ele>150</ele>
        <time>2023-12-06T13:41:39Z</time>
      </trkpt>
      <trkpt lat="49.27496" lon="0.02697">
        <ele>150</ele>
        <time>2023-12-06T13:41:40Z</time>
      </trkpt>
      <trkpt lat="49.27501" lon="0.02705">
        <ele>149.8</ele>
        <time>2023-12-06T13:41:41Z</time>
      </trkpt>
      <trkpt lat="49.27506" lon="0.02713">
        <ele>149.6</ele>
        <time>2023-12-06T13:41:42Z</time>
      </trkpt>
      <trkpt lat="49.27511" lon="0.02721">
        <ele>149.4</ele>
        <time>2023-12-06T13:41:43Z</time>
      </trkpt>
      <trkpt lat="49.27516" lon="0.02729">
        <ele>149.2</ele>
        <time>2023-12-06T13:41:44Z</time>
      </trkpt>
      <trkpt lat="49.27522" lon="0.02737">
        <ele>149.2</ele>
        <time>2023-12-06T13:41:45Z</time>
      </trkpt>
      <trkpt lat="49.27527" lon="0.02745">
        <ele>149</ele>
        <time>2023-12-06T13:41:46Z</time>
      </trkpt>
      <trkpt lat="49.27533" lon="0.02753">
        <ele>149</ele>
        <time>2023-12-06T13:41:47Z</time>
      </trkpt>
      <trkpt lat="49.27538" lon="0.02761">
        <ele>148.8</ele>
        <time>2023-12-06T13:41:48Z</time>
      </trkpt>
      <trkpt lat="49.27544" lon="0.02769">
        <ele>148.8</ele>
        <time>2023-12-06T13:41:49Z</time>
      </trkpt>
      <trkpt lat="49.27551" lon="0.02778">
        <ele>148.6</ele>
        <time>2023-12-06T13:41:50Z</time>
      </trkpt>
      <trkpt lat="49.27556" lon="0.02784">
        <ele>148.6</ele>
        <time>2023-12-06T13:41:51Z</time>
      </trkpt>
      <trkpt lat="49.27562" lon="0.02791">
        <ele>148.4</ele>
        <time>2023-12-06T13:41:52Z</time>
      </trkpt>
      <trkpt lat="49.27568" lon="0.02799">
        <ele>148.2</ele>
        <time>2023-12-06T13:41:53Z</time>
      </trkpt>
      <trkpt lat="49.27574" lon="0.02806">
        <ele>148.2</ele>
        <time>2023-12-06T13:41:54Z</time>
      </trkpt>
      <trkpt lat="49.27581" lon="0.02813">
        <ele>148</ele>
        <time>2023-12-06T13:41:55Z</time>
      </trkpt>
      <trkpt lat="49.27587" lon="0.0282">
        <ele>147.8</ele>
        <time>2023-12-06T13:41:56Z</time>
      </trkpt>
      <trkpt lat="49.27593" lon="0.02827">
        <ele>147.4</ele>
        <time>2023-12-06T13:41:57Z</time>
      </trkpt>
      <trkpt lat="49.276" lon="0.02834">
        <ele>147.2</ele>
        <time>2023-12-06T13:41:58Z</time>
      </trkpt>
      <trkpt lat="49.27606" lon="0.02842">
        <ele>147</ele>
        <time>2023-12-06T13:41:59Z</time>
      </trkpt>
      <trkpt lat="49.27612" lon="0.02849">
        <ele>146.8</ele>
        <time>2023-12-06T13:42:00Z</time>
      </trkpt>
      <trkpt lat="49.27619" lon="0.02856">
        <ele>146.6</ele>
        <time>2023-12-06T13:42:01Z</time>
      </trkpt>
      <trkpt lat="49.27625" lon="0.02863">
        <ele>146.6</ele>
        <time>2023-12-06T13:42:02Z</time>
      </trkpt>
      <trkpt lat="49.27631" lon="0.0287">
        <ele>146.4</ele>
        <time>2023-12-06T13:42:03Z</time>
      </trkpt>
      <trkpt lat="49.27638" lon="0.02878">
        <ele>146.4</ele>
        <time>2023-12-06T13:42:04Z</time>
      </trkpt>
      <trkpt lat="49.27644" lon="0.02885">
        <ele>146.4</ele>
        <time>2023-12-06T13:42:05Z</time>
      </trkpt>
      <trkpt lat="49.27651" lon="0.02892">
        <ele>146.2</ele>
        <time>2023-12-06T13:42:06Z</time>
      </trkpt>
      <trkpt lat="49.27657" lon="0.02899">
        <ele>146.2</ele>
        <time>2023-12-06T13:42:07Z</time>
      </trkpt>
      <trkpt lat="49.27664" lon="0.02907">
        <ele>146.2</ele>
        <time>2023-12-06T13:42:08Z</time>
      </trkpt>
      <trkpt lat="49.2767" lon="0.02914">
        <ele>146.2</ele>
        <time>2023-12-06T13:42:09Z</time>
      </trkpt>
      <trkpt lat="49.27677" lon="0.02922">
        <ele>146</ele>
        <time>2023-12-06T13:42:10Z</time>
      </trkpt>
      <trkpt lat="49.27683" lon="0.02929">
        <ele>146</ele>
        <time>2023-12-06T13:42:11Z</time>
      </trkpt>
      <trkpt lat="49.2769" lon="0.02936">
        <ele>145.8</ele>
        <time>2023-12-06T13:42:12Z</time>
      </trkpt>
      <trkpt lat="49.27696" lon="0.02944">
        <ele>145.8</ele>
        <time>2023-12-06T13:42:13Z</time>
      </trkpt>
      <trkpt lat="49.27703" lon="0.02951">
        <ele>145.6</ele>
        <time>2023-12-06T13:42:14Z</time>
      </trkpt>
      <trkpt lat="49.27709" lon="0.02958">
        <ele>145.4</ele>
        <time>2023-12-06T13:42:15Z</time>
      </trkpt>
      <trkpt lat="49.27716" lon="0.02965">
        <ele>145.4</ele>
        <time>2023-12-06T13:42:16Z</time>
      </trkpt>
      <trkpt lat="49.27722" lon="0.02973">
        <ele>145.2</ele>
        <time>2023-12-06T13:42:17Z</time>
      </trkpt>
      <trkpt lat="49.27728" lon="0.0298">
        <ele>144.8</ele>
        <time>2023-12-06T13:42:18Z</time>
      </trkpt>
      <trkpt lat="49.27734" lon="0.02988">
        <ele>144.6</ele>
        <time>2023-12-06T13:42:19Z</time>
      </trkpt>
      <trkpt lat="49.27741" lon="0.02996">
        <ele>144.6</ele>
        <time>2023-12-06T13:42:20Z</time>
      </trkpt>
      <trkpt lat="49.27747" lon="0.03004">
        <ele>144.6</ele>
        <time>2023-12-06T13:42:21Z</time>
      </trkpt>
      <trkpt lat="49.27753" lon="0.03012">
        <ele>144.4</ele>
        <time>2023-12-06T13:42:22Z</time>
      </trkpt>
      <trkpt lat="49.27758" lon="0.0302">
        <ele>144.4</ele>
        <time>2023-12-06T13:42:23Z</time>
      </trkpt>
      <trkpt lat="49.27764" lon="0.03028">
        <ele>144.4</ele>
        <time>2023-12-06T13:42:24Z</time>
      </trkpt>
      <trkpt lat="49.2777" lon="0.03037">
        <ele>144.4</ele>
        <time>2023-12-06T13:42:25Z</time>
      </trkpt>
      <trkpt lat="49.27775" lon="0.03045">
        <ele>144.4</ele>
        <time>2023-12-06T13:42:26Z</time>
      </trkpt>
      <trkpt lat="49.2778" lon="0.03054">
        <ele>144.4</ele>
        <time>2023-12-06T13:42:27Z</time>
      </trkpt>
      <trkpt lat="49.27786" lon="0.03063">
        <ele>144.4</ele>
        <time>2023-12-06T13:42:28Z</time>
      </trkpt>
      <trkpt lat="49.27791" lon="0.03072">
        <ele>144.2</ele>
        <time>2023-12-06T13:42:29Z</time>
      </trkpt>
      <trkpt lat="49.27796" lon="0.03081">
        <ele>144.2</ele>
        <time>2023-12-06T13:42:30Z</time>
      </trkpt>
      <trkpt lat="49.27802" lon="0.03091">
        <ele>144.2</ele>
        <time>2023-12-06T13:42:31Z</time>
      </trkpt>
      <trkpt lat="49.27807" lon="0.031">
        <ele>144.2</ele>
        <time>2023-12-06T13:42:32Z</time>
      </trkpt>
      <trkpt lat="49.27812" lon="0.03109">
        <ele>144.2</ele>
        <time>2023-12-06T13:42:33Z</time>
      </trkpt>
      <trkpt lat="49.27817" lon="0.03119">
        <ele>144.2</ele>
        <time>2023-12-06T13:42:34Z</time>
      </trkpt>
      <trkpt lat="49.27822" lon="0.03128">
        <ele>144.2</ele>
        <time>2023-12-06T13:42:35Z</time>
      </trkpt>
      <trkpt lat="49.27828" lon="0.03137">
        <ele>144</ele>
        <time>2023-12-06T13:42:36Z</time>
      </trkpt>
      <trkpt lat="49.27833" lon="0.03147">
        <ele>144</ele>
        <time>2023-12-06T13:42:37Z</time>
      </trkpt>
      <trkpt lat="49.27838" lon="0.03156">
        <ele>143.8</ele>
        <time>2023-12-06T13:42:38Z</time>
      </trkpt>
      <trkpt lat="49.27843" lon="0.03166">
        <ele>143.6</ele>
        <time>2023-12-06T13:42:39Z</time>
      </trkpt>
      <trkpt lat="49.27848" lon="0.03176">
        <ele>143.4</ele>
        <time>2023-12-06T13:42:40Z</time>
      </trkpt>
      <trkpt lat="49.27852" lon="0.03186">
        <ele>143.4</ele>
        <time>2023-12-06T13:42:41Z</time>
      </trkpt>
      <trkpt lat="49.27857" lon="0.03196">
        <ele>143.2</ele>
        <time>2023-12-06T13:42:42Z</time>
      </trkpt>
      <trkpt lat="49.27861" lon="0.03207">
        <ele>143.2</ele>
        <time>2023-12-06T13:42:43Z</time>
      </trkpt>
      <trkpt lat="49.27865" lon="0.03217">
        <ele>143.2</ele>
        <time>2023-12-06T13:42:44Z</time>
      </trkpt>
      <trkpt lat="49.27868" lon="0.03228">
        <ele>143</ele>
        <time>2023-12-06T13:42:45Z</time>
      </trkpt>
      <trkpt lat="49.27872" lon="0.03239">
        <ele>143</ele>
        <time>2023-12-06T13:42:46Z</time>
      </trkpt>
      <trkpt lat="49.27875" lon="0.0325">
        <ele>142.8</ele>
        <time>2023-12-06T13:42:47Z</time>
      </trkpt>
      <trkpt lat="49.27878" lon="0.03261">
        <ele>142.8</ele>
        <time>2023-12-06T13:42:48Z</time>
      </trkpt>
      <trkpt lat="49.27881" lon="0.03273">
        <ele>142.8</ele>
        <time>2023-12-06T13:42:49Z</time>
      </trkpt>
      <trkpt lat="49.27884" lon="0.03285">
        <ele>142.6</ele>
        <time>2023-12-06T13:42:50Z</time>
      </trkpt>
      <trkpt lat="49.27886" lon="0.03296">
        <ele>142.4</ele>
        <time>2023-12-06T13:42:51Z</time>
      </trkpt>
      <trkpt lat="49.27889" lon="0.03308">
        <ele>142.4</ele>
        <time>2023-12-06T13:42:52Z</time>
      </trkpt>
      <trkpt lat="49.27891" lon="0.0332">
        <ele>142.2</ele>
        <time>2023-12-06T13:42:53Z</time>
      </trkpt>
      <trkpt lat="49.27893" lon="0.03331">
        <ele>142.2</ele>
        <time>2023-12-06T13:42:54Z</time>
      </trkpt>
      <trkpt lat="49.27896" lon="0.03343">
        <ele>142</ele>
        <time>2023-12-06T13:42:55Z</time>
      </trkpt>
      <trkpt lat="49.27898" lon="0.03354">
        <ele>141.8</ele>
        <time>2023-12-06T13:42:56Z</time>
      </trkpt>
      <trkpt lat="49.27901" lon="0.03366">
        <ele>141.8</ele>
        <time>2023-12-06T13:42:57Z</time>
      </trkpt>
      <trkpt lat="49.27903" lon="0.03378">
        <ele>141.6</ele>
        <time>2023-12-06T13:42:58Z</time>
      </trkpt>
      <trkpt lat="49.27905" lon="0.03389">
        <ele>141.6</ele>
        <time>2023-12-06T13:42:59Z</time>
      </trkpt>
      <trkpt lat="49.27907" lon="0.03401">
        <ele>141.4</ele>
        <time>2023-12-06T13:43:00Z</time>
      </trkpt>
      <trkpt lat="49.27909" lon="0.03412">
        <ele>141.2</ele>
        <time>2023-12-06T13:43:01Z</time>
      </trkpt>
      <trkpt lat="49.27911" lon="0.03424">
        <ele>141.2</ele>
        <time>2023-12-06T13:43:02Z</time>
      </trkpt>
      <trkpt lat="49.27913" lon="0.03435">
        <ele>141</ele>
        <time>2023-12-06T13:43:03Z</time>
      </trkpt>
      <trkpt lat="49.27916" lon="0.03447">
        <ele>141</ele>
        <time>2023-12-06T13:43:04Z</time>
      </trkpt>
      <trkpt lat="49.27918" lon="0.03458">
        <ele>140.8</ele>
        <time>2023-12-06T13:43:05Z</time>
      </trkpt>
      <trkpt lat="49.27921" lon="0.0347">
        <ele>140.8</ele>
        <time>2023-12-06T13:43:06Z</time>
      </trkpt>
      <trkpt lat="49.27925" lon="0.03481">
        <ele>140.8</ele>
        <time>2023-12-06T13:43:07Z</time>
      </trkpt>
      <trkpt lat="49.27929" lon="0.03492">
        <ele>140.8</ele>
        <time>2023-12-06T13:43:08Z</time>
      </trkpt>
      <trkpt lat="49.27933" lon="0.03503">
        <ele>140.8</ele>
        <time>2023-12-06T13:43:09Z</time>
      </trkpt>
      <trkpt lat="49.27937" lon="0.03513">
        <ele>140.6</ele>
        <time>2023-12-06T13:43:10Z</time>
      </trkpt>
      <trkpt lat="49.27942" lon="0.03524">
        <ele>140.4</ele>
        <time>2023-12-06T13:43:11Z</time>
      </trkpt>
      <trkpt lat="49.27946" lon="0.03534">
        <ele>140.2</ele>
        <time>2023-12-06T13:43:12Z</time>
      </trkpt>
      <trkpt lat="49.2795" lon="0.03544">
        <ele>140.2</ele>
        <time>2023-12-06T13:43:13Z</time>
      </trkpt>
      <trkpt lat="49.27955" lon="0.03555">
        <ele>140</ele>
        <time>2023-12-06T13:43:14Z</time>
      </trkpt>
      <trkpt lat="49.27959" lon="0.03566">
        <ele>139.8</ele>
        <time>2023-12-06T13:43:15Z</time>
      </trkpt>
      <trkpt lat="49.27963" lon="0.03576">
        <ele>139.6</ele>
        <time>2023-12-06T13:43:16Z</time>
      </trkpt>
      <trkpt lat="49.27966" lon="0.03587">
        <ele>139.4</ele>
        <time>2023-12-06T13:43:17Z</time>
      </trkpt>
      <trkpt lat="49.2797" lon="0.03598">
        <ele>139.2</ele>
        <time>2023-12-06T13:43:18Z</time>
      </trkpt>
      <trkpt lat="49.27973" lon="0.03609">
        <ele>139</ele>
        <time>2023-12-06T13:43:19Z</time>
      </trkpt>
      <trkpt lat="49.27976" lon="0.0362">
        <ele>138.8</ele>
        <time>2023-12-06T13:43:20Z</time>
      </trkpt>
      <trkpt lat="49.27979" lon="0.03631">
        <ele>138.8</ele>
        <time>2023-12-06T13:43:21Z</time>
      </trkpt>
      <trkpt lat="49.27982" lon="0.03643">
        <ele>138.8</ele>
        <time>2023-12-06T13:43:22Z</time>
      </trkpt>
      <trkpt lat="49.27985" lon="0.03654">
        <ele>138.8</ele>
        <time>2023-12-06T13:43:23Z</time>
      </trkpt>
      <trkpt lat="49.27988" lon="0.03665">
        <ele>138.8</ele>
        <time>2023-12-06T13:43:24Z</time>
      </trkpt>
      <trkpt lat="49.2799" lon="0.03677">
        <ele>138.8</ele>
        <time>2023-12-06T13:43:25Z</time>
      </trkpt>
      <trkpt lat="49.27993" lon="0.03688">
        <ele>138.8</ele>
        <time>2023-12-06T13:43:26Z</time>
      </trkpt>
      <trkpt lat="49.27996" lon="0.03699">
        <ele>138.8</ele>
        <time>2023-12-06T13:43:27Z</time>
      </trkpt>
      <trkpt lat="49.27999" lon="0.03711">
        <ele>138.6</ele>
        <time>2023-12-06T13:43:28Z</time>
      </trkpt>
      <trkpt lat="49.28002" lon="0.03722">
        <ele>138.6</ele>
        <time>2023-12-06T13:43:29Z</time>
      </trkpt>
      <trkpt lat="49.28004" lon="0.03733">
        <ele>138.6</ele>
        <time>2023-12-06T13:43:30Z</time>
      </trkpt>
      <trkpt lat="49.28007" lon="0.03745">
        <ele>138.6</ele>
        <time>2023-12-06T13:43:31Z</time>
      </trkpt>
      <trkpt lat="49.2801" lon="0.03756">
        <ele>138.4</ele>
        <time>2023-12-06T13:43:32Z</time>
      </trkpt>
      <trkpt lat="49.28012" lon="0.03767">
        <ele>138.4</ele>
        <time>2023-12-06T13:43:33Z</time>
      </trkpt>
      <trkpt lat="49.28015" lon="0.03779">
        <ele>138.2</ele>
        <time>2023-12-06T13:43:34Z</time>
      </trkpt>
      <trkpt lat="49.28018" lon="0.0379">
        <ele>138.2</ele>
        <time>2023-12-06T13:43:35Z</time>
      </trkpt>
      <trkpt lat="49.2802" lon="0.03801">
        <ele>138.2</ele>
        <time>2023-12-06T13:43:36Z</time>
      </trkpt>
      <trkpt lat="49.28023" lon="0.03813">
        <ele>138</ele>
        <time>2023-12-06T13:43:37Z</time>
      </trkpt>
      <trkpt lat="49.28026" lon="0.03824">
        <ele>137.8</ele>
        <time>2023-12-06T13:43:38Z</time>
      </trkpt>
      <trkpt lat="49.28029" lon="0.03835">
        <ele>137.4</ele>
        <time>2023-12-06T13:43:39Z</time>
      </trkpt>
      <trkpt lat="49.28031" lon="0.03847">
        <ele>137.2</ele>
        <time>2023-12-06T13:43:40Z</time>
      </trkpt>
      <trkpt lat="49.28034" lon="0.03858">
        <ele>137</ele>
        <time>2023-12-06T13:43:41Z</time>
      </trkpt>
      <trkpt lat="49.28038" lon="0.03869">
        <ele>137</ele>
        <time>2023-12-06T13:43:42Z</time>
      </trkpt>
      <trkpt lat="49.2804" lon="0.0388">
        <ele>136.8</ele>
        <time>2023-12-06T13:43:43Z</time>
      </trkpt>
      <trkpt lat="49.28043" lon="0.03891">
        <ele>136.8</ele>
        <time>2023-12-06T13:43:44Z</time>
      </trkpt>
      <trkpt lat="49.28047" lon="0.03903">
        <ele>136.6</ele>
        <time>2023-12-06T13:43:45Z</time>
      </trkpt>
      <trkpt lat="49.28049" lon="0.03914">
        <ele>136.6</ele>
        <time>2023-12-06T13:43:46Z</time>
      </trkpt>
      <trkpt lat="49.28053" lon="0.03925">
        <ele>136.4</ele>
        <time>2023-12-06T13:43:47Z</time>
      </trkpt>
      <trkpt lat="49.28056" lon="0.03936">
        <ele>136.4</ele>
        <time>2023-12-06T13:43:48Z</time>
      </trkpt>
      <trkpt lat="49.28059" lon="0.03947">
        <ele>136.4</ele>
        <time>2023-12-06T13:43:49Z</time>
      </trkpt>
      <trkpt lat="49.28062" lon="0.03959">
        <ele>136.2</ele>
        <time>2023-12-06T13:43:50Z</time>
      </trkpt>
      <trkpt lat="49.28066" lon="0.0397">
        <ele>136.2</ele>
        <time>2023-12-06T13:43:51Z</time>
      </trkpt>
      <trkpt lat="49.28069" lon="0.0398">
        <ele>136.2</ele>
        <time>2023-12-06T13:43:52Z</time>
      </trkpt>
      <trkpt lat="49.28072" lon="0.03991">
        <ele>136</ele>
        <time>2023-12-06T13:43:53Z</time>
      </trkpt>
      <trkpt lat="49.28076" lon="0.04002">
        <ele>135.8</ele>
        <time>2023-12-06T13:43:54Z</time>
      </trkpt>
      <trkpt lat="49.28079" lon="0.04013">
        <ele>135.8</ele>
        <time>2023-12-06T13:43:55Z</time>
      </trkpt>
      <trkpt lat="49.28082" lon="0.04024">
        <ele>135.6</ele>
        <time>2023-12-06T13:43:56Z</time>
      </trkpt>
      <trkpt lat="49.28086" lon="0.04034">
        <ele>135.4</ele>
        <time>2023-12-06T13:43:57Z</time>
      </trkpt>
      <trkpt lat="49.2809" lon="0.04045">
        <ele>135.4</ele>
        <time>2023-12-06T13:43:58Z</time>
      </trkpt>
      <trkpt lat="49.28093" lon="0.04056">
        <ele>135.2</ele>
        <time>2023-12-06T13:43:59Z</time>
      </trkpt>
      <trkpt lat="49.28097" lon="0.04067">
        <ele>135.2</ele>
        <time>2023-12-06T13:44:00Z</time>
      </trkpt>
      <trkpt lat="49.281" lon="0.04078">
        <ele>135.2</ele>
        <time>2023-12-06T13:44:01Z</time>
      </trkpt>
      <trkpt lat="49.28104" lon="0.04089">
        <ele>135.2</ele>
        <time>2023-12-06T13:44:02Z</time>
      </trkpt>
      <trkpt lat="49.28107" lon="0.041">
        <ele>135.2</ele>
        <time>2023-12-06T13:44:03Z</time>
      </trkpt>
      <trkpt lat="49.28111" lon="0.04111">
        <ele>135</ele>
        <time>2023-12-06T13:44:04Z</time>
      </trkpt>
      <trkpt lat="49.28114" lon="0.04122">
        <ele>135</ele>
        <time>2023-12-06T13:44:05Z</time>
      </trkpt>
      <trkpt lat="49.28118" lon="0.04132">
        <ele>135</ele>
        <time>2023-12-06T13:44:06Z</time>
      </trkpt>
      <trkpt lat="49.28122" lon="0.04143">
        <ele>135</ele>
        <time>2023-12-06T13:44:07Z</time>
      </trkpt>
      <trkpt lat="49.28125" lon="0.04154">
        <ele>134.8</ele>
        <time>2023-12-06T13:44:08Z</time>
      </trkpt>
      <trkpt lat="49.28129" lon="0.04165">
        <ele>134.8</ele>
        <time>2023-12-06T13:44:09Z</time>
      </trkpt>
      <trkpt lat="49.28132" lon="0.04176">
        <ele>134.6</ele>
        <time>2023-12-06T13:44:10Z</time>
      </trkpt>
      <trkpt lat="49.28136" lon="0.04187">
        <ele>134.6</ele>
        <time>2023-12-06T13:44:11Z</time>
      </trkpt>
      <trkpt lat="49.2814" lon="0.04197">
        <ele>134.4</ele>
        <time>2023-12-06T13:44:12Z</time>
      </trkpt>
      <trkpt lat="49.28144" lon="0.04208">
        <ele>134.4</ele>
        <time>2023-12-06T13:44:13Z</time>
      </trkpt>
      <trkpt lat="49.28147" lon="0.04219">
        <ele>134.2</ele>
        <time>2023-12-06T13:44:14Z</time>
      </trkpt>
      <trkpt lat="49.28151" lon="0.04231">
        <ele>134</ele>
        <time>2023-12-06T13:44:15Z</time>
      </trkpt>
      <trkpt lat="49.28156" lon="0.04242">
        <ele>134</ele>
        <time>2023-12-06T13:44:16Z</time>
      </trkpt>
      <trkpt lat="49.2816" lon="0.04253">
        <ele>133.8</ele>
        <time>2023-12-06T13:44:17Z</time>
      </trkpt>
      <trkpt lat="49.28164" lon="0.04264">
        <ele>133.8</ele>
        <time>2023-12-06T13:44:18Z</time>
      </trkpt>
      <trkpt lat="49.28168" lon="0.04276">
        <ele>133.6</ele>
        <time>2023-12-06T13:44:19Z</time>
      </trkpt>
      <trkpt lat="49.28172" lon="0.04287">
        <ele>133.6</ele>
        <time>2023-12-06T13:44:20Z</time>
      </trkpt>
      <trkpt lat="49.28176" lon="0.04299">
        <ele>133.4</ele>
        <time>2023-12-06T13:44:21Z</time>
      </trkpt>
      <trkpt lat="49.2818" lon="0.0431">
        <ele>133.4</ele>
        <time>2023-12-06T13:44:22Z</time>
      </trkpt>
      <trkpt lat="49.28184" lon="0.04322">
        <ele>133.2</ele>
        <time>2023-12-06T13:44:23Z</time>
      </trkpt>
      <trkpt lat="49.28188" lon="0.04334">
        <ele>133.2</ele>
        <time>2023-12-06T13:44:24Z</time>
      </trkpt>
      <trkpt lat="49.28191" lon="0.04346">
        <ele>133</ele>
        <time>2023-12-06T13:44:25Z</time>
      </trkpt>
      <trkpt lat="49.28194" lon="0.04357">
        <ele>132.8</ele>
        <time>2023-12-06T13:44:26Z</time>
      </trkpt>
      <trkpt lat="49.28198" lon="0.04369">
        <ele>132.6</ele>
        <time>2023-12-06T13:44:27Z</time>
      </trkpt>
      <trkpt lat="49.28201" lon="0.04381">
        <ele>132.2</ele>
        <time>2023-12-06T13:44:28Z</time>
      </trkpt>
      <trkpt lat="49.28205" lon="0.04393">
        <ele>131.8</ele>
        <time>2023-12-06T13:44:29Z</time>
      </trkpt>
      <trkpt lat="49.28208" lon="0.04405">
        <ele>131.6</ele>
        <time>2023-12-06T13:44:30Z</time>
      </trkpt>
      <trkpt lat="49.28211" lon="0.04418">
        <ele>131.2</ele>
        <time>2023-12-06T13:44:31Z</time>
      </trkpt>
      <trkpt lat="49.28215" lon="0.0443">
        <ele>131</ele>
        <time>2023-12-06T13:44:32Z</time>
      </trkpt>
      <trkpt lat="49.28218" lon="0.04442">
        <ele>130.8</ele>
        <time>2023-12-06T13:44:33Z</time>
      </trkpt>
      <trkpt lat="49.28222" lon="0.04454">
        <ele>130.6</ele>
        <time>2023-12-06T13:44:34Z</time>
      </trkpt>
      <trkpt lat="49.28225" lon="0.04466">
        <ele>130.4</ele>
        <time>2023-12-06T13:44:35Z</time>
      </trkpt>
      <trkpt lat="49.28229" lon="0.04478">
        <ele>130.2</ele>
        <time>2023-12-06T13:44:36Z</time>
      </trkpt>
      <trkpt lat="49.28232" lon="0.04491">
        <ele>130.2</ele>
        <time>2023-12-06T13:44:37Z</time>
      </trkpt>
      <trkpt lat="49.28236" lon="0.04502">
        <ele>129.8</ele>
        <time>2023-12-06T13:44:38Z</time>
      </trkpt>
      <trkpt lat="49.2824" lon="0.04514">
        <ele>129.6</ele>
        <time>2023-12-06T13:44:39Z</time>
      </trkpt>
      <trkpt lat="49.28244" lon="0.04526">
        <ele>129.2</ele>
        <time>2023-12-06T13:44:40Z</time>
      </trkpt>
      <trkpt lat="49.28248" lon="0.04538">
        <ele>128.8</ele>
        <time>2023-12-06T13:44:41Z</time>
      </trkpt>
      <trkpt lat="49.28252" lon="0.04549">
        <ele>128.6</ele>
        <time>2023-12-06T13:44:42Z</time>
      </trkpt>
      <trkpt lat="49.28256" lon="0.04561">
        <ele>128.2</ele>
        <time>2023-12-06T13:44:43Z</time>
      </trkpt>
      <trkpt lat="49.2826" lon="0.04572">
        <ele>128</ele>
        <time>2023-12-06T13:44:44Z</time>
      </trkpt>
      <trkpt lat="49.28265" lon="0.04583">
        <ele>127.8</ele>
        <time>2023-12-06T13:44:45Z</time>
      </trkpt>
      <trkpt lat="49.2827" lon="0.04594">
        <ele>127.6</ele>
        <time>2023-12-06T13:44:46Z</time>
      </trkpt>
      <trkpt lat="49.28274" lon="0.04605">
        <ele>127.4</ele>
        <time>2023-12-06T13:44:47Z</time>
      </trkpt>
      <trkpt lat="49.28279" lon="0.04615">
        <ele>127.2</ele>
        <time>2023-12-06T13:44:48Z</time>
      </trkpt>
      <trkpt lat="49.28284" lon="0.04625">
        <ele>127</ele>
        <time>2023-12-06T13:44:49Z</time>
      </trkpt>
      <trkpt lat="49.28289" lon="0.04636">
        <ele>126.8</ele>
        <time>2023-12-06T13:44:50Z</time>
      </trkpt>
      <trkpt lat="49.28295" lon="0.04646">
        <ele>126.6</ele>
        <time>2023-12-06T13:44:51Z</time>
      </trkpt>
      <trkpt lat="49.283" lon="0.04656">
        <ele>126.4</ele>
        <time>2023-12-06T13:44:52Z</time>
      </trkpt>
      <trkpt lat="49.28305" lon="0.04666">
        <ele>126.2</ele>
        <time>2023-12-06T13:44:53Z</time>
      </trkpt>
      <trkpt lat="49.2831" lon="0.04676">
        <ele>126</ele>
        <time>2023-12-06T13:44:54Z</time>
      </trkpt>
      <trkpt lat="49.28315" lon="0.04686">
        <ele>126</ele>
        <time>2023-12-06T13:44:55Z</time>
      </trkpt>
      <trkpt lat="49.2832" lon="0.04696">
        <ele>125.8</ele>
        <time>2023-12-06T13:44:56Z</time>
      </trkpt>
      <trkpt lat="49.28325" lon="0.04706">
        <ele>125.8</ele>
        <time>2023-12-06T13:44:57Z</time>
      </trkpt>
      <trkpt lat="49.2833" lon="0.04715">
        <ele>125.6</ele>
        <time>2023-12-06T13:44:58Z</time>
      </trkpt>
      <trkpt lat="49.28335" lon="0.04725">
        <ele>125.6</ele>
        <time>2023-12-06T13:44:59Z</time>
      </trkpt>
      <trkpt lat="49.28341" lon="0.04734">
        <ele>125.4</ele>
        <time>2023-12-06T13:45:00Z</time>
      </trkpt>
      <trkpt lat="49.28346" lon="0.04743">
        <ele>125.4</ele>
        <time>2023-12-06T13:45:01Z</time>
      </trkpt>
      <trkpt lat="49.28352" lon="0.04752">
        <ele>125.2</ele>
        <time>2023-12-06T13:45:02Z</time>
      </trkpt>
      <trkpt lat="49.28358" lon="0.0476">
        <ele>125.2</ele>
        <time>2023-12-06T13:45:03Z</time>
      </trkpt>
      <trkpt lat="49.28364" lon="0.04768">
        <ele>125.2</ele>
        <time>2023-12-06T13:45:04Z</time>
      </trkpt>
      <trkpt lat="49.2837" lon="0.04776">
        <ele>125.2</ele>
        <time>2023-12-06T13:45:05Z</time>
      </trkpt>
      <trkpt lat="49.28377" lon="0.04783">
        <ele>125.2</ele>
        <time>2023-12-06T13:45:06Z</time>
      </trkpt>
      <trkpt lat="49.28383" lon="0.0479">
        <ele>125.2</ele>
        <time>2023-12-06T13:45:07Z</time>
      </trkpt>
      <trkpt lat="49.2839" lon="0.04797">
        <ele>125</ele>
        <time>2023-12-06T13:45:08Z</time>
      </trkpt>
      <trkpt lat="49.28396" lon="0.04804">
        <ele>125</ele>
        <time>2023-12-06T13:45:09Z</time>
      </trkpt>
      <trkpt lat="49.28403" lon="0.04811">
        <ele>125</ele>
        <time>2023-12-06T13:45:10Z</time>
      </trkpt>
      <trkpt lat="49.2841" lon="0.04817">
        <ele>124.8</ele>
        <time>2023-12-06T13:45:11Z</time>
      </trkpt>
      <trkpt lat="49.28416" lon="0.04824">
        <ele>124.8</ele>
        <time>2023-12-06T13:45:12Z</time>
      </trkpt>
      <trkpt lat="49.28423" lon="0.04831">
        <ele>124.8</ele>
        <time>2023-12-06T13:45:13Z</time>
      </trkpt>
      <trkpt lat="49.2843" lon="0.04837">
        <ele>124.8</ele>
        <time>2023-12-06T13:45:14Z</time>
      </trkpt>
      <trkpt lat="49.28436" lon="0.04844">
        <ele>124.8</ele>
        <time>2023-12-06T13:45:15Z</time>
      </trkpt>
      <trkpt lat="49.28443" lon="0.0485">
        <ele>124.8</ele>
        <time>2023-12-06T13:45:16Z</time>
      </trkpt>
      <trkpt lat="49.28449" lon="0.04856">
        <ele>124.8</ele>
        <time>2023-12-06T13:45:17Z</time>
      </trkpt>
      <trkpt lat="49.28456" lon="0.04862">
        <ele>124.8</ele>
        <time>2023-12-06T13:45:18Z</time>
      </trkpt>
      <trkpt lat="49.28463" lon="0.04868">
        <ele>124.8</ele>
        <time>2023-12-06T13:45:19Z</time>
      </trkpt>
      <trkpt lat="49.28469" lon="0.04874">
        <ele>124.8</ele>
        <time>2023-12-06T13:45:20Z</time>
      </trkpt>
      <trkpt lat="49.28476" lon="0.04879">
        <ele>124.8</ele>
        <time>2023-12-06T13:45:21Z</time>
      </trkpt>
      <trkpt lat="49.28483" lon="0.04885">
        <ele>124.8</ele>
        <time>2023-12-06T13:45:22Z</time>
      </trkpt>
      <trkpt lat="49.2849" lon="0.0489">
        <ele>124.8</ele>
        <time>2023-12-06T13:45:23Z</time>
      </trkpt>
      <trkpt lat="49.28497" lon="0.04895">
        <ele>124.8</ele>
        <time>2023-12-06T13:45:24Z</time>
      </trkpt>
      <trkpt lat="49.28504" lon="0.04901">
        <ele>124.8</ele>
        <time>2023-12-06T13:45:25Z</time>
      </trkpt>
      <trkpt lat="49.28511" lon="0.04906">
        <ele>125</ele>
        <time>2023-12-06T13:45:26Z</time>
      </trkpt>
      <trkpt lat="49.28517" lon="0.04911">
        <ele>125</ele>
        <time>2023-12-06T13:45:27Z</time>
      </trkpt>
      <trkpt lat="49.28524" lon="0.04917">
        <ele>125</ele>
        <time>2023-12-06T13:45:28Z</time>
      </trkpt>
      <trkpt lat="49.28531" lon="0.04922">
        <ele>125.2</ele>
        <time>2023-12-06T13:45:29Z</time>
      </trkpt>
      <trkpt lat="49.28537" lon="0.04928">
        <ele>125.2</ele>
        <time>2023-12-06T13:45:30Z</time>
      </trkpt>
      <trkpt lat="49.28544" lon="0.04934">
        <ele>125.2</ele>
        <time>2023-12-06T13:45:31Z</time>
      </trkpt>
      <trkpt lat="49.2855" lon="0.0494">
        <ele>125.2</ele>
        <time>2023-12-06T13:45:32Z</time>
      </trkpt>
      <trkpt lat="49.28557" lon="0.04946">
        <ele>125.2</ele>
        <time>2023-12-06T13:45:33Z</time>
      </trkpt>
      <trkpt lat="49.28563" lon="0.04953">
        <ele>125.4</ele>
        <time>2023-12-06T13:45:34Z</time>
      </trkpt>
      <trkpt lat="49.28569" lon="0.0496">
        <ele>125.4</ele>
        <time>2023-12-06T13:45:35Z</time>
      </trkpt>
      <trkpt lat="49.28576" lon="0.04966">
        <ele>125.4</ele>
        <time>2023-12-06T13:45:36Z</time>
      </trkpt>
      <trkpt lat="49.28582" lon="0.04974">
        <ele>125.4</ele>
        <time>2023-12-06T13:45:37Z</time>
      </trkpt>
      <trkpt lat="49.28588" lon="0.04981">
        <ele>125.6</ele>
        <time>2023-12-06T13:45:38Z</time>
      </trkpt>
      <trkpt lat="49.28594" lon="0.04989">
        <ele>125.8</ele>
        <time>2023-12-06T13:45:39Z</time>
      </trkpt>
      <trkpt lat="49.286" lon="0.04996">
        <ele>125.8</ele>
        <time>2023-12-06T13:45:40Z</time>
      </trkpt>
      <trkpt lat="49.28605" lon="0.05004">
        <ele>125.8</ele>
        <time>2023-12-06T13:45:41Z</time>
      </trkpt>
      <trkpt lat="49.28611" lon="0.05011">
        <ele>126</ele>
        <time>2023-12-06T13:45:42Z</time>
      </trkpt>
      <trkpt lat="49.28618" lon="0.05017">
        <ele>126</ele>
        <time>2023-12-06T13:45:43Z</time>
      </trkpt>
      <trkpt lat="49.28624" lon="0.05023">
        <ele>126</ele>
        <time>2023-12-06T13:45:44Z</time>
      </trkpt>
      <trkpt lat="49.28631" lon="0.05028">
        <ele>126</ele>
        <time>2023-12-06T13:45:45Z</time>
      </trkpt>
      <trkpt lat="49.28637" lon="0.05034">
        <ele>126</ele>
        <time>2023-12-06T13:45:46Z</time>
      </trkpt>
      <trkpt lat="49.28644" lon="0.05038">
        <ele>126</ele>
        <time>2023-12-06T13:45:47Z</time>
      </trkpt>
      <trkpt lat="49.28651" lon="0.05042">
        <ele>126</ele>
        <time>2023-12-06T13:45:48Z</time>
      </trkpt>
      <trkpt lat="49.28659" lon="0.05044">
        <ele>126</ele>
        <time>2023-12-06T13:45:49Z</time>
      </trkpt>
      <trkpt lat="49.28666" lon="0.05048">
        <ele>126</ele>
        <time>2023-12-06T13:45:50Z</time>
      </trkpt>
      <trkpt lat="49.28673" lon="0.05051">
        <ele>126.2</ele>
        <time>2023-12-06T13:45:51Z</time>
      </trkpt>
      <trkpt lat="49.2868" lon="0.05055">
        <ele>126.2</ele>
        <time>2023-12-06T13:45:52Z</time>
      </trkpt>
      <trkpt lat="49.28687" lon="0.05059">
        <ele>126.4</ele>
        <time>2023-12-06T13:45:53Z</time>
      </trkpt>
      <trkpt lat="49.28694" lon="0.05063">
        <ele>126.4</ele>
        <time>2023-12-06T13:45:54Z</time>
      </trkpt>
      <trkpt lat="49.28702" lon="0.05068">
        <ele>126.4</ele>
        <time>2023-12-06T13:45:55Z</time>
      </trkpt>
      <trkpt lat="49.28709" lon="0.05072">
        <ele>126.4</ele>
        <time>2023-12-06T13:45:56Z</time>
      </trkpt>
      <trkpt lat="49.28717" lon="0.05076">
        <ele>126.6</ele>
        <time>2023-12-06T13:45:57Z</time>
      </trkpt>
      <trkpt lat="49.28724" lon="0.05081">
        <ele>126.6</ele>
        <time>2023-12-06T13:45:58Z</time>
      </trkpt>
      <trkpt lat="49.28732" lon="0.05086">
        <ele>126.6</ele>
        <time>2023-12-06T13:45:59Z</time>
      </trkpt>
      <trkpt lat="49.28739" lon="0.05091">
        <ele>126.6</ele>
        <time>2023-12-06T13:46:00Z</time>
      </trkpt>
      <trkpt lat="49.28746" lon="0.05095">
        <ele>126.6</ele>
        <time>2023-12-06T13:46:01Z</time>
      </trkpt>
      <trkpt lat="49.28754" lon="0.05099">
        <ele>126.6</ele>
        <time>2023-12-06T13:46:02Z</time>
      </trkpt>
      <trkpt lat="49.28761" lon="0.05103">
        <ele>126.6</ele>
        <time>2023-12-06T13:46:03Z</time>
      </trkpt>
      <trkpt lat="49.28769" lon="0.05106">
        <ele>126.6</ele>
        <time>2023-12-06T13:46:04Z</time>
      </trkpt>
      <trkpt lat="49.28778" lon="0.05108">
        <ele>126.6</ele>
        <time>2023-12-06T13:46:05Z</time>
      </trkpt>
      <trkpt lat="49.28786" lon="0.05109">
        <ele>126.6</ele>
        <time>2023-12-06T13:46:06Z</time>
      </trkpt>
      <trkpt lat="49.28794" lon="0.05111">
        <ele>126.8</ele>
        <time>2023-12-06T13:46:07Z</time>
      </trkpt>
      <trkpt lat="49.28803" lon="0.05112">
        <ele>126.8</ele>
        <time>2023-12-06T13:46:08Z</time>
      </trkpt>
      <trkpt lat="49.28811" lon="0.05114">
        <ele>126.8</ele>
        <time>2023-12-06T13:46:09Z</time>
      </trkpt>
      <trkpt lat="49.28819" lon="0.05116">
        <ele>126.8</ele>
        <time>2023-12-06T13:46:10Z</time>
      </trkpt>
      <trkpt lat="49.28828" lon="0.05119">
        <ele>126.8</ele>
        <time>2023-12-06T13:46:11Z</time>
      </trkpt>
      <trkpt lat="49.28836" lon="0.05123">
        <ele>126.8</ele>
        <time>2023-12-06T13:46:12Z</time>
      </trkpt>
      <trkpt lat="49.28845" lon="0.05126">
        <ele>126.8</ele>
        <time>2023-12-06T13:46:13Z</time>
      </trkpt>
      <trkpt lat="49.28853" lon="0.0513">
        <ele>126.8</ele>
        <time>2023-12-06T13:46:14Z</time>
      </trkpt>
      <trkpt lat="49.28861" lon="0.05134">
        <ele>126.8</ele>
        <time>2023-12-06T13:46:15Z</time>
      </trkpt>
      <trkpt lat="49.28869" lon="0.05139">
        <ele>126.8</ele>
        <time>2023-12-06T13:46:16Z</time>
      </trkpt>
      <trkpt lat="49.28877" lon="0.05144">
        <ele>126.6</ele>
        <time>2023-12-06T13:46:17Z</time>
      </trkpt>
      <trkpt lat="49.28884" lon="0.05148">
        <ele>126.2</ele>
        <time>2023-12-06T13:46:18Z</time>
      </trkpt>
      <trkpt lat="49.28892" lon="0.05152">
        <ele>125.8</ele>
        <time>2023-12-06T13:46:19Z</time>
      </trkpt>
      <trkpt lat="49.289" lon="0.05156">
        <ele>125.4</ele>
        <time>2023-12-06T13:46:20Z</time>
      </trkpt>
      <trkpt lat="49.28907" lon="0.0516">
        <ele>125.2</ele>
        <time>2023-12-06T13:46:21Z</time>
      </trkpt>
      <trkpt lat="49.28915" lon="0.05165">
        <ele>124.8</ele>
        <time>2023-12-06T13:46:22Z</time>
      </trkpt>
      <trkpt lat="49.28923" lon="0.0517">
        <ele>124.6</ele>
        <time>2023-12-06T13:46:23Z</time>
      </trkpt>
      <trkpt lat="49.28931" lon="0.05176">
        <ele>124.2</ele>
        <time>2023-12-06T13:46:24Z</time>
      </trkpt>
      <trkpt lat="49.28939" lon="0.05182">
        <ele>123.6</ele>
        <time>2023-12-06T13:46:25Z</time>
      </trkpt>
      <trkpt lat="49.28946" lon="0.05189">
        <ele>123.4</ele>
        <time>2023-12-06T13:46:26Z</time>
      </trkpt>
      <trkpt lat="49.28954" lon="0.05195">
        <ele>123.2</ele>
        <time>2023-12-06T13:46:27Z</time>
      </trkpt>
      <trkpt lat="49.28962" lon="0.05202">
        <ele>123</ele>
        <time>2023-12-06T13:46:28Z</time>
      </trkpt>
      <trkpt lat="49.2897" lon="0.05208">
        <ele>122.8</ele>
        <time>2023-12-06T13:46:29Z</time>
      </trkpt>
      <trkpt lat="49.28978" lon="0.05215">
        <ele>122.4</ele>
        <time>2023-12-06T13:46:30Z</time>
      </trkpt>
      <trkpt lat="49.28986" lon="0.05222">
        <ele>122</ele>
        <time>2023-12-06T13:46:31Z</time>
      </trkpt>
      <trkpt lat="49.28993" lon="0.05229">
        <ele>121.6</ele>
        <time>2023-12-06T13:46:32Z</time>
      </trkpt>
      <trkpt lat="49.29001" lon="0.05237">
        <ele>121.2</ele>
        <time>2023-12-06T13:46:33Z</time>
      </trkpt>
      <trkpt lat="49.29009" lon="0.05244">
        <ele>120.8</ele>
        <time>2023-12-06T13:46:34Z</time>
      </trkpt>
      <trkpt lat="49.29016" lon="0.05251">
        <ele>120.6</ele>
        <time>2023-12-06T13:46:35Z</time>
      </trkpt>
      <trkpt lat="49.29024" lon="0.05259">
        <ele>120</ele>
        <time>2023-12-06T13:46:36Z</time>
      </trkpt>
      <trkpt lat="49.29032" lon="0.05267">
        <ele>119.6</ele>
        <time>2023-12-06T13:46:37Z</time>
      </trkpt>
      <trkpt lat="49.29039" lon="0.05276">
        <ele>119.2</ele>
        <time>2023-12-06T13:46:38Z</time>
      </trkpt>
      <trkpt lat="49.29047" lon="0.05285">
        <ele>119</ele>
        <time>2023-12-06T13:46:39Z</time>
      </trkpt>
      <trkpt lat="49.29054" lon="0.05294">
        <ele>118.6</ele>
        <time>2023-12-06T13:46:40Z</time>
      </trkpt>
      <trkpt lat="49.29062" lon="0.05303">
        <ele>118.4</ele>
        <time>2023-12-06T13:46:41Z</time>
      </trkpt>
      <trkpt lat="49.2907" lon="0.05314">
        <ele>118.2</ele>
        <time>2023-12-06T13:46:42Z</time>
      </trkpt>
      <trkpt lat="49.29077" lon="0.05324">
        <ele>117.8</ele>
        <time>2023-12-06T13:46:43Z</time>
      </trkpt>
      <trkpt lat="49.29085" lon="0.05336">
        <ele>117.2</ele>
        <time>2023-12-06T13:46:44Z</time>
      </trkpt>
      <trkpt lat="49.29092" lon="0.05347">
        <ele>116.8</ele>
        <time>2023-12-06T13:46:45Z</time>
      </trkpt>
      <trkpt lat="49.291" lon="0.05358">
        <ele>116.2</ele>
        <time>2023-12-06T13:46:46Z</time>
      </trkpt>
      <trkpt lat="49.29107" lon="0.0537">
        <ele>115.6</ele>
        <time>2023-12-06T13:46:47Z</time>
      </trkpt>
      <trkpt lat="49.29115" lon="0.05381">
        <ele>115</ele>
        <time>2023-12-06T13:46:48Z</time>
      </trkpt>
      <trkpt lat="49.29123" lon="0.05392">
        <ele>114.4</ele>
        <time>2023-12-06T13:46:49Z</time>
      </trkpt>
      <trkpt lat="49.29131" lon="0.05402">
        <ele>114</ele>
        <time>2023-12-06T13:46:50Z</time>
      </trkpt>
      <trkpt lat="49.2914" lon="0.05412">
        <ele>113.2</ele>
        <time>2023-12-06T13:46:51Z</time>
      </trkpt>
      <trkpt lat="49.29148" lon="0.05422">
        <ele>112.2</ele>
        <time>2023-12-06T13:46:52Z</time>
      </trkpt>
      <trkpt lat="49.29158" lon="0.05432">
        <ele>111.4</ele>
        <time>2023-12-06T13:46:53Z</time>
      </trkpt>
      <trkpt lat="49.29167" lon="0.05441">
        <ele>110.6</ele>
        <time>2023-12-06T13:46:54Z</time>
      </trkpt>
      <trkpt lat="49.29176" lon="0.0545">
        <ele>110</ele>
        <time>2023-12-06T13:46:55Z</time>
      </trkpt>
      <trkpt lat="49.29186" lon="0.05459">
        <ele>109.4</ele>
        <time>2023-12-06T13:46:56Z</time>
      </trkpt>
      <trkpt lat="49.29195" lon="0.05468">
        <ele>109</ele>
        <time>2023-12-06T13:46:57Z</time>
      </trkpt>
      <trkpt lat="49.29205" lon="0.05478">
        <ele>108.8</ele>
        <time>2023-12-06T13:46:58Z</time>
      </trkpt>
      <trkpt lat="49.29214" lon="0.05487">
        <ele>108.6</ele>
        <time>2023-12-06T13:46:59Z</time>
      </trkpt>
      <trkpt lat="49.29223" lon="0.05497">
        <ele>108</ele>
        <time>2023-12-06T13:47:00Z</time>
      </trkpt>
      <trkpt lat="49.29233" lon="0.05507">
        <ele>107.2</ele>
        <time>2023-12-06T13:47:01Z</time>
      </trkpt>
      <trkpt lat="49.29242" lon="0.05517">
        <ele>106.4</ele>
        <time>2023-12-06T13:47:02Z</time>
      </trkpt>
      <trkpt lat="49.29251" lon="0.05527">
        <ele>106</ele>
        <time>2023-12-06T13:47:03Z</time>
      </trkpt>
      <trkpt lat="49.29261" lon="0.05538">
        <ele>105.6</ele>
        <time>2023-12-06T13:47:04Z</time>
      </trkpt>
      <trkpt lat="49.2927" lon="0.05548">
        <ele>104.8</ele>
        <time>2023-12-06T13:47:05Z</time>
      </trkpt>
      <trkpt lat="49.29279" lon="0.05559">
        <ele>104</ele>
        <time>2023-12-06T13:47:06Z</time>
      </trkpt>
      <trkpt lat="49.29288" lon="0.0557">
        <ele>103.4</ele>
        <time>2023-12-06T13:47:07Z</time>
      </trkpt>
      <trkpt lat="49.29297" lon="0.05582">
        <ele>102.8</ele>
        <time>2023-12-06T13:47:08Z</time>
      </trkpt>
      <trkpt lat="49.29307" lon="0.05594">
        <ele>102.2</ele>
        <time>2023-12-06T13:47:09Z</time>
      </trkpt>
      <trkpt lat="49.29317" lon="0.05605">
        <ele>101.6</ele>
        <time>2023-12-06T13:47:10Z</time>
      </trkpt>
      <trkpt lat="49.29326" lon="0.05617">
        <ele>100.8</ele>
        <time>2023-12-06T13:47:11Z</time>
      </trkpt>
      <trkpt lat="49.29335" lon="0.05629">
        <ele>100</ele>
        <time>2023-12-06T13:47:12Z</time>
      </trkpt>
      <trkpt lat="49.29344" lon="0.05642">
        <ele>99</ele>
        <time>2023-12-06T13:47:13Z</time>
      </trkpt>
      <trkpt lat="49.29353" lon="0.05654">
        <ele>98.2</ele>
        <time>2023-12-06T13:47:14Z</time>
      </trkpt>
      <trkpt lat="49.29362" lon="0.05667">
        <ele>97.6</ele>
        <time>2023-12-06T13:47:15Z</time>
      </trkpt>
      <trkpt lat="49.29371" lon="0.05679">
        <ele>96.8</ele>
        <time>2023-12-06T13:47:16Z</time>
      </trkpt>
      <trkpt lat="49.2938" lon="0.05691">
        <ele>95.8</ele>
        <time>2023-12-06T13:47:17Z</time>
      </trkpt>
      <trkpt lat="49.29389" lon="0.05702">
        <ele>94.8</ele>
        <time>2023-12-06T13:47:18Z</time>
      </trkpt>
      <trkpt lat="49.29399" lon="0.05711">
        <ele>94.2</ele>
        <time>2023-12-06T13:47:19Z</time>
      </trkpt>
      <trkpt lat="49.2941" lon="0.0572">
        <ele>93.6</ele>
        <time>2023-12-06T13:47:20Z</time>
      </trkpt>
      <trkpt lat="49.2942" lon="0.05729">
        <ele>93</ele>
        <time>2023-12-06T13:47:21Z</time>
      </trkpt>
      <trkpt lat="49.2943" lon="0.05737">
        <ele>92.6</ele>
        <time>2023-12-06T13:47:22Z</time>
      </trkpt>
      <trkpt lat="49.2944" lon="0.05746">
        <ele>92.2</ele>
        <time>2023-12-06T13:47:23Z</time>
      </trkpt>
      <trkpt lat="49.2945" lon="0.05754">
        <ele>92</ele>
        <time>2023-12-06T13:47:24Z</time>
      </trkpt>
      <trkpt lat="49.2946" lon="0.05761">
        <ele>91.6</ele>
        <time>2023-12-06T13:47:25Z</time>
      </trkpt>
      <trkpt lat="49.29471" lon="0.05769">
        <ele>91.2</ele>
        <time>2023-12-06T13:47:26Z</time>
      </trkpt>
      <trkpt lat="49.29481" lon="0.05776">
        <ele>90.6</ele>
        <time>2023-12-06T13:47:27Z</time>
      </trkpt>
      <trkpt lat="49.29491" lon="0.05783">
        <ele>90</ele>
        <time>2023-12-06T13:47:28Z</time>
      </trkpt>
      <trkpt lat="49.29501" lon="0.05789">
        <ele>89.2</ele>
        <time>2023-12-06T13:47:29Z</time>
      </trkpt>
      <trkpt lat="49.29511" lon="0.05796">
        <ele>87.8</ele>
        <time>2023-12-06T13:47:30Z</time>
      </trkpt>
      <trkpt lat="49.29521" lon="0.05803">
        <ele>86</ele>
        <time>2023-12-06T13:47:31Z</time>
      </trkpt>
      <trkpt lat="49.29531" lon="0.05809">
        <ele>85.4</ele>
        <time>2023-12-06T13:47:32Z</time>
      </trkpt>
      <trkpt lat="49.2954" lon="0.05815">
        <ele>85</ele>
        <time>2023-12-06T13:47:33Z</time>
      </trkpt>
      <trkpt lat="49.29549" lon="0.05821">
        <ele>84.6</ele>
        <time>2023-12-06T13:47:34Z</time>
      </trkpt>
      <trkpt lat="49.29559" lon="0.05826">
        <ele>84.4</ele>
        <time>2023-12-06T13:47:35Z</time>
      </trkpt>
      <trkpt lat="49.29569" lon="0.05831">
        <ele>84.4</ele>
        <time>2023-12-06T13:47:36Z</time>
      </trkpt>
      <trkpt lat="49.29579" lon="0.05834">
        <ele>84.4</ele>
        <time>2023-12-06T13:47:37Z</time>
      </trkpt>
      <trkpt lat="49.29588" lon="0.05836">
        <ele>84.2</ele>
        <time>2023-12-06T13:47:38Z</time>
      </trkpt>
      <trkpt lat="49.29598" lon="0.05836">
        <ele>84.2</ele>
        <time>2023-12-06T13:47:39Z</time>
      </trkpt>
      <trkpt lat="49.29608" lon="0.05834">
        <ele>84.2</ele>
        <time>2023-12-06T13:47:40Z</time>
      </trkpt>
      <trkpt lat="49.29617" lon="0.05831">
        <ele>84</ele>
        <time>2023-12-06T13:47:41Z</time>
      </trkpt>
      <trkpt lat="49.29627" lon="0.05827">
        <ele>83.8</ele>
        <time>2023-12-06T13:47:42Z</time>
      </trkpt>
      <trkpt lat="49.29636" lon="0.05824">
        <ele>83.8</ele>
        <time>2023-12-06T13:47:43Z</time>
      </trkpt>
      <trkpt lat="49.29645" lon="0.0582">
        <ele>83.6</ele>
        <time>2023-12-06T13:47:44Z</time>
      </trkpt>
      <trkpt lat="49.29654" lon="0.05817">
        <ele>83.2</ele>
        <time>2023-12-06T13:47:45Z</time>
      </trkpt>
      <trkpt lat="49.29663" lon="0.05815">
        <ele>83</ele>
        <time>2023-12-06T13:47:46Z</time>
      </trkpt>
      <trkpt lat="49.29673" lon="0.05815">
        <ele>82.8</ele>
        <time>2023-12-06T13:47:47Z</time>
      </trkpt>
      <trkpt lat="49.29682" lon="0.05817">
        <ele>82.4</ele>
        <time>2023-12-06T13:47:48Z</time>
      </trkpt>
      <trkpt lat="49.29691" lon="0.05819">
        <ele>82</ele>
        <time>2023-12-06T13:47:49Z</time>
      </trkpt>
      <trkpt lat="49.297" lon="0.05824">
        <ele>81.4</ele>
        <time>2023-12-06T13:47:50Z</time>
      </trkpt>
      <trkpt lat="49.29709" lon="0.05829">
        <ele>80.8</ele>
        <time>2023-12-06T13:47:51Z</time>
      </trkpt>
      <trkpt lat="49.29718" lon="0.05834">
        <ele>80.4</ele>
        <time>2023-12-06T13:47:52Z</time>
      </trkpt>
      <trkpt lat="49.29726" lon="0.05841">
        <ele>80</ele>
        <time>2023-12-06T13:47:53Z</time>
      </trkpt>
      <trkpt lat="49.29733" lon="0.05848">
        <ele>79.6</ele>
        <time>2023-12-06T13:47:54Z</time>
      </trkpt>
      <trkpt lat="49.29741" lon="0.05855">
        <ele>79.2</ele>
        <time>2023-12-06T13:47:55Z</time>
      </trkpt>
      <trkpt lat="49.29749" lon="0.05862">
        <ele>78.8</ele>
        <time>2023-12-06T13:47:56Z</time>
      </trkpt>
      <trkpt lat="49.29757" lon="0.05868">
        <ele>78.6</ele>
        <time>2023-12-06T13:47:57Z</time>
      </trkpt>
      <trkpt lat="49.29765" lon="0.05875">
        <ele>78.2</ele>
        <time>2023-12-06T13:47:58Z</time>
      </trkpt>
      <trkpt lat="49.29772" lon="0.05881">
        <ele>78</ele>
        <time>2023-12-06T13:47:59Z</time>
      </trkpt>
      <trkpt lat="49.2978" lon="0.05888">
        <ele>77.8</ele>
        <time>2023-12-06T13:48:00Z</time>
      </trkpt>
      <trkpt lat="49.29788" lon="0.05893">
        <ele>77.6</ele>
        <time>2023-12-06T13:48:01Z</time>
      </trkpt>
      <trkpt lat="49.29796" lon="0.05899">
        <ele>77.4</ele>
        <time>2023-12-06T13:48:02Z</time>
      </trkpt>
      <trkpt lat="49.29803" lon="0.05904">
        <ele>77</ele>
        <time>2023-12-06T13:48:03Z</time>
      </trkpt>
      <trkpt lat="49.29811" lon="0.05909">
        <ele>76.8</ele>
        <time>2023-12-06T13:48:04Z</time>
      </trkpt>
      <trkpt lat="49.29818" lon="0.05915">
        <ele>76.8</ele>
        <time>2023-12-06T13:48:05Z</time>
      </trkpt>
      <trkpt lat="49.29826" lon="0.0592">
        <ele>76.6</ele>
        <time>2023-12-06T13:48:06Z</time>
      </trkpt>
      <trkpt lat="49.29833" lon="0.05925">
        <ele>76.4</ele>
        <time>2023-12-06T13:48:07Z</time>
      </trkpt>
      <trkpt lat="49.29841" lon="0.0593">
        <ele>76</ele>
        <time>2023-12-06T13:48:08Z</time>
      </trkpt>
      <trkpt lat="49.29849" lon="0.05936">
        <ele>76</ele>
        <time>2023-12-06T13:48:09Z</time>
      </trkpt>
      <trkpt lat="49.29857" lon="0.05941">
        <ele>75.8</ele>
        <time>2023-12-06T13:48:10Z</time>
      </trkpt>
      <trkpt lat="49.29864" lon="0.05946">
        <ele>75.6</ele>
        <time>2023-12-06T13:48:11Z</time>
      </trkpt>
      <trkpt lat="49.29873" lon="0.05951">
        <ele>75.6</ele>
        <time>2023-12-06T13:48:12Z</time>
      </trkpt>
      <trkpt lat="49.29881" lon="0.05956">
        <ele>75.4</ele>
        <time>2023-12-06T13:48:13Z</time>
      </trkpt>
      <trkpt lat="49.29889" lon="0.05961">
        <ele>75.4</ele>
        <time>2023-12-06T13:48:14Z</time>
      </trkpt>
      <trkpt lat="49.29898" lon="0.05966">
        <ele>75.4</ele>
        <time>2023-12-06T13:48:15Z</time>
      </trkpt>
      <trkpt lat="49.29905" lon="0.05971">
        <ele>75.2</ele>
        <time>2023-12-06T13:48:16Z</time>
      </trkpt>
      <trkpt lat="49.29913" lon="0.05976">
        <ele>75.2</ele>
        <time>2023-12-06T13:48:17Z</time>
      </trkpt>
      <trkpt lat="49.29921" lon="0.05981">
        <ele>75.2</ele>
        <time>2023-12-06T13:48:18Z</time>
      </trkpt>
      <trkpt lat="49.29929" lon="0.05986">
        <ele>75.2</ele>
        <time>2023-12-06T13:48:19Z</time>
      </trkpt>
      <trkpt lat="49.29937" lon="0.05991">
        <ele>75</ele>
        <time>2023-12-06T13:48:20Z</time>
      </trkpt>
      <trkpt lat="49.29946" lon="0.05995">
        <ele>74.8</ele>
        <time>2023-12-06T13:48:21Z</time>
      </trkpt>
      <trkpt lat="49.29953" lon="0.06">
        <ele>74.4</ele>
        <time>2023-12-06T13:48:22Z</time>
      </trkpt>
      <trkpt lat="49.29961" lon="0.06005">
        <ele>74.2</ele>
        <time>2023-12-06T13:48:23Z</time>
      </trkpt>
      <trkpt lat="49.29968" lon="0.0601">
        <ele>73.8</ele>
        <time>2023-12-06T13:48:24Z</time>
      </trkpt>
      <trkpt lat="49.29975" lon="0.06015">
        <ele>73.8</ele>
        <time>2023-12-06T13:48:25Z</time>
      </trkpt>
      <trkpt lat="49.29982" lon="0.0602">
        <ele>73.6</ele>
        <time>2023-12-06T13:48:26Z</time>
      </trkpt>
      <trkpt lat="49.29987" lon="0.06024">
        <ele>73</ele>
        <time>2023-12-06T13:48:27Z</time>
      </trkpt>
      <trkpt lat="49.29991" lon="0.06028">
        <ele>72.6</ele>
        <time>2023-12-06T13:48:28Z</time>
      </trkpt>
      <trkpt lat="49.29994" lon="0.06031">
        <ele>72.2</ele>
        <time>2023-12-06T13:48:29Z</time>
      </trkpt>
      <trkpt lat="49.29997" lon="0.06035">
        <ele>71.8</ele>
        <time>2023-12-06T13:48:30Z</time>
      </trkpt>
      <trkpt lat="49.29999" lon="0.06038">
        <ele>71.6</ele>
        <time>2023-12-06T13:48:31Z</time>
      </trkpt>
      <trkpt lat="49.30001" lon="0.06041">
        <ele>71.4</ele>
        <time>2023-12-06T13:48:32Z</time>
      </trkpt>
      <trkpt lat="49.30003" lon="0.06046">
        <ele>71.2</ele>
        <time>2023-12-06T13:48:33Z</time>
      </trkpt>
      <trkpt lat="49.30004" lon="0.06051">
        <ele>71.2</ele>
        <time>2023-12-06T13:48:34Z</time>
      </trkpt>
      <trkpt lat="49.30004" lon="0.06056">
        <ele>71</ele>
        <time>2023-12-06T13:48:35Z</time>
      </trkpt>
      <trkpt lat="49.30004" lon="0.06063">
        <ele>71</ele>
        <time>2023-12-06T13:48:36Z</time>
      </trkpt>
      <trkpt lat="49.30003" lon="0.06069">
        <ele>71</ele>
        <time>2023-12-06T13:48:37Z</time>
      </trkpt>
      <trkpt lat="49.30001" lon="0.06075">
        <ele>71</ele>
        <time>2023-12-06T13:48:38Z</time>
      </trkpt>
      <trkpt lat="49.29998" lon="0.06081">
        <ele>70.8</ele>
        <time>2023-12-06T13:48:39Z</time>
      </trkpt>
      <trkpt lat="49.29996" lon="0.06088">
        <ele>70.8</ele>
        <time>2023-12-06T13:48:40Z</time>
      </trkpt>
      <trkpt lat="49.29994" lon="0.06095">
        <ele>70.8</ele>
        <time>2023-12-06T13:48:41Z</time>
      </trkpt>
      <trkpt lat="49.29991" lon="0.06103">
        <ele>70.8</ele>
        <time>2023-12-06T13:48:42Z</time>
      </trkpt>
      <trkpt lat="49.29989" lon="0.06111">
        <ele>70.6</ele>
        <time>2023-12-06T13:48:43Z</time>
      </trkpt>
      <trkpt lat="49.29986" lon="0.0612">
        <ele>70.6</ele>
        <time>2023-12-06T13:48:44Z</time>
      </trkpt>
      <trkpt lat="49.29984" lon="0.06129">
        <ele>70.4</ele>
        <time>2023-12-06T13:48:45Z</time>
      </trkpt>
      <trkpt lat="49.29981" lon="0.06137">
        <ele>70.4</ele>
        <time>2023-12-06T13:48:46Z</time>
      </trkpt>
      <trkpt lat="49.29979" lon="0.06146">
        <ele>70.4</ele>
        <time>2023-12-06T13:48:47Z</time>
      </trkpt>
      <trkpt lat="49.29976" lon="0.06154">
        <ele>70.4</ele>
        <time>2023-12-06T13:48:48Z</time>
      </trkpt>
      <trkpt lat="49.29974" lon="0.06163">
        <ele>70.4</ele>
        <time>2023-12-06T13:48:49Z</time>
      </trkpt>
      <trkpt lat="49.29971" lon="0.06172">
        <ele>70.2</ele>
        <time>2023-12-06T13:48:50Z</time>
      </trkpt>
      <trkpt lat="49.29968" lon="0.06181">
        <ele>70.2</ele>
        <time>2023-12-06T13:48:51Z</time>
      </trkpt>
      <trkpt lat="49.29965" lon="0.0619">
        <ele>70.2</ele>
        <time>2023-12-06T13:48:52Z</time>
      </trkpt>
      <trkpt lat="49.29962" lon="0.06199">
        <ele>70.2</ele>
        <time>2023-12-06T13:48:53Z</time>
      </trkpt>
      <trkpt lat="49.2996" lon="0.06208">
        <ele>70.2</ele>
        <time>2023-12-06T13:48:54Z</time>
      </trkpt>
      <trkpt lat="49.29957" lon="0.06218">
        <ele>70.2</ele>
        <time>2023-12-06T13:48:55Z</time>
      </trkpt>
      <trkpt lat="49.29954" lon="0.06228">
        <ele>70.2</ele>
        <time>2023-12-06T13:48:56Z</time>
      </trkpt>
      <trkpt lat="49.2995" lon="0.06239">
        <ele>70.2</ele>
        <time>2023-12-06T13:48:57Z</time>
      </trkpt>
      <trkpt lat="49.29948" lon="0.06246">
        <ele>70.2</ele>
        <time>2023-12-06T13:48:58Z</time>
      </trkpt>
      <trkpt lat="49.29945" lon="0.06255">
        <ele>70.2</ele>
        <time>2023-12-06T13:48:59Z</time>
      </trkpt>
      <trkpt lat="49.29941" lon="0.06264">
        <ele>70.2</ele>
        <time>2023-12-06T13:49:00Z</time>
      </trkpt>
      <trkpt lat="49.29938" lon="0.06273">
        <ele>70.2</ele>
        <time>2023-12-06T13:49:01Z</time>
      </trkpt>
      <trkpt lat="49.29934" lon="0.06282">
        <ele>70.2</ele>
        <time>2023-12-06T13:49:02Z</time>
      </trkpt>
      <trkpt lat="49.29929" lon="0.06291">
        <ele>70.2</ele>
        <time>2023-12-06T13:49:03Z</time>
      </trkpt>
      <trkpt lat="49.29925" lon="0.063">
        <ele>70.2</ele>
        <time>2023-12-06T13:49:04Z</time>
      </trkpt>
      <trkpt lat="49.2992" lon="0.0631">
        <ele>70.2</ele>
        <time>2023-12-06T13:49:05Z</time>
      </trkpt>
      <trkpt lat="49.29915" lon="0.06319">
        <ele>70.2</ele>
        <time>2023-12-06T13:49:06Z</time>
      </trkpt>
      <trkpt lat="49.2991" lon="0.06329">
        <ele>70</ele>
        <time>2023-12-06T13:49:07Z</time>
      </trkpt>
      <trkpt lat="49.29905" lon="0.06338">
        <ele>70</ele>
        <time>2023-12-06T13:49:08Z</time>
      </trkpt>
      <trkpt lat="49.299" lon="0.06348">
        <ele>70</ele>
        <time>2023-12-06T13:49:09Z</time>
      </trkpt>
      <trkpt lat="49.29895" lon="0.06358">
        <ele>69.8</ele>
        <time>2023-12-06T13:49:10Z</time>
      </trkpt>
      <trkpt lat="49.2989" lon="0.06368">
        <ele>69.6</ele>
        <time>2023-12-06T13:49:11Z</time>
      </trkpt>
      <trkpt lat="49.29885" lon="0.06378">
        <ele>69.4</ele>
        <time>2023-12-06T13:49:12Z</time>
      </trkpt>
      <trkpt lat="49.2988" lon="0.06388">
        <ele>69.2</ele>
        <time>2023-12-06T13:49:13Z</time>
      </trkpt>
      <trkpt lat="49.29875" lon="0.06398">
        <ele>69.2</ele>
        <time>2023-12-06T13:49:14Z</time>
      </trkpt>
      <trkpt lat="49.29869" lon="0.06408">
        <ele>68.6</ele>
        <time>2023-12-06T13:49:15Z</time>
      </trkpt>
      <trkpt lat="49.29864" lon="0.06419">
        <ele>68.2</ele>
        <time>2023-12-06T13:49:16Z</time>
      </trkpt>
      <trkpt lat="49.2986" lon="0.0643">
        <ele>67.6</ele>
        <time>2023-12-06T13:49:17Z</time>
      </trkpt>
      <trkpt lat="49.29854" lon="0.06441">
        <ele>67.2</ele>
        <time>2023-12-06T13:49:18Z</time>
      </trkpt>
      <trkpt lat="49.29849" lon="0.06452">
        <ele>66.8</ele>
        <time>2023-12-06T13:49:19Z</time>
      </trkpt>
      <trkpt lat="49.29844" lon="0.06462">
        <ele>66.2</ele>
        <time>2023-12-06T13:49:20Z</time>
      </trkpt>
      <trkpt lat="49.29839" lon="0.06472">
        <ele>65.8</ele>
        <time>2023-12-06T13:49:21Z</time>
      </trkpt>
      <trkpt lat="49.29834" lon="0.06481">
        <ele>65.4</ele>
        <time>2023-12-06T13:49:22Z</time>
      </trkpt>
      <trkpt lat="49.29829" lon="0.0649">
        <ele>65.4</ele>
        <time>2023-12-06T13:49:23Z</time>
      </trkpt>
      <trkpt lat="49.29825" lon="0.06499">
        <ele>65</ele>
        <time>2023-12-06T13:49:24Z</time>
      </trkpt>
      <trkpt lat="49.2982" lon="0.06508">
        <ele>64.8</ele>
        <time>2023-12-06T13:49:25Z</time>
      </trkpt>
      <trkpt lat="49.29816" lon="0.06516">
        <ele>64.8</ele>
        <time>2023-12-06T13:49:26Z</time>
      </trkpt>
      <trkpt lat="49.29812" lon="0.06524">
        <ele>64.6</ele>
        <time>2023-12-06T13:49:27Z</time>
      </trkpt>
      <trkpt lat="49.29808" lon="0.06532">
        <ele>64.6</ele>
        <time>2023-12-06T13:49:28Z</time>
      </trkpt>
      <trkpt lat="49.29805" lon="0.0654">
        <ele>64.6</ele>
        <time>2023-12-06T13:49:29Z</time>
      </trkpt>
      <trkpt lat="49.29802" lon="0.06547">
        <ele>64.6</ele>
        <time>2023-12-06T13:49:30Z</time>
      </trkpt>
      <trkpt lat="49.29798" lon="0.06554">
        <ele>64.6</ele>
        <time>2023-12-06T13:49:31Z</time>
      </trkpt>
      <trkpt lat="49.29795" lon="0.06561">
        <ele>64.6</ele>
        <time>2023-12-06T13:49:32Z</time>
      </trkpt>
      <trkpt lat="49.29792" lon="0.06568">
        <ele>64.6</ele>
        <time>2023-12-06T13:49:33Z</time>
      </trkpt>
      <trkpt lat="49.29788" lon="0.06575">
        <ele>65</ele>
        <time>2023-12-06T13:49:34Z</time>
      </trkpt>
      <trkpt lat="49.29785" lon="0.06582">
        <ele>65.4</ele>
        <time>2023-12-06T13:49:35Z</time>
      </trkpt>
      <trkpt lat="49.29781" lon="0.06589">
        <ele>65.8</ele>
        <time>2023-12-06T13:49:36Z</time>
      </trkpt>
      <trkpt lat="49.29778" lon="0.06595">
        <ele>66.4</ele>
        <time>2023-12-06T13:49:37Z</time>
      </trkpt>
      <trkpt lat="49.29775" lon="0.06602">
        <ele>66.6</ele>
        <time>2023-12-06T13:49:38Z</time>
      </trkpt>
      <trkpt lat="49.29772" lon="0.06609">
        <ele>67</ele>
        <time>2023-12-06T13:49:39Z</time>
      </trkpt>
      <trkpt lat="49.29768" lon="0.06617">
        <ele>67.4</ele>
        <time>2023-12-06T13:49:40Z</time>
      </trkpt>
      <trkpt lat="49.29765" lon="0.06624">
        <ele>67.4</ele>
        <time>2023-12-06T13:49:41Z</time>
      </trkpt>
      <trkpt lat="49.29761" lon="0.0663">
        <ele>67.8</ele>
        <time>2023-12-06T13:49:42Z</time>
      </trkpt>
      <trkpt lat="49.29758" lon="0.06637">
        <ele>68</ele>
        <time>2023-12-06T13:49:43Z</time>
      </trkpt>
      <trkpt lat="49.29755" lon="0.06644">
        <ele>68.6</ele>
        <time>2023-12-06T13:49:44Z</time>
      </trkpt>
      <trkpt lat="49.29752" lon="0.0665">
        <ele>68.8</ele>
        <time>2023-12-06T13:49:45Z</time>
      </trkpt>
      <trkpt lat="49.29749" lon="0.06656">
        <ele>69</ele>
        <time>2023-12-06T13:49:46Z</time>
      </trkpt>
      <trkpt lat="49.29746" lon="0.06662">
        <ele>69.4</ele>
        <time>2023-12-06T13:49:47Z</time>
      </trkpt>
      <trkpt lat="49.29742" lon="0.06668">
        <ele>70</ele>
        <time>2023-12-06T13:49:48Z</time>
      </trkpt>
      <trkpt lat="49.29739" lon="0.06675">
        <ele>70.4</ele>
        <time>2023-12-06T13:49:49Z</time>
      </trkpt>
      <trkpt lat="49.29736" lon="0.06681">
        <ele>70.6</ele>
        <time>2023-12-06T13:49:50Z</time>
      </trkpt>
      <trkpt lat="49.29732" lon="0.06687">
        <ele>71</ele>
        <time>2023-12-06T13:49:51Z</time>
      </trkpt>
      <trkpt lat="49.29729" lon="0.06693">
        <ele>71</ele>
        <time>2023-12-06T13:49:52Z</time>
      </trkpt>
      <trkpt lat="49.29726" lon="0.06699">
        <ele>71.2</ele>
        <time>2023-12-06T13:49:53Z</time>
      </trkpt>
      <trkpt lat="49.29723" lon="0.06706">
        <ele>71.6</ele>
        <time>2023-12-06T13:49:54Z</time>
      </trkpt>
      <trkpt lat="49.2972" lon="0.06712">
        <ele>71.6</ele>
        <time>2023-12-06T13:49:55Z</time>
      </trkpt>
      <trkpt lat="49.29717" lon="0.06719">
        <ele>72.2</ele>
        <time>2023-12-06T13:49:56Z</time>
      </trkpt>
      <trkpt lat="49.29714" lon="0.06725">
        <ele>72.4</ele>
        <time>2023-12-06T13:49:57Z</time>
      </trkpt>
      <trkpt lat="49.29711" lon="0.06732">
        <ele>72.6</ele>
        <time>2023-12-06T13:49:58Z</time>
      </trkpt>
      <trkpt lat="49.29708" lon="0.06739">
        <ele>72.8</ele>
        <time>2023-12-06T13:49:59Z</time>
      </trkpt>
      <trkpt lat="49.29704" lon="0.06747">
        <ele>73.2</ele>
        <time>2023-12-06T13:50:00Z</time>
      </trkpt>
      <trkpt lat="49.29701" lon="0.06753">
        <ele>73.4</ele>
        <time>2023-12-06T13:50:01Z</time>
      </trkpt>
      <trkpt lat="49.29698" lon="0.0676">
        <ele>73.6</ele>
        <time>2023-12-06T13:50:02Z</time>
      </trkpt>
      <trkpt lat="49.29694" lon="0.06767">
        <ele>73.8</ele>
        <time>2023-12-06T13:50:03Z</time>
      </trkpt>
      <trkpt lat="49.29691" lon="0.06773">
        <ele>74</ele>
        <time>2023-12-06T13:50:04Z</time>
      </trkpt>
      <trkpt lat="49.29688" lon="0.06779">
        <ele>74.2</ele>
        <time>2023-12-06T13:50:05Z</time>
      </trkpt>
      <trkpt lat="49.29685" lon="0.06786">
        <ele>74.4</ele>
        <time>2023-12-06T13:50:06Z</time>
      </trkpt>
      <trkpt lat="49.29681" lon="0.06793">
        <ele>74.6</ele>
        <time>2023-12-06T13:50:07Z</time>
      </trkpt>
      <trkpt lat="49.29677" lon="0.068">
        <ele>74.8</ele>
        <time>2023-12-06T13:50:08Z</time>
      </trkpt>
      <trkpt lat="49.29674" lon="0.06807">
        <ele>75</ele>
        <time>2023-12-06T13:50:09Z</time>
      </trkpt>
      <trkpt lat="49.2967" lon="0.06814">
        <ele>75.2</ele>
        <time>2023-12-06T13:50:10Z</time>
      </trkpt>
      <trkpt lat="49.29667" lon="0.0682">
        <ele>75.4</ele>
        <time>2023-12-06T13:50:11Z</time>
      </trkpt>
      <trkpt lat="49.29663" lon="0.06827">
        <ele>75.4</ele>
        <time>2023-12-06T13:50:12Z</time>
      </trkpt>
      <trkpt lat="49.29659" lon="0.06833">
        <ele>75.8</ele>
        <time>2023-12-06T13:50:13Z</time>
      </trkpt>
      <trkpt lat="49.29656" lon="0.0684">
        <ele>76</ele>
        <time>2023-12-06T13:50:14Z</time>
      </trkpt>
      <trkpt lat="49.29652" lon="0.06847">
        <ele>76.2</ele>
        <time>2023-12-06T13:50:15Z</time>
      </trkpt>
      <trkpt lat="49.29649" lon="0.06855">
        <ele>76.6</ele>
        <time>2023-12-06T13:50:16Z</time>
      </trkpt>
      <trkpt lat="49.29645" lon="0.06863">
        <ele>76.8</ele>
        <time>2023-12-06T13:50:17Z</time>
      </trkpt>
      <trkpt lat="49.29641" lon="0.0687">
        <ele>77</ele>
        <time>2023-12-06T13:50:18Z</time>
      </trkpt>
      <trkpt lat="49.29638" lon="0.06877">
        <ele>77.4</ele>
        <time>2023-12-06T13:50:19Z</time>
      </trkpt>
      <trkpt lat="49.29634" lon="0.06884">
        <ele>77.6</ele>
        <time>2023-12-06T13:50:20Z</time>
      </trkpt>
      <trkpt lat="49.2963" lon="0.06891">
        <ele>77.8</ele>
        <time>2023-12-06T13:50:21Z</time>
      </trkpt>
      <trkpt lat="49.29625" lon="0.06899">
        <ele>77.8</ele>
        <time>2023-12-06T13:50:22Z</time>
      </trkpt>
      <trkpt lat="49.29621" lon="0.06906">
        <ele>77.8</ele>
        <time>2023-12-06T13:50:23Z</time>
      </trkpt>
      <trkpt lat="49.29617" lon="0.06912">
        <ele>77.8</ele>
        <time>2023-12-06T13:50:24Z</time>
      </trkpt>
      <trkpt lat="49.29613" lon="0.06919">
        <ele>78</ele>
        <time>2023-12-06T13:50:25Z</time>
      </trkpt>
      <trkpt lat="49.29609" lon="0.06925">
        <ele>78</ele>
        <time>2023-12-06T13:50:26Z</time>
      </trkpt>
      <trkpt lat="49.29605" lon="0.06932">
        <ele>78</ele>
        <time>2023-12-06T13:50:27Z</time>
      </trkpt>
      <trkpt lat="49.29601" lon="0.06939">
        <ele>78</ele>
        <time>2023-12-06T13:50:28Z</time>
      </trkpt>
      <trkpt lat="49.29597" lon="0.06946">
        <ele>78</ele>
        <time>2023-12-06T13:50:29Z</time>
      </trkpt>
      <trkpt lat="49.29593" lon="0.06952">
        <ele>78.2</ele>
        <time>2023-12-06T13:50:30Z</time>
      </trkpt>
      <trkpt lat="49.29589" lon="0.06959">
        <ele>78.2</ele>
        <time>2023-12-06T13:50:31Z</time>
      </trkpt>
      <trkpt lat="49.29584" lon="0.06966">
        <ele>78.2</ele>
        <time>2023-12-06T13:50:32Z</time>
      </trkpt>
      <trkpt lat="49.2958" lon="0.06972">
        <ele>78.2</ele>
        <time>2023-12-06T13:50:33Z</time>
      </trkpt>
      <trkpt lat="49.29576" lon="0.06978">
        <ele>78.2</ele>
        <time>2023-12-06T13:50:34Z</time>
      </trkpt>
      <trkpt lat="49.29572" lon="0.06985">
        <ele>78.4</ele>
        <time>2023-12-06T13:50:35Z</time>
      </trkpt>
      <trkpt lat="49.29567" lon="0.06992">
        <ele>78.4</ele>
        <time>2023-12-06T13:50:36Z</time>
      </trkpt>
      <trkpt lat="49.29563" lon="0.06998">
        <ele>78.6</ele>
        <time>2023-12-06T13:50:37Z</time>
      </trkpt>
      <trkpt lat="49.29559" lon="0.07006">
        <ele>78.6</ele>
        <time>2023-12-06T13:50:38Z</time>
      </trkpt>
      <trkpt lat="49.29555" lon="0.07013">
        <ele>78.8</ele>
        <time>2023-12-06T13:50:39Z</time>
      </trkpt>
      <trkpt lat="49.2955" lon="0.0702">
        <ele>78.8</ele>
        <time>2023-12-06T13:50:40Z</time>
      </trkpt>
      <trkpt lat="49.29545" lon="0.07027">
        <ele>78.8</ele>
        <time>2023-12-06T13:50:41Z</time>
      </trkpt>
      <trkpt lat="49.29541" lon="0.07034">
        <ele>78.8</ele>
        <time>2023-12-06T13:50:42Z</time>
      </trkpt>
      <trkpt lat="49.29536" lon="0.07042">
        <ele>78.8</ele>
        <time>2023-12-06T13:50:43Z</time>
      </trkpt>
      <trkpt lat="49.29532" lon="0.07049">
        <ele>78.8</ele>
        <time>2023-12-06T13:50:44Z</time>
      </trkpt>
      <trkpt lat="49.29527" lon="0.07056">
        <ele>78.8</ele>
        <time>2023-12-06T13:50:45Z</time>
      </trkpt>
      <trkpt lat="49.29523" lon="0.07062">
        <ele>78.8</ele>
        <time>2023-12-06T13:50:46Z</time>
      </trkpt>
      <trkpt lat="49.29518" lon="0.07069">
        <ele>78.8</ele>
        <time>2023-12-06T13:50:47Z</time>
      </trkpt>
      <trkpt lat="49.29514" lon="0.07076">
        <ele>78.8</ele>
        <time>2023-12-06T13:50:48Z</time>
      </trkpt>
      <trkpt lat="49.29509" lon="0.07082">
        <ele>78.8</ele>
        <time>2023-12-06T13:50:49Z</time>
      </trkpt>
      <trkpt lat="49.29505" lon="0.07089">
        <ele>78.8</ele>
        <time>2023-12-06T13:50:50Z</time>
      </trkpt>
      <trkpt lat="49.295" lon="0.07095">
        <ele>78.8</ele>
        <time>2023-12-06T13:50:51Z</time>
      </trkpt>
      <trkpt lat="49.29495" lon="0.07102">
        <ele>78.4</ele>
        <time>2023-12-06T13:50:52Z</time>
      </trkpt>
      <trkpt lat="49.29491" lon="0.07108">
        <ele>78.2</ele>
        <time>2023-12-06T13:50:53Z</time>
      </trkpt>
      <trkpt lat="49.29486" lon="0.07115">
        <ele>78</ele>
        <time>2023-12-06T13:50:54Z</time>
      </trkpt>
      <trkpt lat="49.29481" lon="0.07122">
        <ele>78</ele>
        <time>2023-12-06T13:50:55Z</time>
      </trkpt>
      <trkpt lat="49.29477" lon="0.07129">
        <ele>77.8</ele>
        <time>2023-12-06T13:50:56Z</time>
      </trkpt>
      <trkpt lat="49.29472" lon="0.07136">
        <ele>77.8</ele>
        <time>2023-12-06T13:50:57Z</time>
      </trkpt>
      <trkpt lat="49.29468" lon="0.07143">
        <ele>77.8</ele>
        <time>2023-12-06T13:50:58Z</time>
      </trkpt>
      <trkpt lat="49.29463" lon="0.07151">
        <ele>77.8</ele>
        <time>2023-12-06T13:50:59Z</time>
      </trkpt>
      <trkpt lat="49.29458" lon="0.07158">
        <ele>77.8</ele>
        <time>2023-12-06T13:51:00Z</time>
      </trkpt>
      <trkpt lat="49.29454" lon="0.07165">
        <ele>77.6</ele>
        <time>2023-12-06T13:51:01Z</time>
      </trkpt>
      <trkpt lat="49.2945" lon="0.07172">
        <ele>77.6</ele>
        <time>2023-12-06T13:51:02Z</time>
      </trkpt>
      <trkpt lat="49.29445" lon="0.07179">
        <ele>77.6</ele>
        <time>2023-12-06T13:51:03Z</time>
      </trkpt>
      <trkpt lat="49.2944" lon="0.07186">
        <ele>77.6</ele>
        <time>2023-12-06T13:51:04Z</time>
      </trkpt>
      <trkpt lat="49.29435" lon="0.07193">
        <ele>77.6</ele>
        <time>2023-12-06T13:51:05Z</time>
      </trkpt>
      <trkpt lat="49.2943" lon="0.07201">
        <ele>77.6</ele>
        <time>2023-12-06T13:51:06Z</time>
      </trkpt>
      <trkpt lat="49.29426" lon="0.07208">
        <ele>77.6</ele>
        <time>2023-12-06T13:51:07Z</time>
      </trkpt>
      <trkpt lat="49.29421" lon="0.07216">
        <ele>77.6</ele>
        <time>2023-12-06T13:51:08Z</time>
      </trkpt>
      <trkpt lat="49.29417" lon="0.07223">
        <ele>77.6</ele>
        <time>2023-12-06T13:51:09Z</time>
      </trkpt>
      <trkpt lat="49.29412" lon="0.0723">
        <ele>77.4</ele>
        <time>2023-12-06T13:51:10Z</time>
      </trkpt>
      <trkpt lat="49.29407" lon="0.07237">
        <ele>77.4</ele>
        <time>2023-12-06T13:51:11Z</time>
      </trkpt>
      <trkpt lat="49.29403" lon="0.07245">
        <ele>77.4</ele>
        <time>2023-12-06T13:51:12Z</time>
      </trkpt>
      <trkpt lat="49.29398" lon="0.07251">
        <ele>77.4</ele>
        <time>2023-12-06T13:51:13Z</time>
      </trkpt>
      <trkpt lat="49.29393" lon="0.07258">
        <ele>77.2</ele>
        <time>2023-12-06T13:51:14Z</time>
      </trkpt>
      <trkpt lat="49.29388" lon="0.07266">
        <ele>77.2</ele>
        <time>2023-12-06T13:51:15Z</time>
      </trkpt>
      <trkpt lat="49.29383" lon="0.07273">
        <ele>77.2</ele>
        <time>2023-12-06T13:51:16Z</time>
      </trkpt>
      <trkpt lat="49.29378" lon="0.0728">
        <ele>77</ele>
        <time>2023-12-06T13:51:17Z</time>
      </trkpt>
      <trkpt lat="49.29373" lon="0.07288">
        <ele>76.8</ele>
        <time>2023-12-06T13:51:18Z</time>
      </trkpt>
      <trkpt lat="49.29369" lon="0.07295">
        <ele>76.6</ele>
        <time>2023-12-06T13:51:19Z</time>
      </trkpt>
      <trkpt lat="49.29364" lon="0.07302">
        <ele>76.6</ele>
        <time>2023-12-06T13:51:20Z</time>
      </trkpt>
      <trkpt lat="49.29359" lon="0.07309">
        <ele>76.6</ele>
        <time>2023-12-06T13:51:21Z</time>
      </trkpt>
      <trkpt lat="49.29354" lon="0.07316">
        <ele>76.4</ele>
        <time>2023-12-06T13:51:22Z</time>
      </trkpt>
      <trkpt lat="49.29349" lon="0.07323">
        <ele>76.4</ele>
        <time>2023-12-06T13:51:23Z</time>
      </trkpt>
      <trkpt lat="49.29344" lon="0.07331">
        <ele>76.2</ele>
        <time>2023-12-06T13:51:24Z</time>
      </trkpt>
      <trkpt lat="49.29339" lon="0.07338">
        <ele>76</ele>
        <time>2023-12-06T13:51:25Z</time>
      </trkpt>
      <trkpt lat="49.29334" lon="0.07345">
        <ele>75.8</ele>
        <time>2023-12-06T13:51:26Z</time>
      </trkpt>
      <trkpt lat="49.29329" lon="0.07353">
        <ele>75.6</ele>
        <time>2023-12-06T13:51:27Z</time>
      </trkpt>
      <trkpt lat="49.29324" lon="0.07361">
        <ele>75.4</ele>
        <time>2023-12-06T13:51:28Z</time>
      </trkpt>
      <trkpt lat="49.29319" lon="0.07368">
        <ele>75.2</ele>
        <time>2023-12-06T13:51:29Z</time>
      </trkpt>
      <trkpt lat="49.29314" lon="0.07376">
        <ele>75</ele>
        <time>2023-12-06T13:51:30Z</time>
      </trkpt>
      <trkpt lat="49.29308" lon="0.07383">
        <ele>74.8</ele>
        <time>2023-12-06T13:51:31Z</time>
      </trkpt>
      <trkpt lat="49.29303" lon="0.07391">
        <ele>74.8</ele>
        <time>2023-12-06T13:51:32Z</time>
      </trkpt>
      <trkpt lat="49.29298" lon="0.07398">
        <ele>74.6</ele>
        <time>2023-12-06T13:51:33Z</time>
      </trkpt>
      <trkpt lat="49.29294" lon="0.07404">
        <ele>74.6</ele>
        <time>2023-12-06T13:51:34Z</time>
      </trkpt>
      <trkpt lat="49.29288" lon="0.07412">
        <ele>74.6</ele>
        <time>2023-12-06T13:51:35Z</time>
      </trkpt>
      <trkpt lat="49.29283" lon="0.07419">
        <ele>74.4</ele>
        <time>2023-12-06T13:51:36Z</time>
      </trkpt>
      <trkpt lat="49.29278" lon="0.07426">
        <ele>74.4</ele>
        <time>2023-12-06T13:51:37Z</time>
      </trkpt>
      <trkpt lat="49.29274" lon="0.07434">
        <ele>74.2</ele>
        <time>2023-12-06T13:51:38Z</time>
      </trkpt>
      <trkpt lat="49.29269" lon="0.07441">
        <ele>74.2</ele>
        <time>2023-12-06T13:51:39Z</time>
      </trkpt>
      <trkpt lat="49.29264" lon="0.07449">
        <ele>74</ele>
        <time>2023-12-06T13:51:40Z</time>
      </trkpt>
      <trkpt lat="49.29259" lon="0.07457">
        <ele>73.8</ele>
        <time>2023-12-06T13:51:41Z</time>
      </trkpt>
      <trkpt lat="49.29254" lon="0.07464">
        <ele>73.6</ele>
        <time>2023-12-06T13:51:42Z</time>
      </trkpt>
      <trkpt lat="49.29249" lon="0.07471">
        <ele>73.4</ele>
        <time>2023-12-06T13:51:43Z</time>
      </trkpt>
      <trkpt lat="49.29245" lon="0.07478">
        <ele>73.2</ele>
        <time>2023-12-06T13:51:44Z</time>
      </trkpt>
      <trkpt lat="49.29241" lon="0.07485">
        <ele>73.2</ele>
        <time>2023-12-06T13:51:45Z</time>
      </trkpt>
      <trkpt lat="49.29236" lon="0.07493">
        <ele>73</ele>
        <time>2023-12-06T13:51:46Z</time>
      </trkpt>
      <trkpt lat="49.29231" lon="0.075">
        <ele>73</ele>
        <time>2023-12-06T13:51:47Z</time>
      </trkpt>
      <trkpt lat="49.29227" lon="0.07507">
        <ele>73</ele>
        <time>2023-12-06T13:51:48Z</time>
      </trkpt>
      <trkpt lat="49.29222" lon="0.07515">
        <ele>73</ele>
        <time>2023-12-06T13:51:49Z</time>
      </trkpt>
      <trkpt lat="49.29217" lon="0.07521">
        <ele>72.8</ele>
        <time>2023-12-06T13:51:50Z</time>
      </trkpt>
      <trkpt lat="49.29212" lon="0.07528">
        <ele>72.8</ele>
        <time>2023-12-06T13:51:51Z</time>
      </trkpt>
      <trkpt lat="49.29208" lon="0.07534">
        <ele>72.8</ele>
        <time>2023-12-06T13:51:52Z</time>
      </trkpt>
      <trkpt lat="49.29203" lon="0.07541">
        <ele>72.6</ele>
        <time>2023-12-06T13:51:53Z</time>
      </trkpt>
      <trkpt lat="49.29198" lon="0.07548">
        <ele>72.6</ele>
        <time>2023-12-06T13:51:54Z</time>
      </trkpt>
      <trkpt lat="49.29194" lon="0.07554">
        <ele>72.4</ele>
        <time>2023-12-06T13:51:55Z</time>
      </trkpt>
      <trkpt lat="49.29189" lon="0.07562">
        <ele>72.4</ele>
        <time>2023-12-06T13:51:56Z</time>
      </trkpt>
      <trkpt lat="49.29184" lon="0.07569">
        <ele>72.2</ele>
        <time>2023-12-06T13:51:57Z</time>
      </trkpt>
      <trkpt lat="49.2918" lon="0.07576">
        <ele>72.2</ele>
        <time>2023-12-06T13:51:58Z</time>
      </trkpt>
      <trkpt lat="49.29175" lon="0.07584">
        <ele>72</ele>
        <time>2023-12-06T13:51:59Z</time>
      </trkpt>
      <trkpt lat="49.2917" lon="0.07592">
        <ele>72</ele>
        <time>2023-12-06T13:52:00Z</time>
      </trkpt>
      <trkpt lat="49.29165" lon="0.076">
        <ele>71.8</ele>
        <time>2023-12-06T13:52:01Z</time>
      </trkpt>
      <trkpt lat="49.29161" lon="0.07609">
        <ele>71.8</ele>
        <time>2023-12-06T13:52:02Z</time>
      </trkpt>
      <trkpt lat="49.29156" lon="0.07618">
        <ele>71.6</ele>
        <time>2023-12-06T13:52:03Z</time>
      </trkpt>
      <trkpt lat="49.29151" lon="0.07626">
        <ele>71.6</ele>
        <time>2023-12-06T13:52:04Z</time>
      </trkpt>
      <trkpt lat="49.29146" lon="0.07633">
        <ele>71.2</ele>
        <time>2023-12-06T13:52:05Z</time>
      </trkpt>
      <trkpt lat="49.29141" lon="0.07641">
        <ele>71</ele>
        <time>2023-12-06T13:52:06Z</time>
      </trkpt>
      <trkpt lat="49.29135" lon="0.07649">
        <ele>70.8</ele>
        <time>2023-12-06T13:52:07Z</time>
      </trkpt>
      <trkpt lat="49.29129" lon="0.07658">
        <ele>70.8</ele>
        <time>2023-12-06T13:52:08Z</time>
      </trkpt>
      <trkpt lat="49.29124" lon="0.07666">
        <ele>70.6</ele>
        <time>2023-12-06T13:52:09Z</time>
      </trkpt>
      <trkpt lat="49.29119" lon="0.07673">
        <ele>70.6</ele>
        <time>2023-12-06T13:52:10Z</time>
      </trkpt>
      <trkpt lat="49.29114" lon="0.07681">
        <ele>70.4</ele>
        <time>2023-12-06T13:52:11Z</time>
      </trkpt>
      <trkpt lat="49.29109" lon="0.07689">
        <ele>70.2</ele>
        <time>2023-12-06T13:52:12Z</time>
      </trkpt>
      <trkpt lat="49.29104" lon="0.07698">
        <ele>69.8</ele>
        <time>2023-12-06T13:52:13Z</time>
      </trkpt>
      <trkpt lat="49.29099" lon="0.07707">
        <ele>69.4</ele>
        <time>2023-12-06T13:52:14Z</time>
      </trkpt>
      <trkpt lat="49.29094" lon="0.07717">
        <ele>68.8</ele>
        <time>2023-12-06T13:52:15Z</time>
      </trkpt>
      <trkpt lat="49.29088" lon="0.07727">
        <ele>68.4</ele>
        <time>2023-12-06T13:52:16Z</time>
      </trkpt>
      <trkpt lat="49.29082" lon="0.07738">
        <ele>68.2</ele>
        <time>2023-12-06T13:52:17Z</time>
      </trkpt>
      <trkpt lat="49.29077" lon="0.07748">
        <ele>67.8</ele>
        <time>2023-12-06T13:52:18Z</time>
      </trkpt>
      <trkpt lat="49.29071" lon="0.07759">
        <ele>67.6</ele>
        <time>2023-12-06T13:52:19Z</time>
      </trkpt>
      <trkpt lat="49.29065" lon="0.07769">
        <ele>67.2</ele>
        <time>2023-12-06T13:52:20Z</time>
      </trkpt>
      <trkpt lat="49.29059" lon="0.0778">
        <ele>66.8</ele>
        <time>2023-12-06T13:52:21Z</time>
      </trkpt>
      <trkpt lat="49.29052" lon="0.0779">
        <ele>66.4</ele>
        <time>2023-12-06T13:52:22Z</time>
      </trkpt>
      <trkpt lat="49.29045" lon="0.07799">
        <ele>66</ele>
        <time>2023-12-06T13:52:23Z</time>
      </trkpt>
      <trkpt lat="49.29038" lon="0.07808">
        <ele>65.8</ele>
        <time>2023-12-06T13:52:24Z</time>
      </trkpt>
      <trkpt lat="49.2903" lon="0.07817">
        <ele>65.2</ele>
        <time>2023-12-06T13:52:25Z</time>
      </trkpt>
      <trkpt lat="49.29022" lon="0.07825">
        <ele>64.4</ele>
        <time>2023-12-06T13:52:26Z</time>
      </trkpt>
      <trkpt lat="49.29014" lon="0.07834">
        <ele>63.6</ele>
        <time>2023-12-06T13:52:27Z</time>
      </trkpt>
      <trkpt lat="49.29005" lon="0.07843">
        <ele>62.8</ele>
        <time>2023-12-06T13:52:28Z</time>
      </trkpt>
      <trkpt lat="49.28997" lon="0.07852">
        <ele>62.2</ele>
        <time>2023-12-06T13:52:29Z</time>
      </trkpt>
      <trkpt lat="49.28989" lon="0.07861">
        <ele>61.6</ele>
        <time>2023-12-06T13:52:30Z</time>
      </trkpt>
      <trkpt lat="49.2898" lon="0.0787">
        <ele>61</ele>
        <time>2023-12-06T13:52:31Z</time>
      </trkpt>
      <trkpt lat="49.28971" lon="0.07879">
        <ele>60.4</ele>
        <time>2023-12-06T13:52:32Z</time>
      </trkpt>
      <trkpt lat="49.28962" lon="0.07889">
        <ele>59.8</ele>
        <time>2023-12-06T13:52:33Z</time>
      </trkpt>
      <trkpt lat="49.28954" lon="0.07898">
        <ele>59.2</ele>
        <time>2023-12-06T13:52:34Z</time>
      </trkpt>
      <trkpt lat="49.28945" lon="0.07908">
        <ele>58.6</ele>
        <time>2023-12-06T13:52:35Z</time>
      </trkpt>
      <trkpt lat="49.28936" lon="0.07918">
        <ele>58</ele>
        <time>2023-12-06T13:52:36Z</time>
      </trkpt>
      <trkpt lat="49.28926" lon="0.07928">
        <ele>57.2</ele>
        <time>2023-12-06T13:52:37Z</time>
      </trkpt>
      <trkpt lat="49.28917" lon="0.07937">
        <ele>56.4</ele>
        <time>2023-12-06T13:52:38Z</time>
      </trkpt>
      <trkpt lat="49.28908" lon="0.07947">
        <ele>55.4</ele>
        <time>2023-12-06T13:52:39Z</time>
      </trkpt>
      <trkpt lat="49.28899" lon="0.07957">
        <ele>55</ele>
        <time>2023-12-06T13:52:40Z</time>
      </trkpt>
      <trkpt lat="49.2889" lon="0.07967">
        <ele>54.4</ele>
        <time>2023-12-06T13:52:41Z</time>
      </trkpt>
      <trkpt lat="49.28881" lon="0.07977">
        <ele>54</ele>
        <time>2023-12-06T13:52:42Z</time>
      </trkpt>
      <trkpt lat="49.28872" lon="0.07988">
        <ele>53.2</ele>
        <time>2023-12-06T13:52:43Z</time>
      </trkpt>
      <trkpt lat="49.28863" lon="0.07997">
        <ele>52.2</ele>
        <time>2023-12-06T13:52:44Z</time>
      </trkpt>
      <trkpt lat="49.28854" lon="0.08007">
        <ele>51.2</ele>
        <time>2023-12-06T13:52:45Z</time>
      </trkpt>
      <trkpt lat="49.28845" lon="0.08016">
        <ele>50.4</ele>
        <time>2023-12-06T13:52:46Z</time>
      </trkpt>
      <trkpt lat="49.28837" lon="0.08026">
        <ele>49.6</ele>
        <time>2023-12-06T13:52:47Z</time>
      </trkpt>
      <trkpt lat="49.28829" lon="0.08035">
        <ele>49.2</ele>
        <time>2023-12-06T13:52:48Z</time>
      </trkpt>
      <trkpt lat="49.2882" lon="0.08045">
        <ele>48.8</ele>
        <time>2023-12-06T13:52:49Z</time>
      </trkpt>
      <trkpt lat="49.28813" lon="0.08055">
        <ele>48.4</ele>
        <time>2023-12-06T13:52:50Z</time>
      </trkpt>
      <trkpt lat="49.28805" lon="0.08064">
        <ele>48</ele>
        <time>2023-12-06T13:52:51Z</time>
      </trkpt>
      <trkpt lat="49.28798" lon="0.08075">
        <ele>47.4</ele>
        <time>2023-12-06T13:52:52Z</time>
      </trkpt>
      <trkpt lat="49.28792" lon="0.08085">
        <ele>46.6</ele>
        <time>2023-12-06T13:52:53Z</time>
      </trkpt>
      <trkpt lat="49.28785" lon="0.08095">
        <ele>45.8</ele>
        <time>2023-12-06T13:52:54Z</time>
      </trkpt>
      <trkpt lat="49.2878" lon="0.08106">
        <ele>45.2</ele>
        <time>2023-12-06T13:52:55Z</time>
      </trkpt>
      <trkpt lat="49.28775" lon="0.08116">
        <ele>45</ele>
        <time>2023-12-06T13:52:56Z</time>
      </trkpt>
      <trkpt lat="49.2877" lon="0.08127">
        <ele>44.8</ele>
        <time>2023-12-06T13:52:57Z</time>
      </trkpt>
      <trkpt lat="49.28765" lon="0.08137">
        <ele>44.6</ele>
        <time>2023-12-06T13:52:58Z</time>
      </trkpt>
      <trkpt lat="49.28761" lon="0.08146">
        <ele>44.6</ele>
        <time>2023-12-06T13:52:59Z</time>
      </trkpt>
      <trkpt lat="49.28757" lon="0.08155">
        <ele>44.6</ele>
        <time>2023-12-06T13:53:00Z</time>
      </trkpt>
      <trkpt lat="49.28753" lon="0.08163">
        <ele>44.6</ele>
        <time>2023-12-06T13:53:01Z</time>
      </trkpt>
      <trkpt lat="49.28749" lon="0.08172">
        <ele>44.6</ele>
        <time>2023-12-06T13:53:02Z</time>
      </trkpt>
      <trkpt lat="49.28746" lon="0.0818">
        <ele>44.6</ele>
        <time>2023-12-06T13:53:03Z</time>
      </trkpt>
      <trkpt lat="49.28743" lon="0.08188">
        <ele>44.6</ele>
        <time>2023-12-06T13:53:04Z</time>
      </trkpt>
      <trkpt lat="49.28741" lon="0.08196">
        <ele>44.6</ele>
        <time>2023-12-06T13:53:05Z</time>
      </trkpt>
      <trkpt lat="49.28738" lon="0.08203">
        <ele>44.6</ele>
        <time>2023-12-06T13:53:06Z</time>
      </trkpt>
      <trkpt lat="49.28736" lon="0.0821">
        <ele>44.8</ele>
        <time>2023-12-06T13:53:07Z</time>
      </trkpt>
      <trkpt lat="49.28734" lon="0.08218">
        <ele>45.2</ele>
        <time>2023-12-06T13:53:08Z</time>
      </trkpt>
      <trkpt lat="49.28732" lon="0.08225">
        <ele>45.4</ele>
        <time>2023-12-06T13:53:09Z</time>
      </trkpt>
      <trkpt lat="49.2873" lon="0.08232">
        <ele>45.8</ele>
        <time>2023-12-06T13:53:10Z</time>
      </trkpt>
      <trkpt lat="49.28728" lon="0.08238">
        <ele>46</ele>
        <time>2023-12-06T13:53:11Z</time>
      </trkpt>
      <trkpt lat="49.28726" lon="0.08245">
        <ele>46.4</ele>
        <time>2023-12-06T13:53:12Z</time>
      </trkpt>
      <trkpt lat="49.28725" lon="0.08252">
        <ele>47</ele>
        <time>2023-12-06T13:53:13Z</time>
      </trkpt>
      <trkpt lat="49.28724" lon="0.08258">
        <ele>47.4</ele>
        <time>2023-12-06T13:53:14Z</time>
      </trkpt>
      <trkpt lat="49.28723" lon="0.08264">
        <ele>47.8</ele>
        <time>2023-12-06T13:53:15Z</time>
      </trkpt>
      <trkpt lat="49.28721" lon="0.0827">
        <ele>48.2</ele>
        <time>2023-12-06T13:53:16Z</time>
      </trkpt>
      <trkpt lat="49.2872" lon="0.08275">
        <ele>48.8</ele>
        <time>2023-12-06T13:53:17Z</time>
      </trkpt>
      <trkpt lat="49.28719" lon="0.0828">
        <ele>49.2</ele>
        <time>2023-12-06T13:53:18Z</time>
      </trkpt>
      <trkpt lat="49.28718" lon="0.08286">
        <ele>49.6</ele>
        <time>2023-12-06T13:53:19Z</time>
      </trkpt>
      <trkpt lat="49.28717" lon="0.08291">
        <ele>50</ele>
        <time>2023-12-06T13:53:20Z</time>
      </trkpt>
      <trkpt lat="49.28716" lon="0.08295">
        <ele>50.6</ele>
        <time>2023-12-06T13:53:21Z</time>
      </trkpt>
      <trkpt lat="49.28715" lon="0.083">
        <ele>51</ele>
        <time>2023-12-06T13:53:22Z</time>
      </trkpt>
      <trkpt lat="49.28714" lon="0.08305">
        <ele>51.4</ele>
        <time>2023-12-06T13:53:23Z</time>
      </trkpt>
      <trkpt lat="49.28713" lon="0.0831">
        <ele>51.8</ele>
        <time>2023-12-06T13:53:24Z</time>
      </trkpt>
      <trkpt lat="49.28711" lon="0.08315">
        <ele>52</ele>
        <time>2023-12-06T13:53:25Z</time>
      </trkpt>
      <trkpt lat="49.2871" lon="0.08321">
        <ele>52.4</ele>
        <time>2023-12-06T13:53:26Z</time>
      </trkpt>
      <trkpt lat="49.28709" lon="0.08326">
        <ele>52.8</ele>
        <time>2023-12-06T13:53:27Z</time>
      </trkpt>
      <trkpt lat="49.28707" lon="0.0833">
        <ele>53.2</ele>
        <time>2023-12-06T13:53:28Z</time>
      </trkpt>
      <trkpt lat="49.28705" lon="0.08335">
        <ele>53.6</ele>
        <time>2023-12-06T13:53:29Z</time>
      </trkpt>
      <trkpt lat="49.28703" lon="0.08339">
        <ele>53.8</ele>
        <time>2023-12-06T13:53:30Z</time>
      </trkpt>
      <trkpt lat="49.28701" lon="0.08344">
        <ele>54.2</ele>
        <time>2023-12-06T13:53:31Z</time>
      </trkpt>
      <trkpt lat="49.28699" lon="0.08348">
        <ele>54.6</ele>
        <time>2023-12-06T13:53:32Z</time>
      </trkpt>
      <trkpt lat="49.28697" lon="0.08351">
        <ele>54.8</ele>
        <time>2023-12-06T13:53:33Z</time>
      </trkpt>
      <trkpt lat="49.28695" lon="0.08356">
        <ele>55</ele>
        <time>2023-12-06T13:53:34Z</time>
      </trkpt>
      <trkpt lat="49.28692" lon="0.08359">
        <ele>55.4</ele>
        <time>2023-12-06T13:53:35Z</time>
      </trkpt>
      <trkpt lat="49.2869" lon="0.08363">
        <ele>55.6</ele>
        <time>2023-12-06T13:53:36Z</time>
      </trkpt>
      <trkpt lat="49.28687" lon="0.08367">
        <ele>55.8</ele>
        <time>2023-12-06T13:53:37Z</time>
      </trkpt>
      <trkpt lat="49.28685" lon="0.0837">
        <ele>56.2</ele>
        <time>2023-12-06T13:53:38Z</time>
      </trkpt>
      <trkpt lat="49.28682" lon="0.08373">
        <ele>56.4</ele>
        <time>2023-12-06T13:53:39Z</time>
      </trkpt>
      <trkpt lat="49.2868" lon="0.08376">
        <ele>56.6</ele>
        <time>2023-12-06T13:53:40Z</time>
      </trkpt>
      <trkpt lat="49.28677" lon="0.0838">
        <ele>57</ele>
        <time>2023-12-06T13:53:41Z</time>
      </trkpt>
      <trkpt lat="49.28674" lon="0.08383">
        <ele>57.2</ele>
        <time>2023-12-06T13:53:42Z</time>
      </trkpt>
      <trkpt lat="49.28672" lon="0.08387">
        <ele>57.6</ele>
        <time>2023-12-06T13:53:43Z</time>
      </trkpt>
      <trkpt lat="49.28669" lon="0.0839">
        <ele>58</ele>
        <time>2023-12-06T13:53:44Z</time>
      </trkpt>
      <trkpt lat="49.28666" lon="0.08394">
        <ele>58.2</ele>
        <time>2023-12-06T13:53:45Z</time>
      </trkpt>
      <trkpt lat="49.28664" lon="0.08399">
        <ele>58.4</ele>
        <time>2023-12-06T13:53:46Z</time>
      </trkpt>
      <trkpt lat="49.28661" lon="0.08403">
        <ele>58.6</ele>
        <time>2023-12-06T13:53:47Z</time>
      </trkpt>
      <trkpt lat="49.28659" lon="0.08407">
        <ele>59</ele>
        <time>2023-12-06T13:53:48Z</time>
      </trkpt>
      <trkpt lat="49.28656" lon="0.08412">
        <ele>59.2</ele>
        <time>2023-12-06T13:53:49Z</time>
      </trkpt>
      <trkpt lat="49.28653" lon="0.08416">
        <ele>59.6</ele>
        <time>2023-12-06T13:53:50Z</time>
      </trkpt>
      <trkpt lat="49.28651" lon="0.08421">
        <ele>59.8</ele>
        <time>2023-12-06T13:53:51Z</time>
      </trkpt>
      <trkpt lat="49.28648" lon="0.08425">
        <ele>60.2</ele>
        <time>2023-12-06T13:53:52Z</time>
      </trkpt>
      <trkpt lat="49.28646" lon="0.0843">
        <ele>60.4</ele>
        <time>2023-12-06T13:53:53Z</time>
      </trkpt>
      <trkpt lat="49.28644" lon="0.08434">
        <ele>60.6</ele>
        <time>2023-12-06T13:53:54Z</time>
      </trkpt>
      <trkpt lat="49.28641" lon="0.08439">
        <ele>60.8</ele>
        <time>2023-12-06T13:53:55Z</time>
      </trkpt>
      <trkpt lat="49.28638" lon="0.08445">
        <ele>60.8</ele>
        <time>2023-12-06T13:53:56Z</time>
      </trkpt>
      <trkpt lat="49.28634" lon="0.08451">
        <ele>61</ele>
        <time>2023-12-06T13:53:57Z</time>
      </trkpt>
      <trkpt lat="49.28631" lon="0.08457">
        <ele>61.2</ele>
        <time>2023-12-06T13:53:58Z</time>
      </trkpt>
      <trkpt lat="49.28627" lon="0.08463">
        <ele>61.4</ele>
        <time>2023-12-06T13:53:59Z</time>
      </trkpt>
      <trkpt lat="49.28624" lon="0.0847">
        <ele>61.4</ele>
        <time>2023-12-06T13:54:00Z</time>
      </trkpt>
      <trkpt lat="49.28619" lon="0.08477">
        <ele>61.6</ele>
        <time>2023-12-06T13:54:01Z</time>
      </trkpt>
      <trkpt lat="49.28615" lon="0.08483">
        <ele>61.6</ele>
        <time>2023-12-06T13:54:02Z</time>
      </trkpt>
      <trkpt lat="49.28611" lon="0.08489">
        <ele>61.6</ele>
        <time>2023-12-06T13:54:03Z</time>
      </trkpt>
      <trkpt lat="49.28607" lon="0.08495">
        <ele>61.6</ele>
        <time>2023-12-06T13:54:04Z</time>
      </trkpt>
      <trkpt lat="49.28602" lon="0.08501">
        <ele>61.6</ele>
        <time>2023-12-06T13:54:05Z</time>
      </trkpt>
      <trkpt lat="49.28598" lon="0.08507">
        <ele>61.6</ele>
        <time>2023-12-06T13:54:06Z</time>
      </trkpt>
      <trkpt lat="49.28593" lon="0.08513">
        <ele>61.6</ele>
        <time>2023-12-06T13:54:07Z</time>
      </trkpt>
      <trkpt lat="49.28588" lon="0.08518">
        <ele>61.6</ele>
        <time>2023-12-06T13:54:08Z</time>
      </trkpt>
      <trkpt lat="49.28584" lon="0.08524">
        <ele>61.6</ele>
        <time>2023-12-06T13:54:09Z</time>
      </trkpt>
      <trkpt lat="49.28579" lon="0.08529">
        <ele>61.6</ele>
        <time>2023-12-06T13:54:10Z</time>
      </trkpt>
      <trkpt lat="49.28574" lon="0.08534">
        <ele>61.6</ele>
        <time>2023-12-06T13:54:11Z</time>
      </trkpt>
      <trkpt lat="49.28569" lon="0.08539">
        <ele>61.4</ele>
        <time>2023-12-06T13:54:12Z</time>
      </trkpt>
      <trkpt lat="49.28564" lon="0.08545">
        <ele>61.4</ele>
        <time>2023-12-06T13:54:13Z</time>
      </trkpt>
      <trkpt lat="49.2856" lon="0.08551">
        <ele>61.2</ele>
        <time>2023-12-06T13:54:14Z</time>
      </trkpt>
      <trkpt lat="49.28555" lon="0.08557">
        <ele>61</ele>
        <time>2023-12-06T13:54:15Z</time>
      </trkpt>
      <trkpt lat="49.28551" lon="0.08563">
        <ele>61</ele>
        <time>2023-12-06T13:54:16Z</time>
      </trkpt>
      <trkpt lat="49.28546" lon="0.08569">
        <ele>61</ele>
        <time>2023-12-06T13:54:17Z</time>
      </trkpt>
      <trkpt lat="49.28542" lon="0.08576">
        <ele>60.8</ele>
        <time>2023-12-06T13:54:18Z</time>
      </trkpt>
      <trkpt lat="49.28537" lon="0.08583">
        <ele>60.8</ele>
        <time>2023-12-06T13:54:19Z</time>
      </trkpt>
      <trkpt lat="49.28533" lon="0.08589">
        <ele>60.6</ele>
        <time>2023-12-06T13:54:20Z</time>
      </trkpt>
      <trkpt lat="49.28529" lon="0.08596">
        <ele>60.6</ele>
        <time>2023-12-06T13:54:21Z</time>
      </trkpt>
      <trkpt lat="49.28525" lon="0.08603">
        <ele>60.6</ele>
        <time>2023-12-06T13:54:22Z</time>
      </trkpt>
      <trkpt lat="49.2852" lon="0.0861">
        <ele>60.4</ele>
        <time>2023-12-06T13:54:23Z</time>
      </trkpt>
      <trkpt lat="49.28516" lon="0.08617">
        <ele>60.2</ele>
        <time>2023-12-06T13:54:24Z</time>
      </trkpt>
      <trkpt lat="49.28512" lon="0.08623">
        <ele>60</ele>
        <time>2023-12-06T13:54:25Z</time>
      </trkpt>
      <trkpt lat="49.28508" lon="0.0863">
        <ele>59.8</ele>
        <time>2023-12-06T13:54:26Z</time>
      </trkpt>
      <trkpt lat="49.28503" lon="0.08637">
        <ele>59.6</ele>
        <time>2023-12-06T13:54:27Z</time>
      </trkpt>
      <trkpt lat="49.28499" lon="0.08643">
        <ele>59.6</ele>
        <time>2023-12-06T13:54:28Z</time>
      </trkpt>
      <trkpt lat="49.28495" lon="0.0865">
        <ele>59.4</ele>
        <time>2023-12-06T13:54:29Z</time>
      </trkpt>
      <trkpt lat="49.28491" lon="0.08656">
        <ele>59.2</ele>
        <time>2023-12-06T13:54:30Z</time>
      </trkpt>
      <trkpt lat="49.28487" lon="0.08662">
        <ele>59</ele>
        <time>2023-12-06T13:54:31Z</time>
      </trkpt>
      <trkpt lat="49.28482" lon="0.08667">
        <ele>58.8</ele>
        <time>2023-12-06T13:54:32Z</time>
      </trkpt>
      <trkpt lat="49.28478" lon="0.08673">
        <ele>58.8</ele>
        <time>2023-12-06T13:54:33Z</time>
      </trkpt>
      <trkpt lat="49.28473" lon="0.08679">
        <ele>58.6</ele>
        <time>2023-12-06T13:54:34Z</time>
      </trkpt>
      <trkpt lat="49.28469" lon="0.08685">
        <ele>58.6</ele>
        <time>2023-12-06T13:54:35Z</time>
      </trkpt>
      <trkpt lat="49.28464" lon="0.0869">
        <ele>58.6</ele>
        <time>2023-12-06T13:54:36Z</time>
      </trkpt>
      <trkpt lat="49.2846" lon="0.08696">
        <ele>58.6</ele>
        <time>2023-12-06T13:54:37Z</time>
      </trkpt>
      <trkpt lat="49.28455" lon="0.08702">
        <ele>58.4</ele>
        <time>2023-12-06T13:54:38Z</time>
      </trkpt>
      <trkpt lat="49.2845" lon="0.08708">
        <ele>58.4</ele>
        <time>2023-12-06T13:54:39Z</time>
      </trkpt>
      <trkpt lat="49.28446" lon="0.08714">
        <ele>58.4</ele>
        <time>2023-12-06T13:54:40Z</time>
      </trkpt>
      <trkpt lat="49.28441" lon="0.0872">
        <ele>58.4</ele>
        <time>2023-12-06T13:54:41Z</time>
      </trkpt>
      <trkpt lat="49.28436" lon="0.08726">
        <ele>58.4</ele>
        <time>2023-12-06T13:54:42Z</time>
      </trkpt>
      <trkpt lat="49.28432" lon="0.08731">
        <ele>58.4</ele>
        <time>2023-12-06T13:54:43Z</time>
      </trkpt>
      <trkpt lat="49.28427" lon="0.08737">
        <ele>58.2</ele>
        <time>2023-12-06T13:54:44Z</time>
      </trkpt>
      <trkpt lat="49.28422" lon="0.08743">
        <ele>58.2</ele>
        <time>2023-12-06T13:54:45Z</time>
      </trkpt>
      <trkpt lat="49.28418" lon="0.08749">
        <ele>58.2</ele>
        <time>2023-12-06T13:54:46Z</time>
      </trkpt>
      <trkpt lat="49.28413" lon="0.08755">
        <ele>58.2</ele>
        <time>2023-12-06T13:54:47Z</time>
      </trkpt>
      <trkpt lat="49.28408" lon="0.08761">
        <ele>58.2</ele>
        <time>2023-12-06T13:54:48Z</time>
      </trkpt>
      <trkpt lat="49.28404" lon="0.08767">
        <ele>58.2</ele>
        <time>2023-12-06T13:54:49Z</time>
      </trkpt>
      <trkpt lat="49.28399" lon="0.08773">
        <ele>58.2</ele>
        <time>2023-12-06T13:54:50Z</time>
      </trkpt>
      <trkpt lat="49.28395" lon="0.08778">
        <ele>58.2</ele>
        <time>2023-12-06T13:54:51Z</time>
      </trkpt>
      <trkpt lat="49.2839" lon="0.08784">
        <ele>58.4</ele>
        <time>2023-12-06T13:54:52Z</time>
      </trkpt>
      <trkpt lat="49.28385" lon="0.0879">
        <ele>58.4</ele>
        <time>2023-12-06T13:54:53Z</time>
      </trkpt>
      <trkpt lat="49.28381" lon="0.08795">
        <ele>58.4</ele>
        <time>2023-12-06T13:54:54Z</time>
      </trkpt>
      <trkpt lat="49.28377" lon="0.08801">
        <ele>58.4</ele>
        <time>2023-12-06T13:54:55Z</time>
      </trkpt>
      <trkpt lat="49.28373" lon="0.08807">
        <ele>58.6</ele>
        <time>2023-12-06T13:54:56Z</time>
      </trkpt>
      <trkpt lat="49.28369" lon="0.08813">
        <ele>58.8</ele>
        <time>2023-12-06T13:54:57Z</time>
      </trkpt>
      <trkpt lat="49.28365" lon="0.08819">
        <ele>59</ele>
        <time>2023-12-06T13:54:58Z</time>
      </trkpt>
      <trkpt lat="49.28361" lon="0.08826">
        <ele>59.2</ele>
        <time>2023-12-06T13:54:59Z</time>
      </trkpt>
      <trkpt lat="49.28358" lon="0.08833">
        <ele>59.2</ele>
        <time>2023-12-06T13:55:00Z</time>
      </trkpt>
      <trkpt lat="49.28354" lon="0.08839">
        <ele>59.2</ele>
        <time>2023-12-06T13:55:01Z</time>
      </trkpt>
      <trkpt lat="49.28351" lon="0.08845">
        <ele>59.4</ele>
        <time>2023-12-06T13:55:02Z</time>
      </trkpt>
      <trkpt lat="49.28348" lon="0.08852">
        <ele>59.6</ele>
        <time>2023-12-06T13:55:03Z</time>
      </trkpt>
      <trkpt lat="49.28346" lon="0.08859">
        <ele>59.8</ele>
        <time>2023-12-06T13:55:04Z</time>
      </trkpt>
      <trkpt lat="49.28343" lon="0.08866">
        <ele>60</ele>
        <time>2023-12-06T13:55:05Z</time>
      </trkpt>
      <trkpt lat="49.2834" lon="0.08872">
        <ele>60.2</ele>
        <time>2023-12-06T13:55:06Z</time>
      </trkpt>
      <trkpt lat="49.28337" lon="0.08879">
        <ele>60.4</ele>
        <time>2023-12-06T13:55:07Z</time>
      </trkpt>
      <trkpt lat="49.28334" lon="0.08886">
        <ele>60.6</ele>
        <time>2023-12-06T13:55:08Z</time>
      </trkpt>
      <trkpt lat="49.28332" lon="0.08892">
        <ele>60.8</ele>
        <time>2023-12-06T13:55:09Z</time>
      </trkpt>
      <trkpt lat="49.28329" lon="0.08899">
        <ele>60.8</ele>
        <time>2023-12-06T13:55:10Z</time>
      </trkpt>
      <trkpt lat="49.28326" lon="0.08906">
        <ele>61.2</ele>
        <time>2023-12-06T13:55:11Z</time>
      </trkpt>
      <trkpt lat="49.28323" lon="0.08913">
        <ele>61.4</ele>
        <time>2023-12-06T13:55:12Z</time>
      </trkpt>
      <trkpt lat="49.28321" lon="0.08919">
        <ele>61.4</ele>
        <time>2023-12-06T13:55:13Z</time>
      </trkpt>
      <trkpt lat="49.28318" lon="0.08926">
        <ele>61.6</ele>
        <time>2023-12-06T13:55:14Z</time>
      </trkpt>
      <trkpt lat="49.28315" lon="0.08933">
        <ele>61.8</ele>
        <time>2023-12-06T13:55:15Z</time>
      </trkpt>
      <trkpt lat="49.28312" lon="0.08939">
        <ele>62</ele>
        <time>2023-12-06T13:55:16Z</time>
      </trkpt>
      <trkpt lat="49.2831" lon="0.08946">
        <ele>62.2</ele>
        <time>2023-12-06T13:55:17Z</time>
      </trkpt>
      <trkpt lat="49.28307" lon="0.08952">
        <ele>62.4</ele>
        <time>2023-12-06T13:55:18Z</time>
      </trkpt>
      <trkpt lat="49.28304" lon="0.08959">
        <ele>62.8</ele>
        <time>2023-12-06T13:55:19Z</time>
      </trkpt>
      <trkpt lat="49.28301" lon="0.08965">
        <ele>63.2</ele>
        <time>2023-12-06T13:55:20Z</time>
      </trkpt>
      <trkpt lat="49.28298" lon="0.08971">
        <ele>63.4</ele>
        <time>2023-12-06T13:55:21Z</time>
      </trkpt>
      <trkpt lat="49.28295" lon="0.08977">
        <ele>63.6</ele>
        <time>2023-12-06T13:55:22Z</time>
      </trkpt>
      <trkpt lat="49.28291" lon="0.08983">
        <ele>63.8</ele>
        <time>2023-12-06T13:55:23Z</time>
      </trkpt>
      <trkpt lat="49.28288" lon="0.08987">
        <ele>64</ele>
        <time>2023-12-06T13:55:24Z</time>
      </trkpt>
      <trkpt lat="49.28284" lon="0.08992">
        <ele>64.4</ele>
        <time>2023-12-06T13:55:25Z</time>
      </trkpt>
      <trkpt lat="49.2828" lon="0.08995">
        <ele>64.4</ele>
        <time>2023-12-06T13:55:26Z</time>
      </trkpt>
      <trkpt lat="49.28276" lon="0.08998">
        <ele>64.6</ele>
        <time>2023-12-06T13:55:27Z</time>
      </trkpt>
      <trkpt lat="49.28272" lon="0.09">
        <ele>64.8</ele>
        <time>2023-12-06T13:55:28Z</time>
      </trkpt>
      <trkpt lat="49.28269" lon="0.09002">
        <ele>65</ele>
        <time>2023-12-06T13:55:29Z</time>
      </trkpt>
      <trkpt lat="49.28265" lon="0.09004">
        <ele>65.2</ele>
        <time>2023-12-06T13:55:30Z</time>
      </trkpt>
      <trkpt lat="49.28261" lon="0.09007">
        <ele>65.6</ele>
        <time>2023-12-06T13:55:31Z</time>
      </trkpt>
      <trkpt lat="49.28257" lon="0.0901">
        <ele>65.8</ele>
        <time>2023-12-06T13:55:32Z</time>
      </trkpt>
      <trkpt lat="49.28254" lon="0.09012">
        <ele>66</ele>
        <time>2023-12-06T13:55:33Z</time>
      </trkpt>
      <trkpt lat="49.28251" lon="0.09014">
        <ele>66.4</ele>
        <time>2023-12-06T13:55:34Z</time>
      </trkpt>
      <trkpt lat="49.28247" lon="0.09016">
        <ele>66.8</ele>
        <time>2023-12-06T13:55:35Z</time>
      </trkpt>
      <trkpt lat="49.28244" lon="0.09018">
        <ele>67.2</ele>
        <time>2023-12-06T13:55:36Z</time>
      </trkpt>
      <trkpt lat="49.2824" lon="0.09019">
        <ele>67.6</ele>
        <time>2023-12-06T13:55:37Z</time>
      </trkpt>
      <trkpt lat="49.28237" lon="0.09021">
        <ele>68.2</ele>
        <time>2023-12-06T13:55:38Z</time>
      </trkpt>
      <trkpt lat="49.28234" lon="0.09022">
        <ele>68.4</ele>
        <time>2023-12-06T13:55:39Z</time>
      </trkpt>
      <trkpt lat="49.28231" lon="0.09023">
        <ele>68.8</ele>
        <time>2023-12-06T13:55:40Z</time>
      </trkpt>
      <trkpt lat="49.28228" lon="0.09024">
        <ele>69.4</ele>
        <time>2023-12-06T13:55:41Z</time>
      </trkpt>
      <trkpt lat="49.28225" lon="0.09025">
        <ele>70</ele>
        <time>2023-12-06T13:55:42Z</time>
      </trkpt>
      <trkpt lat="49.28221" lon="0.09026">
        <ele>70.4</ele>
        <time>2023-12-06T13:55:43Z</time>
      </trkpt>
      <trkpt lat="49.28218" lon="0.09027">
        <ele>71</ele>
        <time>2023-12-06T13:55:44Z</time>
      </trkpt>
      <trkpt lat="49.28215" lon="0.09028">
        <ele>71.4</ele>
        <time>2023-12-06T13:55:45Z</time>
      </trkpt>
      <trkpt lat="49.28212" lon="0.0903">
        <ele>71.6</ele>
        <time>2023-12-06T13:55:46Z</time>
      </trkpt>
      <trkpt lat="49.2821" lon="0.09032">
        <ele>72</ele>
        <time>2023-12-06T13:55:47Z</time>
      </trkpt>
      <trkpt lat="49.28207" lon="0.09033">
        <ele>72.4</ele>
        <time>2023-12-06T13:55:48Z</time>
      </trkpt>
      <trkpt lat="49.28204" lon="0.09035">
        <ele>72.6</ele>
        <time>2023-12-06T13:55:49Z</time>
      </trkpt>
      <trkpt lat="49.28201" lon="0.09036">
        <ele>73</ele>
        <time>2023-12-06T13:55:50Z</time>
      </trkpt>
      <trkpt lat="49.28198" lon="0.09037">
        <ele>73.6</ele>
        <time>2023-12-06T13:55:51Z</time>
      </trkpt>
      <trkpt lat="49.28195" lon="0.09038">
        <ele>74</ele>
        <time>2023-12-06T13:55:52Z</time>
      </trkpt>
      <trkpt lat="49.28192" lon="0.09039">
        <ele>74.4</ele>
        <time>2023-12-06T13:55:53Z</time>
      </trkpt>
      <trkpt lat="49.28189" lon="0.0904">
        <ele>74.8</ele>
        <time>2023-12-06T13:55:54Z</time>
      </trkpt>
      <trkpt lat="49.28186" lon="0.09042">
        <ele>75</ele>
        <time>2023-12-06T13:55:55Z</time>
      </trkpt>
      <trkpt lat="49.28184" lon="0.09044">
        <ele>75.2</ele>
        <time>2023-12-06T13:55:56Z</time>
      </trkpt>
      <trkpt lat="49.28181" lon="0.09046">
        <ele>75.6</ele>
        <time>2023-12-06T13:55:57Z</time>
      </trkpt>
      <trkpt lat="49.28179" lon="0.09049">
        <ele>76</ele>
        <time>2023-12-06T13:55:58Z</time>
      </trkpt>
      <trkpt lat="49.28177" lon="0.09052">
        <ele>76.4</ele>
        <time>2023-12-06T13:55:59Z</time>
      </trkpt>
      <trkpt lat="49.28174" lon="0.09055">
        <ele>76.8</ele>
        <time>2023-12-06T13:56:00Z</time>
      </trkpt>
      <trkpt lat="49.28172" lon="0.0906">
        <ele>77.2</ele>
        <time>2023-12-06T13:56:01Z</time>
      </trkpt>
      <trkpt lat="49.2817" lon="0.09064">
        <ele>77.6</ele>
        <time>2023-12-06T13:56:02Z</time>
      </trkpt>
      <trkpt lat="49.28168" lon="0.09069">
        <ele>77.8</ele>
        <time>2023-12-06T13:56:03Z</time>
      </trkpt>
      <trkpt lat="49.28167" lon="0.09075">
        <ele>78.2</ele>
        <time>2023-12-06T13:56:04Z</time>
      </trkpt>
      <trkpt lat="49.28165" lon="0.0908">
        <ele>78.6</ele>
        <time>2023-12-06T13:56:05Z</time>
      </trkpt>
      <trkpt lat="49.28164" lon="0.09086">
        <ele>78.8</ele>
        <time>2023-12-06T13:56:06Z</time>
      </trkpt>
      <trkpt lat="49.28163" lon="0.09092">
        <ele>79.2</ele>
        <time>2023-12-06T13:56:07Z</time>
      </trkpt>
      <trkpt lat="49.28162" lon="0.09098">
        <ele>79.4</ele>
        <time>2023-12-06T13:56:08Z</time>
      </trkpt>
      <trkpt lat="49.28161" lon="0.09104">
        <ele>79.6</ele>
        <time>2023-12-06T13:56:09Z</time>
      </trkpt>
      <trkpt lat="49.2816" lon="0.09111">
        <ele>79.8</ele>
        <time>2023-12-06T13:56:10Z</time>
      </trkpt>
      <trkpt lat="49.28159" lon="0.09117">
        <ele>79.8</ele>
        <time>2023-12-06T13:56:11Z</time>
      </trkpt>
      <trkpt lat="49.28158" lon="0.09123">
        <ele>80</ele>
        <time>2023-12-06T13:56:12Z</time>
      </trkpt>
      <trkpt lat="49.28156" lon="0.0913">
        <ele>80</ele>
        <time>2023-12-06T13:56:13Z</time>
      </trkpt>
      <trkpt lat="49.28154" lon="0.09136">
        <ele>80</ele>
        <time>2023-12-06T13:56:14Z</time>
      </trkpt>
      <trkpt lat="49.28152" lon="0.09142">
        <ele>80.2</ele>
        <time>2023-12-06T13:56:15Z</time>
      </trkpt>
      <trkpt lat="49.2815" lon="0.09148">
        <ele>80.2</ele>
        <time>2023-12-06T13:56:16Z</time>
      </trkpt>
      <trkpt lat="49.28148" lon="0.09154">
        <ele>80.2</ele>
        <time>2023-12-06T13:56:17Z</time>
      </trkpt>
      <trkpt lat="49.28146" lon="0.0916">
        <ele>80.2</ele>
        <time>2023-12-06T13:56:18Z</time>
      </trkpt>
      <trkpt lat="49.28143" lon="0.09166">
        <ele>80.2</ele>
        <time>2023-12-06T13:56:19Z</time>
      </trkpt>
      <trkpt lat="49.28141" lon="0.09172">
        <ele>80.2</ele>
        <time>2023-12-06T13:56:20Z</time>
      </trkpt>
      <trkpt lat="49.28139" lon="0.09179">
        <ele>80.2</ele>
        <time>2023-12-06T13:56:21Z</time>
      </trkpt>
      <trkpt lat="49.28138" lon="0.09185">
        <ele>80.4</ele>
        <time>2023-12-06T13:56:22Z</time>
      </trkpt>
      <trkpt lat="49.28136" lon="0.09192">
        <ele>80.4</ele>
        <time>2023-12-06T13:56:23Z</time>
      </trkpt>
      <trkpt lat="49.28134" lon="0.09199">
        <ele>80.4</ele>
        <time>2023-12-06T13:56:24Z</time>
      </trkpt>
      <trkpt lat="49.28132" lon="0.09206">
        <ele>80.4</ele>
        <time>2023-12-06T13:56:25Z</time>
      </trkpt>
      <trkpt lat="49.28131" lon="0.09213">
        <ele>80.4</ele>
        <time>2023-12-06T13:56:26Z</time>
      </trkpt>
      <trkpt lat="49.2813" lon="0.09221">
        <ele>80.4</ele>
        <time>2023-12-06T13:56:27Z</time>
      </trkpt>
      <trkpt lat="49.28129" lon="0.09228">
        <ele>80.6</ele>
        <time>2023-12-06T13:56:28Z</time>
      </trkpt>
      <trkpt lat="49.28128" lon="0.09235">
        <ele>80.6</ele>
        <time>2023-12-06T13:56:29Z</time>
      </trkpt>
      <trkpt lat="49.28127" lon="0.09242">
        <ele>80.6</ele>
        <time>2023-12-06T13:56:30Z</time>
      </trkpt>
      <trkpt lat="49.28126" lon="0.0925">
        <ele>80.6</ele>
        <time>2023-12-06T13:56:31Z</time>
      </trkpt>
      <trkpt lat="49.28125" lon="0.09257">
        <ele>80.6</ele>
        <time>2023-12-06T13:56:32Z</time>
      </trkpt>
      <trkpt lat="49.28125" lon="0.09265">
        <ele>80.6</ele>
        <time>2023-12-06T13:56:33Z</time>
      </trkpt>
      <trkpt lat="49.28124" lon="0.09272">
        <ele>80.6</ele>
        <time>2023-12-06T13:56:34Z</time>
      </trkpt>
      <trkpt lat="49.28123" lon="0.0928">
        <ele>80.8</ele>
        <time>2023-12-06T13:56:35Z</time>
      </trkpt>
      <trkpt lat="49.28122" lon="0.09287">
        <ele>80.8</ele>
        <time>2023-12-06T13:56:36Z</time>
      </trkpt>
      <trkpt lat="49.28121" lon="0.09294">
        <ele>80.8</ele>
        <time>2023-12-06T13:56:37Z</time>
      </trkpt>
      <trkpt lat="49.2812" lon="0.09301">
        <ele>80.8</ele>
        <time>2023-12-06T13:56:38Z</time>
      </trkpt>
      <trkpt lat="49.28119" lon="0.09309">
        <ele>80.8</ele>
        <time>2023-12-06T13:56:39Z</time>
      </trkpt>
      <trkpt lat="49.28118" lon="0.09316">
        <ele>80.8</ele>
        <time>2023-12-06T13:56:40Z</time>
      </trkpt>
      <trkpt lat="49.28117" lon="0.09324">
        <ele>80.8</ele>
        <time>2023-12-06T13:56:41Z</time>
      </trkpt>
      <trkpt lat="49.28116" lon="0.09333">
        <ele>80.8</ele>
        <time>2023-12-06T13:56:42Z</time>
      </trkpt>
      <trkpt lat="49.28115" lon="0.09341">
        <ele>80.8</ele>
        <time>2023-12-06T13:56:43Z</time>
      </trkpt>
      <trkpt lat="49.28114" lon="0.09349">
        <ele>80.8</ele>
        <time>2023-12-06T13:56:44Z</time>
      </trkpt>
      <trkpt lat="49.28113" lon="0.09357">
        <ele>80.8</ele>
        <time>2023-12-06T13:56:45Z</time>
      </trkpt>
      <trkpt lat="49.28112" lon="0.09366">
        <ele>80.8</ele>
        <time>2023-12-06T13:56:46Z</time>
      </trkpt>
      <trkpt lat="49.28111" lon="0.09374">
        <ele>80.8</ele>
        <time>2023-12-06T13:56:47Z</time>
      </trkpt>
      <trkpt lat="49.28109" lon="0.09383">
        <ele>80.6</ele>
        <time>2023-12-06T13:56:48Z</time>
      </trkpt>
      <trkpt lat="49.28108" lon="0.09391">
        <ele>80.6</ele>
        <time>2023-12-06T13:56:49Z</time>
      </trkpt>
      <trkpt lat="49.28106" lon="0.094">
        <ele>80.6</ele>
        <time>2023-12-06T13:56:50Z</time>
      </trkpt>
      <trkpt lat="49.28105" lon="0.09409">
        <ele>80.6</ele>
        <time>2023-12-06T13:56:51Z</time>
      </trkpt>
      <trkpt lat="49.28103" lon="0.09418">
        <ele>80.6</ele>
        <time>2023-12-06T13:56:52Z</time>
      </trkpt>
      <trkpt lat="49.28101" lon="0.09428">
        <ele>80.6</ele>
        <time>2023-12-06T13:56:53Z</time>
      </trkpt>
      <trkpt lat="49.281" lon="0.09438">
        <ele>80.6</ele>
        <time>2023-12-06T13:56:54Z</time>
      </trkpt>
      <trkpt lat="49.28098" lon="0.09448">
        <ele>80.4</ele>
        <time>2023-12-06T13:56:55Z</time>
      </trkpt>
      <trkpt lat="49.28096" lon="0.09458">
        <ele>80.4</ele>
        <time>2023-12-06T13:56:56Z</time>
      </trkpt>
      <trkpt lat="49.28095" lon="0.09469">
        <ele>80.4</ele>
        <time>2023-12-06T13:56:57Z</time>
      </trkpt>
      <trkpt lat="49.28093" lon="0.09479">
        <ele>80.4</ele>
        <time>2023-12-06T13:56:58Z</time>
      </trkpt>
      <trkpt lat="49.28091" lon="0.0949">
        <ele>80.4</ele>
        <time>2023-12-06T13:56:59Z</time>
      </trkpt>
      <trkpt lat="49.2809" lon="0.09501">
        <ele>80.2</ele>
        <time>2023-12-06T13:57:00Z</time>
      </trkpt>
      <trkpt lat="49.28088" lon="0.09511">
        <ele>80</ele>
        <time>2023-12-06T13:57:01Z</time>
      </trkpt>
      <trkpt lat="49.28087" lon="0.09522">
        <ele>79.8</ele>
        <time>2023-12-06T13:57:02Z</time>
      </trkpt>
      <trkpt lat="49.28085" lon="0.09533">
        <ele>79.6</ele>
        <time>2023-12-06T13:57:03Z</time>
      </trkpt>
      <trkpt lat="49.28084" lon="0.09544">
        <ele>79.4</ele>
        <time>2023-12-06T13:57:04Z</time>
      </trkpt>
      <trkpt lat="49.28083" lon="0.09555">
        <ele>79</ele>
        <time>2023-12-06T13:57:05Z</time>
      </trkpt>
      <trkpt lat="49.28082" lon="0.09566">
        <ele>79</ele>
        <time>2023-12-06T13:57:06Z</time>
      </trkpt>
      <trkpt lat="49.2808" lon="0.09577">
        <ele>78.6</ele>
        <time>2023-12-06T13:57:07Z</time>
      </trkpt>
      <trkpt lat="49.28079" lon="0.09588">
        <ele>78.4</ele>
        <time>2023-12-06T13:57:08Z</time>
      </trkpt>
      <trkpt lat="49.28078" lon="0.09599">
        <ele>78.2</ele>
        <time>2023-12-06T13:57:09Z</time>
      </trkpt>
      <trkpt lat="49.28077" lon="0.09611">
        <ele>78</ele>
        <time>2023-12-06T13:57:10Z</time>
      </trkpt>
      <trkpt lat="49.28075" lon="0.09623">
        <ele>77.8</ele>
        <time>2023-12-06T13:57:11Z</time>
      </trkpt>
      <trkpt lat="49.28074" lon="0.09634">
        <ele>77.6</ele>
        <time>2023-12-06T13:57:12Z</time>
      </trkpt>
      <trkpt lat="49.28073" lon="0.09646">
        <ele>77.4</ele>
        <time>2023-12-06T13:57:13Z</time>
      </trkpt>
      <trkpt lat="49.28073" lon="0.09657">
        <ele>77</ele>
        <time>2023-12-06T13:57:14Z</time>
      </trkpt>
      <trkpt lat="49.28072" lon="0.09668">
        <ele>76.8</ele>
        <time>2023-12-06T13:57:15Z</time>
      </trkpt>
      <trkpt lat="49.2807" lon="0.09679">
        <ele>76.6</ele>
        <time>2023-12-06T13:57:16Z</time>
      </trkpt>
      <trkpt lat="49.28069" lon="0.0969">
        <ele>76.4</ele>
        <time>2023-12-06T13:57:17Z</time>
      </trkpt>
      <trkpt lat="49.28067" lon="0.09701">
        <ele>75.8</ele>
        <time>2023-12-06T13:57:18Z</time>
      </trkpt>
      <trkpt lat="49.28066" lon="0.09712">
        <ele>75.6</ele>
        <time>2023-12-06T13:57:19Z</time>
      </trkpt>
      <trkpt lat="49.28064" lon="0.09723">
        <ele>75.4</ele>
        <time>2023-12-06T13:57:20Z</time>
      </trkpt>
      <trkpt lat="49.28062" lon="0.09734">
        <ele>75.4</ele>
        <time>2023-12-06T13:57:21Z</time>
      </trkpt>
      <trkpt lat="49.2806" lon="0.09745">
        <ele>75.4</ele>
        <time>2023-12-06T13:57:22Z</time>
      </trkpt>
      <trkpt lat="49.28058" lon="0.09755">
        <ele>75.4</ele>
        <time>2023-12-06T13:57:23Z</time>
      </trkpt>
      <trkpt lat="49.28056" lon="0.09765">
        <ele>75.4</ele>
        <time>2023-12-06T13:57:24Z</time>
      </trkpt>
      <trkpt lat="49.28054" lon="0.09775">
        <ele>75.2</ele>
        <time>2023-12-06T13:57:25Z</time>
      </trkpt>
      <trkpt lat="49.28052" lon="0.09785">
        <ele>75.2</ele>
        <time>2023-12-06T13:57:26Z</time>
      </trkpt>
      <trkpt lat="49.2805" lon="0.09795">
        <ele>75.2</ele>
        <time>2023-12-06T13:57:27Z</time>
      </trkpt>
      <trkpt lat="49.28048" lon="0.09804">
        <ele>75.2</ele>
        <time>2023-12-06T13:57:28Z</time>
      </trkpt>
      <trkpt lat="49.28046" lon="0.09813">
        <ele>75.2</ele>
        <time>2023-12-06T13:57:29Z</time>
      </trkpt>
      <trkpt lat="49.28043" lon="0.09823">
        <ele>75.2</ele>
        <time>2023-12-06T13:57:30Z</time>
      </trkpt>
      <trkpt lat="49.28041" lon="0.09832">
        <ele>75.2</ele>
        <time>2023-12-06T13:57:31Z</time>
      </trkpt>
      <trkpt lat="49.28039" lon="0.09842">
        <ele>75.2</ele>
        <time>2023-12-06T13:57:32Z</time>
      </trkpt>
      <trkpt lat="49.28036" lon="0.09852">
        <ele>75</ele>
        <time>2023-12-06T13:57:33Z</time>
      </trkpt>
      <trkpt lat="49.28034" lon="0.09861">
        <ele>75</ele>
        <time>2023-12-06T13:57:34Z</time>
      </trkpt>
      <trkpt lat="49.28032" lon="0.09872">
        <ele>75</ele>
        <time>2023-12-06T13:57:35Z</time>
      </trkpt>
      <trkpt lat="49.28029" lon="0.09882">
        <ele>75</ele>
        <time>2023-12-06T13:57:36Z</time>
      </trkpt>
      <trkpt lat="49.28027" lon="0.09892">
        <ele>75</ele>
        <time>2023-12-06T13:57:37Z</time>
      </trkpt>
      <trkpt lat="49.28024" lon="0.09903">
        <ele>75</ele>
        <time>2023-12-06T13:57:38Z</time>
      </trkpt>
      <trkpt lat="49.28021" lon="0.09913">
        <ele>74.8</ele>
        <time>2023-12-06T13:57:39Z</time>
      </trkpt>
      <trkpt lat="49.28019" lon="0.09924">
        <ele>74.6</ele>
        <time>2023-12-06T13:57:40Z</time>
      </trkpt>
      <trkpt lat="49.28016" lon="0.09934">
        <ele>74.6</ele>
        <time>2023-12-06T13:57:41Z</time>
      </trkpt>
      <trkpt lat="49.28014" lon="0.09944">
        <ele>74.2</ele>
        <time>2023-12-06T13:57:42Z</time>
      </trkpt>
      <trkpt lat="49.28011" lon="0.09955">
        <ele>74</ele>
        <time>2023-12-06T13:57:43Z</time>
      </trkpt>
      <trkpt lat="49.28009" lon="0.09966">
        <ele>73.6</ele>
        <time>2023-12-06T13:57:44Z</time>
      </trkpt>
      <trkpt lat="49.28007" lon="0.09977">
        <ele>73.4</ele>
        <time>2023-12-06T13:57:45Z</time>
      </trkpt>
      <trkpt lat="49.28004" lon="0.09988">
        <ele>73</ele>
        <time>2023-12-06T13:57:46Z</time>
      </trkpt>
      <trkpt lat="49.28002" lon="0.09999">
        <ele>72.6</ele>
        <time>2023-12-06T13:57:47Z</time>
      </trkpt>
      <trkpt lat="49.28" lon="0.1001">
        <ele>72.2</ele>
        <time>2023-12-06T13:57:48Z</time>
      </trkpt>
      <trkpt lat="49.27999" lon="0.10021">
        <ele>71.8</ele>
        <time>2023-12-06T13:57:49Z</time>
      </trkpt>
      <trkpt lat="49.27998" lon="0.10032">
        <ele>71.6</ele>
        <time>2023-12-06T13:57:50Z</time>
      </trkpt>
      <trkpt lat="49.27997" lon="0.10043">
        <ele>71.4</ele>
        <time>2023-12-06T13:57:51Z</time>
      </trkpt>
      <trkpt lat="49.27996" lon="0.10055">
        <ele>71.2</ele>
        <time>2023-12-06T13:57:52Z</time>
      </trkpt>
      <trkpt lat="49.27997" lon="0.10066">
        <ele>71</ele>
        <time>2023-12-06T13:57:53Z</time>
      </trkpt>
      <trkpt lat="49.27999" lon="0.10078">
        <ele>70.8</ele>
        <time>2023-12-06T13:57:54Z</time>
      </trkpt>
      <trkpt lat="49.28003" lon="0.10088">
        <ele>70.8</ele>
        <time>2023-12-06T13:57:55Z</time>
      </trkpt>
      <trkpt lat="49.28009" lon="0.10099">
        <ele>70.6</ele>
        <time>2023-12-06T13:57:56Z</time>
      </trkpt>
      <trkpt lat="49.28015" lon="0.10109">
        <ele>70.6</ele>
        <time>2023-12-06T13:57:57Z</time>
      </trkpt>
      <trkpt lat="49.28021" lon="0.1012">
        <ele>70.4</ele>
        <time>2023-12-06T13:57:58Z</time>
      </trkpt>
      <trkpt lat="49.28027" lon="0.10131">
        <ele>70.2</ele>
        <time>2023-12-06T13:57:59Z</time>
      </trkpt>
      <trkpt lat="49.2803" lon="0.10144">
        <ele>70</ele>
        <time>2023-12-06T13:58:00Z</time>
      </trkpt>
      <trkpt lat="49.28032" lon="0.10158">
        <ele>69.6</ele>
        <time>2023-12-06T13:58:01Z</time>
      </trkpt>
      <trkpt lat="49.28032" lon="0.10171">
        <ele>69.2</ele>
        <time>2023-12-06T13:58:02Z</time>
      </trkpt>
      <trkpt lat="49.28029" lon="0.10184">
        <ele>68.8</ele>
        <time>2023-12-06T13:58:03Z</time>
      </trkpt>
      <trkpt lat="49.28024" lon="0.10195">
        <ele>68</ele>
        <time>2023-12-06T13:58:04Z</time>
      </trkpt>
      <trkpt lat="49.28017" lon="0.10205">
        <ele>67.2</ele>
        <time>2023-12-06T13:58:05Z</time>
      </trkpt>
      <trkpt lat="49.2801" lon="0.10211">
        <ele>66.4</ele>
        <time>2023-12-06T13:58:06Z</time>
      </trkpt>
      <trkpt lat="49.28002" lon="0.10217">
        <ele>65.4</ele>
        <time>2023-12-06T13:58:07Z</time>
      </trkpt>
      <trkpt lat="49.27995" lon="0.10221">
        <ele>64.8</ele>
        <time>2023-12-06T13:58:08Z</time>
      </trkpt>
      <trkpt lat="49.27987" lon="0.10225">
        <ele>64</ele>
        <time>2023-12-06T13:58:09Z</time>
      </trkpt>
      <trkpt lat="49.27979" lon="0.10228">
        <ele>63.4</ele>
        <time>2023-12-06T13:58:10Z</time>
      </trkpt>
      <trkpt lat="49.27971" lon="0.10232">
        <ele>63</ele>
        <time>2023-12-06T13:58:11Z</time>
      </trkpt>
      <trkpt lat="49.27963" lon="0.10236">
        <ele>62.8</ele>
        <time>2023-12-06T13:58:12Z</time>
      </trkpt>
      <trkpt lat="49.27955" lon="0.10239">
        <ele>62.6</ele>
        <time>2023-12-06T13:58:13Z</time>
      </trkpt>
      <trkpt lat="49.27947" lon="0.10243">
        <ele>62.4</ele>
        <time>2023-12-06T13:58:14Z</time>
      </trkpt>
      <trkpt lat="49.27939" lon="0.10247">
        <ele>62.4</ele>
        <time>2023-12-06T13:58:15Z</time>
      </trkpt>
      <trkpt lat="49.27931" lon="0.1025">
        <ele>62.2</ele>
        <time>2023-12-06T13:58:16Z</time>
      </trkpt>
      <trkpt lat="49.27924" lon="0.10253">
        <ele>62.2</ele>
        <time>2023-12-06T13:58:17Z</time>
      </trkpt>
      <trkpt lat="49.27916" lon="0.10257">
        <ele>62.2</ele>
        <time>2023-12-06T13:58:18Z</time>
      </trkpt>
      <trkpt lat="49.27909" lon="0.10261">
        <ele>62</ele>
        <time>2023-12-06T13:58:19Z</time>
      </trkpt>
      <trkpt lat="49.27902" lon="0.10266">
        <ele>62</ele>
        <time>2023-12-06T13:58:20Z</time>
      </trkpt>
      <trkpt lat="49.27895" lon="0.10271">
        <ele>61.8</ele>
        <time>2023-12-06T13:58:21Z</time>
      </trkpt>
      <trkpt lat="49.27888" lon="0.10277">
        <ele>61.8</ele>
        <time>2023-12-06T13:58:22Z</time>
      </trkpt>
      <trkpt lat="49.27882" lon="0.10284">
        <ele>61.8</ele>
        <time>2023-12-06T13:58:23Z</time>
      </trkpt>
      <trkpt lat="49.27876" lon="0.10292">
        <ele>61.8</ele>
        <time>2023-12-06T13:58:24Z</time>
      </trkpt>
      <trkpt lat="49.27871" lon="0.103">
        <ele>61.8</ele>
        <time>2023-12-06T13:58:25Z</time>
      </trkpt>
      <trkpt lat="49.27867" lon="0.1031">
        <ele>61.6</ele>
        <time>2023-12-06T13:58:26Z</time>
      </trkpt>
      <trkpt lat="49.27862" lon="0.10321">
        <ele>61.6</ele>
        <time>2023-12-06T13:58:27Z</time>
      </trkpt>
      <trkpt lat="49.27859" lon="0.10332">
        <ele>61.6</ele>
        <time>2023-12-06T13:58:28Z</time>
      </trkpt>
      <trkpt lat="49.27855" lon="0.10343">
        <ele>61.4</ele>
        <time>2023-12-06T13:58:29Z</time>
      </trkpt>
      <trkpt lat="49.27851" lon="0.10354">
        <ele>61.4</ele>
        <time>2023-12-06T13:58:30Z</time>
      </trkpt>
      <trkpt lat="49.27847" lon="0.10365">
        <ele>61.2</ele>
        <time>2023-12-06T13:58:31Z</time>
      </trkpt>
      <trkpt lat="49.27844" lon="0.10375">
        <ele>61</ele>
        <time>2023-12-06T13:58:32Z</time>
      </trkpt>
      <trkpt lat="49.2784" lon="0.10385">
        <ele>60.6</ele>
        <time>2023-12-06T13:58:33Z</time>
      </trkpt>
      <trkpt lat="49.27837" lon="0.10394">
        <ele>60.2</ele>
        <time>2023-12-06T13:58:34Z</time>
      </trkpt>
      <trkpt lat="49.27834" lon="0.10402">
        <ele>60</ele>
        <time>2023-12-06T13:58:35Z</time>
      </trkpt>
      <trkpt lat="49.27831" lon="0.1041">
        <ele>59.8</ele>
        <time>2023-12-06T13:58:36Z</time>
      </trkpt>
      <trkpt lat="49.27828" lon="0.10417">
        <ele>59.8</ele>
        <time>2023-12-06T13:58:37Z</time>
      </trkpt>
      <trkpt lat="49.27826" lon="0.10424">
        <ele>59.8</ele>
        <time>2023-12-06T13:58:38Z</time>
      </trkpt>
      <trkpt lat="49.27824" lon="0.10431">
        <ele>59.8</ele>
        <time>2023-12-06T13:58:39Z</time>
      </trkpt>
      <trkpt lat="49.27822" lon="0.10437">
        <ele>59.8</ele>
        <time>2023-12-06T13:58:40Z</time>
      </trkpt>
      <trkpt lat="49.2782" lon="0.10443">
        <ele>59.8</ele>
        <time>2023-12-06T13:58:41Z</time>
      </trkpt>
      <trkpt lat="49.27817" lon="0.10449">
        <ele>59.8</ele>
        <time>2023-12-06T13:58:42Z</time>
      </trkpt>
      <trkpt lat="49.27815" lon="0.10454">
        <ele>59.8</ele>
        <time>2023-12-06T13:58:43Z</time>
      </trkpt>
      <trkpt lat="49.27813" lon="0.1046">
        <ele>60.8</ele>
        <time>2023-12-06T13:58:44Z</time>
      </trkpt>
      <trkpt lat="49.27811" lon="0.10465">
        <ele>61.2</ele>
        <time>2023-12-06T13:58:45Z</time>
      </trkpt>
      <trkpt lat="49.27808" lon="0.1047">
        <ele>61.8</ele>
        <time>2023-12-06T13:58:46Z</time>
      </trkpt>
      <trkpt lat="49.27806" lon="0.10475">
        <ele>62.4</ele>
        <time>2023-12-06T13:58:47Z</time>
      </trkpt>
      <trkpt lat="49.27804" lon="0.1048">
        <ele>62.8</ele>
        <time>2023-12-06T13:58:48Z</time>
      </trkpt>
      <trkpt lat="49.27801" lon="0.10485">
        <ele>63.2</ele>
        <time>2023-12-06T13:58:49Z</time>
      </trkpt>
      <trkpt lat="49.27799" lon="0.1049">
        <ele>63.6</ele>
        <time>2023-12-06T13:58:50Z</time>
      </trkpt>
      <trkpt lat="49.27797" lon="0.10495">
        <ele>64.2</ele>
        <time>2023-12-06T13:58:51Z</time>
      </trkpt>
      <trkpt lat="49.27795" lon="0.10501">
        <ele>64.4</ele>
        <time>2023-12-06T13:58:52Z</time>
      </trkpt>
      <trkpt lat="49.27793" lon="0.10506">
        <ele>64.8</ele>
        <time>2023-12-06T13:58:53Z</time>
      </trkpt>
      <trkpt lat="49.27791" lon="0.10511">
        <ele>65.2</ele>
        <time>2023-12-06T13:58:54Z</time>
      </trkpt>
      <trkpt lat="49.27788" lon="0.10516">
        <ele>65.6</ele>
        <time>2023-12-06T13:58:55Z</time>
      </trkpt>
      <trkpt lat="49.27786" lon="0.10521">
        <ele>66</ele>
        <time>2023-12-06T13:58:56Z</time>
      </trkpt>
      <trkpt lat="49.27784" lon="0.10526">
        <ele>66.6</ele>
        <time>2023-12-06T13:58:57Z</time>
      </trkpt>
      <trkpt lat="49.27782" lon="0.1053">
        <ele>67.2</ele>
        <time>2023-12-06T13:58:58Z</time>
      </trkpt>
      <trkpt lat="49.2778" lon="0.10535">
        <ele>67.6</ele>
        <time>2023-12-06T13:58:59Z</time>
      </trkpt>
      <trkpt lat="49.27778" lon="0.1054">
        <ele>68.2</ele>
        <time>2023-12-06T13:59:00Z</time>
      </trkpt>
      <trkpt lat="49.27777" lon="0.10545">
        <ele>68.6</ele>
        <time>2023-12-06T13:59:01Z</time>
      </trkpt>
      <trkpt lat="49.27775" lon="0.10549">
        <ele>69</ele>
        <time>2023-12-06T13:59:02Z</time>
      </trkpt>
      <trkpt lat="49.27774" lon="0.10554">
        <ele>69.2</ele>
        <time>2023-12-06T13:59:03Z</time>
      </trkpt>
      <trkpt lat="49.27772" lon="0.10559">
        <ele>69.8</ele>
        <time>2023-12-06T13:59:04Z</time>
      </trkpt>
      <trkpt lat="49.27771" lon="0.10564">
        <ele>70.4</ele>
        <time>2023-12-06T13:59:05Z</time>
      </trkpt>
      <trkpt lat="49.2777" lon="0.1057">
        <ele>70.8</ele>
        <time>2023-12-06T13:59:06Z</time>
      </trkpt>
      <trkpt lat="49.2777" lon="0.10576">
        <ele>71</ele>
        <time>2023-12-06T13:59:07Z</time>
      </trkpt>
      <trkpt lat="49.2777" lon="0.10581">
        <ele>71.4</ele>
        <time>2023-12-06T13:59:08Z</time>
      </trkpt>
      <trkpt lat="49.2777" lon="0.10587">
        <ele>72</ele>
        <time>2023-12-06T13:59:09Z</time>
      </trkpt>
      <trkpt lat="49.2777" lon="0.10592">
        <ele>72.2</ele>
        <time>2023-12-06T13:59:10Z</time>
      </trkpt>
      <trkpt lat="49.27771" lon="0.10597">
        <ele>72.6</ele>
        <time>2023-12-06T13:59:11Z</time>
      </trkpt>
      <trkpt lat="49.27771" lon="0.10602">
        <ele>72.6</ele>
        <time>2023-12-06T13:59:12Z</time>
      </trkpt>
      <trkpt lat="49.27772" lon="0.10608">
        <ele>72.8</ele>
        <time>2023-12-06T13:59:13Z</time>
      </trkpt>
      <trkpt lat="49.27774" lon="0.10613">
        <ele>73.2</ele>
        <time>2023-12-06T13:59:14Z</time>
      </trkpt>
      <trkpt lat="49.27775" lon="0.10617">
        <ele>73.4</ele>
        <time>2023-12-06T13:59:15Z</time>
      </trkpt>
      <trkpt lat="49.27776" lon="0.10622">
        <ele>73.6</ele>
        <time>2023-12-06T13:59:16Z</time>
      </trkpt>
      <trkpt lat="49.27778" lon="0.10626">
        <ele>73.8</ele>
        <time>2023-12-06T13:59:17Z</time>
      </trkpt>
      <trkpt lat="49.27779" lon="0.1063">
        <ele>74.2</ele>
        <time>2023-12-06T13:59:18Z</time>
      </trkpt>
      <trkpt lat="49.27781" lon="0.10635">
        <ele>74.4</ele>
        <time>2023-12-06T13:59:19Z</time>
      </trkpt>
      <trkpt lat="49.27783" lon="0.10639">
        <ele>74.8</ele>
        <time>2023-12-06T13:59:20Z</time>
      </trkpt>
      <trkpt lat="49.27785" lon="0.10643">
        <ele>75.4</ele>
        <time>2023-12-06T13:59:21Z</time>
      </trkpt>
      <trkpt lat="49.27787" lon="0.10648">
        <ele>75.6</ele>
        <time>2023-12-06T13:59:22Z</time>
      </trkpt>
      <trkpt lat="49.27789" lon="0.10652">
        <ele>76</ele>
        <time>2023-12-06T13:59:23Z</time>
      </trkpt>
      <trkpt lat="49.27791" lon="0.10656">
        <ele>76.4</ele>
        <time>2023-12-06T13:59:24Z</time>
      </trkpt>
      <trkpt lat="49.27793" lon="0.1066">
        <ele>76.6</ele>
        <time>2023-12-06T13:59:25Z</time>
      </trkpt>
      <trkpt lat="49.27795" lon="0.10664">
        <ele>76.8</ele>
        <time>2023-12-06T13:59:26Z</time>
      </trkpt>
      <trkpt lat="49.27797" lon="0.10669">
        <ele>77.2</ele>
        <time>2023-12-06T13:59:27Z</time>
      </trkpt>
      <trkpt lat="49.27799" lon="0.10673">
        <ele>77.6</ele>
        <time>2023-12-06T13:59:28Z</time>
      </trkpt>
      <trkpt lat="49.27801" lon="0.10677">
        <ele>77.8</ele>
        <time>2023-12-06T13:59:29Z</time>
      </trkpt>
      <trkpt lat="49.27803" lon="0.10681">
        <ele>78</ele>
        <time>2023-12-06T13:59:30Z</time>
      </trkpt>
      <trkpt lat="49.27804" lon="0.10685">
        <ele>78.2</ele>
        <time>2023-12-06T13:59:31Z</time>
      </trkpt>
      <trkpt lat="49.27806" lon="0.10689">
        <ele>78.4</ele>
        <time>2023-12-06T13:59:32Z</time>
      </trkpt>
      <trkpt lat="49.27808" lon="0.10692">
        <ele>78.6</ele>
        <time>2023-12-06T13:59:33Z</time>
      </trkpt>
      <trkpt lat="49.2781" lon="0.10696">
        <ele>78.8</ele>
        <time>2023-12-06T13:59:34Z</time>
      </trkpt>
      <trkpt lat="49.27812" lon="0.107">
        <ele>79</ele>
        <time>2023-12-06T13:59:35Z</time>
      </trkpt>
      <trkpt lat="49.27813" lon="0.10704">
        <ele>79.4</ele>
        <time>2023-12-06T13:59:36Z</time>
      </trkpt>
      <trkpt lat="49.27815" lon="0.10708">
        <ele>79.6</ele>
        <time>2023-12-06T13:59:37Z</time>
      </trkpt>
      <trkpt lat="49.27817" lon="0.10713">
        <ele>79.8</ele>
        <time>2023-12-06T13:59:38Z</time>
      </trkpt>
      <trkpt lat="49.27818" lon="0.10717">
        <ele>80.2</ele>
        <time>2023-12-06T13:59:39Z</time>
      </trkpt>
      <trkpt lat="49.2782" lon="0.10722">
        <ele>80.4</ele>
        <time>2023-12-06T13:59:40Z</time>
      </trkpt>
      <trkpt lat="49.27821" lon="0.10727">
        <ele>80.6</ele>
        <time>2023-12-06T13:59:41Z</time>
      </trkpt>
      <trkpt lat="49.27822" lon="0.10731">
        <ele>80.8</ele>
        <time>2023-12-06T13:59:42Z</time>
      </trkpt>
      <trkpt lat="49.27823" lon="0.10735">
        <ele>81</ele>
        <time>2023-12-06T13:59:43Z</time>
      </trkpt>
      <trkpt lat="49.27824" lon="0.1074">
        <ele>81.2</ele>
        <time>2023-12-06T13:59:44Z</time>
      </trkpt>
      <trkpt lat="49.27826" lon="0.10744">
        <ele>81.4</ele>
        <time>2023-12-06T13:59:45Z</time>
      </trkpt>
      <trkpt lat="49.27827" lon="0.10749">
        <ele>81.6</ele>
        <time>2023-12-06T13:59:46Z</time>
      </trkpt>
      <trkpt lat="49.27828" lon="0.10753">
        <ele>81.8</ele>
        <time>2023-12-06T13:59:47Z</time>
      </trkpt>
      <trkpt lat="49.27829" lon="0.10758">
        <ele>82.2</ele>
        <time>2023-12-06T13:59:48Z</time>
      </trkpt>
      <trkpt lat="49.2783" lon="0.10762">
        <ele>82.4</ele>
        <time>2023-12-06T13:59:49Z</time>
      </trkpt>
      <trkpt lat="49.27831" lon="0.10766">
        <ele>82.8</ele>
        <time>2023-12-06T13:59:50Z</time>
      </trkpt>
      <trkpt lat="49.27833" lon="0.1077">
        <ele>83</ele>
        <time>2023-12-06T13:59:51Z</time>
      </trkpt>
      <trkpt lat="49.27834" lon="0.10774">
        <ele>83.2</ele>
        <time>2023-12-06T13:59:52Z</time>
      </trkpt>
      <trkpt lat="49.27834" lon="0.10778">
        <ele>83.6</ele>
        <time>2023-12-06T13:59:53Z</time>
      </trkpt>
      <trkpt lat="49.27835" lon="0.10782">
        <ele>83.8</ele>
        <time>2023-12-06T13:59:54Z</time>
      </trkpt>
      <trkpt lat="49.27836" lon="0.10785">
        <ele>84</ele>
        <time>2023-12-06T13:59:55Z</time>
      </trkpt>
      <trkpt lat="49.27837" lon="0.10789">
        <ele>84.2</ele>
        <time>2023-12-06T13:59:56Z</time>
      </trkpt>
      <trkpt lat="49.27837" lon="0.10794">
        <ele>84.4</ele>
        <time>2023-12-06T13:59:57Z</time>
      </trkpt>
      <trkpt lat="49.27838" lon="0.10798">
        <ele>84.6</ele>
        <time>2023-12-06T13:59:58Z</time>
      </trkpt>
      <trkpt lat="49.27839" lon="0.10802">
        <ele>85</ele>
        <time>2023-12-06T13:59:59Z</time>
      </trkpt>
      <trkpt lat="49.2784" lon="0.10806">
        <ele>85.2</ele>
        <time>2023-12-06T14:00:00Z</time>
      </trkpt>
      <trkpt lat="49.27841" lon="0.1081">
        <ele>85.6</ele>
        <time>2023-12-06T14:00:01Z</time>
      </trkpt>
      <trkpt lat="49.27842" lon="0.10814">
        <ele>85.8</ele>
        <time>2023-12-06T14:00:02Z</time>
      </trkpt>
      <trkpt lat="49.27842" lon="0.10818">
        <ele>86</ele>
        <time>2023-12-06T14:00:03Z</time>
      </trkpt>
      <trkpt lat="49.27843" lon="0.10821">
        <ele>86.2</ele>
        <time>2023-12-06T14:00:04Z</time>
      </trkpt>
      <trkpt lat="49.27844" lon="0.10824">
        <ele>86.4</ele>
        <time>2023-12-06T14:00:05Z</time>
      </trkpt>
      <trkpt lat="49.27845" lon="0.10827">
        <ele>86.8</ele>
        <time>2023-12-06T14:00:06Z</time>
      </trkpt>
      <trkpt lat="49.27846" lon="0.1083">
        <ele>87</ele>
        <time>2023-12-06T14:00:07Z</time>
      </trkpt>
      <trkpt lat="49.27848" lon="0.10833">
        <ele>87.4</ele>
        <time>2023-12-06T14:00:08Z</time>
      </trkpt>
      <trkpt lat="49.27849" lon="0.10836">
        <ele>87.4</ele>
        <time>2023-12-06T14:00:09Z</time>
      </trkpt>
      <trkpt lat="49.27849" lon="0.1084">
        <ele>87.8</ele>
        <time>2023-12-06T14:00:10Z</time>
      </trkpt>
      <trkpt lat="49.2785" lon="0.10843">
        <ele>88</ele>
        <time>2023-12-06T14:00:11Z</time>
      </trkpt>
      <trkpt lat="49.27851" lon="0.10846">
        <ele>88.2</ele>
        <time>2023-12-06T14:00:12Z</time>
      </trkpt>
      <trkpt lat="49.27853" lon="0.10849">
        <ele>88.6</ele>
        <time>2023-12-06T14:00:13Z</time>
      </trkpt>
      <trkpt lat="49.27854" lon="0.10852">
        <ele>88.8</ele>
        <time>2023-12-06T14:00:14Z</time>
      </trkpt>
      <trkpt lat="49.27855" lon="0.10856">
        <ele>89</ele>
        <time>2023-12-06T14:00:15Z</time>
      </trkpt>
      <trkpt lat="49.27856" lon="0.1086">
        <ele>89.4</ele>
        <time>2023-12-06T14:00:16Z</time>
      </trkpt>
      <trkpt lat="49.27857" lon="0.10864">
        <ele>89.6</ele>
        <time>2023-12-06T14:00:17Z</time>
      </trkpt>
      <trkpt lat="49.27858" lon="0.10867">
        <ele>90</ele>
        <time>2023-12-06T14:00:18Z</time>
      </trkpt>
      <trkpt lat="49.27859" lon="0.1087">
        <ele>90</ele>
        <time>2023-12-06T14:00:19Z</time>
      </trkpt>
      <trkpt lat="49.2786" lon="0.10873">
        <ele>90.4</ele>
        <time>2023-12-06T14:00:20Z</time>
      </trkpt>
      <trkpt lat="49.2786" lon="0.10877">
        <ele>90.6</ele>
        <time>2023-12-06T14:00:21Z</time>
      </trkpt>
      <trkpt lat="49.2786" lon="0.10881">
        <ele>90.8</ele>
        <time>2023-12-06T14:00:22Z</time>
      </trkpt>
      <trkpt lat="49.27861" lon="0.10884">
        <ele>91</ele>
        <time>2023-12-06T14:00:23Z</time>
      </trkpt>
      <trkpt lat="49.27862" lon="0.10888">
        <ele>91.2</ele>
        <time>2023-12-06T14:00:24Z</time>
      </trkpt>
      <trkpt lat="49.27862" lon="0.10892">
        <ele>91.4</ele>
        <time>2023-12-06T14:00:25Z</time>
      </trkpt>
      <trkpt lat="49.27862" lon="0.10895">
        <ele>91.6</ele>
        <time>2023-12-06T14:00:26Z</time>
      </trkpt>
      <trkpt lat="49.27862" lon="0.10899">
        <ele>92</ele>
        <time>2023-12-06T14:00:27Z</time>
      </trkpt>
      <trkpt lat="49.27863" lon="0.10903">
        <ele>92.2</ele>
        <time>2023-12-06T14:00:28Z</time>
      </trkpt>
      <trkpt lat="49.27863" lon="0.10907">
        <ele>92.4</ele>
        <time>2023-12-06T14:00:29Z</time>
      </trkpt>
      <trkpt lat="49.27863" lon="0.10912">
        <ele>92.6</ele>
        <time>2023-12-06T14:00:30Z</time>
      </trkpt>
      <trkpt lat="49.27863" lon="0.10917">
        <ele>92.8</ele>
        <time>2023-12-06T14:00:31Z</time>
      </trkpt>
      <trkpt lat="49.27863" lon="0.10922">
        <ele>93.2</ele>
        <time>2023-12-06T14:00:32Z</time>
      </trkpt>
      <trkpt lat="49.27862" lon="0.10927">
        <ele>93.4</ele>
        <time>2023-12-06T14:00:33Z</time>
      </trkpt>
      <trkpt lat="49.27862" lon="0.10932">
        <ele>93.6</ele>
        <time>2023-12-06T14:00:34Z</time>
      </trkpt>
      <trkpt lat="49.27861" lon="0.10937">
        <ele>93.6</ele>
        <time>2023-12-06T14:00:35Z</time>
      </trkpt>
      <trkpt lat="49.27861" lon="0.10943">
        <ele>94</ele>
        <time>2023-12-06T14:00:36Z</time>
      </trkpt>
      <trkpt lat="49.2786" lon="0.10948">
        <ele>94.2</ele>
        <time>2023-12-06T14:00:37Z</time>
      </trkpt>
      <trkpt lat="49.27858" lon="0.10953">
        <ele>94.4</ele>
        <time>2023-12-06T14:00:38Z</time>
      </trkpt>
      <trkpt lat="49.27855" lon="0.10958">
        <ele>94.4</ele>
        <time>2023-12-06T14:00:39Z</time>
      </trkpt>
      <trkpt lat="49.27853" lon="0.10963">
        <ele>94.6</ele>
        <time>2023-12-06T14:00:40Z</time>
      </trkpt>
      <trkpt lat="49.27851" lon="0.10968">
        <ele>94.6</ele>
        <time>2023-12-06T14:00:41Z</time>
      </trkpt>
      <trkpt lat="49.2785" lon="0.10972">
        <ele>94.6</ele>
        <time>2023-12-06T14:00:42Z</time>
      </trkpt>
      <trkpt lat="49.27849" lon="0.10976">
        <ele>94.6</ele>
        <time>2023-12-06T14:00:43Z</time>
      </trkpt>
      <trkpt lat="49.27848" lon="0.10979">
        <ele>94.6</ele>
        <time>2023-12-06T14:00:44Z</time>
      </trkpt>
      <trkpt lat="49.27848" lon="0.10983">
        <ele>94.6</ele>
        <time>2023-12-06T14:00:45Z</time>
      </trkpt>
      <trkpt lat="49.27848" lon="0.10987">
        <ele>94.8</ele>
        <time>2023-12-06T14:00:46Z</time>
      </trkpt>
      <trkpt lat="49.27847" lon="0.1099">
        <ele>94.8</ele>
        <time>2023-12-06T14:00:47Z</time>
      </trkpt>
      <trkpt lat="49.27846" lon="0.10992">
        <ele>94.8</ele>
        <time>2023-12-06T14:00:48Z</time>
      </trkpt>
      <trkpt lat="49.27845" lon="0.10993">
        <ele>94.8</ele>
        <time>2023-12-06T14:00:49Z</time>
      </trkpt>
      <trkpt lat="49.27845" lon="0.10993">
        <ele>94.8</ele>
        <time>2023-12-06T14:00:50Z</time>
      </trkpt>
      <trkpt lat="49.27845" lon="0.10993">
        <ele>94.8</ele>
        <time>2023-12-06T14:00:51Z</time>
      </trkpt>
      <trkpt lat="49.27843" lon="0.11">
        <ele>95.4</ele>
        <time>2023-12-06T14:01:20Z</time>
      </trkpt>
      <trkpt lat="49.27842" lon="0.11002">
        <ele>95.4</ele>
        <time>2023-12-06T14:01:21Z</time>
      </trkpt>
      <trkpt lat="49.27842" lon="0.11006">
        <ele>95.4</ele>
        <time>2023-12-06T14:01:22Z</time>
      </trkpt>
      <trkpt lat="49.27841" lon="0.11009">
        <ele>95.4</ele>
        <time>2023-12-06T14:01:23Z</time>
      </trkpt>
      <trkpt lat="49.2784" lon="0.11013">
        <ele>95.4</ele>
        <time>2023-12-06T14:01:24Z</time>
      </trkpt>
      <trkpt lat="49.2784" lon="0.11018">
        <ele>95.4</ele>
        <time>2023-12-06T14:01:25Z</time>
      </trkpt>
      <trkpt lat="49.27838" lon="0.11022">
        <ele>95.6</ele>
        <time>2023-12-06T14:01:26Z</time>
      </trkpt>
      <trkpt lat="49.27837" lon="0.11026">
        <ele>95.6</ele>
        <time>2023-12-06T14:01:27Z</time>
      </trkpt>
      <trkpt lat="49.27835" lon="0.11031">
        <ele>95.6</ele>
        <time>2023-12-06T14:01:28Z</time>
      </trkpt>
      <trkpt lat="49.27834" lon="0.11036">
        <ele>95.6</ele>
        <time>2023-12-06T14:01:29Z</time>
      </trkpt>
      <trkpt lat="49.27832" lon="0.11041">
        <ele>95.6</ele>
        <time>2023-12-06T14:01:30Z</time>
      </trkpt>
      <trkpt lat="49.2783" lon="0.11047">
        <ele>95.6</ele>
        <time>2023-12-06T14:01:31Z</time>
      </trkpt>
      <trkpt lat="49.27829" lon="0.11053">
        <ele>95.6</ele>
        <time>2023-12-06T14:01:32Z</time>
      </trkpt>
      <trkpt lat="49.27828" lon="0.11059">
        <ele>95.6</ele>
        <time>2023-12-06T14:01:33Z</time>
      </trkpt>
      <trkpt lat="49.27826" lon="0.11067">
        <ele>95.6</ele>
        <time>2023-12-06T14:01:34Z</time>
      </trkpt>
      <trkpt lat="49.27825" lon="0.11075">
        <ele>95.6</ele>
        <time>2023-12-06T14:01:35Z</time>
      </trkpt>
      <trkpt lat="49.27824" lon="0.11083">
        <ele>95.4</ele>
        <time>2023-12-06T14:01:36Z</time>
      </trkpt>
      <trkpt lat="49.27823" lon="0.11091">
        <ele>95.4</ele>
        <time>2023-12-06T14:01:37Z</time>
      </trkpt>
      <trkpt lat="49.27822" lon="0.111">
        <ele>95.4</ele>
        <time>2023-12-06T14:01:38Z</time>
      </trkpt>
      <trkpt lat="49.2782" lon="0.1111">
        <ele>95.2</ele>
        <time>2023-12-06T14:01:39Z</time>
      </trkpt>
      <trkpt lat="49.2782" lon="0.11119">
        <ele>95</ele>
        <time>2023-12-06T14:01:40Z</time>
      </trkpt>
      <trkpt lat="49.27819" lon="0.11129">
        <ele>95</ele>
        <time>2023-12-06T14:01:41Z</time>
      </trkpt>
      <trkpt lat="49.27818" lon="0.11139">
        <ele>94.8</ele>
        <time>2023-12-06T14:01:42Z</time>
      </trkpt>
      <trkpt lat="49.27819" lon="0.11148">
        <ele>94.4</ele>
        <time>2023-12-06T14:01:43Z</time>
      </trkpt>
      <trkpt lat="49.2782" lon="0.11157">
        <ele>94</ele>
        <time>2023-12-06T14:01:44Z</time>
      </trkpt>
      <trkpt lat="49.27822" lon="0.11166">
        <ele>93.4</ele>
        <time>2023-12-06T14:01:45Z</time>
      </trkpt>
      <trkpt lat="49.27826" lon="0.11174">
        <ele>93</ele>
        <time>2023-12-06T14:01:46Z</time>
      </trkpt>
      <trkpt lat="49.27831" lon="0.11181">
        <ele>92.6</ele>
        <time>2023-12-06T14:01:47Z</time>
      </trkpt>
      <trkpt lat="49.27836" lon="0.11187">
        <ele>92.2</ele>
        <time>2023-12-06T14:01:48Z</time>
      </trkpt>
      <trkpt lat="49.27843" lon="0.11193">
        <ele>91.8</ele>
        <time>2023-12-06T14:01:49Z</time>
      </trkpt>
      <trkpt lat="49.2785" lon="0.11198">
        <ele>91.4</ele>
        <time>2023-12-06T14:01:50Z</time>
      </trkpt>
      <trkpt lat="49.27857" lon="0.11203">
        <ele>91.2</ele>
        <time>2023-12-06T14:01:51Z</time>
      </trkpt>
      <trkpt lat="49.27866" lon="0.11207">
        <ele>90.8</ele>
        <time>2023-12-06T14:01:52Z</time>
      </trkpt>
      <trkpt lat="49.27874" lon="0.11212">
        <ele>90.4</ele>
        <time>2023-12-06T14:01:53Z</time>
      </trkpt>
      <trkpt lat="49.27883" lon="0.11216">
        <ele>89.6</ele>
        <time>2023-12-06T14:01:54Z</time>
      </trkpt>
      <trkpt lat="49.27891" lon="0.11221">
        <ele>89</ele>
        <time>2023-12-06T14:01:55Z</time>
      </trkpt>
      <trkpt lat="49.279" lon="0.11226">
        <ele>88.2</ele>
        <time>2023-12-06T14:01:56Z</time>
      </trkpt>
      <trkpt lat="49.27908" lon="0.11232">
        <ele>87.6</ele>
        <time>2023-12-06T14:01:57Z</time>
      </trkpt>
      <trkpt lat="49.27915" lon="0.11241">
        <ele>87</ele>
        <time>2023-12-06T14:01:58Z</time>
      </trkpt>
      <trkpt lat="49.27921" lon="0.11253">
        <ele>86.4</ele>
        <time>2023-12-06T14:01:59Z</time>
      </trkpt>
      <trkpt lat="49.27926" lon="0.11266">
        <ele>85.8</ele>
        <time>2023-12-06T14:02:00Z</time>
      </trkpt>
      <trkpt lat="49.2793" lon="0.11281">
        <ele>85</ele>
        <time>2023-12-06T14:02:01Z</time>
      </trkpt>
      <trkpt lat="49.27932" lon="0.11296">
        <ele>84</ele>
        <time>2023-12-06T14:02:02Z</time>
      </trkpt>
      <trkpt lat="49.27934" lon="0.1131">
        <ele>83.4</ele>
        <time>2023-12-06T14:02:03Z</time>
      </trkpt>
      <trkpt lat="49.27935" lon="0.11325">
        <ele>82.4</ele>
        <time>2023-12-06T14:02:04Z</time>
      </trkpt>
      <trkpt lat="49.27937" lon="0.1134">
        <ele>81.4</ele>
        <time>2023-12-06T14:02:05Z</time>
      </trkpt>
      <trkpt lat="49.27937" lon="0.11356">
        <ele>80.4</ele>
        <time>2023-12-06T14:02:06Z</time>
      </trkpt>
      <trkpt lat="49.27937" lon="0.11372">
        <ele>79.4</ele>
        <time>2023-12-06T14:02:07Z</time>
      </trkpt>
      <trkpt lat="49.27936" lon="0.11389">
        <ele>78</ele>
        <time>2023-12-06T14:02:08Z</time>
      </trkpt>
      <trkpt lat="49.27935" lon="0.11407">
        <ele>75.8</ele>
        <time>2023-12-06T14:02:09Z</time>
      </trkpt>
      <trkpt lat="49.27934" lon="0.11425">
        <ele>75.2</ele>
        <time>2023-12-06T14:02:10Z</time>
      </trkpt>
      <trkpt lat="49.27934" lon="0.11443">
        <ele>74.6</ele>
        <time>2023-12-06T14:02:11Z</time>
      </trkpt>
      <trkpt lat="49.27933" lon="0.11461">
        <ele>74</ele>
        <time>2023-12-06T14:02:12Z</time>
      </trkpt>
      <trkpt lat="49.27932" lon="0.1148">
        <ele>73</ele>
        <time>2023-12-06T14:02:13Z</time>
      </trkpt>
      <trkpt lat="49.27931" lon="0.11499">
        <ele>71.8</ele>
        <time>2023-12-06T14:02:14Z</time>
      </trkpt>
      <trkpt lat="49.2793" lon="0.11519">
        <ele>71.2</ele>
        <time>2023-12-06T14:02:15Z</time>
      </trkpt>
      <trkpt lat="49.27929" lon="0.11539">
        <ele>70</ele>
        <time>2023-12-06T14:02:16Z</time>
      </trkpt>
      <trkpt lat="49.27929" lon="0.11559">
        <ele>69</ele>
        <time>2023-12-06T14:02:17Z</time>
      </trkpt>
      <trkpt lat="49.27928" lon="0.1158">
        <ele>67.8</ele>
        <time>2023-12-06T14:02:18Z</time>
      </trkpt>
      <trkpt lat="49.27927" lon="0.11601">
        <ele>66.8</ele>
        <time>2023-12-06T14:02:19Z</time>
      </trkpt>
      <trkpt lat="49.27926" lon="0.11622">
        <ele>65.2</ele>
        <time>2023-12-06T14:02:20Z</time>
      </trkpt>
      <trkpt lat="49.27925" lon="0.11643">
        <ele>64</ele>
        <time>2023-12-06T14:02:21Z</time>
      </trkpt>
      <trkpt lat="49.27924" lon="0.11665">
        <ele>62.6</ele>
        <time>2023-12-06T14:02:22Z</time>
      </trkpt>
      <trkpt lat="49.27923" lon="0.11687">
        <ele>61.2</ele>
        <time>2023-12-06T14:02:23Z</time>
      </trkpt>
      <trkpt lat="49.27922" lon="0.1171">
        <ele>59.8</ele>
        <time>2023-12-06T14:02:24Z</time>
      </trkpt>
      <trkpt lat="49.27922" lon="0.11733">
        <ele>58.8</ele>
        <time>2023-12-06T14:02:25Z</time>
      </trkpt>
      <trkpt lat="49.27921" lon="0.11756">
        <ele>57.6</ele>
        <time>2023-12-06T14:02:26Z</time>
      </trkpt>
      <trkpt lat="49.2792" lon="0.1178">
        <ele>56.2</ele>
        <time>2023-12-06T14:02:27Z</time>
      </trkpt>
      <trkpt lat="49.2792" lon="0.11804">
        <ele>54.6</ele>
        <time>2023-12-06T14:02:28Z</time>
      </trkpt>
      <trkpt lat="49.27919" lon="0.11828">
        <ele>53.2</ele>
        <time>2023-12-06T14:02:29Z</time>
      </trkpt>
      <trkpt lat="49.27918" lon="0.11852">
        <ele>52</ele>
        <time>2023-12-06T14:02:30Z</time>
      </trkpt>
      <trkpt lat="49.27917" lon="0.11875">
        <ele>50.4</ele>
        <time>2023-12-06T14:02:31Z</time>
      </trkpt>
      <trkpt lat="49.27915" lon="0.11896">
        <ele>49.2</ele>
        <time>2023-12-06T14:02:32Z</time>
      </trkpt>
      <trkpt lat="49.27913" lon="0.11916">
        <ele>47.8</ele>
        <time>2023-12-06T14:02:33Z</time>
      </trkpt>
      <trkpt lat="49.2791" lon="0.11934">
        <ele>46.4</ele>
        <time>2023-12-06T14:02:34Z</time>
      </trkpt>
      <trkpt lat="49.27906" lon="0.11951">
        <ele>45</ele>
        <time>2023-12-06T14:02:35Z</time>
      </trkpt>
      <trkpt lat="49.27901" lon="0.11967">
        <ele>42.6</ele>
        <time>2023-12-06T14:02:36Z</time>
      </trkpt>
      <trkpt lat="49.27897" lon="0.11983">
        <ele>40.6</ele>
        <time>2023-12-06T14:02:37Z</time>
      </trkpt>
      <trkpt lat="49.27893" lon="0.11997">
        <ele>39.6</ele>
        <time>2023-12-06T14:02:38Z</time>
      </trkpt>
      <trkpt lat="49.27889" lon="0.1201">
        <ele>39.2</ele>
        <time>2023-12-06T14:02:39Z</time>
      </trkpt>
      <trkpt lat="49.27885" lon="0.12023">
        <ele>39</ele>
        <time>2023-12-06T14:02:40Z</time>
      </trkpt>
      <trkpt lat="49.27881" lon="0.12035">
        <ele>38.8</ele>
        <time>2023-12-06T14:02:41Z</time>
      </trkpt>
      <trkpt lat="49.27878" lon="0.12046">
        <ele>38.8</ele>
        <time>2023-12-06T14:02:42Z</time>
      </trkpt>
      <trkpt lat="49.27876" lon="0.12057">
        <ele>38.8</ele>
        <time>2023-12-06T14:02:43Z</time>
      </trkpt>
      <trkpt lat="49.27873" lon="0.12068">
        <ele>38.6</ele>
        <time>2023-12-06T14:02:44Z</time>
      </trkpt>
      <trkpt lat="49.27869" lon="0.12078">
        <ele>38.6</ele>
        <time>2023-12-06T14:02:45Z</time>
      </trkpt>
      <trkpt lat="49.27866" lon="0.12088">
        <ele>38.6</ele>
        <time>2023-12-06T14:02:46Z</time>
      </trkpt>
      <trkpt lat="49.27864" lon="0.12097">
        <ele>39</ele>
        <time>2023-12-06T14:02:47Z</time>
      </trkpt>
      <trkpt lat="49.27861" lon="0.12106">
        <ele>39.8</ele>
        <time>2023-12-06T14:02:48Z</time>
      </trkpt>
      <trkpt lat="49.27858" lon="0.12115">
        <ele>40.4</ele>
        <time>2023-12-06T14:02:49Z</time>
      </trkpt>
      <trkpt lat="49.27856" lon="0.12124">
        <ele>40.8</ele>
        <time>2023-12-06T14:02:50Z</time>
      </trkpt>
      <trkpt lat="49.27854" lon="0.12133">
        <ele>41.6</ele>
        <time>2023-12-06T14:02:51Z</time>
      </trkpt>
      <trkpt lat="49.27851" lon="0.12141">
        <ele>41.8</ele>
        <time>2023-12-06T14:02:52Z</time>
      </trkpt>
      <trkpt lat="49.27849" lon="0.12149">
        <ele>42.4</ele>
        <time>2023-12-06T14:02:53Z</time>
      </trkpt>
      <trkpt lat="49.27846" lon="0.12157">
        <ele>43</ele>
        <time>2023-12-06T14:02:54Z</time>
      </trkpt>
      <trkpt lat="49.27844" lon="0.12166">
        <ele>43.4</ele>
        <time>2023-12-06T14:02:55Z</time>
      </trkpt>
      <trkpt lat="49.27842" lon="0.12174">
        <ele>44.2</ele>
        <time>2023-12-06T14:02:56Z</time>
      </trkpt>
      <trkpt lat="49.27839" lon="0.12182">
        <ele>44.8</ele>
        <time>2023-12-06T14:02:57Z</time>
      </trkpt>
      <trkpt lat="49.27837" lon="0.1219">
        <ele>45.2</ele>
        <time>2023-12-06T14:02:58Z</time>
      </trkpt>
      <trkpt lat="49.27835" lon="0.12199">
        <ele>45.6</ele>
        <time>2023-12-06T14:02:59Z</time>
      </trkpt>
      <trkpt lat="49.27834" lon="0.12207">
        <ele>45.8</ele>
        <time>2023-12-06T14:03:00Z</time>
      </trkpt>
      <trkpt lat="49.27832" lon="0.12215">
        <ele>46</ele>
        <time>2023-12-06T14:03:01Z</time>
      </trkpt>
      <trkpt lat="49.27831" lon="0.12223">
        <ele>46.6</ele>
        <time>2023-12-06T14:03:02Z</time>
      </trkpt>
      <trkpt lat="49.27829" lon="0.12232">
        <ele>46.8</ele>
        <time>2023-12-06T14:03:03Z</time>
      </trkpt>
      <trkpt lat="49.27828" lon="0.1224">
        <ele>47.2</ele>
        <time>2023-12-06T14:03:04Z</time>
      </trkpt>
      <trkpt lat="49.27827" lon="0.12249">
        <ele>47.4</ele>
        <time>2023-12-06T14:03:05Z</time>
      </trkpt>
      <trkpt lat="49.27826" lon="0.12257">
        <ele>47.8</ele>
        <time>2023-12-06T14:03:06Z</time>
      </trkpt>
      <trkpt lat="49.27824" lon="0.12265">
        <ele>48.2</ele>
        <time>2023-12-06T14:03:07Z</time>
      </trkpt>
      <trkpt lat="49.27823" lon="0.12274">
        <ele>48.4</ele>
        <time>2023-12-06T14:03:08Z</time>
      </trkpt>
      <trkpt lat="49.27822" lon="0.12282">
        <ele>48.8</ele>
        <time>2023-12-06T14:03:09Z</time>
      </trkpt>
      <trkpt lat="49.2782" lon="0.12291">
        <ele>49</ele>
        <time>2023-12-06T14:03:10Z</time>
      </trkpt>
      <trkpt lat="49.27819" lon="0.123">
        <ele>49.2</ele>
        <time>2023-12-06T14:03:11Z</time>
      </trkpt>
      <trkpt lat="49.27817" lon="0.12309">
        <ele>49.4</ele>
        <time>2023-12-06T14:03:12Z</time>
      </trkpt>
      <trkpt lat="49.27816" lon="0.12318">
        <ele>50</ele>
        <time>2023-12-06T14:03:13Z</time>
      </trkpt>
      <trkpt lat="49.27815" lon="0.12327">
        <ele>50.2</ele>
        <time>2023-12-06T14:03:14Z</time>
      </trkpt>
      <trkpt lat="49.27813" lon="0.12336">
        <ele>50.4</ele>
        <time>2023-12-06T14:03:15Z</time>
      </trkpt>
      <trkpt lat="49.27811" lon="0.12345">
        <ele>50.8</ele>
        <time>2023-12-06T14:03:16Z</time>
      </trkpt>
      <trkpt lat="49.27809" lon="0.12354">
        <ele>51</ele>
        <time>2023-12-06T14:03:17Z</time>
      </trkpt>
      <trkpt lat="49.27808" lon="0.12363">
        <ele>51.2</ele>
        <time>2023-12-06T14:03:18Z</time>
      </trkpt>
      <trkpt lat="49.27806" lon="0.12372">
        <ele>51.4</ele>
        <time>2023-12-06T14:03:19Z</time>
      </trkpt>
      <trkpt lat="49.27805" lon="0.12381">
        <ele>51.4</ele>
        <time>2023-12-06T14:03:20Z</time>
      </trkpt>
      <trkpt lat="49.27803" lon="0.1239">
        <ele>51.6</ele>
        <time>2023-12-06T14:03:21Z</time>
      </trkpt>
      <trkpt lat="49.27802" lon="0.12399">
        <ele>51.6</ele>
        <time>2023-12-06T14:03:22Z</time>
      </trkpt>
      <trkpt lat="49.278" lon="0.12407">
        <ele>52</ele>
        <time>2023-12-06T14:03:23Z</time>
      </trkpt>
      <trkpt lat="49.27799" lon="0.12416">
        <ele>52.2</ele>
        <time>2023-12-06T14:03:24Z</time>
      </trkpt>
      <trkpt lat="49.27797" lon="0.12425">
        <ele>52.2</ele>
        <time>2023-12-06T14:03:25Z</time>
      </trkpt>
      <trkpt lat="49.27795" lon="0.12434">
        <ele>52.4</ele>
        <time>2023-12-06T14:03:26Z</time>
      </trkpt>
      <trkpt lat="49.27794" lon="0.12443">
        <ele>52.4</ele>
        <time>2023-12-06T14:03:27Z</time>
      </trkpt>
      <trkpt lat="49.27792" lon="0.12453">
        <ele>52.4</ele>
        <time>2023-12-06T14:03:28Z</time>
      </trkpt>
      <trkpt lat="49.27791" lon="0.12462">
        <ele>52.6</ele>
        <time>2023-12-06T14:03:29Z</time>
      </trkpt>
      <trkpt lat="49.2779" lon="0.12471">
        <ele>52.6</ele>
        <time>2023-12-06T14:03:30Z</time>
      </trkpt>
      <trkpt lat="49.2779" lon="0.12481">
        <ele>52.6</ele>
        <time>2023-12-06T14:03:31Z</time>
      </trkpt>
      <trkpt lat="49.2779" lon="0.1249">
        <ele>52.6</ele>
        <time>2023-12-06T14:03:32Z</time>
      </trkpt>
      <trkpt lat="49.2779" lon="0.12499">
        <ele>52.8</ele>
        <time>2023-12-06T14:03:33Z</time>
      </trkpt>
      <trkpt lat="49.2779" lon="0.12508">
        <ele>53</ele>
        <time>2023-12-06T14:03:34Z</time>
      </trkpt>
      <trkpt lat="49.27791" lon="0.12518">
        <ele>53.2</ele>
        <time>2023-12-06T14:03:35Z</time>
      </trkpt>
      <trkpt lat="49.27791" lon="0.12527">
        <ele>53.2</ele>
        <time>2023-12-06T14:03:36Z</time>
      </trkpt>
      <trkpt lat="49.27792" lon="0.12537">
        <ele>53.4</ele>
        <time>2023-12-06T14:03:37Z</time>
      </trkpt>
      <trkpt lat="49.27792" lon="0.12547">
        <ele>53.6</ele>
        <time>2023-12-06T14:03:38Z</time>
      </trkpt>
      <trkpt lat="49.27793" lon="0.12557">
        <ele>53.6</ele>
        <time>2023-12-06T14:03:39Z</time>
      </trkpt>
      <trkpt lat="49.27794" lon="0.12567">
        <ele>53.8</ele>
        <time>2023-12-06T14:03:40Z</time>
      </trkpt>
      <trkpt lat="49.27795" lon="0.12578">
        <ele>53.8</ele>
        <time>2023-12-06T14:03:41Z</time>
      </trkpt>
      <trkpt lat="49.27796" lon="0.12588">
        <ele>53.8</ele>
        <time>2023-12-06T14:03:42Z</time>
      </trkpt>
      <trkpt lat="49.27796" lon="0.12599">
        <ele>53.8</ele>
        <time>2023-12-06T14:03:43Z</time>
      </trkpt>
      <trkpt lat="49.27797" lon="0.12609">
        <ele>54.2</ele>
        <time>2023-12-06T14:03:44Z</time>
      </trkpt>
      <trkpt lat="49.27797" lon="0.1262">
        <ele>54.2</ele>
        <time>2023-12-06T14:03:45Z</time>
      </trkpt>
      <trkpt lat="49.27797" lon="0.1263">
        <ele>54.2</ele>
        <time>2023-12-06T14:03:46Z</time>
      </trkpt>
      <trkpt lat="49.27798" lon="0.12641">
        <ele>54.2</ele>
        <time>2023-12-06T14:03:47Z</time>
      </trkpt>
      <trkpt lat="49.27798" lon="0.12651">
        <ele>54.2</ele>
        <time>2023-12-06T14:03:48Z</time>
      </trkpt>
      <trkpt lat="49.27798" lon="0.12662">
        <ele>54.2</ele>
        <time>2023-12-06T14:03:49Z</time>
      </trkpt>
      <trkpt lat="49.27799" lon="0.12672">
        <ele>54.2</ele>
        <time>2023-12-06T14:03:50Z</time>
      </trkpt>
      <trkpt lat="49.27799" lon="0.12683">
        <ele>54.2</ele>
        <time>2023-12-06T14:03:51Z</time>
      </trkpt>
      <trkpt lat="49.278" lon="0.12693">
        <ele>54.2</ele>
        <time>2023-12-06T14:03:52Z</time>
      </trkpt>
      <trkpt lat="49.278" lon="0.12703">
        <ele>54.4</ele>
        <time>2023-12-06T14:03:53Z</time>
      </trkpt>
      <trkpt lat="49.278" lon="0.12714">
        <ele>54.4</ele>
        <time>2023-12-06T14:03:54Z</time>
      </trkpt>
      <trkpt lat="49.278" lon="0.12724">
        <ele>54.4</ele>
        <time>2023-12-06T14:03:55Z</time>
      </trkpt>
      <trkpt lat="49.278" lon="0.12734">
        <ele>54.4</ele>
        <time>2023-12-06T14:03:56Z</time>
      </trkpt>
      <trkpt lat="49.278" lon="0.12744">
        <ele>54.4</ele>
        <time>2023-12-06T14:03:57Z</time>
      </trkpt>
      <trkpt lat="49.278" lon="0.12753">
        <ele>54.4</ele>
        <time>2023-12-06T14:03:58Z</time>
      </trkpt>
      <trkpt lat="49.27801" lon="0.12763">
        <ele>54.4</ele>
        <time>2023-12-06T14:03:59Z</time>
      </trkpt>
      <trkpt lat="49.27801" lon="0.12773">
        <ele>54.4</ele>
        <time>2023-12-06T14:04:00Z</time>
      </trkpt>
      <trkpt lat="49.27801" lon="0.12783">
        <ele>54.4</ele>
        <time>2023-12-06T14:04:01Z</time>
      </trkpt>
      <trkpt lat="49.27801" lon="0.12792">
        <ele>54.2</ele>
        <time>2023-12-06T14:04:02Z</time>
      </trkpt>
      <trkpt lat="49.278" lon="0.12802">
        <ele>54.2</ele>
        <time>2023-12-06T14:04:03Z</time>
      </trkpt>
      <trkpt lat="49.278" lon="0.12811">
        <ele>54.2</ele>
        <time>2023-12-06T14:04:04Z</time>
      </trkpt>
      <trkpt lat="49.27799" lon="0.12821">
        <ele>54.2</ele>
        <time>2023-12-06T14:04:05Z</time>
      </trkpt>
      <trkpt lat="49.27798" lon="0.1283">
        <ele>54.2</ele>
        <time>2023-12-06T14:04:06Z</time>
      </trkpt>
      <trkpt lat="49.27796" lon="0.12839">
        <ele>54.2</ele>
        <time>2023-12-06T14:04:07Z</time>
      </trkpt>
      <trkpt lat="49.27795" lon="0.12848">
        <ele>54.2</ele>
        <time>2023-12-06T14:04:08Z</time>
      </trkpt>
      <trkpt lat="49.27793" lon="0.12857">
        <ele>54.2</ele>
        <time>2023-12-06T14:04:09Z</time>
      </trkpt>
      <trkpt lat="49.27792" lon="0.12865">
        <ele>54.2</ele>
        <time>2023-12-06T14:04:10Z</time>
      </trkpt>
      <trkpt lat="49.2779" lon="0.12874">
        <ele>54.2</ele>
        <time>2023-12-06T14:04:11Z</time>
      </trkpt>
      <trkpt lat="49.27789" lon="0.12883">
        <ele>54.2</ele>
        <time>2023-12-06T14:04:12Z</time>
      </trkpt>
      <trkpt lat="49.27788" lon="0.12891">
        <ele>54.2</ele>
        <time>2023-12-06T14:04:13Z</time>
      </trkpt>
      <trkpt lat="49.27786" lon="0.129">
        <ele>54.6</ele>
        <time>2023-12-06T14:04:14Z</time>
      </trkpt>
      <trkpt lat="49.27786" lon="0.12908">
        <ele>55</ele>
        <time>2023-12-06T14:04:15Z</time>
      </trkpt>
      <trkpt lat="49.27785" lon="0.12916">
        <ele>55.4</ele>
        <time>2023-12-06T14:04:16Z</time>
      </trkpt>
      <trkpt lat="49.27784" lon="0.12924">
        <ele>55.6</ele>
        <time>2023-12-06T14:04:17Z</time>
      </trkpt>
      <trkpt lat="49.27784" lon="0.12931">
        <ele>55.8</ele>
        <time>2023-12-06T14:04:18Z</time>
      </trkpt>
      <trkpt lat="49.27783" lon="0.12939">
        <ele>56</ele>
        <time>2023-12-06T14:04:19Z</time>
      </trkpt>
      <trkpt lat="49.27783" lon="0.12946">
        <ele>56.2</ele>
        <time>2023-12-06T14:04:20Z</time>
      </trkpt>
      <trkpt lat="49.27783" lon="0.12954">
        <ele>56.4</ele>
        <time>2023-12-06T14:04:21Z</time>
      </trkpt>
      <trkpt lat="49.27783" lon="0.12961">
        <ele>56.4</ele>
        <time>2023-12-06T14:04:22Z</time>
      </trkpt>
      <trkpt lat="49.27782" lon="0.12969">
        <ele>57</ele>
        <time>2023-12-06T14:04:23Z</time>
      </trkpt>
      <trkpt lat="49.27783" lon="0.12976">
        <ele>57.4</ele>
        <time>2023-12-06T14:04:24Z</time>
      </trkpt>
      <trkpt lat="49.27783" lon="0.12984">
        <ele>57.6</ele>
        <time>2023-12-06T14:04:25Z</time>
      </trkpt>
      <trkpt lat="49.27783" lon="0.12992">
        <ele>58</ele>
        <time>2023-12-06T14:04:26Z</time>
      </trkpt>
      <trkpt lat="49.27783" lon="0.13">
        <ele>58.4</ele>
        <time>2023-12-06T14:04:27Z</time>
      </trkpt>
      <trkpt lat="49.27783" lon="0.13008">
        <ele>58.4</ele>
        <time>2023-12-06T14:04:28Z</time>
      </trkpt>
      <trkpt lat="49.27783" lon="0.13016">
        <ele>58.6</ele>
        <time>2023-12-06T14:04:29Z</time>
      </trkpt>
      <trkpt lat="49.27784" lon="0.13024">
        <ele>58.8</ele>
        <time>2023-12-06T14:04:30Z</time>
      </trkpt>
      <trkpt lat="49.27786" lon="0.13032">
        <ele>59.2</ele>
        <time>2023-12-06T14:04:31Z</time>
      </trkpt>
      <trkpt lat="49.27787" lon="0.1304">
        <ele>59.4</ele>
        <time>2023-12-06T14:04:32Z</time>
      </trkpt>
      <trkpt lat="49.27788" lon="0.13048">
        <ele>59.4</ele>
        <time>2023-12-06T14:04:33Z</time>
      </trkpt>
      <trkpt lat="49.2779" lon="0.13055">
        <ele>60</ele>
        <time>2023-12-06T14:04:34Z</time>
      </trkpt>
      <trkpt lat="49.27791" lon="0.13063">
        <ele>60</ele>
        <time>2023-12-06T14:04:35Z</time>
      </trkpt>
      <trkpt lat="49.27793" lon="0.13071">
        <ele>60.2</ele>
        <time>2023-12-06T14:04:36Z</time>
      </trkpt>
      <trkpt lat="49.27794" lon="0.13078">
        <ele>60.2</ele>
        <time>2023-12-06T14:04:37Z</time>
      </trkpt>
      <trkpt lat="49.27796" lon="0.13086">
        <ele>60.6</ele>
        <time>2023-12-06T14:04:38Z</time>
      </trkpt>
      <trkpt lat="49.27797" lon="0.13093">
        <ele>61</ele>
        <time>2023-12-06T14:04:39Z</time>
      </trkpt>
      <trkpt lat="49.27798" lon="0.131">
        <ele>61</ele>
        <time>2023-12-06T14:04:40Z</time>
      </trkpt>
      <trkpt lat="49.278" lon="0.13107">
        <ele>61.2</ele>
        <time>2023-12-06T14:04:41Z</time>
      </trkpt>
      <trkpt lat="49.27802" lon="0.13114">
        <ele>61.6</ele>
        <time>2023-12-06T14:04:42Z</time>
      </trkpt>
      <trkpt lat="49.27803" lon="0.13122">
        <ele>61.8</ele>
        <time>2023-12-06T14:04:43Z</time>
      </trkpt>
      <trkpt lat="49.27805" lon="0.1313">
        <ele>62</ele>
        <time>2023-12-06T14:04:44Z</time>
      </trkpt>
      <trkpt lat="49.27807" lon="0.13138">
        <ele>62</ele>
        <time>2023-12-06T14:04:45Z</time>
      </trkpt>
      <trkpt lat="49.27809" lon="0.13147">
        <ele>62</ele>
        <time>2023-12-06T14:04:46Z</time>
      </trkpt>
      <trkpt lat="49.27811" lon="0.13155">
        <ele>62.2</ele>
        <time>2023-12-06T14:04:47Z</time>
      </trkpt>
      <trkpt lat="49.27813" lon="0.13164">
        <ele>62.6</ele>
        <time>2023-12-06T14:04:48Z</time>
      </trkpt>
      <trkpt lat="49.27815" lon="0.13173">
        <ele>62.6</ele>
        <time>2023-12-06T14:04:49Z</time>
      </trkpt>
      <trkpt lat="49.27818" lon="0.13181">
        <ele>62.6</ele>
        <time>2023-12-06T14:04:50Z</time>
      </trkpt>
      <trkpt lat="49.2782" lon="0.1319">
        <ele>62.6</ele>
        <time>2023-12-06T14:04:51Z</time>
      </trkpt>
      <trkpt lat="49.27823" lon="0.132">
        <ele>62.6</ele>
        <time>2023-12-06T14:04:52Z</time>
      </trkpt>
      <trkpt lat="49.27825" lon="0.13209">
        <ele>62.6</ele>
        <time>2023-12-06T14:04:53Z</time>
      </trkpt>
      <trkpt lat="49.27828" lon="0.13218">
        <ele>62.6</ele>
        <time>2023-12-06T14:04:54Z</time>
      </trkpt>
      <trkpt lat="49.2783" lon="0.13228">
        <ele>62.6</ele>
        <time>2023-12-06T14:04:55Z</time>
      </trkpt>
      <trkpt lat="49.27833" lon="0.13238">
        <ele>62.6</ele>
        <time>2023-12-06T14:04:56Z</time>
      </trkpt>
      <trkpt lat="49.27835" lon="0.13248">
        <ele>62.6</ele>
        <time>2023-12-06T14:04:57Z</time>
      </trkpt>
      <trkpt lat="49.27838" lon="0.13258">
        <ele>62.6</ele>
        <time>2023-12-06T14:04:58Z</time>
      </trkpt>
      <trkpt lat="49.27841" lon="0.13268">
        <ele>62.6</ele>
        <time>2023-12-06T14:04:59Z</time>
      </trkpt>
      <trkpt lat="49.27843" lon="0.13278">
        <ele>62.6</ele>
        <time>2023-12-06T14:05:00Z</time>
      </trkpt>
      <trkpt lat="49.27845" lon="0.13288">
        <ele>62.6</ele>
        <time>2023-12-06T14:05:01Z</time>
      </trkpt>
      <trkpt lat="49.27848" lon="0.13298">
        <ele>62.6</ele>
        <time>2023-12-06T14:05:02Z</time>
      </trkpt>
      <trkpt lat="49.2785" lon="0.13308">
        <ele>62</ele>
        <time>2023-12-06T14:05:03Z</time>
      </trkpt>
      <trkpt lat="49.27853" lon="0.13319">
        <ele>62</ele>
        <time>2023-12-06T14:05:04Z</time>
      </trkpt>
      <trkpt lat="49.27855" lon="0.13329">
        <ele>61.6</ele>
        <time>2023-12-06T14:05:05Z</time>
      </trkpt>
      <trkpt lat="49.27858" lon="0.1334">
        <ele>61.2</ele>
        <time>2023-12-06T14:05:06Z</time>
      </trkpt>
      <trkpt lat="49.27861" lon="0.13351">
        <ele>61</ele>
        <time>2023-12-06T14:05:07Z</time>
      </trkpt>
      <trkpt lat="49.27863" lon="0.13361">
        <ele>61</ele>
        <time>2023-12-06T14:05:08Z</time>
      </trkpt>
      <trkpt lat="49.27866" lon="0.13372">
        <ele>61</ele>
        <time>2023-12-06T14:05:09Z</time>
      </trkpt>
      <trkpt lat="49.27869" lon="0.13383">
        <ele>61</ele>
        <time>2023-12-06T14:05:10Z</time>
      </trkpt>
      <trkpt lat="49.27872" lon="0.13394">
        <ele>61</ele>
        <time>2023-12-06T14:05:11Z</time>
      </trkpt>
      <trkpt lat="49.27874" lon="0.13405">
        <ele>60.6</ele>
        <time>2023-12-06T14:05:12Z</time>
      </trkpt>
      <trkpt lat="49.27877" lon="0.13416">
        <ele>60.6</ele>
        <time>2023-12-06T14:05:13Z</time>
      </trkpt>
      <trkpt lat="49.2788" lon="0.13427">
        <ele>60.6</ele>
        <time>2023-12-06T14:05:14Z</time>
      </trkpt>
      <trkpt lat="49.27882" lon="0.13438">
        <ele>60.4</ele>
        <time>2023-12-06T14:05:15Z</time>
      </trkpt>
      <trkpt lat="49.27885" lon="0.13449">
        <ele>60.2</ele>
        <time>2023-12-06T14:05:16Z</time>
      </trkpt>
      <trkpt lat="49.27888" lon="0.1346">
        <ele>60</ele>
        <time>2023-12-06T14:05:17Z</time>
      </trkpt>
      <trkpt lat="49.2789" lon="0.1347">
        <ele>59.4</ele>
        <time>2023-12-06T14:05:18Z</time>
      </trkpt>
      <trkpt lat="49.27893" lon="0.13481">
        <ele>59.4</ele>
        <time>2023-12-06T14:05:19Z</time>
      </trkpt>
      <trkpt lat="49.27896" lon="0.13493">
        <ele>59.2</ele>
        <time>2023-12-06T14:05:20Z</time>
      </trkpt>
      <trkpt lat="49.27898" lon="0.13504">
        <ele>58.8</ele>
        <time>2023-12-06T14:05:21Z</time>
      </trkpt>
      <trkpt lat="49.27901" lon="0.13514">
        <ele>58.4</ele>
        <time>2023-12-06T14:05:22Z</time>
      </trkpt>
      <trkpt lat="49.27904" lon="0.13525">
        <ele>58</ele>
        <time>2023-12-06T14:05:23Z</time>
      </trkpt>
      <trkpt lat="49.27907" lon="0.13535">
        <ele>58</ele>
        <time>2023-12-06T14:05:24Z</time>
      </trkpt>
      <trkpt lat="49.27909" lon="0.13546">
        <ele>57.6</ele>
        <time>2023-12-06T14:05:25Z</time>
      </trkpt>
      <trkpt lat="49.27911" lon="0.13556">
        <ele>57.4</ele>
        <time>2023-12-06T14:05:26Z</time>
      </trkpt>
      <trkpt lat="49.27914" lon="0.13567">
        <ele>57.4</ele>
        <time>2023-12-06T14:05:27Z</time>
      </trkpt>
      <trkpt lat="49.27916" lon="0.13577">
        <ele>57.4</ele>
        <time>2023-12-06T14:05:28Z</time>
      </trkpt>
      <trkpt lat="49.27918" lon="0.13588">
        <ele>57</ele>
        <time>2023-12-06T14:05:29Z</time>
      </trkpt>
      <trkpt lat="49.2792" lon="0.13599">
        <ele>57</ele>
        <time>2023-12-06T14:05:30Z</time>
      </trkpt>
      <trkpt lat="49.27922" lon="0.13611">
        <ele>57</ele>
        <time>2023-12-06T14:05:31Z</time>
      </trkpt>
      <trkpt lat="49.27924" lon="0.13622">
        <ele>57</ele>
        <time>2023-12-06T14:05:32Z</time>
      </trkpt>
      <trkpt lat="49.27926" lon="0.13634">
        <ele>57</ele>
        <time>2023-12-06T14:05:33Z</time>
      </trkpt>
      <trkpt lat="49.27927" lon="0.13645">
        <ele>56.8</ele>
        <time>2023-12-06T14:05:34Z</time>
      </trkpt>
      <trkpt lat="49.27929" lon="0.13657">
        <ele>56.8</ele>
        <time>2023-12-06T14:05:35Z</time>
      </trkpt>
      <trkpt lat="49.2793" lon="0.13668">
        <ele>56.8</ele>
        <time>2023-12-06T14:05:36Z</time>
      </trkpt>
      <trkpt lat="49.27932" lon="0.13679">
        <ele>56.8</ele>
        <time>2023-12-06T14:05:37Z</time>
      </trkpt>
      <trkpt lat="49.27933" lon="0.1369">
        <ele>56.8</ele>
        <time>2023-12-06T14:05:38Z</time>
      </trkpt>
      <trkpt lat="49.27935" lon="0.13702">
        <ele>56.8</ele>
        <time>2023-12-06T14:05:39Z</time>
      </trkpt>
      <trkpt lat="49.27937" lon="0.13713">
        <ele>56.8</ele>
        <time>2023-12-06T14:05:40Z</time>
      </trkpt>
      <trkpt lat="49.27939" lon="0.13725">
        <ele>56.4</ele>
        <time>2023-12-06T14:05:41Z</time>
      </trkpt>
      <trkpt lat="49.27941" lon="0.13736">
        <ele>56.4</ele>
        <time>2023-12-06T14:05:42Z</time>
      </trkpt>
      <trkpt lat="49.27944" lon="0.13748">
        <ele>56.4</ele>
        <time>2023-12-06T14:05:43Z</time>
      </trkpt>
      <trkpt lat="49.27946" lon="0.13759">
        <ele>56.4</ele>
        <time>2023-12-06T14:05:44Z</time>
      </trkpt>
      <trkpt lat="49.27949" lon="0.1377">
        <ele>56.2</ele>
        <time>2023-12-06T14:05:45Z</time>
      </trkpt>
      <trkpt lat="49.27952" lon="0.13782">
        <ele>56.2</ele>
        <time>2023-12-06T14:05:46Z</time>
      </trkpt>
      <trkpt lat="49.27955" lon="0.13793">
        <ele>56.2</ele>
        <time>2023-12-06T14:05:47Z</time>
      </trkpt>
      <trkpt lat="49.27957" lon="0.13804">
        <ele>56.2</ele>
        <time>2023-12-06T14:05:48Z</time>
      </trkpt>
      <trkpt lat="49.2796" lon="0.13816">
        <ele>56</ele>
        <time>2023-12-06T14:05:49Z</time>
      </trkpt>
      <trkpt lat="49.27963" lon="0.13827">
        <ele>56</ele>
        <time>2023-12-06T14:05:50Z</time>
      </trkpt>
      <trkpt lat="49.27966" lon="0.13838">
        <ele>55.8</ele>
        <time>2023-12-06T14:05:51Z</time>
      </trkpt>
      <trkpt lat="49.27969" lon="0.13849">
        <ele>55.8</ele>
        <time>2023-12-06T14:05:52Z</time>
      </trkpt>
      <trkpt lat="49.27972" lon="0.1386">
        <ele>55.8</ele>
        <time>2023-12-06T14:05:53Z</time>
      </trkpt>
      <trkpt lat="49.27974" lon="0.13871">
        <ele>55.4</ele>
        <time>2023-12-06T14:05:54Z</time>
      </trkpt>
      <trkpt lat="49.27977" lon="0.13883">
        <ele>55.4</ele>
        <time>2023-12-06T14:05:55Z</time>
      </trkpt>
      <trkpt lat="49.2798" lon="0.13894">
        <ele>55</ele>
        <time>2023-12-06T14:05:56Z</time>
      </trkpt>
      <trkpt lat="49.27982" lon="0.13905">
        <ele>54.8</ele>
        <time>2023-12-06T14:05:57Z</time>
      </trkpt>
      <trkpt lat="49.27985" lon="0.13916">
        <ele>54.8</ele>
        <time>2023-12-06T14:05:58Z</time>
      </trkpt>
      <trkpt lat="49.27987" lon="0.13927">
        <ele>54.6</ele>
        <time>2023-12-06T14:05:59Z</time>
      </trkpt>
      <trkpt lat="49.2799" lon="0.13938">
        <ele>54.4</ele>
        <time>2023-12-06T14:06:00Z</time>
      </trkpt>
      <trkpt lat="49.27992" lon="0.1395">
        <ele>54.2</ele>
        <time>2023-12-06T14:06:01Z</time>
      </trkpt>
      <trkpt lat="49.27995" lon="0.13961">
        <ele>54.2</ele>
        <time>2023-12-06T14:06:02Z</time>
      </trkpt>
      <trkpt lat="49.27997" lon="0.13973">
        <ele>54.2</ele>
        <time>2023-12-06T14:06:03Z</time>
      </trkpt>
      <trkpt lat="49.28" lon="0.13984">
        <ele>53.8</ele>
        <time>2023-12-06T14:06:04Z</time>
      </trkpt>
      <trkpt lat="49.28003" lon="0.13995">
        <ele>53.6</ele>
        <time>2023-12-06T14:06:05Z</time>
      </trkpt>
      <trkpt lat="49.28005" lon="0.14007">
        <ele>53.4</ele>
        <time>2023-12-06T14:06:06Z</time>
      </trkpt>
      <trkpt lat="49.28008" lon="0.14018">
        <ele>53.4</ele>
        <time>2023-12-06T14:06:07Z</time>
      </trkpt>
      <trkpt lat="49.2801" lon="0.1403">
        <ele>53.2</ele>
        <time>2023-12-06T14:06:08Z</time>
      </trkpt>
      <trkpt lat="49.28013" lon="0.14041">
        <ele>53.2</ele>
        <time>2023-12-06T14:06:09Z</time>
      </trkpt>
      <trkpt lat="49.28015" lon="0.14052">
        <ele>53.2</ele>
        <time>2023-12-06T14:06:10Z</time>
      </trkpt>
      <trkpt lat="49.28018" lon="0.14062">
        <ele>53</ele>
        <time>2023-12-06T14:06:11Z</time>
      </trkpt>
      <trkpt lat="49.2802" lon="0.14073">
        <ele>53</ele>
        <time>2023-12-06T14:06:12Z</time>
      </trkpt>
      <trkpt lat="49.28023" lon="0.14084">
        <ele>52.8</ele>
        <time>2023-12-06T14:06:13Z</time>
      </trkpt>
      <trkpt lat="49.28025" lon="0.14095">
        <ele>52.6</ele>
        <time>2023-12-06T14:06:14Z</time>
      </trkpt>
      <trkpt lat="49.28027" lon="0.14106">
        <ele>52.4</ele>
        <time>2023-12-06T14:06:15Z</time>
      </trkpt>
      <trkpt lat="49.2803" lon="0.14117">
        <ele>52.2</ele>
        <time>2023-12-06T14:06:16Z</time>
      </trkpt>
      <trkpt lat="49.28032" lon="0.14128">
        <ele>51.8</ele>
        <time>2023-12-06T14:06:17Z</time>
      </trkpt>
      <trkpt lat="49.28034" lon="0.1414">
        <ele>51.6</ele>
        <time>2023-12-06T14:06:18Z</time>
      </trkpt>
      <trkpt lat="49.28035" lon="0.14151">
        <ele>51.6</ele>
        <time>2023-12-06T14:06:19Z</time>
      </trkpt>
      <trkpt lat="49.28036" lon="0.14163">
        <ele>51.4</ele>
        <time>2023-12-06T14:06:20Z</time>
      </trkpt>
      <trkpt lat="49.28037" lon="0.14175">
        <ele>51.4</ele>
        <time>2023-12-06T14:06:21Z</time>
      </trkpt>
      <trkpt lat="49.28038" lon="0.14186">
        <ele>51.2</ele>
        <time>2023-12-06T14:06:22Z</time>
      </trkpt>
      <trkpt lat="49.28038" lon="0.14198">
        <ele>51.2</ele>
        <time>2023-12-06T14:06:23Z</time>
      </trkpt>
      <trkpt lat="49.28038" lon="0.1421">
        <ele>51.2</ele>
        <time>2023-12-06T14:06:24Z</time>
      </trkpt>
      <trkpt lat="49.28038" lon="0.14222">
        <ele>51</ele>
        <time>2023-12-06T14:06:25Z</time>
      </trkpt>
      <trkpt lat="49.28038" lon="0.14234">
        <ele>50.8</ele>
        <time>2023-12-06T14:06:26Z</time>
      </trkpt>
      <trkpt lat="49.28039" lon="0.14247">
        <ele>50.4</ele>
        <time>2023-12-06T14:06:27Z</time>
      </trkpt>
      <trkpt lat="49.28039" lon="0.14259">
        <ele>50.2</ele>
        <time>2023-12-06T14:06:28Z</time>
      </trkpt>
      <trkpt lat="49.28041" lon="0.14272">
        <ele>50</ele>
        <time>2023-12-06T14:06:29Z</time>
      </trkpt>
      <trkpt lat="49.28042" lon="0.14286">
        <ele>49.8</ele>
        <time>2023-12-06T14:06:30Z</time>
      </trkpt>
      <trkpt lat="49.28043" lon="0.14299">
        <ele>49.6</ele>
        <time>2023-12-06T14:06:31Z</time>
      </trkpt>
      <trkpt lat="49.28045" lon="0.14312">
        <ele>49.6</ele>
        <time>2023-12-06T14:06:32Z</time>
      </trkpt>
      <trkpt lat="49.28047" lon="0.14325">
        <ele>49.2</ele>
        <time>2023-12-06T14:06:33Z</time>
      </trkpt>
      <trkpt lat="49.2805" lon="0.14339">
        <ele>49</ele>
        <time>2023-12-06T14:06:34Z</time>
      </trkpt>
      <trkpt lat="49.28053" lon="0.14352">
        <ele>49</ele>
        <time>2023-12-06T14:06:35Z</time>
      </trkpt>
      <trkpt lat="49.28056" lon="0.14365">
        <ele>48.8</ele>
        <time>2023-12-06T14:06:36Z</time>
      </trkpt>
      <trkpt lat="49.2806" lon="0.14378">
        <ele>48.8</ele>
        <time>2023-12-06T14:06:37Z</time>
      </trkpt>
      <trkpt lat="49.28063" lon="0.1439">
        <ele>48.6</ele>
        <time>2023-12-06T14:06:38Z</time>
      </trkpt>
      <trkpt lat="49.28067" lon="0.14403">
        <ele>48.6</ele>
        <time>2023-12-06T14:06:39Z</time>
      </trkpt>
      <trkpt lat="49.28071" lon="0.14415">
        <ele>48.4</ele>
        <time>2023-12-06T14:06:40Z</time>
      </trkpt>
      <trkpt lat="49.28076" lon="0.14427">
        <ele>48.4</ele>
        <time>2023-12-06T14:06:41Z</time>
      </trkpt>
      <trkpt lat="49.2808" lon="0.14438">
        <ele>48.2</ele>
        <time>2023-12-06T14:06:42Z</time>
      </trkpt>
      <trkpt lat="49.28084" lon="0.1445">
        <ele>48.2</ele>
        <time>2023-12-06T14:06:43Z</time>
      </trkpt>
      <trkpt lat="49.28089" lon="0.14461">
        <ele>47.8</ele>
        <time>2023-12-06T14:06:44Z</time>
      </trkpt>
      <trkpt lat="49.28094" lon="0.14472">
        <ele>47.8</ele>
        <time>2023-12-06T14:06:45Z</time>
      </trkpt>
      <trkpt lat="49.28099" lon="0.14483">
        <ele>47.4</ele>
        <time>2023-12-06T14:06:46Z</time>
      </trkpt>
      <trkpt lat="49.28104" lon="0.14495">
        <ele>47.4</ele>
        <time>2023-12-06T14:06:47Z</time>
      </trkpt>
      <trkpt lat="49.28109" lon="0.14506">
        <ele>47</ele>
        <time>2023-12-06T14:06:48Z</time>
      </trkpt>
      <trkpt lat="49.28114" lon="0.14517">
        <ele>46.6</ele>
        <time>2023-12-06T14:06:49Z</time>
      </trkpt>
      <trkpt lat="49.28119" lon="0.14529">
        <ele>46.6</ele>
        <time>2023-12-06T14:06:50Z</time>
      </trkpt>
      <trkpt lat="49.28124" lon="0.1454">
        <ele>46.4</ele>
        <time>2023-12-06T14:06:51Z</time>
      </trkpt>
      <trkpt lat="49.2813" lon="0.14552">
        <ele>46.4</ele>
        <time>2023-12-06T14:06:52Z</time>
      </trkpt>
      <trkpt lat="49.28135" lon="0.14563">
        <ele>46.4</ele>
        <time>2023-12-06T14:06:53Z</time>
      </trkpt>
      <trkpt lat="49.2814" lon="0.14574">
        <ele>46.2</ele>
        <time>2023-12-06T14:06:54Z</time>
      </trkpt>
      <trkpt lat="49.28145" lon="0.14585">
        <ele>46</ele>
        <time>2023-12-06T14:06:55Z</time>
      </trkpt>
      <trkpt lat="49.2815" lon="0.14597">
        <ele>45.8</ele>
        <time>2023-12-06T14:06:56Z</time>
      </trkpt>
      <trkpt lat="49.28155" lon="0.14608">
        <ele>45.6</ele>
        <time>2023-12-06T14:06:57Z</time>
      </trkpt>
      <trkpt lat="49.28159" lon="0.14619">
        <ele>45.4</ele>
        <time>2023-12-06T14:06:58Z</time>
      </trkpt>
      <trkpt lat="49.28164" lon="0.1463">
        <ele>45.2</ele>
        <time>2023-12-06T14:06:59Z</time>
      </trkpt>
      <trkpt lat="49.2817" lon="0.14641">
        <ele>44.8</ele>
        <time>2023-12-06T14:07:00Z</time>
      </trkpt>
      <trkpt lat="49.28175" lon="0.14652">
        <ele>44.4</ele>
        <time>2023-12-06T14:07:01Z</time>
      </trkpt>
      <trkpt lat="49.2818" lon="0.14663">
        <ele>44.2</ele>
        <time>2023-12-06T14:07:02Z</time>
      </trkpt>
      <trkpt lat="49.28185" lon="0.14675">
        <ele>44.2</ele>
        <time>2023-12-06T14:07:03Z</time>
      </trkpt>
      <trkpt lat="49.2819" lon="0.14686">
        <ele>44.2</ele>
        <time>2023-12-06T14:07:04Z</time>
      </trkpt>
      <trkpt lat="49.28195" lon="0.14697">
        <ele>43.8</ele>
        <time>2023-12-06T14:07:05Z</time>
      </trkpt>
      <trkpt lat="49.282" lon="0.14708">
        <ele>43.8</ele>
        <time>2023-12-06T14:07:06Z</time>
      </trkpt>
      <trkpt lat="49.28205" lon="0.14719">
        <ele>43.6</ele>
        <time>2023-12-06T14:07:07Z</time>
      </trkpt>
      <trkpt lat="49.28209" lon="0.1473">
        <ele>43.6</ele>
        <time>2023-12-06T14:07:08Z</time>
      </trkpt>
      <trkpt lat="49.28214" lon="0.14741">
        <ele>43.2</ele>
        <time>2023-12-06T14:07:09Z</time>
      </trkpt>
      <trkpt lat="49.28219" lon="0.14751">
        <ele>43.2</ele>
        <time>2023-12-06T14:07:10Z</time>
      </trkpt>
      <trkpt lat="49.28224" lon="0.14761">
        <ele>42.8</ele>
        <time>2023-12-06T14:07:11Z</time>
      </trkpt>
      <trkpt lat="49.28229" lon="0.14772">
        <ele>42.6</ele>
        <time>2023-12-06T14:07:12Z</time>
      </trkpt>
      <trkpt lat="49.28233" lon="0.14783">
        <ele>42.4</ele>
        <time>2023-12-06T14:07:13Z</time>
      </trkpt>
      <trkpt lat="49.28238" lon="0.14794">
        <ele>42.2</ele>
        <time>2023-12-06T14:07:14Z</time>
      </trkpt>
      <trkpt lat="49.28243" lon="0.14804">
        <ele>42</ele>
        <time>2023-12-06T14:07:15Z</time>
      </trkpt>
      <trkpt lat="49.28247" lon="0.14815">
        <ele>41.8</ele>
        <time>2023-12-06T14:07:16Z</time>
      </trkpt>
      <trkpt lat="49.28251" lon="0.14826">
        <ele>41.6</ele>
        <time>2023-12-06T14:07:17Z</time>
      </trkpt>
      <trkpt lat="49.28255" lon="0.14837">
        <ele>41.4</ele>
        <time>2023-12-06T14:07:18Z</time>
      </trkpt>
      <trkpt lat="49.28259" lon="0.14848">
        <ele>41.2</ele>
        <time>2023-12-06T14:07:19Z</time>
      </trkpt>
      <trkpt lat="49.28262" lon="0.1486">
        <ele>41</ele>
        <time>2023-12-06T14:07:20Z</time>
      </trkpt>
      <trkpt lat="49.28265" lon="0.14872">
        <ele>40.8</ele>
        <time>2023-12-06T14:07:21Z</time>
      </trkpt>
      <trkpt lat="49.28268" lon="0.14884">
        <ele>40.6</ele>
        <time>2023-12-06T14:07:22Z</time>
      </trkpt>
      <trkpt lat="49.2827" lon="0.14897">
        <ele>40.6</ele>
        <time>2023-12-06T14:07:23Z</time>
      </trkpt>
      <trkpt lat="49.28272" lon="0.1491">
        <ele>40.6</ele>
        <time>2023-12-06T14:07:24Z</time>
      </trkpt>
      <trkpt lat="49.28274" lon="0.14923">
        <ele>40</ele>
        <time>2023-12-06T14:07:25Z</time>
      </trkpt>
      <trkpt lat="49.28276" lon="0.14936">
        <ele>39.8</ele>
        <time>2023-12-06T14:07:26Z</time>
      </trkpt>
      <trkpt lat="49.28277" lon="0.1495">
        <ele>39.6</ele>
        <time>2023-12-06T14:07:27Z</time>
      </trkpt>
      <trkpt lat="49.28278" lon="0.14963">
        <ele>39.2</ele>
        <time>2023-12-06T14:07:28Z</time>
      </trkpt>
      <trkpt lat="49.2828" lon="0.14977">
        <ele>38.8</ele>
        <time>2023-12-06T14:07:29Z</time>
      </trkpt>
      <trkpt lat="49.2828" lon="0.1499">
        <ele>38</ele>
        <time>2023-12-06T14:07:30Z</time>
      </trkpt>
      <trkpt lat="49.28281" lon="0.15004">
        <ele>38</ele>
        <time>2023-12-06T14:07:31Z</time>
      </trkpt>
      <trkpt lat="49.28282" lon="0.15017">
        <ele>37.4</ele>
        <time>2023-12-06T14:07:32Z</time>
      </trkpt>
      <trkpt lat="49.28283" lon="0.15031">
        <ele>37.4</ele>
        <time>2023-12-06T14:07:33Z</time>
      </trkpt>
      <trkpt lat="49.28284" lon="0.15044">
        <ele>36.8</ele>
        <time>2023-12-06T14:07:34Z</time>
      </trkpt>
      <trkpt lat="49.28285" lon="0.15058">
        <ele>36.6</ele>
        <time>2023-12-06T14:07:35Z</time>
      </trkpt>
      <trkpt lat="49.28286" lon="0.15072">
        <ele>36.2</ele>
        <time>2023-12-06T14:07:36Z</time>
      </trkpt>
      <trkpt lat="49.28287" lon="0.15085">
        <ele>35.8</ele>
        <time>2023-12-06T14:07:37Z</time>
      </trkpt>
      <trkpt lat="49.28288" lon="0.15099">
        <ele>35.8</ele>
        <time>2023-12-06T14:07:38Z</time>
      </trkpt>
      <trkpt lat="49.2829" lon="0.15112">
        <ele>35.6</ele>
        <time>2023-12-06T14:07:39Z</time>
      </trkpt>
      <trkpt lat="49.28292" lon="0.15125">
        <ele>35.4</ele>
        <time>2023-12-06T14:07:40Z</time>
      </trkpt>
      <trkpt lat="49.28294" lon="0.15138">
        <ele>35</ele>
        <time>2023-12-06T14:07:41Z</time>
      </trkpt>
      <trkpt lat="49.28296" lon="0.15151">
        <ele>34.8</ele>
        <time>2023-12-06T14:07:42Z</time>
      </trkpt>
      <trkpt lat="49.28299" lon="0.15163">
        <ele>34.8</ele>
        <time>2023-12-06T14:07:43Z</time>
      </trkpt>
      <trkpt lat="49.28302" lon="0.15176">
        <ele>34.8</ele>
        <time>2023-12-06T14:07:44Z</time>
      </trkpt>
      <trkpt lat="49.28305" lon="0.15188">
        <ele>34.4</ele>
        <time>2023-12-06T14:07:45Z</time>
      </trkpt>
      <trkpt lat="49.28308" lon="0.15201">
        <ele>34.4</ele>
        <time>2023-12-06T14:07:46Z</time>
      </trkpt>
      <trkpt lat="49.2831" lon="0.15214">
        <ele>34</ele>
        <time>2023-12-06T14:07:47Z</time>
      </trkpt>
      <trkpt lat="49.28313" lon="0.15226">
        <ele>33.4</ele>
        <time>2023-12-06T14:07:48Z</time>
      </trkpt>
      <trkpt lat="49.28315" lon="0.15239">
        <ele>33</ele>
        <time>2023-12-06T14:07:49Z</time>
      </trkpt>
      <trkpt lat="49.28318" lon="0.15251">
        <ele>32.8</ele>
        <time>2023-12-06T14:07:50Z</time>
      </trkpt>
      <trkpt lat="49.28321" lon="0.15264">
        <ele>32.4</ele>
        <time>2023-12-06T14:07:51Z</time>
      </trkpt>
      <trkpt lat="49.28324" lon="0.15276">
        <ele>32.4</ele>
        <time>2023-12-06T14:07:52Z</time>
      </trkpt>
      <trkpt lat="49.28327" lon="0.15289">
        <ele>32.2</ele>
        <time>2023-12-06T14:07:53Z</time>
      </trkpt>
      <trkpt lat="49.2833" lon="0.15302">
        <ele>32.2</ele>
        <time>2023-12-06T14:07:54Z</time>
      </trkpt>
      <trkpt lat="49.28333" lon="0.15315">
        <ele>32.2</ele>
        <time>2023-12-06T14:07:55Z</time>
      </trkpt>
      <trkpt lat="49.28337" lon="0.15328">
        <ele>31.8</ele>
        <time>2023-12-06T14:07:56Z</time>
      </trkpt>
      <trkpt lat="49.28339" lon="0.15342">
        <ele>31.6</ele>
        <time>2023-12-06T14:07:57Z</time>
      </trkpt>
      <trkpt lat="49.28341" lon="0.15357">
        <ele>31.6</ele>
        <time>2023-12-06T14:07:58Z</time>
      </trkpt>
      <trkpt lat="49.28343" lon="0.15372">
        <ele>31.2</ele>
        <time>2023-12-06T14:07:59Z</time>
      </trkpt>
      <trkpt lat="49.28343" lon="0.15387">
        <ele>31</ele>
        <time>2023-12-06T14:08:00Z</time>
      </trkpt>
      <trkpt lat="49.28344" lon="0.15402">
        <ele>30.6</ele>
        <time>2023-12-06T14:08:01Z</time>
      </trkpt>
      <trkpt lat="49.28344" lon="0.15418">
        <ele>30</ele>
        <time>2023-12-06T14:08:02Z</time>
      </trkpt>
      <trkpt lat="49.28343" lon="0.15434">
        <ele>29.6</ele>
        <time>2023-12-06T14:08:03Z</time>
      </trkpt>
      <trkpt lat="49.28341" lon="0.1545">
        <ele>29.2</ele>
        <time>2023-12-06T14:08:04Z</time>
      </trkpt>
      <trkpt lat="49.28338" lon="0.15466">
        <ele>28.8</ele>
        <time>2023-12-06T14:08:05Z</time>
      </trkpt>
      <trkpt lat="49.28336" lon="0.15482">
        <ele>28.4</ele>
        <time>2023-12-06T14:08:06Z</time>
      </trkpt>
      <trkpt lat="49.28332" lon="0.15498">
        <ele>28</ele>
        <time>2023-12-06T14:08:07Z</time>
      </trkpt>
      <trkpt lat="49.28329" lon="0.15513">
        <ele>27.4</ele>
        <time>2023-12-06T14:08:08Z</time>
      </trkpt>
      <trkpt lat="49.28325" lon="0.15529">
        <ele>27</ele>
        <time>2023-12-06T14:08:09Z</time>
      </trkpt>
      <trkpt lat="49.28321" lon="0.15546">
        <ele>26.2</ele>
        <time>2023-12-06T14:08:10Z</time>
      </trkpt>
      <trkpt lat="49.28317" lon="0.15562">
        <ele>25.6</ele>
        <time>2023-12-06T14:08:11Z</time>
      </trkpt>
      <trkpt lat="49.28314" lon="0.15579">
        <ele>24.8</ele>
        <time>2023-12-06T14:08:12Z</time>
      </trkpt>
      <trkpt lat="49.28311" lon="0.15596">
        <ele>24.2</ele>
        <time>2023-12-06T14:08:13Z</time>
      </trkpt>
      <trkpt lat="49.2831" lon="0.15613">
        <ele>23.6</ele>
        <time>2023-12-06T14:08:14Z</time>
      </trkpt>
      <trkpt lat="49.28309" lon="0.1563">
        <ele>23</ele>
        <time>2023-12-06T14:08:15Z</time>
      </trkpt>
      <trkpt lat="49.2831" lon="0.15647">
        <ele>22.2</ele>
        <time>2023-12-06T14:08:16Z</time>
      </trkpt>
      <trkpt lat="49.28312" lon="0.15663">
        <ele>21.4</ele>
        <time>2023-12-06T14:08:17Z</time>
      </trkpt>
      <trkpt lat="49.28316" lon="0.15678">
        <ele>20.8</ele>
        <time>2023-12-06T14:08:18Z</time>
      </trkpt>
      <trkpt lat="49.2832" lon="0.15692">
        <ele>19.8</ele>
        <time>2023-12-06T14:08:19Z</time>
      </trkpt>
      <trkpt lat="49.28326" lon="0.15705">
        <ele>19</ele>
        <time>2023-12-06T14:08:20Z</time>
      </trkpt>
      <trkpt lat="49.28332" lon="0.15718">
        <ele>18.2</ele>
        <time>2023-12-06T14:08:21Z</time>
      </trkpt>
      <trkpt lat="49.28338" lon="0.1573">
        <ele>17.6</ele>
        <time>2023-12-06T14:08:22Z</time>
      </trkpt>
      <trkpt lat="49.28345" lon="0.15743">
        <ele>17</ele>
        <time>2023-12-06T14:08:23Z</time>
      </trkpt>
      <trkpt lat="49.28351" lon="0.15754">
        <ele>16</ele>
        <time>2023-12-06T14:08:24Z</time>
      </trkpt>
      <trkpt lat="49.28358" lon="0.15766">
        <ele>15.2</ele>
        <time>2023-12-06T14:08:25Z</time>
      </trkpt>
      <trkpt lat="49.28364" lon="0.15779">
        <ele>14.6</ele>
        <time>2023-12-06T14:08:26Z</time>
      </trkpt>
      <trkpt lat="49.28369" lon="0.15791">
        <ele>14.4</ele>
        <time>2023-12-06T14:08:27Z</time>
      </trkpt>
      <trkpt lat="49.28375" lon="0.15804">
        <ele>14</ele>
        <time>2023-12-06T14:08:28Z</time>
      </trkpt>
      <trkpt lat="49.2838" lon="0.15817">
        <ele>14</ele>
        <time>2023-12-06T14:08:29Z</time>
      </trkpt>
      <trkpt lat="49.28384" lon="0.1583">
        <ele>13.8</ele>
        <time>2023-12-06T14:08:30Z</time>
      </trkpt>
      <trkpt lat="49.28389" lon="0.15843">
        <ele>13.8</ele>
        <time>2023-12-06T14:08:31Z</time>
      </trkpt>
      <trkpt lat="49.28393" lon="0.15856">
        <ele>13.6</ele>
        <time>2023-12-06T14:08:32Z</time>
      </trkpt>
      <trkpt lat="49.28397" lon="0.15868">
        <ele>13.6</ele>
        <time>2023-12-06T14:08:33Z</time>
      </trkpt>
      <trkpt lat="49.284" lon="0.1588">
        <ele>13.4</ele>
        <time>2023-12-06T14:08:34Z</time>
      </trkpt>
      <trkpt lat="49.28404" lon="0.15891">
        <ele>13.4</ele>
        <time>2023-12-06T14:08:35Z</time>
      </trkpt>
      <trkpt lat="49.28408" lon="0.15903">
        <ele>13.2</ele>
        <time>2023-12-06T14:08:36Z</time>
      </trkpt>
      <trkpt lat="49.28412" lon="0.15914">
        <ele>13</ele>
        <time>2023-12-06T14:08:37Z</time>
      </trkpt>
      <trkpt lat="49.28416" lon="0.15925">
        <ele>13</ele>
        <time>2023-12-06T14:08:38Z</time>
      </trkpt>
      <trkpt lat="49.2842" lon="0.15935">
        <ele>12.8</ele>
        <time>2023-12-06T14:08:39Z</time>
      </trkpt>
      <trkpt lat="49.28424" lon="0.15945">
        <ele>12.8</ele>
        <time>2023-12-06T14:08:40Z</time>
      </trkpt>
      <trkpt lat="49.28429" lon="0.15955">
        <ele>12.8</ele>
        <time>2023-12-06T14:08:41Z</time>
      </trkpt>
      <trkpt lat="49.28433" lon="0.15965">
        <ele>12.8</ele>
        <time>2023-12-06T14:08:42Z</time>
      </trkpt>
      <trkpt lat="49.28438" lon="0.15975">
        <ele>12.8</ele>
        <time>2023-12-06T14:08:43Z</time>
      </trkpt>
      <trkpt lat="49.28443" lon="0.15984">
        <ele>12.8</ele>
        <time>2023-12-06T14:08:44Z</time>
      </trkpt>
      <trkpt lat="49.28447" lon="0.15992">
        <ele>12.6</ele>
        <time>2023-12-06T14:08:45Z</time>
      </trkpt>
      <trkpt lat="49.28451" lon="0.16">
        <ele>12.6</ele>
        <time>2023-12-06T14:08:46Z</time>
      </trkpt>
      <trkpt lat="49.28455" lon="0.16007">
        <ele>12.6</ele>
        <time>2023-12-06T14:08:47Z</time>
      </trkpt>
      <trkpt lat="49.28458" lon="0.16013">
        <ele>12.4</ele>
        <time>2023-12-06T14:08:48Z</time>
      </trkpt>
      <trkpt lat="49.28461" lon="0.16019">
        <ele>12.4</ele>
        <time>2023-12-06T14:08:49Z</time>
      </trkpt>
      <trkpt lat="49.28463" lon="0.16024">
        <ele>12.4</ele>
        <time>2023-12-06T14:08:50Z</time>
      </trkpt>
      <trkpt lat="49.28464" lon="0.16028">
        <ele>12.2</ele>
        <time>2023-12-06T14:08:51Z</time>
      </trkpt>
      <trkpt lat="49.28465" lon="0.16031">
        <ele>12.2</ele>
        <time>2023-12-06T14:08:52Z</time>
      </trkpt>
      <trkpt lat="49.28465" lon="0.16032">
        <ele>12.2</ele>
        <time>2023-12-06T14:08:53Z</time>
      </trkpt>
      <trkpt lat="49.28465" lon="0.16032">
        <ele>12.2</ele>
        <time>2023-12-06T14:08:54Z</time>
      </trkpt>
      <trkpt lat="49.28465" lon="0.16032">
        <ele>12.2</ele>
        <time>2023-12-06T14:08:55Z</time>
      </trkpt>
      <trkpt lat="49.2846" lon="0.16018">
        <ele>12</ele>
        <time>2023-12-06T14:09:03Z</time>
      </trkpt>
      <trkpt lat="49.28459" lon="0.16015">
        <ele>12</ele>
        <time>2023-12-06T14:09:04Z</time>
      </trkpt>
      <trkpt lat="49.28457" lon="0.16012">
        <ele>12</ele>
        <time>2023-12-06T14:09:05Z</time>
      </trkpt>
      <trkpt lat="49.28455" lon="0.16008">
        <ele>11.8</ele>
        <time>2023-12-06T14:09:06Z</time>
      </trkpt>
      <trkpt lat="49.28453" lon="0.16004">
        <ele>11.8</ele>
        <time>2023-12-06T14:09:07Z</time>
      </trkpt>
      <trkpt lat="49.2845" lon="0.16">
        <ele>11.8</ele>
        <time>2023-12-06T14:09:08Z</time>
      </trkpt>
      <trkpt lat="49.28448" lon="0.15997">
        <ele>11.8</ele>
        <time>2023-12-06T14:09:09Z</time>
      </trkpt>
      <trkpt lat="49.28446" lon="0.15993">
        <ele>11.8</ele>
        <time>2023-12-06T14:09:10Z</time>
      </trkpt>
      <trkpt lat="49.28445" lon="0.15991">
        <ele>11.8</ele>
        <time>2023-12-06T14:09:11Z</time>
      </trkpt>
      <trkpt lat="49.28443" lon="0.15989">
        <ele>11.8</ele>
        <time>2023-12-06T14:09:12Z</time>
      </trkpt>
      <trkpt lat="49.28443" lon="0.15989">
        <ele>11.8</ele>
        <time>2023-12-06T14:09:13Z</time>
      </trkpt>
      <trkpt lat="49.28443" lon="0.15989">
        <ele>11.8</ele>
        <time>2023-12-06T14:09:14Z</time>
      </trkpt>
      <trkpt lat="49.28446" lon="0.15996">
        <ele>13</ele>
        <time>2023-12-06T14:20:00Z</time>
      </trkpt>
      <trkpt lat="49.28448" lon="0.15999">
        <ele>13</ele>
        <time>2023-12-06T14:20:01Z</time>
      </trkpt>
      <trkpt lat="49.28449" lon="0.16002">
        <ele>13</ele>
        <time>2023-12-06T14:20:02Z</time>
      </trkpt>
      <trkpt lat="49.28451" lon="0.16005">
        <ele>13</ele>
        <time>2023-12-06T14:20:03Z</time>
      </trkpt>
      <trkpt lat="49.28453" lon="0.16009">
        <ele>13</ele>
        <time>2023-12-06T14:20:04Z</time>
      </trkpt>
      <trkpt lat="49.28455" lon="0.16012">
        <ele>13</ele>
        <time>2023-12-06T14:20:05Z</time>
      </trkpt>
      <trkpt lat="49.28457" lon="0.16016">
        <ele>13</ele>
        <time>2023-12-06T14:20:06Z</time>
      </trkpt>
      <trkpt lat="49.28459" lon="0.16019">
        <ele>12.8</ele>
        <time>2023-12-06T14:20:07Z</time>
      </trkpt>
      <trkpt lat="49.28461" lon="0.16022">
        <ele>12.8</ele>
        <time>2023-12-06T14:20:08Z</time>
      </trkpt>
      <trkpt lat="49.28463" lon="0.16026">
        <ele>12.8</ele>
        <time>2023-12-06T14:20:09Z</time>
      </trkpt>
      <trkpt lat="49.28465" lon="0.1603">
        <ele>12.8</ele>
        <time>2023-12-06T14:20:10Z</time>
      </trkpt>
      <trkpt lat="49.28467" lon="0.16033">
        <ele>12.8</ele>
        <time>2023-12-06T14:20:11Z</time>
      </trkpt>
      <trkpt lat="49.28468" lon="0.16036">
        <ele>12.8</ele>
        <time>2023-12-06T14:20:12Z</time>
      </trkpt>
      <trkpt lat="49.28469" lon="0.16038">
        <ele>12.8</ele>
        <time>2023-12-06T14:20:13Z</time>
      </trkpt>
      <trkpt lat="49.28471" lon="0.16041">
        <ele>12.6</ele>
        <time>2023-12-06T14:20:14Z</time>
      </trkpt>
      <trkpt lat="49.28472" lon="0.16043">
        <ele>12.6</ele>
        <time>2023-12-06T14:20:15Z</time>
      </trkpt>
      <trkpt lat="49.28473" lon="0.16045">
        <ele>12.6</ele>
        <time>2023-12-06T14:20:16Z</time>
      </trkpt>
      <trkpt lat="49.28474" lon="0.16048">
        <ele>12.6</ele>
        <time>2023-12-06T14:20:17Z</time>
      </trkpt>
      <trkpt lat="49.28475" lon="0.1605">
        <ele>12.6</ele>
        <time>2023-12-06T14:20:18Z</time>
      </trkpt>
      <trkpt lat="49.28476" lon="0.16051">
        <ele>12.4</ele>
        <time>2023-12-06T14:20:19Z</time>
      </trkpt>
      <trkpt lat="49.28477" lon="0.16053">
        <ele>12.4</ele>
        <time>2023-12-06T14:20:20Z</time>
      </trkpt>
      <trkpt lat="49.28477" lon="0.16055">
        <ele>12.4</ele>
        <time>2023-12-06T14:20:21Z</time>
      </trkpt>
      <trkpt lat="49.28478" lon="0.16057">
        <ele>12.4</ele>
        <time>2023-12-06T14:20:22Z</time>
      </trkpt>
      <trkpt lat="49.28478" lon="0.16057">
        <ele>12.4</ele>
        <time>2023-12-06T14:20:23Z</time>
      </trkpt>
      <trkpt lat="49.28478" lon="0.16057">
        <ele>12.4</ele>
        <time>2023-12-06T14:20:24Z</time>
      </trkpt>
      <trkpt lat="49.28481" lon="0.16062">
        <ele>12.2</ele>
        <time>2023-12-06T14:21:07Z</time>
      </trkpt>
      <trkpt lat="49.28482" lon="0.16064">
        <ele>12.2</ele>
        <time>2023-12-06T14:21:08Z</time>
      </trkpt>
      <trkpt lat="49.28484" lon="0.16067">
        <ele>12.2</ele>
        <time>2023-12-06T14:21:09Z</time>
      </trkpt>
      <trkpt lat="49.28485" lon="0.1607">
        <ele>12.2</ele>
        <time>2023-12-06T14:21:10Z</time>
      </trkpt>
      <trkpt lat="49.28486" lon="0.16074">
        <ele>12.2</ele>
        <time>2023-12-06T14:21:11Z</time>
      </trkpt>
      <trkpt lat="49.28488" lon="0.16078">
        <ele>12.2</ele>
        <time>2023-12-06T14:21:12Z</time>
      </trkpt>
      <trkpt lat="49.2849" lon="0.16082">
        <ele>12.2</ele>
        <time>2023-12-06T14:21:13Z</time>
      </trkpt>
      <trkpt lat="49.28492" lon="0.16087">
        <ele>12</ele>
        <time>2023-12-06T14:21:14Z</time>
      </trkpt>
      <trkpt lat="49.28495" lon="0.16091">
        <ele>12</ele>
        <time>2023-12-06T14:21:15Z</time>
      </trkpt>
      <trkpt lat="49.28497" lon="0.16096">
        <ele>12</ele>
        <time>2023-12-06T14:21:16Z</time>
      </trkpt>
      <trkpt lat="49.285" lon="0.16101">
        <ele>12</ele>
        <time>2023-12-06T14:21:17Z</time>
      </trkpt>
      <trkpt lat="49.28502" lon="0.16107">
        <ele>12</ele>
        <time>2023-12-06T14:21:18Z</time>
      </trkpt>
      <trkpt lat="49.28505" lon="0.16112">
        <ele>12</ele>
        <time>2023-12-06T14:21:19Z</time>
      </trkpt>
      <trkpt lat="49.28508" lon="0.16118">
        <ele>11.8</ele>
        <time>2023-12-06T14:21:20Z</time>
      </trkpt>
      <trkpt lat="49.28511" lon="0.16123">
        <ele>11.8</ele>
        <time>2023-12-06T14:21:21Z</time>
      </trkpt>
      <trkpt lat="49.28514" lon="0.16129">
        <ele>11.8</ele>
        <time>2023-12-06T14:21:22Z</time>
      </trkpt>
      <trkpt lat="49.28517" lon="0.16135">
        <ele>11.6</ele>
        <time>2023-12-06T14:21:23Z</time>
      </trkpt>
      <trkpt lat="49.2852" lon="0.16142">
        <ele>11.6</ele>
        <time>2023-12-06T14:21:24Z</time>
      </trkpt>
      <trkpt lat="49.28522" lon="0.16149">
        <ele>11.4</ele>
        <time>2023-12-06T14:21:25Z</time>
      </trkpt>
      <trkpt lat="49.28525" lon="0.16157">
        <ele>11.4</ele>
        <time>2023-12-06T14:21:26Z</time>
      </trkpt>
      <trkpt lat="49.28528" lon="0.16164">
        <ele>11.2</ele>
        <time>2023-12-06T14:21:27Z</time>
      </trkpt>
      <trkpt lat="49.2853" lon="0.16172">
        <ele>11.2</ele>
        <time>2023-12-06T14:21:28Z</time>
      </trkpt>
      <trkpt lat="49.28532" lon="0.1618">
        <ele>11.2</ele>
        <time>2023-12-06T14:21:29Z</time>
      </trkpt>
      <trkpt lat="49.28534" lon="0.16188">
        <ele>11.2</ele>
        <time>2023-12-06T14:21:30Z</time>
      </trkpt>
      <trkpt lat="49.28536" lon="0.16196">
        <ele>11.2</ele>
        <time>2023-12-06T14:21:31Z</time>
      </trkpt>
      <trkpt lat="49.28537" lon="0.16204">
        <ele>11.2</ele>
        <time>2023-12-06T14:21:32Z</time>
      </trkpt>
      <trkpt lat="49.28539" lon="0.16211">
        <ele>11.2</ele>
        <time>2023-12-06T14:21:33Z</time>
      </trkpt>
      <trkpt lat="49.28541" lon="0.16219">
        <ele>11.2</ele>
        <time>2023-12-06T14:21:34Z</time>
      </trkpt>
      <trkpt lat="49.28542" lon="0.16227">
        <ele>11.2</ele>
        <time>2023-12-06T14:21:35Z</time>
      </trkpt>
      <trkpt lat="49.28544" lon="0.16236">
        <ele>11.2</ele>
        <time>2023-12-06T14:21:36Z</time>
      </trkpt>
      <trkpt lat="49.28546" lon="0.16244">
        <ele>11.2</ele>
        <time>2023-12-06T14:21:37Z</time>
      </trkpt>
      <trkpt lat="49.28548" lon="0.16252">
        <ele>11</ele>
        <time>2023-12-06T14:21:38Z</time>
      </trkpt>
      <trkpt lat="49.2855" lon="0.16261">
        <ele>11</ele>
        <time>2023-12-06T14:21:39Z</time>
      </trkpt>
      <trkpt lat="49.28553" lon="0.16269">
        <ele>11</ele>
        <time>2023-12-06T14:21:40Z</time>
      </trkpt>
      <trkpt lat="49.28555" lon="0.16276">
        <ele>11</ele>
        <time>2023-12-06T14:21:41Z</time>
      </trkpt>
      <trkpt lat="49.28558" lon="0.16284">
        <ele>11</ele>
        <time>2023-12-06T14:21:42Z</time>
      </trkpt>
      <trkpt lat="49.28561" lon="0.16292">
        <ele>11</ele>
        <time>2023-12-06T14:21:43Z</time>
      </trkpt>
      <trkpt lat="49.28564" lon="0.163">
        <ele>11</ele>
        <time>2023-12-06T14:21:44Z</time>
      </trkpt>
      <trkpt lat="49.28567" lon="0.16308">
        <ele>11</ele>
        <time>2023-12-06T14:21:45Z</time>
      </trkpt>
      <trkpt lat="49.28571" lon="0.16316">
        <ele>11</ele>
        <time>2023-12-06T14:21:46Z</time>
      </trkpt>
      <trkpt lat="49.28574" lon="0.16323">
        <ele>11</ele>
        <time>2023-12-06T14:21:47Z</time>
      </trkpt>
      <trkpt lat="49.28578" lon="0.1633">
        <ele>11</ele>
        <time>2023-12-06T14:21:48Z</time>
      </trkpt>
      <trkpt lat="49.28582" lon="0.16337">
        <ele>11</ele>
        <time>2023-12-06T14:21:49Z</time>
      </trkpt>
      <trkpt lat="49.28585" lon="0.16344">
        <ele>11</ele>
        <time>2023-12-06T14:21:50Z</time>
      </trkpt>
      <trkpt lat="49.28589" lon="0.16352">
        <ele>11</ele>
        <time>2023-12-06T14:21:51Z</time>
      </trkpt>
      <trkpt lat="49.28592" lon="0.16361">
        <ele>11</ele>
        <time>2023-12-06T14:21:52Z</time>
      </trkpt>
      <trkpt lat="49.28596" lon="0.1637">
        <ele>10.8</ele>
        <time>2023-12-06T14:21:53Z</time>
      </trkpt>
      <trkpt lat="49.286" lon="0.16378">
        <ele>10.8</ele>
        <time>2023-12-06T14:21:54Z</time>
      </trkpt>
      <trkpt lat="49.28603" lon="0.16388">
        <ele>10.8</ele>
        <time>2023-12-06T14:21:55Z</time>
      </trkpt>
      <trkpt lat="49.28607" lon="0.16397">
        <ele>10.8</ele>
        <time>2023-12-06T14:21:56Z</time>
      </trkpt>
      <trkpt lat="49.2861" lon="0.16406">
        <ele>10.8</ele>
        <time>2023-12-06T14:21:57Z</time>
      </trkpt>
      <trkpt lat="49.28613" lon="0.16416">
        <ele>10.6</ele>
        <time>2023-12-06T14:21:58Z</time>
      </trkpt>
      <trkpt lat="49.28616" lon="0.16427">
        <ele>10.6</ele>
        <time>2023-12-06T14:21:59Z</time>
      </trkpt>
      <trkpt lat="49.28618" lon="0.16437">
        <ele>10.6</ele>
        <time>2023-12-06T14:22:00Z</time>
      </trkpt>
      <trkpt lat="49.2862" lon="0.16448">
        <ele>10.4</ele>
        <time>2023-12-06T14:22:01Z</time>
      </trkpt>
      <trkpt lat="49.28622" lon="0.16459">
        <ele>10.4</ele>
        <time>2023-12-06T14:22:02Z</time>
      </trkpt>
      <trkpt lat="49.28623" lon="0.1647">
        <ele>10.4</ele>
        <time>2023-12-06T14:22:03Z</time>
      </trkpt>
      <trkpt lat="49.28624" lon="0.1648">
        <ele>10.2</ele>
        <time>2023-12-06T14:22:04Z</time>
      </trkpt>
      <trkpt lat="49.28625" lon="0.16491">
        <ele>10.2</ele>
        <time>2023-12-06T14:22:05Z</time>
      </trkpt>
      <trkpt lat="49.28626" lon="0.16503">
        <ele>10.2</ele>
        <time>2023-12-06T14:22:06Z</time>
      </trkpt>
      <trkpt lat="49.28628" lon="0.16513">
        <ele>10.2</ele>
        <time>2023-12-06T14:22:07Z</time>
      </trkpt>
      <trkpt lat="49.28629" lon="0.16524">
        <ele>10</ele>
        <time>2023-12-06T14:22:08Z</time>
      </trkpt>
      <trkpt lat="49.28629" lon="0.16535">
        <ele>10</ele>
        <time>2023-12-06T14:22:09Z</time>
      </trkpt>
      <trkpt lat="49.2863" lon="0.16546">
        <ele>10</ele>
        <time>2023-12-06T14:22:10Z</time>
      </trkpt>
      <trkpt lat="49.2863" lon="0.16557">
        <ele>9.8</ele>
        <time>2023-12-06T14:22:11Z</time>
      </trkpt>
      <trkpt lat="49.28629" lon="0.16568">
        <ele>9.8</ele>
        <time>2023-12-06T14:22:12Z</time>
      </trkpt>
      <trkpt lat="49.28628" lon="0.16579">
        <ele>9.6</ele>
        <time>2023-12-06T14:22:13Z</time>
      </trkpt>
      <trkpt lat="49.28626" lon="0.1659">
        <ele>9.6</ele>
        <time>2023-12-06T14:22:14Z</time>
      </trkpt>
      <trkpt lat="49.28625" lon="0.166">
        <ele>9.6</ele>
        <time>2023-12-06T14:22:15Z</time>
      </trkpt>
      <trkpt lat="49.28623" lon="0.16611">
        <ele>9.6</ele>
        <time>2023-12-06T14:22:16Z</time>
      </trkpt>
      <trkpt lat="49.28621" lon="0.16621">
        <ele>9.6</ele>
        <time>2023-12-06T14:22:17Z</time>
      </trkpt>
      <trkpt lat="49.28619" lon="0.16631">
        <ele>9.6</ele>
        <time>2023-12-06T14:22:18Z</time>
      </trkpt>
      <trkpt lat="49.28617" lon="0.16642">
        <ele>9.6</ele>
        <time>2023-12-06T14:22:19Z</time>
      </trkpt>
      <trkpt lat="49.28615" lon="0.16652">
        <ele>9.6</ele>
        <time>2023-12-06T14:22:20Z</time>
      </trkpt>
      <trkpt lat="49.28612" lon="0.16663">
        <ele>9.6</ele>
        <time>2023-12-06T14:22:21Z</time>
      </trkpt>
      <trkpt lat="49.2861" lon="0.16673">
        <ele>9.6</ele>
        <time>2023-12-06T14:22:22Z</time>
      </trkpt>
      <trkpt lat="49.28608" lon="0.16683">
        <ele>9.8</ele>
        <time>2023-12-06T14:22:23Z</time>
      </trkpt>
      <trkpt lat="49.28605" lon="0.16693">
        <ele>9.8</ele>
        <time>2023-12-06T14:22:24Z</time>
      </trkpt>
      <trkpt lat="49.28603" lon="0.16704">
        <ele>9.8</ele>
        <time>2023-12-06T14:22:25Z</time>
      </trkpt>
      <trkpt lat="49.28601" lon="0.16715">
        <ele>9.8</ele>
        <time>2023-12-06T14:22:26Z</time>
      </trkpt>
      <trkpt lat="49.28598" lon="0.16726">
        <ele>9.8</ele>
        <time>2023-12-06T14:22:27Z</time>
      </trkpt>
      <trkpt lat="49.28596" lon="0.16736">
        <ele>9.8</ele>
        <time>2023-12-06T14:22:28Z</time>
      </trkpt>
      <trkpt lat="49.28594" lon="0.16747">
        <ele>9.8</ele>
        <time>2023-12-06T14:22:29Z</time>
      </trkpt>
      <trkpt lat="49.28592" lon="0.16757">
        <ele>9.8</ele>
        <time>2023-12-06T14:22:30Z</time>
      </trkpt>
      <trkpt lat="49.2859" lon="0.16768">
        <ele>9.8</ele>
        <time>2023-12-06T14:22:31Z</time>
      </trkpt>
      <trkpt lat="49.28587" lon="0.16778">
        <ele>10</ele>
        <time>2023-12-06T14:22:32Z</time>
      </trkpt>
      <trkpt lat="49.28585" lon="0.16788">
        <ele>10</ele>
        <time>2023-12-06T14:22:33Z</time>
      </trkpt>
      <trkpt lat="49.28583" lon="0.16799">
        <ele>10</ele>
        <time>2023-12-06T14:22:34Z</time>
      </trkpt>
      <trkpt lat="49.28581" lon="0.16809">
        <ele>10</ele>
        <time>2023-12-06T14:22:35Z</time>
      </trkpt>
      <trkpt lat="49.28579" lon="0.16819">
        <ele>10</ele>
        <time>2023-12-06T14:22:36Z</time>
      </trkpt>
      <trkpt lat="49.28576" lon="0.16829">
        <ele>10</ele>
        <time>2023-12-06T14:22:37Z</time>
      </trkpt>
      <trkpt lat="49.28574" lon="0.16839">
        <ele>10</ele>
        <time>2023-12-06T14:22:38Z</time>
      </trkpt>
      <trkpt lat="49.28572" lon="0.16849">
        <ele>10</ele>
        <time>2023-12-06T14:22:39Z</time>
      </trkpt>
      <trkpt lat="49.2857" lon="0.16859">
        <ele>10.2</ele>
        <time>2023-12-06T14:22:40Z</time>
      </trkpt>
      <trkpt lat="49.28568" lon="0.16869">
        <ele>10.2</ele>
        <time>2023-12-06T14:22:41Z</time>
      </trkpt>
      <trkpt lat="49.28565" lon="0.16879">
        <ele>10.4</ele>
        <time>2023-12-06T14:22:42Z</time>
      </trkpt>
      <trkpt lat="49.28563" lon="0.16889">
        <ele>10.4</ele>
        <time>2023-12-06T14:22:43Z</time>
      </trkpt>
      <trkpt lat="49.28561" lon="0.16899">
        <ele>10.4</ele>
        <time>2023-12-06T14:22:44Z</time>
      </trkpt>
      <trkpt lat="49.28559" lon="0.16909">
        <ele>10.4</ele>
        <time>2023-12-06T14:22:45Z</time>
      </trkpt>
      <trkpt lat="49.28557" lon="0.16919">
        <ele>10.4</ele>
        <time>2023-12-06T14:22:46Z</time>
      </trkpt>
      <trkpt lat="49.28555" lon="0.1693">
        <ele>10.4</ele>
        <time>2023-12-06T14:22:47Z</time>
      </trkpt>
      <trkpt lat="49.28553" lon="0.1694">
        <ele>10.6</ele>
        <time>2023-12-06T14:22:48Z</time>
      </trkpt>
      <trkpt lat="49.2855" lon="0.1695">
        <ele>10.6</ele>
        <time>2023-12-06T14:22:49Z</time>
      </trkpt>
      <trkpt lat="49.28548" lon="0.1696">
        <ele>10.6</ele>
        <time>2023-12-06T14:22:50Z</time>
      </trkpt>
      <trkpt lat="49.28546" lon="0.16971">
        <ele>10.6</ele>
        <time>2023-12-06T14:22:51Z</time>
      </trkpt>
      <trkpt lat="49.28544" lon="0.16981">
        <ele>10.6</ele>
        <time>2023-12-06T14:22:52Z</time>
      </trkpt>
      <trkpt lat="49.28542" lon="0.1699">
        <ele>10.6</ele>
        <time>2023-12-06T14:22:53Z</time>
      </trkpt>
      <trkpt lat="49.2854" lon="0.17">
        <ele>10.6</ele>
        <time>2023-12-06T14:22:54Z</time>
      </trkpt>
      <trkpt lat="49.28537" lon="0.1701">
        <ele>10.6</ele>
        <time>2023-12-06T14:22:55Z</time>
      </trkpt>
      <trkpt lat="49.28535" lon="0.17019">
        <ele>10.4</ele>
        <time>2023-12-06T14:22:56Z</time>
      </trkpt>
      <trkpt lat="49.28533" lon="0.17029">
        <ele>10.2</ele>
        <time>2023-12-06T14:22:57Z</time>
      </trkpt>
      <trkpt lat="49.28531" lon="0.17038">
        <ele>10.4</ele>
        <time>2023-12-06T14:22:58Z</time>
      </trkpt>
      <trkpt lat="49.28529" lon="0.17047">
        <ele>10.4</ele>
        <time>2023-12-06T14:22:59Z</time>
      </trkpt>
      <trkpt lat="49.28526" lon="0.17056">
        <ele>10.6</ele>
        <time>2023-12-06T14:23:00Z</time>
      </trkpt>
      <trkpt lat="49.28524" lon="0.17065">
        <ele>10.6</ele>
        <time>2023-12-06T14:23:01Z</time>
      </trkpt>
      <trkpt lat="49.28521" lon="0.17075">
        <ele>10.6</ele>
        <time>2023-12-06T14:23:02Z</time>
      </trkpt>
      <trkpt lat="49.28517" lon="0.17084">
        <ele>10.6</ele>
        <time>2023-12-06T14:23:03Z</time>
      </trkpt>
      <trkpt lat="49.28514" lon="0.17093">
        <ele>10.6</ele>
        <time>2023-12-06T14:23:04Z</time>
      </trkpt>
      <trkpt lat="49.28511" lon="0.17102">
        <ele>10.6</ele>
        <time>2023-12-06T14:23:05Z</time>
      </trkpt>
      <trkpt lat="49.28508" lon="0.17111">
        <ele>10.6</ele>
        <time>2023-12-06T14:23:06Z</time>
      </trkpt>
      <trkpt lat="49.28504" lon="0.1712">
        <ele>10.6</ele>
        <time>2023-12-06T14:23:07Z</time>
      </trkpt>
      <trkpt lat="49.28501" lon="0.17129">
        <ele>10.6</ele>
        <time>2023-12-06T14:23:08Z</time>
      </trkpt>
      <trkpt lat="49.28498" lon="0.17138">
        <ele>10.6</ele>
        <time>2023-12-06T14:23:09Z</time>
      </trkpt>
      <trkpt lat="49.28495" lon="0.17148">
        <ele>10.6</ele>
        <time>2023-12-06T14:23:10Z</time>
      </trkpt>
      <trkpt lat="49.28492" lon="0.17158">
        <ele>10.6</ele>
        <time>2023-12-06T14:23:11Z</time>
      </trkpt>
      <trkpt lat="49.28489" lon="0.17167">
        <ele>10.6</ele>
        <time>2023-12-06T14:23:12Z</time>
      </trkpt>
      <trkpt lat="49.28486" lon="0.17176">
        <ele>10.6</ele>
        <time>2023-12-06T14:23:13Z</time>
      </trkpt>
      <trkpt lat="49.28483" lon="0.17185">
        <ele>10.6</ele>
        <time>2023-12-06T14:23:14Z</time>
      </trkpt>
      <trkpt lat="49.2848" lon="0.17194">
        <ele>10.6</ele>
        <time>2023-12-06T14:23:15Z</time>
      </trkpt>
      <trkpt lat="49.28477" lon="0.17203">
        <ele>10.6</ele>
        <time>2023-12-06T14:23:16Z</time>
      </trkpt>
      <trkpt lat="49.28474" lon="0.17211">
        <ele>10.8</ele>
        <time>2023-12-06T14:23:17Z</time>
      </trkpt>
      <trkpt lat="49.2847" lon="0.1722">
        <ele>10.8</ele>
        <time>2023-12-06T14:23:18Z</time>
      </trkpt>
      <trkpt lat="49.28467" lon="0.17229">
        <ele>10.8</ele>
        <time>2023-12-06T14:23:19Z</time>
      </trkpt>
      <trkpt lat="49.28464" lon="0.17238">
        <ele>10.8</ele>
        <time>2023-12-06T14:23:20Z</time>
      </trkpt>
      <trkpt lat="49.28461" lon="0.17247">
        <ele>10.8</ele>
        <time>2023-12-06T14:23:21Z</time>
      </trkpt>
      <trkpt lat="49.28459" lon="0.17257">
        <ele>11</ele>
        <time>2023-12-06T14:23:22Z</time>
      </trkpt>
      <trkpt lat="49.28457" lon="0.17266">
        <ele>11</ele>
        <time>2023-12-06T14:23:23Z</time>
      </trkpt>
      <trkpt lat="49.28455" lon="0.17276">
        <ele>11</ele>
        <time>2023-12-06T14:23:24Z</time>
      </trkpt>
      <trkpt lat="49.28454" lon="0.17287">
        <ele>11.2</ele>
        <time>2023-12-06T14:23:25Z</time>
      </trkpt>
      <trkpt lat="49.28454" lon="0.17297">
        <ele>11.2</ele>
        <time>2023-12-06T14:23:26Z</time>
      </trkpt>
      <trkpt lat="49.28454" lon="0.17308">
        <ele>11.2</ele>
        <time>2023-12-06T14:23:27Z</time>
      </trkpt>
      <trkpt lat="49.28455" lon="0.17319">
        <ele>11.4</ele>
        <time>2023-12-06T14:23:28Z</time>
      </trkpt>
      <trkpt lat="49.28456" lon="0.17329">
        <ele>11.4</ele>
        <time>2023-12-06T14:23:29Z</time>
      </trkpt>
      <trkpt lat="49.28458" lon="0.1734">
        <ele>11.6</ele>
        <time>2023-12-06T14:23:30Z</time>
      </trkpt>
      <trkpt lat="49.28459" lon="0.1735">
        <ele>11.6</ele>
        <time>2023-12-06T14:23:31Z</time>
      </trkpt>
      <trkpt lat="49.2846" lon="0.17361">
        <ele>11.6</ele>
        <time>2023-12-06T14:23:32Z</time>
      </trkpt>
      <trkpt lat="49.2846" lon="0.17371">
        <ele>11.6</ele>
        <time>2023-12-06T14:23:33Z</time>
      </trkpt>
      <trkpt lat="49.28461" lon="0.17382">
        <ele>11.6</ele>
        <time>2023-12-06T14:23:34Z</time>
      </trkpt>
      <trkpt lat="49.28461" lon="0.17393">
        <ele>11.6</ele>
        <time>2023-12-06T14:23:35Z</time>
      </trkpt>
      <trkpt lat="49.28462" lon="0.17404">
        <ele>11.6</ele>
        <time>2023-12-06T14:23:36Z</time>
      </trkpt>
      <trkpt lat="49.28462" lon="0.17415">
        <ele>11.6</ele>
        <time>2023-12-06T14:23:37Z</time>
      </trkpt>
      <trkpt lat="49.28463" lon="0.17426">
        <ele>11.6</ele>
        <time>2023-12-06T14:23:38Z</time>
      </trkpt>
      <trkpt lat="49.28464" lon="0.17437">
        <ele>11.6</ele>
        <time>2023-12-06T14:23:39Z</time>
      </trkpt>
      <trkpt lat="49.28465" lon="0.17448">
        <ele>11.6</ele>
        <time>2023-12-06T14:23:40Z</time>
      </trkpt>
      <trkpt lat="49.28465" lon="0.17459">
        <ele>11.6</ele>
        <time>2023-12-06T14:23:41Z</time>
      </trkpt>
      <trkpt lat="49.28466" lon="0.1747">
        <ele>11.6</ele>
        <time>2023-12-06T14:23:42Z</time>
      </trkpt>
      <trkpt lat="49.28467" lon="0.17481">
        <ele>11.6</ele>
        <time>2023-12-06T14:23:43Z</time>
      </trkpt>
      <trkpt lat="49.28467" lon="0.17492">
        <ele>11.8</ele>
        <time>2023-12-06T14:23:44Z</time>
      </trkpt>
      <trkpt lat="49.28468" lon="0.17503">
        <ele>11.8</ele>
        <time>2023-12-06T14:23:45Z</time>
      </trkpt>
      <trkpt lat="49.28469" lon="0.17514">
        <ele>11.8</ele>
        <time>2023-12-06T14:23:46Z</time>
      </trkpt>
      <trkpt lat="49.28469" lon="0.17525">
        <ele>11.8</ele>
        <time>2023-12-06T14:23:47Z</time>
      </trkpt>
      <trkpt lat="49.2847" lon="0.17536">
        <ele>11.8</ele>
        <time>2023-12-06T14:23:48Z</time>
      </trkpt>
      <trkpt lat="49.28471" lon="0.17547">
        <ele>11.8</ele>
        <time>2023-12-06T14:23:49Z</time>
      </trkpt>
      <trkpt lat="49.28471" lon="0.17557">
        <ele>11.8</ele>
        <time>2023-12-06T14:23:50Z</time>
      </trkpt>
      <trkpt lat="49.28471" lon="0.17568">
        <ele>11.8</ele>
        <time>2023-12-06T14:23:51Z</time>
      </trkpt>
      <trkpt lat="49.28471" lon="0.1758">
        <ele>11.8</ele>
        <time>2023-12-06T14:23:52Z</time>
      </trkpt>
      <trkpt lat="49.2847" lon="0.17591">
        <ele>11.8</ele>
        <time>2023-12-06T14:23:53Z</time>
      </trkpt>
      <trkpt lat="49.28468" lon="0.17602">
        <ele>11.8</ele>
        <time>2023-12-06T14:23:54Z</time>
      </trkpt>
      <trkpt lat="49.28466" lon="0.17613">
        <ele>11.8</ele>
        <time>2023-12-06T14:23:55Z</time>
      </trkpt>
      <trkpt lat="49.28464" lon="0.17623">
        <ele>11.8</ele>
        <time>2023-12-06T14:23:56Z</time>
      </trkpt>
      <trkpt lat="49.28461" lon="0.17633">
        <ele>11.8</ele>
        <time>2023-12-06T14:23:57Z</time>
      </trkpt>
      <trkpt lat="49.28459" lon="0.17644">
        <ele>11.8</ele>
        <time>2023-12-06T14:23:58Z</time>
      </trkpt>
      <trkpt lat="49.28456" lon="0.17654">
        <ele>11.8</ele>
        <time>2023-12-06T14:23:59Z</time>
      </trkpt>
      <trkpt lat="49.28454" lon="0.17664">
        <ele>11.8</ele>
        <time>2023-12-06T14:24:00Z</time>
      </trkpt>
      <trkpt lat="49.28452" lon="0.17674">
        <ele>12</ele>
        <time>2023-12-06T14:24:01Z</time>
      </trkpt>
      <trkpt lat="49.28449" lon="0.17683">
        <ele>12</ele>
        <time>2023-12-06T14:24:02Z</time>
      </trkpt>
      <trkpt lat="49.28447" lon="0.17693">
        <ele>12</ele>
        <time>2023-12-06T14:24:03Z</time>
      </trkpt>
      <trkpt lat="49.28445" lon="0.17703">
        <ele>12</ele>
        <time>2023-12-06T14:24:04Z</time>
      </trkpt>
      <trkpt lat="49.28443" lon="0.17712">
        <ele>12</ele>
        <time>2023-12-06T14:24:05Z</time>
      </trkpt>
      <trkpt lat="49.2844" lon="0.17722">
        <ele>12</ele>
        <time>2023-12-06T14:24:06Z</time>
      </trkpt>
      <trkpt lat="49.28438" lon="0.17732">
        <ele>12</ele>
        <time>2023-12-06T14:24:07Z</time>
      </trkpt>
      <trkpt lat="49.28436" lon="0.17741">
        <ele>12</ele>
        <time>2023-12-06T14:24:08Z</time>
      </trkpt>
      <trkpt lat="49.28434" lon="0.1775">
        <ele>12</ele>
        <time>2023-12-06T14:24:09Z</time>
      </trkpt>
      <trkpt lat="49.28432" lon="0.17759">
        <ele>12</ele>
        <time>2023-12-06T14:24:10Z</time>
      </trkpt>
      <trkpt lat="49.2843" lon="0.17768">
        <ele>12.2</ele>
        <time>2023-12-06T14:24:11Z</time>
      </trkpt>
      <trkpt lat="49.28428" lon="0.17778">
        <ele>12.2</ele>
        <time>2023-12-06T14:24:12Z</time>
      </trkpt>
      <trkpt lat="49.28426" lon="0.17787">
        <ele>12.2</ele>
        <time>2023-12-06T14:24:13Z</time>
      </trkpt>
      <trkpt lat="49.28423" lon="0.17796">
        <ele>12.2</ele>
        <time>2023-12-06T14:24:14Z</time>
      </trkpt>
      <trkpt lat="49.2842" lon="0.17805">
        <ele>12.4</ele>
        <time>2023-12-06T14:24:15Z</time>
      </trkpt>
      <trkpt lat="49.28417" lon="0.17814">
        <ele>12.4</ele>
        <time>2023-12-06T14:24:16Z</time>
      </trkpt>
      <trkpt lat="49.28414" lon="0.17822">
        <ele>12.4</ele>
        <time>2023-12-06T14:24:17Z</time>
      </trkpt>
      <trkpt lat="49.2841" lon="0.1783">
        <ele>12.6</ele>
        <time>2023-12-06T14:24:18Z</time>
      </trkpt>
      <trkpt lat="49.28407" lon="0.17839">
        <ele>12.6</ele>
        <time>2023-12-06T14:24:19Z</time>
      </trkpt>
      <trkpt lat="49.28404" lon="0.17848">
        <ele>12.6</ele>
        <time>2023-12-06T14:24:20Z</time>
      </trkpt>
      <trkpt lat="49.284" lon="0.17856">
        <ele>12.8</ele>
        <time>2023-12-06T14:24:21Z</time>
      </trkpt>
      <trkpt lat="49.28397" lon="0.17864">
        <ele>12.8</ele>
        <time>2023-12-06T14:24:22Z</time>
      </trkpt>
      <trkpt lat="49.28393" lon="0.17872">
        <ele>12.8</ele>
        <time>2023-12-06T14:24:23Z</time>
      </trkpt>
      <trkpt lat="49.2839" lon="0.17879">
        <ele>12.8</ele>
        <time>2023-12-06T14:24:24Z</time>
      </trkpt>
      <trkpt lat="49.28387" lon="0.17887">
        <ele>12.8</ele>
        <time>2023-12-06T14:24:25Z</time>
      </trkpt>
      <trkpt lat="49.28383" lon="0.17894">
        <ele>12.8</ele>
        <time>2023-12-06T14:24:26Z</time>
      </trkpt>
      <trkpt lat="49.2838" lon="0.17901">
        <ele>12.8</ele>
        <time>2023-12-06T14:24:27Z</time>
      </trkpt>
      <trkpt lat="49.28377" lon="0.17908">
        <ele>12.8</ele>
        <time>2023-12-06T14:24:28Z</time>
      </trkpt>
      <trkpt lat="49.28374" lon="0.17915">
        <ele>12.8</ele>
        <time>2023-12-06T14:24:29Z</time>
      </trkpt>
      <trkpt lat="49.28371" lon="0.17923">
        <ele>12.6</ele>
        <time>2023-12-06T14:24:30Z</time>
      </trkpt>
      <trkpt lat="49.28368" lon="0.1793">
        <ele>12.6</ele>
        <time>2023-12-06T14:24:31Z</time>
      </trkpt>
      <trkpt lat="49.28366" lon="0.17937">
        <ele>12.6</ele>
        <time>2023-12-06T14:24:32Z</time>
      </trkpt>
      <trkpt lat="49.28363" lon="0.17944">
        <ele>12.6</ele>
        <time>2023-12-06T14:24:33Z</time>
      </trkpt>
      <trkpt lat="49.28361" lon="0.1795">
        <ele>12.8</ele>
        <time>2023-12-06T14:24:34Z</time>
      </trkpt>
      <trkpt lat="49.28359" lon="0.17956">
        <ele>12.8</ele>
        <time>2023-12-06T14:24:35Z</time>
      </trkpt>
      <trkpt lat="49.28356" lon="0.17963">
        <ele>12.8</ele>
        <time>2023-12-06T14:24:36Z</time>
      </trkpt>
      <trkpt lat="49.28353" lon="0.17969">
        <ele>12.8</ele>
        <time>2023-12-06T14:24:37Z</time>
      </trkpt>
      <trkpt lat="49.28351" lon="0.17975">
        <ele>12.8</ele>
        <time>2023-12-06T14:24:38Z</time>
      </trkpt>
      <trkpt lat="49.28349" lon="0.1798">
        <ele>12.8</ele>
        <time>2023-12-06T14:24:39Z</time>
      </trkpt>
      <trkpt lat="49.28346" lon="0.17986">
        <ele>12.8</ele>
        <time>2023-12-06T14:24:40Z</time>
      </trkpt>
      <trkpt lat="49.28344" lon="0.17991">
        <ele>13</ele>
        <time>2023-12-06T14:24:41Z</time>
      </trkpt>
      <trkpt lat="49.28342" lon="0.17995">
        <ele>13.2</ele>
        <time>2023-12-06T14:24:42Z</time>
      </trkpt>
      <trkpt lat="49.2834" lon="0.18001">
        <ele>13.2</ele>
        <time>2023-12-06T14:24:43Z</time>
      </trkpt>
      <trkpt lat="49.28338" lon="0.18005">
        <ele>13.4</ele>
        <time>2023-12-06T14:24:44Z</time>
      </trkpt>
      <trkpt lat="49.28336" lon="0.18009">
        <ele>13.4</ele>
        <time>2023-12-06T14:24:45Z</time>
      </trkpt>
      <trkpt lat="49.28335" lon="0.18014">
        <ele>13.6</ele>
        <time>2023-12-06T14:24:46Z</time>
      </trkpt>
      <trkpt lat="49.28333" lon="0.18018">
        <ele>13.6</ele>
        <time>2023-12-06T14:24:47Z</time>
      </trkpt>
      <trkpt lat="49.28332" lon="0.18023">
        <ele>13.8</ele>
        <time>2023-12-06T14:24:48Z</time>
      </trkpt>
      <trkpt lat="49.2833" lon="0.18027">
        <ele>14</ele>
        <time>2023-12-06T14:24:49Z</time>
      </trkpt>
      <trkpt lat="49.28328" lon="0.18031">
        <ele>14.2</ele>
        <time>2023-12-06T14:24:50Z</time>
      </trkpt>
      <trkpt lat="49.28326" lon="0.18035">
        <ele>14.4</ele>
        <time>2023-12-06T14:24:51Z</time>
      </trkpt>
      <trkpt lat="49.28324" lon="0.18039">
        <ele>14.4</ele>
        <time>2023-12-06T14:24:52Z</time>
      </trkpt>
      <trkpt lat="49.28323" lon="0.18043">
        <ele>14.6</ele>
        <time>2023-12-06T14:24:53Z</time>
      </trkpt>
      <trkpt lat="49.28321" lon="0.18048">
        <ele>14.8</ele>
        <time>2023-12-06T14:24:54Z</time>
      </trkpt>
      <trkpt lat="49.28319" lon="0.18052">
        <ele>14.8</ele>
        <time>2023-12-06T14:24:55Z</time>
      </trkpt>
      <trkpt lat="49.28317" lon="0.18056">
        <ele>15</ele>
        <time>2023-12-06T14:24:56Z</time>
      </trkpt>
      <trkpt lat="49.28314" lon="0.1806">
        <ele>15</ele>
        <time>2023-12-06T14:24:57Z</time>
      </trkpt>
      <trkpt lat="49.28312" lon="0.18065">
        <ele>15.2</ele>
        <time>2023-12-06T14:24:58Z</time>
      </trkpt>
      <trkpt lat="49.28308" lon="0.18069">
        <ele>15.2</ele>
        <time>2023-12-06T14:24:59Z</time>
      </trkpt>
      <trkpt lat="49.28305" lon="0.18075">
        <ele>15.4</ele>
        <time>2023-12-06T14:25:00Z</time>
      </trkpt>
      <trkpt lat="49.28303" lon="0.18079">
        <ele>15.4</ele>
        <time>2023-12-06T14:25:01Z</time>
      </trkpt>
      <trkpt lat="49.28301" lon="0.18084">
        <ele>15.4</ele>
        <time>2023-12-06T14:25:02Z</time>
      </trkpt>
      <trkpt lat="49.28299" lon="0.18089">
        <ele>15.4</ele>
        <time>2023-12-06T14:25:03Z</time>
      </trkpt>
      <trkpt lat="49.28297" lon="0.18093">
        <ele>15.6</ele>
        <time>2023-12-06T14:25:04Z</time>
      </trkpt>
      <trkpt lat="49.28295" lon="0.18098">
        <ele>15.6</ele>
        <time>2023-12-06T14:25:05Z</time>
      </trkpt>
      <trkpt lat="49.28294" lon="0.18103">
        <ele>15.6</ele>
        <time>2023-12-06T14:25:06Z</time>
      </trkpt>
      <trkpt lat="49.28293" lon="0.18108">
        <ele>15.6</ele>
        <time>2023-12-06T14:25:07Z</time>
      </trkpt>
      <trkpt lat="49.28291" lon="0.18114">
        <ele>15.6</ele>
        <time>2023-12-06T14:25:08Z</time>
      </trkpt>
      <trkpt lat="49.2829" lon="0.18119">
        <ele>15.6</ele>
        <time>2023-12-06T14:25:09Z</time>
      </trkpt>
      <trkpt lat="49.28288" lon="0.18124">
        <ele>15.6</ele>
        <time>2023-12-06T14:25:10Z</time>
      </trkpt>
      <trkpt lat="49.28287" lon="0.18129">
        <ele>15.6</ele>
        <time>2023-12-06T14:25:11Z</time>
      </trkpt>
      <trkpt lat="49.28286" lon="0.18134">
        <ele>15.6</ele>
        <time>2023-12-06T14:25:12Z</time>
      </trkpt>
      <trkpt lat="49.28285" lon="0.18139">
        <ele>15.6</ele>
        <time>2023-12-06T14:25:13Z</time>
      </trkpt>
      <trkpt lat="49.28283" lon="0.18145">
        <ele>15.6</ele>
        <time>2023-12-06T14:25:14Z</time>
      </trkpt>
      <trkpt lat="49.28282" lon="0.1815">
        <ele>15.6</ele>
        <time>2023-12-06T14:25:15Z</time>
      </trkpt>
      <trkpt lat="49.2828" lon="0.18155">
        <ele>15.6</ele>
        <time>2023-12-06T14:25:16Z</time>
      </trkpt>
      <trkpt lat="49.28279" lon="0.1816">
        <ele>15.6</ele>
        <time>2023-12-06T14:25:17Z</time>
      </trkpt>
      <trkpt lat="49.28277" lon="0.18165">
        <ele>15.6</ele>
        <time>2023-12-06T14:25:18Z</time>
      </trkpt>
      <trkpt lat="49.28276" lon="0.18171">
        <ele>15.6</ele>
        <time>2023-12-06T14:25:19Z</time>
      </trkpt>
      <trkpt lat="49.28274" lon="0.18176">
        <ele>15.6</ele>
        <time>2023-12-06T14:25:20Z</time>
      </trkpt>
      <trkpt lat="49.28272" lon="0.18181">
        <ele>15.6</ele>
        <time>2023-12-06T14:25:21Z</time>
      </trkpt>
      <trkpt lat="49.2827" lon="0.18187">
        <ele>15.6</ele>
        <time>2023-12-06T14:25:22Z</time>
      </trkpt>
      <trkpt lat="49.28267" lon="0.18192">
        <ele>15.6</ele>
        <time>2023-12-06T14:25:23Z</time>
      </trkpt>
      <trkpt lat="49.28265" lon="0.18197">
        <ele>15.6</ele>
        <time>2023-12-06T14:25:24Z</time>
      </trkpt>
      <trkpt lat="49.28263" lon="0.18203">
        <ele>15.6</ele>
        <time>2023-12-06T14:25:25Z</time>
      </trkpt>
      <trkpt lat="49.28262" lon="0.18208">
        <ele>15.6</ele>
        <time>2023-12-06T14:25:26Z</time>
      </trkpt>
      <trkpt lat="49.2826" lon="0.18213">
        <ele>15.6</ele>
        <time>2023-12-06T14:25:27Z</time>
      </trkpt>
      <trkpt lat="49.28258" lon="0.18218">
        <ele>15.6</ele>
        <time>2023-12-06T14:25:28Z</time>
      </trkpt>
      <trkpt lat="49.28256" lon="0.18223">
        <ele>15.6</ele>
        <time>2023-12-06T14:25:29Z</time>
      </trkpt>
      <trkpt lat="49.28254" lon="0.18229">
        <ele>15.8</ele>
        <time>2023-12-06T14:25:30Z</time>
      </trkpt>
      <trkpt lat="49.28252" lon="0.18235">
        <ele>15.8</ele>
        <time>2023-12-06T14:25:31Z</time>
      </trkpt>
      <trkpt lat="49.2825" lon="0.18241">
        <ele>15.8</ele>
        <time>2023-12-06T14:25:32Z</time>
      </trkpt>
      <trkpt lat="49.28249" lon="0.18248">
        <ele>15.8</ele>
        <time>2023-12-06T14:25:33Z</time>
      </trkpt>
      <trkpt lat="49.28249" lon="0.18255">
        <ele>15.8</ele>
        <time>2023-12-06T14:25:34Z</time>
      </trkpt>
      <trkpt lat="49.2825" lon="0.18262">
        <ele>15.8</ele>
        <time>2023-12-06T14:25:35Z</time>
      </trkpt>
      <trkpt lat="49.28253" lon="0.18267">
        <ele>15.8</ele>
        <time>2023-12-06T14:25:36Z</time>
      </trkpt>
      <trkpt lat="49.28255" lon="0.18272">
        <ele>15.8</ele>
        <time>2023-12-06T14:25:37Z</time>
      </trkpt>
      <trkpt lat="49.28257" lon="0.18277">
        <ele>16</ele>
        <time>2023-12-06T14:25:38Z</time>
      </trkpt>
      <trkpt lat="49.2826" lon="0.18281">
        <ele>16</ele>
        <time>2023-12-06T14:25:39Z</time>
      </trkpt>
      <trkpt lat="49.28262" lon="0.18286">
        <ele>16</ele>
        <time>2023-12-06T14:25:40Z</time>
      </trkpt>
      <trkpt lat="49.28265" lon="0.1829">
        <ele>16</ele>
        <time>2023-12-06T14:25:41Z</time>
      </trkpt>
      <trkpt lat="49.28267" lon="0.18295">
        <ele>16</ele>
        <time>2023-12-06T14:25:42Z</time>
      </trkpt>
      <trkpt lat="49.28269" lon="0.183">
        <ele>16</ele>
        <time>2023-12-06T14:25:43Z</time>
      </trkpt>
      <trkpt lat="49.2827" lon="0.18306">
        <ele>16</ele>
        <time>2023-12-06T14:25:44Z</time>
      </trkpt>
      <trkpt lat="49.2827" lon="0.18312">
        <ele>16.2</ele>
        <time>2023-12-06T14:25:45Z</time>
      </trkpt>
      <trkpt lat="49.28267" lon="0.18318">
        <ele>16.6</ele>
        <time>2023-12-06T14:25:46Z</time>
      </trkpt>
      <trkpt lat="49.28264" lon="0.18324">
        <ele>16.8</ele>
        <time>2023-12-06T14:25:47Z</time>
      </trkpt>
      <trkpt lat="49.28261" lon="0.18329">
        <ele>17</ele>
        <time>2023-12-06T14:25:48Z</time>
      </trkpt>
      <trkpt lat="49.28258" lon="0.18334">
        <ele>17</ele>
        <time>2023-12-06T14:25:49Z</time>
      </trkpt>
      <trkpt lat="49.28254" lon="0.18339">
        <ele>17.2</ele>
        <time>2023-12-06T14:25:50Z</time>
      </trkpt>
      <trkpt lat="49.2825" lon="0.18344">
        <ele>17.2</ele>
        <time>2023-12-06T14:25:51Z</time>
      </trkpt>
      <trkpt lat="49.28247" lon="0.18349">
        <ele>17.2</ele>
        <time>2023-12-06T14:25:52Z</time>
      </trkpt>
      <trkpt lat="49.28243" lon="0.18354">
        <ele>17.4</ele>
        <time>2023-12-06T14:25:53Z</time>
      </trkpt>
      <trkpt lat="49.2824" lon="0.1836">
        <ele>17.4</ele>
        <time>2023-12-06T14:25:54Z</time>
      </trkpt>
      <trkpt lat="49.28236" lon="0.18365">
        <ele>17.6</ele>
        <time>2023-12-06T14:25:55Z</time>
      </trkpt>
      <trkpt lat="49.28233" lon="0.1837">
        <ele>17.6</ele>
        <time>2023-12-06T14:25:56Z</time>
      </trkpt>
      <trkpt lat="49.28229" lon="0.18375">
        <ele>17.6</ele>
        <time>2023-12-06T14:25:57Z</time>
      </trkpt>
      <trkpt lat="49.28226" lon="0.1838">
        <ele>17.8</ele>
        <time>2023-12-06T14:25:58Z</time>
      </trkpt>
      <trkpt lat="49.28223" lon="0.18385">
        <ele>17.8</ele>
        <time>2023-12-06T14:25:59Z</time>
      </trkpt>
      <trkpt lat="49.28219" lon="0.18389">
        <ele>17.8</ele>
        <time>2023-12-06T14:26:00Z</time>
      </trkpt>
      <trkpt lat="49.28216" lon="0.18392">
        <ele>17.8</ele>
        <time>2023-12-06T14:26:01Z</time>
      </trkpt>
      <trkpt lat="49.28212" lon="0.18395">
        <ele>18</ele>
        <time>2023-12-06T14:26:02Z</time>
      </trkpt>
      <trkpt lat="49.2821" lon="0.18399">
        <ele>18</ele>
        <time>2023-12-06T14:26:03Z</time>
      </trkpt>
      <trkpt lat="49.28209" lon="0.18404">
        <ele>18</ele>
        <time>2023-12-06T14:26:04Z</time>
      </trkpt>
      <trkpt lat="49.28209" lon="0.18409">
        <ele>18</ele>
        <time>2023-12-06T14:26:05Z</time>
      </trkpt>
      <trkpt lat="49.28213" lon="0.18413">
        <ele>18</ele>
        <time>2023-12-06T14:26:06Z</time>
      </trkpt>
      <trkpt lat="49.28217" lon="0.18417">
        <ele>18.2</ele>
        <time>2023-12-06T14:26:07Z</time>
      </trkpt>
      <trkpt lat="49.28222" lon="0.18421">
        <ele>18.2</ele>
        <time>2023-12-06T14:26:08Z</time>
      </trkpt>
      <trkpt lat="49.28227" lon="0.18426">
        <ele>18.2</ele>
        <time>2023-12-06T14:26:09Z</time>
      </trkpt>
      <trkpt lat="49.28232" lon="0.18432">
        <ele>18.2</ele>
        <time>2023-12-06T14:26:10Z</time>
      </trkpt>
      <trkpt lat="49.28238" lon="0.18439">
        <ele>18.2</ele>
        <time>2023-12-06T14:26:11Z</time>
      </trkpt>
      <trkpt lat="49.28244" lon="0.18445">
        <ele>18.2</ele>
        <time>2023-12-06T14:26:12Z</time>
      </trkpt>
      <trkpt lat="49.2825" lon="0.18452">
        <ele>18.2</ele>
        <time>2023-12-06T14:26:13Z</time>
      </trkpt>
      <trkpt lat="49.28256" lon="0.18459">
        <ele>18.2</ele>
        <time>2023-12-06T14:26:14Z</time>
      </trkpt>
      <trkpt lat="49.28261" lon="0.18466">
        <ele>18.2</ele>
        <time>2023-12-06T14:26:15Z</time>
      </trkpt>
      <trkpt lat="49.28266" lon="0.18472">
        <ele>18.2</ele>
        <time>2023-12-06T14:26:16Z</time>
      </trkpt>
      <trkpt lat="49.28271" lon="0.18479">
        <ele>18</ele>
        <time>2023-12-06T14:26:17Z</time>
      </trkpt>
      <trkpt lat="49.28276" lon="0.18485">
        <ele>17.6</ele>
        <time>2023-12-06T14:26:18Z</time>
      </trkpt>
      <trkpt lat="49.2828" lon="0.18489">
        <ele>17.4</ele>
        <time>2023-12-06T14:26:19Z</time>
      </trkpt>
      <trkpt lat="49.28282" lon="0.18494">
        <ele>17</ele>
        <time>2023-12-06T14:26:20Z</time>
      </trkpt>
      <trkpt lat="49.28285" lon="0.18498">
        <ele>16.8</ele>
        <time>2023-12-06T14:26:21Z</time>
      </trkpt>
      <trkpt lat="49.28287" lon="0.18501">
        <ele>16.6</ele>
        <time>2023-12-06T14:26:22Z</time>
      </trkpt>
      <trkpt lat="49.28288" lon="0.18503">
        <ele>16.6</ele>
        <time>2023-12-06T14:26:23Z</time>
      </trkpt>
      <trkpt lat="49.28288" lon="0.18504">
        <ele>16.6</ele>
        <time>2023-12-06T14:26:24Z</time>
      </trkpt>
      <trkpt lat="49.28288" lon="0.18504">
        <ele>16.6</ele>
        <time>2023-12-06T14:26:25Z</time>
      </trkpt>
      <trkpt lat="49.28286" lon="0.18511">
        <ele>17.2</ele>
        <time>2023-12-06T14:27:26Z</time>
      </trkpt>
      <trkpt lat="49.28285" lon="0.18513">
        <ele>17.2</ele>
        <time>2023-12-06T14:27:27Z</time>
      </trkpt>
      <trkpt lat="49.28283" lon="0.18517">
        <ele>17.2</ele>
        <time>2023-12-06T14:27:28Z</time>
      </trkpt>
      <trkpt lat="49.28281" lon="0.1852">
        <ele>17.2</ele>
        <time>2023-12-06T14:27:29Z</time>
      </trkpt>
      <trkpt lat="49.28278" lon="0.18522">
        <ele>17.2</ele>
        <time>2023-12-06T14:27:30Z</time>
      </trkpt>
      <trkpt lat="49.28275" lon="0.18525">
        <ele>17.2</ele>
        <time>2023-12-06T14:27:31Z</time>
      </trkpt>
      <trkpt lat="49.28272" lon="0.18528">
        <ele>17.2</ele>
        <time>2023-12-06T14:27:32Z</time>
      </trkpt>
      <trkpt lat="49.28268" lon="0.18532">
        <ele>17.2</ele>
        <time>2023-12-06T14:27:33Z</time>
      </trkpt>
      <trkpt lat="49.28265" lon="0.18535">
        <ele>17.2</ele>
        <time>2023-12-06T14:27:34Z</time>
      </trkpt>
      <trkpt lat="49.28262" lon="0.18539">
        <ele>17.2</ele>
        <time>2023-12-06T14:27:35Z</time>
      </trkpt>
      <trkpt lat="49.28258" lon="0.18543">
        <ele>17.2</ele>
        <time>2023-12-06T14:27:36Z</time>
      </trkpt>
      <trkpt lat="49.28254" lon="0.18547">
        <ele>17.2</ele>
        <time>2023-12-06T14:27:37Z</time>
      </trkpt>
      <trkpt lat="49.28251" lon="0.18551">
        <ele>17.2</ele>
        <time>2023-12-06T14:27:38Z</time>
      </trkpt>
      <trkpt lat="49.28247" lon="0.18555">
        <ele>17</ele>
        <time>2023-12-06T14:27:39Z</time>
      </trkpt>
      <trkpt lat="49.28243" lon="0.18559">
        <ele>17</ele>
        <time>2023-12-06T14:27:40Z</time>
      </trkpt>
      <trkpt lat="49.28239" lon="0.18564">
        <ele>17</ele>
        <time>2023-12-06T14:27:41Z</time>
      </trkpt>
      <trkpt lat="49.28235" lon="0.18569">
        <ele>17</ele>
        <time>2023-12-06T14:27:42Z</time>
      </trkpt>
      <trkpt lat="49.28231" lon="0.18573">
        <ele>17</ele>
        <time>2023-12-06T14:27:43Z</time>
      </trkpt>
      <trkpt lat="49.28227" lon="0.18578">
        <ele>17</ele>
        <time>2023-12-06T14:27:44Z</time>
      </trkpt>
      <trkpt lat="49.28223" lon="0.18583">
        <ele>17</ele>
        <time>2023-12-06T14:27:45Z</time>
      </trkpt>
      <trkpt lat="49.28218" lon="0.18587">
        <ele>17</ele>
        <time>2023-12-06T14:27:46Z</time>
      </trkpt>
      <trkpt lat="49.28214" lon="0.18592">
        <ele>17</ele>
        <time>2023-12-06T14:27:47Z</time>
      </trkpt>
      <trkpt lat="49.2821" lon="0.18597">
        <ele>17</ele>
        <time>2023-12-06T14:27:48Z</time>
      </trkpt>
      <trkpt lat="49.28206" lon="0.18602">
        <ele>17</ele>
        <time>2023-12-06T14:27:49Z</time>
      </trkpt>
      <trkpt lat="49.28202" lon="0.18606">
        <ele>17</ele>
        <time>2023-12-06T14:27:50Z</time>
      </trkpt>
      <trkpt lat="49.28197" lon="0.18611">
        <ele>17</ele>
        <time>2023-12-06T14:27:51Z</time>
      </trkpt>
      <trkpt lat="49.28193" lon="0.18616">
        <ele>17</ele>
        <time>2023-12-06T14:27:52Z</time>
      </trkpt>
      <trkpt lat="49.28189" lon="0.1862">
        <ele>17</ele>
        <time>2023-12-06T14:27:53Z</time>
      </trkpt>
      <trkpt lat="49.28185" lon="0.18625">
        <ele>17</ele>
        <time>2023-12-06T14:27:54Z</time>
      </trkpt>
      <trkpt lat="49.2818" lon="0.18629">
        <ele>17</ele>
        <time>2023-12-06T14:27:55Z</time>
      </trkpt>
      <trkpt lat="49.28176" lon="0.18634">
        <ele>17</ele>
        <time>2023-12-06T14:27:56Z</time>
      </trkpt>
      <trkpt lat="49.28171" lon="0.18638">
        <ele>17</ele>
        <time>2023-12-06T14:27:57Z</time>
      </trkpt>
      <trkpt lat="49.28166" lon="0.18642">
        <ele>17</ele>
        <time>2023-12-06T14:27:58Z</time>
      </trkpt>
      <trkpt lat="49.28161" lon="0.18646">
        <ele>17</ele>
        <time>2023-12-06T14:27:59Z</time>
      </trkpt>
      <trkpt lat="49.28156" lon="0.1865">
        <ele>17.2</ele>
        <time>2023-12-06T14:28:00Z</time>
      </trkpt>
      <trkpt lat="49.28152" lon="0.18654">
        <ele>17.2</ele>
        <time>2023-12-06T14:28:01Z</time>
      </trkpt>
      <trkpt lat="49.28146" lon="0.18658">
        <ele>17.2</ele>
        <time>2023-12-06T14:28:02Z</time>
      </trkpt>
      <trkpt lat="49.28141" lon="0.18662">
        <ele>17.2</ele>
        <time>2023-12-06T14:28:03Z</time>
      </trkpt>
      <trkpt lat="49.28136" lon="0.18665">
        <ele>17.2</ele>
        <time>2023-12-06T14:28:04Z</time>
      </trkpt>
      <trkpt lat="49.28131" lon="0.18669">
        <ele>17.2</ele>
        <time>2023-12-06T14:28:05Z</time>
      </trkpt>
      <trkpt lat="49.28126" lon="0.18672">
        <ele>17.2</ele>
        <time>2023-12-06T14:28:06Z</time>
      </trkpt>
      <trkpt lat="49.2812" lon="0.18675">
        <ele>17.2</ele>
        <time>2023-12-06T14:28:07Z</time>
      </trkpt>
      <trkpt lat="49.28115" lon="0.18678">
        <ele>17.2</ele>
        <time>2023-12-06T14:28:08Z</time>
      </trkpt>
      <trkpt lat="49.28109" lon="0.18681">
        <ele>17.2</ele>
        <time>2023-12-06T14:28:09Z</time>
      </trkpt>
      <trkpt lat="49.28104" lon="0.18684">
        <ele>17.4</ele>
        <time>2023-12-06T14:28:10Z</time>
      </trkpt>
      <trkpt lat="49.28098" lon="0.18687">
        <ele>17.2</ele>
        <time>2023-12-06T14:28:11Z</time>
      </trkpt>
      <trkpt lat="49.28092" lon="0.1869">
        <ele>17.4</ele>
        <time>2023-12-06T14:28:12Z</time>
      </trkpt>
      <trkpt lat="49.28087" lon="0.18692">
        <ele>17.4</ele>
        <time>2023-12-06T14:28:13Z</time>
      </trkpt>
      <trkpt lat="49.28081" lon="0.18695">
        <ele>17.6</ele>
        <time>2023-12-06T14:28:14Z</time>
      </trkpt>
      <trkpt lat="49.28075" lon="0.18697">
        <ele>17.4</ele>
        <time>2023-12-06T14:28:15Z</time>
      </trkpt>
      <trkpt lat="49.2807" lon="0.18699">
        <ele>17.4</ele>
        <time>2023-12-06T14:28:16Z</time>
      </trkpt>
      <trkpt lat="49.28064" lon="0.18701">
        <ele>17.4</ele>
        <time>2023-12-06T14:28:17Z</time>
      </trkpt>
      <trkpt lat="49.28059" lon="0.18704">
        <ele>17.4</ele>
        <time>2023-12-06T14:28:18Z</time>
      </trkpt>
      <trkpt lat="49.28053" lon="0.18707">
        <ele>17.4</ele>
        <time>2023-12-06T14:28:19Z</time>
      </trkpt>
      <trkpt lat="49.28048" lon="0.18709">
        <ele>17.4</ele>
        <time>2023-12-06T14:28:20Z</time>
      </trkpt>
      <trkpt lat="49.28042" lon="0.18712">
        <ele>17.4</ele>
        <time>2023-12-06T14:28:21Z</time>
      </trkpt>
      <trkpt lat="49.28037" lon="0.18715">
        <ele>17.6</ele>
        <time>2023-12-06T14:28:22Z</time>
      </trkpt>
      <trkpt lat="49.28031" lon="0.18717">
        <ele>17.4</ele>
        <time>2023-12-06T14:28:23Z</time>
      </trkpt>
      <trkpt lat="49.28025" lon="0.1872">
        <ele>17.4</ele>
        <time>2023-12-06T14:28:24Z</time>
      </trkpt>
      <trkpt lat="49.28019" lon="0.18723">
        <ele>17.4</ele>
        <time>2023-12-06T14:28:25Z</time>
      </trkpt>
      <trkpt lat="49.28013" lon="0.18726">
        <ele>17.4</ele>
        <time>2023-12-06T14:28:26Z</time>
      </trkpt>
      <trkpt lat="49.28007" lon="0.18729">
        <ele>17.6</ele>
        <time>2023-12-06T14:28:27Z</time>
      </trkpt>
      <trkpt lat="49.28001" lon="0.18733">
        <ele>17.6</ele>
        <time>2023-12-06T14:28:28Z</time>
      </trkpt>
      <trkpt lat="49.27995" lon="0.18736">
        <ele>17.6</ele>
        <time>2023-12-06T14:28:29Z</time>
      </trkpt>
      <trkpt lat="49.27989" lon="0.18739">
        <ele>17.6</ele>
        <time>2023-12-06T14:28:30Z</time>
      </trkpt>
      <trkpt lat="49.27983" lon="0.18742">
        <ele>17.8</ele>
        <time>2023-12-06T14:28:31Z</time>
      </trkpt>
      <trkpt lat="49.27977" lon="0.18745">
        <ele>17.8</ele>
        <time>2023-12-06T14:28:32Z</time>
      </trkpt>
      <trkpt lat="49.2797" lon="0.18748">
        <ele>17.8</ele>
        <time>2023-12-06T14:28:33Z</time>
      </trkpt>
      <trkpt lat="49.27964" lon="0.18751">
        <ele>17.8</ele>
        <time>2023-12-06T14:28:34Z</time>
      </trkpt>
      <trkpt lat="49.27958" lon="0.18754">
        <ele>17.8</ele>
        <time>2023-12-06T14:28:35Z</time>
      </trkpt>
      <trkpt lat="49.27952" lon="0.18757">
        <ele>17.8</ele>
        <time>2023-12-06T14:28:36Z</time>
      </trkpt>
      <trkpt lat="49.27946" lon="0.1876">
        <ele>17.8</ele>
        <time>2023-12-06T14:28:37Z</time>
      </trkpt>
      <trkpt lat="49.2794" lon="0.18763">
        <ele>17.8</ele>
        <time>2023-12-06T14:28:38Z</time>
      </trkpt>
      <trkpt lat="49.27934" lon="0.18766">
        <ele>17.8</ele>
        <time>2023-12-06T14:28:39Z</time>
      </trkpt>
      <trkpt lat="49.27928" lon="0.18769">
        <ele>17.8</ele>
        <time>2023-12-06T14:28:40Z</time>
      </trkpt>
      <trkpt lat="49.27921" lon="0.18772">
        <ele>17.8</ele>
        <time>2023-12-06T14:28:41Z</time>
      </trkpt>
      <trkpt lat="49.27915" lon="0.18775">
        <ele>17.8</ele>
        <time>2023-12-06T14:28:42Z</time>
      </trkpt>
      <trkpt lat="49.27909" lon="0.18778">
        <ele>17.8</ele>
        <time>2023-12-06T14:28:43Z</time>
      </trkpt>
      <trkpt lat="49.27902" lon="0.18781">
        <ele>17.8</ele>
        <time>2023-12-06T14:28:44Z</time>
      </trkpt>
      <trkpt lat="49.27896" lon="0.18784">
        <ele>17.8</ele>
        <time>2023-12-06T14:28:45Z</time>
      </trkpt>
      <trkpt lat="49.27889" lon="0.18787">
        <ele>17.8</ele>
        <time>2023-12-06T14:28:46Z</time>
      </trkpt>
      <trkpt lat="49.27883" lon="0.1879">
        <ele>17.8</ele>
        <time>2023-12-06T14:28:47Z</time>
      </trkpt>
      <trkpt lat="49.27877" lon="0.18793">
        <ele>17.8</ele>
        <time>2023-12-06T14:28:48Z</time>
      </trkpt>
      <trkpt lat="49.27871" lon="0.18796">
        <ele>17.8</ele>
        <time>2023-12-06T14:28:49Z</time>
      </trkpt>
      <trkpt lat="49.27865" lon="0.18798">
        <ele>17.8</ele>
        <time>2023-12-06T14:28:50Z</time>
      </trkpt>
      <trkpt lat="49.27858" lon="0.18802">
        <ele>17.8</ele>
        <time>2023-12-06T14:28:51Z</time>
      </trkpt>
      <trkpt lat="49.27852" lon="0.18805">
        <ele>17.8</ele>
        <time>2023-12-06T14:28:52Z</time>
      </trkpt>
      <trkpt lat="49.27846" lon="0.18809">
        <ele>17.8</ele>
        <time>2023-12-06T14:28:53Z</time>
      </trkpt>
      <trkpt lat="49.2784" lon="0.18812">
        <ele>17.8</ele>
        <time>2023-12-06T14:28:54Z</time>
      </trkpt>
      <trkpt lat="49.27833" lon="0.18814">
        <ele>17.8</ele>
        <time>2023-12-06T14:28:55Z</time>
      </trkpt>
      <trkpt lat="49.27827" lon="0.18818">
        <ele>17.8</ele>
        <time>2023-12-06T14:28:56Z</time>
      </trkpt>
      <trkpt lat="49.27821" lon="0.18821">
        <ele>17.8</ele>
        <time>2023-12-06T14:28:57Z</time>
      </trkpt>
      <trkpt lat="49.27814" lon="0.18824">
        <ele>17.8</ele>
        <time>2023-12-06T14:28:58Z</time>
      </trkpt>
      <trkpt lat="49.27808" lon="0.18826">
        <ele>17.8</ele>
        <time>2023-12-06T14:28:59Z</time>
      </trkpt>
      <trkpt lat="49.27802" lon="0.18829">
        <ele>17.8</ele>
        <time>2023-12-06T14:29:00Z</time>
      </trkpt>
      <trkpt lat="49.27796" lon="0.18832">
        <ele>18</ele>
        <time>2023-12-06T14:29:01Z</time>
      </trkpt>
      <trkpt lat="49.2779" lon="0.18834">
        <ele>18</ele>
        <time>2023-12-06T14:29:02Z</time>
      </trkpt>
      <trkpt lat="49.27784" lon="0.18837">
        <ele>18</ele>
        <time>2023-12-06T14:29:03Z</time>
      </trkpt>
      <trkpt lat="49.27777" lon="0.1884">
        <ele>18</ele>
        <time>2023-12-06T14:29:04Z</time>
      </trkpt>
      <trkpt lat="49.27772" lon="0.18843">
        <ele>18</ele>
        <time>2023-12-06T14:29:05Z</time>
      </trkpt>
      <trkpt lat="49.27766" lon="0.18846">
        <ele>18</ele>
        <time>2023-12-06T14:29:06Z</time>
      </trkpt>
      <trkpt lat="49.2776" lon="0.18848">
        <ele>18</ele>
        <time>2023-12-06T14:29:07Z</time>
      </trkpt>
      <trkpt lat="49.27754" lon="0.1885">
        <ele>18</ele>
        <time>2023-12-06T14:29:08Z</time>
      </trkpt>
      <trkpt lat="49.27749" lon="0.18853">
        <ele>18</ele>
        <time>2023-12-06T14:29:09Z</time>
      </trkpt>
      <trkpt lat="49.27743" lon="0.18856">
        <ele>18.2</ele>
        <time>2023-12-06T14:29:10Z</time>
      </trkpt>
      <trkpt lat="49.27738" lon="0.18858">
        <ele>18.2</ele>
        <time>2023-12-06T14:29:11Z</time>
      </trkpt>
      <trkpt lat="49.27732" lon="0.18861">
        <ele>18.2</ele>
        <time>2023-12-06T14:29:12Z</time>
      </trkpt>
      <trkpt lat="49.27727" lon="0.18863">
        <ele>18.4</ele>
        <time>2023-12-06T14:29:13Z</time>
      </trkpt>
      <trkpt lat="49.27721" lon="0.18866">
        <ele>18.8</ele>
        <time>2023-12-06T14:29:14Z</time>
      </trkpt>
      <trkpt lat="49.27716" lon="0.18869">
        <ele>19</ele>
        <time>2023-12-06T14:29:15Z</time>
      </trkpt>
      <trkpt lat="49.27711" lon="0.18871">
        <ele>19</ele>
        <time>2023-12-06T14:29:16Z</time>
      </trkpt>
      <trkpt lat="49.27705" lon="0.18874">
        <ele>19.2</ele>
        <time>2023-12-06T14:29:17Z</time>
      </trkpt>
      <trkpt lat="49.277" lon="0.18877">
        <ele>19.4</ele>
        <time>2023-12-06T14:29:18Z</time>
      </trkpt>
      <trkpt lat="49.27694" lon="0.18879">
        <ele>19.4</ele>
        <time>2023-12-06T14:29:19Z</time>
      </trkpt>
      <trkpt lat="49.27689" lon="0.18883">
        <ele>19.6</ele>
        <time>2023-12-06T14:29:20Z</time>
      </trkpt>
      <trkpt lat="49.27684" lon="0.18886">
        <ele>19.8</ele>
        <time>2023-12-06T14:29:21Z</time>
      </trkpt>
      <trkpt lat="49.27678" lon="0.18888">
        <ele>20</ele>
        <time>2023-12-06T14:29:22Z</time>
      </trkpt>
      <trkpt lat="49.27673" lon="0.18891">
        <ele>20</ele>
        <time>2023-12-06T14:29:23Z</time>
      </trkpt>
      <trkpt lat="49.27668" lon="0.18895">
        <ele>20.2</ele>
        <time>2023-12-06T14:29:24Z</time>
      </trkpt>
      <trkpt lat="49.27663" lon="0.18899">
        <ele>20.4</ele>
        <time>2023-12-06T14:29:25Z</time>
      </trkpt>
      <trkpt lat="49.27658" lon="0.18903">
        <ele>20.6</ele>
        <time>2023-12-06T14:29:26Z</time>
      </trkpt>
      <trkpt lat="49.27653" lon="0.18907">
        <ele>20.8</ele>
        <time>2023-12-06T14:29:27Z</time>
      </trkpt>
      <trkpt lat="49.27648" lon="0.18911">
        <ele>21</ele>
        <time>2023-12-06T14:29:28Z</time>
      </trkpt>
      <trkpt lat="49.27643" lon="0.18916">
        <ele>21.2</ele>
        <time>2023-12-06T14:29:29Z</time>
      </trkpt>
      <trkpt lat="49.27638" lon="0.18921">
        <ele>21.2</ele>
        <time>2023-12-06T14:29:30Z</time>
      </trkpt>
      <trkpt lat="49.27634" lon="0.18926">
        <ele>21.4</ele>
        <time>2023-12-06T14:29:31Z</time>
      </trkpt>
      <trkpt lat="49.27629" lon="0.1893">
        <ele>21.4</ele>
        <time>2023-12-06T14:29:32Z</time>
      </trkpt>
      <trkpt lat="49.27624" lon="0.18936">
        <ele>21.4</ele>
        <time>2023-12-06T14:29:33Z</time>
      </trkpt>
      <trkpt lat="49.27619" lon="0.18941">
        <ele>21.6</ele>
        <time>2023-12-06T14:29:34Z</time>
      </trkpt>
      <trkpt lat="49.27614" lon="0.18947">
        <ele>21.6</ele>
        <time>2023-12-06T14:29:35Z</time>
      </trkpt>
      <trkpt lat="49.27609" lon="0.18954">
        <ele>21.8</ele>
        <time>2023-12-06T14:29:36Z</time>
      </trkpt>
      <trkpt lat="49.27604" lon="0.1896">
        <ele>22</ele>
        <time>2023-12-06T14:29:37Z</time>
      </trkpt>
      <trkpt lat="49.27599" lon="0.18967">
        <ele>22.2</ele>
        <time>2023-12-06T14:29:38Z</time>
      </trkpt>
      <trkpt lat="49.27594" lon="0.18973">
        <ele>22.2</ele>
        <time>2023-12-06T14:29:39Z</time>
      </trkpt>
      <trkpt lat="49.27588" lon="0.1898">
        <ele>22.4</ele>
        <time>2023-12-06T14:29:40Z</time>
      </trkpt>
      <trkpt lat="49.27583" lon="0.18987">
        <ele>22.4</ele>
        <time>2023-12-06T14:29:41Z</time>
      </trkpt>
      <trkpt lat="49.27578" lon="0.18994">
        <ele>22.4</ele>
        <time>2023-12-06T14:29:42Z</time>
      </trkpt>
      <trkpt lat="49.27572" lon="0.19001">
        <ele>22.4</ele>
        <time>2023-12-06T14:29:43Z</time>
      </trkpt>
      <trkpt lat="49.27567" lon="0.19009">
        <ele>22.4</ele>
        <time>2023-12-06T14:29:44Z</time>
      </trkpt>
      <trkpt lat="49.27561" lon="0.19016">
        <ele>22.4</ele>
        <time>2023-12-06T14:29:45Z</time>
      </trkpt>
      <trkpt lat="49.27555" lon="0.19024">
        <ele>22.4</ele>
        <time>2023-12-06T14:29:46Z</time>
      </trkpt>
      <trkpt lat="49.27549" lon="0.19032">
        <ele>22.2</ele>
        <time>2023-12-06T14:29:47Z</time>
      </trkpt>
      <trkpt lat="49.27543" lon="0.1904">
        <ele>22</ele>
        <time>2023-12-06T14:29:48Z</time>
      </trkpt>
      <trkpt lat="49.27536" lon="0.19048">
        <ele>22</ele>
        <time>2023-12-06T14:29:49Z</time>
      </trkpt>
      <trkpt lat="49.2753" lon="0.19057">
        <ele>21.8</ele>
        <time>2023-12-06T14:29:50Z</time>
      </trkpt>
      <trkpt lat="49.27524" lon="0.19065">
        <ele>21.4</ele>
        <time>2023-12-06T14:29:51Z</time>
      </trkpt>
      <trkpt lat="49.27517" lon="0.19073">
        <ele>21.4</ele>
        <time>2023-12-06T14:29:52Z</time>
      </trkpt>
      <trkpt lat="49.27511" lon="0.19082">
        <ele>21</ele>
        <time>2023-12-06T14:29:53Z</time>
      </trkpt>
      <trkpt lat="49.27504" lon="0.1909">
        <ele>20.8</ele>
        <time>2023-12-06T14:29:54Z</time>
      </trkpt>
      <trkpt lat="49.27498" lon="0.19097">
        <ele>20.4</ele>
        <time>2023-12-06T14:29:55Z</time>
      </trkpt>
      <trkpt lat="49.27492" lon="0.19104">
        <ele>20</ele>
        <time>2023-12-06T14:29:56Z</time>
      </trkpt>
      <trkpt lat="49.27485" lon="0.19111">
        <ele>19.6</ele>
        <time>2023-12-06T14:29:57Z</time>
      </trkpt>
      <trkpt lat="49.27479" lon="0.19117">
        <ele>19.2</ele>
        <time>2023-12-06T14:29:58Z</time>
      </trkpt>
      <trkpt lat="49.27476" lon="0.19122">
        <ele>18.8</ele>
        <time>2023-12-06T14:29:59Z</time>
      </trkpt>
      <trkpt lat="49.27471" lon="0.19128">
        <ele>18.6</ele>
        <time>2023-12-06T14:30:00Z</time>
      </trkpt>
      <trkpt lat="49.27465" lon="0.19133">
        <ele>18.4</ele>
        <time>2023-12-06T14:30:01Z</time>
      </trkpt>
      <trkpt lat="49.27459" lon="0.19135">
        <ele>18.2</ele>
        <time>2023-12-06T14:30:02Z</time>
      </trkpt>
      <trkpt lat="49.27453" lon="0.19135">
        <ele>18.2</ele>
        <time>2023-12-06T14:30:03Z</time>
      </trkpt>
      <trkpt lat="49.27447" lon="0.19133">
        <ele>18</ele>
        <time>2023-12-06T14:30:04Z</time>
      </trkpt>
      <trkpt lat="49.27441" lon="0.19128">
        <ele>18</ele>
        <time>2023-12-06T14:30:05Z</time>
      </trkpt>
      <trkpt lat="49.27436" lon="0.19122">
        <ele>18</ele>
        <time>2023-12-06T14:30:06Z</time>
      </trkpt>
      <trkpt lat="49.27432" lon="0.19114">
        <ele>18</ele>
        <time>2023-12-06T14:30:07Z</time>
      </trkpt>
      <trkpt lat="49.27428" lon="0.19106">
        <ele>17.8</ele>
        <time>2023-12-06T14:30:08Z</time>
      </trkpt>
      <trkpt lat="49.27425" lon="0.19097">
        <ele>17.8</ele>
        <time>2023-12-06T14:30:09Z</time>
      </trkpt>
      <trkpt lat="49.27422" lon="0.19089">
        <ele>17.8</ele>
        <time>2023-12-06T14:30:10Z</time>
      </trkpt>
      <trkpt lat="49.2742" lon="0.19082">
        <ele>17.8</ele>
        <time>2023-12-06T14:30:11Z</time>
      </trkpt>
      <trkpt lat="49.27417" lon="0.19074">
        <ele>17.8</ele>
        <time>2023-12-06T14:30:12Z</time>
      </trkpt>
      <trkpt lat="49.27414" lon="0.19066">
        <ele>17.8</ele>
        <time>2023-12-06T14:30:13Z</time>
      </trkpt>
      <trkpt lat="49.27411" lon="0.19059">
        <ele>18</ele>
        <time>2023-12-06T14:30:14Z</time>
      </trkpt>
      <trkpt lat="49.27408" lon="0.19053">
        <ele>18</ele>
        <time>2023-12-06T14:30:15Z</time>
      </trkpt>
      <trkpt lat="49.27406" lon="0.19046">
        <ele>18</ele>
        <time>2023-12-06T14:30:16Z</time>
      </trkpt>
      <trkpt lat="49.27403" lon="0.19039">
        <ele>18.2</ele>
        <time>2023-12-06T14:30:17Z</time>
      </trkpt>
      <trkpt lat="49.274" lon="0.19032">
        <ele>18.2</ele>
        <time>2023-12-06T14:30:18Z</time>
      </trkpt>
      <trkpt lat="49.27397" lon="0.19026">
        <ele>18.6</ele>
        <time>2023-12-06T14:30:19Z</time>
      </trkpt>
      <trkpt lat="49.27394" lon="0.1902">
        <ele>19</ele>
        <time>2023-12-06T14:30:20Z</time>
      </trkpt>
      <trkpt lat="49.27391" lon="0.19013">
        <ele>19.4</ele>
        <time>2023-12-06T14:30:21Z</time>
      </trkpt>
      <trkpt lat="49.27388" lon="0.19008">
        <ele>19.8</ele>
        <time>2023-12-06T14:30:22Z</time>
      </trkpt>
      <trkpt lat="49.27385" lon="0.19002">
        <ele>20.2</ele>
        <time>2023-12-06T14:30:23Z</time>
      </trkpt>
      <trkpt lat="49.27383" lon="0.18996">
        <ele>20.6</ele>
        <time>2023-12-06T14:30:24Z</time>
      </trkpt>
      <trkpt lat="49.27381" lon="0.18989">
        <ele>20.8</ele>
        <time>2023-12-06T14:30:25Z</time>
      </trkpt>
      <trkpt lat="49.27378" lon="0.18983">
        <ele>21.2</ele>
        <time>2023-12-06T14:30:26Z</time>
      </trkpt>
      <trkpt lat="49.27376" lon="0.18978">
        <ele>21.6</ele>
        <time>2023-12-06T14:30:27Z</time>
      </trkpt>
      <trkpt lat="49.27374" lon="0.18972">
        <ele>21.8</ele>
        <time>2023-12-06T14:30:28Z</time>
      </trkpt>
      <trkpt lat="49.27371" lon="0.18967">
        <ele>22</ele>
        <time>2023-12-06T14:30:29Z</time>
      </trkpt>
      <trkpt lat="49.27368" lon="0.1896">
        <ele>22.2</ele>
        <time>2023-12-06T14:30:30Z</time>
      </trkpt>
      <trkpt lat="49.27366" lon="0.18954">
        <ele>22.4</ele>
        <time>2023-12-06T14:30:31Z</time>
      </trkpt>
      <trkpt lat="49.27363" lon="0.18948">
        <ele>22.8</ele>
        <time>2023-12-06T14:30:32Z</time>
      </trkpt>
      <trkpt lat="49.27361" lon="0.18942">
        <ele>23</ele>
        <time>2023-12-06T14:30:33Z</time>
      </trkpt>
      <trkpt lat="49.27359" lon="0.18936">
        <ele>23.2</ele>
        <time>2023-12-06T14:30:34Z</time>
      </trkpt>
      <trkpt lat="49.27357" lon="0.18931">
        <ele>23.6</ele>
        <time>2023-12-06T14:30:35Z</time>
      </trkpt>
      <trkpt lat="49.27354" lon="0.18925">
        <ele>23.8</ele>
        <time>2023-12-06T14:30:36Z</time>
      </trkpt>
      <trkpt lat="49.27352" lon="0.18919">
        <ele>24.2</ele>
        <time>2023-12-06T14:30:37Z</time>
      </trkpt>
      <trkpt lat="49.27349" lon="0.18912">
        <ele>24.4</ele>
        <time>2023-12-06T14:30:38Z</time>
      </trkpt>
      <trkpt lat="49.27346" lon="0.18906">
        <ele>24.6</ele>
        <time>2023-12-06T14:30:39Z</time>
      </trkpt>
      <trkpt lat="49.27344" lon="0.189">
        <ele>25</ele>
        <time>2023-12-06T14:30:40Z</time>
      </trkpt>
      <trkpt lat="49.27341" lon="0.18894">
        <ele>25.2</ele>
        <time>2023-12-06T14:30:41Z</time>
      </trkpt>
      <trkpt lat="49.27338" lon="0.18888">
        <ele>25.4</ele>
        <time>2023-12-06T14:30:42Z</time>
      </trkpt>
      <trkpt lat="49.27336" lon="0.18882">
        <ele>25.6</ele>
        <time>2023-12-06T14:30:43Z</time>
      </trkpt>
      <trkpt lat="49.27333" lon="0.18876">
        <ele>26</ele>
        <time>2023-12-06T14:30:44Z</time>
      </trkpt>
      <trkpt lat="49.27331" lon="0.18869">
        <ele>26</ele>
        <time>2023-12-06T14:30:45Z</time>
      </trkpt>
      <trkpt lat="49.27329" lon="0.18863">
        <ele>26.2</ele>
        <time>2023-12-06T14:30:46Z</time>
      </trkpt>
      <trkpt lat="49.27326" lon="0.18856">
        <ele>26.4</ele>
        <time>2023-12-06T14:30:47Z</time>
      </trkpt>
      <trkpt lat="49.27324" lon="0.1885">
        <ele>26.6</ele>
        <time>2023-12-06T14:30:48Z</time>
      </trkpt>
      <trkpt lat="49.27321" lon="0.18844">
        <ele>27</ele>
        <time>2023-12-06T14:30:49Z</time>
      </trkpt>
      <trkpt lat="49.27318" lon="0.18837">
        <ele>27.2</ele>
        <time>2023-12-06T14:30:50Z</time>
      </trkpt>
      <trkpt lat="49.27315" lon="0.18831">
        <ele>27.4</ele>
        <time>2023-12-06T14:30:51Z</time>
      </trkpt>
      <trkpt lat="49.27313" lon="0.18824">
        <ele>27.8</ele>
        <time>2023-12-06T14:30:52Z</time>
      </trkpt>
      <trkpt lat="49.2731" lon="0.18817">
        <ele>28</ele>
        <time>2023-12-06T14:30:53Z</time>
      </trkpt>
      <trkpt lat="49.27307" lon="0.18811">
        <ele>28.2</ele>
        <time>2023-12-06T14:30:54Z</time>
      </trkpt>
      <trkpt lat="49.27304" lon="0.18804">
        <ele>28.6</ele>
        <time>2023-12-06T14:30:55Z</time>
      </trkpt>
      <trkpt lat="49.27301" lon="0.18796">
        <ele>28.8</ele>
        <time>2023-12-06T14:30:56Z</time>
      </trkpt>
      <trkpt lat="49.27298" lon="0.18789">
        <ele>28.8</ele>
        <time>2023-12-06T14:30:57Z</time>
      </trkpt>
      <trkpt lat="49.27295" lon="0.18782">
        <ele>29</ele>
        <time>2023-12-06T14:30:58Z</time>
      </trkpt>
      <trkpt lat="49.27292" lon="0.18774">
        <ele>29</ele>
        <time>2023-12-06T14:30:59Z</time>
      </trkpt>
      <trkpt lat="49.27289" lon="0.18767">
        <ele>29.2</ele>
        <time>2023-12-06T14:31:00Z</time>
      </trkpt>
      <trkpt lat="49.27286" lon="0.1876">
        <ele>29.2</ele>
        <time>2023-12-06T14:31:01Z</time>
      </trkpt>
      <trkpt lat="49.27283" lon="0.18753">
        <ele>29.6</ele>
        <time>2023-12-06T14:31:02Z</time>
      </trkpt>
      <trkpt lat="49.27281" lon="0.18746">
        <ele>29.6</ele>
        <time>2023-12-06T14:31:03Z</time>
      </trkpt>
      <trkpt lat="49.27278" lon="0.18739">
        <ele>29.8</ele>
        <time>2023-12-06T14:31:04Z</time>
      </trkpt>
      <trkpt lat="49.27275" lon="0.18732">
        <ele>30</ele>
        <time>2023-12-06T14:31:05Z</time>
      </trkpt>
      <trkpt lat="49.27272" lon="0.18724">
        <ele>30.4</ele>
        <time>2023-12-06T14:31:06Z</time>
      </trkpt>
      <trkpt lat="49.27268" lon="0.18717">
        <ele>30.6</ele>
        <time>2023-12-06T14:31:07Z</time>
      </trkpt>
      <trkpt lat="49.27265" lon="0.1871">
        <ele>30.8</ele>
        <time>2023-12-06T14:31:08Z</time>
      </trkpt>
      <trkpt lat="49.27262" lon="0.18703">
        <ele>30.8</ele>
        <time>2023-12-06T14:31:09Z</time>
      </trkpt>
      <trkpt lat="49.27259" lon="0.18696">
        <ele>31.2</ele>
        <time>2023-12-06T14:31:10Z</time>
      </trkpt>
      <trkpt lat="49.27256" lon="0.18688">
        <ele>31.4</ele>
        <time>2023-12-06T14:31:11Z</time>
      </trkpt>
      <trkpt lat="49.27253" lon="0.18681">
        <ele>31.6</ele>
        <time>2023-12-06T14:31:12Z</time>
      </trkpt>
      <trkpt lat="49.2725" lon="0.18674">
        <ele>31.6</ele>
        <time>2023-12-06T14:31:13Z</time>
      </trkpt>
      <trkpt lat="49.27247" lon="0.18667">
        <ele>31.8</ele>
        <time>2023-12-06T14:31:14Z</time>
      </trkpt>
      <trkpt lat="49.27245" lon="0.1866">
        <ele>32</ele>
        <time>2023-12-06T14:31:15Z</time>
      </trkpt>
      <trkpt lat="49.27242" lon="0.18653">
        <ele>32.2</ele>
        <time>2023-12-06T14:31:16Z</time>
      </trkpt>
      <trkpt lat="49.27239" lon="0.18646">
        <ele>32.4</ele>
        <time>2023-12-06T14:31:17Z</time>
      </trkpt>
      <trkpt lat="49.27236" lon="0.18639">
        <ele>32.4</ele>
        <time>2023-12-06T14:31:18Z</time>
      </trkpt>
      <trkpt lat="49.27233" lon="0.18632">
        <ele>32.6</ele>
        <time>2023-12-06T14:31:19Z</time>
      </trkpt>
      <trkpt lat="49.2723" lon="0.18626">
        <ele>32.8</ele>
        <time>2023-12-06T14:31:20Z</time>
      </trkpt>
      <trkpt lat="49.27226" lon="0.1862">
        <ele>32.8</ele>
        <time>2023-12-06T14:31:21Z</time>
      </trkpt>
      <trkpt lat="49.27223" lon="0.18614">
        <ele>32.8</ele>
        <time>2023-12-06T14:31:22Z</time>
      </trkpt>
      <trkpt lat="49.27219" lon="0.18608">
        <ele>33</ele>
        <time>2023-12-06T14:31:23Z</time>
      </trkpt>
      <trkpt lat="49.27216" lon="0.18602">
        <ele>33</ele>
        <time>2023-12-06T14:31:24Z</time>
      </trkpt>
      <trkpt lat="49.27212" lon="0.18596">
        <ele>33</ele>
        <time>2023-12-06T14:31:25Z</time>
      </trkpt>
      <trkpt lat="49.27209" lon="0.18591">
        <ele>33.2</ele>
        <time>2023-12-06T14:31:26Z</time>
      </trkpt>
      <trkpt lat="49.27205" lon="0.18585">
        <ele>33.4</ele>
        <time>2023-12-06T14:31:27Z</time>
      </trkpt>
      <trkpt lat="49.27201" lon="0.1858">
        <ele>33.4</ele>
        <time>2023-12-06T14:31:28Z</time>
      </trkpt>
      <trkpt lat="49.27197" lon="0.18576">
        <ele>33.6</ele>
        <time>2023-12-06T14:31:29Z</time>
      </trkpt>
      <trkpt lat="49.27193" lon="0.18571">
        <ele>33.8</ele>
        <time>2023-12-06T14:31:30Z</time>
      </trkpt>
      <trkpt lat="49.27189" lon="0.18567">
        <ele>33.8</ele>
        <time>2023-12-06T14:31:31Z</time>
      </trkpt>
      <trkpt lat="49.27185" lon="0.18563">
        <ele>34</ele>
        <time>2023-12-06T14:31:32Z</time>
      </trkpt>
      <trkpt lat="49.27181" lon="0.18559">
        <ele>34.2</ele>
        <time>2023-12-06T14:31:33Z</time>
      </trkpt>
      <trkpt lat="49.27177" lon="0.18556">
        <ele>34.2</ele>
        <time>2023-12-06T14:31:34Z</time>
      </trkpt>
      <trkpt lat="49.27173" lon="0.18553">
        <ele>34.4</ele>
        <time>2023-12-06T14:31:35Z</time>
      </trkpt>
      <trkpt lat="49.27169" lon="0.18549">
        <ele>34.8</ele>
        <time>2023-12-06T14:31:36Z</time>
      </trkpt>
      <trkpt lat="49.27165" lon="0.18546">
        <ele>34.8</ele>
        <time>2023-12-06T14:31:37Z</time>
      </trkpt>
      <trkpt lat="49.27161" lon="0.18543">
        <ele>35</ele>
        <time>2023-12-06T14:31:38Z</time>
      </trkpt>
      <trkpt lat="49.27157" lon="0.1854">
        <ele>35.2</ele>
        <time>2023-12-06T14:31:39Z</time>
      </trkpt>
      <trkpt lat="49.27154" lon="0.18537">
        <ele>35.2</ele>
        <time>2023-12-06T14:31:40Z</time>
      </trkpt>
      <trkpt lat="49.2715" lon="0.18534">
        <ele>35.6</ele>
        <time>2023-12-06T14:31:41Z</time>
      </trkpt>
      <trkpt lat="49.27146" lon="0.18531">
        <ele>35.8</ele>
        <time>2023-12-06T14:31:42Z</time>
      </trkpt>
      <trkpt lat="49.27143" lon="0.18528">
        <ele>36.2</ele>
        <time>2023-12-06T14:31:43Z</time>
      </trkpt>
      <trkpt lat="49.27139" lon="0.18524">
        <ele>36.4</ele>
        <time>2023-12-06T14:31:44Z</time>
      </trkpt>
      <trkpt lat="49.27136" lon="0.18521">
        <ele>36.8</ele>
        <time>2023-12-06T14:31:45Z</time>
      </trkpt>
      <trkpt lat="49.27132" lon="0.18518">
        <ele>37</ele>
        <time>2023-12-06T14:31:46Z</time>
      </trkpt>
      <trkpt lat="49.27129" lon="0.18515">
        <ele>37.2</ele>
        <time>2023-12-06T14:31:47Z</time>
      </trkpt>
      <trkpt lat="49.27126" lon="0.18512">
        <ele>37.6</ele>
        <time>2023-12-06T14:31:48Z</time>
      </trkpt>
      <trkpt lat="49.27123" lon="0.18508">
        <ele>37.8</ele>
        <time>2023-12-06T14:31:49Z</time>
      </trkpt>
      <trkpt lat="49.2712" lon="0.18504">
        <ele>38</ele>
        <time>2023-12-06T14:31:50Z</time>
      </trkpt>
      <trkpt lat="49.27116" lon="0.18501">
        <ele>38.2</ele>
        <time>2023-12-06T14:31:51Z</time>
      </trkpt>
      <trkpt lat="49.27113" lon="0.18497">
        <ele>38.4</ele>
        <time>2023-12-06T14:31:52Z</time>
      </trkpt>
      <trkpt lat="49.2711" lon="0.18493">
        <ele>38.8</ele>
        <time>2023-12-06T14:31:53Z</time>
      </trkpt>
      <trkpt lat="49.27107" lon="0.18489">
        <ele>39</ele>
        <time>2023-12-06T14:31:54Z</time>
      </trkpt>
      <trkpt lat="49.27104" lon="0.18485">
        <ele>39</ele>
        <time>2023-12-06T14:31:55Z</time>
      </trkpt>
      <trkpt lat="49.27101" lon="0.18482">
        <ele>39.4</ele>
        <time>2023-12-06T14:31:56Z</time>
      </trkpt>
      <trkpt lat="49.27098" lon="0.18478">
        <ele>39.8</ele>
        <time>2023-12-06T14:31:57Z</time>
      </trkpt>
      <trkpt lat="49.27095" lon="0.18473">
        <ele>40</ele>
        <time>2023-12-06T14:31:58Z</time>
      </trkpt>
      <trkpt lat="49.27092" lon="0.18468">
        <ele>40.4</ele>
        <time>2023-12-06T14:31:59Z</time>
      </trkpt>
      <trkpt lat="49.27089" lon="0.18464">
        <ele>40.6</ele>
        <time>2023-12-06T14:32:00Z</time>
      </trkpt>
      <trkpt lat="49.27086" lon="0.18459">
        <ele>40.8</ele>
        <time>2023-12-06T14:32:01Z</time>
      </trkpt>
      <trkpt lat="49.27084" lon="0.18454">
        <ele>41.2</ele>
        <time>2023-12-06T14:32:02Z</time>
      </trkpt>
      <trkpt lat="49.27082" lon="0.18449">
        <ele>41.2</ele>
        <time>2023-12-06T14:32:03Z</time>
      </trkpt>
      <trkpt lat="49.27079" lon="0.18445">
        <ele>41.6</ele>
        <time>2023-12-06T14:32:04Z</time>
      </trkpt>
      <trkpt lat="49.27077" lon="0.1844">
        <ele>41.6</ele>
        <time>2023-12-06T14:32:05Z</time>
      </trkpt>
      <trkpt lat="49.27074" lon="0.18435">
        <ele>42</ele>
        <time>2023-12-06T14:32:06Z</time>
      </trkpt>
      <trkpt lat="49.2707" lon="0.18431">
        <ele>42.2</ele>
        <time>2023-12-06T14:32:07Z</time>
      </trkpt>
      <trkpt lat="49.27068" lon="0.18426">
        <ele>42.2</ele>
        <time>2023-12-06T14:32:08Z</time>
      </trkpt>
      <trkpt lat="49.27065" lon="0.18421">
        <ele>42.6</ele>
        <time>2023-12-06T14:32:09Z</time>
      </trkpt>
      <trkpt lat="49.27063" lon="0.18417">
        <ele>42.8</ele>
        <time>2023-12-06T14:32:10Z</time>
      </trkpt>
      <trkpt lat="49.2706" lon="0.18412">
        <ele>43</ele>
        <time>2023-12-06T14:32:11Z</time>
      </trkpt>
      <trkpt lat="49.27057" lon="0.18408">
        <ele>43.4</ele>
        <time>2023-12-06T14:32:12Z</time>
      </trkpt>
      <trkpt lat="49.27054" lon="0.18404">
        <ele>43.6</ele>
        <time>2023-12-06T14:32:13Z</time>
      </trkpt>
      <trkpt lat="49.27051" lon="0.18401">
        <ele>43.8</ele>
        <time>2023-12-06T14:32:14Z</time>
      </trkpt>
      <trkpt lat="49.27047" lon="0.18397">
        <ele>44</ele>
        <time>2023-12-06T14:32:15Z</time>
      </trkpt>
      <trkpt lat="49.27044" lon="0.18393">
        <ele>44.2</ele>
        <time>2023-12-06T14:32:16Z</time>
      </trkpt>
      <trkpt lat="49.27041" lon="0.1839">
        <ele>44.4</ele>
        <time>2023-12-06T14:32:17Z</time>
      </trkpt>
      <trkpt lat="49.27037" lon="0.18386">
        <ele>44.8</ele>
        <time>2023-12-06T14:32:18Z</time>
      </trkpt>
      <trkpt lat="49.27034" lon="0.18382">
        <ele>45</ele>
        <time>2023-12-06T14:32:19Z</time>
      </trkpt>
      <trkpt lat="49.27031" lon="0.18378">
        <ele>45.2</ele>
        <time>2023-12-06T14:32:20Z</time>
      </trkpt>
      <trkpt lat="49.27028" lon="0.18374">
        <ele>45.6</ele>
        <time>2023-12-06T14:32:21Z</time>
      </trkpt>
      <trkpt lat="49.27024" lon="0.1837">
        <ele>45.8</ele>
        <time>2023-12-06T14:32:22Z</time>
      </trkpt>
      <trkpt lat="49.27021" lon="0.18366">
        <ele>45.8</ele>
        <time>2023-12-06T14:32:23Z</time>
      </trkpt>
      <trkpt lat="49.27018" lon="0.18363">
        <ele>46.2</ele>
        <time>2023-12-06T14:32:24Z</time>
      </trkpt>
      <trkpt lat="49.27015" lon="0.18359">
        <ele>46.4</ele>
        <time>2023-12-06T14:32:25Z</time>
      </trkpt>
      <trkpt lat="49.27012" lon="0.18356">
        <ele>46.4</ele>
        <time>2023-12-06T14:32:26Z</time>
      </trkpt>
      <trkpt lat="49.27008" lon="0.18352">
        <ele>46.8</ele>
        <time>2023-12-06T14:32:27Z</time>
      </trkpt>
      <trkpt lat="49.27005" lon="0.18348">
        <ele>47</ele>
        <time>2023-12-06T14:32:28Z</time>
      </trkpt>
      <trkpt lat="49.27002" lon="0.18345">
        <ele>47.2</ele>
        <time>2023-12-06T14:32:29Z</time>
      </trkpt>
      <trkpt lat="49.26999" lon="0.18341">
        <ele>47.4</ele>
        <time>2023-12-06T14:32:30Z</time>
      </trkpt>
      <trkpt lat="49.26996" lon="0.18337">
        <ele>47.8</ele>
        <time>2023-12-06T14:32:31Z</time>
      </trkpt>
      <trkpt lat="49.26993" lon="0.18333">
        <ele>48</ele>
        <time>2023-12-06T14:32:32Z</time>
      </trkpt>
      <trkpt lat="49.2699" lon="0.18328">
        <ele>48.2</ele>
        <time>2023-12-06T14:32:33Z</time>
      </trkpt>
      <trkpt lat="49.26987" lon="0.18324">
        <ele>48.4</ele>
        <time>2023-12-06T14:32:34Z</time>
      </trkpt>
      <trkpt lat="49.26984" lon="0.18319">
        <ele>48.6</ele>
        <time>2023-12-06T14:32:35Z</time>
      </trkpt>
      <trkpt lat="49.26981" lon="0.18314">
        <ele>49</ele>
        <time>2023-12-06T14:32:36Z</time>
      </trkpt>
      <trkpt lat="49.26978" lon="0.18309">
        <ele>49.2</ele>
        <time>2023-12-06T14:32:37Z</time>
      </trkpt>
      <trkpt lat="49.26976" lon="0.18304">
        <ele>49.2</ele>
        <time>2023-12-06T14:32:38Z</time>
      </trkpt>
      <trkpt lat="49.26972" lon="0.18298">
        <ele>49.4</ele>
        <time>2023-12-06T14:32:39Z</time>
      </trkpt>
      <trkpt lat="49.26969" lon="0.18293">
        <ele>49.8</ele>
        <time>2023-12-06T14:32:40Z</time>
      </trkpt>
      <trkpt lat="49.26966" lon="0.18287">
        <ele>50</ele>
        <time>2023-12-06T14:32:41Z</time>
      </trkpt>
      <trkpt lat="49.26963" lon="0.18281">
        <ele>50.2</ele>
        <time>2023-12-06T14:32:42Z</time>
      </trkpt>
      <trkpt lat="49.2696" lon="0.18275">
        <ele>50.4</ele>
        <time>2023-12-06T14:32:43Z</time>
      </trkpt>
      <trkpt lat="49.26956" lon="0.18269">
        <ele>50.6</ele>
        <time>2023-12-06T14:32:44Z</time>
      </trkpt>
      <trkpt lat="49.26953" lon="0.18263">
        <ele>50.6</ele>
        <time>2023-12-06T14:32:45Z</time>
      </trkpt>
      <trkpt lat="49.2695" lon="0.18256">
        <ele>50.6</ele>
        <time>2023-12-06T14:32:46Z</time>
      </trkpt>
      <trkpt lat="49.26947" lon="0.18249">
        <ele>50.8</ele>
        <time>2023-12-06T14:32:47Z</time>
      </trkpt>
      <trkpt lat="49.26944" lon="0.18242">
        <ele>50.8</ele>
        <time>2023-12-06T14:32:48Z</time>
      </trkpt>
      <trkpt lat="49.26941" lon="0.18235">
        <ele>50.8</ele>
        <time>2023-12-06T14:32:49Z</time>
      </trkpt>
      <trkpt lat="49.26938" lon="0.18227">
        <ele>50.8</ele>
        <time>2023-12-06T14:32:50Z</time>
      </trkpt>
      <trkpt lat="49.26935" lon="0.18219">
        <ele>50.8</ele>
        <time>2023-12-06T14:32:51Z</time>
      </trkpt>
      <trkpt lat="49.26931" lon="0.18211">
        <ele>50.8</ele>
        <time>2023-12-06T14:32:52Z</time>
      </trkpt>
      <trkpt lat="49.26929" lon="0.18204">
        <ele>50.8</ele>
        <time>2023-12-06T14:32:53Z</time>
      </trkpt>
      <trkpt lat="49.26925" lon="0.18196">
        <ele>50.8</ele>
        <time>2023-12-06T14:32:54Z</time>
      </trkpt>
      <trkpt lat="49.26922" lon="0.18189">
        <ele>50.8</ele>
        <time>2023-12-06T14:32:55Z</time>
      </trkpt>
      <trkpt lat="49.26919" lon="0.18181">
        <ele>50.8</ele>
        <time>2023-12-06T14:32:56Z</time>
      </trkpt>
      <trkpt lat="49.26916" lon="0.18173">
        <ele>50.8</ele>
        <time>2023-12-06T14:32:57Z</time>
      </trkpt>
      <trkpt lat="49.26912" lon="0.18165">
        <ele>50.8</ele>
        <time>2023-12-06T14:32:58Z</time>
      </trkpt>
      <trkpt lat="49.26909" lon="0.18158">
        <ele>50.8</ele>
        <time>2023-12-06T14:32:59Z</time>
      </trkpt>
      <trkpt lat="49.26906" lon="0.1815">
        <ele>50.8</ele>
        <time>2023-12-06T14:33:00Z</time>
      </trkpt>
      <trkpt lat="49.26902" lon="0.18142">
        <ele>50.8</ele>
        <time>2023-12-06T14:33:01Z</time>
      </trkpt>
      <trkpt lat="49.26899" lon="0.18135">
        <ele>50.8</ele>
        <time>2023-12-06T14:33:02Z</time>
      </trkpt>
      <trkpt lat="49.26896" lon="0.18127">
        <ele>50.8</ele>
        <time>2023-12-06T14:33:03Z</time>
      </trkpt>
      <trkpt lat="49.26893" lon="0.18119">
        <ele>50.8</ele>
        <time>2023-12-06T14:33:04Z</time>
      </trkpt>
      <trkpt lat="49.26889" lon="0.18112">
        <ele>50.8</ele>
        <time>2023-12-06T14:33:05Z</time>
      </trkpt>
      <trkpt lat="49.26886" lon="0.18104">
        <ele>51</ele>
        <time>2023-12-06T14:33:06Z</time>
      </trkpt>
      <trkpt lat="49.26882" lon="0.18097">
        <ele>51</ele>
        <time>2023-12-06T14:33:07Z</time>
      </trkpt>
      <trkpt lat="49.26878" lon="0.18089">
        <ele>51</ele>
        <time>2023-12-06T14:33:08Z</time>
      </trkpt>
      <trkpt lat="49.26873" lon="0.18083">
        <ele>51.2</ele>
        <time>2023-12-06T14:33:09Z</time>
      </trkpt>
      <trkpt lat="49.26869" lon="0.18075">
        <ele>51.2</ele>
        <time>2023-12-06T14:33:10Z</time>
      </trkpt>
      <trkpt lat="49.26865" lon="0.18069">
        <ele>51.4</ele>
        <time>2023-12-06T14:33:11Z</time>
      </trkpt>
      <trkpt lat="49.26861" lon="0.18061">
        <ele>51.4</ele>
        <time>2023-12-06T14:33:12Z</time>
      </trkpt>
      <trkpt lat="49.26856" lon="0.18055">
        <ele>51.4</ele>
        <time>2023-12-06T14:33:13Z</time>
      </trkpt>
      <trkpt lat="49.26852" lon="0.18048">
        <ele>51.6</ele>
        <time>2023-12-06T14:33:14Z</time>
      </trkpt>
      <trkpt lat="49.26847" lon="0.18042">
        <ele>51.8</ele>
        <time>2023-12-06T14:33:15Z</time>
      </trkpt>
      <trkpt lat="49.26842" lon="0.18036">
        <ele>51.8</ele>
        <time>2023-12-06T14:33:16Z</time>
      </trkpt>
      <trkpt lat="49.26837" lon="0.1803">
        <ele>52</ele>
        <time>2023-12-06T14:33:17Z</time>
      </trkpt>
      <trkpt lat="49.26832" lon="0.18023">
        <ele>52.2</ele>
        <time>2023-12-06T14:33:18Z</time>
      </trkpt>
      <trkpt lat="49.26827" lon="0.18017">
        <ele>52.4</ele>
        <time>2023-12-06T14:33:19Z</time>
      </trkpt>
      <trkpt lat="49.26823" lon="0.1801">
        <ele>52.6</ele>
        <time>2023-12-06T14:33:20Z</time>
      </trkpt>
      <trkpt lat="49.26819" lon="0.18003">
        <ele>52.8</ele>
        <time>2023-12-06T14:33:21Z</time>
      </trkpt>
      <trkpt lat="49.26814" lon="0.17996">
        <ele>52.8</ele>
        <time>2023-12-06T14:33:22Z</time>
      </trkpt>
      <trkpt lat="49.2681" lon="0.17989">
        <ele>53</ele>
        <time>2023-12-06T14:33:23Z</time>
      </trkpt>
      <trkpt lat="49.26806" lon="0.17983">
        <ele>53</ele>
        <time>2023-12-06T14:33:24Z</time>
      </trkpt>
      <trkpt lat="49.26802" lon="0.17976">
        <ele>53.2</ele>
        <time>2023-12-06T14:33:25Z</time>
      </trkpt>
      <trkpt lat="49.26797" lon="0.17969">
        <ele>53.2</ele>
        <time>2023-12-06T14:33:26Z</time>
      </trkpt>
      <trkpt lat="49.26793" lon="0.17962">
        <ele>53.4</ele>
        <time>2023-12-06T14:33:27Z</time>
      </trkpt>
      <trkpt lat="49.26789" lon="0.17955">
        <ele>53.4</ele>
        <time>2023-12-06T14:33:28Z</time>
      </trkpt>
      <trkpt lat="49.26784" lon="0.17948">
        <ele>53.4</ele>
        <time>2023-12-06T14:33:29Z</time>
      </trkpt>
      <trkpt lat="49.2678" lon="0.17941">
        <ele>53.4</ele>
        <time>2023-12-06T14:33:30Z</time>
      </trkpt>
      <trkpt lat="49.26775" lon="0.17935">
        <ele>53.4</ele>
        <time>2023-12-06T14:33:31Z</time>
      </trkpt>
      <trkpt lat="49.2677" lon="0.17928">
        <ele>53.4</ele>
        <time>2023-12-06T14:33:32Z</time>
      </trkpt>
      <trkpt lat="49.26765" lon="0.17921">
        <ele>53.4</ele>
        <time>2023-12-06T14:33:33Z</time>
      </trkpt>
      <trkpt lat="49.26761" lon="0.17914">
        <ele>53.4</ele>
        <time>2023-12-06T14:33:34Z</time>
      </trkpt>
      <trkpt lat="49.26756" lon="0.17907">
        <ele>53.4</ele>
        <time>2023-12-06T14:33:35Z</time>
      </trkpt>
      <trkpt lat="49.26751" lon="0.179">
        <ele>53.4</ele>
        <time>2023-12-06T14:33:36Z</time>
      </trkpt>
      <trkpt lat="49.26746" lon="0.17893">
        <ele>53.4</ele>
        <time>2023-12-06T14:33:37Z</time>
      </trkpt>
      <trkpt lat="49.26741" lon="0.17886">
        <ele>53.2</ele>
        <time>2023-12-06T14:33:38Z</time>
      </trkpt>
      <trkpt lat="49.26736" lon="0.17879">
        <ele>53</ele>
        <time>2023-12-06T14:33:39Z</time>
      </trkpt>
      <trkpt lat="49.26732" lon="0.17872">
        <ele>52.8</ele>
        <time>2023-12-06T14:33:40Z</time>
      </trkpt>
      <trkpt lat="49.26727" lon="0.17865">
        <ele>52.8</ele>
        <time>2023-12-06T14:33:41Z</time>
      </trkpt>
      <trkpt lat="49.26722" lon="0.17858">
        <ele>52.6</ele>
        <time>2023-12-06T14:33:42Z</time>
      </trkpt>
      <trkpt lat="49.26717" lon="0.17852">
        <ele>52.4</ele>
        <time>2023-12-06T14:33:43Z</time>
      </trkpt>
      <trkpt lat="49.26712" lon="0.17845">
        <ele>52.2</ele>
        <time>2023-12-06T14:33:44Z</time>
      </trkpt>
      <trkpt lat="49.26708" lon="0.17839">
        <ele>52</ele>
        <time>2023-12-06T14:33:45Z</time>
      </trkpt>
      <trkpt lat="49.26703" lon="0.17832">
        <ele>51.8</ele>
        <time>2023-12-06T14:33:46Z</time>
      </trkpt>
      <trkpt lat="49.26697" lon="0.17827">
        <ele>51.8</ele>
        <time>2023-12-06T14:33:47Z</time>
      </trkpt>
      <trkpt lat="49.26692" lon="0.17821">
        <ele>51.8</ele>
        <time>2023-12-06T14:33:48Z</time>
      </trkpt>
      <trkpt lat="49.26687" lon="0.17816">
        <ele>51.8</ele>
        <time>2023-12-06T14:33:49Z</time>
      </trkpt>
      <trkpt lat="49.26682" lon="0.17812">
        <ele>51.6</ele>
        <time>2023-12-06T14:33:50Z</time>
      </trkpt>
      <trkpt lat="49.26676" lon="0.17807">
        <ele>51.6</ele>
        <time>2023-12-06T14:33:51Z</time>
      </trkpt>
      <trkpt lat="49.2667" lon="0.17803">
        <ele>51.6</ele>
        <time>2023-12-06T14:33:52Z</time>
      </trkpt>
      <trkpt lat="49.26665" lon="0.17799">
        <ele>51.6</ele>
        <time>2023-12-06T14:33:53Z</time>
      </trkpt>
      <trkpt lat="49.26659" lon="0.17796">
        <ele>51.6</ele>
        <time>2023-12-06T14:33:54Z</time>
      </trkpt>
      <trkpt lat="49.26653" lon="0.17793">
        <ele>51.6</ele>
        <time>2023-12-06T14:33:55Z</time>
      </trkpt>
      <trkpt lat="49.26647" lon="0.17789">
        <ele>51.6</ele>
        <time>2023-12-06T14:33:56Z</time>
      </trkpt>
      <trkpt lat="49.26641" lon="0.17786">
        <ele>51.6</ele>
        <time>2023-12-06T14:33:57Z</time>
      </trkpt>
      <trkpt lat="49.26635" lon="0.17784">
        <ele>51.6</ele>
        <time>2023-12-06T14:33:58Z</time>
      </trkpt>
      <trkpt lat="49.26629" lon="0.17782">
        <ele>51.4</ele>
        <time>2023-12-06T14:33:59Z</time>
      </trkpt>
      <trkpt lat="49.26622" lon="0.1778">
        <ele>51.4</ele>
        <time>2023-12-06T14:34:00Z</time>
      </trkpt>
      <trkpt lat="49.26616" lon="0.17777">
        <ele>51.4</ele>
        <time>2023-12-06T14:34:01Z</time>
      </trkpt>
      <trkpt lat="49.26609" lon="0.17776">
        <ele>51.4</ele>
        <time>2023-12-06T14:34:02Z</time>
      </trkpt>
      <trkpt lat="49.26603" lon="0.17775">
        <ele>51.4</ele>
        <time>2023-12-06T14:34:03Z</time>
      </trkpt>
      <trkpt lat="49.26596" lon="0.17774">
        <ele>51.4</ele>
        <time>2023-12-06T14:34:04Z</time>
      </trkpt>
      <trkpt lat="49.26589" lon="0.17773">
        <ele>51.4</ele>
        <time>2023-12-06T14:34:05Z</time>
      </trkpt>
      <trkpt lat="49.26583" lon="0.17772">
        <ele>51.4</ele>
        <time>2023-12-06T14:34:06Z</time>
      </trkpt>
      <trkpt lat="49.26576" lon="0.1777">
        <ele>51.4</ele>
        <time>2023-12-06T14:34:07Z</time>
      </trkpt>
      <trkpt lat="49.2657" lon="0.17769">
        <ele>51.2</ele>
        <time>2023-12-06T14:34:08Z</time>
      </trkpt>
      <trkpt lat="49.26563" lon="0.17767">
        <ele>51</ele>
        <time>2023-12-06T14:34:09Z</time>
      </trkpt>
      <trkpt lat="49.26556" lon="0.17765">
        <ele>51</ele>
        <time>2023-12-06T14:34:10Z</time>
      </trkpt>
      <trkpt lat="49.2655" lon="0.17763">
        <ele>50.8</ele>
        <time>2023-12-06T14:34:11Z</time>
      </trkpt>
      <trkpt lat="49.26543" lon="0.1776">
        <ele>50.6</ele>
        <time>2023-12-06T14:34:12Z</time>
      </trkpt>
      <trkpt lat="49.26536" lon="0.17757">
        <ele>50.2</ele>
        <time>2023-12-06T14:34:13Z</time>
      </trkpt>
      <trkpt lat="49.2653" lon="0.17753">
        <ele>50</ele>
        <time>2023-12-06T14:34:14Z</time>
      </trkpt>
      <trkpt lat="49.26524" lon="0.17749">
        <ele>49.6</ele>
        <time>2023-12-06T14:34:15Z</time>
      </trkpt>
      <trkpt lat="49.26518" lon="0.17744">
        <ele>49.6</ele>
        <time>2023-12-06T14:34:16Z</time>
      </trkpt>
      <trkpt lat="49.26512" lon="0.17739">
        <ele>49.4</ele>
        <time>2023-12-06T14:34:17Z</time>
      </trkpt>
      <trkpt lat="49.26507" lon="0.17734">
        <ele>49.4</ele>
        <time>2023-12-06T14:34:18Z</time>
      </trkpt>
      <trkpt lat="49.26502" lon="0.1773">
        <ele>49.4</ele>
        <time>2023-12-06T14:34:19Z</time>
      </trkpt>
      <trkpt lat="49.26497" lon="0.17726">
        <ele>49.4</ele>
        <time>2023-12-06T14:34:20Z</time>
      </trkpt>
      <trkpt lat="49.26492" lon="0.17722">
        <ele>49.4</ele>
        <time>2023-12-06T14:34:21Z</time>
      </trkpt>
      <trkpt lat="49.26487" lon="0.17718">
        <ele>49.4</ele>
        <time>2023-12-06T14:34:22Z</time>
      </trkpt>
      <trkpt lat="49.26481" lon="0.17715">
        <ele>49.4</ele>
        <time>2023-12-06T14:34:23Z</time>
      </trkpt>
      <trkpt lat="49.26476" lon="0.17712">
        <ele>49.4</ele>
        <time>2023-12-06T14:34:24Z</time>
      </trkpt>
      <trkpt lat="49.26471" lon="0.17708">
        <ele>49.4</ele>
        <time>2023-12-06T14:34:25Z</time>
      </trkpt>
      <trkpt lat="49.26466" lon="0.17704">
        <ele>49.4</ele>
        <time>2023-12-06T14:34:26Z</time>
      </trkpt>
      <trkpt lat="49.26461" lon="0.177">
        <ele>49.8</ele>
        <time>2023-12-06T14:34:27Z</time>
      </trkpt>
      <trkpt lat="49.26457" lon="0.17696">
        <ele>50</ele>
        <time>2023-12-06T14:34:28Z</time>
      </trkpt>
      <trkpt lat="49.26452" lon="0.17691">
        <ele>50.4</ele>
        <time>2023-12-06T14:34:29Z</time>
      </trkpt>
      <trkpt lat="49.26448" lon="0.17687">
        <ele>50.6</ele>
        <time>2023-12-06T14:34:30Z</time>
      </trkpt>
      <trkpt lat="49.26443" lon="0.17683">
        <ele>51</ele>
        <time>2023-12-06T14:34:31Z</time>
      </trkpt>
      <trkpt lat="49.26439" lon="0.17678">
        <ele>51.4</ele>
        <time>2023-12-06T14:34:32Z</time>
      </trkpt>
      <trkpt lat="49.26434" lon="0.17674">
        <ele>51.6</ele>
        <time>2023-12-06T14:34:33Z</time>
      </trkpt>
      <trkpt lat="49.2643" lon="0.17669">
        <ele>52</ele>
        <time>2023-12-06T14:34:34Z</time>
      </trkpt>
      <trkpt lat="49.26426" lon="0.17664">
        <ele>52.4</ele>
        <time>2023-12-06T14:34:35Z</time>
      </trkpt>
      <trkpt lat="49.26423" lon="0.17659">
        <ele>52.6</ele>
        <time>2023-12-06T14:34:36Z</time>
      </trkpt>
      <trkpt lat="49.26419" lon="0.17654">
        <ele>53</ele>
        <time>2023-12-06T14:34:37Z</time>
      </trkpt>
      <trkpt lat="49.26415" lon="0.17649">
        <ele>53.2</ele>
        <time>2023-12-06T14:34:38Z</time>
      </trkpt>
      <trkpt lat="49.26411" lon="0.17644">
        <ele>53.4</ele>
        <time>2023-12-06T14:34:39Z</time>
      </trkpt>
      <trkpt lat="49.26407" lon="0.17638">
        <ele>53.6</ele>
        <time>2023-12-06T14:34:40Z</time>
      </trkpt>
      <trkpt lat="49.26403" lon="0.17632">
        <ele>53.8</ele>
        <time>2023-12-06T14:34:41Z</time>
      </trkpt>
      <trkpt lat="49.26399" lon="0.17626">
        <ele>54.2</ele>
        <time>2023-12-06T14:34:42Z</time>
      </trkpt>
      <trkpt lat="49.26395" lon="0.1762">
        <ele>54.4</ele>
        <time>2023-12-06T14:34:43Z</time>
      </trkpt>
      <trkpt lat="49.26391" lon="0.17614">
        <ele>54.6</ele>
        <time>2023-12-06T14:34:44Z</time>
      </trkpt>
      <trkpt lat="49.26386" lon="0.17608">
        <ele>55</ele>
        <time>2023-12-06T14:34:45Z</time>
      </trkpt>
      <trkpt lat="49.26382" lon="0.17602">
        <ele>55.4</ele>
        <time>2023-12-06T14:34:46Z</time>
      </trkpt>
      <trkpt lat="49.26377" lon="0.17596">
        <ele>55.6</ele>
        <time>2023-12-06T14:34:47Z</time>
      </trkpt>
      <trkpt lat="49.26373" lon="0.1759">
        <ele>56</ele>
        <time>2023-12-06T14:34:48Z</time>
      </trkpt>
      <trkpt lat="49.26368" lon="0.17585">
        <ele>56.2</ele>
        <time>2023-12-06T14:34:49Z</time>
      </trkpt>
      <trkpt lat="49.26364" lon="0.17579">
        <ele>56.4</ele>
        <time>2023-12-06T14:34:50Z</time>
      </trkpt>
      <trkpt lat="49.26359" lon="0.17573">
        <ele>56.4</ele>
        <time>2023-12-06T14:34:51Z</time>
      </trkpt>
      <trkpt lat="49.26355" lon="0.17568">
        <ele>56.4</ele>
        <time>2023-12-06T14:34:52Z</time>
      </trkpt>
      <trkpt lat="49.2635" lon="0.17562">
        <ele>56.6</ele>
        <time>2023-12-06T14:34:53Z</time>
      </trkpt>
      <trkpt lat="49.26346" lon="0.17556">
        <ele>56.6</ele>
        <time>2023-12-06T14:34:54Z</time>
      </trkpt>
      <trkpt lat="49.26341" lon="0.1755">
        <ele>56.6</ele>
        <time>2023-12-06T14:34:55Z</time>
      </trkpt>
      <trkpt lat="49.26336" lon="0.17544">
        <ele>56.8</ele>
        <time>2023-12-06T14:34:56Z</time>
      </trkpt>
      <trkpt lat="49.26332" lon="0.17538">
        <ele>56.8</ele>
        <time>2023-12-06T14:34:57Z</time>
      </trkpt>
      <trkpt lat="49.26327" lon="0.17533">
        <ele>57</ele>
        <time>2023-12-06T14:34:58Z</time>
      </trkpt>
      <trkpt lat="49.26322" lon="0.17527">
        <ele>57</ele>
        <time>2023-12-06T14:34:59Z</time>
      </trkpt>
      <trkpt lat="49.26317" lon="0.17521">
        <ele>57.2</ele>
        <time>2023-12-06T14:35:00Z</time>
      </trkpt>
      <trkpt lat="49.26313" lon="0.17514">
        <ele>57.2</ele>
        <time>2023-12-06T14:35:01Z</time>
      </trkpt>
      <trkpt lat="49.26308" lon="0.17508">
        <ele>57.6</ele>
        <time>2023-12-06T14:35:02Z</time>
      </trkpt>
      <trkpt lat="49.26303" lon="0.17502">
        <ele>57.8</ele>
        <time>2023-12-06T14:35:03Z</time>
      </trkpt>
      <trkpt lat="49.26298" lon="0.17496">
        <ele>57.8</ele>
        <time>2023-12-06T14:35:04Z</time>
      </trkpt>
      <trkpt lat="49.26294" lon="0.1749">
        <ele>58</ele>
        <time>2023-12-06T14:35:05Z</time>
      </trkpt>
      <trkpt lat="49.26289" lon="0.17484">
        <ele>58</ele>
        <time>2023-12-06T14:35:06Z</time>
      </trkpt>
      <trkpt lat="49.26284" lon="0.17477">
        <ele>58</ele>
        <time>2023-12-06T14:35:07Z</time>
      </trkpt>
      <trkpt lat="49.2628" lon="0.17471">
        <ele>58</ele>
        <time>2023-12-06T14:35:08Z</time>
      </trkpt>
      <trkpt lat="49.26275" lon="0.17465">
        <ele>58</ele>
        <time>2023-12-06T14:35:09Z</time>
      </trkpt>
      <trkpt lat="49.2627" lon="0.17459">
        <ele>58.2</ele>
        <time>2023-12-06T14:35:10Z</time>
      </trkpt>
      <trkpt lat="49.26265" lon="0.17453">
        <ele>58.2</ele>
        <time>2023-12-06T14:35:11Z</time>
      </trkpt>
      <trkpt lat="49.2626" lon="0.17447">
        <ele>58.2</ele>
        <time>2023-12-06T14:35:12Z</time>
      </trkpt>
      <trkpt lat="49.26255" lon="0.1744">
        <ele>58.2</ele>
        <time>2023-12-06T14:35:13Z</time>
      </trkpt>
      <trkpt lat="49.26251" lon="0.17434">
        <ele>58.2</ele>
        <time>2023-12-06T14:35:14Z</time>
      </trkpt>
      <trkpt lat="49.26246" lon="0.17427">
        <ele>58.2</ele>
        <time>2023-12-06T14:35:15Z</time>
      </trkpt>
      <trkpt lat="49.26241" lon="0.17421">
        <ele>58.2</ele>
        <time>2023-12-06T14:35:16Z</time>
      </trkpt>
      <trkpt lat="49.26236" lon="0.17415">
        <ele>58.4</ele>
        <time>2023-12-06T14:35:17Z</time>
      </trkpt>
      <trkpt lat="49.26231" lon="0.17409">
        <ele>58.4</ele>
        <time>2023-12-06T14:35:18Z</time>
      </trkpt>
      <trkpt lat="49.26226" lon="0.17403">
        <ele>58.4</ele>
        <time>2023-12-06T14:35:19Z</time>
      </trkpt>
      <trkpt lat="49.26221" lon="0.17397">
        <ele>58.4</ele>
        <time>2023-12-06T14:35:20Z</time>
      </trkpt>
      <trkpt lat="49.26217" lon="0.1739">
        <ele>58.4</ele>
        <time>2023-12-06T14:35:21Z</time>
      </trkpt>
      <trkpt lat="49.26212" lon="0.17384">
        <ele>58.6</ele>
        <time>2023-12-06T14:35:22Z</time>
      </trkpt>
      <trkpt lat="49.26207" lon="0.17378">
        <ele>58.6</ele>
        <time>2023-12-06T14:35:23Z</time>
      </trkpt>
      <trkpt lat="49.26202" lon="0.17371">
        <ele>58.8</ele>
        <time>2023-12-06T14:35:24Z</time>
      </trkpt>
      <trkpt lat="49.26197" lon="0.17365">
        <ele>59</ele>
        <time>2023-12-06T14:35:25Z</time>
      </trkpt>
      <trkpt lat="49.26193" lon="0.17358">
        <ele>59.2</ele>
        <time>2023-12-06T14:35:26Z</time>
      </trkpt>
      <trkpt lat="49.26188" lon="0.17352">
        <ele>59.6</ele>
        <time>2023-12-06T14:35:27Z</time>
      </trkpt>
      <trkpt lat="49.26183" lon="0.17346">
        <ele>59.6</ele>
        <time>2023-12-06T14:35:28Z</time>
      </trkpt>
      <trkpt lat="49.26178" lon="0.1734">
        <ele>59.8</ele>
        <time>2023-12-06T14:35:29Z</time>
      </trkpt>
      <trkpt lat="49.26174" lon="0.17333">
        <ele>59.8</ele>
        <time>2023-12-06T14:35:30Z</time>
      </trkpt>
      <trkpt lat="49.26169" lon="0.17327">
        <ele>59.8</ele>
        <time>2023-12-06T14:35:31Z</time>
      </trkpt>
      <trkpt lat="49.26164" lon="0.17321">
        <ele>60</ele>
        <time>2023-12-06T14:35:32Z</time>
      </trkpt>
      <trkpt lat="49.26159" lon="0.17315">
        <ele>60</ele>
        <time>2023-12-06T14:35:33Z</time>
      </trkpt>
      <trkpt lat="49.26154" lon="0.17308">
        <ele>60</ele>
        <time>2023-12-06T14:35:34Z</time>
      </trkpt>
      <trkpt lat="49.26149" lon="0.17302">
        <ele>60</ele>
        <time>2023-12-06T14:35:35Z</time>
      </trkpt>
      <trkpt lat="49.26145" lon="0.17296">
        <ele>60</ele>
        <time>2023-12-06T14:35:36Z</time>
      </trkpt>
      <trkpt lat="49.2614" lon="0.1729">
        <ele>60</ele>
        <time>2023-12-06T14:35:37Z</time>
      </trkpt>
      <trkpt lat="49.26135" lon="0.17284">
        <ele>60</ele>
        <time>2023-12-06T14:35:38Z</time>
      </trkpt>
      <trkpt lat="49.2613" lon="0.17277">
        <ele>60</ele>
        <time>2023-12-06T14:35:39Z</time>
      </trkpt>
      <trkpt lat="49.26125" lon="0.17271">
        <ele>60</ele>
        <time>2023-12-06T14:35:40Z</time>
      </trkpt>
      <trkpt lat="49.2612" lon="0.17265">
        <ele>60</ele>
        <time>2023-12-06T14:35:41Z</time>
      </trkpt>
      <trkpt lat="49.26116" lon="0.17259">
        <ele>60</ele>
        <time>2023-12-06T14:35:42Z</time>
      </trkpt>
      <trkpt lat="49.26111" lon="0.17253">
        <ele>60.2</ele>
        <time>2023-12-06T14:35:43Z</time>
      </trkpt>
      <trkpt lat="49.26106" lon="0.17248">
        <ele>60.2</ele>
        <time>2023-12-06T14:35:44Z</time>
      </trkpt>
      <trkpt lat="49.26101" lon="0.17242">
        <ele>60.4</ele>
        <time>2023-12-06T14:35:45Z</time>
      </trkpt>
      <trkpt lat="49.26096" lon="0.17236">
        <ele>60.4</ele>
        <time>2023-12-06T14:35:46Z</time>
      </trkpt>
      <trkpt lat="49.26091" lon="0.1723">
        <ele>60.4</ele>
        <time>2023-12-06T14:35:47Z</time>
      </trkpt>
      <trkpt lat="49.26086" lon="0.17224">
        <ele>60.6</ele>
        <time>2023-12-06T14:35:48Z</time>
      </trkpt>
      <trkpt lat="49.26081" lon="0.17218">
        <ele>60.8</ele>
        <time>2023-12-06T14:35:49Z</time>
      </trkpt>
      <trkpt lat="49.26076" lon="0.17213">
        <ele>60.8</ele>
        <time>2023-12-06T14:35:50Z</time>
      </trkpt>
      <trkpt lat="49.26072" lon="0.17207">
        <ele>60.8</ele>
        <time>2023-12-06T14:35:51Z</time>
      </trkpt>
      <trkpt lat="49.26066" lon="0.17201">
        <ele>61</ele>
        <time>2023-12-06T14:35:52Z</time>
      </trkpt>
      <trkpt lat="49.26061" lon="0.17196">
        <ele>61</ele>
        <time>2023-12-06T14:35:53Z</time>
      </trkpt>
      <trkpt lat="49.26056" lon="0.1719">
        <ele>61</ele>
        <time>2023-12-06T14:35:54Z</time>
      </trkpt>
      <trkpt lat="49.26051" lon="0.17184">
        <ele>61.2</ele>
        <time>2023-12-06T14:35:55Z</time>
      </trkpt>
      <trkpt lat="49.26046" lon="0.17178">
        <ele>61.4</ele>
        <time>2023-12-06T14:35:56Z</time>
      </trkpt>
      <trkpt lat="49.26041" lon="0.17172">
        <ele>61.6</ele>
        <time>2023-12-06T14:35:57Z</time>
      </trkpt>
      <trkpt lat="49.26036" lon="0.17166">
        <ele>61.6</ele>
        <time>2023-12-06T14:35:58Z</time>
      </trkpt>
      <trkpt lat="49.26031" lon="0.17159">
        <ele>61.6</ele>
        <time>2023-12-06T14:35:59Z</time>
      </trkpt>
      <trkpt lat="49.26026" lon="0.17153">
        <ele>61.8</ele>
        <time>2023-12-06T14:36:00Z</time>
      </trkpt>
      <trkpt lat="49.26021" lon="0.17147">
        <ele>62</ele>
        <time>2023-12-06T14:36:01Z</time>
      </trkpt>
      <trkpt lat="49.26016" lon="0.17141">
        <ele>62.2</ele>
        <time>2023-12-06T14:36:02Z</time>
      </trkpt>
      <trkpt lat="49.26011" lon="0.17134">
        <ele>62.2</ele>
        <time>2023-12-06T14:36:03Z</time>
      </trkpt>
      <trkpt lat="49.26006" lon="0.17128">
        <ele>62.4</ele>
        <time>2023-12-06T14:36:04Z</time>
      </trkpt>
      <trkpt lat="49.26001" lon="0.17121">
        <ele>62.6</ele>
        <time>2023-12-06T14:36:05Z</time>
      </trkpt>
      <trkpt lat="49.25996" lon="0.17115">
        <ele>62.6</ele>
        <time>2023-12-06T14:36:06Z</time>
      </trkpt>
      <trkpt lat="49.25991" lon="0.17109">
        <ele>62.8</ele>
        <time>2023-12-06T14:36:07Z</time>
      </trkpt>
      <trkpt lat="49.25986" lon="0.17104">
        <ele>63</ele>
        <time>2023-12-06T14:36:08Z</time>
      </trkpt>
      <trkpt lat="49.25981" lon="0.17098">
        <ele>63</ele>
        <time>2023-12-06T14:36:09Z</time>
      </trkpt>
      <trkpt lat="49.25976" lon="0.17092">
        <ele>63.2</ele>
        <time>2023-12-06T14:36:10Z</time>
      </trkpt>
      <trkpt lat="49.25971" lon="0.17086">
        <ele>63.4</ele>
        <time>2023-12-06T14:36:11Z</time>
      </trkpt>
      <trkpt lat="49.25966" lon="0.1708">
        <ele>63.4</ele>
        <time>2023-12-06T14:36:12Z</time>
      </trkpt>
      <trkpt lat="49.25961" lon="0.17073">
        <ele>63.6</ele>
        <time>2023-12-06T14:36:13Z</time>
      </trkpt>
      <trkpt lat="49.25956" lon="0.17067">
        <ele>63.8</ele>
        <time>2023-12-06T14:36:14Z</time>
      </trkpt>
      <trkpt lat="49.2595" lon="0.1706">
        <ele>63.8</ele>
        <time>2023-12-06T14:36:15Z</time>
      </trkpt>
      <trkpt lat="49.25945" lon="0.17053">
        <ele>63.8</ele>
        <time>2023-12-06T14:36:16Z</time>
      </trkpt>
      <trkpt lat="49.2594" lon="0.17046">
        <ele>64</ele>
        <time>2023-12-06T14:36:17Z</time>
      </trkpt>
      <trkpt lat="49.25934" lon="0.17039">
        <ele>64.2</ele>
        <time>2023-12-06T14:36:18Z</time>
      </trkpt>
      <trkpt lat="49.25929" lon="0.17033">
        <ele>64.4</ele>
        <time>2023-12-06T14:36:19Z</time>
      </trkpt>
      <trkpt lat="49.25923" lon="0.17026">
        <ele>64.4</ele>
        <time>2023-12-06T14:36:20Z</time>
      </trkpt>
      <trkpt lat="49.25918" lon="0.1702">
        <ele>64.4</ele>
        <time>2023-12-06T14:36:21Z</time>
      </trkpt>
      <trkpt lat="49.25912" lon="0.17013">
        <ele>64.4</ele>
        <time>2023-12-06T14:36:22Z</time>
      </trkpt>
      <trkpt lat="49.25907" lon="0.17006">
        <ele>64.4</ele>
        <time>2023-12-06T14:36:23Z</time>
      </trkpt>
      <trkpt lat="49.25902" lon="0.17">
        <ele>64.4</ele>
        <time>2023-12-06T14:36:24Z</time>
      </trkpt>
      <trkpt lat="49.25897" lon="0.16993">
        <ele>64.4</ele>
        <time>2023-12-06T14:36:25Z</time>
      </trkpt>
      <trkpt lat="49.25892" lon="0.16986">
        <ele>64.4</ele>
        <time>2023-12-06T14:36:26Z</time>
      </trkpt>
      <trkpt lat="49.25887" lon="0.16979">
        <ele>64.2</ele>
        <time>2023-12-06T14:36:27Z</time>
      </trkpt>
      <trkpt lat="49.25881" lon="0.16973">
        <ele>64</ele>
        <time>2023-12-06T14:36:28Z</time>
      </trkpt>
      <trkpt lat="49.25876" lon="0.16966">
        <ele>63.8</ele>
        <time>2023-12-06T14:36:29Z</time>
      </trkpt>
      <trkpt lat="49.25871" lon="0.1696">
        <ele>63.8</ele>
        <time>2023-12-06T14:36:30Z</time>
      </trkpt>
      <trkpt lat="49.25866" lon="0.16953">
        <ele>63.6</ele>
        <time>2023-12-06T14:36:31Z</time>
      </trkpt>
      <trkpt lat="49.25861" lon="0.16946">
        <ele>63.4</ele>
        <time>2023-12-06T14:36:32Z</time>
      </trkpt>
      <trkpt lat="49.25856" lon="0.16939">
        <ele>63.4</ele>
        <time>2023-12-06T14:36:33Z</time>
      </trkpt>
      <trkpt lat="49.2585" lon="0.16933">
        <ele>63.2</ele>
        <time>2023-12-06T14:36:34Z</time>
      </trkpt>
      <trkpt lat="49.25845" lon="0.16926">
        <ele>63.2</ele>
        <time>2023-12-06T14:36:35Z</time>
      </trkpt>
      <trkpt lat="49.2584" lon="0.16919">
        <ele>63.2</ele>
        <time>2023-12-06T14:36:36Z</time>
      </trkpt>
      <trkpt lat="49.25835" lon="0.16911">
        <ele>63</ele>
        <time>2023-12-06T14:36:37Z</time>
      </trkpt>
      <trkpt lat="49.25829" lon="0.16904">
        <ele>63</ele>
        <time>2023-12-06T14:36:38Z</time>
      </trkpt>
      <trkpt lat="49.25824" lon="0.16897">
        <ele>62.8</ele>
        <time>2023-12-06T14:36:39Z</time>
      </trkpt>
      <trkpt lat="49.25818" lon="0.16889">
        <ele>62.8</ele>
        <time>2023-12-06T14:36:40Z</time>
      </trkpt>
      <trkpt lat="49.25812" lon="0.16882">
        <ele>63</ele>
        <time>2023-12-06T14:36:41Z</time>
      </trkpt>
      <trkpt lat="49.25806" lon="0.16874">
        <ele>62.8</ele>
        <time>2023-12-06T14:36:42Z</time>
      </trkpt>
      <trkpt lat="49.258" lon="0.16866">
        <ele>62.6</ele>
        <time>2023-12-06T14:36:43Z</time>
      </trkpt>
      <trkpt lat="49.25794" lon="0.16858">
        <ele>62.2</ele>
        <time>2023-12-06T14:36:44Z</time>
      </trkpt>
      <trkpt lat="49.25788" lon="0.16849">
        <ele>62</ele>
        <time>2023-12-06T14:36:45Z</time>
      </trkpt>
      <trkpt lat="49.25782" lon="0.16841">
        <ele>61.6</ele>
        <time>2023-12-06T14:36:46Z</time>
      </trkpt>
      <trkpt lat="49.25775" lon="0.16833">
        <ele>61.2</ele>
        <time>2023-12-06T14:36:47Z</time>
      </trkpt>
      <trkpt lat="49.25769" lon="0.16825">
        <ele>60.8</ele>
        <time>2023-12-06T14:36:48Z</time>
      </trkpt>
      <trkpt lat="49.25763" lon="0.16817">
        <ele>60.2</ele>
        <time>2023-12-06T14:36:49Z</time>
      </trkpt>
      <trkpt lat="49.25756" lon="0.16809">
        <ele>59.4</ele>
        <time>2023-12-06T14:36:50Z</time>
      </trkpt>
      <trkpt lat="49.2575" lon="0.16801">
        <ele>58.8</ele>
        <time>2023-12-06T14:36:51Z</time>
      </trkpt>
      <trkpt lat="49.25743" lon="0.16793">
        <ele>58</ele>
        <time>2023-12-06T14:36:52Z</time>
      </trkpt>
      <trkpt lat="49.25736" lon="0.16785">
        <ele>57.4</ele>
        <time>2023-12-06T14:36:53Z</time>
      </trkpt>
      <trkpt lat="49.25729" lon="0.16777">
        <ele>56.8</ele>
        <time>2023-12-06T14:36:54Z</time>
      </trkpt>
      <trkpt lat="49.25723" lon="0.16768">
        <ele>56.6</ele>
        <time>2023-12-06T14:36:55Z</time>
      </trkpt>
      <trkpt lat="49.25716" lon="0.16759">
        <ele>56.4</ele>
        <time>2023-12-06T14:36:56Z</time>
      </trkpt>
      <trkpt lat="49.2571" lon="0.1675">
        <ele>56.2</ele>
        <time>2023-12-06T14:36:57Z</time>
      </trkpt>
      <trkpt lat="49.25704" lon="0.16742">
        <ele>56</ele>
        <time>2023-12-06T14:36:58Z</time>
      </trkpt>
      <trkpt lat="49.25699" lon="0.16733">
        <ele>55.6</ele>
        <time>2023-12-06T14:36:59Z</time>
      </trkpt>
      <trkpt lat="49.25694" lon="0.16724">
        <ele>55</ele>
        <time>2023-12-06T14:37:00Z</time>
      </trkpt>
      <trkpt lat="49.2569" lon="0.16713">
        <ele>54.6</ele>
        <time>2023-12-06T14:37:01Z</time>
      </trkpt>
      <trkpt lat="49.25686" lon="0.16701">
        <ele>54.2</ele>
        <time>2023-12-06T14:37:02Z</time>
      </trkpt>
      <trkpt lat="49.25682" lon="0.16688">
        <ele>54</ele>
        <time>2023-12-06T14:37:03Z</time>
      </trkpt>
      <trkpt lat="49.25679" lon="0.16674">
        <ele>53.8</ele>
        <time>2023-12-06T14:37:04Z</time>
      </trkpt>
      <trkpt lat="49.25676" lon="0.1666">
        <ele>53.6</ele>
        <time>2023-12-06T14:37:05Z</time>
      </trkpt>
      <trkpt lat="49.25673" lon="0.16645">
        <ele>53.4</ele>
        <time>2023-12-06T14:37:06Z</time>
      </trkpt>
      <trkpt lat="49.2567" lon="0.1663">
        <ele>53.2</ele>
        <time>2023-12-06T14:37:07Z</time>
      </trkpt>
      <trkpt lat="49.25666" lon="0.16615">
        <ele>52.6</ele>
        <time>2023-12-06T14:37:08Z</time>
      </trkpt>
      <trkpt lat="49.25662" lon="0.166">
        <ele>52.4</ele>
        <time>2023-12-06T14:37:09Z</time>
      </trkpt>
      <trkpt lat="49.25657" lon="0.16586">
        <ele>51.6</ele>
        <time>2023-12-06T14:37:10Z</time>
      </trkpt>
      <trkpt lat="49.25651" lon="0.16573">
        <ele>50.8</ele>
        <time>2023-12-06T14:37:11Z</time>
      </trkpt>
      <trkpt lat="49.25643" lon="0.16563">
        <ele>50.2</ele>
        <time>2023-12-06T14:37:12Z</time>
      </trkpt>
      <trkpt lat="49.25635" lon="0.16553">
        <ele>49.2</ele>
        <time>2023-12-06T14:37:13Z</time>
      </trkpt>
      <trkpt lat="49.25627" lon="0.16546">
        <ele>48.4</ele>
        <time>2023-12-06T14:37:14Z</time>
      </trkpt>
      <trkpt lat="49.25618" lon="0.16539">
        <ele>47.2</ele>
        <time>2023-12-06T14:37:15Z</time>
      </trkpt>
      <trkpt lat="49.2561" lon="0.16534">
        <ele>46.6</ele>
        <time>2023-12-06T14:37:16Z</time>
      </trkpt>
      <trkpt lat="49.25602" lon="0.16529">
        <ele>46</ele>
        <time>2023-12-06T14:37:17Z</time>
      </trkpt>
      <trkpt lat="49.25594" lon="0.16524">
        <ele>45.6</ele>
        <time>2023-12-06T14:37:18Z</time>
      </trkpt>
      <trkpt lat="49.25586" lon="0.16521">
        <ele>45.2</ele>
        <time>2023-12-06T14:37:19Z</time>
      </trkpt>
      <trkpt lat="49.25579" lon="0.16517">
        <ele>45.2</ele>
        <time>2023-12-06T14:37:20Z</time>
      </trkpt>
      <trkpt lat="49.25572" lon="0.16514">
        <ele>45</ele>
        <time>2023-12-06T14:37:21Z</time>
      </trkpt>
      <trkpt lat="49.25565" lon="0.1651">
        <ele>45</ele>
        <time>2023-12-06T14:37:22Z</time>
      </trkpt>
      <trkpt lat="49.25558" lon="0.16507">
        <ele>45</ele>
        <time>2023-12-06T14:37:23Z</time>
      </trkpt>
      <trkpt lat="49.25551" lon="0.16504">
        <ele>45</ele>
        <time>2023-12-06T14:37:24Z</time>
      </trkpt>
      <trkpt lat="49.25544" lon="0.16501">
        <ele>45</ele>
        <time>2023-12-06T14:37:25Z</time>
      </trkpt>
      <trkpt lat="49.25537" lon="0.16498">
        <ele>45</ele>
        <time>2023-12-06T14:37:26Z</time>
      </trkpt>
      <trkpt lat="49.2553" lon="0.16495">
        <ele>45</ele>
        <time>2023-12-06T14:37:27Z</time>
      </trkpt>
      <trkpt lat="49.25524" lon="0.16491">
        <ele>45</ele>
        <time>2023-12-06T14:37:28Z</time>
      </trkpt>
      <trkpt lat="49.25517" lon="0.16487">
        <ele>45</ele>
        <time>2023-12-06T14:37:29Z</time>
      </trkpt>
      <trkpt lat="49.25511" lon="0.16484">
        <ele>45.2</ele>
        <time>2023-12-06T14:37:30Z</time>
      </trkpt>
      <trkpt lat="49.25505" lon="0.16481">
        <ele>45.4</ele>
        <time>2023-12-06T14:37:31Z</time>
      </trkpt>
      <trkpt lat="49.25499" lon="0.16478">
        <ele>45.4</ele>
        <time>2023-12-06T14:37:32Z</time>
      </trkpt>
      <trkpt lat="49.25494" lon="0.16475">
        <ele>45.6</ele>
        <time>2023-12-06T14:37:33Z</time>
      </trkpt>
      <trkpt lat="49.25488" lon="0.16472">
        <ele>46</ele>
        <time>2023-12-06T14:37:34Z</time>
      </trkpt>
      <trkpt lat="49.25483" lon="0.1647">
        <ele>46.2</ele>
        <time>2023-12-06T14:37:35Z</time>
      </trkpt>
      <trkpt lat="49.25478" lon="0.16468">
        <ele>46.6</ele>
        <time>2023-12-06T14:37:36Z</time>
      </trkpt>
      <trkpt lat="49.25473" lon="0.16465">
        <ele>47</ele>
        <time>2023-12-06T14:37:37Z</time>
      </trkpt>
      <trkpt lat="49.25467" lon="0.16461">
        <ele>47.4</ele>
        <time>2023-12-06T14:37:38Z</time>
      </trkpt>
      <trkpt lat="49.25462" lon="0.16458">
        <ele>47.6</ele>
        <time>2023-12-06T14:37:39Z</time>
      </trkpt>
      <trkpt lat="49.25456" lon="0.16454">
        <ele>47.8</ele>
        <time>2023-12-06T14:37:40Z</time>
      </trkpt>
      <trkpt lat="49.25451" lon="0.1645">
        <ele>48</ele>
        <time>2023-12-06T14:37:41Z</time>
      </trkpt>
      <trkpt lat="49.25445" lon="0.16446">
        <ele>48.2</ele>
        <time>2023-12-06T14:37:42Z</time>
      </trkpt>
      <trkpt lat="49.2544" lon="0.16442">
        <ele>48.4</ele>
        <time>2023-12-06T14:37:43Z</time>
      </trkpt>
      <trkpt lat="49.25435" lon="0.16437">
        <ele>48.8</ele>
        <time>2023-12-06T14:37:44Z</time>
      </trkpt>
      <trkpt lat="49.25429" lon="0.16432">
        <ele>49.2</ele>
        <time>2023-12-06T14:37:45Z</time>
      </trkpt>
      <trkpt lat="49.25424" lon="0.16427">
        <ele>49.6</ele>
        <time>2023-12-06T14:37:46Z</time>
      </trkpt>
      <trkpt lat="49.25419" lon="0.16421">
        <ele>49.8</ele>
        <time>2023-12-06T14:37:47Z</time>
      </trkpt>
      <trkpt lat="49.25415" lon="0.16414">
        <ele>49.8</ele>
        <time>2023-12-06T14:37:48Z</time>
      </trkpt>
      <trkpt lat="49.2541" lon="0.16407">
        <ele>49.8</ele>
        <time>2023-12-06T14:37:49Z</time>
      </trkpt>
      <trkpt lat="49.25406" lon="0.164">
        <ele>49.8</ele>
        <time>2023-12-06T14:37:50Z</time>
      </trkpt>
      <trkpt lat="49.25401" lon="0.16393">
        <ele>50</ele>
        <time>2023-12-06T14:37:51Z</time>
      </trkpt>
      <trkpt lat="49.25396" lon="0.16386">
        <ele>50</ele>
        <time>2023-12-06T14:37:52Z</time>
      </trkpt>
      <trkpt lat="49.25392" lon="0.16378">
        <ele>50</ele>
        <time>2023-12-06T14:37:53Z</time>
      </trkpt>
      <trkpt lat="49.25387" lon="0.16371">
        <ele>50</ele>
        <time>2023-12-06T14:37:54Z</time>
      </trkpt>
      <trkpt lat="49.25383" lon="0.16364">
        <ele>50</ele>
        <time>2023-12-06T14:37:55Z</time>
      </trkpt>
      <trkpt lat="49.25378" lon="0.16357">
        <ele>50</ele>
        <time>2023-12-06T14:37:56Z</time>
      </trkpt>
      <trkpt lat="49.25374" lon="0.16351">
        <ele>50</ele>
        <time>2023-12-06T14:37:57Z</time>
      </trkpt>
      <trkpt lat="49.2537" lon="0.16344">
        <ele>50</ele>
        <time>2023-12-06T14:37:58Z</time>
      </trkpt>
      <trkpt lat="49.25365" lon="0.16337">
        <ele>49.8</ele>
        <time>2023-12-06T14:37:59Z</time>
      </trkpt>
      <trkpt lat="49.25361" lon="0.1633">
        <ele>49.8</ele>
        <time>2023-12-06T14:38:00Z</time>
      </trkpt>
      <trkpt lat="49.25357" lon="0.16323">
        <ele>49.8</ele>
        <time>2023-12-06T14:38:01Z</time>
      </trkpt>
      <trkpt lat="49.25352" lon="0.16316">
        <ele>49.8</ele>
        <time>2023-12-06T14:38:02Z</time>
      </trkpt>
      <trkpt lat="49.25348" lon="0.16309">
        <ele>49.8</ele>
        <time>2023-12-06T14:38:03Z</time>
      </trkpt>
      <trkpt lat="49.25344" lon="0.16302">
        <ele>49.8</ele>
        <time>2023-12-06T14:38:04Z</time>
      </trkpt>
      <trkpt lat="49.25339" lon="0.16295">
        <ele>49.8</ele>
        <time>2023-12-06T14:38:05Z</time>
      </trkpt>
      <trkpt lat="49.25335" lon="0.16289">
        <ele>49.8</ele>
        <time>2023-12-06T14:38:06Z</time>
      </trkpt>
      <trkpt lat="49.25331" lon="0.16282">
        <ele>49.8</ele>
        <time>2023-12-06T14:38:07Z</time>
      </trkpt>
      <trkpt lat="49.25327" lon="0.16275">
        <ele>49.8</ele>
        <time>2023-12-06T14:38:08Z</time>
      </trkpt>
      <trkpt lat="49.25322" lon="0.16268">
        <ele>49.8</ele>
        <time>2023-12-06T14:38:09Z</time>
      </trkpt>
      <trkpt lat="49.25318" lon="0.16261">
        <ele>49.8</ele>
        <time>2023-12-06T14:38:10Z</time>
      </trkpt>
      <trkpt lat="49.25314" lon="0.16254">
        <ele>49.8</ele>
        <time>2023-12-06T14:38:11Z</time>
      </trkpt>
      <trkpt lat="49.25309" lon="0.16247">
        <ele>49.8</ele>
        <time>2023-12-06T14:38:12Z</time>
      </trkpt>
      <trkpt lat="49.25305" lon="0.16241">
        <ele>49.8</ele>
        <time>2023-12-06T14:38:13Z</time>
      </trkpt>
      <trkpt lat="49.25301" lon="0.16234">
        <ele>49.8</ele>
        <time>2023-12-06T14:38:14Z</time>
      </trkpt>
      <trkpt lat="49.25296" lon="0.16227">
        <ele>49.8</ele>
        <time>2023-12-06T14:38:15Z</time>
      </trkpt>
      <trkpt lat="49.25292" lon="0.16221">
        <ele>49.8</ele>
        <time>2023-12-06T14:38:16Z</time>
      </trkpt>
      <trkpt lat="49.25287" lon="0.16214">
        <ele>49.8</ele>
        <time>2023-12-06T14:38:17Z</time>
      </trkpt>
      <trkpt lat="49.25282" lon="0.16207">
        <ele>49.8</ele>
        <time>2023-12-06T14:38:18Z</time>
      </trkpt>
      <trkpt lat="49.25278" lon="0.16201">
        <ele>49.8</ele>
        <time>2023-12-06T14:38:19Z</time>
      </trkpt>
      <trkpt lat="49.25273" lon="0.16194">
        <ele>50</ele>
        <time>2023-12-06T14:38:20Z</time>
      </trkpt>
      <trkpt lat="49.25269" lon="0.16187">
        <ele>50.2</ele>
        <time>2023-12-06T14:38:21Z</time>
      </trkpt>
      <trkpt lat="49.25265" lon="0.1618">
        <ele>50.2</ele>
        <time>2023-12-06T14:38:22Z</time>
      </trkpt>
      <trkpt lat="49.2526" lon="0.16173">
        <ele>50.2</ele>
        <time>2023-12-06T14:38:23Z</time>
      </trkpt>
      <trkpt lat="49.25256" lon="0.16166">
        <ele>50.4</ele>
        <time>2023-12-06T14:38:24Z</time>
      </trkpt>
      <trkpt lat="49.25251" lon="0.16159">
        <ele>50.4</ele>
        <time>2023-12-06T14:38:25Z</time>
      </trkpt>
      <trkpt lat="49.25247" lon="0.16153">
        <ele>50.4</ele>
        <time>2023-12-06T14:38:26Z</time>
      </trkpt>
      <trkpt lat="49.25242" lon="0.16146">
        <ele>50.6</ele>
        <time>2023-12-06T14:38:27Z</time>
      </trkpt>
      <trkpt lat="49.25237" lon="0.16139">
        <ele>50.6</ele>
        <time>2023-12-06T14:38:28Z</time>
      </trkpt>
      <trkpt lat="49.25232" lon="0.16132">
        <ele>50.6</ele>
        <time>2023-12-06T14:38:29Z</time>
      </trkpt>
      <trkpt lat="49.25226" lon="0.16126">
        <ele>50.8</ele>
        <time>2023-12-06T14:38:30Z</time>
      </trkpt>
      <trkpt lat="49.2522" lon="0.1612">
        <ele>50.8</ele>
        <time>2023-12-06T14:38:31Z</time>
      </trkpt>
      <trkpt lat="49.25214" lon="0.16116">
        <ele>50.8</ele>
        <time>2023-12-06T14:38:32Z</time>
      </trkpt>
      <trkpt lat="49.25207" lon="0.16111">
        <ele>50.8</ele>
        <time>2023-12-06T14:38:33Z</time>
      </trkpt>
      <trkpt lat="49.252" lon="0.16107">
        <ele>50.8</ele>
        <time>2023-12-06T14:38:34Z</time>
      </trkpt>
      <trkpt lat="49.25193" lon="0.16105">
        <ele>50.8</ele>
        <time>2023-12-06T14:38:35Z</time>
      </trkpt>
      <trkpt lat="49.25185" lon="0.16102">
        <ele>50.8</ele>
        <time>2023-12-06T14:38:36Z</time>
      </trkpt>
      <trkpt lat="49.25178" lon="0.16101">
        <ele>50.8</ele>
        <time>2023-12-06T14:38:37Z</time>
      </trkpt>
      <trkpt lat="49.2517" lon="0.161">
        <ele>50.8</ele>
        <time>2023-12-06T14:38:38Z</time>
      </trkpt>
      <trkpt lat="49.25162" lon="0.16099">
        <ele>50.8</ele>
        <time>2023-12-06T14:38:39Z</time>
      </trkpt>
      <trkpt lat="49.25154" lon="0.16099">
        <ele>50.6</ele>
        <time>2023-12-06T14:38:40Z</time>
      </trkpt>
      <trkpt lat="49.25147" lon="0.161">
        <ele>50.2</ele>
        <time>2023-12-06T14:38:41Z</time>
      </trkpt>
      <trkpt lat="49.25139" lon="0.161">
        <ele>49.8</ele>
        <time>2023-12-06T14:38:42Z</time>
      </trkpt>
      <trkpt lat="49.25132" lon="0.16101">
        <ele>49.6</ele>
        <time>2023-12-06T14:38:43Z</time>
      </trkpt>
      <trkpt lat="49.25125" lon="0.16102">
        <ele>49</ele>
        <time>2023-12-06T14:38:44Z</time>
      </trkpt>
      <trkpt lat="49.25118" lon="0.16103">
        <ele>48.6</ele>
        <time>2023-12-06T14:38:45Z</time>
      </trkpt>
      <trkpt lat="49.25111" lon="0.16103">
        <ele>48.2</ele>
        <time>2023-12-06T14:38:46Z</time>
      </trkpt>
      <trkpt lat="49.25104" lon="0.16104">
        <ele>47.8</ele>
        <time>2023-12-06T14:38:47Z</time>
      </trkpt>
      <trkpt lat="49.25098" lon="0.16105">
        <ele>47.6</ele>
        <time>2023-12-06T14:38:48Z</time>
      </trkpt>
      <trkpt lat="49.25091" lon="0.16107">
        <ele>47.6</ele>
        <time>2023-12-06T14:38:49Z</time>
      </trkpt>
      <trkpt lat="49.25084" lon="0.16108">
        <ele>47.6</ele>
        <time>2023-12-06T14:38:50Z</time>
      </trkpt>
      <trkpt lat="49.25077" lon="0.16109">
        <ele>47.6</ele>
        <time>2023-12-06T14:38:51Z</time>
      </trkpt>
      <trkpt lat="49.2507" lon="0.1611">
        <ele>47.4</ele>
        <time>2023-12-06T14:38:52Z</time>
      </trkpt>
      <trkpt lat="49.25064" lon="0.16111">
        <ele>47.4</ele>
        <time>2023-12-06T14:38:53Z</time>
      </trkpt>
      <trkpt lat="49.25058" lon="0.16112">
        <ele>47.4</ele>
        <time>2023-12-06T14:38:54Z</time>
      </trkpt>
      <trkpt lat="49.25052" lon="0.16113">
        <ele>47.4</ele>
        <time>2023-12-06T14:38:55Z</time>
      </trkpt>
      <trkpt lat="49.25046" lon="0.16115">
        <ele>47.4</ele>
        <time>2023-12-06T14:38:56Z</time>
      </trkpt>
      <trkpt lat="49.2504" lon="0.16116">
        <ele>47.4</ele>
        <time>2023-12-06T14:38:57Z</time>
      </trkpt>
      <trkpt lat="49.25034" lon="0.16117">
        <ele>47.6</ele>
        <time>2023-12-06T14:38:58Z</time>
      </trkpt>
      <trkpt lat="49.25028" lon="0.16117">
        <ele>47.6</ele>
        <time>2023-12-06T14:38:59Z</time>
      </trkpt>
      <trkpt lat="49.25022" lon="0.16118">
        <ele>47.8</ele>
        <time>2023-12-06T14:39:00Z</time>
      </trkpt>
      <trkpt lat="49.25016" lon="0.16119">
        <ele>48</ele>
        <time>2023-12-06T14:39:01Z</time>
      </trkpt>
      <trkpt lat="49.2501" lon="0.1612">
        <ele>48</ele>
        <time>2023-12-06T14:39:02Z</time>
      </trkpt>
      <trkpt lat="49.25004" lon="0.1612">
        <ele>48.4</ele>
        <time>2023-12-06T14:39:03Z</time>
      </trkpt>
      <trkpt lat="49.24998" lon="0.16121">
        <ele>48.6</ele>
        <time>2023-12-06T14:39:04Z</time>
      </trkpt>
      <trkpt lat="49.24992" lon="0.16122">
        <ele>48.8</ele>
        <time>2023-12-06T14:39:05Z</time>
      </trkpt>
      <trkpt lat="49.24986" lon="0.16122">
        <ele>49</ele>
        <time>2023-12-06T14:39:06Z</time>
      </trkpt>
      <trkpt lat="49.24981" lon="0.16123">
        <ele>49.2</ele>
        <time>2023-12-06T14:39:07Z</time>
      </trkpt>
      <trkpt lat="49.24975" lon="0.16123">
        <ele>49.4</ele>
        <time>2023-12-06T14:39:08Z</time>
      </trkpt>
      <trkpt lat="49.24969" lon="0.16124">
        <ele>49.6</ele>
        <time>2023-12-06T14:39:09Z</time>
      </trkpt>
      <trkpt lat="49.24963" lon="0.16124">
        <ele>50</ele>
        <time>2023-12-06T14:39:10Z</time>
      </trkpt>
      <trkpt lat="49.24957" lon="0.16125">
        <ele>50.2</ele>
        <time>2023-12-06T14:39:11Z</time>
      </trkpt>
      <trkpt lat="49.24952" lon="0.16126">
        <ele>50.4</ele>
        <time>2023-12-06T14:39:12Z</time>
      </trkpt>
      <trkpt lat="49.24946" lon="0.16128">
        <ele>50.6</ele>
        <time>2023-12-06T14:39:13Z</time>
      </trkpt>
      <trkpt lat="49.2494" lon="0.16129">
        <ele>50.8</ele>
        <time>2023-12-06T14:39:14Z</time>
      </trkpt>
      <trkpt lat="49.24934" lon="0.1613">
        <ele>50.8</ele>
        <time>2023-12-06T14:39:15Z</time>
      </trkpt>
      <trkpt lat="49.24928" lon="0.1613">
        <ele>51.2</ele>
        <time>2023-12-06T14:39:16Z</time>
      </trkpt>
      <trkpt lat="49.24922" lon="0.16131">
        <ele>51.4</ele>
        <time>2023-12-06T14:39:17Z</time>
      </trkpt>
      <trkpt lat="49.24916" lon="0.16132">
        <ele>51.4</ele>
        <time>2023-12-06T14:39:18Z</time>
      </trkpt>
      <trkpt lat="49.2491" lon="0.16133">
        <ele>51.6</ele>
        <time>2023-12-06T14:39:19Z</time>
      </trkpt>
      <trkpt lat="49.24905" lon="0.16133">
        <ele>51.8</ele>
        <time>2023-12-06T14:39:20Z</time>
      </trkpt>
      <trkpt lat="49.24899" lon="0.16133">
        <ele>52</ele>
        <time>2023-12-06T14:39:21Z</time>
      </trkpt>
      <trkpt lat="49.24894" lon="0.16134">
        <ele>52.2</ele>
        <time>2023-12-06T14:39:22Z</time>
      </trkpt>
      <trkpt lat="49.24888" lon="0.16135">
        <ele>52.4</ele>
        <time>2023-12-06T14:39:23Z</time>
      </trkpt>
      <trkpt lat="49.24882" lon="0.16136">
        <ele>52.4</ele>
        <time>2023-12-06T14:39:24Z</time>
      </trkpt>
      <trkpt lat="49.24877" lon="0.16136">
        <ele>52.4</ele>
        <time>2023-12-06T14:39:25Z</time>
      </trkpt>
      <trkpt lat="49.24871" lon="0.16137">
        <ele>52.4</ele>
        <time>2023-12-06T14:39:26Z</time>
      </trkpt>
      <trkpt lat="49.24866" lon="0.16138">
        <ele>52.8</ele>
        <time>2023-12-06T14:39:27Z</time>
      </trkpt>
      <trkpt lat="49.2486" lon="0.16138">
        <ele>53</ele>
        <time>2023-12-06T14:39:28Z</time>
      </trkpt>
      <trkpt lat="49.24855" lon="0.16139">
        <ele>53.2</ele>
        <time>2023-12-06T14:39:29Z</time>
      </trkpt>
      <trkpt lat="49.2485" lon="0.16139">
        <ele>53.6</ele>
        <time>2023-12-06T14:39:30Z</time>
      </trkpt>
      <trkpt lat="49.24844" lon="0.1614">
        <ele>53.8</ele>
        <time>2023-12-06T14:39:31Z</time>
      </trkpt>
      <trkpt lat="49.24839" lon="0.1614">
        <ele>54</ele>
        <time>2023-12-06T14:39:32Z</time>
      </trkpt>
      <trkpt lat="49.24833" lon="0.1614">
        <ele>54.2</ele>
        <time>2023-12-06T14:39:33Z</time>
      </trkpt>
      <trkpt lat="49.24828" lon="0.16141">
        <ele>54.4</ele>
        <time>2023-12-06T14:39:34Z</time>
      </trkpt>
      <trkpt lat="49.24823" lon="0.16141">
        <ele>54.4</ele>
        <time>2023-12-06T14:39:35Z</time>
      </trkpt>
      <trkpt lat="49.24817" lon="0.16142">
        <ele>54.4</ele>
        <time>2023-12-06T14:39:36Z</time>
      </trkpt>
      <trkpt lat="49.24811" lon="0.16143">
        <ele>54.4</ele>
        <time>2023-12-06T14:39:37Z</time>
      </trkpt>
      <trkpt lat="49.24806" lon="0.16144">
        <ele>54.6</ele>
        <time>2023-12-06T14:39:38Z</time>
      </trkpt>
      <trkpt lat="49.248" lon="0.16144">
        <ele>54.6</ele>
        <time>2023-12-06T14:39:39Z</time>
      </trkpt>
      <trkpt lat="49.24795" lon="0.16145">
        <ele>54.6</ele>
        <time>2023-12-06T14:39:40Z</time>
      </trkpt>
      <trkpt lat="49.2479" lon="0.16145">
        <ele>54.8</ele>
        <time>2023-12-06T14:39:41Z</time>
      </trkpt>
      <trkpt lat="49.24784" lon="0.16146">
        <ele>54.8</ele>
        <time>2023-12-06T14:39:42Z</time>
      </trkpt>
      <trkpt lat="49.24779" lon="0.16147">
        <ele>55</ele>
        <time>2023-12-06T14:39:43Z</time>
      </trkpt>
      <trkpt lat="49.24773" lon="0.16148">
        <ele>55</ele>
        <time>2023-12-06T14:39:44Z</time>
      </trkpt>
      <trkpt lat="49.24768" lon="0.16149">
        <ele>55</ele>
        <time>2023-12-06T14:39:45Z</time>
      </trkpt>
      <trkpt lat="49.24762" lon="0.1615">
        <ele>55.2</ele>
        <time>2023-12-06T14:39:46Z</time>
      </trkpt>
      <trkpt lat="49.24756" lon="0.16152">
        <ele>55.2</ele>
        <time>2023-12-06T14:39:47Z</time>
      </trkpt>
      <trkpt lat="49.24751" lon="0.16153">
        <ele>55.2</ele>
        <time>2023-12-06T14:39:48Z</time>
      </trkpt>
      <trkpt lat="49.24745" lon="0.16154">
        <ele>55.4</ele>
        <time>2023-12-06T14:39:49Z</time>
      </trkpt>
      <trkpt lat="49.24739" lon="0.16156">
        <ele>55.4</ele>
        <time>2023-12-06T14:39:50Z</time>
      </trkpt>
      <trkpt lat="49.24733" lon="0.16158">
        <ele>55.4</ele>
        <time>2023-12-06T14:39:51Z</time>
      </trkpt>
      <trkpt lat="49.24728" lon="0.16159">
        <ele>55.6</ele>
        <time>2023-12-06T14:39:52Z</time>
      </trkpt>
      <trkpt lat="49.24722" lon="0.16161">
        <ele>55.6</ele>
        <time>2023-12-06T14:39:53Z</time>
      </trkpt>
      <trkpt lat="49.24717" lon="0.16163">
        <ele>55.6</ele>
        <time>2023-12-06T14:39:54Z</time>
      </trkpt>
      <trkpt lat="49.24712" lon="0.16165">
        <ele>55.8</ele>
        <time>2023-12-06T14:39:55Z</time>
      </trkpt>
      <trkpt lat="49.24706" lon="0.16168">
        <ele>55.8</ele>
        <time>2023-12-06T14:39:56Z</time>
      </trkpt>
      <trkpt lat="49.24701" lon="0.1617">
        <ele>56</ele>
        <time>2023-12-06T14:39:57Z</time>
      </trkpt>
      <trkpt lat="49.24695" lon="0.16173">
        <ele>56</ele>
        <time>2023-12-06T14:39:58Z</time>
      </trkpt>
      <trkpt lat="49.2469" lon="0.16176">
        <ele>56</ele>
        <time>2023-12-06T14:39:59Z</time>
      </trkpt>
      <trkpt lat="49.24685" lon="0.1618">
        <ele>56</ele>
        <time>2023-12-06T14:40:00Z</time>
      </trkpt>
      <trkpt lat="49.2468" lon="0.16183">
        <ele>56</ele>
        <time>2023-12-06T14:40:01Z</time>
      </trkpt>
      <trkpt lat="49.24676" lon="0.16187">
        <ele>56.2</ele>
        <time>2023-12-06T14:40:02Z</time>
      </trkpt>
      <trkpt lat="49.24671" lon="0.1619">
        <ele>56.2</ele>
        <time>2023-12-06T14:40:03Z</time>
      </trkpt>
      <trkpt lat="49.24666" lon="0.16193">
        <ele>56.4</ele>
        <time>2023-12-06T14:40:04Z</time>
      </trkpt>
      <trkpt lat="49.24662" lon="0.16197">
        <ele>56.4</ele>
        <time>2023-12-06T14:40:05Z</time>
      </trkpt>
      <trkpt lat="49.24657" lon="0.16201">
        <ele>56.6</ele>
        <time>2023-12-06T14:40:06Z</time>
      </trkpt>
      <trkpt lat="49.24652" lon="0.16205">
        <ele>56.6</ele>
        <time>2023-12-06T14:40:07Z</time>
      </trkpt>
      <trkpt lat="49.24648" lon="0.1621">
        <ele>56.8</ele>
        <time>2023-12-06T14:40:08Z</time>
      </trkpt>
      <trkpt lat="49.24643" lon="0.16214">
        <ele>56.8</ele>
        <time>2023-12-06T14:40:09Z</time>
      </trkpt>
      <trkpt lat="49.24639" lon="0.16218">
        <ele>57</ele>
        <time>2023-12-06T14:40:10Z</time>
      </trkpt>
      <trkpt lat="49.24634" lon="0.16223">
        <ele>57.2</ele>
        <time>2023-12-06T14:40:11Z</time>
      </trkpt>
      <trkpt lat="49.2463" lon="0.16227">
        <ele>57.2</ele>
        <time>2023-12-06T14:40:12Z</time>
      </trkpt>
      <trkpt lat="49.24625" lon="0.16231">
        <ele>57.4</ele>
        <time>2023-12-06T14:40:13Z</time>
      </trkpt>
      <trkpt lat="49.24621" lon="0.16235">
        <ele>57.6</ele>
        <time>2023-12-06T14:40:14Z</time>
      </trkpt>
      <trkpt lat="49.24616" lon="0.1624">
        <ele>57.8</ele>
        <time>2023-12-06T14:40:15Z</time>
      </trkpt>
      <trkpt lat="49.24612" lon="0.16243">
        <ele>58</ele>
        <time>2023-12-06T14:40:16Z</time>
      </trkpt>
      <trkpt lat="49.24607" lon="0.16248">
        <ele>58.2</ele>
        <time>2023-12-06T14:40:17Z</time>
      </trkpt>
      <trkpt lat="49.24602" lon="0.16251">
        <ele>58.4</ele>
        <time>2023-12-06T14:40:18Z</time>
      </trkpt>
      <trkpt lat="49.24597" lon="0.16255">
        <ele>58.4</ele>
        <time>2023-12-06T14:40:19Z</time>
      </trkpt>
      <trkpt lat="49.24592" lon="0.16258">
        <ele>58.4</ele>
        <time>2023-12-06T14:40:20Z</time>
      </trkpt>
      <trkpt lat="49.24586" lon="0.16261">
        <ele>58.4</ele>
        <time>2023-12-06T14:40:21Z</time>
      </trkpt>
      <trkpt lat="49.24581" lon="0.16264">
        <ele>58.4</ele>
        <time>2023-12-06T14:40:22Z</time>
      </trkpt>
      <trkpt lat="49.24575" lon="0.16266">
        <ele>58.6</ele>
        <time>2023-12-06T14:40:23Z</time>
      </trkpt>
      <trkpt lat="49.2457" lon="0.16268">
        <ele>58.6</ele>
        <time>2023-12-06T14:40:24Z</time>
      </trkpt>
      <trkpt lat="49.24564" lon="0.16269">
        <ele>58.6</ele>
        <time>2023-12-06T14:40:25Z</time>
      </trkpt>
      <trkpt lat="49.24558" lon="0.16271">
        <ele>58.6</ele>
        <time>2023-12-06T14:40:26Z</time>
      </trkpt>
      <trkpt lat="49.24552" lon="0.16272">
        <ele>58.6</ele>
        <time>2023-12-06T14:40:27Z</time>
      </trkpt>
      <trkpt lat="49.24546" lon="0.16274">
        <ele>58.6</ele>
        <time>2023-12-06T14:40:28Z</time>
      </trkpt>
      <trkpt lat="49.24541" lon="0.16275">
        <ele>58.6</ele>
        <time>2023-12-06T14:40:29Z</time>
      </trkpt>
      <trkpt lat="49.24535" lon="0.16276">
        <ele>58.6</ele>
        <time>2023-12-06T14:40:30Z</time>
      </trkpt>
      <trkpt lat="49.24529" lon="0.16277">
        <ele>58.6</ele>
        <time>2023-12-06T14:40:31Z</time>
      </trkpt>
      <trkpt lat="49.24523" lon="0.16278">
        <ele>58.6</ele>
        <time>2023-12-06T14:40:32Z</time>
      </trkpt>
      <trkpt lat="49.24517" lon="0.1628">
        <ele>58.6</ele>
        <time>2023-12-06T14:40:33Z</time>
      </trkpt>
      <trkpt lat="49.24512" lon="0.16281">
        <ele>58.6</ele>
        <time>2023-12-06T14:40:34Z</time>
      </trkpt>
      <trkpt lat="49.24506" lon="0.16282">
        <ele>58.6</ele>
        <time>2023-12-06T14:40:35Z</time>
      </trkpt>
      <trkpt lat="49.245" lon="0.16283">
        <ele>58.6</ele>
        <time>2023-12-06T14:40:36Z</time>
      </trkpt>
      <trkpt lat="49.24495" lon="0.16284">
        <ele>58.6</ele>
        <time>2023-12-06T14:40:37Z</time>
      </trkpt>
      <trkpt lat="49.24489" lon="0.16285">
        <ele>58.6</ele>
        <time>2023-12-06T14:40:38Z</time>
      </trkpt>
      <trkpt lat="49.24483" lon="0.16286">
        <ele>58.6</ele>
        <time>2023-12-06T14:40:39Z</time>
      </trkpt>
      <trkpt lat="49.24477" lon="0.16286">
        <ele>58.6</ele>
        <time>2023-12-06T14:40:40Z</time>
      </trkpt>
      <trkpt lat="49.24471" lon="0.16287">
        <ele>58.6</ele>
        <time>2023-12-06T14:40:41Z</time>
      </trkpt>
      <trkpt lat="49.24465" lon="0.16287">
        <ele>58.6</ele>
        <time>2023-12-06T14:40:42Z</time>
      </trkpt>
      <trkpt lat="49.24459" lon="0.16287">
        <ele>58.8</ele>
        <time>2023-12-06T14:40:43Z</time>
      </trkpt>
      <trkpt lat="49.24453" lon="0.16286">
        <ele>58.8</ele>
        <time>2023-12-06T14:40:44Z</time>
      </trkpt>
      <trkpt lat="49.24447" lon="0.16285">
        <ele>58.8</ele>
        <time>2023-12-06T14:40:45Z</time>
      </trkpt>
      <trkpt lat="49.24442" lon="0.16284">
        <ele>58.8</ele>
        <time>2023-12-06T14:40:46Z</time>
      </trkpt>
      <trkpt lat="49.24436" lon="0.16283">
        <ele>58.8</ele>
        <time>2023-12-06T14:40:47Z</time>
      </trkpt>
      <trkpt lat="49.2443" lon="0.16281">
        <ele>59</ele>
        <time>2023-12-06T14:40:48Z</time>
      </trkpt>
      <trkpt lat="49.24424" lon="0.16279">
        <ele>59</ele>
        <time>2023-12-06T14:40:49Z</time>
      </trkpt>
      <trkpt lat="49.24418" lon="0.16278">
        <ele>59</ele>
        <time>2023-12-06T14:40:50Z</time>
      </trkpt>
      <trkpt lat="49.24412" lon="0.16276">
        <ele>59</ele>
        <time>2023-12-06T14:40:51Z</time>
      </trkpt>
      <trkpt lat="49.24406" lon="0.16274">
        <ele>59.2</ele>
        <time>2023-12-06T14:40:52Z</time>
      </trkpt>
      <trkpt lat="49.244" lon="0.16272">
        <ele>59.2</ele>
        <time>2023-12-06T14:40:53Z</time>
      </trkpt>
      <trkpt lat="49.24394" lon="0.1627">
        <ele>59.4</ele>
        <time>2023-12-06T14:40:54Z</time>
      </trkpt>
      <trkpt lat="49.24389" lon="0.16268">
        <ele>59.4</ele>
        <time>2023-12-06T14:40:55Z</time>
      </trkpt>
      <trkpt lat="49.24383" lon="0.16266">
        <ele>59.4</ele>
        <time>2023-12-06T14:40:56Z</time>
      </trkpt>
      <trkpt lat="49.24377" lon="0.16264">
        <ele>59.6</ele>
        <time>2023-12-06T14:40:57Z</time>
      </trkpt>
      <trkpt lat="49.24371" lon="0.16262">
        <ele>59.6</ele>
        <time>2023-12-06T14:40:58Z</time>
      </trkpt>
      <trkpt lat="49.24365" lon="0.1626">
        <ele>59.6</ele>
        <time>2023-12-06T14:40:59Z</time>
      </trkpt>
      <trkpt lat="49.24359" lon="0.16258">
        <ele>59.6</ele>
        <time>2023-12-06T14:41:00Z</time>
      </trkpt>
      <trkpt lat="49.24353" lon="0.16256">
        <ele>59.8</ele>
        <time>2023-12-06T14:41:01Z</time>
      </trkpt>
      <trkpt lat="49.24347" lon="0.16254">
        <ele>59.8</ele>
        <time>2023-12-06T14:41:02Z</time>
      </trkpt>
      <trkpt lat="49.24341" lon="0.16253">
        <ele>60</ele>
        <time>2023-12-06T14:41:03Z</time>
      </trkpt>
      <trkpt lat="49.24335" lon="0.16251">
        <ele>60</ele>
        <time>2023-12-06T14:41:04Z</time>
      </trkpt>
      <trkpt lat="49.24329" lon="0.16249">
        <ele>60</ele>
        <time>2023-12-06T14:41:05Z</time>
      </trkpt>
      <trkpt lat="49.24323" lon="0.16248">
        <ele>60</ele>
        <time>2023-12-06T14:41:06Z</time>
      </trkpt>
      <trkpt lat="49.24316" lon="0.16246">
        <ele>60</ele>
        <time>2023-12-06T14:41:07Z</time>
      </trkpt>
      <trkpt lat="49.2431" lon="0.16244">
        <ele>60.2</ele>
        <time>2023-12-06T14:41:08Z</time>
      </trkpt>
      <trkpt lat="49.24304" lon="0.16242">
        <ele>60.2</ele>
        <time>2023-12-06T14:41:09Z</time>
      </trkpt>
      <trkpt lat="49.24298" lon="0.1624">
        <ele>60.2</ele>
        <time>2023-12-06T14:41:10Z</time>
      </trkpt>
      <trkpt lat="49.24292" lon="0.16239">
        <ele>60.2</ele>
        <time>2023-12-06T14:41:11Z</time>
      </trkpt>
      <trkpt lat="49.24287" lon="0.16237">
        <ele>60.2</ele>
        <time>2023-12-06T14:41:12Z</time>
      </trkpt>
      <trkpt lat="49.24281" lon="0.16236">
        <ele>60.2</ele>
        <time>2023-12-06T14:41:13Z</time>
      </trkpt>
      <trkpt lat="49.24275" lon="0.16234">
        <ele>60.2</ele>
        <time>2023-12-06T14:41:14Z</time>
      </trkpt>
      <trkpt lat="49.2427" lon="0.16232">
        <ele>60.2</ele>
        <time>2023-12-06T14:41:15Z</time>
      </trkpt>
      <trkpt lat="49.24265" lon="0.1623">
        <ele>60.2</ele>
        <time>2023-12-06T14:41:16Z</time>
      </trkpt>
      <trkpt lat="49.2426" lon="0.16229">
        <ele>60.2</ele>
        <time>2023-12-06T14:41:17Z</time>
      </trkpt>
      <trkpt lat="49.24255" lon="0.16227">
        <ele>60.4</ele>
        <time>2023-12-06T14:41:18Z</time>
      </trkpt>
      <trkpt lat="49.2425" lon="0.16225">
        <ele>60.4</ele>
        <time>2023-12-06T14:41:19Z</time>
      </trkpt>
      <trkpt lat="49.24245" lon="0.16224">
        <ele>60.6</ele>
        <time>2023-12-06T14:41:20Z</time>
      </trkpt>
      <trkpt lat="49.2424" lon="0.16222">
        <ele>60.6</ele>
        <time>2023-12-06T14:41:21Z</time>
      </trkpt>
      <trkpt lat="49.24234" lon="0.16221">
        <ele>60.8</ele>
        <time>2023-12-06T14:41:22Z</time>
      </trkpt>
      <trkpt lat="49.24229" lon="0.1622">
        <ele>60.8</ele>
        <time>2023-12-06T14:41:23Z</time>
      </trkpt>
      <trkpt lat="49.24224" lon="0.16219">
        <ele>61</ele>
        <time>2023-12-06T14:41:24Z</time>
      </trkpt>
      <trkpt lat="49.24218" lon="0.16218">
        <ele>61</ele>
        <time>2023-12-06T14:41:25Z</time>
      </trkpt>
      <trkpt lat="49.24213" lon="0.16217">
        <ele>61.2</ele>
        <time>2023-12-06T14:41:26Z</time>
      </trkpt>
      <trkpt lat="49.24208" lon="0.16216">
        <ele>61.6</ele>
        <time>2023-12-06T14:41:27Z</time>
      </trkpt>
      <trkpt lat="49.24203" lon="0.16215">
        <ele>61.8</ele>
        <time>2023-12-06T14:41:28Z</time>
      </trkpt>
      <trkpt lat="49.24197" lon="0.16214">
        <ele>62.2</ele>
        <time>2023-12-06T14:41:29Z</time>
      </trkpt>
      <trkpt lat="49.24192" lon="0.16213">
        <ele>62.4</ele>
        <time>2023-12-06T14:41:30Z</time>
      </trkpt>
      <trkpt lat="49.24186" lon="0.16213">
        <ele>62.8</ele>
        <time>2023-12-06T14:41:31Z</time>
      </trkpt>
      <trkpt lat="49.24181" lon="0.16213">
        <ele>63</ele>
        <time>2023-12-06T14:41:32Z</time>
      </trkpt>
      <trkpt lat="49.24176" lon="0.16213">
        <ele>63.4</ele>
        <time>2023-12-06T14:41:33Z</time>
      </trkpt>
      <trkpt lat="49.2417" lon="0.16213">
        <ele>63.8</ele>
        <time>2023-12-06T14:41:34Z</time>
      </trkpt>
      <trkpt lat="49.24165" lon="0.16213">
        <ele>64</ele>
        <time>2023-12-06T14:41:35Z</time>
      </trkpt>
      <trkpt lat="49.24159" lon="0.16214">
        <ele>64.2</ele>
        <time>2023-12-06T14:41:36Z</time>
      </trkpt>
      <trkpt lat="49.24154" lon="0.16214">
        <ele>64.2</ele>
        <time>2023-12-06T14:41:37Z</time>
      </trkpt>
      <trkpt lat="49.24149" lon="0.16214">
        <ele>64.4</ele>
        <time>2023-12-06T14:41:38Z</time>
      </trkpt>
      <trkpt lat="49.24143" lon="0.16213">
        <ele>64.6</ele>
        <time>2023-12-06T14:41:39Z</time>
      </trkpt>
      <trkpt lat="49.24138" lon="0.16213">
        <ele>64.8</ele>
        <time>2023-12-06T14:41:40Z</time>
      </trkpt>
      <trkpt lat="49.24133" lon="0.16213">
        <ele>65</ele>
        <time>2023-12-06T14:41:41Z</time>
      </trkpt>
      <trkpt lat="49.24128" lon="0.16213">
        <ele>65.2</ele>
        <time>2023-12-06T14:41:42Z</time>
      </trkpt>
      <trkpt lat="49.24122" lon="0.16212">
        <ele>65.4</ele>
        <time>2023-12-06T14:41:43Z</time>
      </trkpt>
      <trkpt lat="49.24117" lon="0.1621">
        <ele>65.6</ele>
        <time>2023-12-06T14:41:44Z</time>
      </trkpt>
      <trkpt lat="49.24112" lon="0.16209">
        <ele>65.8</ele>
        <time>2023-12-06T14:41:45Z</time>
      </trkpt>
      <trkpt lat="49.24107" lon="0.16206">
        <ele>66</ele>
        <time>2023-12-06T14:41:46Z</time>
      </trkpt>
      <trkpt lat="49.24103" lon="0.16204">
        <ele>66.2</ele>
        <time>2023-12-06T14:41:47Z</time>
      </trkpt>
      <trkpt lat="49.24098" lon="0.16202">
        <ele>66.6</ele>
        <time>2023-12-06T14:41:48Z</time>
      </trkpt>
      <trkpt lat="49.24094" lon="0.162">
        <ele>66.8</ele>
        <time>2023-12-06T14:41:49Z</time>
      </trkpt>
      <trkpt lat="49.2409" lon="0.16198">
        <ele>67.2</ele>
        <time>2023-12-06T14:41:50Z</time>
      </trkpt>
      <trkpt lat="49.24085" lon="0.16195">
        <ele>67.4</ele>
        <time>2023-12-06T14:41:51Z</time>
      </trkpt>
      <trkpt lat="49.24081" lon="0.16192">
        <ele>67.6</ele>
        <time>2023-12-06T14:41:52Z</time>
      </trkpt>
      <trkpt lat="49.24078" lon="0.16188">
        <ele>67.8</ele>
        <time>2023-12-06T14:41:53Z</time>
      </trkpt>
      <trkpt lat="49.24074" lon="0.16185">
        <ele>68</ele>
        <time>2023-12-06T14:41:54Z</time>
      </trkpt>
      <trkpt lat="49.24069" lon="0.16182">
        <ele>68.2</ele>
        <time>2023-12-06T14:41:55Z</time>
      </trkpt>
      <trkpt lat="49.24065" lon="0.16178">
        <ele>68.6</ele>
        <time>2023-12-06T14:41:56Z</time>
      </trkpt>
      <trkpt lat="49.24061" lon="0.16175">
        <ele>69</ele>
        <time>2023-12-06T14:41:57Z</time>
      </trkpt>
      <trkpt lat="49.24057" lon="0.16171">
        <ele>69.4</ele>
        <time>2023-12-06T14:41:58Z</time>
      </trkpt>
      <trkpt lat="49.24053" lon="0.16168">
        <ele>69.6</ele>
        <time>2023-12-06T14:41:59Z</time>
      </trkpt>
      <trkpt lat="49.24049" lon="0.16164">
        <ele>69.8</ele>
        <time>2023-12-06T14:42:00Z</time>
      </trkpt>
      <trkpt lat="49.24045" lon="0.16161">
        <ele>70.2</ele>
        <time>2023-12-06T14:42:01Z</time>
      </trkpt>
      <trkpt lat="49.24041" lon="0.16158">
        <ele>70.4</ele>
        <time>2023-12-06T14:42:02Z</time>
      </trkpt>
      <trkpt lat="49.24037" lon="0.16154">
        <ele>70.6</ele>
        <time>2023-12-06T14:42:03Z</time>
      </trkpt>
      <trkpt lat="49.24033" lon="0.16151">
        <ele>71</ele>
        <time>2023-12-06T14:42:04Z</time>
      </trkpt>
      <trkpt lat="49.24028" lon="0.16147">
        <ele>71.2</ele>
        <time>2023-12-06T14:42:05Z</time>
      </trkpt>
      <trkpt lat="49.24024" lon="0.16143">
        <ele>71.4</ele>
        <time>2023-12-06T14:42:06Z</time>
      </trkpt>
      <trkpt lat="49.24019" lon="0.16139">
        <ele>71.6</ele>
        <time>2023-12-06T14:42:07Z</time>
      </trkpt>
      <trkpt lat="49.24015" lon="0.16135">
        <ele>72</ele>
        <time>2023-12-06T14:42:08Z</time>
      </trkpt>
      <trkpt lat="49.24011" lon="0.16132">
        <ele>72.2</ele>
        <time>2023-12-06T14:42:09Z</time>
      </trkpt>
      <trkpt lat="49.24006" lon="0.16128">
        <ele>72.2</ele>
        <time>2023-12-06T14:42:10Z</time>
      </trkpt>
      <trkpt lat="49.24002" lon="0.16125">
        <ele>72.6</ele>
        <time>2023-12-06T14:42:11Z</time>
      </trkpt>
      <trkpt lat="49.23997" lon="0.16122">
        <ele>72.8</ele>
        <time>2023-12-06T14:42:12Z</time>
      </trkpt>
      <trkpt lat="49.23993" lon="0.16118">
        <ele>73</ele>
        <time>2023-12-06T14:42:13Z</time>
      </trkpt>
      <trkpt lat="49.23989" lon="0.16114">
        <ele>73.2</ele>
        <time>2023-12-06T14:42:14Z</time>
      </trkpt>
      <trkpt lat="49.23984" lon="0.16111">
        <ele>73.6</ele>
        <time>2023-12-06T14:42:15Z</time>
      </trkpt>
      <trkpt lat="49.2398" lon="0.16108">
        <ele>73.8</ele>
        <time>2023-12-06T14:42:16Z</time>
      </trkpt>
      <trkpt lat="49.23976" lon="0.16104">
        <ele>74</ele>
        <time>2023-12-06T14:42:17Z</time>
      </trkpt>
      <trkpt lat="49.23971" lon="0.161">
        <ele>74.4</ele>
        <time>2023-12-06T14:42:18Z</time>
      </trkpt>
      <trkpt lat="49.23967" lon="0.16095">
        <ele>74.8</ele>
        <time>2023-12-06T14:42:19Z</time>
      </trkpt>
      <trkpt lat="49.23962" lon="0.16091">
        <ele>75</ele>
        <time>2023-12-06T14:42:20Z</time>
      </trkpt>
      <trkpt lat="49.23957" lon="0.16087">
        <ele>75.2</ele>
        <time>2023-12-06T14:42:21Z</time>
      </trkpt>
      <trkpt lat="49.23952" lon="0.16082">
        <ele>75.6</ele>
        <time>2023-12-06T14:42:22Z</time>
      </trkpt>
      <trkpt lat="49.23947" lon="0.16077">
        <ele>75.8</ele>
        <time>2023-12-06T14:42:23Z</time>
      </trkpt>
      <trkpt lat="49.23941" lon="0.16073">
        <ele>76</ele>
        <time>2023-12-06T14:42:24Z</time>
      </trkpt>
      <trkpt lat="49.23936" lon="0.16068">
        <ele>76.4</ele>
        <time>2023-12-06T14:42:25Z</time>
      </trkpt>
      <trkpt lat="49.23931" lon="0.16064">
        <ele>76.4</ele>
        <time>2023-12-06T14:42:26Z</time>
      </trkpt>
      <trkpt lat="49.23925" lon="0.1606">
        <ele>76.6</ele>
        <time>2023-12-06T14:42:27Z</time>
      </trkpt>
      <trkpt lat="49.2392" lon="0.16057">
        <ele>76.6</ele>
        <time>2023-12-06T14:42:28Z</time>
      </trkpt>
      <trkpt lat="49.23915" lon="0.16053">
        <ele>76.8</ele>
        <time>2023-12-06T14:42:29Z</time>
      </trkpt>
      <trkpt lat="49.2391" lon="0.16049">
        <ele>77</ele>
        <time>2023-12-06T14:42:30Z</time>
      </trkpt>
      <trkpt lat="49.23904" lon="0.16045">
        <ele>77.2</ele>
        <time>2023-12-06T14:42:31Z</time>
      </trkpt>
      <trkpt lat="49.23899" lon="0.16041">
        <ele>77.2</ele>
        <time>2023-12-06T14:42:32Z</time>
      </trkpt>
      <trkpt lat="49.23894" lon="0.16036">
        <ele>77.2</ele>
        <time>2023-12-06T14:42:33Z</time>
      </trkpt>
      <trkpt lat="49.2389" lon="0.16031">
        <ele>77.6</ele>
        <time>2023-12-06T14:42:34Z</time>
      </trkpt>
      <trkpt lat="49.23885" lon="0.16026">
        <ele>77.6</ele>
        <time>2023-12-06T14:42:35Z</time>
      </trkpt>
      <trkpt lat="49.2388" lon="0.16021">
        <ele>77.8</ele>
        <time>2023-12-06T14:42:36Z</time>
      </trkpt>
      <trkpt lat="49.23875" lon="0.16017">
        <ele>78</ele>
        <time>2023-12-06T14:42:37Z</time>
      </trkpt>
      <trkpt lat="49.2387" lon="0.16012">
        <ele>78</ele>
        <time>2023-12-06T14:42:38Z</time>
      </trkpt>
      <trkpt lat="49.23865" lon="0.16006">
        <ele>78</ele>
        <time>2023-12-06T14:42:39Z</time>
      </trkpt>
      <trkpt lat="49.2386" lon="0.16001">
        <ele>78</ele>
        <time>2023-12-06T14:42:40Z</time>
      </trkpt>
      <trkpt lat="49.23854" lon="0.15996">
        <ele>78</ele>
        <time>2023-12-06T14:42:41Z</time>
      </trkpt>
      <trkpt lat="49.23849" lon="0.15991">
        <ele>78</ele>
        <time>2023-12-06T14:42:42Z</time>
      </trkpt>
      <trkpt lat="49.23843" lon="0.15986">
        <ele>78</ele>
        <time>2023-12-06T14:42:43Z</time>
      </trkpt>
      <trkpt lat="49.23836" lon="0.15981">
        <ele>78</ele>
        <time>2023-12-06T14:42:44Z</time>
      </trkpt>
      <trkpt lat="49.2383" lon="0.15976">
        <ele>78</ele>
        <time>2023-12-06T14:42:45Z</time>
      </trkpt>
      <trkpt lat="49.23824" lon="0.1597">
        <ele>78</ele>
        <time>2023-12-06T14:42:46Z</time>
      </trkpt>
      <trkpt lat="49.23817" lon="0.15964">
        <ele>77.8</ele>
        <time>2023-12-06T14:42:47Z</time>
      </trkpt>
      <trkpt lat="49.2381" lon="0.15958">
        <ele>77.6</ele>
        <time>2023-12-06T14:42:48Z</time>
      </trkpt>
      <trkpt lat="49.23803" lon="0.15952">
        <ele>77.4</ele>
        <time>2023-12-06T14:42:49Z</time>
      </trkpt>
      <trkpt lat="49.23796" lon="0.15946">
        <ele>77.2</ele>
        <time>2023-12-06T14:42:50Z</time>
      </trkpt>
      <trkpt lat="49.23789" lon="0.15941">
        <ele>76.8</ele>
        <time>2023-12-06T14:42:51Z</time>
      </trkpt>
      <trkpt lat="49.23782" lon="0.15934">
        <ele>76.4</ele>
        <time>2023-12-06T14:42:52Z</time>
      </trkpt>
      <trkpt lat="49.23775" lon="0.15927">
        <ele>76</ele>
        <time>2023-12-06T14:42:53Z</time>
      </trkpt>
      <trkpt lat="49.23768" lon="0.1592">
        <ele>75.6</ele>
        <time>2023-12-06T14:42:54Z</time>
      </trkpt>
      <trkpt lat="49.23762" lon="0.15911">
        <ele>75.2</ele>
        <time>2023-12-06T14:42:55Z</time>
      </trkpt>
      <trkpt lat="49.23755" lon="0.15901">
        <ele>74.8</ele>
        <time>2023-12-06T14:42:56Z</time>
      </trkpt>
      <trkpt lat="49.23749" lon="0.15891">
        <ele>74.4</ele>
        <time>2023-12-06T14:42:57Z</time>
      </trkpt>
      <trkpt lat="49.23744" lon="0.1588">
        <ele>74</ele>
        <time>2023-12-06T14:42:58Z</time>
      </trkpt>
      <trkpt lat="49.23739" lon="0.15868">
        <ele>73.8</ele>
        <time>2023-12-06T14:42:59Z</time>
      </trkpt>
      <trkpt lat="49.23736" lon="0.15855">
        <ele>73.4</ele>
        <time>2023-12-06T14:43:00Z</time>
      </trkpt>
      <trkpt lat="49.23733" lon="0.15841">
        <ele>72.8</ele>
        <time>2023-12-06T14:43:01Z</time>
      </trkpt>
      <trkpt lat="49.23731" lon="0.15828">
        <ele>72.4</ele>
        <time>2023-12-06T14:43:02Z</time>
      </trkpt>
      <trkpt lat="49.23728" lon="0.15816">
        <ele>71.8</ele>
        <time>2023-12-06T14:43:03Z</time>
      </trkpt>
      <trkpt lat="49.23725" lon="0.15804">
        <ele>71</ele>
        <time>2023-12-06T14:43:04Z</time>
      </trkpt>
      <trkpt lat="49.23722" lon="0.15793">
        <ele>70.6</ele>
        <time>2023-12-06T14:43:05Z</time>
      </trkpt>
      <trkpt lat="49.23719" lon="0.15783">
        <ele>69.8</ele>
        <time>2023-12-06T14:43:06Z</time>
      </trkpt>
      <trkpt lat="49.23717" lon="0.15773">
        <ele>69.6</ele>
        <time>2023-12-06T14:43:07Z</time>
      </trkpt>
      <trkpt lat="49.23714" lon="0.15763">
        <ele>69.4</ele>
        <time>2023-12-06T14:43:08Z</time>
      </trkpt>
      <trkpt lat="49.23711" lon="0.15754">
        <ele>69.4</ele>
        <time>2023-12-06T14:43:09Z</time>
      </trkpt>
      <trkpt lat="49.23709" lon="0.15744">
        <ele>69.4</ele>
        <time>2023-12-06T14:43:10Z</time>
      </trkpt>
      <trkpt lat="49.23706" lon="0.15734">
        <ele>69.4</ele>
        <time>2023-12-06T14:43:11Z</time>
      </trkpt>
      <trkpt lat="49.23704" lon="0.15724">
        <ele>69.2</ele>
        <time>2023-12-06T14:43:12Z</time>
      </trkpt>
      <trkpt lat="49.23701" lon="0.15714">
        <ele>69.2</ele>
        <time>2023-12-06T14:43:13Z</time>
      </trkpt>
      <trkpt lat="49.23698" lon="0.15705">
        <ele>69.2</ele>
        <time>2023-12-06T14:43:14Z</time>
      </trkpt>
      <trkpt lat="49.23695" lon="0.15695">
        <ele>69.2</ele>
        <time>2023-12-06T14:43:15Z</time>
      </trkpt>
      <trkpt lat="49.23693" lon="0.15685">
        <ele>69.4</ele>
        <time>2023-12-06T14:43:16Z</time>
      </trkpt>
      <trkpt lat="49.2369" lon="0.15676">
        <ele>69.6</ele>
        <time>2023-12-06T14:43:17Z</time>
      </trkpt>
      <trkpt lat="49.23688" lon="0.15666">
        <ele>69.8</ele>
        <time>2023-12-06T14:43:18Z</time>
      </trkpt>
      <trkpt lat="49.23685" lon="0.15656">
        <ele>70</ele>
        <time>2023-12-06T14:43:19Z</time>
      </trkpt>
      <trkpt lat="49.23682" lon="0.15647">
        <ele>70</ele>
        <time>2023-12-06T14:43:20Z</time>
      </trkpt>
      <trkpt lat="49.2368" lon="0.15637">
        <ele>70.2</ele>
        <time>2023-12-06T14:43:21Z</time>
      </trkpt>
      <trkpt lat="49.23677" lon="0.15627">
        <ele>70.2</ele>
        <time>2023-12-06T14:43:22Z</time>
      </trkpt>
      <trkpt lat="49.23674" lon="0.15617">
        <ele>70.4</ele>
        <time>2023-12-06T14:43:23Z</time>
      </trkpt>
      <trkpt lat="49.2367" lon="0.15607">
        <ele>70.6</ele>
        <time>2023-12-06T14:43:24Z</time>
      </trkpt>
      <trkpt lat="49.23667" lon="0.15597">
        <ele>70.8</ele>
        <time>2023-12-06T14:43:25Z</time>
      </trkpt>
      <trkpt lat="49.23664" lon="0.15587">
        <ele>70.8</ele>
        <time>2023-12-06T14:43:26Z</time>
      </trkpt>
      <trkpt lat="49.23661" lon="0.15577">
        <ele>71</ele>
        <time>2023-12-06T14:43:27Z</time>
      </trkpt>
      <trkpt lat="49.23657" lon="0.15567">
        <ele>71.2</ele>
        <time>2023-12-06T14:43:28Z</time>
      </trkpt>
      <trkpt lat="49.23653" lon="0.15557">
        <ele>71.2</ele>
        <time>2023-12-06T14:43:29Z</time>
      </trkpt>
      <trkpt lat="49.23648" lon="0.15547">
        <ele>71.4</ele>
        <time>2023-12-06T14:43:30Z</time>
      </trkpt>
      <trkpt lat="49.23643" lon="0.15538">
        <ele>71.4</ele>
        <time>2023-12-06T14:43:31Z</time>
      </trkpt>
      <trkpt lat="49.23638" lon="0.15529">
        <ele>71.6</ele>
        <time>2023-12-06T14:43:32Z</time>
      </trkpt>
      <trkpt lat="49.23633" lon="0.1552">
        <ele>71.6</ele>
        <time>2023-12-06T14:43:33Z</time>
      </trkpt>
      <trkpt lat="49.23628" lon="0.15512">
        <ele>71.6</ele>
        <time>2023-12-06T14:43:34Z</time>
      </trkpt>
      <trkpt lat="49.23622" lon="0.15505">
        <ele>71.8</ele>
        <time>2023-12-06T14:43:35Z</time>
      </trkpt>
      <trkpt lat="49.23616" lon="0.15499">
        <ele>72</ele>
        <time>2023-12-06T14:43:36Z</time>
      </trkpt>
      <trkpt lat="49.2361" lon="0.15493">
        <ele>72</ele>
        <time>2023-12-06T14:43:37Z</time>
      </trkpt>
      <trkpt lat="49.23604" lon="0.15487">
        <ele>72.2</ele>
        <time>2023-12-06T14:43:38Z</time>
      </trkpt>
      <trkpt lat="49.23598" lon="0.15482">
        <ele>72.2</ele>
        <time>2023-12-06T14:43:39Z</time>
      </trkpt>
      <trkpt lat="49.23592" lon="0.15477">
        <ele>72.4</ele>
        <time>2023-12-06T14:43:40Z</time>
      </trkpt>
      <trkpt lat="49.23586" lon="0.15472">
        <ele>72.4</ele>
        <time>2023-12-06T14:43:41Z</time>
      </trkpt>
      <trkpt lat="49.23579" lon="0.15467">
        <ele>72.6</ele>
        <time>2023-12-06T14:43:42Z</time>
      </trkpt>
      <trkpt lat="49.23573" lon="0.15462">
        <ele>72.6</ele>
        <time>2023-12-06T14:43:43Z</time>
      </trkpt>
      <trkpt lat="49.23568" lon="0.15457">
        <ele>72.6</ele>
        <time>2023-12-06T14:43:44Z</time>
      </trkpt>
      <trkpt lat="49.23562" lon="0.15452">
        <ele>72.6</ele>
        <time>2023-12-06T14:43:45Z</time>
      </trkpt>
      <trkpt lat="49.23557" lon="0.15448">
        <ele>72.8</ele>
        <time>2023-12-06T14:43:46Z</time>
      </trkpt>
      <trkpt lat="49.23552" lon="0.15444">
        <ele>72.8</ele>
        <time>2023-12-06T14:43:47Z</time>
      </trkpt>
      <trkpt lat="49.23546" lon="0.1544">
        <ele>73</ele>
        <time>2023-12-06T14:43:48Z</time>
      </trkpt>
      <trkpt lat="49.23541" lon="0.15436">
        <ele>73.2</ele>
        <time>2023-12-06T14:43:49Z</time>
      </trkpt>
      <trkpt lat="49.23535" lon="0.15432">
        <ele>73.4</ele>
        <time>2023-12-06T14:43:50Z</time>
      </trkpt>
      <trkpt lat="49.2353" lon="0.15428">
        <ele>73.8</ele>
        <time>2023-12-06T14:43:51Z</time>
      </trkpt>
      <trkpt lat="49.23525" lon="0.15425">
        <ele>74.2</ele>
        <time>2023-12-06T14:43:52Z</time>
      </trkpt>
      <trkpt lat="49.23519" lon="0.15421">
        <ele>74.2</ele>
        <time>2023-12-06T14:43:53Z</time>
      </trkpt>
      <trkpt lat="49.23514" lon="0.15418">
        <ele>74.6</ele>
        <time>2023-12-06T14:43:54Z</time>
      </trkpt>
      <trkpt lat="49.23508" lon="0.15414">
        <ele>74.8</ele>
        <time>2023-12-06T14:43:55Z</time>
      </trkpt>
      <trkpt lat="49.23502" lon="0.15411">
        <ele>75.2</ele>
        <time>2023-12-06T14:43:56Z</time>
      </trkpt>
      <trkpt lat="49.23496" lon="0.15408">
        <ele>75.2</ele>
        <time>2023-12-06T14:43:57Z</time>
      </trkpt>
      <trkpt lat="49.2349" lon="0.15405">
        <ele>75.6</ele>
        <time>2023-12-06T14:43:58Z</time>
      </trkpt>
      <trkpt lat="49.23485" lon="0.15401">
        <ele>76</ele>
        <time>2023-12-06T14:43:59Z</time>
      </trkpt>
      <trkpt lat="49.23479" lon="0.15397">
        <ele>76.4</ele>
        <time>2023-12-06T14:44:00Z</time>
      </trkpt>
      <trkpt lat="49.23473" lon="0.15394">
        <ele>76.8</ele>
        <time>2023-12-06T14:44:01Z</time>
      </trkpt>
      <trkpt lat="49.23468" lon="0.1539">
        <ele>77.2</ele>
        <time>2023-12-06T14:44:02Z</time>
      </trkpt>
      <trkpt lat="49.23462" lon="0.15386">
        <ele>77.4</ele>
        <time>2023-12-06T14:44:03Z</time>
      </trkpt>
      <trkpt lat="49.23456" lon="0.15383">
        <ele>77.8</ele>
        <time>2023-12-06T14:44:04Z</time>
      </trkpt>
      <trkpt lat="49.23451" lon="0.15379">
        <ele>78.2</ele>
        <time>2023-12-06T14:44:05Z</time>
      </trkpt>
      <trkpt lat="49.23445" lon="0.15376">
        <ele>78.4</ele>
        <time>2023-12-06T14:44:06Z</time>
      </trkpt>
      <trkpt lat="49.23439" lon="0.15372">
        <ele>78.8</ele>
        <time>2023-12-06T14:44:07Z</time>
      </trkpt>
      <trkpt lat="49.23433" lon="0.15369">
        <ele>79</ele>
        <time>2023-12-06T14:44:08Z</time>
      </trkpt>
      <trkpt lat="49.23427" lon="0.15366">
        <ele>79.4</ele>
        <time>2023-12-06T14:44:09Z</time>
      </trkpt>
      <trkpt lat="49.23421" lon="0.15363">
        <ele>79.6</ele>
        <time>2023-12-06T14:44:10Z</time>
      </trkpt>
      <trkpt lat="49.23415" lon="0.15359">
        <ele>79.8</ele>
        <time>2023-12-06T14:44:11Z</time>
      </trkpt>
      <trkpt lat="49.23409" lon="0.15356">
        <ele>80.2</ele>
        <time>2023-12-06T14:44:12Z</time>
      </trkpt>
      <trkpt lat="49.23403" lon="0.15353">
        <ele>80.2</ele>
        <time>2023-12-06T14:44:13Z</time>
      </trkpt>
      <trkpt lat="49.23396" lon="0.1535">
        <ele>80.6</ele>
        <time>2023-12-06T14:44:14Z</time>
      </trkpt>
      <trkpt lat="49.2339" lon="0.15347">
        <ele>80.8</ele>
        <time>2023-12-06T14:44:15Z</time>
      </trkpt>
      <trkpt lat="49.23384" lon="0.15343">
        <ele>81</ele>
        <time>2023-12-06T14:44:16Z</time>
      </trkpt>
      <trkpt lat="49.23379" lon="0.1534">
        <ele>81.2</ele>
        <time>2023-12-06T14:44:17Z</time>
      </trkpt>
      <trkpt lat="49.23374" lon="0.15336">
        <ele>81.4</ele>
        <time>2023-12-06T14:44:18Z</time>
      </trkpt>
      <trkpt lat="49.23369" lon="0.15333">
        <ele>81.8</ele>
        <time>2023-12-06T14:44:19Z</time>
      </trkpt>
      <trkpt lat="49.23363" lon="0.15329">
        <ele>82</ele>
        <time>2023-12-06T14:44:20Z</time>
      </trkpt>
      <trkpt lat="49.23358" lon="0.15326">
        <ele>82.2</ele>
        <time>2023-12-06T14:44:21Z</time>
      </trkpt>
      <trkpt lat="49.23352" lon="0.15324">
        <ele>82.4</ele>
        <time>2023-12-06T14:44:22Z</time>
      </trkpt>
      <trkpt lat="49.23346" lon="0.15321">
        <ele>82.6</ele>
        <time>2023-12-06T14:44:23Z</time>
      </trkpt>
      <trkpt lat="49.23341" lon="0.15318">
        <ele>82.6</ele>
        <time>2023-12-06T14:44:24Z</time>
      </trkpt>
      <trkpt lat="49.23335" lon="0.15315">
        <ele>82.6</ele>
        <time>2023-12-06T14:44:25Z</time>
      </trkpt>
      <trkpt lat="49.2333" lon="0.15311">
        <ele>82.8</ele>
        <time>2023-12-06T14:44:26Z</time>
      </trkpt>
      <trkpt lat="49.23325" lon="0.15308">
        <ele>83</ele>
        <time>2023-12-06T14:44:27Z</time>
      </trkpt>
      <trkpt lat="49.23319" lon="0.15307">
        <ele>83</ele>
        <time>2023-12-06T14:44:28Z</time>
      </trkpt>
      <trkpt lat="49.23313" lon="0.15305">
        <ele>83.2</ele>
        <time>2023-12-06T14:44:29Z</time>
      </trkpt>
      <trkpt lat="49.23306" lon="0.15303">
        <ele>83.2</ele>
        <time>2023-12-06T14:44:30Z</time>
      </trkpt>
      <trkpt lat="49.23301" lon="0.153">
        <ele>83.4</ele>
        <time>2023-12-06T14:44:31Z</time>
      </trkpt>
      <trkpt lat="49.23295" lon="0.15297">
        <ele>83.4</ele>
        <time>2023-12-06T14:44:32Z</time>
      </trkpt>
      <trkpt lat="49.23289" lon="0.15294">
        <ele>83.4</ele>
        <time>2023-12-06T14:44:33Z</time>
      </trkpt>
      <trkpt lat="49.23283" lon="0.15291">
        <ele>83.6</ele>
        <time>2023-12-06T14:44:34Z</time>
      </trkpt>
      <trkpt lat="49.23278" lon="0.15287">
        <ele>83.6</ele>
        <time>2023-12-06T14:44:35Z</time>
      </trkpt>
      <trkpt lat="49.23272" lon="0.15284">
        <ele>83.6</ele>
        <time>2023-12-06T14:44:36Z</time>
      </trkpt>
      <trkpt lat="49.23266" lon="0.15282">
        <ele>83.6</ele>
        <time>2023-12-06T14:44:37Z</time>
      </trkpt>
      <trkpt lat="49.2326" lon="0.1528">
        <ele>83.6</ele>
        <time>2023-12-06T14:44:38Z</time>
      </trkpt>
      <trkpt lat="49.23254" lon="0.15278">
        <ele>83.6</ele>
        <time>2023-12-06T14:44:39Z</time>
      </trkpt>
      <trkpt lat="49.23248" lon="0.15276">
        <ele>83.6</ele>
        <time>2023-12-06T14:44:40Z</time>
      </trkpt>
      <trkpt lat="49.23242" lon="0.15275">
        <ele>83.6</ele>
        <time>2023-12-06T14:44:41Z</time>
      </trkpt>
      <trkpt lat="49.23236" lon="0.15275">
        <ele>83.6</ele>
        <time>2023-12-06T14:44:42Z</time>
      </trkpt>
      <trkpt lat="49.2323" lon="0.15274">
        <ele>83.6</ele>
        <time>2023-12-06T14:44:43Z</time>
      </trkpt>
      <trkpt lat="49.23224" lon="0.15274">
        <ele>83.8</ele>
        <time>2023-12-06T14:44:44Z</time>
      </trkpt>
      <trkpt lat="49.23219" lon="0.15275">
        <ele>83.8</ele>
        <time>2023-12-06T14:44:45Z</time>
      </trkpt>
      <trkpt lat="49.23213" lon="0.15276">
        <ele>83.8</ele>
        <time>2023-12-06T14:44:46Z</time>
      </trkpt>
      <trkpt lat="49.23207" lon="0.15277">
        <ele>83.8</ele>
        <time>2023-12-06T14:44:47Z</time>
      </trkpt>
      <trkpt lat="49.23202" lon="0.15278">
        <ele>84</ele>
        <time>2023-12-06T14:44:48Z</time>
      </trkpt>
      <trkpt lat="49.23196" lon="0.1528">
        <ele>84</ele>
        <time>2023-12-06T14:44:49Z</time>
      </trkpt>
      <trkpt lat="49.23191" lon="0.15281">
        <ele>84.2</ele>
        <time>2023-12-06T14:44:50Z</time>
      </trkpt>
      <trkpt lat="49.23185" lon="0.15283">
        <ele>84.2</ele>
        <time>2023-12-06T14:44:51Z</time>
      </trkpt>
      <trkpt lat="49.2318" lon="0.15284">
        <ele>84.6</ele>
        <time>2023-12-06T14:44:52Z</time>
      </trkpt>
      <trkpt lat="49.23174" lon="0.15285">
        <ele>84.8</ele>
        <time>2023-12-06T14:44:53Z</time>
      </trkpt>
      <trkpt lat="49.23169" lon="0.15286">
        <ele>85</ele>
        <time>2023-12-06T14:44:54Z</time>
      </trkpt>
      <trkpt lat="49.23164" lon="0.15288">
        <ele>85</ele>
        <time>2023-12-06T14:44:55Z</time>
      </trkpt>
      <trkpt lat="49.23159" lon="0.15289">
        <ele>85.2</ele>
        <time>2023-12-06T14:44:56Z</time>
      </trkpt>
      <trkpt lat="49.23155" lon="0.1529">
        <ele>85.4</ele>
        <time>2023-12-06T14:44:57Z</time>
      </trkpt>
      <trkpt lat="49.2315" lon="0.15291">
        <ele>85.6</ele>
        <time>2023-12-06T14:44:58Z</time>
      </trkpt>
      <trkpt lat="49.23145" lon="0.15292">
        <ele>85.8</ele>
        <time>2023-12-06T14:44:59Z</time>
      </trkpt>
      <trkpt lat="49.2314" lon="0.15292">
        <ele>85.8</ele>
        <time>2023-12-06T14:45:00Z</time>
      </trkpt>
      <trkpt lat="49.23135" lon="0.15293">
        <ele>86</ele>
        <time>2023-12-06T14:45:01Z</time>
      </trkpt>
      <trkpt lat="49.2313" lon="0.15294">
        <ele>86</ele>
        <time>2023-12-06T14:45:02Z</time>
      </trkpt>
      <trkpt lat="49.23126" lon="0.15294">
        <ele>86.2</ele>
        <time>2023-12-06T14:45:03Z</time>
      </trkpt>
      <trkpt lat="49.23121" lon="0.15295">
        <ele>86.4</ele>
        <time>2023-12-06T14:45:04Z</time>
      </trkpt>
      <trkpt lat="49.23116" lon="0.15296">
        <ele>86.6</ele>
        <time>2023-12-06T14:45:05Z</time>
      </trkpt>
      <trkpt lat="49.23111" lon="0.15297">
        <ele>86.8</ele>
        <time>2023-12-06T14:45:06Z</time>
      </trkpt>
      <trkpt lat="49.23106" lon="0.15297">
        <ele>87</ele>
        <time>2023-12-06T14:45:07Z</time>
      </trkpt>
      <trkpt lat="49.23102" lon="0.15298">
        <ele>87.2</ele>
        <time>2023-12-06T14:45:08Z</time>
      </trkpt>
      <trkpt lat="49.23097" lon="0.15299">
        <ele>87.4</ele>
        <time>2023-12-06T14:45:09Z</time>
      </trkpt>
      <trkpt lat="49.23091" lon="0.15299">
        <ele>87.6</ele>
        <time>2023-12-06T14:45:10Z</time>
      </trkpt>
      <trkpt lat="49.23086" lon="0.153">
        <ele>87.8</ele>
        <time>2023-12-06T14:45:11Z</time>
      </trkpt>
      <trkpt lat="49.23081" lon="0.153">
        <ele>87.8</ele>
        <time>2023-12-06T14:45:12Z</time>
      </trkpt>
      <trkpt lat="49.23076" lon="0.153">
        <ele>88</ele>
        <time>2023-12-06T14:45:13Z</time>
      </trkpt>
      <trkpt lat="49.23071" lon="0.15299">
        <ele>88.2</ele>
        <time>2023-12-06T14:45:14Z</time>
      </trkpt>
      <trkpt lat="49.23066" lon="0.15299">
        <ele>88.6</ele>
        <time>2023-12-06T14:45:15Z</time>
      </trkpt>
      <trkpt lat="49.2306" lon="0.15298">
        <ele>88.8</ele>
        <time>2023-12-06T14:45:16Z</time>
      </trkpt>
      <trkpt lat="49.23055" lon="0.15296">
        <ele>89</ele>
        <time>2023-12-06T14:45:17Z</time>
      </trkpt>
      <trkpt lat="49.2305" lon="0.15294">
        <ele>89.2</ele>
        <time>2023-12-06T14:45:18Z</time>
      </trkpt>
      <trkpt lat="49.23045" lon="0.15292">
        <ele>89.4</ele>
        <time>2023-12-06T14:45:19Z</time>
      </trkpt>
      <trkpt lat="49.2304" lon="0.1529">
        <ele>89.4</ele>
        <time>2023-12-06T14:45:20Z</time>
      </trkpt>
      <trkpt lat="49.23035" lon="0.15286">
        <ele>89.4</ele>
        <time>2023-12-06T14:45:21Z</time>
      </trkpt>
      <trkpt lat="49.2303" lon="0.15283">
        <ele>89.4</ele>
        <time>2023-12-06T14:45:22Z</time>
      </trkpt>
      <trkpt lat="49.23025" lon="0.15279">
        <ele>89.6</ele>
        <time>2023-12-06T14:45:23Z</time>
      </trkpt>
      <trkpt lat="49.2302" lon="0.15276">
        <ele>89.6</ele>
        <time>2023-12-06T14:45:24Z</time>
      </trkpt>
      <trkpt lat="49.23015" lon="0.15271">
        <ele>89.6</ele>
        <time>2023-12-06T14:45:25Z</time>
      </trkpt>
      <trkpt lat="49.2301" lon="0.15267">
        <ele>89.6</ele>
        <time>2023-12-06T14:45:26Z</time>
      </trkpt>
      <trkpt lat="49.23005" lon="0.15262">
        <ele>89.6</ele>
        <time>2023-12-06T14:45:27Z</time>
      </trkpt>
      <trkpt lat="49.23" lon="0.15257">
        <ele>89.8</ele>
        <time>2023-12-06T14:45:28Z</time>
      </trkpt>
      <trkpt lat="49.22995" lon="0.15252">
        <ele>90</ele>
        <time>2023-12-06T14:45:29Z</time>
      </trkpt>
      <trkpt lat="49.22989" lon="0.15248">
        <ele>90.2</ele>
        <time>2023-12-06T14:45:30Z</time>
      </trkpt>
      <trkpt lat="49.22984" lon="0.15243">
        <ele>90.4</ele>
        <time>2023-12-06T14:45:31Z</time>
      </trkpt>
      <trkpt lat="49.22978" lon="0.15238">
        <ele>90.4</ele>
        <time>2023-12-06T14:45:32Z</time>
      </trkpt>
      <trkpt lat="49.22973" lon="0.15233">
        <ele>90.6</ele>
        <time>2023-12-06T14:45:33Z</time>
      </trkpt>
      <trkpt lat="49.22968" lon="0.15228">
        <ele>90.6</ele>
        <time>2023-12-06T14:45:34Z</time>
      </trkpt>
      <trkpt lat="49.22962" lon="0.15223">
        <ele>90.6</ele>
        <time>2023-12-06T14:45:35Z</time>
      </trkpt>
      <trkpt lat="49.22957" lon="0.15219">
        <ele>90.6</ele>
        <time>2023-12-06T14:45:36Z</time>
      </trkpt>
      <trkpt lat="49.22951" lon="0.15214">
        <ele>90.8</ele>
        <time>2023-12-06T14:45:37Z</time>
      </trkpt>
      <trkpt lat="49.22946" lon="0.15209">
        <ele>90.8</ele>
        <time>2023-12-06T14:45:38Z</time>
      </trkpt>
      <trkpt lat="49.22941" lon="0.15204">
        <ele>90.8</ele>
        <time>2023-12-06T14:45:39Z</time>
      </trkpt>
      <trkpt lat="49.22935" lon="0.15199">
        <ele>90.8</ele>
        <time>2023-12-06T14:45:40Z</time>
      </trkpt>
      <trkpt lat="49.2293" lon="0.15194">
        <ele>91</ele>
        <time>2023-12-06T14:45:41Z</time>
      </trkpt>
      <trkpt lat="49.22925" lon="0.15188">
        <ele>91</ele>
        <time>2023-12-06T14:45:42Z</time>
      </trkpt>
      <trkpt lat="49.2292" lon="0.15182">
        <ele>91</ele>
        <time>2023-12-06T14:45:43Z</time>
      </trkpt>
      <trkpt lat="49.22915" lon="0.15176">
        <ele>91</ele>
        <time>2023-12-06T14:45:44Z</time>
      </trkpt>
      <trkpt lat="49.2291" lon="0.1517">
        <ele>91</ele>
        <time>2023-12-06T14:45:45Z</time>
      </trkpt>
      <trkpt lat="49.22906" lon="0.15163">
        <ele>91.2</ele>
        <time>2023-12-06T14:45:46Z</time>
      </trkpt>
      <trkpt lat="49.22902" lon="0.15155">
        <ele>91.2</ele>
        <time>2023-12-06T14:45:47Z</time>
      </trkpt>
      <trkpt lat="49.22898" lon="0.15147">
        <ele>91.2</ele>
        <time>2023-12-06T14:45:48Z</time>
      </trkpt>
      <trkpt lat="49.22895" lon="0.15138">
        <ele>91.4</ele>
        <time>2023-12-06T14:45:49Z</time>
      </trkpt>
      <trkpt lat="49.22892" lon="0.15129">
        <ele>91.4</ele>
        <time>2023-12-06T14:45:50Z</time>
      </trkpt>
      <trkpt lat="49.22889" lon="0.1512">
        <ele>91.4</ele>
        <time>2023-12-06T14:45:51Z</time>
      </trkpt>
      <trkpt lat="49.22887" lon="0.15111">
        <ele>91.6</ele>
        <time>2023-12-06T14:45:52Z</time>
      </trkpt>
      <trkpt lat="49.22884" lon="0.15102">
        <ele>91.6</ele>
        <time>2023-12-06T14:45:53Z</time>
      </trkpt>
      <trkpt lat="49.22882" lon="0.15094">
        <ele>91.6</ele>
        <time>2023-12-06T14:45:54Z</time>
      </trkpt>
      <trkpt lat="49.2288" lon="0.15086">
        <ele>91.8</ele>
        <time>2023-12-06T14:45:55Z</time>
      </trkpt>
      <trkpt lat="49.22878" lon="0.15077">
        <ele>91.8</ele>
        <time>2023-12-06T14:45:56Z</time>
      </trkpt>
      <trkpt lat="49.22876" lon="0.1507">
        <ele>91.8</ele>
        <time>2023-12-06T14:45:57Z</time>
      </trkpt>
      <trkpt lat="49.22874" lon="0.15061">
        <ele>91.8</ele>
        <time>2023-12-06T14:45:58Z</time>
      </trkpt>
      <trkpt lat="49.22872" lon="0.15053">
        <ele>91.8</ele>
        <time>2023-12-06T14:45:59Z</time>
      </trkpt>
      <trkpt lat="49.22871" lon="0.15045">
        <ele>92</ele>
        <time>2023-12-06T14:46:00Z</time>
      </trkpt>
      <trkpt lat="49.2287" lon="0.15038">
        <ele>92.2</ele>
        <time>2023-12-06T14:46:01Z</time>
      </trkpt>
      <trkpt lat="49.22868" lon="0.1503">
        <ele>92.4</ele>
        <time>2023-12-06T14:46:02Z</time>
      </trkpt>
      <trkpt lat="49.22867" lon="0.15023">
        <ele>92.8</ele>
        <time>2023-12-06T14:46:03Z</time>
      </trkpt>
      <trkpt lat="49.22866" lon="0.15016">
        <ele>93.2</ele>
        <time>2023-12-06T14:46:04Z</time>
      </trkpt>
      <trkpt lat="49.22864" lon="0.15009">
        <ele>93.4</ele>
        <time>2023-12-06T14:46:05Z</time>
      </trkpt>
      <trkpt lat="49.22863" lon="0.15002">
        <ele>93.8</ele>
        <time>2023-12-06T14:46:06Z</time>
      </trkpt>
      <trkpt lat="49.22861" lon="0.14994">
        <ele>94.2</ele>
        <time>2023-12-06T14:46:07Z</time>
      </trkpt>
      <trkpt lat="49.2286" lon="0.14987">
        <ele>94.4</ele>
        <time>2023-12-06T14:46:08Z</time>
      </trkpt>
      <trkpt lat="49.22859" lon="0.14979">
        <ele>94.6</ele>
        <time>2023-12-06T14:46:09Z</time>
      </trkpt>
      <trkpt lat="49.22858" lon="0.14972">
        <ele>95</ele>
        <time>2023-12-06T14:46:10Z</time>
      </trkpt>
      <trkpt lat="49.22857" lon="0.14964">
        <ele>95.2</ele>
        <time>2023-12-06T14:46:11Z</time>
      </trkpt>
      <trkpt lat="49.22855" lon="0.14957">
        <ele>95.6</ele>
        <time>2023-12-06T14:46:12Z</time>
      </trkpt>
      <trkpt lat="49.22854" lon="0.1495">
        <ele>96.4</ele>
        <time>2023-12-06T14:46:13Z</time>
      </trkpt>
      <trkpt lat="49.22852" lon="0.14943">
        <ele>96.6</ele>
        <time>2023-12-06T14:46:14Z</time>
      </trkpt>
      <trkpt lat="49.2285" lon="0.14937">
        <ele>96.8</ele>
        <time>2023-12-06T14:46:15Z</time>
      </trkpt>
      <trkpt lat="49.22848" lon="0.1493">
        <ele>97.2</ele>
        <time>2023-12-06T14:46:16Z</time>
      </trkpt>
      <trkpt lat="49.22845" lon="0.14924">
        <ele>97.4</ele>
        <time>2023-12-06T14:46:17Z</time>
      </trkpt>
      <trkpt lat="49.22844" lon="0.14917">
        <ele>97.8</ele>
        <time>2023-12-06T14:46:18Z</time>
      </trkpt>
      <trkpt lat="49.22842" lon="0.1491">
        <ele>98</ele>
        <time>2023-12-06T14:46:19Z</time>
      </trkpt>
      <trkpt lat="49.22839" lon="0.14903">
        <ele>98.2</ele>
        <time>2023-12-06T14:46:20Z</time>
      </trkpt>
      <trkpt lat="49.22837" lon="0.14897">
        <ele>98.6</ele>
        <time>2023-12-06T14:46:21Z</time>
      </trkpt>
      <trkpt lat="49.22834" lon="0.14892">
        <ele>99</ele>
        <time>2023-12-06T14:46:22Z</time>
      </trkpt>
      <trkpt lat="49.22832" lon="0.14885">
        <ele>99.2</ele>
        <time>2023-12-06T14:46:23Z</time>
      </trkpt>
      <trkpt lat="49.2283" lon="0.14879">
        <ele>99.4</ele>
        <time>2023-12-06T14:46:24Z</time>
      </trkpt>
      <trkpt lat="49.22828" lon="0.14873">
        <ele>99.6</ele>
        <time>2023-12-06T14:46:25Z</time>
      </trkpt>
      <trkpt lat="49.22825" lon="0.14867">
        <ele>99.8</ele>
        <time>2023-12-06T14:46:26Z</time>
      </trkpt>
      <trkpt lat="49.22822" lon="0.14862">
        <ele>100</ele>
        <time>2023-12-06T14:46:27Z</time>
      </trkpt>
      <trkpt lat="49.22819" lon="0.14857">
        <ele>100.2</ele>
        <time>2023-12-06T14:46:28Z</time>
      </trkpt>
      <trkpt lat="49.22816" lon="0.14851">
        <ele>100.6</ele>
        <time>2023-12-06T14:46:29Z</time>
      </trkpt>
      <trkpt lat="49.22812" lon="0.14846">
        <ele>100.8</ele>
        <time>2023-12-06T14:46:30Z</time>
      </trkpt>
      <trkpt lat="49.22809" lon="0.14842">
        <ele>101</ele>
        <time>2023-12-06T14:46:31Z</time>
      </trkpt>
      <trkpt lat="49.22805" lon="0.14837">
        <ele>101.2</ele>
        <time>2023-12-06T14:46:32Z</time>
      </trkpt>
      <trkpt lat="49.22802" lon="0.14832">
        <ele>101.4</ele>
        <time>2023-12-06T14:46:33Z</time>
      </trkpt>
      <trkpt lat="49.22799" lon="0.14828">
        <ele>101.6</ele>
        <time>2023-12-06T14:46:34Z</time>
      </trkpt>
      <trkpt lat="49.22795" lon="0.14824">
        <ele>101.8</ele>
        <time>2023-12-06T14:46:35Z</time>
      </trkpt>
      <trkpt lat="49.22791" lon="0.1482">
        <ele>102.2</ele>
        <time>2023-12-06T14:46:36Z</time>
      </trkpt>
      <trkpt lat="49.22788" lon="0.14816">
        <ele>102.4</ele>
        <time>2023-12-06T14:46:37Z</time>
      </trkpt>
      <trkpt lat="49.22784" lon="0.14812">
        <ele>102.8</ele>
        <time>2023-12-06T14:46:38Z</time>
      </trkpt>
      <trkpt lat="49.2278" lon="0.14808">
        <ele>103</ele>
        <time>2023-12-06T14:46:39Z</time>
      </trkpt>
      <trkpt lat="49.22776" lon="0.14804">
        <ele>103.2</ele>
        <time>2023-12-06T14:46:40Z</time>
      </trkpt>
      <trkpt lat="49.22772" lon="0.14801">
        <ele>103.4</ele>
        <time>2023-12-06T14:46:41Z</time>
      </trkpt>
      <trkpt lat="49.22768" lon="0.14798">
        <ele>103.8</ele>
        <time>2023-12-06T14:46:42Z</time>
      </trkpt>
      <trkpt lat="49.22764" lon="0.14795">
        <ele>104</ele>
        <time>2023-12-06T14:46:43Z</time>
      </trkpt>
      <trkpt lat="49.2276" lon="0.14792">
        <ele>104.2</ele>
        <time>2023-12-06T14:46:44Z</time>
      </trkpt>
      <trkpt lat="49.22756" lon="0.14788">
        <ele>104.6</ele>
        <time>2023-12-06T14:46:45Z</time>
      </trkpt>
      <trkpt lat="49.22752" lon="0.14785">
        <ele>104.8</ele>
        <time>2023-12-06T14:46:46Z</time>
      </trkpt>
      <trkpt lat="49.22748" lon="0.14782">
        <ele>105</ele>
        <time>2023-12-06T14:46:47Z</time>
      </trkpt>
      <trkpt lat="49.22744" lon="0.14779">
        <ele>105.2</ele>
        <time>2023-12-06T14:46:48Z</time>
      </trkpt>
      <trkpt lat="49.22741" lon="0.14776">
        <ele>105.4</ele>
        <time>2023-12-06T14:46:49Z</time>
      </trkpt>
      <trkpt lat="49.22737" lon="0.14773">
        <ele>105.6</ele>
        <time>2023-12-06T14:46:50Z</time>
      </trkpt>
      <trkpt lat="49.22733" lon="0.14769">
        <ele>105.8</ele>
        <time>2023-12-06T14:46:51Z</time>
      </trkpt>
      <trkpt lat="49.22729" lon="0.14766">
        <ele>106</ele>
        <time>2023-12-06T14:46:52Z</time>
      </trkpt>
      <trkpt lat="49.22725" lon="0.14763">
        <ele>106.2</ele>
        <time>2023-12-06T14:46:53Z</time>
      </trkpt>
      <trkpt lat="49.22721" lon="0.14761">
        <ele>106.4</ele>
        <time>2023-12-06T14:46:54Z</time>
      </trkpt>
      <trkpt lat="49.22717" lon="0.14758">
        <ele>106.6</ele>
        <time>2023-12-06T14:46:55Z</time>
      </trkpt>
      <trkpt lat="49.22713" lon="0.14755">
        <ele>106.6</ele>
        <time>2023-12-06T14:46:56Z</time>
      </trkpt>
      <trkpt lat="49.22709" lon="0.14752">
        <ele>106.8</ele>
        <time>2023-12-06T14:46:57Z</time>
      </trkpt>
      <trkpt lat="49.22705" lon="0.14749">
        <ele>107.2</ele>
        <time>2023-12-06T14:46:58Z</time>
      </trkpt>
      <trkpt lat="49.22702" lon="0.14746">
        <ele>107.6</ele>
        <time>2023-12-06T14:46:59Z</time>
      </trkpt>
      <trkpt lat="49.22698" lon="0.14743">
        <ele>107.8</ele>
        <time>2023-12-06T14:47:00Z</time>
      </trkpt>
      <trkpt lat="49.22694" lon="0.1474">
        <ele>107.8</ele>
        <time>2023-12-06T14:47:01Z</time>
      </trkpt>
      <trkpt lat="49.2269" lon="0.14737">
        <ele>108</ele>
        <time>2023-12-06T14:47:02Z</time>
      </trkpt>
      <trkpt lat="49.22686" lon="0.14734">
        <ele>108</ele>
        <time>2023-12-06T14:47:03Z</time>
      </trkpt>
      <trkpt lat="49.22682" lon="0.14731">
        <ele>108.2</ele>
        <time>2023-12-06T14:47:04Z</time>
      </trkpt>
      <trkpt lat="49.22678" lon="0.14728">
        <ele>108.2</ele>
        <time>2023-12-06T14:47:05Z</time>
      </trkpt>
      <trkpt lat="49.22673" lon="0.14725">
        <ele>108.4</ele>
        <time>2023-12-06T14:47:06Z</time>
      </trkpt>
      <trkpt lat="49.22669" lon="0.14722">
        <ele>108.8</ele>
        <time>2023-12-06T14:47:07Z</time>
      </trkpt>
      <trkpt lat="49.22664" lon="0.14719">
        <ele>109</ele>
        <time>2023-12-06T14:47:08Z</time>
      </trkpt>
      <trkpt lat="49.22659" lon="0.14716">
        <ele>109.2</ele>
        <time>2023-12-06T14:47:09Z</time>
      </trkpt>
      <trkpt lat="49.22655" lon="0.14713">
        <ele>109.4</ele>
        <time>2023-12-06T14:47:10Z</time>
      </trkpt>
      <trkpt lat="49.22651" lon="0.14709">
        <ele>109.6</ele>
        <time>2023-12-06T14:47:11Z</time>
      </trkpt>
      <trkpt lat="49.22647" lon="0.14706">
        <ele>109.6</ele>
        <time>2023-12-06T14:47:12Z</time>
      </trkpt>
      <trkpt lat="49.22641" lon="0.14702">
        <ele>109.8</ele>
        <time>2023-12-06T14:47:13Z</time>
      </trkpt>
      <trkpt lat="49.22638" lon="0.147">
        <ele>110</ele>
        <time>2023-12-06T14:47:14Z</time>
      </trkpt>
      <trkpt lat="49.22634" lon="0.14696">
        <ele>110</ele>
        <time>2023-12-06T14:47:15Z</time>
      </trkpt>
      <trkpt lat="49.2263" lon="0.14692">
        <ele>110.2</ele>
        <time>2023-12-06T14:47:16Z</time>
      </trkpt>
      <trkpt lat="49.22625" lon="0.14689">
        <ele>110.4</ele>
        <time>2023-12-06T14:47:17Z</time>
      </trkpt>
      <trkpt lat="49.2262" lon="0.14686">
        <ele>110.4</ele>
        <time>2023-12-06T14:47:18Z</time>
      </trkpt>
      <trkpt lat="49.22615" lon="0.14683">
        <ele>110.6</ele>
        <time>2023-12-06T14:47:19Z</time>
      </trkpt>
      <trkpt lat="49.2261" lon="0.14679">
        <ele>110.6</ele>
        <time>2023-12-06T14:47:20Z</time>
      </trkpt>
      <trkpt lat="49.22605" lon="0.14676">
        <ele>110.6</ele>
        <time>2023-12-06T14:47:21Z</time>
      </trkpt>
      <trkpt lat="49.22601" lon="0.14673">
        <ele>110.8</ele>
        <time>2023-12-06T14:47:22Z</time>
      </trkpt>
      <trkpt lat="49.22597" lon="0.1467">
        <ele>110.8</ele>
        <time>2023-12-06T14:47:23Z</time>
      </trkpt>
      <trkpt lat="49.22592" lon="0.14667">
        <ele>111</ele>
        <time>2023-12-06T14:47:24Z</time>
      </trkpt>
      <trkpt lat="49.22587" lon="0.14664">
        <ele>111.2</ele>
        <time>2023-12-06T14:47:25Z</time>
      </trkpt>
      <trkpt lat="49.22582" lon="0.14662">
        <ele>111.2</ele>
        <time>2023-12-06T14:47:26Z</time>
      </trkpt>
      <trkpt lat="49.22578" lon="0.14658">
        <ele>111.4</ele>
        <time>2023-12-06T14:47:27Z</time>
      </trkpt>
      <trkpt lat="49.22574" lon="0.14654">
        <ele>111.6</ele>
        <time>2023-12-06T14:47:28Z</time>
      </trkpt>
      <trkpt lat="49.22569" lon="0.14651">
        <ele>111.6</ele>
        <time>2023-12-06T14:47:29Z</time>
      </trkpt>
      <trkpt lat="49.22564" lon="0.14648">
        <ele>111.8</ele>
        <time>2023-12-06T14:47:30Z</time>
      </trkpt>
      <trkpt lat="49.22558" lon="0.14646">
        <ele>112</ele>
        <time>2023-12-06T14:47:31Z</time>
      </trkpt>
      <trkpt lat="49.22554" lon="0.14643">
        <ele>112</ele>
        <time>2023-12-06T14:47:32Z</time>
      </trkpt>
      <trkpt lat="49.22549" lon="0.14639">
        <ele>112.2</ele>
        <time>2023-12-06T14:47:33Z</time>
      </trkpt>
      <trkpt lat="49.22543" lon="0.14634">
        <ele>112.2</ele>
        <time>2023-12-06T14:47:34Z</time>
      </trkpt>
      <trkpt lat="49.22538" lon="0.14631">
        <ele>112.4</ele>
        <time>2023-12-06T14:47:35Z</time>
      </trkpt>
      <trkpt lat="49.22532" lon="0.14628">
        <ele>112.6</ele>
        <time>2023-12-06T14:47:36Z</time>
      </trkpt>
      <trkpt lat="49.22525" lon="0.14624">
        <ele>112.8</ele>
        <time>2023-12-06T14:47:37Z</time>
      </trkpt>
      <trkpt lat="49.2252" lon="0.14621">
        <ele>113</ele>
        <time>2023-12-06T14:47:38Z</time>
      </trkpt>
      <trkpt lat="49.22516" lon="0.14618">
        <ele>113</ele>
        <time>2023-12-06T14:47:39Z</time>
      </trkpt>
      <trkpt lat="49.22511" lon="0.14615">
        <ele>113.2</ele>
        <time>2023-12-06T14:47:40Z</time>
      </trkpt>
      <trkpt lat="49.22505" lon="0.14613">
        <ele>113.2</ele>
        <time>2023-12-06T14:47:41Z</time>
      </trkpt>
      <trkpt lat="49.225" lon="0.1461">
        <ele>113.4</ele>
        <time>2023-12-06T14:47:42Z</time>
      </trkpt>
      <trkpt lat="49.22494" lon="0.14607">
        <ele>113.4</ele>
        <time>2023-12-06T14:47:43Z</time>
      </trkpt>
      <trkpt lat="49.2249" lon="0.14603">
        <ele>113.6</ele>
        <time>2023-12-06T14:47:44Z</time>
      </trkpt>
      <trkpt lat="49.22484" lon="0.146">
        <ele>113.6</ele>
        <time>2023-12-06T14:47:45Z</time>
      </trkpt>
      <trkpt lat="49.2248" lon="0.14597">
        <ele>113.8</ele>
        <time>2023-12-06T14:47:46Z</time>
      </trkpt>
      <trkpt lat="49.22475" lon="0.14593">
        <ele>114</ele>
        <time>2023-12-06T14:47:47Z</time>
      </trkpt>
      <trkpt lat="49.22469" lon="0.14591">
        <ele>114.2</ele>
        <time>2023-12-06T14:47:48Z</time>
      </trkpt>
      <trkpt lat="49.22463" lon="0.14587">
        <ele>114.4</ele>
        <time>2023-12-06T14:47:49Z</time>
      </trkpt>
      <trkpt lat="49.22456" lon="0.14586">
        <ele>114.4</ele>
        <time>2023-12-06T14:47:50Z</time>
      </trkpt>
      <trkpt lat="49.2245" lon="0.14583">
        <ele>114.6</ele>
        <time>2023-12-06T14:47:51Z</time>
      </trkpt>
      <trkpt lat="49.22444" lon="0.14581">
        <ele>114.8</ele>
        <time>2023-12-06T14:47:52Z</time>
      </trkpt>
      <trkpt lat="49.22438" lon="0.1458">
        <ele>114.8</ele>
        <time>2023-12-06T14:47:53Z</time>
      </trkpt>
      <trkpt lat="49.22432" lon="0.14578">
        <ele>115</ele>
        <time>2023-12-06T14:47:54Z</time>
      </trkpt>
      <trkpt lat="49.22426" lon="0.14577">
        <ele>115</ele>
        <time>2023-12-06T14:47:55Z</time>
      </trkpt>
      <trkpt lat="49.2242" lon="0.14576">
        <ele>115.2</ele>
        <time>2023-12-06T14:47:56Z</time>
      </trkpt>
      <trkpt lat="49.22414" lon="0.14574">
        <ele>115.4</ele>
        <time>2023-12-06T14:47:57Z</time>
      </trkpt>
      <trkpt lat="49.22408" lon="0.14572">
        <ele>115.8</ele>
        <time>2023-12-06T14:47:58Z</time>
      </trkpt>
      <trkpt lat="49.22403" lon="0.14571">
        <ele>116</ele>
        <time>2023-12-06T14:47:59Z</time>
      </trkpt>
      <trkpt lat="49.22397" lon="0.1457">
        <ele>116.2</ele>
        <time>2023-12-06T14:48:00Z</time>
      </trkpt>
      <trkpt lat="49.22391" lon="0.14568">
        <ele>116.4</ele>
        <time>2023-12-06T14:48:01Z</time>
      </trkpt>
      <trkpt lat="49.22384" lon="0.14567">
        <ele>116.4</ele>
        <time>2023-12-06T14:48:02Z</time>
      </trkpt>
      <trkpt lat="49.22378" lon="0.14565">
        <ele>116.6</ele>
        <time>2023-12-06T14:48:03Z</time>
      </trkpt>
      <trkpt lat="49.22372" lon="0.14563">
        <ele>116.6</ele>
        <time>2023-12-06T14:48:04Z</time>
      </trkpt>
      <trkpt lat="49.22365" lon="0.14562">
        <ele>116.8</ele>
        <time>2023-12-06T14:48:05Z</time>
      </trkpt>
      <trkpt lat="49.22359" lon="0.1456">
        <ele>116.8</ele>
        <time>2023-12-06T14:48:06Z</time>
      </trkpt>
      <trkpt lat="49.22353" lon="0.14558">
        <ele>117</ele>
        <time>2023-12-06T14:48:07Z</time>
      </trkpt>
      <trkpt lat="49.22346" lon="0.14556">
        <ele>117</ele>
        <time>2023-12-06T14:48:08Z</time>
      </trkpt>
      <trkpt lat="49.2234" lon="0.14554">
        <ele>117.2</ele>
        <time>2023-12-06T14:48:09Z</time>
      </trkpt>
      <trkpt lat="49.22333" lon="0.14553">
        <ele>117.2</ele>
        <time>2023-12-06T14:48:10Z</time>
      </trkpt>
      <trkpt lat="49.22327" lon="0.14551">
        <ele>117.4</ele>
        <time>2023-12-06T14:48:11Z</time>
      </trkpt>
      <trkpt lat="49.2232" lon="0.14548">
        <ele>117.6</ele>
        <time>2023-12-06T14:48:12Z</time>
      </trkpt>
      <trkpt lat="49.22313" lon="0.14546">
        <ele>117.8</ele>
        <time>2023-12-06T14:48:13Z</time>
      </trkpt>
      <trkpt lat="49.22307" lon="0.14543">
        <ele>117.8</ele>
        <time>2023-12-06T14:48:14Z</time>
      </trkpt>
      <trkpt lat="49.22301" lon="0.14541">
        <ele>118</ele>
        <time>2023-12-06T14:48:15Z</time>
      </trkpt>
      <trkpt lat="49.22295" lon="0.14538">
        <ele>118</ele>
        <time>2023-12-06T14:48:16Z</time>
      </trkpt>
      <trkpt lat="49.22289" lon="0.14535">
        <ele>118.2</ele>
        <time>2023-12-06T14:48:17Z</time>
      </trkpt>
      <trkpt lat="49.22284" lon="0.14533">
        <ele>118.4</ele>
        <time>2023-12-06T14:48:18Z</time>
      </trkpt>
      <trkpt lat="49.22278" lon="0.14531">
        <ele>118.6</ele>
        <time>2023-12-06T14:48:19Z</time>
      </trkpt>
      <trkpt lat="49.22272" lon="0.14528">
        <ele>118.8</ele>
        <time>2023-12-06T14:48:20Z</time>
      </trkpt>
      <trkpt lat="49.22265" lon="0.14525">
        <ele>119</ele>
        <time>2023-12-06T14:48:21Z</time>
      </trkpt>
      <trkpt lat="49.2226" lon="0.14522">
        <ele>119.2</ele>
        <time>2023-12-06T14:48:22Z</time>
      </trkpt>
      <trkpt lat="49.22254" lon="0.14518">
        <ele>119.2</ele>
        <time>2023-12-06T14:48:23Z</time>
      </trkpt>
      <trkpt lat="49.22248" lon="0.14515">
        <ele>119.4</ele>
        <time>2023-12-06T14:48:24Z</time>
      </trkpt>
      <trkpt lat="49.22242" lon="0.14512">
        <ele>119.4</ele>
        <time>2023-12-06T14:48:25Z</time>
      </trkpt>
      <trkpt lat="49.22236" lon="0.14508">
        <ele>119.4</ele>
        <time>2023-12-06T14:48:26Z</time>
      </trkpt>
      <trkpt lat="49.2223" lon="0.14505">
        <ele>119.6</ele>
        <time>2023-12-06T14:48:27Z</time>
      </trkpt>
      <trkpt lat="49.22224" lon="0.14502">
        <ele>119.8</ele>
        <time>2023-12-06T14:48:28Z</time>
      </trkpt>
      <trkpt lat="49.22219" lon="0.14498">
        <ele>119.8</ele>
        <time>2023-12-06T14:48:29Z</time>
      </trkpt>
      <trkpt lat="49.22214" lon="0.14495">
        <ele>120</ele>
        <time>2023-12-06T14:48:30Z</time>
      </trkpt>
      <trkpt lat="49.22208" lon="0.14491">
        <ele>120</ele>
        <time>2023-12-06T14:48:31Z</time>
      </trkpt>
      <trkpt lat="49.22201" lon="0.14487">
        <ele>120</ele>
        <time>2023-12-06T14:48:32Z</time>
      </trkpt>
      <trkpt lat="49.22195" lon="0.14483">
        <ele>120</ele>
        <time>2023-12-06T14:48:33Z</time>
      </trkpt>
      <trkpt lat="49.22189" lon="0.14479">
        <ele>120.2</ele>
        <time>2023-12-06T14:48:34Z</time>
      </trkpt>
      <trkpt lat="49.22184" lon="0.14476">
        <ele>120.2</ele>
        <time>2023-12-06T14:48:35Z</time>
      </trkpt>
      <trkpt lat="49.22179" lon="0.14472">
        <ele>120.6</ele>
        <time>2023-12-06T14:48:36Z</time>
      </trkpt>
      <trkpt lat="49.22172" lon="0.14467">
        <ele>120.8</ele>
        <time>2023-12-06T14:48:37Z</time>
      </trkpt>
      <trkpt lat="49.22166" lon="0.14463">
        <ele>120.8</ele>
        <time>2023-12-06T14:48:38Z</time>
      </trkpt>
      <trkpt lat="49.22161" lon="0.14458">
        <ele>121</ele>
        <time>2023-12-06T14:48:39Z</time>
      </trkpt>
      <trkpt lat="49.22155" lon="0.14454">
        <ele>121.2</ele>
        <time>2023-12-06T14:48:40Z</time>
      </trkpt>
      <trkpt lat="49.2215" lon="0.14449">
        <ele>121.2</ele>
        <time>2023-12-06T14:48:41Z</time>
      </trkpt>
      <trkpt lat="49.22144" lon="0.14445">
        <ele>121.4</ele>
        <time>2023-12-06T14:48:42Z</time>
      </trkpt>
      <trkpt lat="49.22139" lon="0.1444">
        <ele>121.6</ele>
        <time>2023-12-06T14:48:43Z</time>
      </trkpt>
      <trkpt lat="49.22134" lon="0.14435">
        <ele>121.8</ele>
        <time>2023-12-06T14:48:44Z</time>
      </trkpt>
      <trkpt lat="49.22128" lon="0.14431">
        <ele>122</ele>
        <time>2023-12-06T14:48:45Z</time>
      </trkpt>
      <trkpt lat="49.22123" lon="0.14426">
        <ele>122.4</ele>
        <time>2023-12-06T14:48:46Z</time>
      </trkpt>
      <trkpt lat="49.22118" lon="0.1442">
        <ele>122.8</ele>
        <time>2023-12-06T14:48:47Z</time>
      </trkpt>
      <trkpt lat="49.22113" lon="0.14415">
        <ele>123</ele>
        <time>2023-12-06T14:48:48Z</time>
      </trkpt>
      <trkpt lat="49.22108" lon="0.14409">
        <ele>123.6</ele>
        <time>2023-12-06T14:48:49Z</time>
      </trkpt>
      <trkpt lat="49.22102" lon="0.14404">
        <ele>124</ele>
        <time>2023-12-06T14:48:50Z</time>
      </trkpt>
      <trkpt lat="49.22097" lon="0.14399">
        <ele>124.2</ele>
        <time>2023-12-06T14:48:51Z</time>
      </trkpt>
      <trkpt lat="49.22091" lon="0.14394">
        <ele>124.4</ele>
        <time>2023-12-06T14:48:52Z</time>
      </trkpt>
      <trkpt lat="49.22086" lon="0.14389">
        <ele>124.8</ele>
        <time>2023-12-06T14:48:53Z</time>
      </trkpt>
      <trkpt lat="49.22081" lon="0.14384">
        <ele>125</ele>
        <time>2023-12-06T14:48:54Z</time>
      </trkpt>
      <trkpt lat="49.22076" lon="0.14378">
        <ele>125</ele>
        <time>2023-12-06T14:48:55Z</time>
      </trkpt>
      <trkpt lat="49.22071" lon="0.14373">
        <ele>125.2</ele>
        <time>2023-12-06T14:48:56Z</time>
      </trkpt>
      <trkpt lat="49.22067" lon="0.14367">
        <ele>125.4</ele>
        <time>2023-12-06T14:48:57Z</time>
      </trkpt>
      <trkpt lat="49.22062" lon="0.14361">
        <ele>125.6</ele>
        <time>2023-12-06T14:48:58Z</time>
      </trkpt>
      <trkpt lat="49.22058" lon="0.14355">
        <ele>125.8</ele>
        <time>2023-12-06T14:48:59Z</time>
      </trkpt>
      <trkpt lat="49.22053" lon="0.14349">
        <ele>126</ele>
        <time>2023-12-06T14:49:00Z</time>
      </trkpt>
      <trkpt lat="49.22049" lon="0.14344">
        <ele>126</ele>
        <time>2023-12-06T14:49:01Z</time>
      </trkpt>
      <trkpt lat="49.22044" lon="0.14338">
        <ele>126.2</ele>
        <time>2023-12-06T14:49:02Z</time>
      </trkpt>
      <trkpt lat="49.22039" lon="0.14332">
        <ele>126.6</ele>
        <time>2023-12-06T14:49:03Z</time>
      </trkpt>
      <trkpt lat="49.22035" lon="0.14325">
        <ele>126.6</ele>
        <time>2023-12-06T14:49:04Z</time>
      </trkpt>
      <trkpt lat="49.22031" lon="0.14319">
        <ele>126.8</ele>
        <time>2023-12-06T14:49:05Z</time>
      </trkpt>
      <trkpt lat="49.22026" lon="0.14313">
        <ele>127</ele>
        <time>2023-12-06T14:49:06Z</time>
      </trkpt>
      <trkpt lat="49.22022" lon="0.14306">
        <ele>127.2</ele>
        <time>2023-12-06T14:49:07Z</time>
      </trkpt>
      <trkpt lat="49.22018" lon="0.14299">
        <ele>127.4</ele>
        <time>2023-12-06T14:49:08Z</time>
      </trkpt>
      <trkpt lat="49.22013" lon="0.14292">
        <ele>127.6</ele>
        <time>2023-12-06T14:49:09Z</time>
      </trkpt>
      <trkpt lat="49.22009" lon="0.14286">
        <ele>127.8</ele>
        <time>2023-12-06T14:49:10Z</time>
      </trkpt>
      <trkpt lat="49.22004" lon="0.1428">
        <ele>128</ele>
        <time>2023-12-06T14:49:11Z</time>
      </trkpt>
      <trkpt lat="49.21999" lon="0.14273">
        <ele>128.2</ele>
        <time>2023-12-06T14:49:12Z</time>
      </trkpt>
      <trkpt lat="49.21994" lon="0.14266">
        <ele>128.4</ele>
        <time>2023-12-06T14:49:13Z</time>
      </trkpt>
      <trkpt lat="49.2199" lon="0.1426">
        <ele>128.6</ele>
        <time>2023-12-06T14:49:14Z</time>
      </trkpt>
      <trkpt lat="49.21985" lon="0.14254">
        <ele>128.8</ele>
        <time>2023-12-06T14:49:15Z</time>
      </trkpt>
      <trkpt lat="49.2198" lon="0.14246">
        <ele>129</ele>
        <time>2023-12-06T14:49:16Z</time>
      </trkpt>
      <trkpt lat="49.21976" lon="0.1424">
        <ele>129.2</ele>
        <time>2023-12-06T14:49:17Z</time>
      </trkpt>
      <trkpt lat="49.21971" lon="0.14233">
        <ele>129.2</ele>
        <time>2023-12-06T14:49:18Z</time>
      </trkpt>
      <trkpt lat="49.21967" lon="0.14227">
        <ele>129.4</ele>
        <time>2023-12-06T14:49:19Z</time>
      </trkpt>
      <trkpt lat="49.21963" lon="0.14221">
        <ele>129.6</ele>
        <time>2023-12-06T14:49:20Z</time>
      </trkpt>
      <trkpt lat="49.21959" lon="0.14215">
        <ele>129.8</ele>
        <time>2023-12-06T14:49:21Z</time>
      </trkpt>
      <trkpt lat="49.21954" lon="0.14209">
        <ele>130</ele>
        <time>2023-12-06T14:49:22Z</time>
      </trkpt>
      <trkpt lat="49.2195" lon="0.14202">
        <ele>130.4</ele>
        <time>2023-12-06T14:49:23Z</time>
      </trkpt>
      <trkpt lat="49.21946" lon="0.14196">
        <ele>130.8</ele>
        <time>2023-12-06T14:49:24Z</time>
      </trkpt>
      <trkpt lat="49.21941" lon="0.14188">
        <ele>131</ele>
        <time>2023-12-06T14:49:25Z</time>
      </trkpt>
      <trkpt lat="49.21937" lon="0.14183">
        <ele>131.2</ele>
        <time>2023-12-06T14:49:26Z</time>
      </trkpt>
      <trkpt lat="49.21933" lon="0.14177">
        <ele>131.2</ele>
        <time>2023-12-06T14:49:27Z</time>
      </trkpt>
      <trkpt lat="49.21928" lon="0.1417">
        <ele>131.4</ele>
        <time>2023-12-06T14:49:28Z</time>
      </trkpt>
      <trkpt lat="49.21924" lon="0.14164">
        <ele>131.6</ele>
        <time>2023-12-06T14:49:29Z</time>
      </trkpt>
      <trkpt lat="49.2192" lon="0.14158">
        <ele>132</ele>
        <time>2023-12-06T14:49:30Z</time>
      </trkpt>
      <trkpt lat="49.21915" lon="0.14152">
        <ele>132</ele>
        <time>2023-12-06T14:49:31Z</time>
      </trkpt>
      <trkpt lat="49.2191" lon="0.14145">
        <ele>132.2</ele>
        <time>2023-12-06T14:49:32Z</time>
      </trkpt>
      <trkpt lat="49.21906" lon="0.14139">
        <ele>132.2</ele>
        <time>2023-12-06T14:49:33Z</time>
      </trkpt>
      <trkpt lat="49.21902" lon="0.14132">
        <ele>132.4</ele>
        <time>2023-12-06T14:49:34Z</time>
      </trkpt>
      <trkpt lat="49.21897" lon="0.14125">
        <ele>132.6</ele>
        <time>2023-12-06T14:49:35Z</time>
      </trkpt>
      <trkpt lat="49.21892" lon="0.14118">
        <ele>132.8</ele>
        <time>2023-12-06T14:49:36Z</time>
      </trkpt>
      <trkpt lat="49.21888" lon="0.14111">
        <ele>133</ele>
        <time>2023-12-06T14:49:37Z</time>
      </trkpt>
      <trkpt lat="49.21884" lon="0.14105">
        <ele>133</ele>
        <time>2023-12-06T14:49:38Z</time>
      </trkpt>
      <trkpt lat="49.2188" lon="0.14098">
        <ele>133.4</ele>
        <time>2023-12-06T14:49:39Z</time>
      </trkpt>
      <trkpt lat="49.21875" lon="0.14092">
        <ele>133.6</ele>
        <time>2023-12-06T14:49:40Z</time>
      </trkpt>
      <trkpt lat="49.2187" lon="0.14086">
        <ele>133.8</ele>
        <time>2023-12-06T14:49:41Z</time>
      </trkpt>
      <trkpt lat="49.21865" lon="0.14079">
        <ele>133.8</ele>
        <time>2023-12-06T14:49:42Z</time>
      </trkpt>
      <trkpt lat="49.2186" lon="0.14073">
        <ele>134</ele>
        <time>2023-12-06T14:49:43Z</time>
      </trkpt>
      <trkpt lat="49.21855" lon="0.14066">
        <ele>134.2</ele>
        <time>2023-12-06T14:49:44Z</time>
      </trkpt>
      <trkpt lat="49.2185" lon="0.1406">
        <ele>134.2</ele>
        <time>2023-12-06T14:49:45Z</time>
      </trkpt>
      <trkpt lat="49.21844" lon="0.14054">
        <ele>134.6</ele>
        <time>2023-12-06T14:49:46Z</time>
      </trkpt>
      <trkpt lat="49.21839" lon="0.14048">
        <ele>134.8</ele>
        <time>2023-12-06T14:49:47Z</time>
      </trkpt>
      <trkpt lat="49.21835" lon="0.14041">
        <ele>135</ele>
        <time>2023-12-06T14:49:48Z</time>
      </trkpt>
      <trkpt lat="49.21829" lon="0.14033">
        <ele>135</ele>
        <time>2023-12-06T14:49:49Z</time>
      </trkpt>
      <trkpt lat="49.21826" lon="0.14027">
        <ele>135</ele>
        <time>2023-12-06T14:49:50Z</time>
      </trkpt>
      <trkpt lat="49.21821" lon="0.1402">
        <ele>135.2</ele>
        <time>2023-12-06T14:49:51Z</time>
      </trkpt>
      <trkpt lat="49.21817" lon="0.14013">
        <ele>135.2</ele>
        <time>2023-12-06T14:49:52Z</time>
      </trkpt>
      <trkpt lat="49.21813" lon="0.14007">
        <ele>135.2</ele>
        <time>2023-12-06T14:49:53Z</time>
      </trkpt>
      <trkpt lat="49.21809" lon="0.14">
        <ele>135.6</ele>
        <time>2023-12-06T14:49:54Z</time>
      </trkpt>
      <trkpt lat="49.21804" lon="0.13993">
        <ele>135.8</ele>
        <time>2023-12-06T14:49:55Z</time>
      </trkpt>
      <trkpt lat="49.21799" lon="0.13986">
        <ele>136</ele>
        <time>2023-12-06T14:49:56Z</time>
      </trkpt>
      <trkpt lat="49.21794" lon="0.13979">
        <ele>136.2</ele>
        <time>2023-12-06T14:49:57Z</time>
      </trkpt>
      <trkpt lat="49.2179" lon="0.13972">
        <ele>136.2</ele>
        <time>2023-12-06T14:49:58Z</time>
      </trkpt>
      <trkpt lat="49.21785" lon="0.13965">
        <ele>136.4</ele>
        <time>2023-12-06T14:49:59Z</time>
      </trkpt>
      <trkpt lat="49.2178" lon="0.13958">
        <ele>136.4</ele>
        <time>2023-12-06T14:50:00Z</time>
      </trkpt>
      <trkpt lat="49.21775" lon="0.1395">
        <ele>136.6</ele>
        <time>2023-12-06T14:50:01Z</time>
      </trkpt>
      <trkpt lat="49.2177" lon="0.13943">
        <ele>136.8</ele>
        <time>2023-12-06T14:50:02Z</time>
      </trkpt>
      <trkpt lat="49.21765" lon="0.13937">
        <ele>137</ele>
        <time>2023-12-06T14:50:03Z</time>
      </trkpt>
      <trkpt lat="49.2176" lon="0.13931">
        <ele>137.2</ele>
        <time>2023-12-06T14:50:04Z</time>
      </trkpt>
      <trkpt lat="49.21755" lon="0.13924">
        <ele>137.4</ele>
        <time>2023-12-06T14:50:05Z</time>
      </trkpt>
      <trkpt lat="49.21751" lon="0.13916">
        <ele>137.6</ele>
        <time>2023-12-06T14:50:06Z</time>
      </trkpt>
      <trkpt lat="49.21747" lon="0.13909">
        <ele>137.6</ele>
        <time>2023-12-06T14:50:07Z</time>
      </trkpt>
      <trkpt lat="49.21742" lon="0.13901">
        <ele>137.8</ele>
        <time>2023-12-06T14:50:08Z</time>
      </trkpt>
      <trkpt lat="49.21738" lon="0.13894">
        <ele>138</ele>
        <time>2023-12-06T14:50:09Z</time>
      </trkpt>
      <trkpt lat="49.21733" lon="0.13887">
        <ele>138.2</ele>
        <time>2023-12-06T14:50:10Z</time>
      </trkpt>
      <trkpt lat="49.21728" lon="0.13879">
        <ele>138.4</ele>
        <time>2023-12-06T14:50:11Z</time>
      </trkpt>
      <trkpt lat="49.21723" lon="0.13871">
        <ele>138.6</ele>
        <time>2023-12-06T14:50:12Z</time>
      </trkpt>
      <trkpt lat="49.21718" lon="0.13862">
        <ele>138.8</ele>
        <time>2023-12-06T14:50:13Z</time>
      </trkpt>
      <trkpt lat="49.21713" lon="0.13854">
        <ele>139.2</ele>
        <time>2023-12-06T14:50:14Z</time>
      </trkpt>
      <trkpt lat="49.21708" lon="0.13846">
        <ele>139.2</ele>
        <time>2023-12-06T14:50:15Z</time>
      </trkpt>
      <trkpt lat="49.21703" lon="0.13837">
        <ele>139.4</ele>
        <time>2023-12-06T14:50:16Z</time>
      </trkpt>
      <trkpt lat="49.21698" lon="0.13829">
        <ele>139.6</ele>
        <time>2023-12-06T14:50:17Z</time>
      </trkpt>
      <trkpt lat="49.21693" lon="0.13821">
        <ele>139.8</ele>
        <time>2023-12-06T14:50:18Z</time>
      </trkpt>
      <trkpt lat="49.21688" lon="0.13812">
        <ele>140</ele>
        <time>2023-12-06T14:50:19Z</time>
      </trkpt>
      <trkpt lat="49.21684" lon="0.13803">
        <ele>140.2</ele>
        <time>2023-12-06T14:50:20Z</time>
      </trkpt>
      <trkpt lat="49.2168" lon="0.13794">
        <ele>140.2</ele>
        <time>2023-12-06T14:50:21Z</time>
      </trkpt>
      <trkpt lat="49.21676" lon="0.13784">
        <ele>140.4</ele>
        <time>2023-12-06T14:50:22Z</time>
      </trkpt>
      <trkpt lat="49.21672" lon="0.13775">
        <ele>140.6</ele>
        <time>2023-12-06T14:50:23Z</time>
      </trkpt>
      <trkpt lat="49.21668" lon="0.13766">
        <ele>140.8</ele>
        <time>2023-12-06T14:50:24Z</time>
      </trkpt>
      <trkpt lat="49.21664" lon="0.13756">
        <ele>140.8</ele>
        <time>2023-12-06T14:50:25Z</time>
      </trkpt>
      <trkpt lat="49.2166" lon="0.13747">
        <ele>141</ele>
        <time>2023-12-06T14:50:26Z</time>
      </trkpt>
      <trkpt lat="49.21656" lon="0.13738">
        <ele>141.2</ele>
        <time>2023-12-06T14:50:27Z</time>
      </trkpt>
      <trkpt lat="49.21653" lon="0.13729">
        <ele>141.2</ele>
        <time>2023-12-06T14:50:28Z</time>
      </trkpt>
      <trkpt lat="49.2165" lon="0.1372">
        <ele>141.4</ele>
        <time>2023-12-06T14:50:29Z</time>
      </trkpt>
      <trkpt lat="49.21647" lon="0.13712">
        <ele>141.4</ele>
        <time>2023-12-06T14:50:30Z</time>
      </trkpt>
      <trkpt lat="49.21644" lon="0.13703">
        <ele>141.4</ele>
        <time>2023-12-06T14:50:31Z</time>
      </trkpt>
      <trkpt lat="49.2164" lon="0.13696">
        <ele>141.6</ele>
        <time>2023-12-06T14:50:32Z</time>
      </trkpt>
      <trkpt lat="49.21637" lon="0.13688">
        <ele>141.6</ele>
        <time>2023-12-06T14:50:33Z</time>
      </trkpt>
      <trkpt lat="49.21634" lon="0.13681">
        <ele>141.8</ele>
        <time>2023-12-06T14:50:34Z</time>
      </trkpt>
      <trkpt lat="49.21632" lon="0.13674">
        <ele>142</ele>
        <time>2023-12-06T14:50:35Z</time>
      </trkpt>
      <trkpt lat="49.21629" lon="0.13667">
        <ele>142</ele>
        <time>2023-12-06T14:50:36Z</time>
      </trkpt>
      <trkpt lat="49.21626" lon="0.1366">
        <ele>142.2</ele>
        <time>2023-12-06T14:50:37Z</time>
      </trkpt>
      <trkpt lat="49.21624" lon="0.13655">
        <ele>142.4</ele>
        <time>2023-12-06T14:50:38Z</time>
      </trkpt>
      <trkpt lat="49.21621" lon="0.13649">
        <ele>142.6</ele>
        <time>2023-12-06T14:50:39Z</time>
      </trkpt>
      <trkpt lat="49.21619" lon="0.13643">
        <ele>142.8</ele>
        <time>2023-12-06T14:50:40Z</time>
      </trkpt>
      <trkpt lat="49.21618" lon="0.13637">
        <ele>142.8</ele>
        <time>2023-12-06T14:50:41Z</time>
      </trkpt>
      <trkpt lat="49.21616" lon="0.13631">
        <ele>143</ele>
        <time>2023-12-06T14:50:42Z</time>
      </trkpt>
      <trkpt lat="49.21615" lon="0.13626">
        <ele>143</ele>
        <time>2023-12-06T14:50:43Z</time>
      </trkpt>
      <trkpt lat="49.21613" lon="0.13621">
        <ele>143.2</ele>
        <time>2023-12-06T14:50:44Z</time>
      </trkpt>
      <trkpt lat="49.21612" lon="0.13618">
        <ele>143.2</ele>
        <time>2023-12-06T14:50:45Z</time>
      </trkpt>
      <trkpt lat="49.21611" lon="0.13615">
        <ele>143.2</ele>
        <time>2023-12-06T14:50:46Z</time>
      </trkpt>
      <trkpt lat="49.2161" lon="0.13613">
        <ele>143.2</ele>
        <time>2023-12-06T14:50:47Z</time>
      </trkpt>
      <trkpt lat="49.2161" lon="0.13611">
        <ele>143.4</ele>
        <time>2023-12-06T14:50:48Z</time>
      </trkpt>
      <trkpt lat="49.2161" lon="0.1361">
        <ele>143.6</ele>
        <time>2023-12-06T14:50:49Z</time>
      </trkpt>
      <trkpt lat="49.2161" lon="0.1361">
        <ele>143.6</ele>
        <time>2023-12-06T14:50:50Z</time>
      </trkpt>
      <trkpt lat="49.21604" lon="0.13595">
        <ele>144.8</ele>
        <time>2023-12-06T14:53:44Z</time>
      </trkpt>
      <trkpt lat="49.21603" lon="0.13592">
        <ele>144.8</ele>
        <time>2023-12-06T14:53:45Z</time>
      </trkpt>
      <trkpt lat="49.21602" lon="0.13588">
        <ele>144.8</ele>
        <time>2023-12-06T14:53:46Z</time>
      </trkpt>
      <trkpt lat="49.216" lon="0.13584">
        <ele>144.8</ele>
        <time>2023-12-06T14:53:47Z</time>
      </trkpt>
      <trkpt lat="49.21597" lon="0.13579">
        <ele>144.8</ele>
        <time>2023-12-06T14:53:48Z</time>
      </trkpt>
      <trkpt lat="49.21594" lon="0.13574">
        <ele>144.8</ele>
        <time>2023-12-06T14:53:49Z</time>
      </trkpt>
      <trkpt lat="49.21591" lon="0.13569">
        <ele>144.8</ele>
        <time>2023-12-06T14:53:50Z</time>
      </trkpt>
      <trkpt lat="49.21588" lon="0.13563">
        <ele>144.8</ele>
        <time>2023-12-06T14:53:51Z</time>
      </trkpt>
      <trkpt lat="49.21586" lon="0.13558">
        <ele>144.8</ele>
        <time>2023-12-06T14:53:52Z</time>
      </trkpt>
      <trkpt lat="49.21583" lon="0.13553">
        <ele>144.8</ele>
        <time>2023-12-06T14:53:53Z</time>
      </trkpt>
      <trkpt lat="49.21581" lon="0.13547">
        <ele>144.8</ele>
        <time>2023-12-06T14:53:54Z</time>
      </trkpt>
      <trkpt lat="49.21578" lon="0.13541">
        <ele>144.8</ele>
        <time>2023-12-06T14:53:55Z</time>
      </trkpt>
      <trkpt lat="49.21575" lon="0.13535">
        <ele>144.8</ele>
        <time>2023-12-06T14:53:56Z</time>
      </trkpt>
      <trkpt lat="49.21572" lon="0.13528">
        <ele>144.8</ele>
        <time>2023-12-06T14:53:57Z</time>
      </trkpt>
      <trkpt lat="49.2157" lon="0.13522">
        <ele>144.8</ele>
        <time>2023-12-06T14:53:58Z</time>
      </trkpt>
      <trkpt lat="49.21566" lon="0.13515">
        <ele>144.6</ele>
        <time>2023-12-06T14:53:59Z</time>
      </trkpt>
      <trkpt lat="49.21563" lon="0.13508">
        <ele>144.6</ele>
        <time>2023-12-06T14:54:00Z</time>
      </trkpt>
      <trkpt lat="49.21559" lon="0.13502">
        <ele>144.6</ele>
        <time>2023-12-06T14:54:01Z</time>
      </trkpt>
      <trkpt lat="49.21556" lon="0.13494">
        <ele>144.6</ele>
        <time>2023-12-06T14:54:02Z</time>
      </trkpt>
      <trkpt lat="49.21552" lon="0.13487">
        <ele>144.6</ele>
        <time>2023-12-06T14:54:03Z</time>
      </trkpt>
      <trkpt lat="49.21548" lon="0.1348">
        <ele>144.6</ele>
        <time>2023-12-06T14:54:04Z</time>
      </trkpt>
      <trkpt lat="49.21544" lon="0.13473">
        <ele>144.6</ele>
        <time>2023-12-06T14:54:05Z</time>
      </trkpt>
      <trkpt lat="49.21539" lon="0.13466">
        <ele>144.6</ele>
        <time>2023-12-06T14:54:06Z</time>
      </trkpt>
      <trkpt lat="49.21535" lon="0.13458">
        <ele>144.6</ele>
        <time>2023-12-06T14:54:07Z</time>
      </trkpt>
      <trkpt lat="49.2153" lon="0.13451">
        <ele>144.6</ele>
        <time>2023-12-06T14:54:08Z</time>
      </trkpt>
      <trkpt lat="49.21525" lon="0.13445">
        <ele>144.8</ele>
        <time>2023-12-06T14:54:09Z</time>
      </trkpt>
      <trkpt lat="49.2152" lon="0.13438">
        <ele>144.8</ele>
        <time>2023-12-06T14:54:10Z</time>
      </trkpt>
      <trkpt lat="49.21514" lon="0.13431">
        <ele>144.8</ele>
        <time>2023-12-06T14:54:11Z</time>
      </trkpt>
      <trkpt lat="49.21508" lon="0.13425">
        <ele>145</ele>
        <time>2023-12-06T14:54:12Z</time>
      </trkpt>
      <trkpt lat="49.21502" lon="0.13418">
        <ele>144.8</ele>
        <time>2023-12-06T14:54:13Z</time>
      </trkpt>
      <trkpt lat="49.21496" lon="0.13412">
        <ele>145</ele>
        <time>2023-12-06T14:54:14Z</time>
      </trkpt>
      <trkpt lat="49.2149" lon="0.13407">
        <ele>145</ele>
        <time>2023-12-06T14:54:15Z</time>
      </trkpt>
      <trkpt lat="49.21483" lon="0.13402">
        <ele>145</ele>
        <time>2023-12-06T14:54:16Z</time>
      </trkpt>
      <trkpt lat="49.21476" lon="0.13398">
        <ele>145.2</ele>
        <time>2023-12-06T14:54:17Z</time>
      </trkpt>
      <trkpt lat="49.2147" lon="0.13393">
        <ele>145.2</ele>
        <time>2023-12-06T14:54:18Z</time>
      </trkpt>
      <trkpt lat="49.21463" lon="0.13389">
        <ele>145.2</ele>
        <time>2023-12-06T14:54:19Z</time>
      </trkpt>
      <trkpt lat="49.21456" lon="0.13385">
        <ele>145.2</ele>
        <time>2023-12-06T14:54:20Z</time>
      </trkpt>
      <trkpt lat="49.21449" lon="0.13381">
        <ele>145.4</ele>
        <time>2023-12-06T14:54:21Z</time>
      </trkpt>
      <trkpt lat="49.21442" lon="0.13377">
        <ele>145.4</ele>
        <time>2023-12-06T14:54:22Z</time>
      </trkpt>
      <trkpt lat="49.21435" lon="0.13373">
        <ele>145.6</ele>
        <time>2023-12-06T14:54:23Z</time>
      </trkpt>
      <trkpt lat="49.21428" lon="0.13369">
        <ele>145.8</ele>
        <time>2023-12-06T14:54:24Z</time>
      </trkpt>
      <trkpt lat="49.21421" lon="0.13364">
        <ele>146</ele>
        <time>2023-12-06T14:54:25Z</time>
      </trkpt>
      <trkpt lat="49.21414" lon="0.1336">
        <ele>146</ele>
        <time>2023-12-06T14:54:26Z</time>
      </trkpt>
      <trkpt lat="49.21407" lon="0.13355">
        <ele>146</ele>
        <time>2023-12-06T14:54:27Z</time>
      </trkpt>
      <trkpt lat="49.21401" lon="0.1335">
        <ele>146.2</ele>
        <time>2023-12-06T14:54:28Z</time>
      </trkpt>
      <trkpt lat="49.21394" lon="0.13345">
        <ele>146.2</ele>
        <time>2023-12-06T14:54:29Z</time>
      </trkpt>
      <trkpt lat="49.21387" lon="0.1334">
        <ele>146.2</ele>
        <time>2023-12-06T14:54:30Z</time>
      </trkpt>
      <trkpt lat="49.21381" lon="0.13335">
        <ele>146.2</ele>
        <time>2023-12-06T14:54:31Z</time>
      </trkpt>
      <trkpt lat="49.21375" lon="0.13328">
        <ele>146.2</ele>
        <time>2023-12-06T14:54:32Z</time>
      </trkpt>
      <trkpt lat="49.21369" lon="0.13322">
        <ele>146.2</ele>
        <time>2023-12-06T14:54:33Z</time>
      </trkpt>
      <trkpt lat="49.21363" lon="0.13314">
        <ele>146.2</ele>
        <time>2023-12-06T14:54:34Z</time>
      </trkpt>
      <trkpt lat="49.21358" lon="0.13307">
        <ele>146.2</ele>
        <time>2023-12-06T14:54:35Z</time>
      </trkpt>
      <trkpt lat="49.21352" lon="0.13299">
        <ele>146.2</ele>
        <time>2023-12-06T14:54:36Z</time>
      </trkpt>
      <trkpt lat="49.21346" lon="0.13292">
        <ele>146.2</ele>
        <time>2023-12-06T14:54:37Z</time>
      </trkpt>
      <trkpt lat="49.2134" lon="0.13285">
        <ele>146.4</ele>
        <time>2023-12-06T14:54:38Z</time>
      </trkpt>
      <trkpt lat="49.21335" lon="0.13278">
        <ele>146.4</ele>
        <time>2023-12-06T14:54:39Z</time>
      </trkpt>
      <trkpt lat="49.21329" lon="0.1327">
        <ele>146.4</ele>
        <time>2023-12-06T14:54:40Z</time>
      </trkpt>
      <trkpt lat="49.21324" lon="0.13263">
        <ele>146.4</ele>
        <time>2023-12-06T14:54:41Z</time>
      </trkpt>
      <trkpt lat="49.21318" lon="0.13256">
        <ele>146.4</ele>
        <time>2023-12-06T14:54:42Z</time>
      </trkpt>
      <trkpt lat="49.21312" lon="0.13249">
        <ele>146.6</ele>
        <time>2023-12-06T14:54:43Z</time>
      </trkpt>
      <trkpt lat="49.21307" lon="0.13242">
        <ele>146.6</ele>
        <time>2023-12-06T14:54:44Z</time>
      </trkpt>
      <trkpt lat="49.21301" lon="0.13235">
        <ele>146.6</ele>
        <time>2023-12-06T14:54:45Z</time>
      </trkpt>
      <trkpt lat="49.21295" lon="0.13229">
        <ele>146.6</ele>
        <time>2023-12-06T14:54:46Z</time>
      </trkpt>
      <trkpt lat="49.21289" lon="0.13223">
        <ele>146.6</ele>
        <time>2023-12-06T14:54:47Z</time>
      </trkpt>
      <trkpt lat="49.21283" lon="0.13217">
        <ele>146.6</ele>
        <time>2023-12-06T14:54:48Z</time>
      </trkpt>
      <trkpt lat="49.21277" lon="0.13211">
        <ele>146.6</ele>
        <time>2023-12-06T14:54:49Z</time>
      </trkpt>
      <trkpt lat="49.21271" lon="0.13206">
        <ele>146.6</ele>
        <time>2023-12-06T14:54:50Z</time>
      </trkpt>
      <trkpt lat="49.21265" lon="0.13201">
        <ele>146.8</ele>
        <time>2023-12-06T14:54:51Z</time>
      </trkpt>
      <trkpt lat="49.21259" lon="0.13196">
        <ele>146.8</ele>
        <time>2023-12-06T14:54:52Z</time>
      </trkpt>
      <trkpt lat="49.21252" lon="0.13192">
        <ele>146.8</ele>
        <time>2023-12-06T14:54:53Z</time>
      </trkpt>
      <trkpt lat="49.21246" lon="0.13187">
        <ele>146.8</ele>
        <time>2023-12-06T14:54:54Z</time>
      </trkpt>
      <trkpt lat="49.2124" lon="0.13183">
        <ele>146.8</ele>
        <time>2023-12-06T14:54:55Z</time>
      </trkpt>
      <trkpt lat="49.21234" lon="0.13179">
        <ele>146.8</ele>
        <time>2023-12-06T14:54:56Z</time>
      </trkpt>
      <trkpt lat="49.21227" lon="0.13175">
        <ele>146.8</ele>
        <time>2023-12-06T14:54:57Z</time>
      </trkpt>
      <trkpt lat="49.21221" lon="0.13172">
        <ele>146.8</ele>
        <time>2023-12-06T14:54:58Z</time>
      </trkpt>
      <trkpt lat="49.21214" lon="0.13168">
        <ele>146.8</ele>
        <time>2023-12-06T14:54:59Z</time>
      </trkpt>
      <trkpt lat="49.21208" lon="0.13165">
        <ele>146.8</ele>
        <time>2023-12-06T14:55:00Z</time>
      </trkpt>
      <trkpt lat="49.21201" lon="0.13162">
        <ele>147</ele>
        <time>2023-12-06T14:55:01Z</time>
      </trkpt>
      <trkpt lat="49.21195" lon="0.1316">
        <ele>147</ele>
        <time>2023-12-06T14:55:02Z</time>
      </trkpt>
      <trkpt lat="49.21188" lon="0.13157">
        <ele>147</ele>
        <time>2023-12-06T14:55:03Z</time>
      </trkpt>
      <trkpt lat="49.21182" lon="0.13154">
        <ele>147</ele>
        <time>2023-12-06T14:55:04Z</time>
      </trkpt>
      <trkpt lat="49.21175" lon="0.13152">
        <ele>147</ele>
        <time>2023-12-06T14:55:05Z</time>
      </trkpt>
      <trkpt lat="49.21168" lon="0.1315">
        <ele>147</ele>
        <time>2023-12-06T14:55:06Z</time>
      </trkpt>
      <trkpt lat="49.21161" lon="0.13149">
        <ele>147</ele>
        <time>2023-12-06T14:55:07Z</time>
      </trkpt>
      <trkpt lat="49.21154" lon="0.13147">
        <ele>147</ele>
        <time>2023-12-06T14:55:08Z</time>
      </trkpt>
      <trkpt lat="49.21147" lon="0.13147">
        <ele>147</ele>
        <time>2023-12-06T14:55:09Z</time>
      </trkpt>
      <trkpt lat="49.2114" lon="0.13146">
        <ele>147.2</ele>
        <time>2023-12-06T14:55:10Z</time>
      </trkpt>
      <trkpt lat="49.21133" lon="0.13145">
        <ele>147.2</ele>
        <time>2023-12-06T14:55:11Z</time>
      </trkpt>
      <trkpt lat="49.21126" lon="0.13145">
        <ele>147.4</ele>
        <time>2023-12-06T14:55:12Z</time>
      </trkpt>
      <trkpt lat="49.21119" lon="0.13144">
        <ele>147.6</ele>
        <time>2023-12-06T14:55:13Z</time>
      </trkpt>
      <trkpt lat="49.21112" lon="0.13144">
        <ele>147.8</ele>
        <time>2023-12-06T14:55:14Z</time>
      </trkpt>
      <trkpt lat="49.21106" lon="0.13143">
        <ele>147.8</ele>
        <time>2023-12-06T14:55:15Z</time>
      </trkpt>
      <trkpt lat="49.21099" lon="0.13143">
        <ele>147.8</ele>
        <time>2023-12-06T14:55:16Z</time>
      </trkpt>
      <trkpt lat="49.21093" lon="0.13143">
        <ele>148</ele>
        <time>2023-12-06T14:55:17Z</time>
      </trkpt>
      <trkpt lat="49.21088" lon="0.13141">
        <ele>148</ele>
        <time>2023-12-06T14:55:18Z</time>
      </trkpt>
      <trkpt lat="49.21083" lon="0.13138">
        <ele>148</ele>
        <time>2023-12-06T14:55:19Z</time>
      </trkpt>
      <trkpt lat="49.21079" lon="0.13132">
        <ele>148</ele>
        <time>2023-12-06T14:55:20Z</time>
      </trkpt>
      <trkpt lat="49.21077" lon="0.13124">
        <ele>148.2</ele>
        <time>2023-12-06T14:55:21Z</time>
      </trkpt>
      <trkpt lat="49.21077" lon="0.13115">
        <ele>148.2</ele>
        <time>2023-12-06T14:55:22Z</time>
      </trkpt>
      <trkpt lat="49.21079" lon="0.13107">
        <ele>148.2</ele>
        <time>2023-12-06T14:55:23Z</time>
      </trkpt>
      <trkpt lat="49.2108" lon="0.13098">
        <ele>148.2</ele>
        <time>2023-12-06T14:55:24Z</time>
      </trkpt>
      <trkpt lat="49.21083" lon="0.13089">
        <ele>148.2</ele>
        <time>2023-12-06T14:55:25Z</time>
      </trkpt>
      <trkpt lat="49.21086" lon="0.13081">
        <ele>148.2</ele>
        <time>2023-12-06T14:55:26Z</time>
      </trkpt>
      <trkpt lat="49.21089" lon="0.13072">
        <ele>148.2</ele>
        <time>2023-12-06T14:55:27Z</time>
      </trkpt>
      <trkpt lat="49.21092" lon="0.13063">
        <ele>148.2</ele>
        <time>2023-12-06T14:55:28Z</time>
      </trkpt>
      <trkpt lat="49.21096" lon="0.13055">
        <ele>148.4</ele>
        <time>2023-12-06T14:55:29Z</time>
      </trkpt>
      <trkpt lat="49.21099" lon="0.13045">
        <ele>148.4</ele>
        <time>2023-12-06T14:55:30Z</time>
      </trkpt>
      <trkpt lat="49.21102" lon="0.13036">
        <ele>148.6</ele>
        <time>2023-12-06T14:55:31Z</time>
      </trkpt>
      <trkpt lat="49.21104" lon="0.13028">
        <ele>148.8</ele>
        <time>2023-12-06T14:55:32Z</time>
      </trkpt>
      <trkpt lat="49.21107" lon="0.13019">
        <ele>149</ele>
        <time>2023-12-06T14:55:33Z</time>
      </trkpt>
      <trkpt lat="49.2111" lon="0.1301">
        <ele>149.2</ele>
        <time>2023-12-06T14:55:34Z</time>
      </trkpt>
      <trkpt lat="49.21112" lon="0.13001">
        <ele>149.4</ele>
        <time>2023-12-06T14:55:35Z</time>
      </trkpt>
      <trkpt lat="49.21115" lon="0.12992">
        <ele>149.6</ele>
        <time>2023-12-06T14:55:36Z</time>
      </trkpt>
      <trkpt lat="49.21118" lon="0.12982">
        <ele>150</ele>
        <time>2023-12-06T14:55:37Z</time>
      </trkpt>
      <trkpt lat="49.21121" lon="0.12973">
        <ele>150.2</ele>
        <time>2023-12-06T14:55:38Z</time>
      </trkpt>
      <trkpt lat="49.21124" lon="0.12963">
        <ele>150.4</ele>
        <time>2023-12-06T14:55:39Z</time>
      </trkpt>
      <trkpt lat="49.21127" lon="0.12953">
        <ele>150.8</ele>
        <time>2023-12-06T14:55:40Z</time>
      </trkpt>
      <trkpt lat="49.2113" lon="0.12943">
        <ele>151</ele>
        <time>2023-12-06T14:55:41Z</time>
      </trkpt>
      <trkpt lat="49.21133" lon="0.12933">
        <ele>151</ele>
        <time>2023-12-06T14:55:42Z</time>
      </trkpt>
      <trkpt lat="49.21136" lon="0.12923">
        <ele>151.2</ele>
        <time>2023-12-06T14:55:43Z</time>
      </trkpt>
      <trkpt lat="49.21139" lon="0.12913">
        <ele>151.6</ele>
        <time>2023-12-06T14:55:44Z</time>
      </trkpt>
      <trkpt lat="49.21141" lon="0.12903">
        <ele>151.6</ele>
        <time>2023-12-06T14:55:45Z</time>
      </trkpt>
      <trkpt lat="49.21144" lon="0.12893">
        <ele>151.8</ele>
        <time>2023-12-06T14:55:46Z</time>
      </trkpt>
      <trkpt lat="49.21146" lon="0.12882">
        <ele>152</ele>
        <time>2023-12-06T14:55:47Z</time>
      </trkpt>
      <trkpt lat="49.21149" lon="0.12872">
        <ele>152</ele>
        <time>2023-12-06T14:55:48Z</time>
      </trkpt>
      <trkpt lat="49.21151" lon="0.12861">
        <ele>152.2</ele>
        <time>2023-12-06T14:55:49Z</time>
      </trkpt>
      <trkpt lat="49.21152" lon="0.1285">
        <ele>152.2</ele>
        <time>2023-12-06T14:55:50Z</time>
      </trkpt>
      <trkpt lat="49.21153" lon="0.12839">
        <ele>152.2</ele>
        <time>2023-12-06T14:55:51Z</time>
      </trkpt>
      <trkpt lat="49.21154" lon="0.12827">
        <ele>152.2</ele>
        <time>2023-12-06T14:55:52Z</time>
      </trkpt>
      <trkpt lat="49.21154" lon="0.12816">
        <ele>152.2</ele>
        <time>2023-12-06T14:55:53Z</time>
      </trkpt>
      <trkpt lat="49.21153" lon="0.12803">
        <ele>152.2</ele>
        <time>2023-12-06T14:55:54Z</time>
      </trkpt>
      <trkpt lat="49.21152" lon="0.12791">
        <ele>152.2</ele>
        <time>2023-12-06T14:55:55Z</time>
      </trkpt>
      <trkpt lat="49.2115" lon="0.12779">
        <ele>152.2</ele>
        <time>2023-12-06T14:55:56Z</time>
      </trkpt>
      <trkpt lat="49.21147" lon="0.12767">
        <ele>152.2</ele>
        <time>2023-12-06T14:55:57Z</time>
      </trkpt>
      <trkpt lat="49.21144" lon="0.12756">
        <ele>152.2</ele>
        <time>2023-12-06T14:55:58Z</time>
      </trkpt>
      <trkpt lat="49.21141" lon="0.12745">
        <ele>152.2</ele>
        <time>2023-12-06T14:55:59Z</time>
      </trkpt>
      <trkpt lat="49.21138" lon="0.12734">
        <ele>152.2</ele>
        <time>2023-12-06T14:56:00Z</time>
      </trkpt>
      <trkpt lat="49.21135" lon="0.12723">
        <ele>152</ele>
        <time>2023-12-06T14:56:01Z</time>
      </trkpt>
      <trkpt lat="49.21131" lon="0.12713">
        <ele>152</ele>
        <time>2023-12-06T14:56:02Z</time>
      </trkpt>
      <trkpt lat="49.21128" lon="0.12702">
        <ele>152</ele>
        <time>2023-12-06T14:56:03Z</time>
      </trkpt>
      <trkpt lat="49.21125" lon="0.12692">
        <ele>152</ele>
        <time>2023-12-06T14:56:04Z</time>
      </trkpt>
      <trkpt lat="49.21121" lon="0.12682">
        <ele>152</ele>
        <time>2023-12-06T14:56:05Z</time>
      </trkpt>
      <trkpt lat="49.21117" lon="0.12672">
        <ele>151.8</ele>
        <time>2023-12-06T14:56:06Z</time>
      </trkpt>
      <trkpt lat="49.21112" lon="0.12663">
        <ele>151.8</ele>
        <time>2023-12-06T14:56:07Z</time>
      </trkpt>
      <trkpt lat="49.21107" lon="0.12654">
        <ele>151.8</ele>
        <time>2023-12-06T14:56:08Z</time>
      </trkpt>
      <trkpt lat="49.21102" lon="0.12645">
        <ele>151.8</ele>
        <time>2023-12-06T14:56:09Z</time>
      </trkpt>
      <trkpt lat="49.21097" lon="0.12636">
        <ele>151.8</ele>
        <time>2023-12-06T14:56:10Z</time>
      </trkpt>
      <trkpt lat="49.21092" lon="0.12628">
        <ele>151.8</ele>
        <time>2023-12-06T14:56:11Z</time>
      </trkpt>
      <trkpt lat="49.21087" lon="0.12619">
        <ele>151.8</ele>
        <time>2023-12-06T14:56:12Z</time>
      </trkpt>
      <trkpt lat="49.21082" lon="0.12611">
        <ele>151.8</ele>
        <time>2023-12-06T14:56:13Z</time>
      </trkpt>
      <trkpt lat="49.21078" lon="0.12604">
        <ele>151.8</ele>
        <time>2023-12-06T14:56:14Z</time>
      </trkpt>
      <trkpt lat="49.21073" lon="0.12597">
        <ele>151.8</ele>
        <time>2023-12-06T14:56:15Z</time>
      </trkpt>
      <trkpt lat="49.21069" lon="0.12591">
        <ele>151.8</ele>
        <time>2023-12-06T14:56:16Z</time>
      </trkpt>
      <trkpt lat="49.21066" lon="0.12585">
        <ele>151.8</ele>
        <time>2023-12-06T14:56:17Z</time>
      </trkpt>
      <trkpt lat="49.21063" lon="0.12579">
        <ele>152</ele>
        <time>2023-12-06T14:56:18Z</time>
      </trkpt>
      <trkpt lat="49.21061" lon="0.12573">
        <ele>152</ele>
        <time>2023-12-06T14:56:19Z</time>
      </trkpt>
      <trkpt lat="49.21058" lon="0.12567">
        <ele>152</ele>
        <time>2023-12-06T14:56:20Z</time>
      </trkpt>
      <trkpt lat="49.21056" lon="0.12562">
        <ele>152.2</ele>
        <time>2023-12-06T14:56:21Z</time>
      </trkpt>
      <trkpt lat="49.21053" lon="0.12555">
        <ele>152.2</ele>
        <time>2023-12-06T14:56:22Z</time>
      </trkpt>
      <trkpt lat="49.2105" lon="0.12549">
        <ele>152.2</ele>
        <time>2023-12-06T14:56:23Z</time>
      </trkpt>
      <trkpt lat="49.21048" lon="0.12541">
        <ele>152.2</ele>
        <time>2023-12-06T14:56:24Z</time>
      </trkpt>
      <trkpt lat="49.21046" lon="0.12532">
        <ele>152.4</ele>
        <time>2023-12-06T14:56:25Z</time>
      </trkpt>
      <trkpt lat="49.21044" lon="0.12523">
        <ele>152.4</ele>
        <time>2023-12-06T14:56:26Z</time>
      </trkpt>
      <trkpt lat="49.21042" lon="0.12512">
        <ele>152.4</ele>
        <time>2023-12-06T14:56:27Z</time>
      </trkpt>
      <trkpt lat="49.2104" lon="0.12501">
        <ele>152.4</ele>
        <time>2023-12-06T14:56:28Z</time>
      </trkpt>
      <trkpt lat="49.21039" lon="0.12489">
        <ele>152.6</ele>
        <time>2023-12-06T14:56:29Z</time>
      </trkpt>
      <trkpt lat="49.21036" lon="0.12478">
        <ele>152.6</ele>
        <time>2023-12-06T14:56:30Z</time>
      </trkpt>
      <trkpt lat="49.21034" lon="0.12466">
        <ele>152.6</ele>
        <time>2023-12-06T14:56:31Z</time>
      </trkpt>
      <trkpt lat="49.21031" lon="0.12454">
        <ele>152.6</ele>
        <time>2023-12-06T14:56:32Z</time>
      </trkpt>
      <trkpt lat="49.21028" lon="0.12443">
        <ele>152.6</ele>
        <time>2023-12-06T14:56:33Z</time>
      </trkpt>
      <trkpt lat="49.21026" lon="0.12431">
        <ele>152.6</ele>
        <time>2023-12-06T14:56:34Z</time>
      </trkpt>
      <trkpt lat="49.21023" lon="0.12418">
        <ele>152.8</ele>
        <time>2023-12-06T14:56:35Z</time>
      </trkpt>
      <trkpt lat="49.21021" lon="0.12406">
        <ele>152.8</ele>
        <time>2023-12-06T14:56:36Z</time>
      </trkpt>
      <trkpt lat="49.21018" lon="0.12395">
        <ele>152.8</ele>
        <time>2023-12-06T14:56:37Z</time>
      </trkpt>
      <trkpt lat="49.21016" lon="0.12383">
        <ele>152.8</ele>
        <time>2023-12-06T14:56:38Z</time>
      </trkpt>
      <trkpt lat="49.21013" lon="0.12372">
        <ele>152.8</ele>
        <time>2023-12-06T14:56:39Z</time>
      </trkpt>
      <trkpt lat="49.21012" lon="0.12361">
        <ele>152.8</ele>
        <time>2023-12-06T14:56:40Z</time>
      </trkpt>
      <trkpt lat="49.2101" lon="0.1235">
        <ele>152.8</ele>
        <time>2023-12-06T14:56:41Z</time>
      </trkpt>
      <trkpt lat="49.21009" lon="0.12339">
        <ele>152.8</ele>
        <time>2023-12-06T14:56:42Z</time>
      </trkpt>
      <trkpt lat="49.21008" lon="0.12328">
        <ele>152.8</ele>
        <time>2023-12-06T14:56:43Z</time>
      </trkpt>
      <trkpt lat="49.21006" lon="0.12316">
        <ele>153</ele>
        <time>2023-12-06T14:56:44Z</time>
      </trkpt>
      <trkpt lat="49.21005" lon="0.12305">
        <ele>153</ele>
        <time>2023-12-06T14:56:45Z</time>
      </trkpt>
      <trkpt lat="49.21005" lon="0.12294">
        <ele>153.4</ele>
        <time>2023-12-06T14:56:46Z</time>
      </trkpt>
      <trkpt lat="49.21004" lon="0.12283">
        <ele>153.6</ele>
        <time>2023-12-06T14:56:47Z</time>
      </trkpt>
      <trkpt lat="49.21004" lon="0.12272">
        <ele>153.8</ele>
        <time>2023-12-06T14:56:48Z</time>
      </trkpt>
      <trkpt lat="49.21004" lon="0.12261">
        <ele>153.8</ele>
        <time>2023-12-06T14:56:49Z</time>
      </trkpt>
      <trkpt lat="49.21004" lon="0.1225">
        <ele>154</ele>
        <time>2023-12-06T14:56:50Z</time>
      </trkpt>
      <trkpt lat="49.21004" lon="0.12239">
        <ele>154</ele>
        <time>2023-12-06T14:56:51Z</time>
      </trkpt>
      <trkpt lat="49.21004" lon="0.12229">
        <ele>154.2</ele>
        <time>2023-12-06T14:56:52Z</time>
      </trkpt>
      <trkpt lat="49.21004" lon="0.12218">
        <ele>154.2</ele>
        <time>2023-12-06T14:56:53Z</time>
      </trkpt>
      <trkpt lat="49.21004" lon="0.12207">
        <ele>154.4</ele>
        <time>2023-12-06T14:56:54Z</time>
      </trkpt>
      <trkpt lat="49.21005" lon="0.12196">
        <ele>154.4</ele>
        <time>2023-12-06T14:56:55Z</time>
      </trkpt>
      <trkpt lat="49.21005" lon="0.12185">
        <ele>154.6</ele>
        <time>2023-12-06T14:56:56Z</time>
      </trkpt>
      <trkpt lat="49.21005" lon="0.12173">
        <ele>154.6</ele>
        <time>2023-12-06T14:56:57Z</time>
      </trkpt>
      <trkpt lat="49.21005" lon="0.12162">
        <ele>154.8</ele>
        <time>2023-12-06T14:56:58Z</time>
      </trkpt>
      <trkpt lat="49.21005" lon="0.1215">
        <ele>155</ele>
        <time>2023-12-06T14:56:59Z</time>
      </trkpt>
      <trkpt lat="49.21004" lon="0.12139">
        <ele>155.2</ele>
        <time>2023-12-06T14:57:00Z</time>
      </trkpt>
      <trkpt lat="49.21004" lon="0.12129">
        <ele>155.4</ele>
        <time>2023-12-06T14:57:01Z</time>
      </trkpt>
      <trkpt lat="49.21003" lon="0.12117">
        <ele>155.6</ele>
        <time>2023-12-06T14:57:02Z</time>
      </trkpt>
      <trkpt lat="49.21002" lon="0.12106">
        <ele>155.8</ele>
        <time>2023-12-06T14:57:03Z</time>
      </trkpt>
      <trkpt lat="49.21001" lon="0.12096">
        <ele>156</ele>
        <time>2023-12-06T14:57:04Z</time>
      </trkpt>
      <trkpt lat="49.20999" lon="0.12085">
        <ele>156</ele>
        <time>2023-12-06T14:57:05Z</time>
      </trkpt>
      <trkpt lat="49.20998" lon="0.12074">
        <ele>156.2</ele>
        <time>2023-12-06T14:57:06Z</time>
      </trkpt>
      <trkpt lat="49.20997" lon="0.12063">
        <ele>156.4</ele>
        <time>2023-12-06T14:57:07Z</time>
      </trkpt>
      <trkpt lat="49.20995" lon="0.12052">
        <ele>156.4</ele>
        <time>2023-12-06T14:57:08Z</time>
      </trkpt>
      <trkpt lat="49.20993" lon="0.12041">
        <ele>156.6</ele>
        <time>2023-12-06T14:57:09Z</time>
      </trkpt>
      <trkpt lat="49.20992" lon="0.1203">
        <ele>156.6</ele>
        <time>2023-12-06T14:57:10Z</time>
      </trkpt>
      <trkpt lat="49.2099" lon="0.12019">
        <ele>156.8</ele>
        <time>2023-12-06T14:57:11Z</time>
      </trkpt>
      <trkpt lat="49.20988" lon="0.12009">
        <ele>156.8</ele>
        <time>2023-12-06T14:57:12Z</time>
      </trkpt>
      <trkpt lat="49.20986" lon="0.11998">
        <ele>156.8</ele>
        <time>2023-12-06T14:57:13Z</time>
      </trkpt>
      <trkpt lat="49.20984" lon="0.11988">
        <ele>157</ele>
        <time>2023-12-06T14:57:14Z</time>
      </trkpt>
      <trkpt lat="49.20983" lon="0.11978">
        <ele>157.2</ele>
        <time>2023-12-06T14:57:15Z</time>
      </trkpt>
      <trkpt lat="49.20981" lon="0.11967">
        <ele>157.4</ele>
        <time>2023-12-06T14:57:16Z</time>
      </trkpt>
      <trkpt lat="49.20978" lon="0.11957">
        <ele>157.4</ele>
        <time>2023-12-06T14:57:17Z</time>
      </trkpt>
      <trkpt lat="49.20976" lon="0.11946">
        <ele>157.6</ele>
        <time>2023-12-06T14:57:18Z</time>
      </trkpt>
      <trkpt lat="49.20974" lon="0.11936">
        <ele>157.6</ele>
        <time>2023-12-06T14:57:19Z</time>
      </trkpt>
      <trkpt lat="49.20971" lon="0.11926">
        <ele>157.8</ele>
        <time>2023-12-06T14:57:20Z</time>
      </trkpt>
      <trkpt lat="49.20968" lon="0.11917">
        <ele>158</ele>
        <time>2023-12-06T14:57:21Z</time>
      </trkpt>
      <trkpt lat="49.20965" lon="0.11907">
        <ele>158.2</ele>
        <time>2023-12-06T14:57:22Z</time>
      </trkpt>
      <trkpt lat="49.20963" lon="0.11897">
        <ele>158.2</ele>
        <time>2023-12-06T14:57:23Z</time>
      </trkpt>
      <trkpt lat="49.2096" lon="0.11887">
        <ele>158.4</ele>
        <time>2023-12-06T14:57:24Z</time>
      </trkpt>
      <trkpt lat="49.20957" lon="0.11877">
        <ele>158.4</ele>
        <time>2023-12-06T14:57:25Z</time>
      </trkpt>
      <trkpt lat="49.20954" lon="0.11867">
        <ele>158.6</ele>
        <time>2023-12-06T14:57:26Z</time>
      </trkpt>
      <trkpt lat="49.20951" lon="0.11857">
        <ele>158.6</ele>
        <time>2023-12-06T14:57:27Z</time>
      </trkpt>
      <trkpt lat="49.20948" lon="0.11848">
        <ele>158.8</ele>
        <time>2023-12-06T14:57:28Z</time>
      </trkpt>
      <trkpt lat="49.20946" lon="0.11838">
        <ele>158.8</ele>
        <time>2023-12-06T14:57:29Z</time>
      </trkpt>
      <trkpt lat="49.20943" lon="0.11827">
        <ele>159</ele>
        <time>2023-12-06T14:57:30Z</time>
      </trkpt>
      <trkpt lat="49.2094" lon="0.11817">
        <ele>159</ele>
        <time>2023-12-06T14:57:31Z</time>
      </trkpt>
      <trkpt lat="49.20937" lon="0.11807">
        <ele>159.2</ele>
        <time>2023-12-06T14:57:32Z</time>
      </trkpt>
      <trkpt lat="49.20935" lon="0.11796">
        <ele>159.2</ele>
        <time>2023-12-06T14:57:33Z</time>
      </trkpt>
      <trkpt lat="49.20933" lon="0.11785">
        <ele>159.2</ele>
        <time>2023-12-06T14:57:34Z</time>
      </trkpt>
      <trkpt lat="49.20931" lon="0.11774">
        <ele>159.4</ele>
        <time>2023-12-06T14:57:35Z</time>
      </trkpt>
      <trkpt lat="49.20928" lon="0.11763">
        <ele>159.4</ele>
        <time>2023-12-06T14:57:36Z</time>
      </trkpt>
      <trkpt lat="49.20926" lon="0.11751">
        <ele>159.4</ele>
        <time>2023-12-06T14:57:37Z</time>
      </trkpt>
      <trkpt lat="49.20924" lon="0.1174">
        <ele>159.6</ele>
        <time>2023-12-06T14:57:38Z</time>
      </trkpt>
      <trkpt lat="49.20921" lon="0.11728">
        <ele>159.8</ele>
        <time>2023-12-06T14:57:39Z</time>
      </trkpt>
      <trkpt lat="49.20919" lon="0.11717">
        <ele>159.8</ele>
        <time>2023-12-06T14:57:40Z</time>
      </trkpt>
      <trkpt lat="49.20917" lon="0.11706">
        <ele>160</ele>
        <time>2023-12-06T14:57:41Z</time>
      </trkpt>
      <trkpt lat="49.20915" lon="0.11694">
        <ele>160</ele>
        <time>2023-12-06T14:57:42Z</time>
      </trkpt>
      <trkpt lat="49.20913" lon="0.11682">
        <ele>160</ele>
        <time>2023-12-06T14:57:43Z</time>
      </trkpt>
      <trkpt lat="49.2091" lon="0.11671">
        <ele>160</ele>
        <time>2023-12-06T14:57:44Z</time>
      </trkpt>
      <trkpt lat="49.20908" lon="0.11659">
        <ele>160</ele>
        <time>2023-12-06T14:57:45Z</time>
      </trkpt>
      <trkpt lat="49.20906" lon="0.11648">
        <ele>160</ele>
        <time>2023-12-06T14:57:46Z</time>
      </trkpt>
      <trkpt lat="49.20903" lon="0.11636">
        <ele>160.2</ele>
        <time>2023-12-06T14:57:47Z</time>
      </trkpt>
      <trkpt lat="49.20901" lon="0.11624">
        <ele>160.2</ele>
        <time>2023-12-06T14:57:48Z</time>
      </trkpt>
      <trkpt lat="49.20898" lon="0.11613">
        <ele>160.2</ele>
        <time>2023-12-06T14:57:49Z</time>
      </trkpt>
      <trkpt lat="49.20895" lon="0.11601">
        <ele>160</ele>
        <time>2023-12-06T14:57:50Z</time>
      </trkpt>
      <trkpt lat="49.20893" lon="0.11589">
        <ele>160</ele>
        <time>2023-12-06T14:57:51Z</time>
      </trkpt>
      <trkpt lat="49.2089" lon="0.11576">
        <ele>160</ele>
        <time>2023-12-06T14:57:52Z</time>
      </trkpt>
      <trkpt lat="49.20887" lon="0.11564">
        <ele>160</ele>
        <time>2023-12-06T14:57:53Z</time>
      </trkpt>
      <trkpt lat="49.20885" lon="0.11551">
        <ele>160</ele>
        <time>2023-12-06T14:57:54Z</time>
      </trkpt>
      <trkpt lat="49.20882" lon="0.11539">
        <ele>159.8</ele>
        <time>2023-12-06T14:57:55Z</time>
      </trkpt>
      <trkpt lat="49.20879" lon="0.11527">
        <ele>159.8</ele>
        <time>2023-12-06T14:57:56Z</time>
      </trkpt>
      <trkpt lat="49.20876" lon="0.11514">
        <ele>159.6</ele>
        <time>2023-12-06T14:57:57Z</time>
      </trkpt>
      <trkpt lat="49.20873" lon="0.115">
        <ele>159.6</ele>
        <time>2023-12-06T14:57:58Z</time>
      </trkpt>
      <trkpt lat="49.20871" lon="0.11487">
        <ele>159.4</ele>
        <time>2023-12-06T14:57:59Z</time>
      </trkpt>
      <trkpt lat="49.20868" lon="0.11473">
        <ele>159</ele>
        <time>2023-12-06T14:58:00Z</time>
      </trkpt>
      <trkpt lat="49.20865" lon="0.11459">
        <ele>158.6</ele>
        <time>2023-12-06T14:58:01Z</time>
      </trkpt>
      <trkpt lat="49.20862" lon="0.11445">
        <ele>158.2</ele>
        <time>2023-12-06T14:58:02Z</time>
      </trkpt>
      <trkpt lat="49.20859" lon="0.11431">
        <ele>157.8</ele>
        <time>2023-12-06T14:58:03Z</time>
      </trkpt>
      <trkpt lat="49.20856" lon="0.11418">
        <ele>157.4</ele>
        <time>2023-12-06T14:58:04Z</time>
      </trkpt>
      <trkpt lat="49.20852" lon="0.11405">
        <ele>157</ele>
        <time>2023-12-06T14:58:05Z</time>
      </trkpt>
      <trkpt lat="49.20848" lon="0.11392">
        <ele>157</ele>
        <time>2023-12-06T14:58:06Z</time>
      </trkpt>
      <trkpt lat="49.20844" lon="0.1138">
        <ele>156.8</ele>
        <time>2023-12-06T14:58:07Z</time>
      </trkpt>
      <trkpt lat="49.2084" lon="0.11369">
        <ele>156.6</ele>
        <time>2023-12-06T14:58:08Z</time>
      </trkpt>
      <trkpt lat="49.20836" lon="0.11357">
        <ele>156.6</ele>
        <time>2023-12-06T14:58:09Z</time>
      </trkpt>
      <trkpt lat="49.20832" lon="0.11347">
        <ele>156.6</ele>
        <time>2023-12-06T14:58:10Z</time>
      </trkpt>
      <trkpt lat="49.20828" lon="0.11336">
        <ele>156.6</ele>
        <time>2023-12-06T14:58:11Z</time>
      </trkpt>
      <trkpt lat="49.20824" lon="0.11326">
        <ele>156.6</ele>
        <time>2023-12-06T14:58:12Z</time>
      </trkpt>
      <trkpt lat="49.2082" lon="0.11316">
        <ele>156.6</ele>
        <time>2023-12-06T14:58:13Z</time>
      </trkpt>
      <trkpt lat="49.20817" lon="0.11306">
        <ele>156.4</ele>
        <time>2023-12-06T14:58:14Z</time>
      </trkpt>
      <trkpt lat="49.20813" lon="0.11296">
        <ele>156.4</ele>
        <time>2023-12-06T14:58:15Z</time>
      </trkpt>
      <trkpt lat="49.20809" lon="0.11286">
        <ele>156.4</ele>
        <time>2023-12-06T14:58:16Z</time>
      </trkpt>
      <trkpt lat="49.20806" lon="0.11277">
        <ele>156.4</ele>
        <time>2023-12-06T14:58:17Z</time>
      </trkpt>
      <trkpt lat="49.20802" lon="0.11267">
        <ele>156.4</ele>
        <time>2023-12-06T14:58:18Z</time>
      </trkpt>
      <trkpt lat="49.20798" lon="0.11258">
        <ele>156.4</ele>
        <time>2023-12-06T14:58:19Z</time>
      </trkpt>
      <trkpt lat="49.20795" lon="0.11249">
        <ele>156.4</ele>
        <time>2023-12-06T14:58:20Z</time>
      </trkpt>
      <trkpt lat="49.20791" lon="0.1124">
        <ele>156.4</ele>
        <time>2023-12-06T14:58:21Z</time>
      </trkpt>
      <trkpt lat="49.20788" lon="0.11231">
        <ele>156.4</ele>
        <time>2023-12-06T14:58:22Z</time>
      </trkpt>
      <trkpt lat="49.20784" lon="0.11222">
        <ele>156.4</ele>
        <time>2023-12-06T14:58:23Z</time>
      </trkpt>
      <trkpt lat="49.2078" lon="0.11214">
        <ele>156.4</ele>
        <time>2023-12-06T14:58:24Z</time>
      </trkpt>
      <trkpt lat="49.20777" lon="0.11205">
        <ele>156.4</ele>
        <time>2023-12-06T14:58:25Z</time>
      </trkpt>
      <trkpt lat="49.20774" lon="0.11196">
        <ele>156.4</ele>
        <time>2023-12-06T14:58:26Z</time>
      </trkpt>
      <trkpt lat="49.2077" lon="0.11188">
        <ele>156.4</ele>
        <time>2023-12-06T14:58:27Z</time>
      </trkpt>
      <trkpt lat="49.20767" lon="0.11179">
        <ele>156.2</ele>
        <time>2023-12-06T14:58:28Z</time>
      </trkpt>
      <trkpt lat="49.20764" lon="0.1117">
        <ele>156.2</ele>
        <time>2023-12-06T14:58:29Z</time>
      </trkpt>
      <trkpt lat="49.20761" lon="0.11161">
        <ele>156.2</ele>
        <time>2023-12-06T14:58:30Z</time>
      </trkpt>
      <trkpt lat="49.20758" lon="0.11152">
        <ele>156.2</ele>
        <time>2023-12-06T14:58:31Z</time>
      </trkpt>
      <trkpt lat="49.20755" lon="0.11142">
        <ele>156.2</ele>
        <time>2023-12-06T14:58:32Z</time>
      </trkpt>
      <trkpt lat="49.20752" lon="0.11132">
        <ele>156</ele>
        <time>2023-12-06T14:58:33Z</time>
      </trkpt>
      <trkpt lat="49.20749" lon="0.11122">
        <ele>156</ele>
        <time>2023-12-06T14:58:34Z</time>
      </trkpt>
      <trkpt lat="49.20747" lon="0.11111">
        <ele>156</ele>
        <time>2023-12-06T14:58:35Z</time>
      </trkpt>
      <trkpt lat="49.20744" lon="0.11101">
        <ele>156</ele>
        <time>2023-12-06T14:58:36Z</time>
      </trkpt>
      <trkpt lat="49.20743" lon="0.1109">
        <ele>156</ele>
        <time>2023-12-06T14:58:37Z</time>
      </trkpt>
      <trkpt lat="49.20741" lon="0.11079">
        <ele>156</ele>
        <time>2023-12-06T14:58:38Z</time>
      </trkpt>
      <trkpt lat="49.20739" lon="0.11068">
        <ele>155.8</ele>
        <time>2023-12-06T14:58:39Z</time>
      </trkpt>
      <trkpt lat="49.20737" lon="0.11056">
        <ele>155.8</ele>
        <time>2023-12-06T14:58:40Z</time>
      </trkpt>
      <trkpt lat="49.20736" lon="0.11044">
        <ele>155.8</ele>
        <time>2023-12-06T14:58:41Z</time>
      </trkpt>
      <trkpt lat="49.20735" lon="0.11033">
        <ele>155.8</ele>
        <time>2023-12-06T14:58:42Z</time>
      </trkpt>
      <trkpt lat="49.20733" lon="0.11021">
        <ele>155.8</ele>
        <time>2023-12-06T14:58:43Z</time>
      </trkpt>
      <trkpt lat="49.20732" lon="0.11009">
        <ele>155.8</ele>
        <time>2023-12-06T14:58:44Z</time>
      </trkpt>
      <trkpt lat="49.2073" lon="0.10998">
        <ele>155.8</ele>
        <time>2023-12-06T14:58:45Z</time>
      </trkpt>
      <trkpt lat="49.20729" lon="0.10986">
        <ele>155.6</ele>
        <time>2023-12-06T14:58:46Z</time>
      </trkpt>
      <trkpt lat="49.20728" lon="0.10975">
        <ele>155.4</ele>
        <time>2023-12-06T14:58:47Z</time>
      </trkpt>
      <trkpt lat="49.20727" lon="0.10963">
        <ele>155.4</ele>
        <time>2023-12-06T14:58:48Z</time>
      </trkpt>
      <trkpt lat="49.20726" lon="0.10952">
        <ele>155.2</ele>
        <time>2023-12-06T14:58:49Z</time>
      </trkpt>
      <trkpt lat="49.20725" lon="0.1094">
        <ele>154.8</ele>
        <time>2023-12-06T14:58:50Z</time>
      </trkpt>
      <trkpt lat="49.20724" lon="0.10928">
        <ele>154.4</ele>
        <time>2023-12-06T14:58:51Z</time>
      </trkpt>
      <trkpt lat="49.20723" lon="0.10917">
        <ele>154.2</ele>
        <time>2023-12-06T14:58:52Z</time>
      </trkpt>
      <trkpt lat="49.20722" lon="0.10905">
        <ele>154</ele>
        <time>2023-12-06T14:58:53Z</time>
      </trkpt>
      <trkpt lat="49.20721" lon="0.10893">
        <ele>153.8</ele>
        <time>2023-12-06T14:58:54Z</time>
      </trkpt>
      <trkpt lat="49.20721" lon="0.10881">
        <ele>153.6</ele>
        <time>2023-12-06T14:58:55Z</time>
      </trkpt>
      <trkpt lat="49.20721" lon="0.10869">
        <ele>153.4</ele>
        <time>2023-12-06T14:58:56Z</time>
      </trkpt>
      <trkpt lat="49.20721" lon="0.10857">
        <ele>153.4</ele>
        <time>2023-12-06T14:58:57Z</time>
      </trkpt>
      <trkpt lat="49.2072" lon="0.10845">
        <ele>153.2</ele>
        <time>2023-12-06T14:58:58Z</time>
      </trkpt>
      <trkpt lat="49.20721" lon="0.10834">
        <ele>153</ele>
        <time>2023-12-06T14:58:59Z</time>
      </trkpt>
      <trkpt lat="49.20721" lon="0.10822">
        <ele>152.8</ele>
        <time>2023-12-06T14:59:00Z</time>
      </trkpt>
      <trkpt lat="49.20721" lon="0.10811">
        <ele>152.6</ele>
        <time>2023-12-06T14:59:01Z</time>
      </trkpt>
      <trkpt lat="49.20722" lon="0.108">
        <ele>152.6</ele>
        <time>2023-12-06T14:59:02Z</time>
      </trkpt>
      <trkpt lat="49.20722" lon="0.10788">
        <ele>152.6</ele>
        <time>2023-12-06T14:59:03Z</time>
      </trkpt>
      <trkpt lat="49.20722" lon="0.10776">
        <ele>152.4</ele>
        <time>2023-12-06T14:59:04Z</time>
      </trkpt>
      <trkpt lat="49.20722" lon="0.10764">
        <ele>152.2</ele>
        <time>2023-12-06T14:59:05Z</time>
      </trkpt>
      <trkpt lat="49.20721" lon="0.10752">
        <ele>152</ele>
        <time>2023-12-06T14:59:06Z</time>
      </trkpt>
      <trkpt lat="49.20719" lon="0.10741">
        <ele>152</ele>
        <time>2023-12-06T14:59:07Z</time>
      </trkpt>
      <trkpt lat="49.20716" lon="0.10729">
        <ele>151.8</ele>
        <time>2023-12-06T14:59:08Z</time>
      </trkpt>
      <trkpt lat="49.20713" lon="0.10718">
        <ele>151.8</ele>
        <time>2023-12-06T14:59:09Z</time>
      </trkpt>
      <trkpt lat="49.2071" lon="0.10707">
        <ele>151.8</ele>
        <time>2023-12-06T14:59:10Z</time>
      </trkpt>
      <trkpt lat="49.20707" lon="0.10697">
        <ele>151.6</ele>
        <time>2023-12-06T14:59:11Z</time>
      </trkpt>
      <trkpt lat="49.20704" lon="0.10686">
        <ele>151.6</ele>
        <time>2023-12-06T14:59:12Z</time>
      </trkpt>
      <trkpt lat="49.207" lon="0.10676">
        <ele>151.4</ele>
        <time>2023-12-06T14:59:13Z</time>
      </trkpt>
      <trkpt lat="49.20697" lon="0.10666">
        <ele>151.4</ele>
        <time>2023-12-06T14:59:14Z</time>
      </trkpt>
      <trkpt lat="49.20694" lon="0.10656">
        <ele>151.2</ele>
        <time>2023-12-06T14:59:15Z</time>
      </trkpt>
      <trkpt lat="49.20691" lon="0.10645">
        <ele>151.2</ele>
        <time>2023-12-06T14:59:16Z</time>
      </trkpt>
      <trkpt lat="49.20688" lon="0.10635">
        <ele>151</ele>
        <time>2023-12-06T14:59:17Z</time>
      </trkpt>
      <trkpt lat="49.20685" lon="0.10625">
        <ele>151</ele>
        <time>2023-12-06T14:59:18Z</time>
      </trkpt>
      <trkpt lat="49.20682" lon="0.10615">
        <ele>150.8</ele>
        <time>2023-12-06T14:59:19Z</time>
      </trkpt>
      <trkpt lat="49.20679" lon="0.10605">
        <ele>150.6</ele>
        <time>2023-12-06T14:59:20Z</time>
      </trkpt>
      <trkpt lat="49.20675" lon="0.10594">
        <ele>150.6</ele>
        <time>2023-12-06T14:59:21Z</time>
      </trkpt>
      <trkpt lat="49.20672" lon="0.10584">
        <ele>150.4</ele>
        <time>2023-12-06T14:59:22Z</time>
      </trkpt>
      <trkpt lat="49.2067" lon="0.10573">
        <ele>150.4</ele>
        <time>2023-12-06T14:59:23Z</time>
      </trkpt>
      <trkpt lat="49.20667" lon="0.10562">
        <ele>150.2</ele>
        <time>2023-12-06T14:59:24Z</time>
      </trkpt>
      <trkpt lat="49.20664" lon="0.10552">
        <ele>150.2</ele>
        <time>2023-12-06T14:59:25Z</time>
      </trkpt>
      <trkpt lat="49.20662" lon="0.1054">
        <ele>150</ele>
        <time>2023-12-06T14:59:26Z</time>
      </trkpt>
      <trkpt lat="49.20659" lon="0.10529">
        <ele>150</ele>
        <time>2023-12-06T14:59:27Z</time>
      </trkpt>
      <trkpt lat="49.20658" lon="0.10518">
        <ele>149.8</ele>
        <time>2023-12-06T14:59:28Z</time>
      </trkpt>
      <trkpt lat="49.20656" lon="0.10506">
        <ele>149.6</ele>
        <time>2023-12-06T14:59:29Z</time>
      </trkpt>
      <trkpt lat="49.20655" lon="0.10495">
        <ele>149.6</ele>
        <time>2023-12-06T14:59:30Z</time>
      </trkpt>
      <trkpt lat="49.20653" lon="0.10483">
        <ele>149.4</ele>
        <time>2023-12-06T14:59:31Z</time>
      </trkpt>
      <trkpt lat="49.20652" lon="0.10472">
        <ele>149.4</ele>
        <time>2023-12-06T14:59:32Z</time>
      </trkpt>
      <trkpt lat="49.2065" lon="0.1046">
        <ele>149.4</ele>
        <time>2023-12-06T14:59:33Z</time>
      </trkpt>
      <trkpt lat="49.20649" lon="0.10448">
        <ele>149</ele>
        <time>2023-12-06T14:59:34Z</time>
      </trkpt>
      <trkpt lat="49.20648" lon="0.10436">
        <ele>149</ele>
        <time>2023-12-06T14:59:35Z</time>
      </trkpt>
      <trkpt lat="49.20646" lon="0.10424">
        <ele>148.8</ele>
        <time>2023-12-06T14:59:36Z</time>
      </trkpt>
      <trkpt lat="49.20645" lon="0.10412">
        <ele>148.8</ele>
        <time>2023-12-06T14:59:37Z</time>
      </trkpt>
      <trkpt lat="49.20643" lon="0.10399">
        <ele>148.4</ele>
        <time>2023-12-06T14:59:38Z</time>
      </trkpt>
      <trkpt lat="49.20642" lon="0.10387">
        <ele>148.2</ele>
        <time>2023-12-06T14:59:39Z</time>
      </trkpt>
      <trkpt lat="49.2064" lon="0.10375">
        <ele>148.2</ele>
        <time>2023-12-06T14:59:40Z</time>
      </trkpt>
      <trkpt lat="49.20639" lon="0.10363">
        <ele>148</ele>
        <time>2023-12-06T14:59:41Z</time>
      </trkpt>
      <trkpt lat="49.20638" lon="0.1035">
        <ele>147.8</ele>
        <time>2023-12-06T14:59:42Z</time>
      </trkpt>
      <trkpt lat="49.20636" lon="0.10338">
        <ele>147.6</ele>
        <time>2023-12-06T14:59:43Z</time>
      </trkpt>
      <trkpt lat="49.20634" lon="0.10325">
        <ele>147.4</ele>
        <time>2023-12-06T14:59:44Z</time>
      </trkpt>
      <trkpt lat="49.20633" lon="0.10313">
        <ele>147.4</ele>
        <time>2023-12-06T14:59:45Z</time>
      </trkpt>
      <trkpt lat="49.20631" lon="0.103">
        <ele>146.8</ele>
        <time>2023-12-06T14:59:46Z</time>
      </trkpt>
      <trkpt lat="49.2063" lon="0.10288">
        <ele>146.4</ele>
        <time>2023-12-06T14:59:47Z</time>
      </trkpt>
      <trkpt lat="49.20629" lon="0.10275">
        <ele>146</ele>
        <time>2023-12-06T14:59:48Z</time>
      </trkpt>
      <trkpt lat="49.20628" lon="0.10263">
        <ele>145.8</ele>
        <time>2023-12-06T14:59:49Z</time>
      </trkpt>
      <trkpt lat="49.20626" lon="0.1025">
        <ele>145.6</ele>
        <time>2023-12-06T14:59:50Z</time>
      </trkpt>
      <trkpt lat="49.20625" lon="0.10238">
        <ele>145.4</ele>
        <time>2023-12-06T14:59:51Z</time>
      </trkpt>
      <trkpt lat="49.20624" lon="0.10225">
        <ele>145</ele>
        <time>2023-12-06T14:59:52Z</time>
      </trkpt>
      <trkpt lat="49.20622" lon="0.10212">
        <ele>145</ele>
        <time>2023-12-06T14:59:53Z</time>
      </trkpt>
      <trkpt lat="49.2062" lon="0.10198">
        <ele>144.4</ele>
        <time>2023-12-06T14:59:54Z</time>
      </trkpt>
      <trkpt lat="49.20619" lon="0.10185">
        <ele>144.2</ele>
        <time>2023-12-06T14:59:55Z</time>
      </trkpt>
      <trkpt lat="49.20617" lon="0.10171">
        <ele>144</ele>
        <time>2023-12-06T14:59:56Z</time>
      </trkpt>
      <trkpt lat="49.20616" lon="0.10157">
        <ele>143.8</ele>
        <time>2023-12-06T14:59:57Z</time>
      </trkpt>
      <trkpt lat="49.20614" lon="0.10142">
        <ele>143.6</ele>
        <time>2023-12-06T14:59:58Z</time>
      </trkpt>
      <trkpt lat="49.20612" lon="0.10127">
        <ele>143.4</ele>
        <time>2023-12-06T14:59:59Z</time>
      </trkpt>
      <trkpt lat="49.2061" lon="0.10113">
        <ele>143.4</ele>
        <time>2023-12-06T15:00:00Z</time>
      </trkpt>
      <trkpt lat="49.20608" lon="0.10097">
        <ele>142.8</ele>
        <time>2023-12-06T15:00:01Z</time>
      </trkpt>
      <trkpt lat="49.20606" lon="0.10082">
        <ele>142</ele>
        <time>2023-12-06T15:00:02Z</time>
      </trkpt>
      <trkpt lat="49.20605" lon="0.10065">
        <ele>141.6</ele>
        <time>2023-12-06T15:00:03Z</time>
      </trkpt>
      <trkpt lat="49.20603" lon="0.10049">
        <ele>140.8</ele>
        <time>2023-12-06T15:00:04Z</time>
      </trkpt>
      <trkpt lat="49.206" lon="0.10032">
        <ele>140</ele>
        <time>2023-12-06T15:00:05Z</time>
      </trkpt>
      <trkpt lat="49.20598" lon="0.10016">
        <ele>139</ele>
        <time>2023-12-06T15:00:06Z</time>
      </trkpt>
      <trkpt lat="49.20595" lon="0.09999">
        <ele>138</ele>
        <time>2023-12-06T15:00:07Z</time>
      </trkpt>
      <trkpt lat="49.20591" lon="0.09983">
        <ele>137.6</ele>
        <time>2023-12-06T15:00:08Z</time>
      </trkpt>
      <trkpt lat="49.20587" lon="0.09968">
        <ele>137</ele>
        <time>2023-12-06T15:00:09Z</time>
      </trkpt>
      <trkpt lat="49.20582" lon="0.09952">
        <ele>136</ele>
        <time>2023-12-06T15:00:10Z</time>
      </trkpt>
      <trkpt lat="49.20577" lon="0.09936">
        <ele>135.2</ele>
        <time>2023-12-06T15:00:11Z</time>
      </trkpt>
      <trkpt lat="49.20572" lon="0.0992">
        <ele>134.4</ele>
        <time>2023-12-06T15:00:12Z</time>
      </trkpt>
      <trkpt lat="49.20568" lon="0.09904">
        <ele>133.8</ele>
        <time>2023-12-06T15:00:13Z</time>
      </trkpt>
      <trkpt lat="49.20563" lon="0.09888">
        <ele>133.2</ele>
        <time>2023-12-06T15:00:14Z</time>
      </trkpt>
      <trkpt lat="49.20559" lon="0.09872">
        <ele>132</ele>
        <time>2023-12-06T15:00:15Z</time>
      </trkpt>
      <trkpt lat="49.20554" lon="0.09855">
        <ele>131</ele>
        <time>2023-12-06T15:00:16Z</time>
      </trkpt>
      <trkpt lat="49.2055" lon="0.09839">
        <ele>128.6</ele>
        <time>2023-12-06T15:00:17Z</time>
      </trkpt>
      <trkpt lat="49.20547" lon="0.09822">
        <ele>127.6</ele>
        <time>2023-12-06T15:00:18Z</time>
      </trkpt>
      <trkpt lat="49.20545" lon="0.09804">
        <ele>127</ele>
        <time>2023-12-06T15:00:19Z</time>
      </trkpt>
      <trkpt lat="49.20543" lon="0.09787">
        <ele>126.6</ele>
        <time>2023-12-06T15:00:20Z</time>
      </trkpt>
      <trkpt lat="49.20542" lon="0.09769">
        <ele>126.4</ele>
        <time>2023-12-06T15:00:21Z</time>
      </trkpt>
      <trkpt lat="49.20541" lon="0.09751">
        <ele>125.6</ele>
        <time>2023-12-06T15:00:22Z</time>
      </trkpt>
      <trkpt lat="49.20542" lon="0.09734">
        <ele>124.8</ele>
        <time>2023-12-06T15:00:23Z</time>
      </trkpt>
      <trkpt lat="49.20543" lon="0.09717">
        <ele>124.2</ele>
        <time>2023-12-06T15:00:24Z</time>
      </trkpt>
      <trkpt lat="49.20544" lon="0.09699">
        <ele>123.4</ele>
        <time>2023-12-06T15:00:25Z</time>
      </trkpt>
      <trkpt lat="49.20546" lon="0.09682">
        <ele>122.4</ele>
        <time>2023-12-06T15:00:26Z</time>
      </trkpt>
      <trkpt lat="49.20547" lon="0.09666">
        <ele>122</ele>
        <time>2023-12-06T15:00:27Z</time>
      </trkpt>
      <trkpt lat="49.20549" lon="0.0965">
        <ele>121.4</ele>
        <time>2023-12-06T15:00:28Z</time>
      </trkpt>
      <trkpt lat="49.20551" lon="0.09634">
        <ele>120.8</ele>
        <time>2023-12-06T15:00:29Z</time>
      </trkpt>
      <trkpt lat="49.20552" lon="0.09618">
        <ele>119.8</ele>
        <time>2023-12-06T15:00:30Z</time>
      </trkpt>
      <trkpt lat="49.20554" lon="0.09603">
        <ele>118.8</ele>
        <time>2023-12-06T15:00:31Z</time>
      </trkpt>
      <trkpt lat="49.20556" lon="0.09587">
        <ele>118.4</ele>
        <time>2023-12-06T15:00:32Z</time>
      </trkpt>
      <trkpt lat="49.20558" lon="0.09571">
        <ele>117.8</ele>
        <time>2023-12-06T15:00:33Z</time>
      </trkpt>
      <trkpt lat="49.20561" lon="0.09556">
        <ele>117</ele>
        <time>2023-12-06T15:00:34Z</time>
      </trkpt>
      <trkpt lat="49.20564" lon="0.0954">
        <ele>116.2</ele>
        <time>2023-12-06T15:00:35Z</time>
      </trkpt>
      <trkpt lat="49.20568" lon="0.09525">
        <ele>115.8</ele>
        <time>2023-12-06T15:00:36Z</time>
      </trkpt>
      <trkpt lat="49.20572" lon="0.0951">
        <ele>115.2</ele>
        <time>2023-12-06T15:00:37Z</time>
      </trkpt>
      <trkpt lat="49.20576" lon="0.09496">
        <ele>114.8</ele>
        <time>2023-12-06T15:00:38Z</time>
      </trkpt>
      <trkpt lat="49.20579" lon="0.09481">
        <ele>114.6</ele>
        <time>2023-12-06T15:00:39Z</time>
      </trkpt>
      <trkpt lat="49.20582" lon="0.09465">
        <ele>114.2</ele>
        <time>2023-12-06T15:00:40Z</time>
      </trkpt>
      <trkpt lat="49.20585" lon="0.0945">
        <ele>114</ele>
        <time>2023-12-06T15:00:41Z</time>
      </trkpt>
      <trkpt lat="49.20587" lon="0.09435">
        <ele>113.4</ele>
        <time>2023-12-06T15:00:42Z</time>
      </trkpt>
      <trkpt lat="49.20589" lon="0.0942">
        <ele>113.2</ele>
        <time>2023-12-06T15:00:43Z</time>
      </trkpt>
      <trkpt lat="49.20591" lon="0.09405">
        <ele>112.8</ele>
        <time>2023-12-06T15:00:44Z</time>
      </trkpt>
      <trkpt lat="49.20592" lon="0.09389">
        <ele>112.2</ele>
        <time>2023-12-06T15:00:45Z</time>
      </trkpt>
      <trkpt lat="49.20591" lon="0.09374">
        <ele>111.4</ele>
        <time>2023-12-06T15:00:46Z</time>
      </trkpt>
      <trkpt lat="49.2059" lon="0.09359">
        <ele>110.8</ele>
        <time>2023-12-06T15:00:47Z</time>
      </trkpt>
      <trkpt lat="49.20589" lon="0.09344">
        <ele>110.4</ele>
        <time>2023-12-06T15:00:48Z</time>
      </trkpt>
      <trkpt lat="49.20586" lon="0.09329">
        <ele>109.8</ele>
        <time>2023-12-06T15:00:49Z</time>
      </trkpt>
      <trkpt lat="49.20583" lon="0.09314">
        <ele>109.2</ele>
        <time>2023-12-06T15:00:50Z</time>
      </trkpt>
      <trkpt lat="49.2058" lon="0.09299">
        <ele>108.6</ele>
        <time>2023-12-06T15:00:51Z</time>
      </trkpt>
      <trkpt lat="49.20576" lon="0.09284">
        <ele>108</ele>
        <time>2023-12-06T15:00:52Z</time>
      </trkpt>
      <trkpt lat="49.20573" lon="0.09269">
        <ele>107.2</ele>
        <time>2023-12-06T15:00:53Z</time>
      </trkpt>
      <trkpt lat="49.20569" lon="0.09255">
        <ele>106.6</ele>
        <time>2023-12-06T15:00:54Z</time>
      </trkpt>
      <trkpt lat="49.20565" lon="0.0924">
        <ele>105.8</ele>
        <time>2023-12-06T15:00:55Z</time>
      </trkpt>
      <trkpt lat="49.20561" lon="0.09225">
        <ele>105.2</ele>
        <time>2023-12-06T15:00:56Z</time>
      </trkpt>
      <trkpt lat="49.20557" lon="0.0921">
        <ele>104.8</ele>
        <time>2023-12-06T15:00:57Z</time>
      </trkpt>
      <trkpt lat="49.20553" lon="0.09195">
        <ele>104.6</ele>
        <time>2023-12-06T15:00:58Z</time>
      </trkpt>
      <trkpt lat="49.2055" lon="0.0918">
        <ele>104.4</ele>
        <time>2023-12-06T15:00:59Z</time>
      </trkpt>
      <trkpt lat="49.20545" lon="0.09166">
        <ele>104</ele>
        <time>2023-12-06T15:01:00Z</time>
      </trkpt>
      <trkpt lat="49.20542" lon="0.09152">
        <ele>103.6</ele>
        <time>2023-12-06T15:01:01Z</time>
      </trkpt>
      <trkpt lat="49.20538" lon="0.09138">
        <ele>103.4</ele>
        <time>2023-12-06T15:01:02Z</time>
      </trkpt>
      <trkpt lat="49.20535" lon="0.09124">
        <ele>103</ele>
        <time>2023-12-06T15:01:03Z</time>
      </trkpt>
      <trkpt lat="49.20531" lon="0.0911">
        <ele>102.8</ele>
        <time>2023-12-06T15:01:04Z</time>
      </trkpt>
      <trkpt lat="49.20528" lon="0.09097">
        <ele>102.2</ele>
        <time>2023-12-06T15:01:05Z</time>
      </trkpt>
      <trkpt lat="49.20524" lon="0.09083">
        <ele>102</ele>
        <time>2023-12-06T15:01:06Z</time>
      </trkpt>
      <trkpt lat="49.20521" lon="0.0907">
        <ele>101.6</ele>
        <time>2023-12-06T15:01:07Z</time>
      </trkpt>
      <trkpt lat="49.20517" lon="0.09057">
        <ele>100.8</ele>
        <time>2023-12-06T15:01:08Z</time>
      </trkpt>
      <trkpt lat="49.20514" lon="0.09044">
        <ele>100.4</ele>
        <time>2023-12-06T15:01:09Z</time>
      </trkpt>
      <trkpt lat="49.2051" lon="0.09031">
        <ele>100</ele>
        <time>2023-12-06T15:01:10Z</time>
      </trkpt>
      <trkpt lat="49.20507" lon="0.09019">
        <ele>99.6</ele>
        <time>2023-12-06T15:01:11Z</time>
      </trkpt>
      <trkpt lat="49.20504" lon="0.09006">
        <ele>99.4</ele>
        <time>2023-12-06T15:01:12Z</time>
      </trkpt>
      <trkpt lat="49.20502" lon="0.08993">
        <ele>99.2</ele>
        <time>2023-12-06T15:01:13Z</time>
      </trkpt>
      <trkpt lat="49.20499" lon="0.08979">
        <ele>99</ele>
        <time>2023-12-06T15:01:14Z</time>
      </trkpt>
      <trkpt lat="49.20497" lon="0.08965">
        <ele>99</ele>
        <time>2023-12-06T15:01:15Z</time>
      </trkpt>
      <trkpt lat="49.20496" lon="0.08951">
        <ele>98.8</ele>
        <time>2023-12-06T15:01:16Z</time>
      </trkpt>
      <trkpt lat="49.20494" lon="0.08938">
        <ele>98.6</ele>
        <time>2023-12-06T15:01:17Z</time>
      </trkpt>
      <trkpt lat="49.20493" lon="0.08924">
        <ele>98.4</ele>
        <time>2023-12-06T15:01:18Z</time>
      </trkpt>
      <trkpt lat="49.20491" lon="0.0891">
        <ele>98.2</ele>
        <time>2023-12-06T15:01:19Z</time>
      </trkpt>
      <trkpt lat="49.2049" lon="0.08897">
        <ele>97.6</ele>
        <time>2023-12-06T15:01:20Z</time>
      </trkpt>
      <trkpt lat="49.20489" lon="0.08883">
        <ele>97.2</ele>
        <time>2023-12-06T15:01:21Z</time>
      </trkpt>
      <trkpt lat="49.20487" lon="0.08871">
        <ele>96.6</ele>
        <time>2023-12-06T15:01:22Z</time>
      </trkpt>
      <trkpt lat="49.20486" lon="0.08859">
        <ele>95.8</ele>
        <time>2023-12-06T15:01:23Z</time>
      </trkpt>
      <trkpt lat="49.20486" lon="0.08848">
        <ele>95.4</ele>
        <time>2023-12-06T15:01:24Z</time>
      </trkpt>
      <trkpt lat="49.20486" lon="0.08836">
        <ele>95</ele>
        <time>2023-12-06T15:01:25Z</time>
      </trkpt>
      <trkpt lat="49.20486" lon="0.08824">
        <ele>94.8</ele>
        <time>2023-12-06T15:01:26Z</time>
      </trkpt>
      <trkpt lat="49.20487" lon="0.08812">
        <ele>94.6</ele>
        <time>2023-12-06T15:01:27Z</time>
      </trkpt>
      <trkpt lat="49.20488" lon="0.08799">
        <ele>94.6</ele>
        <time>2023-12-06T15:01:28Z</time>
      </trkpt>
      <trkpt lat="49.2049" lon="0.08787">
        <ele>94.4</ele>
        <time>2023-12-06T15:01:29Z</time>
      </trkpt>
      <trkpt lat="49.20492" lon="0.08775">
        <ele>94.2</ele>
        <time>2023-12-06T15:01:30Z</time>
      </trkpt>
      <trkpt lat="49.20495" lon="0.08762">
        <ele>94</ele>
        <time>2023-12-06T15:01:31Z</time>
      </trkpt>
      <trkpt lat="49.20499" lon="0.08749">
        <ele>93.8</ele>
        <time>2023-12-06T15:01:32Z</time>
      </trkpt>
      <trkpt lat="49.20502" lon="0.08737">
        <ele>93.6</ele>
        <time>2023-12-06T15:01:33Z</time>
      </trkpt>
      <trkpt lat="49.20506" lon="0.08725">
        <ele>93.6</ele>
        <time>2023-12-06T15:01:34Z</time>
      </trkpt>
      <trkpt lat="49.20509" lon="0.08713">
        <ele>93.4</ele>
        <time>2023-12-06T15:01:35Z</time>
      </trkpt>
      <trkpt lat="49.20513" lon="0.08702">
        <ele>93.2</ele>
        <time>2023-12-06T15:01:36Z</time>
      </trkpt>
      <trkpt lat="49.20517" lon="0.08691">
        <ele>93</ele>
        <time>2023-12-06T15:01:37Z</time>
      </trkpt>
      <trkpt lat="49.20522" lon="0.0868">
        <ele>92.8</ele>
        <time>2023-12-06T15:01:38Z</time>
      </trkpt>
      <trkpt lat="49.20526" lon="0.08669">
        <ele>92.6</ele>
        <time>2023-12-06T15:01:39Z</time>
      </trkpt>
      <trkpt lat="49.20531" lon="0.08659">
        <ele>92.4</ele>
        <time>2023-12-06T15:01:40Z</time>
      </trkpt>
      <trkpt lat="49.20536" lon="0.08648">
        <ele>92.2</ele>
        <time>2023-12-06T15:01:41Z</time>
      </trkpt>
      <trkpt lat="49.20541" lon="0.08637">
        <ele>92.2</ele>
        <time>2023-12-06T15:01:42Z</time>
      </trkpt>
      <trkpt lat="49.20546" lon="0.08626">
        <ele>92</ele>
        <time>2023-12-06T15:01:43Z</time>
      </trkpt>
      <trkpt lat="49.20551" lon="0.08616">
        <ele>92</ele>
        <time>2023-12-06T15:01:44Z</time>
      </trkpt>
      <trkpt lat="49.20556" lon="0.08605">
        <ele>91.6</ele>
        <time>2023-12-06T15:01:45Z</time>
      </trkpt>
      <trkpt lat="49.2056" lon="0.08595">
        <ele>91.6</ele>
        <time>2023-12-06T15:01:46Z</time>
      </trkpt>
      <trkpt lat="49.20565" lon="0.08585">
        <ele>91.6</ele>
        <time>2023-12-06T15:01:47Z</time>
      </trkpt>
      <trkpt lat="49.20569" lon="0.08574">
        <ele>91.4</ele>
        <time>2023-12-06T15:01:48Z</time>
      </trkpt>
      <trkpt lat="49.20573" lon="0.08564">
        <ele>91.4</ele>
        <time>2023-12-06T15:01:49Z</time>
      </trkpt>
      <trkpt lat="49.20576" lon="0.08553">
        <ele>91.4</ele>
        <time>2023-12-06T15:01:50Z</time>
      </trkpt>
      <trkpt lat="49.20579" lon="0.08542">
        <ele>91.4</ele>
        <time>2023-12-06T15:01:51Z</time>
      </trkpt>
      <trkpt lat="49.20583" lon="0.08531">
        <ele>91.4</ele>
        <time>2023-12-06T15:01:52Z</time>
      </trkpt>
      <trkpt lat="49.20585" lon="0.08519">
        <ele>91.4</ele>
        <time>2023-12-06T15:01:53Z</time>
      </trkpt>
      <trkpt lat="49.20587" lon="0.08507">
        <ele>91.4</ele>
        <time>2023-12-06T15:01:54Z</time>
      </trkpt>
      <trkpt lat="49.20588" lon="0.08494">
        <ele>91.2</ele>
        <time>2023-12-06T15:01:55Z</time>
      </trkpt>
      <trkpt lat="49.20589" lon="0.08481">
        <ele>91.2</ele>
        <time>2023-12-06T15:01:56Z</time>
      </trkpt>
      <trkpt lat="49.2059" lon="0.08468">
        <ele>91.2</ele>
        <time>2023-12-06T15:01:57Z</time>
      </trkpt>
      <trkpt lat="49.20591" lon="0.08455">
        <ele>91.2</ele>
        <time>2023-12-06T15:01:58Z</time>
      </trkpt>
      <trkpt lat="49.20592" lon="0.08443">
        <ele>91.2</ele>
        <time>2023-12-06T15:01:59Z</time>
      </trkpt>
      <trkpt lat="49.20592" lon="0.0843">
        <ele>91.2</ele>
        <time>2023-12-06T15:02:00Z</time>
      </trkpt>
      <trkpt lat="49.20592" lon="0.08418">
        <ele>91.2</ele>
        <time>2023-12-06T15:02:01Z</time>
      </trkpt>
      <trkpt lat="49.20592" lon="0.08405">
        <ele>91</ele>
        <time>2023-12-06T15:02:02Z</time>
      </trkpt>
      <trkpt lat="49.20592" lon="0.08392">
        <ele>91</ele>
        <time>2023-12-06T15:02:03Z</time>
      </trkpt>
      <trkpt lat="49.20591" lon="0.08379">
        <ele>91</ele>
        <time>2023-12-06T15:02:04Z</time>
      </trkpt>
      <trkpt lat="49.20591" lon="0.08367">
        <ele>90.8</ele>
        <time>2023-12-06T15:02:05Z</time>
      </trkpt>
      <trkpt lat="49.20591" lon="0.08354">
        <ele>90.6</ele>
        <time>2023-12-06T15:02:06Z</time>
      </trkpt>
      <trkpt lat="49.2059" lon="0.0834">
        <ele>90.6</ele>
        <time>2023-12-06T15:02:07Z</time>
      </trkpt>
      <trkpt lat="49.20589" lon="0.08327">
        <ele>90.4</ele>
        <time>2023-12-06T15:02:08Z</time>
      </trkpt>
      <trkpt lat="49.20588" lon="0.08314">
        <ele>90.4</ele>
        <time>2023-12-06T15:02:09Z</time>
      </trkpt>
      <trkpt lat="49.20586" lon="0.08301">
        <ele>90.2</ele>
        <time>2023-12-06T15:02:10Z</time>
      </trkpt>
      <trkpt lat="49.20585" lon="0.08288">
        <ele>90.2</ele>
        <time>2023-12-06T15:02:11Z</time>
      </trkpt>
      <trkpt lat="49.20583" lon="0.08274">
        <ele>90</ele>
        <time>2023-12-06T15:02:12Z</time>
      </trkpt>
      <trkpt lat="49.2058" lon="0.08261">
        <ele>89.8</ele>
        <time>2023-12-06T15:02:13Z</time>
      </trkpt>
      <trkpt lat="49.20578" lon="0.08247">
        <ele>89.6</ele>
        <time>2023-12-06T15:02:14Z</time>
      </trkpt>
      <trkpt lat="49.20574" lon="0.08233">
        <ele>89</ele>
        <time>2023-12-06T15:02:15Z</time>
      </trkpt>
      <trkpt lat="49.20571" lon="0.0822">
        <ele>88.4</ele>
        <time>2023-12-06T15:02:16Z</time>
      </trkpt>
      <trkpt lat="49.20567" lon="0.08208">
        <ele>88</ele>
        <time>2023-12-06T15:02:17Z</time>
      </trkpt>
      <trkpt lat="49.20563" lon="0.08195">
        <ele>87.6</ele>
        <time>2023-12-06T15:02:18Z</time>
      </trkpt>
      <trkpt lat="49.20559" lon="0.08182">
        <ele>87.2</ele>
        <time>2023-12-06T15:02:19Z</time>
      </trkpt>
      <trkpt lat="49.20555" lon="0.08169">
        <ele>86.6</ele>
        <time>2023-12-06T15:02:20Z</time>
      </trkpt>
      <trkpt lat="49.2055" lon="0.08156">
        <ele>86</ele>
        <time>2023-12-06T15:02:21Z</time>
      </trkpt>
      <trkpt lat="49.20546" lon="0.08143">
        <ele>85.4</ele>
        <time>2023-12-06T15:02:22Z</time>
      </trkpt>
      <trkpt lat="49.20542" lon="0.0813">
        <ele>85</ele>
        <time>2023-12-06T15:02:23Z</time>
      </trkpt>
      <trkpt lat="49.20538" lon="0.08117">
        <ele>84.6</ele>
        <time>2023-12-06T15:02:24Z</time>
      </trkpt>
      <trkpt lat="49.20534" lon="0.08104">
        <ele>84.2</ele>
        <time>2023-12-06T15:02:25Z</time>
      </trkpt>
      <trkpt lat="49.2053" lon="0.08091">
        <ele>84.2</ele>
        <time>2023-12-06T15:02:26Z</time>
      </trkpt>
      <trkpt lat="49.20526" lon="0.08079">
        <ele>83.8</ele>
        <time>2023-12-06T15:02:27Z</time>
      </trkpt>
      <trkpt lat="49.20521" lon="0.08067">
        <ele>83.6</ele>
        <time>2023-12-06T15:02:28Z</time>
      </trkpt>
      <trkpt lat="49.20518" lon="0.08054">
        <ele>83.2</ele>
        <time>2023-12-06T15:02:29Z</time>
      </trkpt>
      <trkpt lat="49.20514" lon="0.08042">
        <ele>83</ele>
        <time>2023-12-06T15:02:30Z</time>
      </trkpt>
      <trkpt lat="49.2051" lon="0.0803">
        <ele>82.8</ele>
        <time>2023-12-06T15:02:31Z</time>
      </trkpt>
      <trkpt lat="49.20506" lon="0.08019">
        <ele>82.4</ele>
        <time>2023-12-06T15:02:32Z</time>
      </trkpt>
      <trkpt lat="49.20502" lon="0.08007">
        <ele>82.2</ele>
        <time>2023-12-06T15:02:33Z</time>
      </trkpt>
      <trkpt lat="49.20499" lon="0.07996">
        <ele>82</ele>
        <time>2023-12-06T15:02:34Z</time>
      </trkpt>
      <trkpt lat="49.20495" lon="0.07984">
        <ele>81.6</ele>
        <time>2023-12-06T15:02:35Z</time>
      </trkpt>
      <trkpt lat="49.20491" lon="0.07973">
        <ele>81.2</ele>
        <time>2023-12-06T15:02:36Z</time>
      </trkpt>
      <trkpt lat="49.20488" lon="0.07962">
        <ele>80.8</ele>
        <time>2023-12-06T15:02:37Z</time>
      </trkpt>
      <trkpt lat="49.20484" lon="0.07951">
        <ele>80.6</ele>
        <time>2023-12-06T15:02:38Z</time>
      </trkpt>
      <trkpt lat="49.20481" lon="0.07941">
        <ele>80.4</ele>
        <time>2023-12-06T15:02:39Z</time>
      </trkpt>
      <trkpt lat="49.20477" lon="0.07931">
        <ele>80.2</ele>
        <time>2023-12-06T15:02:40Z</time>
      </trkpt>
      <trkpt lat="49.20474" lon="0.07921">
        <ele>80.2</ele>
        <time>2023-12-06T15:02:41Z</time>
      </trkpt>
      <trkpt lat="49.2047" lon="0.07911">
        <ele>80.2</ele>
        <time>2023-12-06T15:02:42Z</time>
      </trkpt>
      <trkpt lat="49.20468" lon="0.07901">
        <ele>80</ele>
        <time>2023-12-06T15:02:43Z</time>
      </trkpt>
      <trkpt lat="49.20465" lon="0.07893">
        <ele>79.6</ele>
        <time>2023-12-06T15:02:44Z</time>
      </trkpt>
      <trkpt lat="49.20462" lon="0.07885">
        <ele>79.4</ele>
        <time>2023-12-06T15:02:45Z</time>
      </trkpt>
      <trkpt lat="49.2046" lon="0.07878">
        <ele>79.4</ele>
        <time>2023-12-06T15:02:46Z</time>
      </trkpt>
      <trkpt lat="49.20458" lon="0.07871">
        <ele>79.2</ele>
        <time>2023-12-06T15:02:47Z</time>
      </trkpt>
      <trkpt lat="49.20456" lon="0.07866">
        <ele>79.2</ele>
        <time>2023-12-06T15:02:48Z</time>
      </trkpt>
      <trkpt lat="49.20455" lon="0.07862">
        <ele>79.2</ele>
        <time>2023-12-06T15:02:49Z</time>
      </trkpt>
      <trkpt lat="49.20454" lon="0.07858">
        <ele>79.2</ele>
        <time>2023-12-06T15:02:50Z</time>
      </trkpt>
      <trkpt lat="49.20454" lon="0.07855">
        <ele>79.2</ele>
        <time>2023-12-06T15:02:51Z</time>
      </trkpt>
      <trkpt lat="49.20454" lon="0.07852">
        <ele>79.2</ele>
        <time>2023-12-06T15:02:52Z</time>
      </trkpt>
      <trkpt lat="49.20454" lon="0.07852">
        <ele>79.2</ele>
        <time>2023-12-06T15:02:53Z</time>
      </trkpt>
      <trkpt lat="49.20454" lon="0.07852">
        <ele>79.2</ele>
        <time>2023-12-06T15:02:54Z</time>
      </trkpt>
      <trkpt lat="49.20459" lon="0.07843">
        <ele>79.6</ele>
        <time>2023-12-06T15:03:39Z</time>
      </trkpt>
      <trkpt lat="49.20461" lon="0.07841">
        <ele>79.6</ele>
        <time>2023-12-06T15:03:40Z</time>
      </trkpt>
      <trkpt lat="49.20464" lon="0.07839">
        <ele>79.6</ele>
        <time>2023-12-06T15:03:41Z</time>
      </trkpt>
      <trkpt lat="49.20467" lon="0.07837">
        <ele>79.6</ele>
        <time>2023-12-06T15:03:42Z</time>
      </trkpt>
      <trkpt lat="49.20471" lon="0.07835">
        <ele>79.6</ele>
        <time>2023-12-06T15:03:43Z</time>
      </trkpt>
      <trkpt lat="49.20475" lon="0.07833">
        <ele>79.6</ele>
        <time>2023-12-06T15:03:44Z</time>
      </trkpt>
      <trkpt lat="49.20479" lon="0.07831">
        <ele>79.6</ele>
        <time>2023-12-06T15:03:45Z</time>
      </trkpt>
      <trkpt lat="49.20484" lon="0.0783">
        <ele>79.6</ele>
        <time>2023-12-06T15:03:46Z</time>
      </trkpt>
      <trkpt lat="49.20488" lon="0.07829">
        <ele>79.6</ele>
        <time>2023-12-06T15:03:47Z</time>
      </trkpt>
      <trkpt lat="49.20491" lon="0.07829">
        <ele>79.6</ele>
        <time>2023-12-06T15:03:48Z</time>
      </trkpt>
      <trkpt lat="49.20494" lon="0.0783">
        <ele>79.4</ele>
        <time>2023-12-06T15:03:49Z</time>
      </trkpt>
      <trkpt lat="49.20497" lon="0.07829">
        <ele>79.2</ele>
        <time>2023-12-06T15:03:50Z</time>
      </trkpt>
      <trkpt lat="49.205" lon="0.07829">
        <ele>79.2</ele>
        <time>2023-12-06T15:03:51Z</time>
      </trkpt>
      <trkpt lat="49.20502" lon="0.07829">
        <ele>79</ele>
        <time>2023-12-06T15:03:52Z</time>
      </trkpt>
      <trkpt lat="49.20505" lon="0.07829">
        <ele>79</ele>
        <time>2023-12-06T15:03:53Z</time>
      </trkpt>
      <trkpt lat="49.20508" lon="0.07829">
        <ele>78.8</ele>
        <time>2023-12-06T15:03:54Z</time>
      </trkpt>
      <trkpt lat="49.2051" lon="0.0783">
        <ele>78.8</ele>
        <time>2023-12-06T15:03:55Z</time>
      </trkpt>
      <trkpt lat="49.20512" lon="0.07831">
        <ele>78.8</ele>
        <time>2023-12-06T15:03:56Z</time>
      </trkpt>
      <trkpt lat="49.20515" lon="0.07832">
        <ele>78.8</ele>
        <time>2023-12-06T15:03:57Z</time>
      </trkpt>
      <trkpt lat="49.20518" lon="0.07833">
        <ele>78.6</ele>
        <time>2023-12-06T15:03:58Z</time>
      </trkpt>
      <trkpt lat="49.2052" lon="0.07834">
        <ele>78.6</ele>
        <time>2023-12-06T15:03:59Z</time>
      </trkpt>
      <trkpt lat="49.20523" lon="0.07835">
        <ele>78.6</ele>
        <time>2023-12-06T15:04:00Z</time>
      </trkpt>
      <trkpt lat="49.20526" lon="0.07835">
        <ele>78.6</ele>
        <time>2023-12-06T15:04:01Z</time>
      </trkpt>
      <trkpt lat="49.20528" lon="0.07834">
        <ele>78.6</ele>
        <time>2023-12-06T15:04:02Z</time>
      </trkpt>
      <trkpt lat="49.20531" lon="0.07834">
        <ele>78.6</ele>
        <time>2023-12-06T15:04:03Z</time>
      </trkpt>
      <trkpt lat="49.20533" lon="0.07832">
        <ele>78.6</ele>
        <time>2023-12-06T15:04:04Z</time>
      </trkpt>
      <trkpt lat="49.20535" lon="0.0783">
        <ele>78.6</ele>
        <time>2023-12-06T15:04:05Z</time>
      </trkpt>
      <trkpt lat="49.20537" lon="0.07828">
        <ele>78.6</ele>
        <time>2023-12-06T15:04:06Z</time>
      </trkpt>
      <trkpt lat="49.20539" lon="0.07824">
        <ele>78.6</ele>
        <time>2023-12-06T15:04:07Z</time>
      </trkpt>
      <trkpt lat="49.20542" lon="0.07821">
        <ele>78.8</ele>
        <time>2023-12-06T15:04:08Z</time>
      </trkpt>
      <trkpt lat="49.20544" lon="0.07818">
        <ele>78.6</ele>
        <time>2023-12-06T15:04:09Z</time>
      </trkpt>
      <trkpt lat="49.20546" lon="0.07816">
        <ele>78.6</ele>
        <time>2023-12-06T15:04:10Z</time>
      </trkpt>
      <trkpt lat="49.20549" lon="0.07813">
        <ele>78.6</ele>
        <time>2023-12-06T15:04:11Z</time>
      </trkpt>
      <trkpt lat="49.20552" lon="0.0781">
        <ele>78.6</ele>
        <time>2023-12-06T15:04:12Z</time>
      </trkpt>
      <trkpt lat="49.20556" lon="0.07808">
        <ele>78.6</ele>
        <time>2023-12-06T15:04:13Z</time>
      </trkpt>
      <trkpt lat="49.20559" lon="0.07805">
        <ele>78.8</ele>
        <time>2023-12-06T15:04:14Z</time>
      </trkpt>
      <trkpt lat="49.20563" lon="0.07802">
        <ele>78.8</ele>
        <time>2023-12-06T15:04:15Z</time>
      </trkpt>
      <trkpt lat="49.20567" lon="0.07799">
        <ele>78.8</ele>
        <time>2023-12-06T15:04:16Z</time>
      </trkpt>
      <trkpt lat="49.2057" lon="0.07795">
        <ele>78.8</ele>
        <time>2023-12-06T15:04:17Z</time>
      </trkpt>
      <trkpt lat="49.20574" lon="0.07793">
        <ele>78.8</ele>
        <time>2023-12-06T15:04:18Z</time>
      </trkpt>
      <trkpt lat="49.20578" lon="0.0779">
        <ele>78.8</ele>
        <time>2023-12-06T15:04:19Z</time>
      </trkpt>
      <trkpt lat="49.20582" lon="0.07787">
        <ele>78.8</ele>
        <time>2023-12-06T15:04:20Z</time>
      </trkpt>
      <trkpt lat="49.20585" lon="0.07784">
        <ele>78.8</ele>
        <time>2023-12-06T15:04:21Z</time>
      </trkpt>
      <trkpt lat="49.20589" lon="0.07781">
        <ele>78.8</ele>
        <time>2023-12-06T15:04:22Z</time>
      </trkpt>
      <trkpt lat="49.20593" lon="0.07778">
        <ele>78.8</ele>
        <time>2023-12-06T15:04:23Z</time>
      </trkpt>
      <trkpt lat="49.20597" lon="0.07774">
        <ele>78.8</ele>
        <time>2023-12-06T15:04:24Z</time>
      </trkpt>
      <trkpt lat="49.20601" lon="0.07771">
        <ele>78.8</ele>
        <time>2023-12-06T15:04:25Z</time>
      </trkpt>
      <trkpt lat="49.20605" lon="0.07769">
        <ele>78.8</ele>
        <time>2023-12-06T15:04:26Z</time>
      </trkpt>
      <trkpt lat="49.2061" lon="0.07766">
        <ele>78.8</ele>
        <time>2023-12-06T15:04:27Z</time>
      </trkpt>
      <trkpt lat="49.20613" lon="0.07762">
        <ele>78.8</ele>
        <time>2023-12-06T15:04:28Z</time>
      </trkpt>
      <trkpt lat="49.20617" lon="0.07759">
        <ele>78.8</ele>
        <time>2023-12-06T15:04:29Z</time>
      </trkpt>
      <trkpt lat="49.20621" lon="0.07756">
        <ele>78.8</ele>
        <time>2023-12-06T15:04:30Z</time>
      </trkpt>
      <trkpt lat="49.20624" lon="0.07752">
        <ele>78.8</ele>
        <time>2023-12-06T15:04:31Z</time>
      </trkpt>
      <trkpt lat="49.20628" lon="0.07748">
        <ele>79</ele>
        <time>2023-12-06T15:04:32Z</time>
      </trkpt>
      <trkpt lat="49.20631" lon="0.07745">
        <ele>79</ele>
        <time>2023-12-06T15:04:33Z</time>
      </trkpt>
      <trkpt lat="49.20634" lon="0.07742">
        <ele>79.2</ele>
        <time>2023-12-06T15:04:34Z</time>
      </trkpt>
      <trkpt lat="49.20638" lon="0.07739">
        <ele>79.2</ele>
        <time>2023-12-06T15:04:35Z</time>
      </trkpt>
      <trkpt lat="49.20642" lon="0.07735">
        <ele>79.2</ele>
        <time>2023-12-06T15:04:36Z</time>
      </trkpt>
      <trkpt lat="49.20645" lon="0.07733">
        <ele>79.4</ele>
        <time>2023-12-06T15:04:37Z</time>
      </trkpt>
      <trkpt lat="49.20649" lon="0.07731">
        <ele>79.4</ele>
        <time>2023-12-06T15:04:38Z</time>
      </trkpt>
      <trkpt lat="49.20652" lon="0.07729">
        <ele>79.6</ele>
        <time>2023-12-06T15:04:39Z</time>
      </trkpt>
      <trkpt lat="49.20655" lon="0.07727">
        <ele>79.8</ele>
        <time>2023-12-06T15:04:40Z</time>
      </trkpt>
      <trkpt lat="49.2066" lon="0.07724">
        <ele>79.8</ele>
        <time>2023-12-06T15:04:41Z</time>
      </trkpt>
      <trkpt lat="49.20664" lon="0.07722">
        <ele>80</ele>
        <time>2023-12-06T15:04:42Z</time>
      </trkpt>
      <trkpt lat="49.20668" lon="0.0772">
        <ele>80</ele>
        <time>2023-12-06T15:04:43Z</time>
      </trkpt>
      <trkpt lat="49.20671" lon="0.07717">
        <ele>80.2</ele>
        <time>2023-12-06T15:04:44Z</time>
      </trkpt>
      <trkpt lat="49.20674" lon="0.07714">
        <ele>80.4</ele>
        <time>2023-12-06T15:04:45Z</time>
      </trkpt>
      <trkpt lat="49.20676" lon="0.07711">
        <ele>80.4</ele>
        <time>2023-12-06T15:04:46Z</time>
      </trkpt>
      <trkpt lat="49.2068" lon="0.07707">
        <ele>80.4</ele>
        <time>2023-12-06T15:04:47Z</time>
      </trkpt>
      <trkpt lat="49.20684" lon="0.07704">
        <ele>80.6</ele>
        <time>2023-12-06T15:04:48Z</time>
      </trkpt>
      <trkpt lat="49.20687" lon="0.07702">
        <ele>80.8</ele>
        <time>2023-12-06T15:04:49Z</time>
      </trkpt>
      <trkpt lat="49.2069" lon="0.07699">
        <ele>80.8</ele>
        <time>2023-12-06T15:04:50Z</time>
      </trkpt>
      <trkpt lat="49.20693" lon="0.07697">
        <ele>80.8</ele>
        <time>2023-12-06T15:04:51Z</time>
      </trkpt>
      <trkpt lat="49.20697" lon="0.07695">
        <ele>81</ele>
        <time>2023-12-06T15:04:52Z</time>
      </trkpt>
      <trkpt lat="49.20701" lon="0.07692">
        <ele>81</ele>
        <time>2023-12-06T15:04:53Z</time>
      </trkpt>
      <trkpt lat="49.20704" lon="0.07689">
        <ele>81.2</ele>
        <time>2023-12-06T15:04:54Z</time>
      </trkpt>
      <trkpt lat="49.20708" lon="0.07687">
        <ele>81.2</ele>
        <time>2023-12-06T15:04:55Z</time>
      </trkpt>
      <trkpt lat="49.20712" lon="0.07684">
        <ele>81.4</ele>
        <time>2023-12-06T15:04:56Z</time>
      </trkpt>
      <trkpt lat="49.20716" lon="0.07682">
        <ele>81.4</ele>
        <time>2023-12-06T15:04:57Z</time>
      </trkpt>
      <trkpt lat="49.20719" lon="0.0768">
        <ele>81.6</ele>
        <time>2023-12-06T15:04:58Z</time>
      </trkpt>
      <trkpt lat="49.20722" lon="0.07677">
        <ele>81.6</ele>
        <time>2023-12-06T15:04:59Z</time>
      </trkpt>
      <trkpt lat="49.20725" lon="0.07674">
        <ele>81.6</ele>
        <time>2023-12-06T15:05:00Z</time>
      </trkpt>
      <trkpt lat="49.20729" lon="0.07672">
        <ele>81.8</ele>
        <time>2023-12-06T15:05:01Z</time>
      </trkpt>
      <trkpt lat="49.20731" lon="0.07669">
        <ele>82</ele>
        <time>2023-12-06T15:05:02Z</time>
      </trkpt>
      <trkpt lat="49.20734" lon="0.07667">
        <ele>82.2</ele>
        <time>2023-12-06T15:05:03Z</time>
      </trkpt>
      <trkpt lat="49.20737" lon="0.07664">
        <ele>82.4</ele>
        <time>2023-12-06T15:05:04Z</time>
      </trkpt>
      <trkpt lat="49.2074" lon="0.07662">
        <ele>82.4</ele>
        <time>2023-12-06T15:05:05Z</time>
      </trkpt>
      <trkpt lat="49.20743" lon="0.07659">
        <ele>82.4</ele>
        <time>2023-12-06T15:05:06Z</time>
      </trkpt>
      <trkpt lat="49.20745" lon="0.07657">
        <ele>82.8</ele>
        <time>2023-12-06T15:05:07Z</time>
      </trkpt>
      <trkpt lat="49.20748" lon="0.07655">
        <ele>83</ele>
        <time>2023-12-06T15:05:08Z</time>
      </trkpt>
      <trkpt lat="49.20752" lon="0.07652">
        <ele>83.2</ele>
        <time>2023-12-06T15:05:09Z</time>
      </trkpt>
      <trkpt lat="49.20755" lon="0.0765">
        <ele>83.4</ele>
        <time>2023-12-06T15:05:10Z</time>
      </trkpt>
      <trkpt lat="49.20758" lon="0.07649">
        <ele>83.6</ele>
        <time>2023-12-06T15:05:11Z</time>
      </trkpt>
      <trkpt lat="49.2076" lon="0.07646">
        <ele>83.8</ele>
        <time>2023-12-06T15:05:12Z</time>
      </trkpt>
      <trkpt lat="49.20763" lon="0.07644">
        <ele>84</ele>
        <time>2023-12-06T15:05:13Z</time>
      </trkpt>
      <trkpt lat="49.20766" lon="0.07641">
        <ele>84.2</ele>
        <time>2023-12-06T15:05:14Z</time>
      </trkpt>
      <trkpt lat="49.20768" lon="0.07639">
        <ele>84.4</ele>
        <time>2023-12-06T15:05:15Z</time>
      </trkpt>
      <trkpt lat="49.20771" lon="0.07637">
        <ele>84.4</ele>
        <time>2023-12-06T15:05:16Z</time>
      </trkpt>
      <trkpt lat="49.20773" lon="0.07635">
        <ele>84.8</ele>
        <time>2023-12-06T15:05:17Z</time>
      </trkpt>
      <trkpt lat="49.20776" lon="0.07633">
        <ele>84.8</ele>
        <time>2023-12-06T15:05:18Z</time>
      </trkpt>
      <trkpt lat="49.20778" lon="0.07631">
        <ele>85.2</ele>
        <time>2023-12-06T15:05:19Z</time>
      </trkpt>
      <trkpt lat="49.20781" lon="0.07629">
        <ele>85.4</ele>
        <time>2023-12-06T15:05:20Z</time>
      </trkpt>
      <trkpt lat="49.20784" lon="0.07628">
        <ele>85.6</ele>
        <time>2023-12-06T15:05:21Z</time>
      </trkpt>
      <trkpt lat="49.20786" lon="0.07626">
        <ele>86</ele>
        <time>2023-12-06T15:05:22Z</time>
      </trkpt>
      <trkpt lat="49.20789" lon="0.07626">
        <ele>86.2</ele>
        <time>2023-12-06T15:05:23Z</time>
      </trkpt>
      <trkpt lat="49.20791" lon="0.07625">
        <ele>86.6</ele>
        <time>2023-12-06T15:05:24Z</time>
      </trkpt>
      <trkpt lat="49.20793" lon="0.07624">
        <ele>86.8</ele>
        <time>2023-12-06T15:05:25Z</time>
      </trkpt>
      <trkpt lat="49.20795" lon="0.07622">
        <ele>87</ele>
        <time>2023-12-06T15:05:26Z</time>
      </trkpt>
      <trkpt lat="49.20797" lon="0.0762">
        <ele>87.2</ele>
        <time>2023-12-06T15:05:27Z</time>
      </trkpt>
      <trkpt lat="49.20799" lon="0.07619">
        <ele>87.6</ele>
        <time>2023-12-06T15:05:28Z</time>
      </trkpt>
      <trkpt lat="49.20802" lon="0.07617">
        <ele>87.8</ele>
        <time>2023-12-06T15:05:29Z</time>
      </trkpt>
      <trkpt lat="49.20804" lon="0.07616">
        <ele>88.2</ele>
        <time>2023-12-06T15:05:30Z</time>
      </trkpt>
      <trkpt lat="49.20805" lon="0.07614">
        <ele>88.4</ele>
        <time>2023-12-06T15:05:31Z</time>
      </trkpt>
      <trkpt lat="49.20808" lon="0.07612">
        <ele>88.8</ele>
        <time>2023-12-06T15:05:32Z</time>
      </trkpt>
      <trkpt lat="49.2081" lon="0.0761">
        <ele>89</ele>
        <time>2023-12-06T15:05:33Z</time>
      </trkpt>
      <trkpt lat="49.20813" lon="0.07609">
        <ele>89.2</ele>
        <time>2023-12-06T15:05:34Z</time>
      </trkpt>
      <trkpt lat="49.20815" lon="0.07607">
        <ele>89.4</ele>
        <time>2023-12-06T15:05:35Z</time>
      </trkpt>
      <trkpt lat="49.20817" lon="0.07606">
        <ele>89.8</ele>
        <time>2023-12-06T15:05:36Z</time>
      </trkpt>
      <trkpt lat="49.2082" lon="0.07604">
        <ele>90</ele>
        <time>2023-12-06T15:05:37Z</time>
      </trkpt>
      <trkpt lat="49.20822" lon="0.07602">
        <ele>90.2</ele>
        <time>2023-12-06T15:05:38Z</time>
      </trkpt>
      <trkpt lat="49.20824" lon="0.076">
        <ele>90.4</ele>
        <time>2023-12-06T15:05:39Z</time>
      </trkpt>
      <trkpt lat="49.20827" lon="0.07598">
        <ele>90.6</ele>
        <time>2023-12-06T15:05:40Z</time>
      </trkpt>
      <trkpt lat="49.20829" lon="0.07596">
        <ele>90.8</ele>
        <time>2023-12-06T15:05:41Z</time>
      </trkpt>
      <trkpt lat="49.20831" lon="0.07593">
        <ele>91</ele>
        <time>2023-12-06T15:05:42Z</time>
      </trkpt>
      <trkpt lat="49.20833" lon="0.07591">
        <ele>91.2</ele>
        <time>2023-12-06T15:05:43Z</time>
      </trkpt>
      <trkpt lat="49.20834" lon="0.07589">
        <ele>91.4</ele>
        <time>2023-12-06T15:05:44Z</time>
      </trkpt>
      <trkpt lat="49.20836" lon="0.07587">
        <ele>91.8</ele>
        <time>2023-12-06T15:05:45Z</time>
      </trkpt>
      <trkpt lat="49.20838" lon="0.07585">
        <ele>92</ele>
        <time>2023-12-06T15:05:46Z</time>
      </trkpt>
      <trkpt lat="49.2084" lon="0.07583">
        <ele>92.2</ele>
        <time>2023-12-06T15:05:47Z</time>
      </trkpt>
      <trkpt lat="49.20842" lon="0.07581">
        <ele>92.4</ele>
        <time>2023-12-06T15:05:48Z</time>
      </trkpt>
      <trkpt lat="49.20844" lon="0.07578">
        <ele>92.6</ele>
        <time>2023-12-06T15:05:49Z</time>
      </trkpt>
      <trkpt lat="49.20846" lon="0.07576">
        <ele>92.8</ele>
        <time>2023-12-06T15:05:50Z</time>
      </trkpt>
      <trkpt lat="49.20848" lon="0.07573">
        <ele>93.2</ele>
        <time>2023-12-06T15:05:51Z</time>
      </trkpt>
      <trkpt lat="49.2085" lon="0.07571">
        <ele>93.4</ele>
        <time>2023-12-06T15:05:52Z</time>
      </trkpt>
      <trkpt lat="49.20851" lon="0.07569">
        <ele>93.8</ele>
        <time>2023-12-06T15:05:53Z</time>
      </trkpt>
      <trkpt lat="49.20853" lon="0.07567">
        <ele>94</ele>
        <time>2023-12-06T15:05:54Z</time>
      </trkpt>
      <trkpt lat="49.20855" lon="0.07565">
        <ele>94.4</ele>
        <time>2023-12-06T15:05:55Z</time>
      </trkpt>
      <trkpt lat="49.20857" lon="0.07563">
        <ele>94.8</ele>
        <time>2023-12-06T15:05:56Z</time>
      </trkpt>
      <trkpt lat="49.20859" lon="0.07562">
        <ele>95</ele>
        <time>2023-12-06T15:05:57Z</time>
      </trkpt>
      <trkpt lat="49.2086" lon="0.0756">
        <ele>95.2</ele>
        <time>2023-12-06T15:05:58Z</time>
      </trkpt>
      <trkpt lat="49.20862" lon="0.07558">
        <ele>95.6</ele>
        <time>2023-12-06T15:05:59Z</time>
      </trkpt>
      <trkpt lat="49.20863" lon="0.07556">
        <ele>95.8</ele>
        <time>2023-12-06T15:06:00Z</time>
      </trkpt>
      <trkpt lat="49.20865" lon="0.07554">
        <ele>96</ele>
        <time>2023-12-06T15:06:01Z</time>
      </trkpt>
      <trkpt lat="49.20866" lon="0.07552">
        <ele>96.2</ele>
        <time>2023-12-06T15:06:02Z</time>
      </trkpt>
      <trkpt lat="49.20868" lon="0.07551">
        <ele>96.6</ele>
        <time>2023-12-06T15:06:03Z</time>
      </trkpt>
      <trkpt lat="49.20869" lon="0.0755">
        <ele>96.8</ele>
        <time>2023-12-06T15:06:04Z</time>
      </trkpt>
      <trkpt lat="49.20871" lon="0.07549">
        <ele>97</ele>
        <time>2023-12-06T15:06:05Z</time>
      </trkpt>
      <trkpt lat="49.20873" lon="0.07547">
        <ele>97.4</ele>
        <time>2023-12-06T15:06:06Z</time>
      </trkpt>
      <trkpt lat="49.20875" lon="0.07545">
        <ele>97.4</ele>
        <time>2023-12-06T15:06:07Z</time>
      </trkpt>
      <trkpt lat="49.20877" lon="0.07543">
        <ele>97.6</ele>
        <time>2023-12-06T15:06:08Z</time>
      </trkpt>
      <trkpt lat="49.20878" lon="0.07542">
        <ele>98</ele>
        <time>2023-12-06T15:06:09Z</time>
      </trkpt>
      <trkpt lat="49.2088" lon="0.0754">
        <ele>98.2</ele>
        <time>2023-12-06T15:06:10Z</time>
      </trkpt>
      <trkpt lat="49.20882" lon="0.07538">
        <ele>98.6</ele>
        <time>2023-12-06T15:06:11Z</time>
      </trkpt>
      <trkpt lat="49.20883" lon="0.07536">
        <ele>99</ele>
        <time>2023-12-06T15:06:12Z</time>
      </trkpt>
      <trkpt lat="49.20885" lon="0.07534">
        <ele>99</ele>
        <time>2023-12-06T15:06:13Z</time>
      </trkpt>
      <trkpt lat="49.20887" lon="0.07532">
        <ele>99.4</ele>
        <time>2023-12-06T15:06:14Z</time>
      </trkpt>
      <trkpt lat="49.20888" lon="0.0753">
        <ele>99.8</ele>
        <time>2023-12-06T15:06:15Z</time>
      </trkpt>
      <trkpt lat="49.2089" lon="0.07528">
        <ele>100</ele>
        <time>2023-12-06T15:06:16Z</time>
      </trkpt>
      <trkpt lat="49.20891" lon="0.07526">
        <ele>100.2</ele>
        <time>2023-12-06T15:06:17Z</time>
      </trkpt>
      <trkpt lat="49.20893" lon="0.07523">
        <ele>100.4</ele>
        <time>2023-12-06T15:06:18Z</time>
      </trkpt>
      <trkpt lat="49.20895" lon="0.07521">
        <ele>100.6</ele>
        <time>2023-12-06T15:06:19Z</time>
      </trkpt>
      <trkpt lat="49.20897" lon="0.07519">
        <ele>101</ele>
        <time>2023-12-06T15:06:20Z</time>
      </trkpt>
      <trkpt lat="49.20899" lon="0.07517">
        <ele>101.2</ele>
        <time>2023-12-06T15:06:21Z</time>
      </trkpt>
      <trkpt lat="49.20901" lon="0.07515">
        <ele>101.4</ele>
        <time>2023-12-06T15:06:22Z</time>
      </trkpt>
      <trkpt lat="49.20904" lon="0.07513">
        <ele>101.8</ele>
        <time>2023-12-06T15:06:23Z</time>
      </trkpt>
      <trkpt lat="49.20906" lon="0.0751">
        <ele>102</ele>
        <time>2023-12-06T15:06:24Z</time>
      </trkpt>
      <trkpt lat="49.20907" lon="0.07508">
        <ele>102.2</ele>
        <time>2023-12-06T15:06:25Z</time>
      </trkpt>
      <trkpt lat="49.20909" lon="0.07506">
        <ele>102.4</ele>
        <time>2023-12-06T15:06:26Z</time>
      </trkpt>
      <trkpt lat="49.2091" lon="0.07503">
        <ele>102.6</ele>
        <time>2023-12-06T15:06:27Z</time>
      </trkpt>
      <trkpt lat="49.20912" lon="0.07501">
        <ele>102.8</ele>
        <time>2023-12-06T15:06:28Z</time>
      </trkpt>
      <trkpt lat="49.20914" lon="0.07499">
        <ele>103</ele>
        <time>2023-12-06T15:06:29Z</time>
      </trkpt>
      <trkpt lat="49.20915" lon="0.07497">
        <ele>103.2</ele>
        <time>2023-12-06T15:06:30Z</time>
      </trkpt>
      <trkpt lat="49.20917" lon="0.07495">
        <ele>103.4</ele>
        <time>2023-12-06T15:06:31Z</time>
      </trkpt>
      <trkpt lat="49.20919" lon="0.07493">
        <ele>103.8</ele>
        <time>2023-12-06T15:06:32Z</time>
      </trkpt>
      <trkpt lat="49.2092" lon="0.0749">
        <ele>104</ele>
        <time>2023-12-06T15:06:33Z</time>
      </trkpt>
      <trkpt lat="49.20922" lon="0.07489">
        <ele>104.2</ele>
        <time>2023-12-06T15:06:34Z</time>
      </trkpt>
      <trkpt lat="49.20923" lon="0.07487">
        <ele>104.6</ele>
        <time>2023-12-06T15:06:35Z</time>
      </trkpt>
      <trkpt lat="49.20925" lon="0.07485">
        <ele>104.8</ele>
        <time>2023-12-06T15:06:36Z</time>
      </trkpt>
      <trkpt lat="49.20927" lon="0.07483">
        <ele>105</ele>
        <time>2023-12-06T15:06:37Z</time>
      </trkpt>
      <trkpt lat="49.20928" lon="0.07481">
        <ele>105.4</ele>
        <time>2023-12-06T15:06:38Z</time>
      </trkpt>
      <trkpt lat="49.20929" lon="0.07479">
        <ele>105.6</ele>
        <time>2023-12-06T15:06:39Z</time>
      </trkpt>
      <trkpt lat="49.20931" lon="0.07477">
        <ele>105.8</ele>
        <time>2023-12-06T15:06:40Z</time>
      </trkpt>
      <trkpt lat="49.20932" lon="0.07475">
        <ele>106.2</ele>
        <time>2023-12-06T15:06:41Z</time>
      </trkpt>
      <trkpt lat="49.20934" lon="0.07473">
        <ele>106.6</ele>
        <time>2023-12-06T15:06:42Z</time>
      </trkpt>
      <trkpt lat="49.20935" lon="0.07471">
        <ele>106.8</ele>
        <time>2023-12-06T15:06:43Z</time>
      </trkpt>
      <trkpt lat="49.20937" lon="0.07469">
        <ele>107</ele>
        <time>2023-12-06T15:06:44Z</time>
      </trkpt>
      <trkpt lat="49.20938" lon="0.07467">
        <ele>107.4</ele>
        <time>2023-12-06T15:06:45Z</time>
      </trkpt>
      <trkpt lat="49.2094" lon="0.07466">
        <ele>107.6</ele>
        <time>2023-12-06T15:06:46Z</time>
      </trkpt>
      <trkpt lat="49.20942" lon="0.07464">
        <ele>107.8</ele>
        <time>2023-12-06T15:06:47Z</time>
      </trkpt>
      <trkpt lat="49.20944" lon="0.07462">
        <ele>108</ele>
        <time>2023-12-06T15:06:48Z</time>
      </trkpt>
      <trkpt lat="49.20945" lon="0.0746">
        <ele>108.4</ele>
        <time>2023-12-06T15:06:49Z</time>
      </trkpt>
      <trkpt lat="49.20947" lon="0.07458">
        <ele>108.6</ele>
        <time>2023-12-06T15:06:50Z</time>
      </trkpt>
      <trkpt lat="49.20949" lon="0.07456">
        <ele>108.8</ele>
        <time>2023-12-06T15:06:51Z</time>
      </trkpt>
      <trkpt lat="49.20951" lon="0.07454">
        <ele>109</ele>
        <time>2023-12-06T15:06:52Z</time>
      </trkpt>
      <trkpt lat="49.20953" lon="0.07452">
        <ele>109.2</ele>
        <time>2023-12-06T15:06:53Z</time>
      </trkpt>
      <trkpt lat="49.20955" lon="0.0745">
        <ele>109.6</ele>
        <time>2023-12-06T15:06:54Z</time>
      </trkpt>
      <trkpt lat="49.20956" lon="0.07448">
        <ele>109.8</ele>
        <time>2023-12-06T15:06:55Z</time>
      </trkpt>
      <trkpt lat="49.20958" lon="0.07446">
        <ele>110.2</ele>
        <time>2023-12-06T15:06:56Z</time>
      </trkpt>
      <trkpt lat="49.2096" lon="0.07445">
        <ele>110.6</ele>
        <time>2023-12-06T15:06:57Z</time>
      </trkpt>
      <trkpt lat="49.20962" lon="0.07443">
        <ele>110.8</ele>
        <time>2023-12-06T15:06:58Z</time>
      </trkpt>
      <trkpt lat="49.20964" lon="0.07441">
        <ele>111.2</ele>
        <time>2023-12-06T15:06:59Z</time>
      </trkpt>
      <trkpt lat="49.20966" lon="0.0744">
        <ele>111.4</ele>
        <time>2023-12-06T15:07:00Z</time>
      </trkpt>
      <trkpt lat="49.20968" lon="0.07438">
        <ele>111.6</ele>
        <time>2023-12-06T15:07:01Z</time>
      </trkpt>
      <trkpt lat="49.2097" lon="0.07437">
        <ele>111.8</ele>
        <time>2023-12-06T15:07:02Z</time>
      </trkpt>
      <trkpt lat="49.20972" lon="0.07435">
        <ele>112</ele>
        <time>2023-12-06T15:07:03Z</time>
      </trkpt>
      <trkpt lat="49.20974" lon="0.07433">
        <ele>112.4</ele>
        <time>2023-12-06T15:07:04Z</time>
      </trkpt>
      <trkpt lat="49.20976" lon="0.07432">
        <ele>112.6</ele>
        <time>2023-12-06T15:07:05Z</time>
      </trkpt>
      <trkpt lat="49.20978" lon="0.07431">
        <ele>112.8</ele>
        <time>2023-12-06T15:07:06Z</time>
      </trkpt>
      <trkpt lat="49.2098" lon="0.07429">
        <ele>113.2</ele>
        <time>2023-12-06T15:07:07Z</time>
      </trkpt>
      <trkpt lat="49.20982" lon="0.07428">
        <ele>113.4</ele>
        <time>2023-12-06T15:07:08Z</time>
      </trkpt>
      <trkpt lat="49.20984" lon="0.07426">
        <ele>113.6</ele>
        <time>2023-12-06T15:07:09Z</time>
      </trkpt>
      <trkpt lat="49.20986" lon="0.07424">
        <ele>113.8</ele>
        <time>2023-12-06T15:07:10Z</time>
      </trkpt>
      <trkpt lat="49.20988" lon="0.07422">
        <ele>114</ele>
        <time>2023-12-06T15:07:11Z</time>
      </trkpt>
      <trkpt lat="49.2099" lon="0.07421">
        <ele>114.2</ele>
        <time>2023-12-06T15:07:12Z</time>
      </trkpt>
      <trkpt lat="49.20992" lon="0.07419">
        <ele>114.6</ele>
        <time>2023-12-06T15:07:13Z</time>
      </trkpt>
      <trkpt lat="49.20994" lon="0.07417">
        <ele>114.8</ele>
        <time>2023-12-06T15:07:14Z</time>
      </trkpt>
      <trkpt lat="49.20995" lon="0.07415">
        <ele>115.2</ele>
        <time>2023-12-06T15:07:15Z</time>
      </trkpt>
      <trkpt lat="49.20997" lon="0.07413">
        <ele>115.4</ele>
        <time>2023-12-06T15:07:16Z</time>
      </trkpt>
      <trkpt lat="49.20999" lon="0.07411">
        <ele>115.6</ele>
        <time>2023-12-06T15:07:17Z</time>
      </trkpt>
      <trkpt lat="49.21001" lon="0.0741">
        <ele>115.8</ele>
        <time>2023-12-06T15:07:18Z</time>
      </trkpt>
      <trkpt lat="49.21003" lon="0.07408">
        <ele>116.2</ele>
        <time>2023-12-06T15:07:19Z</time>
      </trkpt>
      <trkpt lat="49.21005" lon="0.07406">
        <ele>116.2</ele>
        <time>2023-12-06T15:07:20Z</time>
      </trkpt>
      <trkpt lat="49.21007" lon="0.07404">
        <ele>116.6</ele>
        <time>2023-12-06T15:07:21Z</time>
      </trkpt>
      <trkpt lat="49.21009" lon="0.07403">
        <ele>116.8</ele>
        <time>2023-12-06T15:07:22Z</time>
      </trkpt>
      <trkpt lat="49.2101" lon="0.07401">
        <ele>117.2</ele>
        <time>2023-12-06T15:07:23Z</time>
      </trkpt>
      <trkpt lat="49.21013" lon="0.07399">
        <ele>117.4</ele>
        <time>2023-12-06T15:07:24Z</time>
      </trkpt>
      <trkpt lat="49.21014" lon="0.07397">
        <ele>117.6</ele>
        <time>2023-12-06T15:07:25Z</time>
      </trkpt>
      <trkpt lat="49.21016" lon="0.07395">
        <ele>117.8</ele>
        <time>2023-12-06T15:07:26Z</time>
      </trkpt>
      <trkpt lat="49.21018" lon="0.07394">
        <ele>118</ele>
        <time>2023-12-06T15:07:27Z</time>
      </trkpt>
      <trkpt lat="49.2102" lon="0.07391">
        <ele>118.4</ele>
        <time>2023-12-06T15:07:28Z</time>
      </trkpt>
      <trkpt lat="49.21021" lon="0.07389">
        <ele>118.6</ele>
        <time>2023-12-06T15:07:29Z</time>
      </trkpt>
      <trkpt lat="49.21023" lon="0.07387">
        <ele>119</ele>
        <time>2023-12-06T15:07:30Z</time>
      </trkpt>
      <trkpt lat="49.21025" lon="0.07384">
        <ele>119.2</ele>
        <time>2023-12-06T15:07:31Z</time>
      </trkpt>
      <trkpt lat="49.21027" lon="0.07382">
        <ele>119.4</ele>
        <time>2023-12-06T15:07:32Z</time>
      </trkpt>
      <trkpt lat="49.21029" lon="0.0738">
        <ele>119.6</ele>
        <time>2023-12-06T15:07:33Z</time>
      </trkpt>
      <trkpt lat="49.21031" lon="0.07377">
        <ele>119.8</ele>
        <time>2023-12-06T15:07:34Z</time>
      </trkpt>
      <trkpt lat="49.21033" lon="0.07375">
        <ele>120.2</ele>
        <time>2023-12-06T15:07:35Z</time>
      </trkpt>
      <trkpt lat="49.21036" lon="0.07372">
        <ele>120.4</ele>
        <time>2023-12-06T15:07:36Z</time>
      </trkpt>
      <trkpt lat="49.21038" lon="0.07369">
        <ele>120.6</ele>
        <time>2023-12-06T15:07:37Z</time>
      </trkpt>
      <trkpt lat="49.21039" lon="0.07366">
        <ele>120.8</ele>
        <time>2023-12-06T15:07:38Z</time>
      </trkpt>
      <trkpt lat="49.21041" lon="0.07363">
        <ele>121</ele>
        <time>2023-12-06T15:07:39Z</time>
      </trkpt>
      <trkpt lat="49.21043" lon="0.07361">
        <ele>121.4</ele>
        <time>2023-12-06T15:07:40Z</time>
      </trkpt>
      <trkpt lat="49.21045" lon="0.07358">
        <ele>121.6</ele>
        <time>2023-12-06T15:07:41Z</time>
      </trkpt>
      <trkpt lat="49.21046" lon="0.07354">
        <ele>122</ele>
        <time>2023-12-06T15:07:42Z</time>
      </trkpt>
      <trkpt lat="49.21047" lon="0.0735">
        <ele>122.4</ele>
        <time>2023-12-06T15:07:43Z</time>
      </trkpt>
      <trkpt lat="49.21048" lon="0.07347">
        <ele>122.6</ele>
        <time>2023-12-06T15:07:44Z</time>
      </trkpt>
      <trkpt lat="49.21049" lon="0.07343">
        <ele>122.8</ele>
        <time>2023-12-06T15:07:45Z</time>
      </trkpt>
      <trkpt lat="49.2105" lon="0.0734">
        <ele>123.2</ele>
        <time>2023-12-06T15:07:46Z</time>
      </trkpt>
      <trkpt lat="49.21052" lon="0.07337">
        <ele>123.4</ele>
        <time>2023-12-06T15:07:47Z</time>
      </trkpt>
      <trkpt lat="49.21054" lon="0.07334">
        <ele>123.6</ele>
        <time>2023-12-06T15:07:48Z</time>
      </trkpt>
      <trkpt lat="49.21055" lon="0.07331">
        <ele>124</ele>
        <time>2023-12-06T15:07:49Z</time>
      </trkpt>
      <trkpt lat="49.21056" lon="0.07327">
        <ele>124.2</ele>
        <time>2023-12-06T15:07:50Z</time>
      </trkpt>
      <trkpt lat="49.21058" lon="0.07324">
        <ele>124.4</ele>
        <time>2023-12-06T15:07:51Z</time>
      </trkpt>
      <trkpt lat="49.2106" lon="0.0732">
        <ele>124.6</ele>
        <time>2023-12-06T15:07:52Z</time>
      </trkpt>
      <trkpt lat="49.21061" lon="0.07317">
        <ele>124.8</ele>
        <time>2023-12-06T15:07:53Z</time>
      </trkpt>
      <trkpt lat="49.21063" lon="0.07313">
        <ele>125</ele>
        <time>2023-12-06T15:07:54Z</time>
      </trkpt>
      <trkpt lat="49.21065" lon="0.07309">
        <ele>125.2</ele>
        <time>2023-12-06T15:07:55Z</time>
      </trkpt>
      <trkpt lat="49.21067" lon="0.07306">
        <ele>125.4</ele>
        <time>2023-12-06T15:07:56Z</time>
      </trkpt>
      <trkpt lat="49.21069" lon="0.07302">
        <ele>125.8</ele>
        <time>2023-12-06T15:07:57Z</time>
      </trkpt>
      <trkpt lat="49.21071" lon="0.07299">
        <ele>126</ele>
        <time>2023-12-06T15:07:58Z</time>
      </trkpt>
      <trkpt lat="49.21073" lon="0.07295">
        <ele>126</ele>
        <time>2023-12-06T15:07:59Z</time>
      </trkpt>
      <trkpt lat="49.21075" lon="0.07292">
        <ele>126.4</ele>
        <time>2023-12-06T15:08:00Z</time>
      </trkpt>
      <trkpt lat="49.21077" lon="0.07289">
        <ele>126.4</ele>
        <time>2023-12-06T15:08:01Z</time>
      </trkpt>
      <trkpt lat="49.21079" lon="0.07285">
        <ele>126.8</ele>
        <time>2023-12-06T15:08:02Z</time>
      </trkpt>
      <trkpt lat="49.21081" lon="0.07282">
        <ele>127</ele>
        <time>2023-12-06T15:08:03Z</time>
      </trkpt>
      <trkpt lat="49.21083" lon="0.07279">
        <ele>127.2</ele>
        <time>2023-12-06T15:08:04Z</time>
      </trkpt>
      <trkpt lat="49.21085" lon="0.07276">
        <ele>127.4</ele>
        <time>2023-12-06T15:08:05Z</time>
      </trkpt>
      <trkpt lat="49.21088" lon="0.07274">
        <ele>127.6</ele>
        <time>2023-12-06T15:08:06Z</time>
      </trkpt>
      <trkpt lat="49.2109" lon="0.07271">
        <ele>127.6</ele>
        <time>2023-12-06T15:08:07Z</time>
      </trkpt>
      <trkpt lat="49.21092" lon="0.07268">
        <ele>128</ele>
        <time>2023-12-06T15:08:08Z</time>
      </trkpt>
      <trkpt lat="49.21094" lon="0.07265">
        <ele>128</ele>
        <time>2023-12-06T15:08:09Z</time>
      </trkpt>
      <trkpt lat="49.21096" lon="0.07263">
        <ele>128.4</ele>
        <time>2023-12-06T15:08:10Z</time>
      </trkpt>
      <trkpt lat="49.21099" lon="0.0726">
        <ele>128.6</ele>
        <time>2023-12-06T15:08:11Z</time>
      </trkpt>
      <trkpt lat="49.21101" lon="0.07257">
        <ele>128.8</ele>
        <time>2023-12-06T15:08:12Z</time>
      </trkpt>
      <trkpt lat="49.21104" lon="0.07254">
        <ele>128.8</ele>
        <time>2023-12-06T15:08:13Z</time>
      </trkpt>
      <trkpt lat="49.21107" lon="0.07252">
        <ele>129</ele>
        <time>2023-12-06T15:08:14Z</time>
      </trkpt>
      <trkpt lat="49.2111" lon="0.07248">
        <ele>129.4</ele>
        <time>2023-12-06T15:08:15Z</time>
      </trkpt>
      <trkpt lat="49.21113" lon="0.07245">
        <ele>129.6</ele>
        <time>2023-12-06T15:08:16Z</time>
      </trkpt>
      <trkpt lat="49.21116" lon="0.07242">
        <ele>129.6</ele>
        <time>2023-12-06T15:08:17Z</time>
      </trkpt>
      <trkpt lat="49.21119" lon="0.07238">
        <ele>129.8</ele>
        <time>2023-12-06T15:08:18Z</time>
      </trkpt>
      <trkpt lat="49.21123" lon="0.07235">
        <ele>130</ele>
        <time>2023-12-06T15:08:19Z</time>
      </trkpt>
      <trkpt lat="49.21126" lon="0.07232">
        <ele>130.4</ele>
        <time>2023-12-06T15:08:20Z</time>
      </trkpt>
      <trkpt lat="49.2113" lon="0.07229">
        <ele>130.6</ele>
        <time>2023-12-06T15:08:21Z</time>
      </trkpt>
      <trkpt lat="49.21134" lon="0.07226">
        <ele>130.8</ele>
        <time>2023-12-06T15:08:22Z</time>
      </trkpt>
      <trkpt lat="49.21139" lon="0.07223">
        <ele>131</ele>
        <time>2023-12-06T15:08:23Z</time>
      </trkpt>
      <trkpt lat="49.21143" lon="0.07221">
        <ele>131.2</ele>
        <time>2023-12-06T15:08:24Z</time>
      </trkpt>
      <trkpt lat="49.21147" lon="0.07218">
        <ele>131.4</ele>
        <time>2023-12-06T15:08:25Z</time>
      </trkpt>
      <trkpt lat="49.2115" lon="0.07216">
        <ele>131.6</ele>
        <time>2023-12-06T15:08:26Z</time>
      </trkpt>
      <trkpt lat="49.21154" lon="0.07214">
        <ele>131.8</ele>
        <time>2023-12-06T15:08:27Z</time>
      </trkpt>
      <trkpt lat="49.21158" lon="0.07213">
        <ele>132.2</ele>
        <time>2023-12-06T15:08:28Z</time>
      </trkpt>
      <trkpt lat="49.21162" lon="0.07211">
        <ele>132.4</ele>
        <time>2023-12-06T15:08:29Z</time>
      </trkpt>
      <trkpt lat="49.21166" lon="0.0721">
        <ele>132.6</ele>
        <time>2023-12-06T15:08:30Z</time>
      </trkpt>
      <trkpt lat="49.2117" lon="0.07208">
        <ele>132.8</ele>
        <time>2023-12-06T15:08:31Z</time>
      </trkpt>
      <trkpt lat="49.21174" lon="0.07206">
        <ele>133</ele>
        <time>2023-12-06T15:08:32Z</time>
      </trkpt>
      <trkpt lat="49.21177" lon="0.07205">
        <ele>133.4</ele>
        <time>2023-12-06T15:08:33Z</time>
      </trkpt>
      <trkpt lat="49.21181" lon="0.07203">
        <ele>133.6</ele>
        <time>2023-12-06T15:08:34Z</time>
      </trkpt>
      <trkpt lat="49.21184" lon="0.07202">
        <ele>133.8</ele>
        <time>2023-12-06T15:08:35Z</time>
      </trkpt>
      <trkpt lat="49.21188" lon="0.07201">
        <ele>134</ele>
        <time>2023-12-06T15:08:36Z</time>
      </trkpt>
      <trkpt lat="49.21192" lon="0.07199">
        <ele>134.2</ele>
        <time>2023-12-06T15:08:37Z</time>
      </trkpt>
      <trkpt lat="49.21195" lon="0.07198">
        <ele>134.4</ele>
        <time>2023-12-06T15:08:38Z</time>
      </trkpt>
      <trkpt lat="49.21198" lon="0.07196">
        <ele>134.4</ele>
        <time>2023-12-06T15:08:39Z</time>
      </trkpt>
      <trkpt lat="49.21201" lon="0.07195">
        <ele>134.8</ele>
        <time>2023-12-06T15:08:40Z</time>
      </trkpt>
      <trkpt lat="49.21205" lon="0.07193">
        <ele>135</ele>
        <time>2023-12-06T15:08:41Z</time>
      </trkpt>
      <trkpt lat="49.21208" lon="0.07192">
        <ele>135.2</ele>
        <time>2023-12-06T15:08:42Z</time>
      </trkpt>
      <trkpt lat="49.21211" lon="0.07191">
        <ele>135.4</ele>
        <time>2023-12-06T15:08:43Z</time>
      </trkpt>
      <trkpt lat="49.21214" lon="0.07189">
        <ele>135.6</ele>
        <time>2023-12-06T15:08:44Z</time>
      </trkpt>
      <trkpt lat="49.21217" lon="0.07188">
        <ele>136</ele>
        <time>2023-12-06T15:08:45Z</time>
      </trkpt>
      <trkpt lat="49.2122" lon="0.07186">
        <ele>136.2</ele>
        <time>2023-12-06T15:08:46Z</time>
      </trkpt>
      <trkpt lat="49.21224" lon="0.07185">
        <ele>136.4</ele>
        <time>2023-12-06T15:08:47Z</time>
      </trkpt>
      <trkpt lat="49.21227" lon="0.07184">
        <ele>136.6</ele>
        <time>2023-12-06T15:08:48Z</time>
      </trkpt>
      <trkpt lat="49.21231" lon="0.07183">
        <ele>136.8</ele>
        <time>2023-12-06T15:08:49Z</time>
      </trkpt>
      <trkpt lat="49.21234" lon="0.07181">
        <ele>136.8</ele>
        <time>2023-12-06T15:08:50Z</time>
      </trkpt>
      <trkpt lat="49.21237" lon="0.0718">
        <ele>137</ele>
        <time>2023-12-06T15:08:51Z</time>
      </trkpt>
      <trkpt lat="49.2124" lon="0.07178">
        <ele>137.2</ele>
        <time>2023-12-06T15:08:52Z</time>
      </trkpt>
      <trkpt lat="49.21244" lon="0.07177">
        <ele>137.2</ele>
        <time>2023-12-06T15:08:53Z</time>
      </trkpt>
      <trkpt lat="49.21247" lon="0.07175">
        <ele>137.4</ele>
        <time>2023-12-06T15:08:54Z</time>
      </trkpt>
      <trkpt lat="49.21251" lon="0.07174">
        <ele>137.6</ele>
        <time>2023-12-06T15:08:55Z</time>
      </trkpt>
      <trkpt lat="49.21254" lon="0.07172">
        <ele>137.8</ele>
        <time>2023-12-06T15:08:56Z</time>
      </trkpt>
      <trkpt lat="49.21258" lon="0.07171">
        <ele>138</ele>
        <time>2023-12-06T15:08:57Z</time>
      </trkpt>
      <trkpt lat="49.21261" lon="0.07169">
        <ele>138.2</ele>
        <time>2023-12-06T15:08:58Z</time>
      </trkpt>
      <trkpt lat="49.21264" lon="0.07167">
        <ele>138.4</ele>
        <time>2023-12-06T15:08:59Z</time>
      </trkpt>
      <trkpt lat="49.21268" lon="0.07165">
        <ele>138.6</ele>
        <time>2023-12-06T15:09:00Z</time>
      </trkpt>
      <trkpt lat="49.21271" lon="0.07163">
        <ele>138.6</ele>
        <time>2023-12-06T15:09:01Z</time>
      </trkpt>
      <trkpt lat="49.21275" lon="0.07161">
        <ele>138.8</ele>
        <time>2023-12-06T15:09:02Z</time>
      </trkpt>
      <trkpt lat="49.21278" lon="0.07159">
        <ele>138.8</ele>
        <time>2023-12-06T15:09:03Z</time>
      </trkpt>
      <trkpt lat="49.21282" lon="0.07158">
        <ele>139</ele>
        <time>2023-12-06T15:09:04Z</time>
      </trkpt>
      <trkpt lat="49.21286" lon="0.07156">
        <ele>139.2</ele>
        <time>2023-12-06T15:09:05Z</time>
      </trkpt>
      <trkpt lat="49.2129" lon="0.07154">
        <ele>139.4</ele>
        <time>2023-12-06T15:09:06Z</time>
      </trkpt>
      <trkpt lat="49.21294" lon="0.07152">
        <ele>139.6</ele>
        <time>2023-12-06T15:09:07Z</time>
      </trkpt>
      <trkpt lat="49.21298" lon="0.0715">
        <ele>140</ele>
        <time>2023-12-06T15:09:08Z</time>
      </trkpt>
      <trkpt lat="49.21301" lon="0.07149">
        <ele>140.2</ele>
        <time>2023-12-06T15:09:09Z</time>
      </trkpt>
      <trkpt lat="49.21305" lon="0.07147">
        <ele>140.2</ele>
        <time>2023-12-06T15:09:10Z</time>
      </trkpt>
      <trkpt lat="49.21309" lon="0.07145">
        <ele>140.2</ele>
        <time>2023-12-06T15:09:11Z</time>
      </trkpt>
      <trkpt lat="49.21313" lon="0.07143">
        <ele>140.4</ele>
        <time>2023-12-06T15:09:12Z</time>
      </trkpt>
      <trkpt lat="49.21317" lon="0.07141">
        <ele>140.6</ele>
        <time>2023-12-06T15:09:13Z</time>
      </trkpt>
      <trkpt lat="49.21321" lon="0.0714">
        <ele>140.8</ele>
        <time>2023-12-06T15:09:14Z</time>
      </trkpt>
      <trkpt lat="49.21326" lon="0.07138">
        <ele>141</ele>
        <time>2023-12-06T15:09:15Z</time>
      </trkpt>
      <trkpt lat="49.2133" lon="0.07136">
        <ele>141</ele>
        <time>2023-12-06T15:09:16Z</time>
      </trkpt>
      <trkpt lat="49.21334" lon="0.07134">
        <ele>141.2</ele>
        <time>2023-12-06T15:09:17Z</time>
      </trkpt>
      <trkpt lat="49.21339" lon="0.07132">
        <ele>141.2</ele>
        <time>2023-12-06T15:09:18Z</time>
      </trkpt>
      <trkpt lat="49.21343" lon="0.0713">
        <ele>141.2</ele>
        <time>2023-12-06T15:09:19Z</time>
      </trkpt>
      <trkpt lat="49.21348" lon="0.07128">
        <ele>141.4</ele>
        <time>2023-12-06T15:09:20Z</time>
      </trkpt>
      <trkpt lat="49.21352" lon="0.07126">
        <ele>141.4</ele>
        <time>2023-12-06T15:09:21Z</time>
      </trkpt>
      <trkpt lat="49.21357" lon="0.07124">
        <ele>141.4</ele>
        <time>2023-12-06T15:09:22Z</time>
      </trkpt>
      <trkpt lat="49.21361" lon="0.07123">
        <ele>141.6</ele>
        <time>2023-12-06T15:09:23Z</time>
      </trkpt>
      <trkpt lat="49.21366" lon="0.07121">
        <ele>141.6</ele>
        <time>2023-12-06T15:09:24Z</time>
      </trkpt>
      <trkpt lat="49.21371" lon="0.07119">
        <ele>141.8</ele>
        <time>2023-12-06T15:09:25Z</time>
      </trkpt>
      <trkpt lat="49.21375" lon="0.07117">
        <ele>142</ele>
        <time>2023-12-06T15:09:26Z</time>
      </trkpt>
      <trkpt lat="49.2138" lon="0.07116">
        <ele>142</ele>
        <time>2023-12-06T15:09:27Z</time>
      </trkpt>
      <trkpt lat="49.21385" lon="0.07114">
        <ele>142.2</ele>
        <time>2023-12-06T15:09:28Z</time>
      </trkpt>
      <trkpt lat="49.2139" lon="0.07112">
        <ele>142.4</ele>
        <time>2023-12-06T15:09:29Z</time>
      </trkpt>
      <trkpt lat="49.21394" lon="0.0711">
        <ele>142.4</ele>
        <time>2023-12-06T15:09:30Z</time>
      </trkpt>
      <trkpt lat="49.214" lon="0.07108">
        <ele>142.6</ele>
        <time>2023-12-06T15:09:31Z</time>
      </trkpt>
      <trkpt lat="49.21405" lon="0.07106">
        <ele>142.8</ele>
        <time>2023-12-06T15:09:32Z</time>
      </trkpt>
      <trkpt lat="49.2141" lon="0.07104">
        <ele>142.8</ele>
        <time>2023-12-06T15:09:33Z</time>
      </trkpt>
      <trkpt lat="49.21416" lon="0.07102">
        <ele>143</ele>
        <time>2023-12-06T15:09:34Z</time>
      </trkpt>
      <trkpt lat="49.21421" lon="0.071">
        <ele>143</ele>
        <time>2023-12-06T15:09:35Z</time>
      </trkpt>
      <trkpt lat="49.21427" lon="0.07098">
        <ele>143</ele>
        <time>2023-12-06T15:09:36Z</time>
      </trkpt>
      <trkpt lat="49.21432" lon="0.07096">
        <ele>143</ele>
        <time>2023-12-06T15:09:37Z</time>
      </trkpt>
      <trkpt lat="49.21438" lon="0.07094">
        <ele>143.2</ele>
        <time>2023-12-06T15:09:38Z</time>
      </trkpt>
      <trkpt lat="49.21443" lon="0.07092">
        <ele>143.2</ele>
        <time>2023-12-06T15:09:39Z</time>
      </trkpt>
      <trkpt lat="49.21448" lon="0.0709">
        <ele>143.4</ele>
        <time>2023-12-06T15:09:40Z</time>
      </trkpt>
      <trkpt lat="49.21453" lon="0.07088">
        <ele>143.4</ele>
        <time>2023-12-06T15:09:41Z</time>
      </trkpt>
      <trkpt lat="49.21458" lon="0.07086">
        <ele>143.4</ele>
        <time>2023-12-06T15:09:42Z</time>
      </trkpt>
      <trkpt lat="49.21464" lon="0.07084">
        <ele>143.6</ele>
        <time>2023-12-06T15:09:43Z</time>
      </trkpt>
      <trkpt lat="49.21469" lon="0.07082">
        <ele>143.8</ele>
        <time>2023-12-06T15:09:44Z</time>
      </trkpt>
      <trkpt lat="49.21475" lon="0.0708">
        <ele>143.8</ele>
        <time>2023-12-06T15:09:45Z</time>
      </trkpt>
      <trkpt lat="49.2148" lon="0.07078">
        <ele>143.8</ele>
        <time>2023-12-06T15:09:46Z</time>
      </trkpt>
      <trkpt lat="49.21486" lon="0.07076">
        <ele>144</ele>
        <time>2023-12-06T15:09:47Z</time>
      </trkpt>
      <trkpt lat="49.21491" lon="0.07074">
        <ele>144.2</ele>
        <time>2023-12-06T15:09:48Z</time>
      </trkpt>
      <trkpt lat="49.21497" lon="0.07072">
        <ele>144.4</ele>
        <time>2023-12-06T15:09:49Z</time>
      </trkpt>
      <trkpt lat="49.21503" lon="0.07069">
        <ele>144.6</ele>
        <time>2023-12-06T15:09:50Z</time>
      </trkpt>
      <trkpt lat="49.21509" lon="0.07067">
        <ele>144.8</ele>
        <time>2023-12-06T15:09:51Z</time>
      </trkpt>
      <trkpt lat="49.21515" lon="0.07064">
        <ele>144.8</ele>
        <time>2023-12-06T15:09:52Z</time>
      </trkpt>
      <trkpt lat="49.21521" lon="0.07062">
        <ele>145</ele>
        <time>2023-12-06T15:09:53Z</time>
      </trkpt>
      <trkpt lat="49.21528" lon="0.0706">
        <ele>145</ele>
        <time>2023-12-06T15:09:54Z</time>
      </trkpt>
      <trkpt lat="49.21534" lon="0.07058">
        <ele>145</ele>
        <time>2023-12-06T15:09:55Z</time>
      </trkpt>
      <trkpt lat="49.21541" lon="0.07057">
        <ele>145</ele>
        <time>2023-12-06T15:09:56Z</time>
      </trkpt>
      <trkpt lat="49.21547" lon="0.07056">
        <ele>145</ele>
        <time>2023-12-06T15:09:57Z</time>
      </trkpt>
      <trkpt lat="49.21553" lon="0.07054">
        <ele>145</ele>
        <time>2023-12-06T15:09:58Z</time>
      </trkpt>
      <trkpt lat="49.21559" lon="0.07053">
        <ele>145.2</ele>
        <time>2023-12-06T15:09:59Z</time>
      </trkpt>
      <trkpt lat="49.21566" lon="0.07053">
        <ele>145.2</ele>
        <time>2023-12-06T15:10:00Z</time>
      </trkpt>
      <trkpt lat="49.21572" lon="0.07052">
        <ele>145.2</ele>
        <time>2023-12-06T15:10:01Z</time>
      </trkpt>
      <trkpt lat="49.21578" lon="0.07052">
        <ele>145.2</ele>
        <time>2023-12-06T15:10:02Z</time>
      </trkpt>
      <trkpt lat="49.21584" lon="0.07051">
        <ele>145.2</ele>
        <time>2023-12-06T15:10:03Z</time>
      </trkpt>
      <trkpt lat="49.2159" lon="0.07051">
        <ele>145.2</ele>
        <time>2023-12-06T15:10:04Z</time>
      </trkpt>
      <trkpt lat="49.21596" lon="0.0705">
        <ele>145.4</ele>
        <time>2023-12-06T15:10:05Z</time>
      </trkpt>
      <trkpt lat="49.21601" lon="0.0705">
        <ele>145.4</ele>
        <time>2023-12-06T15:10:06Z</time>
      </trkpt>
      <trkpt lat="49.21607" lon="0.0705">
        <ele>145.4</ele>
        <time>2023-12-06T15:10:07Z</time>
      </trkpt>
      <trkpt lat="49.21612" lon="0.0705">
        <ele>145.4</ele>
        <time>2023-12-06T15:10:08Z</time>
      </trkpt>
      <trkpt lat="49.21618" lon="0.0705">
        <ele>145.6</ele>
        <time>2023-12-06T15:10:09Z</time>
      </trkpt>
      <trkpt lat="49.21623" lon="0.0705">
        <ele>145.6</ele>
        <time>2023-12-06T15:10:10Z</time>
      </trkpt>
      <trkpt lat="49.21628" lon="0.07049">
        <ele>145.8</ele>
        <time>2023-12-06T15:10:11Z</time>
      </trkpt>
      <trkpt lat="49.21633" lon="0.07049">
        <ele>145.8</ele>
        <time>2023-12-06T15:10:12Z</time>
      </trkpt>
      <trkpt lat="49.21638" lon="0.07048">
        <ele>145.8</ele>
        <time>2023-12-06T15:10:13Z</time>
      </trkpt>
      <trkpt lat="49.21642" lon="0.07048">
        <ele>146</ele>
        <time>2023-12-06T15:10:14Z</time>
      </trkpt>
      <trkpt lat="49.21647" lon="0.07048">
        <ele>146</ele>
        <time>2023-12-06T15:10:15Z</time>
      </trkpt>
      <trkpt lat="49.21652" lon="0.07047">
        <ele>146</ele>
        <time>2023-12-06T15:10:16Z</time>
      </trkpt>
      <trkpt lat="49.21656" lon="0.07047">
        <ele>146.2</ele>
        <time>2023-12-06T15:10:17Z</time>
      </trkpt>
      <trkpt lat="49.21661" lon="0.07046">
        <ele>146.2</ele>
        <time>2023-12-06T15:10:18Z</time>
      </trkpt>
      <trkpt lat="49.21666" lon="0.07045">
        <ele>146.2</ele>
        <time>2023-12-06T15:10:19Z</time>
      </trkpt>
      <trkpt lat="49.2167" lon="0.07045">
        <ele>146.4</ele>
        <time>2023-12-06T15:10:20Z</time>
      </trkpt>
      <trkpt lat="49.21675" lon="0.07045">
        <ele>146.6</ele>
        <time>2023-12-06T15:10:21Z</time>
      </trkpt>
      <trkpt lat="49.21679" lon="0.07045">
        <ele>146.6</ele>
        <time>2023-12-06T15:10:22Z</time>
      </trkpt>
      <trkpt lat="49.21684" lon="0.07045">
        <ele>146.8</ele>
        <time>2023-12-06T15:10:23Z</time>
      </trkpt>
      <trkpt lat="49.21688" lon="0.07045">
        <ele>146.8</ele>
        <time>2023-12-06T15:10:24Z</time>
      </trkpt>
      <trkpt lat="49.21693" lon="0.07044">
        <ele>146.8</ele>
        <time>2023-12-06T15:10:25Z</time>
      </trkpt>
      <trkpt lat="49.21698" lon="0.07044">
        <ele>146.8</ele>
        <time>2023-12-06T15:10:26Z</time>
      </trkpt>
      <trkpt lat="49.21702" lon="0.07044">
        <ele>147</ele>
        <time>2023-12-06T15:10:27Z</time>
      </trkpt>
      <trkpt lat="49.21707" lon="0.07044">
        <ele>147</ele>
        <time>2023-12-06T15:10:28Z</time>
      </trkpt>
      <trkpt lat="49.21711" lon="0.07044">
        <ele>147</ele>
        <time>2023-12-06T15:10:29Z</time>
      </trkpt>
      <trkpt lat="49.21716" lon="0.07044">
        <ele>147.2</ele>
        <time>2023-12-06T15:10:30Z</time>
      </trkpt>
      <trkpt lat="49.21721" lon="0.07044">
        <ele>147.2</ele>
        <time>2023-12-06T15:10:31Z</time>
      </trkpt>
      <trkpt lat="49.21726" lon="0.07044">
        <ele>147.4</ele>
        <time>2023-12-06T15:10:32Z</time>
      </trkpt>
      <trkpt lat="49.2173" lon="0.07044">
        <ele>147.4</ele>
        <time>2023-12-06T15:10:33Z</time>
      </trkpt>
      <trkpt lat="49.21735" lon="0.07044">
        <ele>147.6</ele>
        <time>2023-12-06T15:10:34Z</time>
      </trkpt>
      <trkpt lat="49.2174" lon="0.07045">
        <ele>147.6</ele>
        <time>2023-12-06T15:10:35Z</time>
      </trkpt>
      <trkpt lat="49.21744" lon="0.07045">
        <ele>147.6</ele>
        <time>2023-12-06T15:10:36Z</time>
      </trkpt>
      <trkpt lat="49.21749" lon="0.07046">
        <ele>147.8</ele>
        <time>2023-12-06T15:10:37Z</time>
      </trkpt>
      <trkpt lat="49.21753" lon="0.07046">
        <ele>147.8</ele>
        <time>2023-12-06T15:10:38Z</time>
      </trkpt>
      <trkpt lat="49.21758" lon="0.07047">
        <ele>148</ele>
        <time>2023-12-06T15:10:39Z</time>
      </trkpt>
      <trkpt lat="49.21762" lon="0.07048">
        <ele>148</ele>
        <time>2023-12-06T15:10:40Z</time>
      </trkpt>
      <trkpt lat="49.21767" lon="0.07048">
        <ele>148</ele>
        <time>2023-12-06T15:10:41Z</time>
      </trkpt>
      <trkpt lat="49.21771" lon="0.07049">
        <ele>148.4</ele>
        <time>2023-12-06T15:10:42Z</time>
      </trkpt>
      <trkpt lat="49.21776" lon="0.0705">
        <ele>148.2</ele>
        <time>2023-12-06T15:10:43Z</time>
      </trkpt>
      <trkpt lat="49.2178" lon="0.07051">
        <ele>148.4</ele>
        <time>2023-12-06T15:10:44Z</time>
      </trkpt>
      <trkpt lat="49.21785" lon="0.07051">
        <ele>148.6</ele>
        <time>2023-12-06T15:10:45Z</time>
      </trkpt>
      <trkpt lat="49.21789" lon="0.07052">
        <ele>148.8</ele>
        <time>2023-12-06T15:10:46Z</time>
      </trkpt>
      <trkpt lat="49.21793" lon="0.07053">
        <ele>149</ele>
        <time>2023-12-06T15:10:47Z</time>
      </trkpt>
      <trkpt lat="49.21798" lon="0.07054">
        <ele>149</ele>
        <time>2023-12-06T15:10:48Z</time>
      </trkpt>
      <trkpt lat="49.21802" lon="0.07055">
        <ele>149.2</ele>
        <time>2023-12-06T15:10:49Z</time>
      </trkpt>
      <trkpt lat="49.21807" lon="0.07056">
        <ele>149.2</ele>
        <time>2023-12-06T15:10:50Z</time>
      </trkpt>
      <trkpt lat="49.21811" lon="0.07057">
        <ele>149.4</ele>
        <time>2023-12-06T15:10:51Z</time>
      </trkpt>
      <trkpt lat="49.21815" lon="0.07058">
        <ele>149.6</ele>
        <time>2023-12-06T15:10:52Z</time>
      </trkpt>
      <trkpt lat="49.21819" lon="0.07059">
        <ele>149.8</ele>
        <time>2023-12-06T15:10:53Z</time>
      </trkpt>
      <trkpt lat="49.21824" lon="0.0706">
        <ele>149.8</ele>
        <time>2023-12-06T15:10:54Z</time>
      </trkpt>
      <trkpt lat="49.21828" lon="0.07061">
        <ele>150</ele>
        <time>2023-12-06T15:10:55Z</time>
      </trkpt>
      <trkpt lat="49.21832" lon="0.07062">
        <ele>150.2</ele>
        <time>2023-12-06T15:10:56Z</time>
      </trkpt>
      <trkpt lat="49.21837" lon="0.07063">
        <ele>150.4</ele>
        <time>2023-12-06T15:10:57Z</time>
      </trkpt>
      <trkpt lat="49.21841" lon="0.07064">
        <ele>150.4</ele>
        <time>2023-12-06T15:10:58Z</time>
      </trkpt>
      <trkpt lat="49.21845" lon="0.07065">
        <ele>150.6</ele>
        <time>2023-12-06T15:10:59Z</time>
      </trkpt>
      <trkpt lat="49.2185" lon="0.07065">
        <ele>150.8</ele>
        <time>2023-12-06T15:11:00Z</time>
      </trkpt>
      <trkpt lat="49.21854" lon="0.07066">
        <ele>151</ele>
        <time>2023-12-06T15:11:01Z</time>
      </trkpt>
      <trkpt lat="49.21859" lon="0.07066">
        <ele>151</ele>
        <time>2023-12-06T15:11:02Z</time>
      </trkpt>
      <trkpt lat="49.21863" lon="0.07067">
        <ele>151.2</ele>
        <time>2023-12-06T15:11:03Z</time>
      </trkpt>
      <trkpt lat="49.21867" lon="0.07067">
        <ele>151.4</ele>
        <time>2023-12-06T15:11:04Z</time>
      </trkpt>
      <trkpt lat="49.21871" lon="0.07067">
        <ele>151.4</ele>
        <time>2023-12-06T15:11:05Z</time>
      </trkpt>
      <trkpt lat="49.21875" lon="0.07067">
        <ele>151.6</ele>
        <time>2023-12-06T15:11:06Z</time>
      </trkpt>
      <trkpt lat="49.2188" lon="0.07067">
        <ele>151.6</ele>
        <time>2023-12-06T15:11:07Z</time>
      </trkpt>
      <trkpt lat="49.21884" lon="0.07065">
        <ele>151.8</ele>
        <time>2023-12-06T15:11:08Z</time>
      </trkpt>
      <trkpt lat="49.21888" lon="0.07064">
        <ele>151.8</ele>
        <time>2023-12-06T15:11:09Z</time>
      </trkpt>
      <trkpt lat="49.21892" lon="0.07062">
        <ele>152</ele>
        <time>2023-12-06T15:11:10Z</time>
      </trkpt>
      <trkpt lat="49.21896" lon="0.0706">
        <ele>152</ele>
        <time>2023-12-06T15:11:11Z</time>
      </trkpt>
      <trkpt lat="49.219" lon="0.07057">
        <ele>152.2</ele>
        <time>2023-12-06T15:11:12Z</time>
      </trkpt>
      <trkpt lat="49.21904" lon="0.07054">
        <ele>152.2</ele>
        <time>2023-12-06T15:11:13Z</time>
      </trkpt>
      <trkpt lat="49.21908" lon="0.07052">
        <ele>152.4</ele>
        <time>2023-12-06T15:11:14Z</time>
      </trkpt>
      <trkpt lat="49.21911" lon="0.07049">
        <ele>152.8</ele>
        <time>2023-12-06T15:11:15Z</time>
      </trkpt>
      <trkpt lat="49.21915" lon="0.07045">
        <ele>153</ele>
        <time>2023-12-06T15:11:16Z</time>
      </trkpt>
      <trkpt lat="49.21919" lon="0.07042">
        <ele>153.2</ele>
        <time>2023-12-06T15:11:17Z</time>
      </trkpt>
      <trkpt lat="49.21923" lon="0.07038">
        <ele>153.2</ele>
        <time>2023-12-06T15:11:18Z</time>
      </trkpt>
      <trkpt lat="49.21926" lon="0.07034">
        <ele>153.4</ele>
        <time>2023-12-06T15:11:19Z</time>
      </trkpt>
      <trkpt lat="49.2193" lon="0.07031">
        <ele>153.6</ele>
        <time>2023-12-06T15:11:20Z</time>
      </trkpt>
      <trkpt lat="49.21934" lon="0.07028">
        <ele>153.6</ele>
        <time>2023-12-06T15:11:21Z</time>
      </trkpt>
      <trkpt lat="49.21938" lon="0.07025">
        <ele>153.8</ele>
        <time>2023-12-06T15:11:22Z</time>
      </trkpt>
      <trkpt lat="49.21942" lon="0.07021">
        <ele>153.8</ele>
        <time>2023-12-06T15:11:23Z</time>
      </trkpt>
      <trkpt lat="49.21946" lon="0.07017">
        <ele>153.8</ele>
        <time>2023-12-06T15:11:24Z</time>
      </trkpt>
      <trkpt lat="49.21949" lon="0.07013">
        <ele>154</ele>
        <time>2023-12-06T15:11:25Z</time>
      </trkpt>
      <trkpt lat="49.21953" lon="0.07009">
        <ele>154.2</ele>
        <time>2023-12-06T15:11:26Z</time>
      </trkpt>
      <trkpt lat="49.21957" lon="0.07005">
        <ele>154.2</ele>
        <time>2023-12-06T15:11:27Z</time>
      </trkpt>
      <trkpt lat="49.2196" lon="0.07001">
        <ele>154.2</ele>
        <time>2023-12-06T15:11:28Z</time>
      </trkpt>
      <trkpt lat="49.21964" lon="0.06996">
        <ele>154.4</ele>
        <time>2023-12-06T15:11:29Z</time>
      </trkpt>
      <trkpt lat="49.21968" lon="0.06992">
        <ele>154.4</ele>
        <time>2023-12-06T15:11:30Z</time>
      </trkpt>
      <trkpt lat="49.21972" lon="0.06987">
        <ele>154.6</ele>
        <time>2023-12-06T15:11:31Z</time>
      </trkpt>
      <trkpt lat="49.21975" lon="0.06983">
        <ele>154.6</ele>
        <time>2023-12-06T15:11:32Z</time>
      </trkpt>
      <trkpt lat="49.21979" lon="0.06977">
        <ele>154.6</ele>
        <time>2023-12-06T15:11:33Z</time>
      </trkpt>
      <trkpt lat="49.21983" lon="0.06972">
        <ele>154.6</ele>
        <time>2023-12-06T15:11:34Z</time>
      </trkpt>
      <trkpt lat="49.21987" lon="0.06966">
        <ele>154.6</ele>
        <time>2023-12-06T15:11:35Z</time>
      </trkpt>
      <trkpt lat="49.2199" lon="0.0696">
        <ele>154.6</ele>
        <time>2023-12-06T15:11:36Z</time>
      </trkpt>
      <trkpt lat="49.21994" lon="0.06954">
        <ele>154.6</ele>
        <time>2023-12-06T15:11:37Z</time>
      </trkpt>
      <trkpt lat="49.21998" lon="0.06948">
        <ele>154.6</ele>
        <time>2023-12-06T15:11:38Z</time>
      </trkpt>
      <trkpt lat="49.22002" lon="0.06943">
        <ele>154.6</ele>
        <time>2023-12-06T15:11:39Z</time>
      </trkpt>
      <trkpt lat="49.22005" lon="0.06937">
        <ele>154.6</ele>
        <time>2023-12-06T15:11:40Z</time>
      </trkpt>
      <trkpt lat="49.22009" lon="0.0693">
        <ele>154.6</ele>
        <time>2023-12-06T15:11:41Z</time>
      </trkpt>
      <trkpt lat="49.22012" lon="0.06924">
        <ele>154.6</ele>
        <time>2023-12-06T15:11:42Z</time>
      </trkpt>
      <trkpt lat="49.22016" lon="0.06918">
        <ele>154.4</ele>
        <time>2023-12-06T15:11:43Z</time>
      </trkpt>
      <trkpt lat="49.22019" lon="0.06911">
        <ele>154.4</ele>
        <time>2023-12-06T15:11:44Z</time>
      </trkpt>
      <trkpt lat="49.22023" lon="0.06905">
        <ele>154.2</ele>
        <time>2023-12-06T15:11:45Z</time>
      </trkpt>
      <trkpt lat="49.22027" lon="0.06898">
        <ele>154.2</ele>
        <time>2023-12-06T15:11:46Z</time>
      </trkpt>
      <trkpt lat="49.22031" lon="0.06891">
        <ele>154.2</ele>
        <time>2023-12-06T15:11:47Z</time>
      </trkpt>
      <trkpt lat="49.22035" lon="0.06885">
        <ele>154.2</ele>
        <time>2023-12-06T15:11:48Z</time>
      </trkpt>
      <trkpt lat="49.22039" lon="0.06878">
        <ele>154</ele>
        <time>2023-12-06T15:11:49Z</time>
      </trkpt>
      <trkpt lat="49.22043" lon="0.06872">
        <ele>153.8</ele>
        <time>2023-12-06T15:11:50Z</time>
      </trkpt>
      <trkpt lat="49.22046" lon="0.06865">
        <ele>153.6</ele>
        <time>2023-12-06T15:11:51Z</time>
      </trkpt>
      <trkpt lat="49.2205" lon="0.06858">
        <ele>153.6</ele>
        <time>2023-12-06T15:11:52Z</time>
      </trkpt>
      <trkpt lat="49.22054" lon="0.06851">
        <ele>153.4</ele>
        <time>2023-12-06T15:11:53Z</time>
      </trkpt>
      <trkpt lat="49.22058" lon="0.06844">
        <ele>153.2</ele>
        <time>2023-12-06T15:11:54Z</time>
      </trkpt>
      <trkpt lat="49.22062" lon="0.06837">
        <ele>153.2</ele>
        <time>2023-12-06T15:11:55Z</time>
      </trkpt>
      <trkpt lat="49.22066" lon="0.0683">
        <ele>153</ele>
        <time>2023-12-06T15:11:56Z</time>
      </trkpt>
      <trkpt lat="49.2207" lon="0.06823">
        <ele>153</ele>
        <time>2023-12-06T15:11:57Z</time>
      </trkpt>
      <trkpt lat="49.22075" lon="0.06816">
        <ele>153</ele>
        <time>2023-12-06T15:11:58Z</time>
      </trkpt>
      <trkpt lat="49.22079" lon="0.06809">
        <ele>152.6</ele>
        <time>2023-12-06T15:11:59Z</time>
      </trkpt>
      <trkpt lat="49.22082" lon="0.06802">
        <ele>152.4</ele>
        <time>2023-12-06T15:12:00Z</time>
      </trkpt>
      <trkpt lat="49.22087" lon="0.06794">
        <ele>152.4</ele>
        <time>2023-12-06T15:12:01Z</time>
      </trkpt>
      <trkpt lat="49.22091" lon="0.06787">
        <ele>152.2</ele>
        <time>2023-12-06T15:12:02Z</time>
      </trkpt>
      <trkpt lat="49.22095" lon="0.0678">
        <ele>152</ele>
        <time>2023-12-06T15:12:03Z</time>
      </trkpt>
      <trkpt lat="49.22099" lon="0.06773">
        <ele>151.8</ele>
        <time>2023-12-06T15:12:04Z</time>
      </trkpt>
      <trkpt lat="49.22103" lon="0.06766">
        <ele>151.6</ele>
        <time>2023-12-06T15:12:05Z</time>
      </trkpt>
      <trkpt lat="49.22107" lon="0.06759">
        <ele>151.4</ele>
        <time>2023-12-06T15:12:06Z</time>
      </trkpt>
      <trkpt lat="49.22111" lon="0.06752">
        <ele>151.2</ele>
        <time>2023-12-06T15:12:07Z</time>
      </trkpt>
      <trkpt lat="49.22115" lon="0.06746">
        <ele>151.2</ele>
        <time>2023-12-06T15:12:08Z</time>
      </trkpt>
      <trkpt lat="49.22119" lon="0.0674">
        <ele>151.2</ele>
        <time>2023-12-06T15:12:09Z</time>
      </trkpt>
      <trkpt lat="49.22123" lon="0.06734">
        <ele>151</ele>
        <time>2023-12-06T15:12:10Z</time>
      </trkpt>
      <trkpt lat="49.22127" lon="0.06728">
        <ele>151</ele>
        <time>2023-12-06T15:12:11Z</time>
      </trkpt>
      <trkpt lat="49.2213" lon="0.06722">
        <ele>151</ele>
        <time>2023-12-06T15:12:12Z</time>
      </trkpt>
      <trkpt lat="49.22134" lon="0.06716">
        <ele>151</ele>
        <time>2023-12-06T15:12:13Z</time>
      </trkpt>
      <trkpt lat="49.22137" lon="0.0671">
        <ele>151</ele>
        <time>2023-12-06T15:12:14Z</time>
      </trkpt>
      <trkpt lat="49.22141" lon="0.06705">
        <ele>151</ele>
        <time>2023-12-06T15:12:15Z</time>
      </trkpt>
      <trkpt lat="49.22144" lon="0.06698">
        <ele>151</ele>
        <time>2023-12-06T15:12:16Z</time>
      </trkpt>
      <trkpt lat="49.22148" lon="0.06692">
        <ele>151.2</ele>
        <time>2023-12-06T15:12:17Z</time>
      </trkpt>
      <trkpt lat="49.22152" lon="0.06686">
        <ele>151.2</ele>
        <time>2023-12-06T15:12:18Z</time>
      </trkpt>
      <trkpt lat="49.22156" lon="0.06679">
        <ele>151.2</ele>
        <time>2023-12-06T15:12:19Z</time>
      </trkpt>
      <trkpt lat="49.22159" lon="0.06673">
        <ele>151.4</ele>
        <time>2023-12-06T15:12:20Z</time>
      </trkpt>
      <trkpt lat="49.22164" lon="0.06666">
        <ele>151.6</ele>
        <time>2023-12-06T15:12:21Z</time>
      </trkpt>
      <trkpt lat="49.22168" lon="0.06659">
        <ele>151.8</ele>
        <time>2023-12-06T15:12:22Z</time>
      </trkpt>
      <trkpt lat="49.22172" lon="0.06653">
        <ele>152.2</ele>
        <time>2023-12-06T15:12:23Z</time>
      </trkpt>
      <trkpt lat="49.22176" lon="0.06646">
        <ele>152.4</ele>
        <time>2023-12-06T15:12:24Z</time>
      </trkpt>
      <trkpt lat="49.2218" lon="0.06639">
        <ele>152.6</ele>
        <time>2023-12-06T15:12:25Z</time>
      </trkpt>
      <trkpt lat="49.22184" lon="0.06632">
        <ele>152.8</ele>
        <time>2023-12-06T15:12:26Z</time>
      </trkpt>
      <trkpt lat="49.22188" lon="0.06625">
        <ele>153</ele>
        <time>2023-12-06T15:12:27Z</time>
      </trkpt>
      <trkpt lat="49.22192" lon="0.06618">
        <ele>153.2</ele>
        <time>2023-12-06T15:12:28Z</time>
      </trkpt>
      <trkpt lat="49.22196" lon="0.06612">
        <ele>153.6</ele>
        <time>2023-12-06T15:12:29Z</time>
      </trkpt>
      <trkpt lat="49.222" lon="0.06606">
        <ele>153.8</ele>
        <time>2023-12-06T15:12:30Z</time>
      </trkpt>
      <trkpt lat="49.22204" lon="0.06599">
        <ele>154.2</ele>
        <time>2023-12-06T15:12:31Z</time>
      </trkpt>
      <trkpt lat="49.22209" lon="0.06593">
        <ele>154.4</ele>
        <time>2023-12-06T15:12:32Z</time>
      </trkpt>
      <trkpt lat="49.22213" lon="0.06588">
        <ele>154.8</ele>
        <time>2023-12-06T15:12:33Z</time>
      </trkpt>
      <trkpt lat="49.22218" lon="0.06582">
        <ele>154.8</ele>
        <time>2023-12-06T15:12:34Z</time>
      </trkpt>
      <trkpt lat="49.22222" lon="0.06576">
        <ele>155.2</ele>
        <time>2023-12-06T15:12:35Z</time>
      </trkpt>
      <trkpt lat="49.22227" lon="0.0657">
        <ele>155.4</ele>
        <time>2023-12-06T15:12:36Z</time>
      </trkpt>
      <trkpt lat="49.22231" lon="0.06564">
        <ele>155.6</ele>
        <time>2023-12-06T15:12:37Z</time>
      </trkpt>
      <trkpt lat="49.22236" lon="0.06559">
        <ele>155.8</ele>
        <time>2023-12-06T15:12:38Z</time>
      </trkpt>
      <trkpt lat="49.22241" lon="0.06555">
        <ele>156</ele>
        <time>2023-12-06T15:12:39Z</time>
      </trkpt>
      <trkpt lat="49.22245" lon="0.0655">
        <ele>156.2</ele>
        <time>2023-12-06T15:12:40Z</time>
      </trkpt>
      <trkpt lat="49.2225" lon="0.06546">
        <ele>156.4</ele>
        <time>2023-12-06T15:12:41Z</time>
      </trkpt>
      <trkpt lat="49.22254" lon="0.06543">
        <ele>156.6</ele>
        <time>2023-12-06T15:12:42Z</time>
      </trkpt>
      <trkpt lat="49.22259" lon="0.06539">
        <ele>156.8</ele>
        <time>2023-12-06T15:12:43Z</time>
      </trkpt>
      <trkpt lat="49.22264" lon="0.06536">
        <ele>157</ele>
        <time>2023-12-06T15:12:44Z</time>
      </trkpt>
      <trkpt lat="49.22269" lon="0.06532">
        <ele>157.2</ele>
        <time>2023-12-06T15:12:45Z</time>
      </trkpt>
      <trkpt lat="49.22274" lon="0.06529">
        <ele>157.6</ele>
        <time>2023-12-06T15:12:46Z</time>
      </trkpt>
      <trkpt lat="49.22279" lon="0.06526">
        <ele>157.8</ele>
        <time>2023-12-06T15:12:47Z</time>
      </trkpt>
      <trkpt lat="49.22284" lon="0.06524">
        <ele>158</ele>
        <time>2023-12-06T15:12:48Z</time>
      </trkpt>
      <trkpt lat="49.22289" lon="0.06521">
        <ele>158.2</ele>
        <time>2023-12-06T15:12:49Z</time>
      </trkpt>
      <trkpt lat="49.22294" lon="0.06518">
        <ele>158.4</ele>
        <time>2023-12-06T15:12:50Z</time>
      </trkpt>
      <trkpt lat="49.223" lon="0.06515">
        <ele>158.6</ele>
        <time>2023-12-06T15:12:51Z</time>
      </trkpt>
      <trkpt lat="49.22305" lon="0.06512">
        <ele>158.8</ele>
        <time>2023-12-06T15:12:52Z</time>
      </trkpt>
      <trkpt lat="49.22311" lon="0.0651">
        <ele>159</ele>
        <time>2023-12-06T15:12:53Z</time>
      </trkpt>
      <trkpt lat="49.22316" lon="0.06507">
        <ele>159</ele>
        <time>2023-12-06T15:12:54Z</time>
      </trkpt>
      <trkpt lat="49.22321" lon="0.06505">
        <ele>159.2</ele>
        <time>2023-12-06T15:12:55Z</time>
      </trkpt>
      <trkpt lat="49.22326" lon="0.06502">
        <ele>159.4</ele>
        <time>2023-12-06T15:12:56Z</time>
      </trkpt>
      <trkpt lat="49.22331" lon="0.065">
        <ele>159.6</ele>
        <time>2023-12-06T15:12:57Z</time>
      </trkpt>
      <trkpt lat="49.22336" lon="0.06497">
        <ele>159.8</ele>
        <time>2023-12-06T15:12:58Z</time>
      </trkpt>
      <trkpt lat="49.22341" lon="0.06495">
        <ele>160</ele>
        <time>2023-12-06T15:12:59Z</time>
      </trkpt>
      <trkpt lat="49.22346" lon="0.06492">
        <ele>160.4</ele>
        <time>2023-12-06T15:13:00Z</time>
      </trkpt>
      <trkpt lat="49.2235" lon="0.0649">
        <ele>160.4</ele>
        <time>2023-12-06T15:13:01Z</time>
      </trkpt>
      <trkpt lat="49.22355" lon="0.06489">
        <ele>160.6</ele>
        <time>2023-12-06T15:13:02Z</time>
      </trkpt>
      <trkpt lat="49.22359" lon="0.06487">
        <ele>160.6</ele>
        <time>2023-12-06T15:13:03Z</time>
      </trkpt>
      <trkpt lat="49.22363" lon="0.06485">
        <ele>160.8</ele>
        <time>2023-12-06T15:13:04Z</time>
      </trkpt>
      <trkpt lat="49.22367" lon="0.06483">
        <ele>160.8</ele>
        <time>2023-12-06T15:13:05Z</time>
      </trkpt>
      <trkpt lat="49.22371" lon="0.06482">
        <ele>160.8</ele>
        <time>2023-12-06T15:13:06Z</time>
      </trkpt>
      <trkpt lat="49.22375" lon="0.0648">
        <ele>161</ele>
        <time>2023-12-06T15:13:07Z</time>
      </trkpt>
      <trkpt lat="49.22379" lon="0.06479">
        <ele>161</ele>
        <time>2023-12-06T15:13:08Z</time>
      </trkpt>
      <trkpt lat="49.22383" lon="0.06477">
        <ele>161</ele>
        <time>2023-12-06T15:13:09Z</time>
      </trkpt>
      <trkpt lat="49.22386" lon="0.06476">
        <ele>161.2</ele>
        <time>2023-12-06T15:13:10Z</time>
      </trkpt>
      <trkpt lat="49.22389" lon="0.06475">
        <ele>161.2</ele>
        <time>2023-12-06T15:13:11Z</time>
      </trkpt>
      <trkpt lat="49.22392" lon="0.06475">
        <ele>161.2</ele>
        <time>2023-12-06T15:13:12Z</time>
      </trkpt>
      <trkpt lat="49.22393" lon="0.06474">
        <ele>161.4</ele>
        <time>2023-12-06T15:13:13Z</time>
      </trkpt>
      <trkpt lat="49.22395" lon="0.06473">
        <ele>161.6</ele>
        <time>2023-12-06T15:13:14Z</time>
      </trkpt>
      <trkpt lat="49.22396" lon="0.0647">
        <ele>161.6</ele>
        <time>2023-12-06T15:13:15Z</time>
      </trkpt>
      <trkpt lat="49.22396" lon="0.06467">
        <ele>161.6</ele>
        <time>2023-12-06T15:13:16Z</time>
      </trkpt>
      <trkpt lat="49.22395" lon="0.06462">
        <ele>161.6</ele>
        <time>2023-12-06T15:13:17Z</time>
      </trkpt>
      <trkpt lat="49.22395" lon="0.06457">
        <ele>161.6</ele>
        <time>2023-12-06T15:13:18Z</time>
      </trkpt>
      <trkpt lat="49.22394" lon="0.06451">
        <ele>161.8</ele>
        <time>2023-12-06T15:13:19Z</time>
      </trkpt>
      <trkpt lat="49.22393" lon="0.06445">
        <ele>161.8</ele>
        <time>2023-12-06T15:13:20Z</time>
      </trkpt>
      <trkpt lat="49.22391" lon="0.06438">
        <ele>161.8</ele>
        <time>2023-12-06T15:13:21Z</time>
      </trkpt>
      <trkpt lat="49.22389" lon="0.06431">
        <ele>161.8</ele>
        <time>2023-12-06T15:13:22Z</time>
      </trkpt>
      <trkpt lat="49.22387" lon="0.06423">
        <ele>161.8</ele>
        <time>2023-12-06T15:13:23Z</time>
      </trkpt>
      <trkpt lat="49.22385" lon="0.06414">
        <ele>161.8</ele>
        <time>2023-12-06T15:13:24Z</time>
      </trkpt>
      <trkpt lat="49.22383" lon="0.06406">
        <ele>161.8</ele>
        <time>2023-12-06T15:13:25Z</time>
      </trkpt>
      <trkpt lat="49.22381" lon="0.06398">
        <ele>161.8</ele>
        <time>2023-12-06T15:13:26Z</time>
      </trkpt>
      <trkpt lat="49.22379" lon="0.0639">
        <ele>161.8</ele>
        <time>2023-12-06T15:13:27Z</time>
      </trkpt>
      <trkpt lat="49.22377" lon="0.06382">
        <ele>161.8</ele>
        <time>2023-12-06T15:13:28Z</time>
      </trkpt>
      <trkpt lat="49.22375" lon="0.06375">
        <ele>161.6</ele>
        <time>2023-12-06T15:13:29Z</time>
      </trkpt>
      <trkpt lat="49.22373" lon="0.06367">
        <ele>161.4</ele>
        <time>2023-12-06T15:13:30Z</time>
      </trkpt>
      <trkpt lat="49.22371" lon="0.06359">
        <ele>161.2</ele>
        <time>2023-12-06T15:13:31Z</time>
      </trkpt>
      <trkpt lat="49.22369" lon="0.06351">
        <ele>161</ele>
        <time>2023-12-06T15:13:32Z</time>
      </trkpt>
      <trkpt lat="49.22367" lon="0.06342">
        <ele>161</ele>
        <time>2023-12-06T15:13:33Z</time>
      </trkpt>
      <trkpt lat="49.22364" lon="0.06334">
        <ele>160.8</ele>
        <time>2023-12-06T15:13:34Z</time>
      </trkpt>
      <trkpt lat="49.22361" lon="0.06325">
        <ele>160.8</ele>
        <time>2023-12-06T15:13:35Z</time>
      </trkpt>
      <trkpt lat="49.22358" lon="0.06316">
        <ele>160.6</ele>
        <time>2023-12-06T15:13:36Z</time>
      </trkpt>
      <trkpt lat="49.22356" lon="0.06306">
        <ele>160.6</ele>
        <time>2023-12-06T15:13:37Z</time>
      </trkpt>
      <trkpt lat="49.22354" lon="0.06297">
        <ele>160.6</ele>
        <time>2023-12-06T15:13:38Z</time>
      </trkpt>
      <trkpt lat="49.22352" lon="0.06287">
        <ele>160.4</ele>
        <time>2023-12-06T15:13:39Z</time>
      </trkpt>
      <trkpt lat="49.2235" lon="0.06276">
        <ele>160.4</ele>
        <time>2023-12-06T15:13:40Z</time>
      </trkpt>
      <trkpt lat="49.22349" lon="0.06266">
        <ele>160.4</ele>
        <time>2023-12-06T15:13:41Z</time>
      </trkpt>
      <trkpt lat="49.22347" lon="0.06255">
        <ele>160.4</ele>
        <time>2023-12-06T15:13:42Z</time>
      </trkpt>
      <trkpt lat="49.22346" lon="0.06244">
        <ele>160.4</ele>
        <time>2023-12-06T15:13:43Z</time>
      </trkpt>
      <trkpt lat="49.22345" lon="0.06234">
        <ele>160.4</ele>
        <time>2023-12-06T15:13:44Z</time>
      </trkpt>
      <trkpt lat="49.22344" lon="0.06223">
        <ele>160.4</ele>
        <time>2023-12-06T15:13:45Z</time>
      </trkpt>
      <trkpt lat="49.22342" lon="0.06213">
        <ele>160.2</ele>
        <time>2023-12-06T15:13:46Z</time>
      </trkpt>
      <trkpt lat="49.22341" lon="0.06202">
        <ele>160.2</ele>
        <time>2023-12-06T15:13:47Z</time>
      </trkpt>
      <trkpt lat="49.2234" lon="0.06192">
        <ele>160.2</ele>
        <time>2023-12-06T15:13:48Z</time>
      </trkpt>
      <trkpt lat="49.22339" lon="0.06182">
        <ele>160.2</ele>
        <time>2023-12-06T15:13:49Z</time>
      </trkpt>
      <trkpt lat="49.22337" lon="0.06171">
        <ele>160</ele>
        <time>2023-12-06T15:13:50Z</time>
      </trkpt>
      <trkpt lat="49.22336" lon="0.06161">
        <ele>160.2</ele>
        <time>2023-12-06T15:13:51Z</time>
      </trkpt>
      <trkpt lat="49.22335" lon="0.0615">
        <ele>160.2</ele>
        <time>2023-12-06T15:13:52Z</time>
      </trkpt>
      <trkpt lat="49.22334" lon="0.0614">
        <ele>160.2</ele>
        <time>2023-12-06T15:13:53Z</time>
      </trkpt>
      <trkpt lat="49.22332" lon="0.0613">
        <ele>160.2</ele>
        <time>2023-12-06T15:13:54Z</time>
      </trkpt>
      <trkpt lat="49.22331" lon="0.0612">
        <ele>160.2</ele>
        <time>2023-12-06T15:13:55Z</time>
      </trkpt>
      <trkpt lat="49.2233" lon="0.0611">
        <ele>160.2</ele>
        <time>2023-12-06T15:13:56Z</time>
      </trkpt>
      <trkpt lat="49.22329" lon="0.061">
        <ele>160.2</ele>
        <time>2023-12-06T15:13:57Z</time>
      </trkpt>
      <trkpt lat="49.22328" lon="0.0609">
        <ele>160.2</ele>
        <time>2023-12-06T15:13:58Z</time>
      </trkpt>
      <trkpt lat="49.22327" lon="0.0608">
        <ele>160.2</ele>
        <time>2023-12-06T15:13:59Z</time>
      </trkpt>
      <trkpt lat="49.22326" lon="0.0607">
        <ele>160</ele>
        <time>2023-12-06T15:14:00Z</time>
      </trkpt>
      <trkpt lat="49.22325" lon="0.06059">
        <ele>160</ele>
        <time>2023-12-06T15:14:01Z</time>
      </trkpt>
      <trkpt lat="49.22324" lon="0.06049">
        <ele>160</ele>
        <time>2023-12-06T15:14:02Z</time>
      </trkpt>
      <trkpt lat="49.22323" lon="0.06039">
        <ele>159.8</ele>
        <time>2023-12-06T15:14:03Z</time>
      </trkpt>
      <trkpt lat="49.22321" lon="0.06029">
        <ele>159.8</ele>
        <time>2023-12-06T15:14:04Z</time>
      </trkpt>
      <trkpt lat="49.2232" lon="0.06019">
        <ele>159.8</ele>
        <time>2023-12-06T15:14:05Z</time>
      </trkpt>
      <trkpt lat="49.22318" lon="0.0601">
        <ele>159.6</ele>
        <time>2023-12-06T15:14:06Z</time>
      </trkpt>
      <trkpt lat="49.22317" lon="0.06">
        <ele>159.6</ele>
        <time>2023-12-06T15:14:07Z</time>
      </trkpt>
      <trkpt lat="49.22316" lon="0.05991">
        <ele>159.6</ele>
        <time>2023-12-06T15:14:08Z</time>
      </trkpt>
      <trkpt lat="49.22315" lon="0.05982">
        <ele>159.6</ele>
        <time>2023-12-06T15:14:09Z</time>
      </trkpt>
      <trkpt lat="49.22314" lon="0.05974">
        <ele>159.4</ele>
        <time>2023-12-06T15:14:10Z</time>
      </trkpt>
      <trkpt lat="49.22313" lon="0.05966">
        <ele>159.4</ele>
        <time>2023-12-06T15:14:11Z</time>
      </trkpt>
      <trkpt lat="49.22312" lon="0.05957">
        <ele>159.4</ele>
        <time>2023-12-06T15:14:12Z</time>
      </trkpt>
      <trkpt lat="49.2231" lon="0.05949">
        <ele>159.4</ele>
        <time>2023-12-06T15:14:13Z</time>
      </trkpt>
      <trkpt lat="49.22309" lon="0.05941">
        <ele>159.4</ele>
        <time>2023-12-06T15:14:14Z</time>
      </trkpt>
      <trkpt lat="49.22308" lon="0.05932">
        <ele>159.4</ele>
        <time>2023-12-06T15:14:15Z</time>
      </trkpt>
      <trkpt lat="49.22307" lon="0.05923">
        <ele>159.4</ele>
        <time>2023-12-06T15:14:16Z</time>
      </trkpt>
      <trkpt lat="49.22305" lon="0.05914">
        <ele>159.4</ele>
        <time>2023-12-06T15:14:17Z</time>
      </trkpt>
      <trkpt lat="49.22303" lon="0.05905">
        <ele>159.4</ele>
        <time>2023-12-06T15:14:18Z</time>
      </trkpt>
      <trkpt lat="49.22301" lon="0.05895">
        <ele>159.4</ele>
        <time>2023-12-06T15:14:19Z</time>
      </trkpt>
      <trkpt lat="49.22299" lon="0.05885">
        <ele>159.2</ele>
        <time>2023-12-06T15:14:20Z</time>
      </trkpt>
      <trkpt lat="49.22297" lon="0.05874">
        <ele>159.2</ele>
        <time>2023-12-06T15:14:21Z</time>
      </trkpt>
      <trkpt lat="49.22295" lon="0.05864">
        <ele>159.2</ele>
        <time>2023-12-06T15:14:22Z</time>
      </trkpt>
      <trkpt lat="49.22293" lon="0.05854">
        <ele>159.2</ele>
        <time>2023-12-06T15:14:23Z</time>
      </trkpt>
      <trkpt lat="49.22291" lon="0.05844">
        <ele>159.2</ele>
        <time>2023-12-06T15:14:24Z</time>
      </trkpt>
      <trkpt lat="49.2229" lon="0.05834">
        <ele>159.2</ele>
        <time>2023-12-06T15:14:25Z</time>
      </trkpt>
      <trkpt lat="49.22287" lon="0.05825">
        <ele>159.2</ele>
        <time>2023-12-06T15:14:26Z</time>
      </trkpt>
      <trkpt lat="49.22285" lon="0.05815">
        <ele>159.2</ele>
        <time>2023-12-06T15:14:27Z</time>
      </trkpt>
      <trkpt lat="49.22283" lon="0.05806">
        <ele>159.2</ele>
        <time>2023-12-06T15:14:28Z</time>
      </trkpt>
      <trkpt lat="49.22281" lon="0.05797">
        <ele>159.2</ele>
        <time>2023-12-06T15:14:29Z</time>
      </trkpt>
      <trkpt lat="49.22279" lon="0.05787">
        <ele>159.2</ele>
        <time>2023-12-06T15:14:30Z</time>
      </trkpt>
      <trkpt lat="49.22276" lon="0.05778">
        <ele>159.2</ele>
        <time>2023-12-06T15:14:31Z</time>
      </trkpt>
      <trkpt lat="49.22274" lon="0.05769">
        <ele>159.2</ele>
        <time>2023-12-06T15:14:32Z</time>
      </trkpt>
      <trkpt lat="49.22271" lon="0.05759">
        <ele>159.2</ele>
        <time>2023-12-06T15:14:33Z</time>
      </trkpt>
      <trkpt lat="49.22268" lon="0.05749">
        <ele>159.2</ele>
        <time>2023-12-06T15:14:34Z</time>
      </trkpt>
      <trkpt lat="49.22266" lon="0.0574">
        <ele>159.2</ele>
        <time>2023-12-06T15:14:35Z</time>
      </trkpt>
      <trkpt lat="49.22263" lon="0.0573">
        <ele>159.2</ele>
        <time>2023-12-06T15:14:36Z</time>
      </trkpt>
      <trkpt lat="49.2226" lon="0.05721">
        <ele>159.2</ele>
        <time>2023-12-06T15:14:37Z</time>
      </trkpt>
      <trkpt lat="49.22256" lon="0.05711">
        <ele>159.2</ele>
        <time>2023-12-06T15:14:38Z</time>
      </trkpt>
      <trkpt lat="49.22254" lon="0.05702">
        <ele>159.2</ele>
        <time>2023-12-06T15:14:39Z</time>
      </trkpt>
      <trkpt lat="49.22251" lon="0.05692">
        <ele>159.2</ele>
        <time>2023-12-06T15:14:40Z</time>
      </trkpt>
      <trkpt lat="49.22248" lon="0.05682">
        <ele>159.4</ele>
        <time>2023-12-06T15:14:41Z</time>
      </trkpt>
      <trkpt lat="49.22245" lon="0.05673">
        <ele>159.6</ele>
        <time>2023-12-06T15:14:42Z</time>
      </trkpt>
      <trkpt lat="49.22242" lon="0.05663">
        <ele>159.6</ele>
        <time>2023-12-06T15:14:43Z</time>
      </trkpt>
      <trkpt lat="49.22239" lon="0.05653">
        <ele>159.6</ele>
        <time>2023-12-06T15:14:44Z</time>
      </trkpt>
      <trkpt lat="49.22236" lon="0.05643">
        <ele>159.6</ele>
        <time>2023-12-06T15:14:45Z</time>
      </trkpt>
      <trkpt lat="49.22233" lon="0.05633">
        <ele>159.8</ele>
        <time>2023-12-06T15:14:46Z</time>
      </trkpt>
      <trkpt lat="49.2223" lon="0.05623">
        <ele>159.8</ele>
        <time>2023-12-06T15:14:47Z</time>
      </trkpt>
      <trkpt lat="49.22227" lon="0.05613">
        <ele>160</ele>
        <time>2023-12-06T15:14:48Z</time>
      </trkpt>
      <trkpt lat="49.22224" lon="0.05603">
        <ele>160</ele>
        <time>2023-12-06T15:14:49Z</time>
      </trkpt>
      <trkpt lat="49.22221" lon="0.05593">
        <ele>160</ele>
        <time>2023-12-06T15:14:50Z</time>
      </trkpt>
      <trkpt lat="49.22218" lon="0.05583">
        <ele>160</ele>
        <time>2023-12-06T15:14:51Z</time>
      </trkpt>
      <trkpt lat="49.22215" lon="0.05573">
        <ele>160.2</ele>
        <time>2023-12-06T15:14:52Z</time>
      </trkpt>
      <trkpt lat="49.22213" lon="0.05564">
        <ele>160.2</ele>
        <time>2023-12-06T15:14:53Z</time>
      </trkpt>
      <trkpt lat="49.2221" lon="0.05554">
        <ele>160.2</ele>
        <time>2023-12-06T15:14:54Z</time>
      </trkpt>
      <trkpt lat="49.22207" lon="0.05544">
        <ele>160.2</ele>
        <time>2023-12-06T15:14:55Z</time>
      </trkpt>
      <trkpt lat="49.22204" lon="0.05534">
        <ele>160.4</ele>
        <time>2023-12-06T15:14:56Z</time>
      </trkpt>
      <trkpt lat="49.222" lon="0.05524">
        <ele>160.4</ele>
        <time>2023-12-06T15:14:57Z</time>
      </trkpt>
      <trkpt lat="49.22197" lon="0.05514">
        <ele>160.6</ele>
        <time>2023-12-06T15:14:58Z</time>
      </trkpt>
      <trkpt lat="49.22195" lon="0.05504">
        <ele>160.6</ele>
        <time>2023-12-06T15:14:59Z</time>
      </trkpt>
      <trkpt lat="49.22192" lon="0.05494">
        <ele>160.6</ele>
        <time>2023-12-06T15:15:00Z</time>
      </trkpt>
      <trkpt lat="49.22189" lon="0.05484">
        <ele>160.6</ele>
        <time>2023-12-06T15:15:01Z</time>
      </trkpt>
      <trkpt lat="49.22186" lon="0.05474">
        <ele>160.8</ele>
        <time>2023-12-06T15:15:02Z</time>
      </trkpt>
      <trkpt lat="49.22183" lon="0.05464">
        <ele>160.8</ele>
        <time>2023-12-06T15:15:03Z</time>
      </trkpt>
      <trkpt lat="49.2218" lon="0.05454">
        <ele>160.8</ele>
        <time>2023-12-06T15:15:04Z</time>
      </trkpt>
      <trkpt lat="49.22178" lon="0.05444">
        <ele>160.8</ele>
        <time>2023-12-06T15:15:05Z</time>
      </trkpt>
      <trkpt lat="49.22175" lon="0.05433">
        <ele>161</ele>
        <time>2023-12-06T15:15:06Z</time>
      </trkpt>
      <trkpt lat="49.22171" lon="0.05424">
        <ele>161</ele>
        <time>2023-12-06T15:15:07Z</time>
      </trkpt>
      <trkpt lat="49.22168" lon="0.05414">
        <ele>161</ele>
        <time>2023-12-06T15:15:08Z</time>
      </trkpt>
      <trkpt lat="49.22165" lon="0.05404">
        <ele>161</ele>
        <time>2023-12-06T15:15:09Z</time>
      </trkpt>
      <trkpt lat="49.22162" lon="0.05394">
        <ele>161</ele>
        <time>2023-12-06T15:15:10Z</time>
      </trkpt>
      <trkpt lat="49.22159" lon="0.05384">
        <ele>161</ele>
        <time>2023-12-06T15:15:11Z</time>
      </trkpt>
      <trkpt lat="49.22157" lon="0.05374">
        <ele>161.2</ele>
        <time>2023-12-06T15:15:12Z</time>
      </trkpt>
      <trkpt lat="49.22154" lon="0.05364">
        <ele>161.2</ele>
        <time>2023-12-06T15:15:13Z</time>
      </trkpt>
      <trkpt lat="49.22151" lon="0.05354">
        <ele>161.2</ele>
        <time>2023-12-06T15:15:14Z</time>
      </trkpt>
      <trkpt lat="49.22148" lon="0.05343">
        <ele>161.4</ele>
        <time>2023-12-06T15:15:15Z</time>
      </trkpt>
      <trkpt lat="49.22146" lon="0.05333">
        <ele>161.4</ele>
        <time>2023-12-06T15:15:16Z</time>
      </trkpt>
      <trkpt lat="49.22143" lon="0.05322">
        <ele>161.6</ele>
        <time>2023-12-06T15:15:17Z</time>
      </trkpt>
      <trkpt lat="49.2214" lon="0.05311">
        <ele>161.6</ele>
        <time>2023-12-06T15:15:18Z</time>
      </trkpt>
      <trkpt lat="49.22138" lon="0.053">
        <ele>161.8</ele>
        <time>2023-12-06T15:15:19Z</time>
      </trkpt>
      <trkpt lat="49.22135" lon="0.05289">
        <ele>161.8</ele>
        <time>2023-12-06T15:15:20Z</time>
      </trkpt>
      <trkpt lat="49.22133" lon="0.05278">
        <ele>161.8</ele>
        <time>2023-12-06T15:15:21Z</time>
      </trkpt>
      <trkpt lat="49.22131" lon="0.05267">
        <ele>161.8</ele>
        <time>2023-12-06T15:15:22Z</time>
      </trkpt>
      <trkpt lat="49.22129" lon="0.05256">
        <ele>161.8</ele>
        <time>2023-12-06T15:15:23Z</time>
      </trkpt>
      <trkpt lat="49.22127" lon="0.05245">
        <ele>162</ele>
        <time>2023-12-06T15:15:24Z</time>
      </trkpt>
      <trkpt lat="49.22125" lon="0.05233">
        <ele>162</ele>
        <time>2023-12-06T15:15:25Z</time>
      </trkpt>
      <trkpt lat="49.22123" lon="0.05221">
        <ele>162</ele>
        <time>2023-12-06T15:15:26Z</time>
      </trkpt>
      <trkpt lat="49.22121" lon="0.0521">
        <ele>162</ele>
        <time>2023-12-06T15:15:27Z</time>
      </trkpt>
      <trkpt lat="49.22119" lon="0.05198">
        <ele>162</ele>
        <time>2023-12-06T15:15:28Z</time>
      </trkpt>
      <trkpt lat="49.22117" lon="0.05187">
        <ele>162</ele>
        <time>2023-12-06T15:15:29Z</time>
      </trkpt>
      <trkpt lat="49.22115" lon="0.05175">
        <ele>162</ele>
        <time>2023-12-06T15:15:30Z</time>
      </trkpt>
      <trkpt lat="49.22114" lon="0.05163">
        <ele>162</ele>
        <time>2023-12-06T15:15:31Z</time>
      </trkpt>
      <trkpt lat="49.22112" lon="0.05151">
        <ele>162</ele>
        <time>2023-12-06T15:15:32Z</time>
      </trkpt>
      <trkpt lat="49.2211" lon="0.0514">
        <ele>162</ele>
        <time>2023-12-06T15:15:33Z</time>
      </trkpt>
      <trkpt lat="49.22108" lon="0.05128">
        <ele>162</ele>
        <time>2023-12-06T15:15:34Z</time>
      </trkpt>
      <trkpt lat="49.22106" lon="0.05117">
        <ele>162</ele>
        <time>2023-12-06T15:15:35Z</time>
      </trkpt>
      <trkpt lat="49.22104" lon="0.05105">
        <ele>162</ele>
        <time>2023-12-06T15:15:36Z</time>
      </trkpt>
      <trkpt lat="49.22103" lon="0.05094">
        <ele>162</ele>
        <time>2023-12-06T15:15:37Z</time>
      </trkpt>
      <trkpt lat="49.22101" lon="0.05082">
        <ele>162</ele>
        <time>2023-12-06T15:15:38Z</time>
      </trkpt>
      <trkpt lat="49.22099" lon="0.0507">
        <ele>161.8</ele>
        <time>2023-12-06T15:15:39Z</time>
      </trkpt>
      <trkpt lat="49.22098" lon="0.05057">
        <ele>161.8</ele>
        <time>2023-12-06T15:15:40Z</time>
      </trkpt>
      <trkpt lat="49.22096" lon="0.05045">
        <ele>161.8</ele>
        <time>2023-12-06T15:15:41Z</time>
      </trkpt>
      <trkpt lat="49.22094" lon="0.05033">
        <ele>161.6</ele>
        <time>2023-12-06T15:15:42Z</time>
      </trkpt>
      <trkpt lat="49.22092" lon="0.05021">
        <ele>161.4</ele>
        <time>2023-12-06T15:15:43Z</time>
      </trkpt>
      <trkpt lat="49.2209" lon="0.05009">
        <ele>161.4</ele>
        <time>2023-12-06T15:15:44Z</time>
      </trkpt>
      <trkpt lat="49.22088" lon="0.04996">
        <ele>161</ele>
        <time>2023-12-06T15:15:45Z</time>
      </trkpt>
      <trkpt lat="49.22087" lon="0.04984">
        <ele>160.8</ele>
        <time>2023-12-06T15:15:46Z</time>
      </trkpt>
      <trkpt lat="49.22085" lon="0.04972">
        <ele>160.8</ele>
        <time>2023-12-06T15:15:47Z</time>
      </trkpt>
      <trkpt lat="49.22083" lon="0.0496">
        <ele>160.6</ele>
        <time>2023-12-06T15:15:48Z</time>
      </trkpt>
      <trkpt lat="49.22081" lon="0.04948">
        <ele>160.6</ele>
        <time>2023-12-06T15:15:49Z</time>
      </trkpt>
      <trkpt lat="49.22079" lon="0.04936">
        <ele>160.4</ele>
        <time>2023-12-06T15:15:50Z</time>
      </trkpt>
      <trkpt lat="49.22077" lon="0.04924">
        <ele>160.4</ele>
        <time>2023-12-06T15:15:51Z</time>
      </trkpt>
      <trkpt lat="49.22076" lon="0.04912">
        <ele>160.4</ele>
        <time>2023-12-06T15:15:52Z</time>
      </trkpt>
      <trkpt lat="49.22074" lon="0.049">
        <ele>160.4</ele>
        <time>2023-12-06T15:15:53Z</time>
      </trkpt>
      <trkpt lat="49.22072" lon="0.04888">
        <ele>160.2</ele>
        <time>2023-12-06T15:15:54Z</time>
      </trkpt>
      <trkpt lat="49.2207" lon="0.04876">
        <ele>160.2</ele>
        <time>2023-12-06T15:15:55Z</time>
      </trkpt>
      <trkpt lat="49.22068" lon="0.04863">
        <ele>160.2</ele>
        <time>2023-12-06T15:15:56Z</time>
      </trkpt>
      <trkpt lat="49.22066" lon="0.04851">
        <ele>160.2</ele>
        <time>2023-12-06T15:15:57Z</time>
      </trkpt>
      <trkpt lat="49.22064" lon="0.04838">
        <ele>160</ele>
        <time>2023-12-06T15:15:58Z</time>
      </trkpt>
      <trkpt lat="49.22062" lon="0.04826">
        <ele>160</ele>
        <time>2023-12-06T15:15:59Z</time>
      </trkpt>
      <trkpt lat="49.2206" lon="0.04814">
        <ele>160</ele>
        <time>2023-12-06T15:16:00Z</time>
      </trkpt>
      <trkpt lat="49.22058" lon="0.04802">
        <ele>160</ele>
        <time>2023-12-06T15:16:01Z</time>
      </trkpt>
      <trkpt lat="49.22056" lon="0.0479">
        <ele>160</ele>
        <time>2023-12-06T15:16:02Z</time>
      </trkpt>
      <trkpt lat="49.22054" lon="0.04778">
        <ele>159.8</ele>
        <time>2023-12-06T15:16:03Z</time>
      </trkpt>
      <trkpt lat="49.22052" lon="0.04765">
        <ele>159.8</ele>
        <time>2023-12-06T15:16:04Z</time>
      </trkpt>
      <trkpt lat="49.22051" lon="0.04753">
        <ele>159.8</ele>
        <time>2023-12-06T15:16:05Z</time>
      </trkpt>
      <trkpt lat="49.22049" lon="0.04741">
        <ele>159.8</ele>
        <time>2023-12-06T15:16:06Z</time>
      </trkpt>
      <trkpt lat="49.22047" lon="0.04728">
        <ele>159.6</ele>
        <time>2023-12-06T15:16:07Z</time>
      </trkpt>
      <trkpt lat="49.22045" lon="0.04716">
        <ele>159.6</ele>
        <time>2023-12-06T15:16:08Z</time>
      </trkpt>
      <trkpt lat="49.22043" lon="0.04704">
        <ele>159.8</ele>
        <time>2023-12-06T15:16:09Z</time>
      </trkpt>
      <trkpt lat="49.22041" lon="0.04692">
        <ele>159.8</ele>
        <time>2023-12-06T15:16:10Z</time>
      </trkpt>
      <trkpt lat="49.22039" lon="0.0468">
        <ele>159.6</ele>
        <time>2023-12-06T15:16:11Z</time>
      </trkpt>
      <trkpt lat="49.22037" lon="0.04668">
        <ele>159.6</ele>
        <time>2023-12-06T15:16:12Z</time>
      </trkpt>
      <trkpt lat="49.22036" lon="0.04656">
        <ele>159.4</ele>
        <time>2023-12-06T15:16:13Z</time>
      </trkpt>
      <trkpt lat="49.22034" lon="0.04644">
        <ele>159.4</ele>
        <time>2023-12-06T15:16:14Z</time>
      </trkpt>
      <trkpt lat="49.22032" lon="0.04632">
        <ele>159.4</ele>
        <time>2023-12-06T15:16:15Z</time>
      </trkpt>
      <trkpt lat="49.2203" lon="0.0462">
        <ele>159.4</ele>
        <time>2023-12-06T15:16:16Z</time>
      </trkpt>
      <trkpt lat="49.22028" lon="0.04608">
        <ele>159.4</ele>
        <time>2023-12-06T15:16:17Z</time>
      </trkpt>
      <trkpt lat="49.22026" lon="0.04596">
        <ele>159.4</ele>
        <time>2023-12-06T15:16:18Z</time>
      </trkpt>
      <trkpt lat="49.22024" lon="0.04583">
        <ele>159.4</ele>
        <time>2023-12-06T15:16:19Z</time>
      </trkpt>
      <trkpt lat="49.22022" lon="0.04571">
        <ele>159.4</ele>
        <time>2023-12-06T15:16:20Z</time>
      </trkpt>
      <trkpt lat="49.2202" lon="0.04559">
        <ele>159.2</ele>
        <time>2023-12-06T15:16:21Z</time>
      </trkpt>
      <trkpt lat="49.22018" lon="0.04547">
        <ele>159.2</ele>
        <time>2023-12-06T15:16:22Z</time>
      </trkpt>
      <trkpt lat="49.22016" lon="0.04536">
        <ele>159.2</ele>
        <time>2023-12-06T15:16:23Z</time>
      </trkpt>
      <trkpt lat="49.22014" lon="0.04523">
        <ele>159.2</ele>
        <time>2023-12-06T15:16:24Z</time>
      </trkpt>
      <trkpt lat="49.22013" lon="0.04511">
        <ele>159.2</ele>
        <time>2023-12-06T15:16:25Z</time>
      </trkpt>
      <trkpt lat="49.22011" lon="0.04499">
        <ele>159.2</ele>
        <time>2023-12-06T15:16:26Z</time>
      </trkpt>
      <trkpt lat="49.22009" lon="0.04487">
        <ele>159</ele>
        <time>2023-12-06T15:16:27Z</time>
      </trkpt>
      <trkpt lat="49.22007" lon="0.04475">
        <ele>159</ele>
        <time>2023-12-06T15:16:28Z</time>
      </trkpt>
      <trkpt lat="49.22005" lon="0.04462">
        <ele>159</ele>
        <time>2023-12-06T15:16:29Z</time>
      </trkpt>
      <trkpt lat="49.22003" lon="0.0445">
        <ele>158.8</ele>
        <time>2023-12-06T15:16:30Z</time>
      </trkpt>
      <trkpt lat="49.22001" lon="0.04437">
        <ele>158.8</ele>
        <time>2023-12-06T15:16:31Z</time>
      </trkpt>
      <trkpt lat="49.21999" lon="0.04425">
        <ele>158.8</ele>
        <time>2023-12-06T15:16:32Z</time>
      </trkpt>
      <trkpt lat="49.21998" lon="0.04413">
        <ele>158.6</ele>
        <time>2023-12-06T15:16:33Z</time>
      </trkpt>
      <trkpt lat="49.21995" lon="0.044">
        <ele>158.6</ele>
        <time>2023-12-06T15:16:34Z</time>
      </trkpt>
      <trkpt lat="49.21993" lon="0.04388">
        <ele>158.6</ele>
        <time>2023-12-06T15:16:35Z</time>
      </trkpt>
      <trkpt lat="49.21991" lon="0.04376">
        <ele>158.6</ele>
        <time>2023-12-06T15:16:36Z</time>
      </trkpt>
      <trkpt lat="49.21989" lon="0.04363">
        <ele>158.6</ele>
        <time>2023-12-06T15:16:37Z</time>
      </trkpt>
      <trkpt lat="49.21987" lon="0.04351">
        <ele>158.6</ele>
        <time>2023-12-06T15:16:38Z</time>
      </trkpt>
      <trkpt lat="49.21985" lon="0.04338">
        <ele>158.6</ele>
        <time>2023-12-06T15:16:39Z</time>
      </trkpt>
      <trkpt lat="49.21983" lon="0.04326">
        <ele>158.6</ele>
        <time>2023-12-06T15:16:40Z</time>
      </trkpt>
      <trkpt lat="49.21981" lon="0.04314">
        <ele>158.6</ele>
        <time>2023-12-06T15:16:41Z</time>
      </trkpt>
      <trkpt lat="49.21979" lon="0.04302">
        <ele>158.4</ele>
        <time>2023-12-06T15:16:42Z</time>
      </trkpt>
      <trkpt lat="49.21977" lon="0.0429">
        <ele>158.4</ele>
        <time>2023-12-06T15:16:43Z</time>
      </trkpt>
      <trkpt lat="49.21975" lon="0.04277">
        <ele>158.4</ele>
        <time>2023-12-06T15:16:44Z</time>
      </trkpt>
      <trkpt lat="49.21973" lon="0.04265">
        <ele>158.4</ele>
        <time>2023-12-06T15:16:45Z</time>
      </trkpt>
      <trkpt lat="49.21971" lon="0.04253">
        <ele>158.2</ele>
        <time>2023-12-06T15:16:46Z</time>
      </trkpt>
      <trkpt lat="49.21969" lon="0.0424">
        <ele>158.2</ele>
        <time>2023-12-06T15:16:47Z</time>
      </trkpt>
      <trkpt lat="49.21967" lon="0.04228">
        <ele>158.2</ele>
        <time>2023-12-06T15:16:48Z</time>
      </trkpt>
      <trkpt lat="49.21965" lon="0.04216">
        <ele>158.2</ele>
        <time>2023-12-06T15:16:49Z</time>
      </trkpt>
      <trkpt lat="49.21963" lon="0.04203">
        <ele>158</ele>
        <time>2023-12-06T15:16:50Z</time>
      </trkpt>
      <trkpt lat="49.21961" lon="0.04191">
        <ele>158</ele>
        <time>2023-12-06T15:16:51Z</time>
      </trkpt>
      <trkpt lat="49.21959" lon="0.04179">
        <ele>158</ele>
        <time>2023-12-06T15:16:52Z</time>
      </trkpt>
      <trkpt lat="49.21957" lon="0.04166">
        <ele>158</ele>
        <time>2023-12-06T15:16:53Z</time>
      </trkpt>
      <trkpt lat="49.21955" lon="0.04154">
        <ele>158</ele>
        <time>2023-12-06T15:16:54Z</time>
      </trkpt>
      <trkpt lat="49.21954" lon="0.04141">
        <ele>158</ele>
        <time>2023-12-06T15:16:55Z</time>
      </trkpt>
      <trkpt lat="49.21952" lon="0.04129">
        <ele>158</ele>
        <time>2023-12-06T15:16:56Z</time>
      </trkpt>
      <trkpt lat="49.2195" lon="0.04117">
        <ele>158</ele>
        <time>2023-12-06T15:16:57Z</time>
      </trkpt>
      <trkpt lat="49.21948" lon="0.04105">
        <ele>158</ele>
        <time>2023-12-06T15:16:58Z</time>
      </trkpt>
      <trkpt lat="49.21946" lon="0.04092">
        <ele>158</ele>
        <time>2023-12-06T15:16:59Z</time>
      </trkpt>
      <trkpt lat="49.21944" lon="0.0408">
        <ele>158</ele>
        <time>2023-12-06T15:17:00Z</time>
      </trkpt>
      <trkpt lat="49.21942" lon="0.04068">
        <ele>158</ele>
        <time>2023-12-06T15:17:01Z</time>
      </trkpt>
      <trkpt lat="49.2194" lon="0.04056">
        <ele>158</ele>
        <time>2023-12-06T15:17:02Z</time>
      </trkpt>
      <trkpt lat="49.21938" lon="0.04044">
        <ele>158</ele>
        <time>2023-12-06T15:17:03Z</time>
      </trkpt>
      <trkpt lat="49.21936" lon="0.04031">
        <ele>157.8</ele>
        <time>2023-12-06T15:17:04Z</time>
      </trkpt>
      <trkpt lat="49.21934" lon="0.04019">
        <ele>157.8</ele>
        <time>2023-12-06T15:17:05Z</time>
      </trkpt>
      <trkpt lat="49.21932" lon="0.04007">
        <ele>157.8</ele>
        <time>2023-12-06T15:17:06Z</time>
      </trkpt>
      <trkpt lat="49.21929" lon="0.03995">
        <ele>157.8</ele>
        <time>2023-12-06T15:17:07Z</time>
      </trkpt>
      <trkpt lat="49.21925" lon="0.03983">
        <ele>158</ele>
        <time>2023-12-06T15:17:08Z</time>
      </trkpt>
      <trkpt lat="49.21922" lon="0.03971">
        <ele>158</ele>
        <time>2023-12-06T15:17:09Z</time>
      </trkpt>
      <trkpt lat="49.21918" lon="0.0396">
        <ele>157.8</ele>
        <time>2023-12-06T15:17:10Z</time>
      </trkpt>
      <trkpt lat="49.21914" lon="0.03948">
        <ele>157.8</ele>
        <time>2023-12-06T15:17:11Z</time>
      </trkpt>
      <trkpt lat="49.2191" lon="0.03937">
        <ele>157.8</ele>
        <time>2023-12-06T15:17:12Z</time>
      </trkpt>
      <trkpt lat="49.21905" lon="0.03927">
        <ele>157.8</ele>
        <time>2023-12-06T15:17:13Z</time>
      </trkpt>
      <trkpt lat="49.219" lon="0.03917">
        <ele>157.6</ele>
        <time>2023-12-06T15:17:14Z</time>
      </trkpt>
      <trkpt lat="49.21895" lon="0.03907">
        <ele>157.6</ele>
        <time>2023-12-06T15:17:15Z</time>
      </trkpt>
      <trkpt lat="49.2189" lon="0.03896">
        <ele>157.4</ele>
        <time>2023-12-06T15:17:16Z</time>
      </trkpt>
      <trkpt lat="49.21885" lon="0.03886">
        <ele>157.2</ele>
        <time>2023-12-06T15:17:17Z</time>
      </trkpt>
      <trkpt lat="49.21881" lon="0.03875">
        <ele>157</ele>
        <time>2023-12-06T15:17:18Z</time>
      </trkpt>
      <trkpt lat="49.21876" lon="0.03864">
        <ele>157</ele>
        <time>2023-12-06T15:17:19Z</time>
      </trkpt>
      <trkpt lat="49.21871" lon="0.03854">
        <ele>156.8</ele>
        <time>2023-12-06T15:17:20Z</time>
      </trkpt>
      <trkpt lat="49.21867" lon="0.03843">
        <ele>156.8</ele>
        <time>2023-12-06T15:17:21Z</time>
      </trkpt>
      <trkpt lat="49.21862" lon="0.03832">
        <ele>156.6</ele>
        <time>2023-12-06T15:17:22Z</time>
      </trkpt>
      <trkpt lat="49.21857" lon="0.03821">
        <ele>156.6</ele>
        <time>2023-12-06T15:17:23Z</time>
      </trkpt>
      <trkpt lat="49.21853" lon="0.03811">
        <ele>156.4</ele>
        <time>2023-12-06T15:17:24Z</time>
      </trkpt>
      <trkpt lat="49.21848" lon="0.03801">
        <ele>156.2</ele>
        <time>2023-12-06T15:17:25Z</time>
      </trkpt>
      <trkpt lat="49.21843" lon="0.03791">
        <ele>156</ele>
        <time>2023-12-06T15:17:26Z</time>
      </trkpt>
      <trkpt lat="49.21838" lon="0.03781">
        <ele>156</ele>
        <time>2023-12-06T15:17:27Z</time>
      </trkpt>
      <trkpt lat="49.21833" lon="0.03771">
        <ele>155.8</ele>
        <time>2023-12-06T15:17:28Z</time>
      </trkpt>
      <trkpt lat="49.21828" lon="0.0376">
        <ele>155.6</ele>
        <time>2023-12-06T15:17:29Z</time>
      </trkpt>
      <trkpt lat="49.21823" lon="0.03749">
        <ele>155.6</ele>
        <time>2023-12-06T15:17:30Z</time>
      </trkpt>
      <trkpt lat="49.21818" lon="0.03739">
        <ele>155.2</ele>
        <time>2023-12-06T15:17:31Z</time>
      </trkpt>
      <trkpt lat="49.21813" lon="0.03728">
        <ele>155</ele>
        <time>2023-12-06T15:17:32Z</time>
      </trkpt>
      <trkpt lat="49.21809" lon="0.03717">
        <ele>154.6</ele>
        <time>2023-12-06T15:17:33Z</time>
      </trkpt>
      <trkpt lat="49.21804" lon="0.03707">
        <ele>154.4</ele>
        <time>2023-12-06T15:17:34Z</time>
      </trkpt>
      <trkpt lat="49.21799" lon="0.03696">
        <ele>154.4</ele>
        <time>2023-12-06T15:17:35Z</time>
      </trkpt>
      <trkpt lat="49.21794" lon="0.03686">
        <ele>154.2</ele>
        <time>2023-12-06T15:17:36Z</time>
      </trkpt>
      <trkpt lat="49.21789" lon="0.03676">
        <ele>154.2</ele>
        <time>2023-12-06T15:17:37Z</time>
      </trkpt>
      <trkpt lat="49.21784" lon="0.03665">
        <ele>154</ele>
        <time>2023-12-06T15:17:38Z</time>
      </trkpt>
      <trkpt lat="49.2178" lon="0.03654">
        <ele>153.8</ele>
        <time>2023-12-06T15:17:39Z</time>
      </trkpt>
      <trkpt lat="49.21775" lon="0.03643">
        <ele>153.6</ele>
        <time>2023-12-06T15:17:40Z</time>
      </trkpt>
      <trkpt lat="49.21771" lon="0.03631">
        <ele>153.6</ele>
        <time>2023-12-06T15:17:41Z</time>
      </trkpt>
      <trkpt lat="49.21767" lon="0.03619">
        <ele>153.4</ele>
        <time>2023-12-06T15:17:42Z</time>
      </trkpt>
      <trkpt lat="49.21763" lon="0.03607">
        <ele>153.2</ele>
        <time>2023-12-06T15:17:43Z</time>
      </trkpt>
      <trkpt lat="49.2176" lon="0.03595">
        <ele>153.2</ele>
        <time>2023-12-06T15:17:44Z</time>
      </trkpt>
      <trkpt lat="49.21757" lon="0.03583">
        <ele>152.8</ele>
        <time>2023-12-06T15:17:45Z</time>
      </trkpt>
      <trkpt lat="49.21755" lon="0.03571">
        <ele>152.8</ele>
        <time>2023-12-06T15:17:46Z</time>
      </trkpt>
      <trkpt lat="49.21752" lon="0.03559">
        <ele>152.6</ele>
        <time>2023-12-06T15:17:47Z</time>
      </trkpt>
      <trkpt lat="49.2175" lon="0.03547">
        <ele>152.6</ele>
        <time>2023-12-06T15:17:48Z</time>
      </trkpt>
      <trkpt lat="49.21748" lon="0.03536">
        <ele>152.6</ele>
        <time>2023-12-06T15:17:49Z</time>
      </trkpt>
      <trkpt lat="49.21745" lon="0.03525">
        <ele>152.4</ele>
        <time>2023-12-06T15:17:50Z</time>
      </trkpt>
      <trkpt lat="49.21743" lon="0.03513">
        <ele>152.2</ele>
        <time>2023-12-06T15:17:51Z</time>
      </trkpt>
      <trkpt lat="49.21741" lon="0.03502">
        <ele>152.2</ele>
        <time>2023-12-06T15:17:52Z</time>
      </trkpt>
      <trkpt lat="49.21738" lon="0.03491">
        <ele>152</ele>
        <time>2023-12-06T15:17:53Z</time>
      </trkpt>
      <trkpt lat="49.21736" lon="0.03479">
        <ele>151.8</ele>
        <time>2023-12-06T15:17:54Z</time>
      </trkpt>
      <trkpt lat="49.21733" lon="0.03467">
        <ele>151.8</ele>
        <time>2023-12-06T15:17:55Z</time>
      </trkpt>
      <trkpt lat="49.21731" lon="0.03455">
        <ele>151.6</ele>
        <time>2023-12-06T15:17:56Z</time>
      </trkpt>
      <trkpt lat="49.21728" lon="0.03443">
        <ele>151.6</ele>
        <time>2023-12-06T15:17:57Z</time>
      </trkpt>
      <trkpt lat="49.21724" lon="0.03431">
        <ele>151.6</ele>
        <time>2023-12-06T15:17:58Z</time>
      </trkpt>
      <trkpt lat="49.21721" lon="0.0342">
        <ele>151.6</ele>
        <time>2023-12-06T15:17:59Z</time>
      </trkpt>
      <trkpt lat="49.21716" lon="0.0341">
        <ele>151.6</ele>
        <time>2023-12-06T15:18:00Z</time>
      </trkpt>
      <trkpt lat="49.2171" lon="0.03401">
        <ele>151.4</ele>
        <time>2023-12-06T15:18:01Z</time>
      </trkpt>
      <trkpt lat="49.21705" lon="0.03392">
        <ele>151.4</ele>
        <time>2023-12-06T15:18:02Z</time>
      </trkpt>
      <trkpt lat="49.21699" lon="0.03383">
        <ele>151.4</ele>
        <time>2023-12-06T15:18:03Z</time>
      </trkpt>
      <trkpt lat="49.21694" lon="0.03374">
        <ele>151.2</ele>
        <time>2023-12-06T15:18:04Z</time>
      </trkpt>
      <trkpt lat="49.21688" lon="0.03366">
        <ele>151.2</ele>
        <time>2023-12-06T15:18:05Z</time>
      </trkpt>
      <trkpt lat="49.21683" lon="0.03358">
        <ele>151</ele>
        <time>2023-12-06T15:18:06Z</time>
      </trkpt>
      <trkpt lat="49.21677" lon="0.0335">
        <ele>151</ele>
        <time>2023-12-06T15:18:07Z</time>
      </trkpt>
      <trkpt lat="49.21671" lon="0.03341">
        <ele>151</ele>
        <time>2023-12-06T15:18:08Z</time>
      </trkpt>
      <trkpt lat="49.21665" lon="0.03333">
        <ele>150.8</ele>
        <time>2023-12-06T15:18:09Z</time>
      </trkpt>
      <trkpt lat="49.21659" lon="0.03325">
        <ele>150.6</ele>
        <time>2023-12-06T15:18:10Z</time>
      </trkpt>
      <trkpt lat="49.21653" lon="0.03316">
        <ele>150.2</ele>
        <time>2023-12-06T15:18:11Z</time>
      </trkpt>
      <trkpt lat="49.21647" lon="0.03308">
        <ele>150.2</ele>
        <time>2023-12-06T15:18:12Z</time>
      </trkpt>
      <trkpt lat="49.21641" lon="0.033">
        <ele>150.2</ele>
        <time>2023-12-06T15:18:13Z</time>
      </trkpt>
      <trkpt lat="49.21635" lon="0.03291">
        <ele>150</ele>
        <time>2023-12-06T15:18:14Z</time>
      </trkpt>
      <trkpt lat="49.21628" lon="0.03283">
        <ele>150</ele>
        <time>2023-12-06T15:18:15Z</time>
      </trkpt>
      <trkpt lat="49.21622" lon="0.03274">
        <ele>149.8</ele>
        <time>2023-12-06T15:18:16Z</time>
      </trkpt>
      <trkpt lat="49.21616" lon="0.03265">
        <ele>149.6</ele>
        <time>2023-12-06T15:18:17Z</time>
      </trkpt>
      <trkpt lat="49.21609" lon="0.03256">
        <ele>149.6</ele>
        <time>2023-12-06T15:18:18Z</time>
      </trkpt>
      <trkpt lat="49.21603" lon="0.03247">
        <ele>149.2</ele>
        <time>2023-12-06T15:18:19Z</time>
      </trkpt>
      <trkpt lat="49.21597" lon="0.03238">
        <ele>149</ele>
        <time>2023-12-06T15:18:20Z</time>
      </trkpt>
      <trkpt lat="49.21592" lon="0.03228">
        <ele>149</ele>
        <time>2023-12-06T15:18:21Z</time>
      </trkpt>
      <trkpt lat="49.21586" lon="0.03217">
        <ele>149</ele>
        <time>2023-12-06T15:18:22Z</time>
      </trkpt>
      <trkpt lat="49.21581" lon="0.03207">
        <ele>149</ele>
        <time>2023-12-06T15:18:23Z</time>
      </trkpt>
      <trkpt lat="49.21576" lon="0.03197">
        <ele>148.8</ele>
        <time>2023-12-06T15:18:24Z</time>
      </trkpt>
      <trkpt lat="49.2157" lon="0.03186">
        <ele>148.8</ele>
        <time>2023-12-06T15:18:25Z</time>
      </trkpt>
      <trkpt lat="49.21565" lon="0.03175">
        <ele>148.6</ele>
        <time>2023-12-06T15:18:26Z</time>
      </trkpt>
      <trkpt lat="49.2156" lon="0.03164">
        <ele>148.6</ele>
        <time>2023-12-06T15:18:27Z</time>
      </trkpt>
      <trkpt lat="49.21555" lon="0.03153">
        <ele>148.4</ele>
        <time>2023-12-06T15:18:28Z</time>
      </trkpt>
      <trkpt lat="49.2155" lon="0.03142">
        <ele>148.4</ele>
        <time>2023-12-06T15:18:29Z</time>
      </trkpt>
      <trkpt lat="49.21544" lon="0.03131">
        <ele>148.2</ele>
        <time>2023-12-06T15:18:30Z</time>
      </trkpt>
      <trkpt lat="49.21539" lon="0.0312">
        <ele>148</ele>
        <time>2023-12-06T15:18:31Z</time>
      </trkpt>
      <trkpt lat="49.21535" lon="0.03108">
        <ele>147.8</ele>
        <time>2023-12-06T15:18:32Z</time>
      </trkpt>
      <trkpt lat="49.21529" lon="0.03097">
        <ele>147.6</ele>
        <time>2023-12-06T15:18:33Z</time>
      </trkpt>
      <trkpt lat="49.21524" lon="0.03085">
        <ele>147.2</ele>
        <time>2023-12-06T15:18:34Z</time>
      </trkpt>
      <trkpt lat="49.21519" lon="0.03073">
        <ele>147</ele>
        <time>2023-12-06T15:18:35Z</time>
      </trkpt>
      <trkpt lat="49.21514" lon="0.0306">
        <ele>146.8</ele>
        <time>2023-12-06T15:18:36Z</time>
      </trkpt>
      <trkpt lat="49.21509" lon="0.03047">
        <ele>146.4</ele>
        <time>2023-12-06T15:18:37Z</time>
      </trkpt>
      <trkpt lat="49.21504" lon="0.03034">
        <ele>146.2</ele>
        <time>2023-12-06T15:18:38Z</time>
      </trkpt>
      <trkpt lat="49.21499" lon="0.0302">
        <ele>145.8</ele>
        <time>2023-12-06T15:18:39Z</time>
      </trkpt>
      <trkpt lat="49.21494" lon="0.03006">
        <ele>145.4</ele>
        <time>2023-12-06T15:18:40Z</time>
      </trkpt>
      <trkpt lat="49.2149" lon="0.0299">
        <ele>145</ele>
        <time>2023-12-06T15:18:41Z</time>
      </trkpt>
      <trkpt lat="49.21487" lon="0.02974">
        <ele>144.6</ele>
        <time>2023-12-06T15:18:42Z</time>
      </trkpt>
      <trkpt lat="49.21484" lon="0.02958">
        <ele>143.8</ele>
        <time>2023-12-06T15:18:43Z</time>
      </trkpt>
      <trkpt lat="49.21482" lon="0.02942">
        <ele>143.2</ele>
        <time>2023-12-06T15:18:44Z</time>
      </trkpt>
      <trkpt lat="49.21479" lon="0.02925">
        <ele>142.8</ele>
        <time>2023-12-06T15:18:45Z</time>
      </trkpt>
      <trkpt lat="49.21476" lon="0.0291">
        <ele>142</ele>
        <time>2023-12-06T15:18:46Z</time>
      </trkpt>
      <trkpt lat="49.21472" lon="0.02895">
        <ele>141</ele>
        <time>2023-12-06T15:18:47Z</time>
      </trkpt>
      <trkpt lat="49.21467" lon="0.02881">
        <ele>140</ele>
        <time>2023-12-06T15:18:48Z</time>
      </trkpt>
      <trkpt lat="49.21461" lon="0.02869">
        <ele>139.4</ele>
        <time>2023-12-06T15:18:49Z</time>
      </trkpt>
      <trkpt lat="49.21456" lon="0.02857">
        <ele>138.6</ele>
        <time>2023-12-06T15:18:50Z</time>
      </trkpt>
      <trkpt lat="49.2145" lon="0.02847">
        <ele>137.6</ele>
        <time>2023-12-06T15:18:51Z</time>
      </trkpt>
      <trkpt lat="49.21445" lon="0.02837">
        <ele>137.2</ele>
        <time>2023-12-06T15:18:52Z</time>
      </trkpt>
      <trkpt lat="49.2144" lon="0.02828">
        <ele>137</ele>
        <time>2023-12-06T15:18:53Z</time>
      </trkpt>
      <trkpt lat="49.21435" lon="0.02819">
        <ele>137</ele>
        <time>2023-12-06T15:18:54Z</time>
      </trkpt>
      <trkpt lat="49.2143" lon="0.02811">
        <ele>136.8</ele>
        <time>2023-12-06T15:18:55Z</time>
      </trkpt>
      <trkpt lat="49.21425" lon="0.02803">
        <ele>136.8</ele>
        <time>2023-12-06T15:18:56Z</time>
      </trkpt>
      <trkpt lat="49.21421" lon="0.02795">
        <ele>136.8</ele>
        <time>2023-12-06T15:18:57Z</time>
      </trkpt>
      <trkpt lat="49.21416" lon="0.02787">
        <ele>136.8</ele>
        <time>2023-12-06T15:18:58Z</time>
      </trkpt>
      <trkpt lat="49.21412" lon="0.02779">
        <ele>136.8</ele>
        <time>2023-12-06T15:18:59Z</time>
      </trkpt>
      <trkpt lat="49.21408" lon="0.02772">
        <ele>136.8</ele>
        <time>2023-12-06T15:19:00Z</time>
      </trkpt>
      <trkpt lat="49.21404" lon="0.02765">
        <ele>136.8</ele>
        <time>2023-12-06T15:19:01Z</time>
      </trkpt>
      <trkpt lat="49.21401" lon="0.02757">
        <ele>137.2</ele>
        <time>2023-12-06T15:19:02Z</time>
      </trkpt>
      <trkpt lat="49.21397" lon="0.0275">
        <ele>137.8</ele>
        <time>2023-12-06T15:19:03Z</time>
      </trkpt>
      <trkpt lat="49.21393" lon="0.02744">
        <ele>138.2</ele>
        <time>2023-12-06T15:19:04Z</time>
      </trkpt>
      <trkpt lat="49.21389" lon="0.02738">
        <ele>138.6</ele>
        <time>2023-12-06T15:19:05Z</time>
      </trkpt>
      <trkpt lat="49.21385" lon="0.02731">
        <ele>139</ele>
        <time>2023-12-06T15:19:06Z</time>
      </trkpt>
      <trkpt lat="49.21381" lon="0.02724">
        <ele>139.4</ele>
        <time>2023-12-06T15:19:07Z</time>
      </trkpt>
      <trkpt lat="49.21378" lon="0.02717">
        <ele>140</ele>
        <time>2023-12-06T15:19:08Z</time>
      </trkpt>
      <trkpt lat="49.21376" lon="0.02709">
        <ele>140.6</ele>
        <time>2023-12-06T15:19:09Z</time>
      </trkpt>
      <trkpt lat="49.21374" lon="0.02702">
        <ele>141</ele>
        <time>2023-12-06T15:19:10Z</time>
      </trkpt>
      <trkpt lat="49.21372" lon="0.02694">
        <ele>141.4</ele>
        <time>2023-12-06T15:19:11Z</time>
      </trkpt>
      <trkpt lat="49.21371" lon="0.02685">
        <ele>141.8</ele>
        <time>2023-12-06T15:19:12Z</time>
      </trkpt>
      <trkpt lat="49.2137" lon="0.02677">
        <ele>142.2</ele>
        <time>2023-12-06T15:19:13Z</time>
      </trkpt>
      <trkpt lat="49.21369" lon="0.02669">
        <ele>142.4</ele>
        <time>2023-12-06T15:19:14Z</time>
      </trkpt>
      <trkpt lat="49.21368" lon="0.0266">
        <ele>143</ele>
        <time>2023-12-06T15:19:15Z</time>
      </trkpt>
      <trkpt lat="49.21368" lon="0.02652">
        <ele>143.4</ele>
        <time>2023-12-06T15:19:16Z</time>
      </trkpt>
      <trkpt lat="49.21367" lon="0.02644">
        <ele>143.8</ele>
        <time>2023-12-06T15:19:17Z</time>
      </trkpt>
      <trkpt lat="49.21367" lon="0.02636">
        <ele>144.2</ele>
        <time>2023-12-06T15:19:18Z</time>
      </trkpt>
      <trkpt lat="49.21366" lon="0.02628">
        <ele>144.6</ele>
        <time>2023-12-06T15:19:19Z</time>
      </trkpt>
      <trkpt lat="49.21366" lon="0.02621">
        <ele>145</ele>
        <time>2023-12-06T15:19:20Z</time>
      </trkpt>
      <trkpt lat="49.21365" lon="0.02614">
        <ele>145.2</ele>
        <time>2023-12-06T15:19:21Z</time>
      </trkpt>
      <trkpt lat="49.21364" lon="0.02606">
        <ele>145.4</ele>
        <time>2023-12-06T15:19:22Z</time>
      </trkpt>
      <trkpt lat="49.21362" lon="0.02599">
        <ele>145.6</ele>
        <time>2023-12-06T15:19:23Z</time>
      </trkpt>
      <trkpt lat="49.21361" lon="0.02592">
        <ele>145.8</ele>
        <time>2023-12-06T15:19:24Z</time>
      </trkpt>
      <trkpt lat="49.2136" lon="0.02585">
        <ele>146</ele>
        <time>2023-12-06T15:19:25Z</time>
      </trkpt>
      <trkpt lat="49.21359" lon="0.02577">
        <ele>146.2</ele>
        <time>2023-12-06T15:19:26Z</time>
      </trkpt>
      <trkpt lat="49.21358" lon="0.02569">
        <ele>146.2</ele>
        <time>2023-12-06T15:19:27Z</time>
      </trkpt>
      <trkpt lat="49.21357" lon="0.02561">
        <ele>146.4</ele>
        <time>2023-12-06T15:19:28Z</time>
      </trkpt>
      <trkpt lat="49.21356" lon="0.02552">
        <ele>146.4</ele>
        <time>2023-12-06T15:19:29Z</time>
      </trkpt>
      <trkpt lat="49.21354" lon="0.02543">
        <ele>146.4</ele>
        <time>2023-12-06T15:19:30Z</time>
      </trkpt>
      <trkpt lat="49.21352" lon="0.02535">
        <ele>146.6</ele>
        <time>2023-12-06T15:19:31Z</time>
      </trkpt>
      <trkpt lat="49.21351" lon="0.02527">
        <ele>146.6</ele>
        <time>2023-12-06T15:19:32Z</time>
      </trkpt>
      <trkpt lat="49.21349" lon="0.02519">
        <ele>146.6</ele>
        <time>2023-12-06T15:19:33Z</time>
      </trkpt>
      <trkpt lat="49.21346" lon="0.02511">
        <ele>146.6</ele>
        <time>2023-12-06T15:19:34Z</time>
      </trkpt>
      <trkpt lat="49.21343" lon="0.02503">
        <ele>146.6</ele>
        <time>2023-12-06T15:19:35Z</time>
      </trkpt>
      <trkpt lat="49.21339" lon="0.02495">
        <ele>146.6</ele>
        <time>2023-12-06T15:19:36Z</time>
      </trkpt>
      <trkpt lat="49.21335" lon="0.02486">
        <ele>146.6</ele>
        <time>2023-12-06T15:19:37Z</time>
      </trkpt>
      <trkpt lat="49.21332" lon="0.02476">
        <ele>146.6</ele>
        <time>2023-12-06T15:19:38Z</time>
      </trkpt>
      <trkpt lat="49.21329" lon="0.02466">
        <ele>146.6</ele>
        <time>2023-12-06T15:19:39Z</time>
      </trkpt>
      <trkpt lat="49.21327" lon="0.02455">
        <ele>146.4</ele>
        <time>2023-12-06T15:19:40Z</time>
      </trkpt>
      <trkpt lat="49.21327" lon="0.02444">
        <ele>146.4</ele>
        <time>2023-12-06T15:19:41Z</time>
      </trkpt>
      <trkpt lat="49.21327" lon="0.02433">
        <ele>146.4</ele>
        <time>2023-12-06T15:19:42Z</time>
      </trkpt>
      <trkpt lat="49.21327" lon="0.02422">
        <ele>146.2</ele>
        <time>2023-12-06T15:19:43Z</time>
      </trkpt>
      <trkpt lat="49.21328" lon="0.02411">
        <ele>146.2</ele>
        <time>2023-12-06T15:19:44Z</time>
      </trkpt>
      <trkpt lat="49.21329" lon="0.024">
        <ele>146</ele>
        <time>2023-12-06T15:19:45Z</time>
      </trkpt>
      <trkpt lat="49.21331" lon="0.0239">
        <ele>146</ele>
        <time>2023-12-06T15:19:46Z</time>
      </trkpt>
      <trkpt lat="49.21332" lon="0.02378">
        <ele>145.6</ele>
        <time>2023-12-06T15:19:47Z</time>
      </trkpt>
      <trkpt lat="49.21333" lon="0.02367">
        <ele>145.4</ele>
        <time>2023-12-06T15:19:48Z</time>
      </trkpt>
      <trkpt lat="49.21334" lon="0.02357">
        <ele>145.4</ele>
        <time>2023-12-06T15:19:49Z</time>
      </trkpt>
      <trkpt lat="49.21335" lon="0.02346">
        <ele>145.4</ele>
        <time>2023-12-06T15:19:50Z</time>
      </trkpt>
      <trkpt lat="49.21336" lon="0.02336">
        <ele>145.2</ele>
        <time>2023-12-06T15:19:51Z</time>
      </trkpt>
      <trkpt lat="49.21338" lon="0.02325">
        <ele>145.2</ele>
        <time>2023-12-06T15:19:52Z</time>
      </trkpt>
      <trkpt lat="49.21339" lon="0.02316">
        <ele>145.2</ele>
        <time>2023-12-06T15:19:53Z</time>
      </trkpt>
      <trkpt lat="49.21341" lon="0.02306">
        <ele>145.2</ele>
        <time>2023-12-06T15:19:54Z</time>
      </trkpt>
      <trkpt lat="49.21341" lon="0.02296">
        <ele>145.2</ele>
        <time>2023-12-06T15:19:55Z</time>
      </trkpt>
      <trkpt lat="49.21342" lon="0.02286">
        <ele>145.2</ele>
        <time>2023-12-06T15:19:56Z</time>
      </trkpt>
      <trkpt lat="49.21344" lon="0.02276">
        <ele>145.4</ele>
        <time>2023-12-06T15:19:57Z</time>
      </trkpt>
      <trkpt lat="49.21344" lon="0.02267">
        <ele>145.4</ele>
        <time>2023-12-06T15:19:58Z</time>
      </trkpt>
      <trkpt lat="49.21345" lon="0.02257">
        <ele>145.4</ele>
        <time>2023-12-06T15:19:59Z</time>
      </trkpt>
      <trkpt lat="49.21346" lon="0.02247">
        <ele>145.6</ele>
        <time>2023-12-06T15:20:00Z</time>
      </trkpt>
      <trkpt lat="49.21347" lon="0.02237">
        <ele>145.6</ele>
        <time>2023-12-06T15:20:01Z</time>
      </trkpt>
      <trkpt lat="49.21348" lon="0.02227">
        <ele>145.8</ele>
        <time>2023-12-06T15:20:02Z</time>
      </trkpt>
      <trkpt lat="49.21349" lon="0.02218">
        <ele>146</ele>
        <time>2023-12-06T15:20:03Z</time>
      </trkpt>
      <trkpt lat="49.2135" lon="0.02207">
        <ele>146.2</ele>
        <time>2023-12-06T15:20:04Z</time>
      </trkpt>
      <trkpt lat="49.21351" lon="0.02198">
        <ele>146.4</ele>
        <time>2023-12-06T15:20:05Z</time>
      </trkpt>
      <trkpt lat="49.21352" lon="0.02188">
        <ele>146.8</ele>
        <time>2023-12-06T15:20:06Z</time>
      </trkpt>
      <trkpt lat="49.21353" lon="0.02178">
        <ele>147</ele>
        <time>2023-12-06T15:20:07Z</time>
      </trkpt>
      <trkpt lat="49.21354" lon="0.02167">
        <ele>147</ele>
        <time>2023-12-06T15:20:08Z</time>
      </trkpt>
      <trkpt lat="49.21355" lon="0.02157">
        <ele>147.4</ele>
        <time>2023-12-06T15:20:09Z</time>
      </trkpt>
      <trkpt lat="49.21356" lon="0.02147">
        <ele>147.8</ele>
        <time>2023-12-06T15:20:10Z</time>
      </trkpt>
      <trkpt lat="49.21357" lon="0.02137">
        <ele>147.8</ele>
        <time>2023-12-06T15:20:11Z</time>
      </trkpt>
      <trkpt lat="49.21358" lon="0.02127">
        <ele>148</ele>
        <time>2023-12-06T15:20:12Z</time>
      </trkpt>
      <trkpt lat="49.21359" lon="0.02117">
        <ele>148</ele>
        <time>2023-12-06T15:20:13Z</time>
      </trkpt>
      <trkpt lat="49.21359" lon="0.02107">
        <ele>148.2</ele>
        <time>2023-12-06T15:20:14Z</time>
      </trkpt>
      <trkpt lat="49.2136" lon="0.02097">
        <ele>148.4</ele>
        <time>2023-12-06T15:20:15Z</time>
      </trkpt>
      <trkpt lat="49.21361" lon="0.02087">
        <ele>148.6</ele>
        <time>2023-12-06T15:20:16Z</time>
      </trkpt>
      <trkpt lat="49.21362" lon="0.02077">
        <ele>149</ele>
        <time>2023-12-06T15:20:17Z</time>
      </trkpt>
      <trkpt lat="49.21363" lon="0.02067">
        <ele>149</ele>
        <time>2023-12-06T15:20:18Z</time>
      </trkpt>
      <trkpt lat="49.21364" lon="0.02056">
        <ele>149.2</ele>
        <time>2023-12-06T15:20:19Z</time>
      </trkpt>
      <trkpt lat="49.21366" lon="0.02046">
        <ele>149.2</ele>
        <time>2023-12-06T15:20:20Z</time>
      </trkpt>
      <trkpt lat="49.21367" lon="0.02037">
        <ele>149.2</ele>
        <time>2023-12-06T15:20:21Z</time>
      </trkpt>
      <trkpt lat="49.21368" lon="0.02027">
        <ele>149.2</ele>
        <time>2023-12-06T15:20:22Z</time>
      </trkpt>
      <trkpt lat="49.21369" lon="0.02017">
        <ele>149.2</ele>
        <time>2023-12-06T15:20:23Z</time>
      </trkpt>
      <trkpt lat="49.2137" lon="0.02007">
        <ele>149.2</ele>
        <time>2023-12-06T15:20:24Z</time>
      </trkpt>
      <trkpt lat="49.21371" lon="0.01997">
        <ele>149.2</ele>
        <time>2023-12-06T15:20:25Z</time>
      </trkpt>
      <trkpt lat="49.21372" lon="0.01987">
        <ele>149.2</ele>
        <time>2023-12-06T15:20:26Z</time>
      </trkpt>
      <trkpt lat="49.21373" lon="0.01977">
        <ele>149.2</ele>
        <time>2023-12-06T15:20:27Z</time>
      </trkpt>
      <trkpt lat="49.21374" lon="0.01967">
        <ele>149.2</ele>
        <time>2023-12-06T15:20:28Z</time>
      </trkpt>
      <trkpt lat="49.21375" lon="0.01956">
        <ele>149</ele>
        <time>2023-12-06T15:20:29Z</time>
      </trkpt>
      <trkpt lat="49.21376" lon="0.01946">
        <ele>148.8</ele>
        <time>2023-12-06T15:20:30Z</time>
      </trkpt>
      <trkpt lat="49.21377" lon="0.01936">
        <ele>148.8</ele>
        <time>2023-12-06T15:20:31Z</time>
      </trkpt>
      <trkpt lat="49.21378" lon="0.01925">
        <ele>148.6</ele>
        <time>2023-12-06T15:20:32Z</time>
      </trkpt>
      <trkpt lat="49.21379" lon="0.01915">
        <ele>148.6</ele>
        <time>2023-12-06T15:20:33Z</time>
      </trkpt>
      <trkpt lat="49.2138" lon="0.01905">
        <ele>148.4</ele>
        <time>2023-12-06T15:20:34Z</time>
      </trkpt>
      <trkpt lat="49.21382" lon="0.01896">
        <ele>148.2</ele>
        <time>2023-12-06T15:20:35Z</time>
      </trkpt>
      <trkpt lat="49.21384" lon="0.01886">
        <ele>148.2</ele>
        <time>2023-12-06T15:20:36Z</time>
      </trkpt>
      <trkpt lat="49.21385" lon="0.01875">
        <ele>148</ele>
        <time>2023-12-06T15:20:37Z</time>
      </trkpt>
      <trkpt lat="49.21387" lon="0.01864">
        <ele>148</ele>
        <time>2023-12-06T15:20:38Z</time>
      </trkpt>
      <trkpt lat="49.21388" lon="0.01854">
        <ele>148</ele>
        <time>2023-12-06T15:20:39Z</time>
      </trkpt>
      <trkpt lat="49.2139" lon="0.01844">
        <ele>148</ele>
        <time>2023-12-06T15:20:40Z</time>
      </trkpt>
      <trkpt lat="49.21392" lon="0.01835">
        <ele>148</ele>
        <time>2023-12-06T15:20:41Z</time>
      </trkpt>
      <trkpt lat="49.21393" lon="0.01825">
        <ele>148</ele>
        <time>2023-12-06T15:20:42Z</time>
      </trkpt>
      <trkpt lat="49.21394" lon="0.01816">
        <ele>148</ele>
        <time>2023-12-06T15:20:43Z</time>
      </trkpt>
      <trkpt lat="49.21396" lon="0.01807">
        <ele>148</ele>
        <time>2023-12-06T15:20:44Z</time>
      </trkpt>
      <trkpt lat="49.21397" lon="0.01798">
        <ele>148</ele>
        <time>2023-12-06T15:20:45Z</time>
      </trkpt>
      <trkpt lat="49.21399" lon="0.0179">
        <ele>148</ele>
        <time>2023-12-06T15:20:46Z</time>
      </trkpt>
      <trkpt lat="49.21401" lon="0.01782">
        <ele>148</ele>
        <time>2023-12-06T15:20:47Z</time>
      </trkpt>
      <trkpt lat="49.21402" lon="0.01774">
        <ele>148</ele>
        <time>2023-12-06T15:20:48Z</time>
      </trkpt>
      <trkpt lat="49.21404" lon="0.01766">
        <ele>148.2</ele>
        <time>2023-12-06T15:20:49Z</time>
      </trkpt>
      <trkpt lat="49.21406" lon="0.01758">
        <ele>148.4</ele>
        <time>2023-12-06T15:20:50Z</time>
      </trkpt>
      <trkpt lat="49.21408" lon="0.01751">
        <ele>148.8</ele>
        <time>2023-12-06T15:20:51Z</time>
      </trkpt>
      <trkpt lat="49.2141" lon="0.01743">
        <ele>149</ele>
        <time>2023-12-06T15:20:52Z</time>
      </trkpt>
      <trkpt lat="49.21413" lon="0.01736">
        <ele>149.2</ele>
        <time>2023-12-06T15:20:53Z</time>
      </trkpt>
      <trkpt lat="49.21415" lon="0.01729">
        <ele>149.2</ele>
        <time>2023-12-06T15:20:54Z</time>
      </trkpt>
      <trkpt lat="49.21417" lon="0.01722">
        <ele>149.4</ele>
        <time>2023-12-06T15:20:55Z</time>
      </trkpt>
      <trkpt lat="49.2142" lon="0.01715">
        <ele>149.8</ele>
        <time>2023-12-06T15:20:56Z</time>
      </trkpt>
      <trkpt lat="49.21423" lon="0.01709">
        <ele>150</ele>
        <time>2023-12-06T15:20:57Z</time>
      </trkpt>
      <trkpt lat="49.21425" lon="0.01702">
        <ele>150.2</ele>
        <time>2023-12-06T15:20:58Z</time>
      </trkpt>
      <trkpt lat="49.21428" lon="0.01695">
        <ele>150.2</ele>
        <time>2023-12-06T15:20:59Z</time>
      </trkpt>
      <trkpt lat="49.21431" lon="0.01687">
        <ele>150.4</ele>
        <time>2023-12-06T15:21:00Z</time>
      </trkpt>
      <trkpt lat="49.21434" lon="0.0168">
        <ele>150.6</ele>
        <time>2023-12-06T15:21:01Z</time>
      </trkpt>
      <trkpt lat="49.21438" lon="0.01672">
        <ele>150.8</ele>
        <time>2023-12-06T15:21:02Z</time>
      </trkpt>
      <trkpt lat="49.21442" lon="0.01664">
        <ele>151</ele>
        <time>2023-12-06T15:21:03Z</time>
      </trkpt>
      <trkpt lat="49.21446" lon="0.01656">
        <ele>151.4</ele>
        <time>2023-12-06T15:21:04Z</time>
      </trkpt>
      <trkpt lat="49.21449" lon="0.01648">
        <ele>151.6</ele>
        <time>2023-12-06T15:21:05Z</time>
      </trkpt>
      <trkpt lat="49.21452" lon="0.01639">
        <ele>151.6</ele>
        <time>2023-12-06T15:21:06Z</time>
      </trkpt>
      <trkpt lat="49.21455" lon="0.01631">
        <ele>152</ele>
        <time>2023-12-06T15:21:07Z</time>
      </trkpt>
      <trkpt lat="49.21459" lon="0.01622">
        <ele>152.2</ele>
        <time>2023-12-06T15:21:08Z</time>
      </trkpt>
      <trkpt lat="49.21462" lon="0.01613">
        <ele>152.4</ele>
        <time>2023-12-06T15:21:09Z</time>
      </trkpt>
      <trkpt lat="49.21466" lon="0.01604">
        <ele>152.6</ele>
        <time>2023-12-06T15:21:10Z</time>
      </trkpt>
      <trkpt lat="49.21468" lon="0.01594">
        <ele>152.6</ele>
        <time>2023-12-06T15:21:11Z</time>
      </trkpt>
      <trkpt lat="49.21471" lon="0.01585">
        <ele>152.8</ele>
        <time>2023-12-06T15:21:12Z</time>
      </trkpt>
      <trkpt lat="49.21474" lon="0.01575">
        <ele>152.8</ele>
        <time>2023-12-06T15:21:13Z</time>
      </trkpt>
      <trkpt lat="49.21476" lon="0.01564">
        <ele>153</ele>
        <time>2023-12-06T15:21:14Z</time>
      </trkpt>
      <trkpt lat="49.21478" lon="0.01553">
        <ele>153.2</ele>
        <time>2023-12-06T15:21:15Z</time>
      </trkpt>
      <trkpt lat="49.21479" lon="0.01542">
        <ele>153.4</ele>
        <time>2023-12-06T15:21:16Z</time>
      </trkpt>
      <trkpt lat="49.21479" lon="0.01531">
        <ele>153.6</ele>
        <time>2023-12-06T15:21:17Z</time>
      </trkpt>
      <trkpt lat="49.21479" lon="0.0152">
        <ele>153.8</ele>
        <time>2023-12-06T15:21:18Z</time>
      </trkpt>
      <trkpt lat="49.21478" lon="0.01509">
        <ele>154</ele>
        <time>2023-12-06T15:21:19Z</time>
      </trkpt>
      <trkpt lat="49.21477" lon="0.01499">
        <ele>154.2</ele>
        <time>2023-12-06T15:21:20Z</time>
      </trkpt>
      <trkpt lat="49.21477" lon="0.01489">
        <ele>154.2</ele>
        <time>2023-12-06T15:21:21Z</time>
      </trkpt>
      <trkpt lat="49.21476" lon="0.01478">
        <ele>154.4</ele>
        <time>2023-12-06T15:21:22Z</time>
      </trkpt>
      <trkpt lat="49.21476" lon="0.01468">
        <ele>154.6</ele>
        <time>2023-12-06T15:21:23Z</time>
      </trkpt>
      <trkpt lat="49.21477" lon="0.01458">
        <ele>154.8</ele>
        <time>2023-12-06T15:21:24Z</time>
      </trkpt>
      <trkpt lat="49.21478" lon="0.01448">
        <ele>155</ele>
        <time>2023-12-06T15:21:25Z</time>
      </trkpt>
      <trkpt lat="49.21481" lon="0.01438">
        <ele>155.2</ele>
        <time>2023-12-06T15:21:26Z</time>
      </trkpt>
      <trkpt lat="49.21485" lon="0.01429">
        <ele>155.4</ele>
        <time>2023-12-06T15:21:27Z</time>
      </trkpt>
      <trkpt lat="49.21489" lon="0.0142">
        <ele>155.6</ele>
        <time>2023-12-06T15:21:28Z</time>
      </trkpt>
      <trkpt lat="49.21493" lon="0.01412">
        <ele>155.8</ele>
        <time>2023-12-06T15:21:29Z</time>
      </trkpt>
      <trkpt lat="49.21498" lon="0.01404">
        <ele>156</ele>
        <time>2023-12-06T15:21:30Z</time>
      </trkpt>
      <trkpt lat="49.21503" lon="0.01395">
        <ele>156</ele>
        <time>2023-12-06T15:21:31Z</time>
      </trkpt>
      <trkpt lat="49.21507" lon="0.01387">
        <ele>156</ele>
        <time>2023-12-06T15:21:32Z</time>
      </trkpt>
      <trkpt lat="49.2151" lon="0.01377">
        <ele>156</ele>
        <time>2023-12-06T15:21:33Z</time>
      </trkpt>
      <trkpt lat="49.21513" lon="0.01368">
        <ele>156</ele>
        <time>2023-12-06T15:21:34Z</time>
      </trkpt>
      <trkpt lat="49.21517" lon="0.01358">
        <ele>156</ele>
        <time>2023-12-06T15:21:35Z</time>
      </trkpt>
      <trkpt lat="49.2152" lon="0.01348">
        <ele>156</ele>
        <time>2023-12-06T15:21:36Z</time>
      </trkpt>
      <trkpt lat="49.21523" lon="0.01338">
        <ele>156</ele>
        <time>2023-12-06T15:21:37Z</time>
      </trkpt>
      <trkpt lat="49.21526" lon="0.01328">
        <ele>156</ele>
        <time>2023-12-06T15:21:38Z</time>
      </trkpt>
      <trkpt lat="49.21529" lon="0.01318">
        <ele>156</ele>
        <time>2023-12-06T15:21:39Z</time>
      </trkpt>
      <trkpt lat="49.21533" lon="0.01308">
        <ele>155.8</ele>
        <time>2023-12-06T15:21:40Z</time>
      </trkpt>
      <trkpt lat="49.21537" lon="0.01298">
        <ele>155.6</ele>
        <time>2023-12-06T15:21:41Z</time>
      </trkpt>
      <trkpt lat="49.21541" lon="0.01288">
        <ele>155.2</ele>
        <time>2023-12-06T15:21:42Z</time>
      </trkpt>
      <trkpt lat="49.21544" lon="0.01277">
        <ele>155.2</ele>
        <time>2023-12-06T15:21:43Z</time>
      </trkpt>
      <trkpt lat="49.21548" lon="0.01266">
        <ele>155</ele>
        <time>2023-12-06T15:21:44Z</time>
      </trkpt>
      <trkpt lat="49.21551" lon="0.01255">
        <ele>155</ele>
        <time>2023-12-06T15:21:45Z</time>
      </trkpt>
      <trkpt lat="49.21554" lon="0.01244">
        <ele>154.6</ele>
        <time>2023-12-06T15:21:46Z</time>
      </trkpt>
      <trkpt lat="49.21557" lon="0.01232">
        <ele>154.4</ele>
        <time>2023-12-06T15:21:47Z</time>
      </trkpt>
      <trkpt lat="49.21561" lon="0.01221">
        <ele>154.4</ele>
        <time>2023-12-06T15:21:48Z</time>
      </trkpt>
      <trkpt lat="49.21564" lon="0.01209">
        <ele>154.2</ele>
        <time>2023-12-06T15:21:49Z</time>
      </trkpt>
      <trkpt lat="49.21567" lon="0.01198">
        <ele>153.8</ele>
        <time>2023-12-06T15:21:50Z</time>
      </trkpt>
      <trkpt lat="49.2157" lon="0.01186">
        <ele>153.6</ele>
        <time>2023-12-06T15:21:51Z</time>
      </trkpt>
      <trkpt lat="49.21573" lon="0.01175">
        <ele>153.6</ele>
        <time>2023-12-06T15:21:52Z</time>
      </trkpt>
      <trkpt lat="49.21576" lon="0.01163">
        <ele>153.4</ele>
        <time>2023-12-06T15:21:53Z</time>
      </trkpt>
      <trkpt lat="49.21578" lon="0.01152">
        <ele>153.2</ele>
        <time>2023-12-06T15:21:54Z</time>
      </trkpt>
      <trkpt lat="49.21581" lon="0.01141">
        <ele>153</ele>
        <time>2023-12-06T15:21:55Z</time>
      </trkpt>
      <trkpt lat="49.21584" lon="0.01128">
        <ele>153</ele>
        <time>2023-12-06T15:21:56Z</time>
      </trkpt>
      <trkpt lat="49.21588" lon="0.01116">
        <ele>152.8</ele>
        <time>2023-12-06T15:21:57Z</time>
      </trkpt>
      <trkpt lat="49.21591" lon="0.01104">
        <ele>152.6</ele>
        <time>2023-12-06T15:21:58Z</time>
      </trkpt>
      <trkpt lat="49.21595" lon="0.01092">
        <ele>152.4</ele>
        <time>2023-12-06T15:21:59Z</time>
      </trkpt>
      <trkpt lat="49.21599" lon="0.01081">
        <ele>152.2</ele>
        <time>2023-12-06T15:22:00Z</time>
      </trkpt>
      <trkpt lat="49.21604" lon="0.01068">
        <ele>151.8</ele>
        <time>2023-12-06T15:22:01Z</time>
      </trkpt>
      <trkpt lat="49.21608" lon="0.01056">
        <ele>151.8</ele>
        <time>2023-12-06T15:22:02Z</time>
      </trkpt>
      <trkpt lat="49.21613" lon="0.01045">
        <ele>151.6</ele>
        <time>2023-12-06T15:22:03Z</time>
      </trkpt>
      <trkpt lat="49.21618" lon="0.01035">
        <ele>151.4</ele>
        <time>2023-12-06T15:22:04Z</time>
      </trkpt>
      <trkpt lat="49.21625" lon="0.01025">
        <ele>151.2</ele>
        <time>2023-12-06T15:22:05Z</time>
      </trkpt>
      <trkpt lat="49.21632" lon="0.01017">
        <ele>150.8</ele>
        <time>2023-12-06T15:22:06Z</time>
      </trkpt>
      <trkpt lat="49.21639" lon="0.0101">
        <ele>150.4</ele>
        <time>2023-12-06T15:22:07Z</time>
      </trkpt>
      <trkpt lat="49.21647" lon="0.01003">
        <ele>150.2</ele>
        <time>2023-12-06T15:22:08Z</time>
      </trkpt>
      <trkpt lat="49.21654" lon="0.00997">
        <ele>150</ele>
        <time>2023-12-06T15:22:09Z</time>
      </trkpt>
      <trkpt lat="49.21661" lon="0.0099">
        <ele>149.6</ele>
        <time>2023-12-06T15:22:10Z</time>
      </trkpt>
      <trkpt lat="49.21668" lon="0.00983">
        <ele>149.4</ele>
        <time>2023-12-06T15:22:11Z</time>
      </trkpt>
      <trkpt lat="49.21675" lon="0.00976">
        <ele>149.2</ele>
        <time>2023-12-06T15:22:12Z</time>
      </trkpt>
      <trkpt lat="49.21682" lon="0.00968">
        <ele>149</ele>
        <time>2023-12-06T15:22:13Z</time>
      </trkpt>
      <trkpt lat="49.21688" lon="0.0096">
        <ele>149</ele>
        <time>2023-12-06T15:22:14Z</time>
      </trkpt>
      <trkpt lat="49.21695" lon="0.00951">
        <ele>148.8</ele>
        <time>2023-12-06T15:22:15Z</time>
      </trkpt>
      <trkpt lat="49.21701" lon="0.00941">
        <ele>148.6</ele>
        <time>2023-12-06T15:22:16Z</time>
      </trkpt>
      <trkpt lat="49.21707" lon="0.00931">
        <ele>148.6</ele>
        <time>2023-12-06T15:22:17Z</time>
      </trkpt>
      <trkpt lat="49.21713" lon="0.0092">
        <ele>148.4</ele>
        <time>2023-12-06T15:22:18Z</time>
      </trkpt>
      <trkpt lat="49.21718" lon="0.0091">
        <ele>148.4</ele>
        <time>2023-12-06T15:22:19Z</time>
      </trkpt>
      <trkpt lat="49.21723" lon="0.009">
        <ele>148.2</ele>
        <time>2023-12-06T15:22:20Z</time>
      </trkpt>
      <trkpt lat="49.21727" lon="0.00891">
        <ele>148.4</ele>
        <time>2023-12-06T15:22:21Z</time>
      </trkpt>
      <trkpt lat="49.21733" lon="0.00881">
        <ele>148.4</ele>
        <time>2023-12-06T15:22:22Z</time>
      </trkpt>
      <trkpt lat="49.21738" lon="0.00872">
        <ele>148.2</ele>
        <time>2023-12-06T15:22:23Z</time>
      </trkpt>
      <trkpt lat="49.21743" lon="0.00862">
        <ele>148.2</ele>
        <time>2023-12-06T15:22:24Z</time>
      </trkpt>
      <trkpt lat="49.21749" lon="0.00851">
        <ele>148.2</ele>
        <time>2023-12-06T15:22:25Z</time>
      </trkpt>
      <trkpt lat="49.21754" lon="0.00841">
        <ele>147.8</ele>
        <time>2023-12-06T15:22:26Z</time>
      </trkpt>
      <trkpt lat="49.21758" lon="0.0083">
        <ele>147.8</ele>
        <time>2023-12-06T15:22:27Z</time>
      </trkpt>
      <trkpt lat="49.21763" lon="0.0082">
        <ele>147.6</ele>
        <time>2023-12-06T15:22:28Z</time>
      </trkpt>
      <trkpt lat="49.21768" lon="0.0081">
        <ele>147.4</ele>
        <time>2023-12-06T15:22:29Z</time>
      </trkpt>
      <trkpt lat="49.21772" lon="0.00799">
        <ele>147.4</ele>
        <time>2023-12-06T15:22:30Z</time>
      </trkpt>
      <trkpt lat="49.21777" lon="0.00789">
        <ele>147.4</ele>
        <time>2023-12-06T15:22:31Z</time>
      </trkpt>
      <trkpt lat="49.21782" lon="0.00779">
        <ele>147.4</ele>
        <time>2023-12-06T15:22:32Z</time>
      </trkpt>
      <trkpt lat="49.21786" lon="0.00769">
        <ele>147.4</ele>
        <time>2023-12-06T15:22:33Z</time>
      </trkpt>
      <trkpt lat="49.21791" lon="0.00759">
        <ele>147.4</ele>
        <time>2023-12-06T15:22:34Z</time>
      </trkpt>
      <trkpt lat="49.21796" lon="0.00748">
        <ele>147.2</ele>
        <time>2023-12-06T15:22:35Z</time>
      </trkpt>
      <trkpt lat="49.218" lon="0.00737">
        <ele>147.2</ele>
        <time>2023-12-06T15:22:36Z</time>
      </trkpt>
      <trkpt lat="49.21805" lon="0.00727">
        <ele>147</ele>
        <time>2023-12-06T15:22:37Z</time>
      </trkpt>
      <trkpt lat="49.21809" lon="0.00715">
        <ele>147</ele>
        <time>2023-12-06T15:22:38Z</time>
      </trkpt>
      <trkpt lat="49.21814" lon="0.00704">
        <ele>147</ele>
        <time>2023-12-06T15:22:39Z</time>
      </trkpt>
      <trkpt lat="49.21818" lon="0.00692">
        <ele>147</ele>
        <time>2023-12-06T15:22:40Z</time>
      </trkpt>
      <trkpt lat="49.21822" lon="0.00681">
        <ele>147</ele>
        <time>2023-12-06T15:22:41Z</time>
      </trkpt>
      <trkpt lat="49.21826" lon="0.00669">
        <ele>146.8</ele>
        <time>2023-12-06T15:22:42Z</time>
      </trkpt>
      <trkpt lat="49.2183" lon="0.00658">
        <ele>146.8</ele>
        <time>2023-12-06T15:22:43Z</time>
      </trkpt>
      <trkpt lat="49.21834" lon="0.00646">
        <ele>146.8</ele>
        <time>2023-12-06T15:22:44Z</time>
      </trkpt>
      <trkpt lat="49.21838" lon="0.00635">
        <ele>146.6</ele>
        <time>2023-12-06T15:22:45Z</time>
      </trkpt>
      <trkpt lat="49.21842" lon="0.00623">
        <ele>146.4</ele>
        <time>2023-12-06T15:22:46Z</time>
      </trkpt>
      <trkpt lat="49.21846" lon="0.00611">
        <ele>146.4</ele>
        <time>2023-12-06T15:22:47Z</time>
      </trkpt>
      <trkpt lat="49.2185" lon="0.00598">
        <ele>146.4</ele>
        <time>2023-12-06T15:22:48Z</time>
      </trkpt>
      <trkpt lat="49.21853" lon="0.00586">
        <ele>146.2</ele>
        <time>2023-12-06T15:22:49Z</time>
      </trkpt>
      <trkpt lat="49.21857" lon="0.00574">
        <ele>146.2</ele>
        <time>2023-12-06T15:22:50Z</time>
      </trkpt>
      <trkpt lat="49.21861" lon="0.00562">
        <ele>146</ele>
        <time>2023-12-06T15:22:51Z</time>
      </trkpt>
      <trkpt lat="49.21865" lon="0.0055">
        <ele>146</ele>
        <time>2023-12-06T15:22:52Z</time>
      </trkpt>
      <trkpt lat="49.21869" lon="0.00538">
        <ele>146</ele>
        <time>2023-12-06T15:22:53Z</time>
      </trkpt>
      <trkpt lat="49.21873" lon="0.00526">
        <ele>145.8</ele>
        <time>2023-12-06T15:22:54Z</time>
      </trkpt>
      <trkpt lat="49.21876" lon="0.00514">
        <ele>145.6</ele>
        <time>2023-12-06T15:22:55Z</time>
      </trkpt>
      <trkpt lat="49.2188" lon="0.00502">
        <ele>145.6</ele>
        <time>2023-12-06T15:22:56Z</time>
      </trkpt>
      <trkpt lat="49.21883" lon="0.0049">
        <ele>145.6</ele>
        <time>2023-12-06T15:22:57Z</time>
      </trkpt>
      <trkpt lat="49.21887" lon="0.00478">
        <ele>145.4</ele>
        <time>2023-12-06T15:22:58Z</time>
      </trkpt>
      <trkpt lat="49.21891" lon="0.00466">
        <ele>145.2</ele>
        <time>2023-12-06T15:22:59Z</time>
      </trkpt>
      <trkpt lat="49.21895" lon="0.00453">
        <ele>145.2</ele>
        <time>2023-12-06T15:23:00Z</time>
      </trkpt>
      <trkpt lat="49.21898" lon="0.00441">
        <ele>145.2</ele>
        <time>2023-12-06T15:23:01Z</time>
      </trkpt>
      <trkpt lat="49.21902" lon="0.00429">
        <ele>145</ele>
        <time>2023-12-06T15:23:02Z</time>
      </trkpt>
      <trkpt lat="49.21905" lon="0.00417">
        <ele>145</ele>
        <time>2023-12-06T15:23:03Z</time>
      </trkpt>
      <trkpt lat="49.21909" lon="0.00404">
        <ele>144.8</ele>
        <time>2023-12-06T15:23:04Z</time>
      </trkpt>
      <trkpt lat="49.21912" lon="0.00392">
        <ele>144.8</ele>
        <time>2023-12-06T15:23:05Z</time>
      </trkpt>
      <trkpt lat="49.21916" lon="0.00379">
        <ele>144.6</ele>
        <time>2023-12-06T15:23:06Z</time>
      </trkpt>
      <trkpt lat="49.2192" lon="0.00367">
        <ele>144.6</ele>
        <time>2023-12-06T15:23:07Z</time>
      </trkpt>
      <trkpt lat="49.21924" lon="0.00355">
        <ele>144.4</ele>
        <time>2023-12-06T15:23:08Z</time>
      </trkpt>
      <trkpt lat="49.21928" lon="0.00342">
        <ele>144.4</ele>
        <time>2023-12-06T15:23:09Z</time>
      </trkpt>
      <trkpt lat="49.21931" lon="0.00329">
        <ele>144.4</ele>
        <time>2023-12-06T15:23:10Z</time>
      </trkpt>
      <trkpt lat="49.21935" lon="0.00316">
        <ele>144.4</ele>
        <time>2023-12-06T15:23:11Z</time>
      </trkpt>
      <trkpt lat="49.21939" lon="0.00303">
        <ele>144.2</ele>
        <time>2023-12-06T15:23:12Z</time>
      </trkpt>
      <trkpt lat="49.21943" lon="0.00291">
        <ele>144.2</ele>
        <time>2023-12-06T15:23:13Z</time>
      </trkpt>
      <trkpt lat="49.21947" lon="0.00279">
        <ele>144.2</ele>
        <time>2023-12-06T15:23:14Z</time>
      </trkpt>
      <trkpt lat="49.21951" lon="0.00267">
        <ele>144</ele>
        <time>2023-12-06T15:23:15Z</time>
      </trkpt>
      <trkpt lat="49.21955" lon="0.00255">
        <ele>144</ele>
        <time>2023-12-06T15:23:16Z</time>
      </trkpt>
      <trkpt lat="49.2196" lon="0.00243">
        <ele>143.6</ele>
        <time>2023-12-06T15:23:17Z</time>
      </trkpt>
      <trkpt lat="49.21964" lon="0.00231">
        <ele>143.4</ele>
        <time>2023-12-06T15:23:18Z</time>
      </trkpt>
      <trkpt lat="49.21969" lon="0.00218">
        <ele>143.2</ele>
        <time>2023-12-06T15:23:19Z</time>
      </trkpt>
      <trkpt lat="49.21974" lon="0.00206">
        <ele>143</ele>
        <time>2023-12-06T15:23:20Z</time>
      </trkpt>
      <trkpt lat="49.2198" lon="0.00194">
        <ele>142.8</ele>
        <time>2023-12-06T15:23:21Z</time>
      </trkpt>
      <trkpt lat="49.21984" lon="0.00181">
        <ele>142.6</ele>
        <time>2023-12-06T15:23:22Z</time>
      </trkpt>
      <trkpt lat="49.21989" lon="0.00169">
        <ele>142.2</ele>
        <time>2023-12-06T15:23:23Z</time>
      </trkpt>
      <trkpt lat="49.21994" lon="0.00157">
        <ele>142</ele>
        <time>2023-12-06T15:23:24Z</time>
      </trkpt>
      <trkpt lat="49.21999" lon="0.00145">
        <ele>141.8</ele>
        <time>2023-12-06T15:23:25Z</time>
      </trkpt>
      <trkpt lat="49.22004" lon="0.00133">
        <ele>141.6</ele>
        <time>2023-12-06T15:23:26Z</time>
      </trkpt>
      <trkpt lat="49.22009" lon="0.00121">
        <ele>141.4</ele>
        <time>2023-12-06T15:23:27Z</time>
      </trkpt>
      <trkpt lat="49.22014" lon="0.00108">
        <ele>141</ele>
        <time>2023-12-06T15:23:28Z</time>
      </trkpt>
      <trkpt lat="49.2202" lon="0.00096">
        <ele>140.8</ele>
        <time>2023-12-06T15:23:29Z</time>
      </trkpt>
      <trkpt lat="49.22026" lon="0.00084">
        <ele>140.6</ele>
        <time>2023-12-06T15:23:30Z</time>
      </trkpt>
      <trkpt lat="49.22031" lon="0.00071">
        <ele>140.4</ele>
        <time>2023-12-06T15:23:31Z</time>
      </trkpt>
      <trkpt lat="49.22038" lon="0.00059">
        <ele>140.2</ele>
        <time>2023-12-06T15:23:32Z</time>
      </trkpt>
      <trkpt lat="49.22044" lon="0.00047">
        <ele>140.2</ele>
        <time>2023-12-06T15:23:33Z</time>
      </trkpt>
      <trkpt lat="49.22049" lon="0.00035">
        <ele>139.8</ele>
        <time>2023-12-06T15:23:34Z</time>
      </trkpt>
      <trkpt lat="49.22055" lon="0.00022">
        <ele>139.8</ele>
        <time>2023-12-06T15:23:35Z</time>
      </trkpt>
      <trkpt lat="49.2206" lon="0.0001">
        <ele>139.6</ele>
        <time>2023-12-06T15:23:36Z</time>
      </trkpt>
      <trkpt lat="49.22065" lon="-3.0E-5">
        <ele>139.6</ele>
        <time>2023-12-06T15:23:37Z</time>
      </trkpt>
      <trkpt lat="49.22071" lon="-0.00016">
        <ele>139.6</ele>
        <time>2023-12-06T15:23:38Z</time>
      </trkpt>
      <trkpt lat="49.22076" lon="-0.00028">
        <ele>139.4</ele>
        <time>2023-12-06T15:23:39Z</time>
      </trkpt>
      <trkpt lat="49.22082" lon="-0.00041">
        <ele>139.4</ele>
        <time>2023-12-06T15:23:40Z</time>
      </trkpt>
      <trkpt lat="49.22087" lon="-0.00054">
        <ele>139.2</ele>
        <time>2023-12-06T15:23:41Z</time>
      </trkpt>
      <trkpt lat="49.22092" lon="-0.00067">
        <ele>139.2</ele>
        <time>2023-12-06T15:23:42Z</time>
      </trkpt>
      <trkpt lat="49.22098" lon="-0.0008">
        <ele>139</ele>
        <time>2023-12-06T15:23:43Z</time>
      </trkpt>
      <trkpt lat="49.22103" lon="-0.00094">
        <ele>139</ele>
        <time>2023-12-06T15:23:44Z</time>
      </trkpt>
      <trkpt lat="49.22109" lon="-0.00107">
        <ele>138.8</ele>
        <time>2023-12-06T15:23:45Z</time>
      </trkpt>
      <trkpt lat="49.22114" lon="-0.00121">
        <ele>138.6</ele>
        <time>2023-12-06T15:23:46Z</time>
      </trkpt>
      <trkpt lat="49.22119" lon="-0.00134">
        <ele>138.4</ele>
        <time>2023-12-06T15:23:47Z</time>
      </trkpt>
      <trkpt lat="49.22125" lon="-0.00147">
        <ele>138.2</ele>
        <time>2023-12-06T15:23:48Z</time>
      </trkpt>
      <trkpt lat="49.2213" lon="-0.0016">
        <ele>138.2</ele>
        <time>2023-12-06T15:23:49Z</time>
      </trkpt>
      <trkpt lat="49.22136" lon="-0.00173">
        <ele>138</ele>
        <time>2023-12-06T15:23:50Z</time>
      </trkpt>
      <trkpt lat="49.22142" lon="-0.00184">
        <ele>137.8</ele>
        <time>2023-12-06T15:23:51Z</time>
      </trkpt>
      <trkpt lat="49.22148" lon="-0.00196">
        <ele>137.6</ele>
        <time>2023-12-06T15:23:52Z</time>
      </trkpt>
      <trkpt lat="49.22155" lon="-0.00207">
        <ele>137.4</ele>
        <time>2023-12-06T15:23:53Z</time>
      </trkpt>
      <trkpt lat="49.22162" lon="-0.00218">
        <ele>137.4</ele>
        <time>2023-12-06T15:23:54Z</time>
      </trkpt>
      <trkpt lat="49.22169" lon="-0.00228">
        <ele>137.2</ele>
        <time>2023-12-06T15:23:55Z</time>
      </trkpt>
      <trkpt lat="49.22176" lon="-0.00239">
        <ele>137.2</ele>
        <time>2023-12-06T15:23:56Z</time>
      </trkpt>
      <trkpt lat="49.22183" lon="-0.00249">
        <ele>137</ele>
        <time>2023-12-06T15:23:57Z</time>
      </trkpt>
      <trkpt lat="49.2219" lon="-0.0026">
        <ele>137</ele>
        <time>2023-12-06T15:23:58Z</time>
      </trkpt>
      <trkpt lat="49.22198" lon="-0.00271">
        <ele>136.8</ele>
        <time>2023-12-06T15:23:59Z</time>
      </trkpt>
      <trkpt lat="49.22205" lon="-0.00282">
        <ele>136.8</ele>
        <time>2023-12-06T15:24:00Z</time>
      </trkpt>
      <trkpt lat="49.22212" lon="-0.00293">
        <ele>136.8</ele>
        <time>2023-12-06T15:24:01Z</time>
      </trkpt>
      <trkpt lat="49.2222" lon="-0.00304">
        <ele>136.6</ele>
        <time>2023-12-06T15:24:02Z</time>
      </trkpt>
      <trkpt lat="49.22227" lon="-0.00315">
        <ele>136.6</ele>
        <time>2023-12-06T15:24:03Z</time>
      </trkpt>
      <trkpt lat="49.22234" lon="-0.00325">
        <ele>136.4</ele>
        <time>2023-12-06T15:24:04Z</time>
      </trkpt>
      <trkpt lat="49.22242" lon="-0.00336">
        <ele>136.4</ele>
        <time>2023-12-06T15:24:05Z</time>
      </trkpt>
      <trkpt lat="49.22249" lon="-0.00347">
        <ele>136</ele>
        <time>2023-12-06T15:24:06Z</time>
      </trkpt>
      <trkpt lat="49.22257" lon="-0.00359">
        <ele>135.8</ele>
        <time>2023-12-06T15:24:07Z</time>
      </trkpt>
      <trkpt lat="49.22264" lon="-0.00371">
        <ele>135.6</ele>
        <time>2023-12-06T15:24:08Z</time>
      </trkpt>
      <trkpt lat="49.22271" lon="-0.00383">
        <ele>135.4</ele>
        <time>2023-12-06T15:24:09Z</time>
      </trkpt>
      <trkpt lat="49.22278" lon="-0.00395">
        <ele>135</ele>
        <time>2023-12-06T15:24:10Z</time>
      </trkpt>
      <trkpt lat="49.22285" lon="-0.00407">
        <ele>134.6</ele>
        <time>2023-12-06T15:24:11Z</time>
      </trkpt>
      <trkpt lat="49.22291" lon="-0.0042">
        <ele>134.4</ele>
        <time>2023-12-06T15:24:12Z</time>
      </trkpt>
      <trkpt lat="49.22297" lon="-0.00432">
        <ele>134.2</ele>
        <time>2023-12-06T15:24:13Z</time>
      </trkpt>
      <trkpt lat="49.22303" lon="-0.00445">
        <ele>133.8</ele>
        <time>2023-12-06T15:24:14Z</time>
      </trkpt>
      <trkpt lat="49.22309" lon="-0.00458">
        <ele>133.6</ele>
        <time>2023-12-06T15:24:15Z</time>
      </trkpt>
      <trkpt lat="49.22314" lon="-0.00471">
        <ele>133.2</ele>
        <time>2023-12-06T15:24:16Z</time>
      </trkpt>
      <trkpt lat="49.22319" lon="-0.00484">
        <ele>133</ele>
        <time>2023-12-06T15:24:17Z</time>
      </trkpt>
      <trkpt lat="49.22324" lon="-0.00497">
        <ele>132.6</ele>
        <time>2023-12-06T15:24:18Z</time>
      </trkpt>
      <trkpt lat="49.22329" lon="-0.0051">
        <ele>132.4</ele>
        <time>2023-12-06T15:24:19Z</time>
      </trkpt>
      <trkpt lat="49.22335" lon="-0.00522">
        <ele>132.2</ele>
        <time>2023-12-06T15:24:20Z</time>
      </trkpt>
      <trkpt lat="49.22339" lon="-0.00535">
        <ele>132</ele>
        <time>2023-12-06T15:24:21Z</time>
      </trkpt>
      <trkpt lat="49.22344" lon="-0.00548">
        <ele>132</ele>
        <time>2023-12-06T15:24:22Z</time>
      </trkpt>
      <trkpt lat="49.22349" lon="-0.00559">
        <ele>131.8</ele>
        <time>2023-12-06T15:24:23Z</time>
      </trkpt>
      <trkpt lat="49.22355" lon="-0.00571">
        <ele>131.8</ele>
        <time>2023-12-06T15:24:24Z</time>
      </trkpt>
      <trkpt lat="49.2236" lon="-0.00581">
        <ele>131.8</ele>
        <time>2023-12-06T15:24:25Z</time>
      </trkpt>
      <trkpt lat="49.22365" lon="-0.00592">
        <ele>131.6</ele>
        <time>2023-12-06T15:24:26Z</time>
      </trkpt>
      <trkpt lat="49.22371" lon="-0.00603">
        <ele>131.6</ele>
        <time>2023-12-06T15:24:27Z</time>
      </trkpt>
      <trkpt lat="49.22376" lon="-0.00613">
        <ele>131.6</ele>
        <time>2023-12-06T15:24:28Z</time>
      </trkpt>
      <trkpt lat="49.22381" lon="-0.00625">
        <ele>131.6</ele>
        <time>2023-12-06T15:24:29Z</time>
      </trkpt>
      <trkpt lat="49.22386" lon="-0.00635">
        <ele>131.6</ele>
        <time>2023-12-06T15:24:30Z</time>
      </trkpt>
      <trkpt lat="49.22391" lon="-0.00646">
        <ele>131.6</ele>
        <time>2023-12-06T15:24:31Z</time>
      </trkpt>
      <trkpt lat="49.22397" lon="-0.00656">
        <ele>131.6</ele>
        <time>2023-12-06T15:24:32Z</time>
      </trkpt>
      <trkpt lat="49.22402" lon="-0.00667">
        <ele>131.6</ele>
        <time>2023-12-06T15:24:33Z</time>
      </trkpt>
      <trkpt lat="49.22408" lon="-0.00677">
        <ele>131.6</ele>
        <time>2023-12-06T15:24:34Z</time>
      </trkpt>
      <trkpt lat="49.22413" lon="-0.00688">
        <ele>131.6</ele>
        <time>2023-12-06T15:24:35Z</time>
      </trkpt>
      <trkpt lat="49.22417" lon="-0.007">
        <ele>131.6</ele>
        <time>2023-12-06T15:24:36Z</time>
      </trkpt>
      <trkpt lat="49.22422" lon="-0.00711">
        <ele>131.6</ele>
        <time>2023-12-06T15:24:37Z</time>
      </trkpt>
      <trkpt lat="49.22426" lon="-0.00723">
        <ele>131.6</ele>
        <time>2023-12-06T15:24:38Z</time>
      </trkpt>
      <trkpt lat="49.22431" lon="-0.00735">
        <ele>131.6</ele>
        <time>2023-12-06T15:24:39Z</time>
      </trkpt>
      <trkpt lat="49.22436" lon="-0.00746">
        <ele>131.4</ele>
        <time>2023-12-06T15:24:40Z</time>
      </trkpt>
      <trkpt lat="49.2244" lon="-0.00758">
        <ele>131.4</ele>
        <time>2023-12-06T15:24:41Z</time>
      </trkpt>
      <trkpt lat="49.22445" lon="-0.00769">
        <ele>131.4</ele>
        <time>2023-12-06T15:24:42Z</time>
      </trkpt>
      <trkpt lat="49.22449" lon="-0.0078">
        <ele>131.4</ele>
        <time>2023-12-06T15:24:43Z</time>
      </trkpt>
      <trkpt lat="49.22453" lon="-0.00791">
        <ele>131.4</ele>
        <time>2023-12-06T15:24:44Z</time>
      </trkpt>
      <trkpt lat="49.22458" lon="-0.00803">
        <ele>131.4</ele>
        <time>2023-12-06T15:24:45Z</time>
      </trkpt>
      <trkpt lat="49.22462" lon="-0.00814">
        <ele>131.4</ele>
        <time>2023-12-06T15:24:46Z</time>
      </trkpt>
      <trkpt lat="49.22466" lon="-0.00825">
        <ele>131.2</ele>
        <time>2023-12-06T15:24:47Z</time>
      </trkpt>
      <trkpt lat="49.22471" lon="-0.00836">
        <ele>131.2</ele>
        <time>2023-12-06T15:24:48Z</time>
      </trkpt>
      <trkpt lat="49.22476" lon="-0.00846">
        <ele>131.2</ele>
        <time>2023-12-06T15:24:49Z</time>
      </trkpt>
      <trkpt lat="49.22481" lon="-0.00857">
        <ele>131.2</ele>
        <time>2023-12-06T15:24:50Z</time>
      </trkpt>
      <trkpt lat="49.22486" lon="-0.00867">
        <ele>131.2</ele>
        <time>2023-12-06T15:24:51Z</time>
      </trkpt>
      <trkpt lat="49.22491" lon="-0.00877">
        <ele>131.2</ele>
        <time>2023-12-06T15:24:52Z</time>
      </trkpt>
      <trkpt lat="49.22496" lon="-0.00886">
        <ele>131.4</ele>
        <time>2023-12-06T15:24:53Z</time>
      </trkpt>
      <trkpt lat="49.22502" lon="-0.00896">
        <ele>131.4</ele>
        <time>2023-12-06T15:24:54Z</time>
      </trkpt>
      <trkpt lat="49.22507" lon="-0.00905">
        <ele>131.4</ele>
        <time>2023-12-06T15:24:55Z</time>
      </trkpt>
      <trkpt lat="49.22513" lon="-0.00914">
        <ele>131.4</ele>
        <time>2023-12-06T15:24:56Z</time>
      </trkpt>
      <trkpt lat="49.22519" lon="-0.00923">
        <ele>131.4</ele>
        <time>2023-12-06T15:24:57Z</time>
      </trkpt>
      <trkpt lat="49.22524" lon="-0.00933">
        <ele>131.4</ele>
        <time>2023-12-06T15:24:58Z</time>
      </trkpt>
      <trkpt lat="49.2253" lon="-0.00942">
        <ele>131.4</ele>
        <time>2023-12-06T15:24:59Z</time>
      </trkpt>
      <trkpt lat="49.22536" lon="-0.00951">
        <ele>131.4</ele>
        <time>2023-12-06T15:25:00Z</time>
      </trkpt>
      <trkpt lat="49.22541" lon="-0.0096">
        <ele>131.4</ele>
        <time>2023-12-06T15:25:01Z</time>
      </trkpt>
      <trkpt lat="49.22547" lon="-0.00969">
        <ele>131.4</ele>
        <time>2023-12-06T15:25:02Z</time>
      </trkpt>
      <trkpt lat="49.22552" lon="-0.00977">
        <ele>131.4</ele>
        <time>2023-12-06T15:25:03Z</time>
      </trkpt>
      <trkpt lat="49.22558" lon="-0.00986">
        <ele>131.4</ele>
        <time>2023-12-06T15:25:04Z</time>
      </trkpt>
      <trkpt lat="49.22563" lon="-0.00994">
        <ele>131.4</ele>
        <time>2023-12-06T15:25:05Z</time>
      </trkpt>
      <trkpt lat="49.22568" lon="-0.01003">
        <ele>131.4</ele>
        <time>2023-12-06T15:25:06Z</time>
      </trkpt>
      <trkpt lat="49.22573" lon="-0.01012">
        <ele>131.4</ele>
        <time>2023-12-06T15:25:07Z</time>
      </trkpt>
      <trkpt lat="49.22578" lon="-0.01021">
        <ele>131.2</ele>
        <time>2023-12-06T15:25:08Z</time>
      </trkpt>
      <trkpt lat="49.22583" lon="-0.0103">
        <ele>131.2</ele>
        <time>2023-12-06T15:25:09Z</time>
      </trkpt>
      <trkpt lat="49.22588" lon="-0.01039">
        <ele>131.2</ele>
        <time>2023-12-06T15:25:10Z</time>
      </trkpt>
      <trkpt lat="49.22593" lon="-0.01049">
        <ele>131.2</ele>
        <time>2023-12-06T15:25:11Z</time>
      </trkpt>
      <trkpt lat="49.22598" lon="-0.0106">
        <ele>131.2</ele>
        <time>2023-12-06T15:25:12Z</time>
      </trkpt>
      <trkpt lat="49.22603" lon="-0.01071">
        <ele>131.2</ele>
        <time>2023-12-06T15:25:13Z</time>
      </trkpt>
      <trkpt lat="49.22609" lon="-0.01081">
        <ele>131</ele>
        <time>2023-12-06T15:25:14Z</time>
      </trkpt>
      <trkpt lat="49.22615" lon="-0.01091">
        <ele>131</ele>
        <time>2023-12-06T15:25:15Z</time>
      </trkpt>
      <trkpt lat="49.2262" lon="-0.01102">
        <ele>131</ele>
        <time>2023-12-06T15:25:16Z</time>
      </trkpt>
      <trkpt lat="49.22625" lon="-0.01112">
        <ele>130.8</ele>
        <time>2023-12-06T15:25:17Z</time>
      </trkpt>
      <trkpt lat="49.2263" lon="-0.01122">
        <ele>130.8</ele>
        <time>2023-12-06T15:25:18Z</time>
      </trkpt>
      <trkpt lat="49.22635" lon="-0.01133">
        <ele>130.6</ele>
        <time>2023-12-06T15:25:19Z</time>
      </trkpt>
      <trkpt lat="49.2264" lon="-0.01144">
        <ele>130.4</ele>
        <time>2023-12-06T15:25:20Z</time>
      </trkpt>
      <trkpt lat="49.22645" lon="-0.01155">
        <ele>130.2</ele>
        <time>2023-12-06T15:25:21Z</time>
      </trkpt>
      <trkpt lat="49.2265" lon="-0.01166">
        <ele>130</ele>
        <time>2023-12-06T15:25:22Z</time>
      </trkpt>
      <trkpt lat="49.22654" lon="-0.01175">
        <ele>129.8</ele>
        <time>2023-12-06T15:25:23Z</time>
      </trkpt>
      <trkpt lat="49.22659" lon="-0.01186">
        <ele>129.6</ele>
        <time>2023-12-06T15:25:24Z</time>
      </trkpt>
      <trkpt lat="49.22664" lon="-0.012">
        <ele>129.6</ele>
        <time>2023-12-06T15:25:25Z</time>
      </trkpt>
      <trkpt lat="49.22669" lon="-0.01211">
        <ele>129.4</ele>
        <time>2023-12-06T15:25:26Z</time>
      </trkpt>
      <trkpt lat="49.22674" lon="-0.01222">
        <ele>129.4</ele>
        <time>2023-12-06T15:25:27Z</time>
      </trkpt>
      <trkpt lat="49.22679" lon="-0.01233">
        <ele>129.4</ele>
        <time>2023-12-06T15:25:28Z</time>
      </trkpt>
      <trkpt lat="49.22684" lon="-0.01244">
        <ele>129.2</ele>
        <time>2023-12-06T15:25:29Z</time>
      </trkpt>
      <trkpt lat="49.22689" lon="-0.01255">
        <ele>129.2</ele>
        <time>2023-12-06T15:25:30Z</time>
      </trkpt>
      <trkpt lat="49.22693" lon="-0.01263">
        <ele>129</ele>
        <time>2023-12-06T15:25:31Z</time>
      </trkpt>
      <trkpt lat="49.22699" lon="-0.01276">
        <ele>129</ele>
        <time>2023-12-06T15:25:32Z</time>
      </trkpt>
      <trkpt lat="49.22704" lon="-0.01287">
        <ele>128.8</ele>
        <time>2023-12-06T15:25:33Z</time>
      </trkpt>
      <trkpt lat="49.2271" lon="-0.01297">
        <ele>128.6</ele>
        <time>2023-12-06T15:25:34Z</time>
      </trkpt>
      <trkpt lat="49.22715" lon="-0.01308">
        <ele>128.4</ele>
        <time>2023-12-06T15:25:35Z</time>
      </trkpt>
      <trkpt lat="49.2272" lon="-0.01319">
        <ele>128.2</ele>
        <time>2023-12-06T15:25:36Z</time>
      </trkpt>
      <trkpt lat="49.22725" lon="-0.01329">
        <ele>128</ele>
        <time>2023-12-06T15:25:37Z</time>
      </trkpt>
      <trkpt lat="49.22731" lon="-0.0134">
        <ele>128</ele>
        <time>2023-12-06T15:25:38Z</time>
      </trkpt>
      <trkpt lat="49.22736" lon="-0.0135">
        <ele>128</ele>
        <time>2023-12-06T15:25:39Z</time>
      </trkpt>
      <trkpt lat="49.22742" lon="-0.0136">
        <ele>127.8</ele>
        <time>2023-12-06T15:25:40Z</time>
      </trkpt>
      <trkpt lat="49.22747" lon="-0.0137">
        <ele>127.8</ele>
        <time>2023-12-06T15:25:41Z</time>
      </trkpt>
      <trkpt lat="49.22753" lon="-0.0138">
        <ele>127.8</ele>
        <time>2023-12-06T15:25:42Z</time>
      </trkpt>
      <trkpt lat="49.22758" lon="-0.01391">
        <ele>127.6</ele>
        <time>2023-12-06T15:25:43Z</time>
      </trkpt>
      <trkpt lat="49.22762" lon="-0.01401">
        <ele>127.6</ele>
        <time>2023-12-06T15:25:44Z</time>
      </trkpt>
      <trkpt lat="49.22768" lon="-0.01411">
        <ele>127.6</ele>
        <time>2023-12-06T15:25:45Z</time>
      </trkpt>
      <trkpt lat="49.22773" lon="-0.01422">
        <ele>127.6</ele>
        <time>2023-12-06T15:25:46Z</time>
      </trkpt>
      <trkpt lat="49.22778" lon="-0.01432">
        <ele>127.6</ele>
        <time>2023-12-06T15:25:47Z</time>
      </trkpt>
      <trkpt lat="49.22783" lon="-0.01442">
        <ele>127.4</ele>
        <time>2023-12-06T15:25:48Z</time>
      </trkpt>
      <trkpt lat="49.22788" lon="-0.01452">
        <ele>127.4</ele>
        <time>2023-12-06T15:25:49Z</time>
      </trkpt>
      <trkpt lat="49.22793" lon="-0.01462">
        <ele>127.4</ele>
        <time>2023-12-06T15:25:50Z</time>
      </trkpt>
      <trkpt lat="49.22798" lon="-0.01473">
        <ele>127.4</ele>
        <time>2023-12-06T15:25:51Z</time>
      </trkpt>
      <trkpt lat="49.22802" lon="-0.01483">
        <ele>127.4</ele>
        <time>2023-12-06T15:25:52Z</time>
      </trkpt>
      <trkpt lat="49.22807" lon="-0.01494">
        <ele>127.4</ele>
        <time>2023-12-06T15:25:53Z</time>
      </trkpt>
      <trkpt lat="49.22811" lon="-0.01504">
        <ele>127.4</ele>
        <time>2023-12-06T15:25:54Z</time>
      </trkpt>
      <trkpt lat="49.22816" lon="-0.01515">
        <ele>127.4</ele>
        <time>2023-12-06T15:25:55Z</time>
      </trkpt>
      <trkpt lat="49.22821" lon="-0.01525">
        <ele>127.4</ele>
        <time>2023-12-06T15:25:56Z</time>
      </trkpt>
      <trkpt lat="49.22826" lon="-0.01535">
        <ele>127.4</ele>
        <time>2023-12-06T15:25:57Z</time>
      </trkpt>
      <trkpt lat="49.22831" lon="-0.01545">
        <ele>127.4</ele>
        <time>2023-12-06T15:25:58Z</time>
      </trkpt>
      <trkpt lat="49.22836" lon="-0.01554">
        <ele>127.4</ele>
        <time>2023-12-06T15:25:59Z</time>
      </trkpt>
      <trkpt lat="49.22841" lon="-0.01564">
        <ele>127.6</ele>
        <time>2023-12-06T15:26:00Z</time>
      </trkpt>
      <trkpt lat="49.22846" lon="-0.01574">
        <ele>127.6</ele>
        <time>2023-12-06T15:26:01Z</time>
      </trkpt>
      <trkpt lat="49.22851" lon="-0.01585">
        <ele>127.6</ele>
        <time>2023-12-06T15:26:02Z</time>
      </trkpt>
      <trkpt lat="49.22856" lon="-0.01595">
        <ele>127.6</ele>
        <time>2023-12-06T15:26:03Z</time>
      </trkpt>
      <trkpt lat="49.22861" lon="-0.01606">
        <ele>127.8</ele>
        <time>2023-12-06T15:26:04Z</time>
      </trkpt>
      <trkpt lat="49.22867" lon="-0.01616">
        <ele>127.8</ele>
        <time>2023-12-06T15:26:05Z</time>
      </trkpt>
      <trkpt lat="49.22872" lon="-0.01626">
        <ele>128</ele>
        <time>2023-12-06T15:26:06Z</time>
      </trkpt>
      <trkpt lat="49.22878" lon="-0.01636">
        <ele>128.2</ele>
        <time>2023-12-06T15:26:07Z</time>
      </trkpt>
      <trkpt lat="49.22884" lon="-0.01646">
        <ele>128.2</ele>
        <time>2023-12-06T15:26:08Z</time>
      </trkpt>
      <trkpt lat="49.2289" lon="-0.01656">
        <ele>128.2</ele>
        <time>2023-12-06T15:26:09Z</time>
      </trkpt>
      <trkpt lat="49.22895" lon="-0.01666">
        <ele>128.2</ele>
        <time>2023-12-06T15:26:10Z</time>
      </trkpt>
      <trkpt lat="49.22901" lon="-0.01676">
        <ele>128.2</ele>
        <time>2023-12-06T15:26:11Z</time>
      </trkpt>
      <trkpt lat="49.22906" lon="-0.01686">
        <ele>128.2</ele>
        <time>2023-12-06T15:26:12Z</time>
      </trkpt>
      <trkpt lat="49.22912" lon="-0.01696">
        <ele>128.2</ele>
        <time>2023-12-06T15:26:13Z</time>
      </trkpt>
      <trkpt lat="49.22917" lon="-0.01706">
        <ele>128.2</ele>
        <time>2023-12-06T15:26:14Z</time>
      </trkpt>
      <trkpt lat="49.22923" lon="-0.01716">
        <ele>128.2</ele>
        <time>2023-12-06T15:26:15Z</time>
      </trkpt>
      <trkpt lat="49.22929" lon="-0.01726">
        <ele>128.2</ele>
        <time>2023-12-06T15:26:16Z</time>
      </trkpt>
      <trkpt lat="49.22934" lon="-0.01736">
        <ele>128.2</ele>
        <time>2023-12-06T15:26:17Z</time>
      </trkpt>
      <trkpt lat="49.2294" lon="-0.01745">
        <ele>128.2</ele>
        <time>2023-12-06T15:26:18Z</time>
      </trkpt>
      <trkpt lat="49.22946" lon="-0.01755">
        <ele>128.2</ele>
        <time>2023-12-06T15:26:19Z</time>
      </trkpt>
      <trkpt lat="49.22952" lon="-0.01766">
        <ele>128.2</ele>
        <time>2023-12-06T15:26:20Z</time>
      </trkpt>
      <trkpt lat="49.22958" lon="-0.01776">
        <ele>128.2</ele>
        <time>2023-12-06T15:26:21Z</time>
      </trkpt>
      <trkpt lat="49.22963" lon="-0.01787">
        <ele>128.2</ele>
        <time>2023-12-06T15:26:22Z</time>
      </trkpt>
      <trkpt lat="49.22968" lon="-0.01798">
        <ele>128.2</ele>
        <time>2023-12-06T15:26:23Z</time>
      </trkpt>
      <trkpt lat="49.22973" lon="-0.0181">
        <ele>128.2</ele>
        <time>2023-12-06T15:26:24Z</time>
      </trkpt>
      <trkpt lat="49.22978" lon="-0.01821">
        <ele>128.2</ele>
        <time>2023-12-06T15:26:25Z</time>
      </trkpt>
      <trkpt lat="49.22983" lon="-0.01834">
        <ele>128</ele>
        <time>2023-12-06T15:26:26Z</time>
      </trkpt>
      <trkpt lat="49.22987" lon="-0.01846">
        <ele>128</ele>
        <time>2023-12-06T15:26:27Z</time>
      </trkpt>
      <trkpt lat="49.22992" lon="-0.01858">
        <ele>128</ele>
        <time>2023-12-06T15:26:28Z</time>
      </trkpt>
      <trkpt lat="49.22996" lon="-0.01871">
        <ele>128</ele>
        <time>2023-12-06T15:26:29Z</time>
      </trkpt>
      <trkpt lat="49.23001" lon="-0.01883">
        <ele>127.8</ele>
        <time>2023-12-06T15:26:30Z</time>
      </trkpt>
      <trkpt lat="49.23006" lon="-0.01896">
        <ele>127.6</ele>
        <time>2023-12-06T15:26:31Z</time>
      </trkpt>
      <trkpt lat="49.2301" lon="-0.01908">
        <ele>127.6</ele>
        <time>2023-12-06T15:26:32Z</time>
      </trkpt>
      <trkpt lat="49.23014" lon="-0.01921">
        <ele>127.4</ele>
        <time>2023-12-06T15:26:33Z</time>
      </trkpt>
      <trkpt lat="49.23019" lon="-0.01934">
        <ele>127.2</ele>
        <time>2023-12-06T15:26:34Z</time>
      </trkpt>
      <trkpt lat="49.23023" lon="-0.01947">
        <ele>127</ele>
        <time>2023-12-06T15:26:35Z</time>
      </trkpt>
      <trkpt lat="49.23028" lon="-0.01959">
        <ele>126.6</ele>
        <time>2023-12-06T15:26:36Z</time>
      </trkpt>
      <trkpt lat="49.23032" lon="-0.01971">
        <ele>126.4</ele>
        <time>2023-12-06T15:26:37Z</time>
      </trkpt>
      <trkpt lat="49.23036" lon="-0.01984">
        <ele>126</ele>
        <time>2023-12-06T15:26:38Z</time>
      </trkpt>
      <trkpt lat="49.2304" lon="-0.01993">
        <ele>125.8</ele>
        <time>2023-12-06T15:26:39Z</time>
      </trkpt>
      <trkpt lat="49.23044" lon="-0.02008">
        <ele>125.4</ele>
        <time>2023-12-06T15:26:40Z</time>
      </trkpt>
      <trkpt lat="49.23047" lon="-0.02018">
        <ele>125.4</ele>
        <time>2023-12-06T15:26:41Z</time>
      </trkpt>
      <trkpt lat="49.23052" lon="-0.0203">
        <ele>125</ele>
        <time>2023-12-06T15:26:42Z</time>
      </trkpt>
      <trkpt lat="49.23056" lon="-0.02042">
        <ele>124.8</ele>
        <time>2023-12-06T15:26:43Z</time>
      </trkpt>
      <trkpt lat="49.2306" lon="-0.02053">
        <ele>124.8</ele>
        <time>2023-12-06T15:26:44Z</time>
      </trkpt>
      <trkpt lat="49.23065" lon="-0.02064">
        <ele>124.6</ele>
        <time>2023-12-06T15:26:45Z</time>
      </trkpt>
      <trkpt lat="49.23071" lon="-0.02074">
        <ele>124.4</ele>
        <time>2023-12-06T15:26:46Z</time>
      </trkpt>
      <trkpt lat="49.23077" lon="-0.02084">
        <ele>124.2</ele>
        <time>2023-12-06T15:26:47Z</time>
      </trkpt>
      <trkpt lat="49.23084" lon="-0.02096">
        <ele>124.2</ele>
        <time>2023-12-06T15:26:48Z</time>
      </trkpt>
      <trkpt lat="49.23091" lon="-0.02106">
        <ele>124</ele>
        <time>2023-12-06T15:26:49Z</time>
      </trkpt>
      <trkpt lat="49.23098" lon="-0.02117">
        <ele>124</ele>
        <time>2023-12-06T15:26:50Z</time>
      </trkpt>
      <trkpt lat="49.23105" lon="-0.02127">
        <ele>123.8</ele>
        <time>2023-12-06T15:26:51Z</time>
      </trkpt>
      <trkpt lat="49.23112" lon="-0.02138">
        <ele>123.6</ele>
        <time>2023-12-06T15:26:52Z</time>
      </trkpt>
      <trkpt lat="49.23119" lon="-0.02149">
        <ele>123.4</ele>
        <time>2023-12-06T15:26:53Z</time>
      </trkpt>
      <trkpt lat="49.23127" lon="-0.0216">
        <ele>123.4</ele>
        <time>2023-12-06T15:26:54Z</time>
      </trkpt>
      <trkpt lat="49.23134" lon="-0.02172">
        <ele>123</ele>
        <time>2023-12-06T15:26:55Z</time>
      </trkpt>
      <trkpt lat="49.23142" lon="-0.02184">
        <ele>122.4</ele>
        <time>2023-12-06T15:26:56Z</time>
      </trkpt>
      <trkpt lat="49.2315" lon="-0.02196">
        <ele>121.8</ele>
        <time>2023-12-06T15:26:57Z</time>
      </trkpt>
      <trkpt lat="49.23158" lon="-0.02209">
        <ele>121.2</ele>
        <time>2023-12-06T15:26:58Z</time>
      </trkpt>
      <trkpt lat="49.23165" lon="-0.0222">
        <ele>120.4</ele>
        <time>2023-12-06T15:26:59Z</time>
      </trkpt>
      <trkpt lat="49.23174" lon="-0.02233">
        <ele>119.4</ele>
        <time>2023-12-06T15:27:00Z</time>
      </trkpt>
      <trkpt lat="49.23185" lon="-0.02248">
        <ele>118.4</ele>
        <time>2023-12-06T15:27:01Z</time>
      </trkpt>
      <trkpt lat="49.23195" lon="-0.0226">
        <ele>117.6</ele>
        <time>2023-12-06T15:27:02Z</time>
      </trkpt>
      <trkpt lat="49.23203" lon="-0.02269">
        <ele>116.6</ele>
        <time>2023-12-06T15:27:03Z</time>
      </trkpt>
      <trkpt lat="49.23216" lon="-0.02283">
        <ele>115.6</ele>
        <time>2023-12-06T15:27:04Z</time>
      </trkpt>
      <trkpt lat="49.23227" lon="-0.02294">
        <ele>114.4</ele>
        <time>2023-12-06T15:27:05Z</time>
      </trkpt>
      <trkpt lat="49.23236" lon="-0.02303">
        <ele>113.2</ele>
        <time>2023-12-06T15:27:06Z</time>
      </trkpt>
      <trkpt lat="49.23247" lon="-0.02313">
        <ele>112.2</ele>
        <time>2023-12-06T15:27:07Z</time>
      </trkpt>
      <trkpt lat="49.23258" lon="-0.02323">
        <ele>110.8</ele>
        <time>2023-12-06T15:27:08Z</time>
      </trkpt>
      <trkpt lat="49.2327" lon="-0.02333">
        <ele>109.6</ele>
        <time>2023-12-06T15:27:09Z</time>
      </trkpt>
      <trkpt lat="49.23284" lon="-0.02345">
        <ele>108.4</ele>
        <time>2023-12-06T15:27:10Z</time>
      </trkpt>
      <trkpt lat="49.23294" lon="-0.02352">
        <ele>107.2</ele>
        <time>2023-12-06T15:27:11Z</time>
      </trkpt>
      <trkpt lat="49.23306" lon="-0.0236">
        <ele>106.2</ele>
        <time>2023-12-06T15:27:12Z</time>
      </trkpt>
      <trkpt lat="49.23319" lon="-0.02368">
        <ele>105.6</ele>
        <time>2023-12-06T15:27:13Z</time>
      </trkpt>
      <trkpt lat="49.23331" lon="-0.02374">
        <ele>105</ele>
        <time>2023-12-06T15:27:14Z</time>
      </trkpt>
      <trkpt lat="49.23343" lon="-0.02382">
        <ele>104.2</ele>
        <time>2023-12-06T15:27:15Z</time>
      </trkpt>
      <trkpt lat="49.23357" lon="-0.02392">
        <ele>103.2</ele>
        <time>2023-12-06T15:27:16Z</time>
      </trkpt>
      <trkpt lat="49.23368" lon="-0.02403">
        <ele>101.8</ele>
        <time>2023-12-06T15:27:17Z</time>
      </trkpt>
      <trkpt lat="49.23378" lon="-0.02415">
        <ele>100.6</ele>
        <time>2023-12-06T15:27:18Z</time>
      </trkpt>
      <trkpt lat="49.23388" lon="-0.02428">
        <ele>99.4</ele>
        <time>2023-12-06T15:27:19Z</time>
      </trkpt>
      <trkpt lat="49.23396" lon="-0.0244">
        <ele>98.4</ele>
        <time>2023-12-06T15:27:20Z</time>
      </trkpt>
      <trkpt lat="49.23404" lon="-0.02454">
        <ele>97.4</ele>
        <time>2023-12-06T15:27:21Z</time>
      </trkpt>
      <trkpt lat="49.2341" lon="-0.02469">
        <ele>96.6</ele>
        <time>2023-12-06T15:27:22Z</time>
      </trkpt>
      <trkpt lat="49.23414" lon="-0.02486">
        <ele>95.6</ele>
        <time>2023-12-06T15:27:23Z</time>
      </trkpt>
      <trkpt lat="49.23415" lon="-0.02504">
        <ele>94.8</ele>
        <time>2023-12-06T15:27:24Z</time>
      </trkpt>
      <trkpt lat="49.23415" lon="-0.02522">
        <ele>94</ele>
        <time>2023-12-06T15:27:25Z</time>
      </trkpt>
      <trkpt lat="49.23415" lon="-0.02541">
        <ele>93.2</ele>
        <time>2023-12-06T15:27:26Z</time>
      </trkpt>
      <trkpt lat="49.23414" lon="-0.0256">
        <ele>92.6</ele>
        <time>2023-12-06T15:27:27Z</time>
      </trkpt>
      <trkpt lat="49.23414" lon="-0.02579">
        <ele>91.8</ele>
        <time>2023-12-06T15:27:28Z</time>
      </trkpt>
      <trkpt lat="49.23413" lon="-0.02599">
        <ele>91.2</ele>
        <time>2023-12-06T15:27:29Z</time>
      </trkpt>
      <trkpt lat="49.23413" lon="-0.02618">
        <ele>90.4</ele>
        <time>2023-12-06T15:27:30Z</time>
      </trkpt>
      <trkpt lat="49.23412" lon="-0.02637">
        <ele>89.8</ele>
        <time>2023-12-06T15:27:31Z</time>
      </trkpt>
      <trkpt lat="49.2341" lon="-0.02657">
        <ele>89</ele>
        <time>2023-12-06T15:27:32Z</time>
      </trkpt>
      <trkpt lat="49.23408" lon="-0.02676">
        <ele>88.2</ele>
        <time>2023-12-06T15:27:33Z</time>
      </trkpt>
      <trkpt lat="49.23404" lon="-0.02694">
        <ele>87</ele>
        <time>2023-12-06T15:27:34Z</time>
      </trkpt>
      <trkpt lat="49.23398" lon="-0.0271">
        <ele>85.6</ele>
        <time>2023-12-06T15:27:35Z</time>
      </trkpt>
      <trkpt lat="49.23391" lon="-0.02724">
        <ele>84.2</ele>
        <time>2023-12-06T15:27:36Z</time>
      </trkpt>
      <trkpt lat="49.23384" lon="-0.02737">
        <ele>83</ele>
        <time>2023-12-06T15:27:37Z</time>
      </trkpt>
      <trkpt lat="49.23377" lon="-0.0275">
        <ele>82.2</ele>
        <time>2023-12-06T15:27:38Z</time>
      </trkpt>
      <trkpt lat="49.23372" lon="-0.02764">
        <ele>81.6</ele>
        <time>2023-12-06T15:27:39Z</time>
      </trkpt>
      <trkpt lat="49.23369" lon="-0.02779">
        <ele>80.2</ele>
        <time>2023-12-06T15:27:40Z</time>
      </trkpt>
      <trkpt lat="49.2337" lon="-0.02793">
        <ele>79.2</ele>
        <time>2023-12-06T15:27:41Z</time>
      </trkpt>
      <trkpt lat="49.23372" lon="-0.02806">
        <ele>78.4</ele>
        <time>2023-12-06T15:27:42Z</time>
      </trkpt>
      <trkpt lat="49.23374" lon="-0.0282">
        <ele>77.4</ele>
        <time>2023-12-06T15:27:43Z</time>
      </trkpt>
      <trkpt lat="49.23377" lon="-0.02834">
        <ele>76.6</ele>
        <time>2023-12-06T15:27:44Z</time>
      </trkpt>
      <trkpt lat="49.23379" lon="-0.02848">
        <ele>76</ele>
        <time>2023-12-06T15:27:45Z</time>
      </trkpt>
      <trkpt lat="49.23382" lon="-0.02863">
        <ele>75.4</ele>
        <time>2023-12-06T15:27:46Z</time>
      </trkpt>
      <trkpt lat="49.23386" lon="-0.02878">
        <ele>74.6</ele>
        <time>2023-12-06T15:27:47Z</time>
      </trkpt>
      <trkpt lat="49.23391" lon="-0.02893">
        <ele>73.8</ele>
        <time>2023-12-06T15:27:48Z</time>
      </trkpt>
      <trkpt lat="49.23396" lon="-0.02907">
        <ele>73.2</ele>
        <time>2023-12-06T15:27:49Z</time>
      </trkpt>
      <trkpt lat="49.23403" lon="-0.0292">
        <ele>72.6</ele>
        <time>2023-12-06T15:27:50Z</time>
      </trkpt>
      <trkpt lat="49.2341" lon="-0.02932">
        <ele>72.2</ele>
        <time>2023-12-06T15:27:51Z</time>
      </trkpt>
      <trkpt lat="49.23419" lon="-0.02943">
        <ele>71.6</ele>
        <time>2023-12-06T15:27:52Z</time>
      </trkpt>
      <trkpt lat="49.23428" lon="-0.02954">
        <ele>71</ele>
        <time>2023-12-06T15:27:53Z</time>
      </trkpt>
      <trkpt lat="49.23437" lon="-0.02963">
        <ele>70</ele>
        <time>2023-12-06T15:27:54Z</time>
      </trkpt>
      <trkpt lat="49.23446" lon="-0.02973">
        <ele>69.2</ele>
        <time>2023-12-06T15:27:55Z</time>
      </trkpt>
      <trkpt lat="49.23455" lon="-0.02982">
        <ele>68.2</ele>
        <time>2023-12-06T15:27:56Z</time>
      </trkpt>
      <trkpt lat="49.23464" lon="-0.02991">
        <ele>67.6</ele>
        <time>2023-12-06T15:27:57Z</time>
      </trkpt>
      <trkpt lat="49.23473" lon="-0.03">
        <ele>66.6</ele>
        <time>2023-12-06T15:27:58Z</time>
      </trkpt>
      <trkpt lat="49.23483" lon="-0.03008">
        <ele>65.6</ele>
        <time>2023-12-06T15:27:59Z</time>
      </trkpt>
      <trkpt lat="49.23492" lon="-0.03015">
        <ele>65.2</ele>
        <time>2023-12-06T15:28:00Z</time>
      </trkpt>
      <trkpt lat="49.23501" lon="-0.03022">
        <ele>64.6</ele>
        <time>2023-12-06T15:28:01Z</time>
      </trkpt>
      <trkpt lat="49.23509" lon="-0.03029">
        <ele>64.2</ele>
        <time>2023-12-06T15:28:02Z</time>
      </trkpt>
      <trkpt lat="49.23518" lon="-0.03036">
        <ele>64</ele>
        <time>2023-12-06T15:28:03Z</time>
      </trkpt>
      <trkpt lat="49.23526" lon="-0.03043">
        <ele>63.6</ele>
        <time>2023-12-06T15:28:04Z</time>
      </trkpt>
      <trkpt lat="49.23535" lon="-0.03051">
        <ele>63.2</ele>
        <time>2023-12-06T15:28:05Z</time>
      </trkpt>
      <trkpt lat="49.23543" lon="-0.03059">
        <ele>62.8</ele>
        <time>2023-12-06T15:28:06Z</time>
      </trkpt>
      <trkpt lat="49.23552" lon="-0.03067">
        <ele>62.6</ele>
        <time>2023-12-06T15:28:07Z</time>
      </trkpt>
      <trkpt lat="49.2356" lon="-0.03076">
        <ele>62.4</ele>
        <time>2023-12-06T15:28:08Z</time>
      </trkpt>
      <trkpt lat="49.23568" lon="-0.03084">
        <ele>62.4</ele>
        <time>2023-12-06T15:28:09Z</time>
      </trkpt>
      <trkpt lat="49.23577" lon="-0.03093">
        <ele>62.2</ele>
        <time>2023-12-06T15:28:10Z</time>
      </trkpt>
      <trkpt lat="49.23586" lon="-0.03102">
        <ele>62</ele>
        <time>2023-12-06T15:28:11Z</time>
      </trkpt>
      <trkpt lat="49.23596" lon="-0.03109">
        <ele>61.8</ele>
        <time>2023-12-06T15:28:12Z</time>
      </trkpt>
      <trkpt lat="49.23606" lon="-0.03116">
        <ele>61.6</ele>
        <time>2023-12-06T15:28:13Z</time>
      </trkpt>
      <trkpt lat="49.23615" lon="-0.03121">
        <ele>61.2</ele>
        <time>2023-12-06T15:28:14Z</time>
      </trkpt>
      <trkpt lat="49.23624" lon="-0.03125">
        <ele>60.6</ele>
        <time>2023-12-06T15:28:15Z</time>
      </trkpt>
      <trkpt lat="49.23633" lon="-0.0313">
        <ele>60</ele>
        <time>2023-12-06T15:28:16Z</time>
      </trkpt>
      <trkpt lat="49.23642" lon="-0.03134">
        <ele>59.4</ele>
        <time>2023-12-06T15:28:17Z</time>
      </trkpt>
      <trkpt lat="49.23649" lon="-0.03137">
        <ele>58.4</ele>
        <time>2023-12-06T15:28:18Z</time>
      </trkpt>
      <trkpt lat="49.23659" lon="-0.03141">
        <ele>57.8</ele>
        <time>2023-12-06T15:28:19Z</time>
      </trkpt>
      <trkpt lat="49.23666" lon="-0.03143">
        <ele>56.8</ele>
        <time>2023-12-06T15:28:20Z</time>
      </trkpt>
      <trkpt lat="49.23672" lon="-0.03146">
        <ele>56.2</ele>
        <time>2023-12-06T15:28:21Z</time>
      </trkpt>
      <trkpt lat="49.23678" lon="-0.03148">
        <ele>55.6</ele>
        <time>2023-12-06T15:28:22Z</time>
      </trkpt>
      <trkpt lat="49.23683" lon="-0.03151">
        <ele>55</ele>
        <time>2023-12-06T15:28:23Z</time>
      </trkpt>
      <trkpt lat="49.23688" lon="-0.03154">
        <ele>54</ele>
        <time>2023-12-06T15:28:24Z</time>
      </trkpt>
      <trkpt lat="49.23692" lon="-0.03156">
        <ele>53</ele>
        <time>2023-12-06T15:28:25Z</time>
      </trkpt>
      <trkpt lat="49.23695" lon="-0.03158">
        <ele>52</ele>
        <time>2023-12-06T15:28:26Z</time>
      </trkpt>
      <trkpt lat="49.23697" lon="-0.0316">
        <ele>51.4</ele>
        <time>2023-12-06T15:28:27Z</time>
      </trkpt>
      <trkpt lat="49.23698" lon="-0.03161">
        <ele>50.8</ele>
        <time>2023-12-06T15:28:28Z</time>
      </trkpt>
      <trkpt lat="49.23698" lon="-0.03161">
        <ele>50.4</ele>
        <time>2023-12-06T15:28:29Z</time>
      </trkpt>
      <trkpt lat="49.23698" lon="-0.03161">
        <ele>50</ele>
        <time>2023-12-06T15:28:30Z</time>
      </trkpt>
      <trkpt lat="49.23701" lon="-0.03167">
        <ele>48.6</ele>
        <time>2023-12-06T15:28:44Z</time>
      </trkpt>
      <trkpt lat="49.23701" lon="-0.03171">
        <ele>48.6</ele>
        <time>2023-12-06T15:28:45Z</time>
      </trkpt>
      <trkpt lat="49.23701" lon="-0.03174">
        <ele>48.6</ele>
        <time>2023-12-06T15:28:46Z</time>
      </trkpt>
      <trkpt lat="49.23701" lon="-0.03178">
        <ele>48.6</ele>
        <time>2023-12-06T15:28:47Z</time>
      </trkpt>
      <trkpt lat="49.237" lon="-0.03182">
        <ele>48.6</ele>
        <time>2023-12-06T15:28:48Z</time>
      </trkpt>
      <trkpt lat="49.23699" lon="-0.03186">
        <ele>48.6</ele>
        <time>2023-12-06T15:28:49Z</time>
      </trkpt>
      <trkpt lat="49.23697" lon="-0.03192">
        <ele>48.6</ele>
        <time>2023-12-06T15:28:50Z</time>
      </trkpt>
      <trkpt lat="49.23696" lon="-0.03197">
        <ele>48.6</ele>
        <time>2023-12-06T15:28:51Z</time>
      </trkpt>
      <trkpt lat="49.23693" lon="-0.03203">
        <ele>48.6</ele>
        <time>2023-12-06T15:28:52Z</time>
      </trkpt>
      <trkpt lat="49.23691" lon="-0.03208">
        <ele>48.6</ele>
        <time>2023-12-06T15:28:53Z</time>
      </trkpt>
      <trkpt lat="49.23689" lon="-0.03214">
        <ele>48.4</ele>
        <time>2023-12-06T15:28:54Z</time>
      </trkpt>
      <trkpt lat="49.23687" lon="-0.03221">
        <ele>48.4</ele>
        <time>2023-12-06T15:28:55Z</time>
      </trkpt>
      <trkpt lat="49.23685" lon="-0.03227">
        <ele>48.4</ele>
        <time>2023-12-06T15:28:56Z</time>
      </trkpt>
      <trkpt lat="49.23682" lon="-0.03233">
        <ele>48.4</ele>
        <time>2023-12-06T15:28:57Z</time>
      </trkpt>
      <trkpt lat="49.23679" lon="-0.03239">
        <ele>48.4</ele>
        <time>2023-12-06T15:28:58Z</time>
      </trkpt>
      <trkpt lat="49.23677" lon="-0.03246">
        <ele>48.2</ele>
        <time>2023-12-06T15:28:59Z</time>
      </trkpt>
      <trkpt lat="49.23674" lon="-0.03253">
        <ele>48.2</ele>
        <time>2023-12-06T15:29:00Z</time>
      </trkpt>
      <trkpt lat="49.23672" lon="-0.0326">
        <ele>48.2</ele>
        <time>2023-12-06T15:29:01Z</time>
      </trkpt>
      <trkpt lat="49.23669" lon="-0.03267">
        <ele>48</ele>
        <time>2023-12-06T15:29:02Z</time>
      </trkpt>
      <trkpt lat="49.23665" lon="-0.03273">
        <ele>48</ele>
        <time>2023-12-06T15:29:03Z</time>
      </trkpt>
      <trkpt lat="49.23663" lon="-0.03281">
        <ele>47.8</ele>
        <time>2023-12-06T15:29:04Z</time>
      </trkpt>
      <trkpt lat="49.23659" lon="-0.03289">
        <ele>47.6</ele>
        <time>2023-12-06T15:29:05Z</time>
      </trkpt>
      <trkpt lat="49.23656" lon="-0.03296">
        <ele>47.6</ele>
        <time>2023-12-06T15:29:06Z</time>
      </trkpt>
      <trkpt lat="49.23652" lon="-0.03304">
        <ele>47.4</ele>
        <time>2023-12-06T15:29:07Z</time>
      </trkpt>
      <trkpt lat="49.23648" lon="-0.03312">
        <ele>47.2</ele>
        <time>2023-12-06T15:29:08Z</time>
      </trkpt>
      <trkpt lat="49.23644" lon="-0.0332">
        <ele>47.2</ele>
        <time>2023-12-06T15:29:09Z</time>
      </trkpt>
      <trkpt lat="49.2364" lon="-0.03329">
        <ele>46.8</ele>
        <time>2023-12-06T15:29:10Z</time>
      </trkpt>
      <trkpt lat="49.23636" lon="-0.03338">
        <ele>46.8</ele>
        <time>2023-12-06T15:29:11Z</time>
      </trkpt>
      <trkpt lat="49.23632" lon="-0.03347">
        <ele>46.4</ele>
        <time>2023-12-06T15:29:12Z</time>
      </trkpt>
      <trkpt lat="49.23627" lon="-0.03357">
        <ele>46.2</ele>
        <time>2023-12-06T15:29:13Z</time>
      </trkpt>
      <trkpt lat="49.23623" lon="-0.03366">
        <ele>45.6</ele>
        <time>2023-12-06T15:29:14Z</time>
      </trkpt>
      <trkpt lat="49.23617" lon="-0.03376">
        <ele>45.2</ele>
        <time>2023-12-06T15:29:15Z</time>
      </trkpt>
      <trkpt lat="49.23612" lon="-0.03386">
        <ele>44.6</ele>
        <time>2023-12-06T15:29:16Z</time>
      </trkpt>
      <trkpt lat="49.23606" lon="-0.03397">
        <ele>44.2</ele>
        <time>2023-12-06T15:29:17Z</time>
      </trkpt>
      <trkpt lat="49.236" lon="-0.03408">
        <ele>43.8</ele>
        <time>2023-12-06T15:29:18Z</time>
      </trkpt>
      <trkpt lat="49.23593" lon="-0.03419">
        <ele>43.4</ele>
        <time>2023-12-06T15:29:19Z</time>
      </trkpt>
      <trkpt lat="49.23587" lon="-0.03431">
        <ele>43</ele>
        <time>2023-12-06T15:29:20Z</time>
      </trkpt>
      <trkpt lat="49.23581" lon="-0.03443">
        <ele>42.6</ele>
        <time>2023-12-06T15:29:21Z</time>
      </trkpt>
      <trkpt lat="49.23574" lon="-0.03454">
        <ele>41.8</ele>
        <time>2023-12-06T15:29:22Z</time>
      </trkpt>
      <trkpt lat="49.23567" lon="-0.03467">
        <ele>41.4</ele>
        <time>2023-12-06T15:29:23Z</time>
      </trkpt>
      <trkpt lat="49.2356" lon="-0.03479">
        <ele>40.6</ele>
        <time>2023-12-06T15:29:24Z</time>
      </trkpt>
      <trkpt lat="49.23553" lon="-0.03492">
        <ele>39.8</ele>
        <time>2023-12-06T15:29:25Z</time>
      </trkpt>
      <trkpt lat="49.23546" lon="-0.03505">
        <ele>39</ele>
        <time>2023-12-06T15:29:26Z</time>
      </trkpt>
      <trkpt lat="49.23539" lon="-0.03519">
        <ele>38.2</ele>
        <time>2023-12-06T15:29:27Z</time>
      </trkpt>
      <trkpt lat="49.23532" lon="-0.03532">
        <ele>37.2</ele>
        <time>2023-12-06T15:29:28Z</time>
      </trkpt>
      <trkpt lat="49.23525" lon="-0.03545">
        <ele>36.2</ele>
        <time>2023-12-06T15:29:29Z</time>
      </trkpt>
      <trkpt lat="49.23518" lon="-0.03558">
        <ele>35.2</ele>
        <time>2023-12-06T15:29:30Z</time>
      </trkpt>
      <trkpt lat="49.23512" lon="-0.03571">
        <ele>34.4</ele>
        <time>2023-12-06T15:29:31Z</time>
      </trkpt>
      <trkpt lat="49.23505" lon="-0.03584">
        <ele>33.6</ele>
        <time>2023-12-06T15:29:32Z</time>
      </trkpt>
      <trkpt lat="49.23499" lon="-0.03597">
        <ele>32.4</ele>
        <time>2023-12-06T15:29:33Z</time>
      </trkpt>
      <trkpt lat="49.23492" lon="-0.03608">
        <ele>31.6</ele>
        <time>2023-12-06T15:29:34Z</time>
      </trkpt>
      <trkpt lat="49.23485" lon="-0.0362">
        <ele>30.8</ele>
        <time>2023-12-06T15:29:35Z</time>
      </trkpt>
      <trkpt lat="49.23479" lon="-0.03632">
        <ele>29.8</ele>
        <time>2023-12-06T15:29:36Z</time>
      </trkpt>
      <trkpt lat="49.23473" lon="-0.03643">
        <ele>29.2</ele>
        <time>2023-12-06T15:29:37Z</time>
      </trkpt>
      <trkpt lat="49.23467" lon="-0.03654">
        <ele>28.6</ele>
        <time>2023-12-06T15:29:38Z</time>
      </trkpt>
      <trkpt lat="49.23462" lon="-0.03664">
        <ele>28</ele>
        <time>2023-12-06T15:29:39Z</time>
      </trkpt>
      <trkpt lat="49.23456" lon="-0.03675">
        <ele>27.6</ele>
        <time>2023-12-06T15:29:40Z</time>
      </trkpt>
      <trkpt lat="49.2345" lon="-0.03685">
        <ele>27.2</ele>
        <time>2023-12-06T15:29:41Z</time>
      </trkpt>
      <trkpt lat="49.23445" lon="-0.03695">
        <ele>27</ele>
        <time>2023-12-06T15:29:42Z</time>
      </trkpt>
      <trkpt lat="49.2344" lon="-0.03704">
        <ele>27</ele>
        <time>2023-12-06T15:29:43Z</time>
      </trkpt>
      <trkpt lat="49.23435" lon="-0.03714">
        <ele>27</ele>
        <time>2023-12-06T15:29:44Z</time>
      </trkpt>
      <trkpt lat="49.2343" lon="-0.03723">
        <ele>27</ele>
        <time>2023-12-06T15:29:45Z</time>
      </trkpt>
      <trkpt lat="49.23426" lon="-0.03733">
        <ele>27</ele>
        <time>2023-12-06T15:29:46Z</time>
      </trkpt>
      <trkpt lat="49.23421" lon="-0.03742">
        <ele>27</ele>
        <time>2023-12-06T15:29:47Z</time>
      </trkpt>
      <trkpt lat="49.23417" lon="-0.0375">
        <ele>27</ele>
        <time>2023-12-06T15:29:48Z</time>
      </trkpt>
      <trkpt lat="49.23413" lon="-0.03759">
        <ele>27</ele>
        <time>2023-12-06T15:29:49Z</time>
      </trkpt>
      <trkpt lat="49.23408" lon="-0.03768">
        <ele>27</ele>
        <time>2023-12-06T15:29:50Z</time>
      </trkpt>
      <trkpt lat="49.23404" lon="-0.03776">
        <ele>27</ele>
        <time>2023-12-06T15:29:51Z</time>
      </trkpt>
      <trkpt lat="49.234" lon="-0.03785">
        <ele>27</ele>
        <time>2023-12-06T15:29:52Z</time>
      </trkpt>
      <trkpt lat="49.23397" lon="-0.03795">
        <ele>27.2</ele>
        <time>2023-12-06T15:29:53Z</time>
      </trkpt>
      <trkpt lat="49.23394" lon="-0.03805">
        <ele>27.2</ele>
        <time>2023-12-06T15:29:54Z</time>
      </trkpt>
      <trkpt lat="49.23391" lon="-0.03815">
        <ele>27.4</ele>
        <time>2023-12-06T15:29:55Z</time>
      </trkpt>
      <trkpt lat="49.23387" lon="-0.03824">
        <ele>27.6</ele>
        <time>2023-12-06T15:29:56Z</time>
      </trkpt>
      <trkpt lat="49.23382" lon="-0.03831">
        <ele>27.6</ele>
        <time>2023-12-06T15:29:57Z</time>
      </trkpt>
      <trkpt lat="49.23377" lon="-0.03837">
        <ele>27.6</ele>
        <time>2023-12-06T15:29:58Z</time>
      </trkpt>
      <trkpt lat="49.23371" lon="-0.03844">
        <ele>27.8</ele>
        <time>2023-12-06T15:29:59Z</time>
      </trkpt>
      <trkpt lat="49.23366" lon="-0.03851">
        <ele>27.8</ele>
        <time>2023-12-06T15:30:00Z</time>
      </trkpt>
      <trkpt lat="49.23361" lon="-0.03859">
        <ele>28</ele>
        <time>2023-12-06T15:30:01Z</time>
      </trkpt>
      <trkpt lat="49.23357" lon="-0.03867">
        <ele>28.2</ele>
        <time>2023-12-06T15:30:02Z</time>
      </trkpt>
      <trkpt lat="49.23353" lon="-0.03875">
        <ele>28.4</ele>
        <time>2023-12-06T15:30:03Z</time>
      </trkpt>
      <trkpt lat="49.23349" lon="-0.03882">
        <ele>28.4</ele>
        <time>2023-12-06T15:30:04Z</time>
      </trkpt>
      <trkpt lat="49.23345" lon="-0.0389">
        <ele>28.6</ele>
        <time>2023-12-06T15:30:05Z</time>
      </trkpt>
      <trkpt lat="49.23342" lon="-0.03897">
        <ele>28.8</ele>
        <time>2023-12-06T15:30:06Z</time>
      </trkpt>
      <trkpt lat="49.23338" lon="-0.03904">
        <ele>29</ele>
        <time>2023-12-06T15:30:07Z</time>
      </trkpt>
      <trkpt lat="49.23334" lon="-0.03911">
        <ele>29.2</ele>
        <time>2023-12-06T15:30:08Z</time>
      </trkpt>
      <trkpt lat="49.2333" lon="-0.03918">
        <ele>29.2</ele>
        <time>2023-12-06T15:30:09Z</time>
      </trkpt>
      <trkpt lat="49.23326" lon="-0.03925">
        <ele>29.4</ele>
        <time>2023-12-06T15:30:10Z</time>
      </trkpt>
      <trkpt lat="49.23322" lon="-0.03932">
        <ele>29.6</ele>
        <time>2023-12-06T15:30:11Z</time>
      </trkpt>
      <trkpt lat="49.23318" lon="-0.03939">
        <ele>30</ele>
        <time>2023-12-06T15:30:12Z</time>
      </trkpt>
      <trkpt lat="49.23315" lon="-0.03945">
        <ele>30.2</ele>
        <time>2023-12-06T15:30:13Z</time>
      </trkpt>
      <trkpt lat="49.23311" lon="-0.03951">
        <ele>30.4</ele>
        <time>2023-12-06T15:30:14Z</time>
      </trkpt>
      <trkpt lat="49.23307" lon="-0.03956">
        <ele>30.8</ele>
        <time>2023-12-06T15:30:15Z</time>
      </trkpt>
      <trkpt lat="49.23304" lon="-0.03963">
        <ele>31</ele>
        <time>2023-12-06T15:30:16Z</time>
      </trkpt>
      <trkpt lat="49.23301" lon="-0.03969">
        <ele>31.2</ele>
        <time>2023-12-06T15:30:17Z</time>
      </trkpt>
      <trkpt lat="49.23298" lon="-0.03976">
        <ele>31.4</ele>
        <time>2023-12-06T15:30:18Z</time>
      </trkpt>
      <trkpt lat="49.23295" lon="-0.03982">
        <ele>31.6</ele>
        <time>2023-12-06T15:30:19Z</time>
      </trkpt>
      <trkpt lat="49.23292" lon="-0.03989">
        <ele>32</ele>
        <time>2023-12-06T15:30:20Z</time>
      </trkpt>
      <trkpt lat="49.23289" lon="-0.03995">
        <ele>32.2</ele>
        <time>2023-12-06T15:30:21Z</time>
      </trkpt>
      <trkpt lat="49.23286" lon="-0.04001">
        <ele>32.4</ele>
        <time>2023-12-06T15:30:22Z</time>
      </trkpt>
      <trkpt lat="49.23282" lon="-0.04007">
        <ele>32.6</ele>
        <time>2023-12-06T15:30:23Z</time>
      </trkpt>
      <trkpt lat="49.23279" lon="-0.04013">
        <ele>32.8</ele>
        <time>2023-12-06T15:30:24Z</time>
      </trkpt>
      <trkpt lat="49.23276" lon="-0.0402">
        <ele>33</ele>
        <time>2023-12-06T15:30:25Z</time>
      </trkpt>
      <trkpt lat="49.23273" lon="-0.04026">
        <ele>33.4</ele>
        <time>2023-12-06T15:30:26Z</time>
      </trkpt>
      <trkpt lat="49.2327" lon="-0.04032">
        <ele>33.6</ele>
        <time>2023-12-06T15:30:27Z</time>
      </trkpt>
      <trkpt lat="49.23266" lon="-0.04038">
        <ele>33.8</ele>
        <time>2023-12-06T15:30:28Z</time>
      </trkpt>
      <trkpt lat="49.23263" lon="-0.04044">
        <ele>34</ele>
        <time>2023-12-06T15:30:29Z</time>
      </trkpt>
      <trkpt lat="49.2326" lon="-0.0405">
        <ele>34</ele>
        <time>2023-12-06T15:30:30Z</time>
      </trkpt>
      <trkpt lat="49.23256" lon="-0.04055">
        <ele>34.2</ele>
        <time>2023-12-06T15:30:31Z</time>
      </trkpt>
      <trkpt lat="49.23253" lon="-0.04061">
        <ele>34.4</ele>
        <time>2023-12-06T15:30:32Z</time>
      </trkpt>
      <trkpt lat="49.2325" lon="-0.04067">
        <ele>34.8</ele>
        <time>2023-12-06T15:30:33Z</time>
      </trkpt>
      <trkpt lat="49.23246" lon="-0.04072">
        <ele>35</ele>
        <time>2023-12-06T15:30:34Z</time>
      </trkpt>
      <trkpt lat="49.23243" lon="-0.04078">
        <ele>35.2</ele>
        <time>2023-12-06T15:30:35Z</time>
      </trkpt>
      <trkpt lat="49.2324" lon="-0.04084">
        <ele>35.4</ele>
        <time>2023-12-06T15:30:36Z</time>
      </trkpt>
      <trkpt lat="49.23237" lon="-0.0409">
        <ele>35.6</ele>
        <time>2023-12-06T15:30:37Z</time>
      </trkpt>
      <trkpt lat="49.23234" lon="-0.04095">
        <ele>35.8</ele>
        <time>2023-12-06T15:30:38Z</time>
      </trkpt>
      <trkpt lat="49.23231" lon="-0.04101">
        <ele>35.8</ele>
        <time>2023-12-06T15:30:39Z</time>
      </trkpt>
      <trkpt lat="49.23228" lon="-0.04106">
        <ele>36</ele>
        <time>2023-12-06T15:30:40Z</time>
      </trkpt>
      <trkpt lat="49.23225" lon="-0.04111">
        <ele>36.2</ele>
        <time>2023-12-06T15:30:41Z</time>
      </trkpt>
      <trkpt lat="49.23222" lon="-0.04116">
        <ele>36.4</ele>
        <time>2023-12-06T15:30:42Z</time>
      </trkpt>
      <trkpt lat="49.23219" lon="-0.04121">
        <ele>36.6</ele>
        <time>2023-12-06T15:30:43Z</time>
      </trkpt>
      <trkpt lat="49.23216" lon="-0.04126">
        <ele>36.8</ele>
        <time>2023-12-06T15:30:44Z</time>
      </trkpt>
      <trkpt lat="49.23213" lon="-0.04132">
        <ele>37.2</ele>
        <time>2023-12-06T15:30:45Z</time>
      </trkpt>
      <trkpt lat="49.2321" lon="-0.04137">
        <ele>37.4</ele>
        <time>2023-12-06T15:30:46Z</time>
      </trkpt>
      <trkpt lat="49.23207" lon="-0.04143">
        <ele>37.4</ele>
        <time>2023-12-06T15:30:47Z</time>
      </trkpt>
      <trkpt lat="49.23204" lon="-0.04148">
        <ele>37.6</ele>
        <time>2023-12-06T15:30:48Z</time>
      </trkpt>
      <trkpt lat="49.23201" lon="-0.04154">
        <ele>37.8</ele>
        <time>2023-12-06T15:30:49Z</time>
      </trkpt>
      <trkpt lat="49.23198" lon="-0.04159">
        <ele>38</ele>
        <time>2023-12-06T15:30:50Z</time>
      </trkpt>
      <trkpt lat="49.23195" lon="-0.04165">
        <ele>38.2</ele>
        <time>2023-12-06T15:30:51Z</time>
      </trkpt>
      <trkpt lat="49.23192" lon="-0.04171">
        <ele>38.2</ele>
        <time>2023-12-06T15:30:52Z</time>
      </trkpt>
      <trkpt lat="49.23189" lon="-0.04176">
        <ele>38.4</ele>
        <time>2023-12-06T15:30:53Z</time>
      </trkpt>
      <trkpt lat="49.23186" lon="-0.04182">
        <ele>38.4</ele>
        <time>2023-12-06T15:30:54Z</time>
      </trkpt>
      <trkpt lat="49.23183" lon="-0.04188">
        <ele>38.4</ele>
        <time>2023-12-06T15:30:55Z</time>
      </trkpt>
      <trkpt lat="49.2318" lon="-0.04194">
        <ele>38.4</ele>
        <time>2023-12-06T15:30:56Z</time>
      </trkpt>
      <trkpt lat="49.23177" lon="-0.042">
        <ele>38.4</ele>
        <time>2023-12-06T15:30:57Z</time>
      </trkpt>
      <trkpt lat="49.23174" lon="-0.04207">
        <ele>38.4</ele>
        <time>2023-12-06T15:30:58Z</time>
      </trkpt>
      <trkpt lat="49.23171" lon="-0.04213">
        <ele>38.4</ele>
        <time>2023-12-06T15:30:59Z</time>
      </trkpt>
      <trkpt lat="49.23168" lon="-0.0422">
        <ele>38.4</ele>
        <time>2023-12-06T15:31:00Z</time>
      </trkpt>
      <trkpt lat="49.23166" lon="-0.04226">
        <ele>38.4</ele>
        <time>2023-12-06T15:31:01Z</time>
      </trkpt>
      <trkpt lat="49.23163" lon="-0.04233">
        <ele>38.4</ele>
        <time>2023-12-06T15:31:02Z</time>
      </trkpt>
      <trkpt lat="49.2316" lon="-0.0424">
        <ele>38.4</ele>
        <time>2023-12-06T15:31:03Z</time>
      </trkpt>
      <trkpt lat="49.23158" lon="-0.04247">
        <ele>38.4</ele>
        <time>2023-12-06T15:31:04Z</time>
      </trkpt>
      <trkpt lat="49.23156" lon="-0.04254">
        <ele>38.4</ele>
        <time>2023-12-06T15:31:05Z</time>
      </trkpt>
      <trkpt lat="49.23153" lon="-0.0426">
        <ele>38.4</ele>
        <time>2023-12-06T15:31:06Z</time>
      </trkpt>
      <trkpt lat="49.23151" lon="-0.04267">
        <ele>38.4</ele>
        <time>2023-12-06T15:31:07Z</time>
      </trkpt>
      <trkpt lat="49.23149" lon="-0.04274">
        <ele>38.4</ele>
        <time>2023-12-06T15:31:08Z</time>
      </trkpt>
      <trkpt lat="49.23147" lon="-0.04281">
        <ele>38.4</ele>
        <time>2023-12-06T15:31:09Z</time>
      </trkpt>
      <trkpt lat="49.23145" lon="-0.04288">
        <ele>38.4</ele>
        <time>2023-12-06T15:31:10Z</time>
      </trkpt>
      <trkpt lat="49.23143" lon="-0.04294">
        <ele>38.4</ele>
        <time>2023-12-06T15:31:11Z</time>
      </trkpt>
      <trkpt lat="49.23141" lon="-0.04301">
        <ele>38.2</ele>
        <time>2023-12-06T15:31:12Z</time>
      </trkpt>
      <trkpt lat="49.23139" lon="-0.04308">
        <ele>38.2</ele>
        <time>2023-12-06T15:31:13Z</time>
      </trkpt>
      <trkpt lat="49.23138" lon="-0.04315">
        <ele>38.2</ele>
        <time>2023-12-06T15:31:14Z</time>
      </trkpt>
      <trkpt lat="49.23137" lon="-0.04322">
        <ele>38.2</ele>
        <time>2023-12-06T15:31:15Z</time>
      </trkpt>
      <trkpt lat="49.23136" lon="-0.04329">
        <ele>38.2</ele>
        <time>2023-12-06T15:31:16Z</time>
      </trkpt>
      <trkpt lat="49.23135" lon="-0.04337">
        <ele>38.2</ele>
        <time>2023-12-06T15:31:17Z</time>
      </trkpt>
      <trkpt lat="49.23133" lon="-0.04344">
        <ele>38.2</ele>
        <time>2023-12-06T15:31:18Z</time>
      </trkpt>
      <trkpt lat="49.23132" lon="-0.04352">
        <ele>38.2</ele>
        <time>2023-12-06T15:31:19Z</time>
      </trkpt>
      <trkpt lat="49.2313" lon="-0.04359">
        <ele>38.2</ele>
        <time>2023-12-06T15:31:20Z</time>
      </trkpt>
      <trkpt lat="49.23128" lon="-0.04367">
        <ele>38.2</ele>
        <time>2023-12-06T15:31:21Z</time>
      </trkpt>
      <trkpt lat="49.23127" lon="-0.04375">
        <ele>38.2</ele>
        <time>2023-12-06T15:31:22Z</time>
      </trkpt>
      <trkpt lat="49.23125" lon="-0.04382">
        <ele>38.2</ele>
        <time>2023-12-06T15:31:23Z</time>
      </trkpt>
      <trkpt lat="49.23124" lon="-0.04388">
        <ele>38.2</ele>
        <time>2023-12-06T15:31:24Z</time>
      </trkpt>
      <trkpt lat="49.23122" lon="-0.04394">
        <ele>38.2</ele>
        <time>2023-12-06T15:31:25Z</time>
      </trkpt>
      <trkpt lat="49.23121" lon="-0.04401">
        <ele>38.2</ele>
        <time>2023-12-06T15:31:26Z</time>
      </trkpt>
      <trkpt lat="49.2312" lon="-0.04408">
        <ele>38.2</ele>
        <time>2023-12-06T15:31:27Z</time>
      </trkpt>
      <trkpt lat="49.23119" lon="-0.04415">
        <ele>38.4</ele>
        <time>2023-12-06T15:31:28Z</time>
      </trkpt>
      <trkpt lat="49.23117" lon="-0.04421">
        <ele>38.4</ele>
        <time>2023-12-06T15:31:29Z</time>
      </trkpt>
      <trkpt lat="49.23115" lon="-0.04429">
        <ele>38.6</ele>
        <time>2023-12-06T15:31:30Z</time>
      </trkpt>
      <trkpt lat="49.23114" lon="-0.04436">
        <ele>38.6</ele>
        <time>2023-12-06T15:31:31Z</time>
      </trkpt>
      <trkpt lat="49.23112" lon="-0.04443">
        <ele>38.8</ele>
        <time>2023-12-06T15:31:32Z</time>
      </trkpt>
      <trkpt lat="49.23111" lon="-0.0445">
        <ele>38.8</ele>
        <time>2023-12-06T15:31:33Z</time>
      </trkpt>
      <trkpt lat="49.23109" lon="-0.04458">
        <ele>39</ele>
        <time>2023-12-06T15:31:34Z</time>
      </trkpt>
      <trkpt lat="49.23108" lon="-0.04465">
        <ele>39</ele>
        <time>2023-12-06T15:31:35Z</time>
      </trkpt>
      <trkpt lat="49.23107" lon="-0.04473">
        <ele>39</ele>
        <time>2023-12-06T15:31:36Z</time>
      </trkpt>
      <trkpt lat="49.23106" lon="-0.0448">
        <ele>39.2</ele>
        <time>2023-12-06T15:31:37Z</time>
      </trkpt>
      <trkpt lat="49.23104" lon="-0.04488">
        <ele>39.4</ele>
        <time>2023-12-06T15:31:38Z</time>
      </trkpt>
      <trkpt lat="49.23103" lon="-0.04495">
        <ele>39.6</ele>
        <time>2023-12-06T15:31:39Z</time>
      </trkpt>
      <trkpt lat="49.23102" lon="-0.04501">
        <ele>39.6</ele>
        <time>2023-12-06T15:31:40Z</time>
      </trkpt>
      <trkpt lat="49.231" lon="-0.04508">
        <ele>39.8</ele>
        <time>2023-12-06T15:31:41Z</time>
      </trkpt>
      <trkpt lat="49.23099" lon="-0.04514">
        <ele>40</ele>
        <time>2023-12-06T15:31:42Z</time>
      </trkpt>
      <trkpt lat="49.23097" lon="-0.0452">
        <ele>40</ele>
        <time>2023-12-06T15:31:43Z</time>
      </trkpt>
      <trkpt lat="49.23096" lon="-0.04526">
        <ele>40</ele>
        <time>2023-12-06T15:31:44Z</time>
      </trkpt>
      <trkpt lat="49.23094" lon="-0.04532">
        <ele>40.2</ele>
        <time>2023-12-06T15:31:45Z</time>
      </trkpt>
      <trkpt lat="49.23093" lon="-0.04538">
        <ele>40.2</ele>
        <time>2023-12-06T15:31:46Z</time>
      </trkpt>
      <trkpt lat="49.23092" lon="-0.04544">
        <ele>40.4</ele>
        <time>2023-12-06T15:31:47Z</time>
      </trkpt>
      <trkpt lat="49.2309" lon="-0.0455">
        <ele>40.4</ele>
        <time>2023-12-06T15:31:48Z</time>
      </trkpt>
      <trkpt lat="49.23089" lon="-0.04556">
        <ele>40.6</ele>
        <time>2023-12-06T15:31:49Z</time>
      </trkpt>
      <trkpt lat="49.23088" lon="-0.04561">
        <ele>40.6</ele>
        <time>2023-12-06T15:31:50Z</time>
      </trkpt>
      <trkpt lat="49.23087" lon="-0.04567">
        <ele>40.8</ele>
        <time>2023-12-06T15:31:51Z</time>
      </trkpt>
      <trkpt lat="49.23086" lon="-0.04572">
        <ele>41</ele>
        <time>2023-12-06T15:31:52Z</time>
      </trkpt>
      <trkpt lat="49.23086" lon="-0.04578">
        <ele>41</ele>
        <time>2023-12-06T15:31:53Z</time>
      </trkpt>
      <trkpt lat="49.23087" lon="-0.04582">
        <ele>41.2</ele>
        <time>2023-12-06T15:31:54Z</time>
      </trkpt>
      <trkpt lat="49.2309" lon="-0.04586">
        <ele>41.4</ele>
        <time>2023-12-06T15:31:55Z</time>
      </trkpt>
      <trkpt lat="49.23092" lon="-0.04591">
        <ele>41.4</ele>
        <time>2023-12-06T15:31:56Z</time>
      </trkpt>
      <trkpt lat="49.23094" lon="-0.04597">
        <ele>41.6</ele>
        <time>2023-12-06T15:31:57Z</time>
      </trkpt>
      <trkpt lat="49.23094" lon="-0.04604">
        <ele>41.6</ele>
        <time>2023-12-06T15:31:58Z</time>
      </trkpt>
      <trkpt lat="49.23093" lon="-0.04611">
        <ele>41.6</ele>
        <time>2023-12-06T15:31:59Z</time>
      </trkpt>
      <trkpt lat="49.23092" lon="-0.04619">
        <ele>41.8</ele>
        <time>2023-12-06T15:32:00Z</time>
      </trkpt>
      <trkpt lat="49.2309" lon="-0.04627">
        <ele>41.8</ele>
        <time>2023-12-06T15:32:01Z</time>
      </trkpt>
      <trkpt lat="49.23089" lon="-0.04634">
        <ele>41.8</ele>
        <time>2023-12-06T15:32:02Z</time>
      </trkpt>
      <trkpt lat="49.23087" lon="-0.04641">
        <ele>41.8</ele>
        <time>2023-12-06T15:32:03Z</time>
      </trkpt>
      <trkpt lat="49.23086" lon="-0.04649">
        <ele>41.8</ele>
        <time>2023-12-06T15:32:04Z</time>
      </trkpt>
      <trkpt lat="49.23085" lon="-0.04656">
        <ele>41.8</ele>
        <time>2023-12-06T15:32:05Z</time>
      </trkpt>
      <trkpt lat="49.23083" lon="-0.04664">
        <ele>41.8</ele>
        <time>2023-12-06T15:32:06Z</time>
      </trkpt>
      <trkpt lat="49.23082" lon="-0.04672">
        <ele>41.8</ele>
        <time>2023-12-06T15:32:07Z</time>
      </trkpt>
      <trkpt lat="49.2308" lon="-0.0468">
        <ele>41.8</ele>
        <time>2023-12-06T15:32:08Z</time>
      </trkpt>
      <trkpt lat="49.23079" lon="-0.04689">
        <ele>41.8</ele>
        <time>2023-12-06T15:32:09Z</time>
      </trkpt>
      <trkpt lat="49.23079" lon="-0.04697">
        <ele>41.8</ele>
        <time>2023-12-06T15:32:10Z</time>
      </trkpt>
      <trkpt lat="49.2308" lon="-0.04707">
        <ele>41.6</ele>
        <time>2023-12-06T15:32:11Z</time>
      </trkpt>
      <trkpt lat="49.23082" lon="-0.04715">
        <ele>41.6</ele>
        <time>2023-12-06T15:32:12Z</time>
      </trkpt>
      <trkpt lat="49.23085" lon="-0.04723">
        <ele>41.6</ele>
        <time>2023-12-06T15:32:13Z</time>
      </trkpt>
      <trkpt lat="49.23089" lon="-0.04729">
        <ele>41.4</ele>
        <time>2023-12-06T15:32:14Z</time>
      </trkpt>
      <trkpt lat="49.23095" lon="-0.04734">
        <ele>41.2</ele>
        <time>2023-12-06T15:32:15Z</time>
      </trkpt>
      <trkpt lat="49.23101" lon="-0.04737">
        <ele>41</ele>
        <time>2023-12-06T15:32:16Z</time>
      </trkpt>
      <trkpt lat="49.23107" lon="-0.04739">
        <ele>40.8</ele>
        <time>2023-12-06T15:32:17Z</time>
      </trkpt>
      <trkpt lat="49.23112" lon="-0.04741">
        <ele>40.6</ele>
        <time>2023-12-06T15:32:18Z</time>
      </trkpt>
      <trkpt lat="49.23117" lon="-0.04742">
        <ele>40.4</ele>
        <time>2023-12-06T15:32:19Z</time>
      </trkpt>
      <trkpt lat="49.23122" lon="-0.04744">
        <ele>40.4</ele>
        <time>2023-12-06T15:32:20Z</time>
      </trkpt>
      <trkpt lat="49.23127" lon="-0.04745">
        <ele>40.2</ele>
        <time>2023-12-06T15:32:21Z</time>
      </trkpt>
      <trkpt lat="49.23131" lon="-0.04746">
        <ele>40</ele>
        <time>2023-12-06T15:32:22Z</time>
      </trkpt>
      <trkpt lat="49.23135" lon="-0.04749">
        <ele>39.8</ele>
        <time>2023-12-06T15:32:23Z</time>
      </trkpt>
      <trkpt lat="49.23139" lon="-0.04752">
        <ele>39.4</ele>
        <time>2023-12-06T15:32:24Z</time>
      </trkpt>
      <trkpt lat="49.23142" lon="-0.04757">
        <ele>39.4</ele>
        <time>2023-12-06T15:32:25Z</time>
      </trkpt>
      <trkpt lat="49.23144" lon="-0.04763">
        <ele>39.4</ele>
        <time>2023-12-06T15:32:26Z</time>
      </trkpt>
      <trkpt lat="49.23144" lon="-0.0477">
        <ele>39.2</ele>
        <time>2023-12-06T15:32:27Z</time>
      </trkpt>
      <trkpt lat="49.23144" lon="-0.04776">
        <ele>39.2</ele>
        <time>2023-12-06T15:32:28Z</time>
      </trkpt>
      <trkpt lat="49.23144" lon="-0.04782">
        <ele>39.2</ele>
        <time>2023-12-06T15:32:29Z</time>
      </trkpt>
      <trkpt lat="49.23144" lon="-0.04788">
        <ele>39.2</ele>
        <time>2023-12-06T15:32:30Z</time>
      </trkpt>
      <trkpt lat="49.23144" lon="-0.04794">
        <ele>39.2</ele>
        <time>2023-12-06T15:32:31Z</time>
      </trkpt>
      <trkpt lat="49.23144" lon="-0.048">
        <ele>39.2</ele>
        <time>2023-12-06T15:32:32Z</time>
      </trkpt>
      <trkpt lat="49.23145" lon="-0.04806">
        <ele>39.4</ele>
        <time>2023-12-06T15:32:33Z</time>
      </trkpt>
      <trkpt lat="49.23145" lon="-0.04812">
        <ele>39.4</ele>
        <time>2023-12-06T15:32:34Z</time>
      </trkpt>
      <trkpt lat="49.23145" lon="-0.04818">
        <ele>39.4</ele>
        <time>2023-12-06T15:32:35Z</time>
      </trkpt>
      <trkpt lat="49.23145" lon="-0.04823">
        <ele>39.4</ele>
        <time>2023-12-06T15:32:36Z</time>
      </trkpt>
      <trkpt lat="49.23145" lon="-0.04829">
        <ele>39.6</ele>
        <time>2023-12-06T15:32:37Z</time>
      </trkpt>
      <trkpt lat="49.23145" lon="-0.04835">
        <ele>39.8</ele>
        <time>2023-12-06T15:32:38Z</time>
      </trkpt>
      <trkpt lat="49.23145" lon="-0.04842">
        <ele>40.2</ele>
        <time>2023-12-06T15:32:39Z</time>
      </trkpt>
      <trkpt lat="49.23145" lon="-0.04847">
        <ele>40.4</ele>
        <time>2023-12-06T15:32:40Z</time>
      </trkpt>
      <trkpt lat="49.23145" lon="-0.04854">
        <ele>40.8</ele>
        <time>2023-12-06T15:32:41Z</time>
      </trkpt>
      <trkpt lat="49.23145" lon="-0.0486">
        <ele>41.2</ele>
        <time>2023-12-06T15:32:42Z</time>
      </trkpt>
      <trkpt lat="49.23145" lon="-0.04866">
        <ele>41.6</ele>
        <time>2023-12-06T15:32:43Z</time>
      </trkpt>
      <trkpt lat="49.23146" lon="-0.04873">
        <ele>41.8</ele>
        <time>2023-12-06T15:32:44Z</time>
      </trkpt>
      <trkpt lat="49.23147" lon="-0.04879">
        <ele>42</ele>
        <time>2023-12-06T15:32:45Z</time>
      </trkpt>
      <trkpt lat="49.23147" lon="-0.04886">
        <ele>42.4</ele>
        <time>2023-12-06T15:32:46Z</time>
      </trkpt>
      <trkpt lat="49.23148" lon="-0.04894">
        <ele>42.6</ele>
        <time>2023-12-06T15:32:47Z</time>
      </trkpt>
      <trkpt lat="49.23149" lon="-0.04901">
        <ele>43</ele>
        <time>2023-12-06T15:32:48Z</time>
      </trkpt>
      <trkpt lat="49.2315" lon="-0.04908">
        <ele>43.2</ele>
        <time>2023-12-06T15:32:49Z</time>
      </trkpt>
      <trkpt lat="49.23152" lon="-0.04915">
        <ele>43.4</ele>
        <time>2023-12-06T15:32:50Z</time>
      </trkpt>
      <trkpt lat="49.23153" lon="-0.04922">
        <ele>43.6</ele>
        <time>2023-12-06T15:32:51Z</time>
      </trkpt>
      <trkpt lat="49.23155" lon="-0.04929">
        <ele>43.8</ele>
        <time>2023-12-06T15:32:52Z</time>
      </trkpt>
      <trkpt lat="49.23156" lon="-0.04937">
        <ele>44</ele>
        <time>2023-12-06T15:32:53Z</time>
      </trkpt>
      <trkpt lat="49.23158" lon="-0.04944">
        <ele>44</ele>
        <time>2023-12-06T15:32:54Z</time>
      </trkpt>
      <trkpt lat="49.23159" lon="-0.04952">
        <ele>44.2</ele>
        <time>2023-12-06T15:32:55Z</time>
      </trkpt>
      <trkpt lat="49.2316" lon="-0.04959">
        <ele>44.4</ele>
        <time>2023-12-06T15:32:56Z</time>
      </trkpt>
      <trkpt lat="49.23162" lon="-0.04966">
        <ele>44.6</ele>
        <time>2023-12-06T15:32:57Z</time>
      </trkpt>
      <trkpt lat="49.23163" lon="-0.04974">
        <ele>44.6</ele>
        <time>2023-12-06T15:32:58Z</time>
      </trkpt>
      <trkpt lat="49.23165" lon="-0.04981">
        <ele>44.6</ele>
        <time>2023-12-06T15:32:59Z</time>
      </trkpt>
      <trkpt lat="49.23166" lon="-0.04988">
        <ele>44.6</ele>
        <time>2023-12-06T15:33:00Z</time>
      </trkpt>
      <trkpt lat="49.23168" lon="-0.04996">
        <ele>44.8</ele>
        <time>2023-12-06T15:33:01Z</time>
      </trkpt>
      <trkpt lat="49.23169" lon="-0.05003">
        <ele>44.8</ele>
        <time>2023-12-06T15:33:02Z</time>
      </trkpt>
      <trkpt lat="49.23171" lon="-0.05011">
        <ele>45</ele>
        <time>2023-12-06T15:33:03Z</time>
      </trkpt>
      <trkpt lat="49.23172" lon="-0.05018">
        <ele>45</ele>
        <time>2023-12-06T15:33:04Z</time>
      </trkpt>
      <trkpt lat="49.23173" lon="-0.05026">
        <ele>45.2</ele>
        <time>2023-12-06T15:33:05Z</time>
      </trkpt>
      <trkpt lat="49.23175" lon="-0.05033">
        <ele>45.2</ele>
        <time>2023-12-06T15:33:06Z</time>
      </trkpt>
      <trkpt lat="49.23176" lon="-0.0504">
        <ele>45.2</ele>
        <time>2023-12-06T15:33:07Z</time>
      </trkpt>
      <trkpt lat="49.23177" lon="-0.05047">
        <ele>45.4</ele>
        <time>2023-12-06T15:33:08Z</time>
      </trkpt>
      <trkpt lat="49.23179" lon="-0.05055">
        <ele>45.4</ele>
        <time>2023-12-06T15:33:09Z</time>
      </trkpt>
      <trkpt lat="49.2318" lon="-0.05062">
        <ele>45.4</ele>
        <time>2023-12-06T15:33:10Z</time>
      </trkpt>
      <trkpt lat="49.23181" lon="-0.05069">
        <ele>45.6</ele>
        <time>2023-12-06T15:33:11Z</time>
      </trkpt>
      <trkpt lat="49.23183" lon="-0.05077">
        <ele>45.6</ele>
        <time>2023-12-06T15:33:12Z</time>
      </trkpt>
      <trkpt lat="49.23184" lon="-0.05084">
        <ele>45.6</ele>
        <time>2023-12-06T15:33:13Z</time>
      </trkpt>
      <trkpt lat="49.23185" lon="-0.05091">
        <ele>45.6</ele>
        <time>2023-12-06T15:33:14Z</time>
      </trkpt>
      <trkpt lat="49.23186" lon="-0.05098">
        <ele>45.6</ele>
        <time>2023-12-06T15:33:15Z</time>
      </trkpt>
      <trkpt lat="49.23188" lon="-0.05105">
        <ele>45.8</ele>
        <time>2023-12-06T15:33:16Z</time>
      </trkpt>
      <trkpt lat="49.23189" lon="-0.05112">
        <ele>46</ele>
        <time>2023-12-06T15:33:17Z</time>
      </trkpt>
      <trkpt lat="49.23191" lon="-0.0512">
        <ele>46</ele>
        <time>2023-12-06T15:33:18Z</time>
      </trkpt>
      <trkpt lat="49.23193" lon="-0.05127">
        <ele>46</ele>
        <time>2023-12-06T15:33:19Z</time>
      </trkpt>
      <trkpt lat="49.23194" lon="-0.05134">
        <ele>46.2</ele>
        <time>2023-12-06T15:33:20Z</time>
      </trkpt>
      <trkpt lat="49.23195" lon="-0.05143">
        <ele>46.2</ele>
        <time>2023-12-06T15:33:21Z</time>
      </trkpt>
      <trkpt lat="49.23195" lon="-0.05151">
        <ele>46.2</ele>
        <time>2023-12-06T15:33:22Z</time>
      </trkpt>
      <trkpt lat="49.23196" lon="-0.0516">
        <ele>46.2</ele>
        <time>2023-12-06T15:33:23Z</time>
      </trkpt>
      <trkpt lat="49.23196" lon="-0.05168">
        <ele>46.2</ele>
        <time>2023-12-06T15:33:24Z</time>
      </trkpt>
      <trkpt lat="49.23198" lon="-0.05177">
        <ele>46.2</ele>
        <time>2023-12-06T15:33:25Z</time>
      </trkpt>
      <trkpt lat="49.232" lon="-0.05184">
        <ele>46.2</ele>
        <time>2023-12-06T15:33:26Z</time>
      </trkpt>
      <trkpt lat="49.23204" lon="-0.05192">
        <ele>46.2</ele>
        <time>2023-12-06T15:33:27Z</time>
      </trkpt>
      <trkpt lat="49.23208" lon="-0.05199">
        <ele>46</ele>
        <time>2023-12-06T15:33:28Z</time>
      </trkpt>
      <trkpt lat="49.23212" lon="-0.05206">
        <ele>46</ele>
        <time>2023-12-06T15:33:29Z</time>
      </trkpt>
      <trkpt lat="49.23217" lon="-0.05214">
        <ele>45.8</ele>
        <time>2023-12-06T15:33:30Z</time>
      </trkpt>
      <trkpt lat="49.2322" lon="-0.05223">
        <ele>45.4</ele>
        <time>2023-12-06T15:33:31Z</time>
      </trkpt>
      <trkpt lat="49.23225" lon="-0.05232">
        <ele>45.4</ele>
        <time>2023-12-06T15:33:32Z</time>
      </trkpt>
      <trkpt lat="49.23229" lon="-0.05242">
        <ele>45</ele>
        <time>2023-12-06T15:33:33Z</time>
      </trkpt>
      <trkpt lat="49.23232" lon="-0.05253">
        <ele>44.6</ele>
        <time>2023-12-06T15:33:34Z</time>
      </trkpt>
      <trkpt lat="49.23234" lon="-0.05264">
        <ele>44.2</ele>
        <time>2023-12-06T15:33:35Z</time>
      </trkpt>
      <trkpt lat="49.23237" lon="-0.05276">
        <ele>44</ele>
        <time>2023-12-06T15:33:36Z</time>
      </trkpt>
      <trkpt lat="49.23238" lon="-0.05289">
        <ele>43.6</ele>
        <time>2023-12-06T15:33:37Z</time>
      </trkpt>
      <trkpt lat="49.23239" lon="-0.05301">
        <ele>43.2</ele>
        <time>2023-12-06T15:33:38Z</time>
      </trkpt>
      <trkpt lat="49.23239" lon="-0.05314">
        <ele>42.8</ele>
        <time>2023-12-06T15:33:39Z</time>
      </trkpt>
      <trkpt lat="49.2324" lon="-0.05327">
        <ele>42.8</ele>
        <time>2023-12-06T15:33:40Z</time>
      </trkpt>
      <trkpt lat="49.23241" lon="-0.0534">
        <ele>42.2</ele>
        <time>2023-12-06T15:33:41Z</time>
      </trkpt>
      <trkpt lat="49.23242" lon="-0.05354">
        <ele>41.8</ele>
        <time>2023-12-06T15:33:42Z</time>
      </trkpt>
      <trkpt lat="49.23242" lon="-0.05367">
        <ele>41.6</ele>
        <time>2023-12-06T15:33:43Z</time>
      </trkpt>
      <trkpt lat="49.23243" lon="-0.05381">
        <ele>41.2</ele>
        <time>2023-12-06T15:33:44Z</time>
      </trkpt>
      <trkpt lat="49.23244" lon="-0.05394">
        <ele>40.4</ele>
        <time>2023-12-06T15:33:45Z</time>
      </trkpt>
      <trkpt lat="49.23245" lon="-0.05408">
        <ele>40</ele>
        <time>2023-12-06T15:33:46Z</time>
      </trkpt>
      <trkpt lat="49.23246" lon="-0.05421">
        <ele>39.4</ele>
        <time>2023-12-06T15:33:47Z</time>
      </trkpt>
      <trkpt lat="49.23247" lon="-0.05435">
        <ele>39.2</ele>
        <time>2023-12-06T15:33:48Z</time>
      </trkpt>
      <trkpt lat="49.23249" lon="-0.05448">
        <ele>38.8</ele>
        <time>2023-12-06T15:33:49Z</time>
      </trkpt>
      <trkpt lat="49.23251" lon="-0.05462">
        <ele>38.4</ele>
        <time>2023-12-06T15:33:50Z</time>
      </trkpt>
      <trkpt lat="49.23253" lon="-0.05477">
        <ele>37.6</ele>
        <time>2023-12-06T15:33:51Z</time>
      </trkpt>
      <trkpt lat="49.23255" lon="-0.05491">
        <ele>37.4</ele>
        <time>2023-12-06T15:33:52Z</time>
      </trkpt>
      <trkpt lat="49.23257" lon="-0.05505">
        <ele>37</ele>
        <time>2023-12-06T15:33:53Z</time>
      </trkpt>
      <trkpt lat="49.2326" lon="-0.05519">
        <ele>36.6</ele>
        <time>2023-12-06T15:33:54Z</time>
      </trkpt>
      <trkpt lat="49.23262" lon="-0.05535">
        <ele>36.2</ele>
        <time>2023-12-06T15:33:55Z</time>
      </trkpt>
      <trkpt lat="49.23264" lon="-0.0555">
        <ele>35.6</ele>
        <time>2023-12-06T15:33:56Z</time>
      </trkpt>
      <trkpt lat="49.23267" lon="-0.05566">
        <ele>35</ele>
        <time>2023-12-06T15:33:57Z</time>
      </trkpt>
      <trkpt lat="49.2327" lon="-0.05581">
        <ele>34.4</ele>
        <time>2023-12-06T15:33:58Z</time>
      </trkpt>
      <trkpt lat="49.23275" lon="-0.05596">
        <ele>33.8</ele>
        <time>2023-12-06T15:33:59Z</time>
      </trkpt>
      <trkpt lat="49.23281" lon="-0.05609">
        <ele>33.2</ele>
        <time>2023-12-06T15:34:00Z</time>
      </trkpt>
      <trkpt lat="49.23289" lon="-0.05621">
        <ele>32.4</ele>
        <time>2023-12-06T15:34:01Z</time>
      </trkpt>
      <trkpt lat="49.23297" lon="-0.05632">
        <ele>31.8</ele>
        <time>2023-12-06T15:34:02Z</time>
      </trkpt>
      <trkpt lat="49.23307" lon="-0.0564">
        <ele>30.8</ele>
        <time>2023-12-06T15:34:03Z</time>
      </trkpt>
      <trkpt lat="49.23318" lon="-0.05647">
        <ele>29.6</ele>
        <time>2023-12-06T15:34:04Z</time>
      </trkpt>
      <trkpt lat="49.23328" lon="-0.05652">
        <ele>28.2</ele>
        <time>2023-12-06T15:34:05Z</time>
      </trkpt>
      <trkpt lat="49.2334" lon="-0.05658">
        <ele>27.2</ele>
        <time>2023-12-06T15:34:06Z</time>
      </trkpt>
      <trkpt lat="49.23352" lon="-0.05664">
        <ele>26</ele>
        <time>2023-12-06T15:34:07Z</time>
      </trkpt>
      <trkpt lat="49.23366" lon="-0.0567">
        <ele>25</ele>
        <time>2023-12-06T15:34:08Z</time>
      </trkpt>
      <trkpt lat="49.23374" lon="-0.05672">
        <ele>23.8</ele>
        <time>2023-12-06T15:34:09Z</time>
      </trkpt>
      <trkpt lat="49.23384" lon="-0.05676">
        <ele>22.8</ele>
        <time>2023-12-06T15:34:10Z</time>
      </trkpt>
      <trkpt lat="49.23394" lon="-0.05678">
        <ele>22</ele>
        <time>2023-12-06T15:34:11Z</time>
      </trkpt>
      <trkpt lat="49.23403" lon="-0.05683">
        <ele>21.4</ele>
        <time>2023-12-06T15:34:12Z</time>
      </trkpt>
      <trkpt lat="49.23413" lon="-0.05687">
        <ele>20.8</ele>
        <time>2023-12-06T15:34:13Z</time>
      </trkpt>
      <trkpt lat="49.23421" lon="-0.05694">
        <ele>20.4</ele>
        <time>2023-12-06T15:34:14Z</time>
      </trkpt>
      <trkpt lat="49.2343" lon="-0.05703">
        <ele>20.2</ele>
        <time>2023-12-06T15:34:15Z</time>
      </trkpt>
      <trkpt lat="49.23438" lon="-0.05713">
        <ele>20.2</ele>
        <time>2023-12-06T15:34:16Z</time>
      </trkpt>
      <trkpt lat="49.23445" lon="-0.05725">
        <ele>20</ele>
        <time>2023-12-06T15:34:17Z</time>
      </trkpt>
      <trkpt lat="49.23451" lon="-0.05738">
        <ele>20</ele>
        <time>2023-12-06T15:34:18Z</time>
      </trkpt>
      <trkpt lat="49.23456" lon="-0.05751">
        <ele>19.8</ele>
        <time>2023-12-06T15:34:19Z</time>
      </trkpt>
      <trkpt lat="49.2346" lon="-0.05765">
        <ele>19.6</ele>
        <time>2023-12-06T15:34:20Z</time>
      </trkpt>
      <trkpt lat="49.23463" lon="-0.05779">
        <ele>19.6</ele>
        <time>2023-12-06T15:34:21Z</time>
      </trkpt>
      <trkpt lat="49.23464" lon="-0.05793">
        <ele>19.4</ele>
        <time>2023-12-06T15:34:22Z</time>
      </trkpt>
      <trkpt lat="49.23465" lon="-0.05807">
        <ele>19.4</ele>
        <time>2023-12-06T15:34:23Z</time>
      </trkpt>
      <trkpt lat="49.23465" lon="-0.05821">
        <ele>19.4</ele>
        <time>2023-12-06T15:34:24Z</time>
      </trkpt>
      <trkpt lat="49.23465" lon="-0.05834">
        <ele>19.4</ele>
        <time>2023-12-06T15:34:25Z</time>
      </trkpt>
      <trkpt lat="49.23465" lon="-0.05847">
        <ele>19.4</ele>
        <time>2023-12-06T15:34:26Z</time>
      </trkpt>
      <trkpt lat="49.23464" lon="-0.0586">
        <ele>19.2</ele>
        <time>2023-12-06T15:34:27Z</time>
      </trkpt>
      <trkpt lat="49.23463" lon="-0.05873">
        <ele>19.2</ele>
        <time>2023-12-06T15:34:28Z</time>
      </trkpt>
      <trkpt lat="49.23462" lon="-0.05886">
        <ele>19.2</ele>
        <time>2023-12-06T15:34:29Z</time>
      </trkpt>
      <trkpt lat="49.23461" lon="-0.05899">
        <ele>19.2</ele>
        <time>2023-12-06T15:34:30Z</time>
      </trkpt>
      <trkpt lat="49.23461" lon="-0.05911">
        <ele>19.2</ele>
        <time>2023-12-06T15:34:31Z</time>
      </trkpt>
      <trkpt lat="49.2346" lon="-0.05924">
        <ele>19.2</ele>
        <time>2023-12-06T15:34:32Z</time>
      </trkpt>
      <trkpt lat="49.23459" lon="-0.05936">
        <ele>19.2</ele>
        <time>2023-12-06T15:34:33Z</time>
      </trkpt>
      <trkpt lat="49.23458" lon="-0.05949">
        <ele>19.2</ele>
        <time>2023-12-06T15:34:34Z</time>
      </trkpt>
      <trkpt lat="49.23456" lon="-0.05961">
        <ele>19.2</ele>
        <time>2023-12-06T15:34:35Z</time>
      </trkpt>
      <trkpt lat="49.23455" lon="-0.05973">
        <ele>19.2</ele>
        <time>2023-12-06T15:34:36Z</time>
      </trkpt>
      <trkpt lat="49.23453" lon="-0.05985">
        <ele>19.4</ele>
        <time>2023-12-06T15:34:37Z</time>
      </trkpt>
      <trkpt lat="49.23452" lon="-0.05998">
        <ele>19.4</ele>
        <time>2023-12-06T15:34:38Z</time>
      </trkpt>
      <trkpt lat="49.2345" lon="-0.0601">
        <ele>19.6</ele>
        <time>2023-12-06T15:34:39Z</time>
      </trkpt>
      <trkpt lat="49.23449" lon="-0.06023">
        <ele>19.6</ele>
        <time>2023-12-06T15:34:40Z</time>
      </trkpt>
      <trkpt lat="49.23447" lon="-0.06037">
        <ele>19.8</ele>
        <time>2023-12-06T15:34:41Z</time>
      </trkpt>
      <trkpt lat="49.23445" lon="-0.0605">
        <ele>19.8</ele>
        <time>2023-12-06T15:34:42Z</time>
      </trkpt>
      <trkpt lat="49.23444" lon="-0.06062">
        <ele>19.8</ele>
        <time>2023-12-06T15:34:43Z</time>
      </trkpt>
      <trkpt lat="49.23442" lon="-0.06075">
        <ele>19.8</ele>
        <time>2023-12-06T15:34:44Z</time>
      </trkpt>
      <trkpt lat="49.23441" lon="-0.06088">
        <ele>19.8</ele>
        <time>2023-12-06T15:34:45Z</time>
      </trkpt>
      <trkpt lat="49.2344" lon="-0.06101">
        <ele>19.8</ele>
        <time>2023-12-06T15:34:46Z</time>
      </trkpt>
      <trkpt lat="49.2344" lon="-0.06113">
        <ele>19.8</ele>
        <time>2023-12-06T15:34:47Z</time>
      </trkpt>
      <trkpt lat="49.2344" lon="-0.06126">
        <ele>19.8</ele>
        <time>2023-12-06T15:34:48Z</time>
      </trkpt>
      <trkpt lat="49.2344" lon="-0.06138">
        <ele>19.8</ele>
        <time>2023-12-06T15:34:49Z</time>
      </trkpt>
      <trkpt lat="49.2344" lon="-0.06151">
        <ele>19.6</ele>
        <time>2023-12-06T15:34:50Z</time>
      </trkpt>
      <trkpt lat="49.23441" lon="-0.06163">
        <ele>19.6</ele>
        <time>2023-12-06T15:34:51Z</time>
      </trkpt>
      <trkpt lat="49.23441" lon="-0.06175">
        <ele>19.6</ele>
        <time>2023-12-06T15:34:52Z</time>
      </trkpt>
      <trkpt lat="49.2344" lon="-0.06188">
        <ele>19.6</ele>
        <time>2023-12-06T15:34:53Z</time>
      </trkpt>
      <trkpt lat="49.2344" lon="-0.062">
        <ele>19.6</ele>
        <time>2023-12-06T15:34:54Z</time>
      </trkpt>
      <trkpt lat="49.23439" lon="-0.06212">
        <ele>19.4</ele>
        <time>2023-12-06T15:34:55Z</time>
      </trkpt>
      <trkpt lat="49.23438" lon="-0.06223">
        <ele>19.4</ele>
        <time>2023-12-06T15:34:56Z</time>
      </trkpt>
      <trkpt lat="49.23437" lon="-0.06234">
        <ele>19.4</ele>
        <time>2023-12-06T15:34:57Z</time>
      </trkpt>
      <trkpt lat="49.23436" lon="-0.06245">
        <ele>19.2</ele>
        <time>2023-12-06T15:34:58Z</time>
      </trkpt>
      <trkpt lat="49.23435" lon="-0.06256">
        <ele>19.2</ele>
        <time>2023-12-06T15:34:59Z</time>
      </trkpt>
      <trkpt lat="49.23433" lon="-0.06267">
        <ele>19</ele>
        <time>2023-12-06T15:35:00Z</time>
      </trkpt>
      <trkpt lat="49.23432" lon="-0.06277">
        <ele>19</ele>
        <time>2023-12-06T15:35:01Z</time>
      </trkpt>
      <trkpt lat="49.2343" lon="-0.06287">
        <ele>19</ele>
        <time>2023-12-06T15:35:02Z</time>
      </trkpt>
      <trkpt lat="49.23428" lon="-0.06297">
        <ele>19</ele>
        <time>2023-12-06T15:35:03Z</time>
      </trkpt>
      <trkpt lat="49.23425" lon="-0.06308">
        <ele>19</ele>
        <time>2023-12-06T15:35:04Z</time>
      </trkpt>
      <trkpt lat="49.23423" lon="-0.06318">
        <ele>19</ele>
        <time>2023-12-06T15:35:05Z</time>
      </trkpt>
      <trkpt lat="49.23419" lon="-0.06329">
        <ele>19</ele>
        <time>2023-12-06T15:35:06Z</time>
      </trkpt>
      <trkpt lat="49.23416" lon="-0.06339">
        <ele>19</ele>
        <time>2023-12-06T15:35:07Z</time>
      </trkpt>
      <trkpt lat="49.23412" lon="-0.06349">
        <ele>19</ele>
        <time>2023-12-06T15:35:08Z</time>
      </trkpt>
      <trkpt lat="49.23409" lon="-0.06359">
        <ele>19.2</ele>
        <time>2023-12-06T15:35:09Z</time>
      </trkpt>
      <trkpt lat="49.23405" lon="-0.06369">
        <ele>19.4</ele>
        <time>2023-12-06T15:35:10Z</time>
      </trkpt>
      <trkpt lat="49.23402" lon="-0.06379">
        <ele>19.4</ele>
        <time>2023-12-06T15:35:11Z</time>
      </trkpt>
      <trkpt lat="49.23399" lon="-0.0639">
        <ele>19.6</ele>
        <time>2023-12-06T15:35:12Z</time>
      </trkpt>
      <trkpt lat="49.23396" lon="-0.064">
        <ele>19.6</ele>
        <time>2023-12-06T15:35:13Z</time>
      </trkpt>
      <trkpt lat="49.23393" lon="-0.06411">
        <ele>19.6</ele>
        <time>2023-12-06T15:35:14Z</time>
      </trkpt>
      <trkpt lat="49.23391" lon="-0.06421">
        <ele>19.6</ele>
        <time>2023-12-06T15:35:15Z</time>
      </trkpt>
      <trkpt lat="49.23388" lon="-0.06432">
        <ele>19.6</ele>
        <time>2023-12-06T15:35:16Z</time>
      </trkpt>
      <trkpt lat="49.23385" lon="-0.06442">
        <ele>19.6</ele>
        <time>2023-12-06T15:35:17Z</time>
      </trkpt>
      <trkpt lat="49.23382" lon="-0.06453">
        <ele>19.6</ele>
        <time>2023-12-06T15:35:18Z</time>
      </trkpt>
      <trkpt lat="49.23379" lon="-0.06463">
        <ele>19.6</ele>
        <time>2023-12-06T15:35:19Z</time>
      </trkpt>
      <trkpt lat="49.23376" lon="-0.06473">
        <ele>19.6</ele>
        <time>2023-12-06T15:35:20Z</time>
      </trkpt>
      <trkpt lat="49.23373" lon="-0.06482">
        <ele>19.6</ele>
        <time>2023-12-06T15:35:21Z</time>
      </trkpt>
      <trkpt lat="49.23369" lon="-0.06492">
        <ele>19.6</ele>
        <time>2023-12-06T15:35:22Z</time>
      </trkpt>
      <trkpt lat="49.23366" lon="-0.06502">
        <ele>19.6</ele>
        <time>2023-12-06T15:35:23Z</time>
      </trkpt>
      <trkpt lat="49.23362" lon="-0.06511">
        <ele>19.4</ele>
        <time>2023-12-06T15:35:24Z</time>
      </trkpt>
      <trkpt lat="49.23359" lon="-0.06521">
        <ele>19.4</ele>
        <time>2023-12-06T15:35:25Z</time>
      </trkpt>
      <trkpt lat="49.23356" lon="-0.0653">
        <ele>19.2</ele>
        <time>2023-12-06T15:35:26Z</time>
      </trkpt>
      <trkpt lat="49.23352" lon="-0.06541">
        <ele>19.4</ele>
        <time>2023-12-06T15:35:27Z</time>
      </trkpt>
      <trkpt lat="49.2335" lon="-0.06552">
        <ele>19.2</ele>
        <time>2023-12-06T15:35:28Z</time>
      </trkpt>
      <trkpt lat="49.23348" lon="-0.06564">
        <ele>19.2</ele>
        <time>2023-12-06T15:35:29Z</time>
      </trkpt>
      <trkpt lat="49.23347" lon="-0.06576">
        <ele>19.2</ele>
        <time>2023-12-06T15:35:30Z</time>
      </trkpt>
      <trkpt lat="49.23348" lon="-0.06588">
        <ele>19.2</ele>
        <time>2023-12-06T15:35:31Z</time>
      </trkpt>
      <trkpt lat="49.23349" lon="-0.066">
        <ele>19.2</ele>
        <time>2023-12-06T15:35:32Z</time>
      </trkpt>
      <trkpt lat="49.2335" lon="-0.06612">
        <ele>19</ele>
        <time>2023-12-06T15:35:33Z</time>
      </trkpt>
      <trkpt lat="49.23353" lon="-0.06624">
        <ele>18.8</ele>
        <time>2023-12-06T15:35:34Z</time>
      </trkpt>
      <trkpt lat="49.23356" lon="-0.06636">
        <ele>18.6</ele>
        <time>2023-12-06T15:35:35Z</time>
      </trkpt>
      <trkpt lat="49.23359" lon="-0.06648">
        <ele>18.6</ele>
        <time>2023-12-06T15:35:36Z</time>
      </trkpt>
      <trkpt lat="49.23362" lon="-0.06659">
        <ele>18.4</ele>
        <time>2023-12-06T15:35:37Z</time>
      </trkpt>
      <trkpt lat="49.23365" lon="-0.0667">
        <ele>18</ele>
        <time>2023-12-06T15:35:38Z</time>
      </trkpt>
      <trkpt lat="49.23368" lon="-0.06681">
        <ele>17.8</ele>
        <time>2023-12-06T15:35:39Z</time>
      </trkpt>
      <trkpt lat="49.23371" lon="-0.06692">
        <ele>17.6</ele>
        <time>2023-12-06T15:35:40Z</time>
      </trkpt>
      <trkpt lat="49.23375" lon="-0.06702">
        <ele>17.4</ele>
        <time>2023-12-06T15:35:41Z</time>
      </trkpt>
      <trkpt lat="49.23378" lon="-0.06712">
        <ele>17.2</ele>
        <time>2023-12-06T15:35:42Z</time>
      </trkpt>
      <trkpt lat="49.23381" lon="-0.06723">
        <ele>17</ele>
        <time>2023-12-06T15:35:43Z</time>
      </trkpt>
      <trkpt lat="49.23384" lon="-0.06733">
        <ele>16.8</ele>
        <time>2023-12-06T15:35:44Z</time>
      </trkpt>
      <trkpt lat="49.23387" lon="-0.06743">
        <ele>16.8</ele>
        <time>2023-12-06T15:35:45Z</time>
      </trkpt>
      <trkpt lat="49.23391" lon="-0.06753">
        <ele>16.6</ele>
        <time>2023-12-06T15:35:46Z</time>
      </trkpt>
      <trkpt lat="49.23394" lon="-0.06763">
        <ele>16.6</ele>
        <time>2023-12-06T15:35:47Z</time>
      </trkpt>
      <trkpt lat="49.23397" lon="-0.06773">
        <ele>16.4</ele>
        <time>2023-12-06T15:35:48Z</time>
      </trkpt>
      <trkpt lat="49.234" lon="-0.06784">
        <ele>16.2</ele>
        <time>2023-12-06T15:35:49Z</time>
      </trkpt>
      <trkpt lat="49.23403" lon="-0.06794">
        <ele>16.4</ele>
        <time>2023-12-06T15:35:50Z</time>
      </trkpt>
      <trkpt lat="49.23407" lon="-0.06805">
        <ele>16.4</ele>
        <time>2023-12-06T15:35:51Z</time>
      </trkpt>
      <trkpt lat="49.2341" lon="-0.06816">
        <ele>16.2</ele>
        <time>2023-12-06T15:35:52Z</time>
      </trkpt>
      <trkpt lat="49.23413" lon="-0.06827">
        <ele>16</ele>
        <time>2023-12-06T15:35:53Z</time>
      </trkpt>
      <trkpt lat="49.23415" lon="-0.06838">
        <ele>16</ele>
        <time>2023-12-06T15:35:54Z</time>
      </trkpt>
      <trkpt lat="49.23417" lon="-0.06849">
        <ele>16</ele>
        <time>2023-12-06T15:35:55Z</time>
      </trkpt>
      <trkpt lat="49.23419" lon="-0.06859">
        <ele>15.8</ele>
        <time>2023-12-06T15:35:56Z</time>
      </trkpt>
      <trkpt lat="49.2342" lon="-0.0687">
        <ele>15.8</ele>
        <time>2023-12-06T15:35:57Z</time>
      </trkpt>
      <trkpt lat="49.23421" lon="-0.06882">
        <ele>15.8</ele>
        <time>2023-12-06T15:35:58Z</time>
      </trkpt>
      <trkpt lat="49.23422" lon="-0.06892">
        <ele>15.8</ele>
        <time>2023-12-06T15:35:59Z</time>
      </trkpt>
      <trkpt lat="49.23422" lon="-0.06903">
        <ele>15.8</ele>
        <time>2023-12-06T15:36:00Z</time>
      </trkpt>
      <trkpt lat="49.23422" lon="-0.06913">
        <ele>15.4</ele>
        <time>2023-12-06T15:36:01Z</time>
      </trkpt>
      <trkpt lat="49.23421" lon="-0.06922">
        <ele>15.4</ele>
        <time>2023-12-06T15:36:02Z</time>
      </trkpt>
      <trkpt lat="49.23421" lon="-0.06931">
        <ele>15.4</ele>
        <time>2023-12-06T15:36:03Z</time>
      </trkpt>
      <trkpt lat="49.23422" lon="-0.06939">
        <ele>15.4</ele>
        <time>2023-12-06T15:36:04Z</time>
      </trkpt>
      <trkpt lat="49.23424" lon="-0.06945">
        <ele>15.4</ele>
        <time>2023-12-06T15:36:05Z</time>
      </trkpt>
      <trkpt lat="49.23428" lon="-0.0695">
        <ele>15.4</ele>
        <time>2023-12-06T15:36:06Z</time>
      </trkpt>
      <trkpt lat="49.23433" lon="-0.06955">
        <ele>15.2</ele>
        <time>2023-12-06T15:36:07Z</time>
      </trkpt>
      <trkpt lat="49.23438" lon="-0.06958">
        <ele>15.2</ele>
        <time>2023-12-06T15:36:08Z</time>
      </trkpt>
      <trkpt lat="49.23444" lon="-0.06961">
        <ele>15.2</ele>
        <time>2023-12-06T15:36:09Z</time>
      </trkpt>
      <trkpt lat="49.2345" lon="-0.06964">
        <ele>15.2</ele>
        <time>2023-12-06T15:36:10Z</time>
      </trkpt>
      <trkpt lat="49.23456" lon="-0.06967">
        <ele>15</ele>
        <time>2023-12-06T15:36:11Z</time>
      </trkpt>
      <trkpt lat="49.23462" lon="-0.06971">
        <ele>15</ele>
        <time>2023-12-06T15:36:12Z</time>
      </trkpt>
      <trkpt lat="49.23467" lon="-0.06974">
        <ele>15</ele>
        <time>2023-12-06T15:36:13Z</time>
      </trkpt>
      <trkpt lat="49.23473" lon="-0.06977">
        <ele>15</ele>
        <time>2023-12-06T15:36:14Z</time>
      </trkpt>
      <trkpt lat="49.23478" lon="-0.06981">
        <ele>14.8</ele>
        <time>2023-12-06T15:36:15Z</time>
      </trkpt>
      <trkpt lat="49.23485" lon="-0.06985">
        <ele>14.8</ele>
        <time>2023-12-06T15:36:16Z</time>
      </trkpt>
      <trkpt lat="49.23491" lon="-0.06988">
        <ele>14.6</ele>
        <time>2023-12-06T15:36:17Z</time>
      </trkpt>
      <trkpt lat="49.23497" lon="-0.06993">
        <ele>14.4</ele>
        <time>2023-12-06T15:36:18Z</time>
      </trkpt>
      <trkpt lat="49.23503" lon="-0.06997">
        <ele>14.4</ele>
        <time>2023-12-06T15:36:19Z</time>
      </trkpt>
      <trkpt lat="49.23508" lon="-0.07002">
        <ele>14.2</ele>
        <time>2023-12-06T15:36:20Z</time>
      </trkpt>
      <trkpt lat="49.23514" lon="-0.07006">
        <ele>14</ele>
        <time>2023-12-06T15:36:21Z</time>
      </trkpt>
      <trkpt lat="49.2352" lon="-0.07009">
        <ele>13.8</ele>
        <time>2023-12-06T15:36:22Z</time>
      </trkpt>
      <trkpt lat="49.23526" lon="-0.07012">
        <ele>13.8</ele>
        <time>2023-12-06T15:36:23Z</time>
      </trkpt>
      <trkpt lat="49.23533" lon="-0.07016">
        <ele>13.6</ele>
        <time>2023-12-06T15:36:24Z</time>
      </trkpt>
      <trkpt lat="49.23539" lon="-0.07021">
        <ele>13.6</ele>
        <time>2023-12-06T15:36:25Z</time>
      </trkpt>
      <trkpt lat="49.23545" lon="-0.07025">
        <ele>13.6</ele>
        <time>2023-12-06T15:36:26Z</time>
      </trkpt>
      <trkpt lat="49.23552" lon="-0.07029">
        <ele>13.6</ele>
        <time>2023-12-06T15:36:27Z</time>
      </trkpt>
      <trkpt lat="49.23558" lon="-0.07033">
        <ele>13.4</ele>
        <time>2023-12-06T15:36:28Z</time>
      </trkpt>
      <trkpt lat="49.23565" lon="-0.07037">
        <ele>13.4</ele>
        <time>2023-12-06T15:36:29Z</time>
      </trkpt>
      <trkpt lat="49.23572" lon="-0.07042">
        <ele>13.6</ele>
        <time>2023-12-06T15:36:30Z</time>
      </trkpt>
      <trkpt lat="49.23578" lon="-0.07046">
        <ele>13.4</ele>
        <time>2023-12-06T15:36:31Z</time>
      </trkpt>
      <trkpt lat="49.23584" lon="-0.0705">
        <ele>13.4</ele>
        <time>2023-12-06T15:36:32Z</time>
      </trkpt>
      <trkpt lat="49.23591" lon="-0.07053">
        <ele>13.4</ele>
        <time>2023-12-06T15:36:33Z</time>
      </trkpt>
      <trkpt lat="49.23597" lon="-0.07057">
        <ele>13.4</ele>
        <time>2023-12-06T15:36:34Z</time>
      </trkpt>
      <trkpt lat="49.23604" lon="-0.07061">
        <ele>13.4</ele>
        <time>2023-12-06T15:36:35Z</time>
      </trkpt>
      <trkpt lat="49.2361" lon="-0.07065">
        <ele>13.4</ele>
        <time>2023-12-06T15:36:36Z</time>
      </trkpt>
      <trkpt lat="49.23617" lon="-0.0707">
        <ele>13.4</ele>
        <time>2023-12-06T15:36:37Z</time>
      </trkpt>
      <trkpt lat="49.23623" lon="-0.07075">
        <ele>13.6</ele>
        <time>2023-12-06T15:36:38Z</time>
      </trkpt>
      <trkpt lat="49.23629" lon="-0.0708">
        <ele>13.6</ele>
        <time>2023-12-06T15:36:39Z</time>
      </trkpt>
      <trkpt lat="49.23635" lon="-0.07086">
        <ele>13.8</ele>
        <time>2023-12-06T15:36:40Z</time>
      </trkpt>
      <trkpt lat="49.23641" lon="-0.07093">
        <ele>14</ele>
        <time>2023-12-06T15:36:41Z</time>
      </trkpt>
      <trkpt lat="49.23646" lon="-0.071">
        <ele>14</ele>
        <time>2023-12-06T15:36:42Z</time>
      </trkpt>
      <trkpt lat="49.23652" lon="-0.07107">
        <ele>14</ele>
        <time>2023-12-06T15:36:43Z</time>
      </trkpt>
      <trkpt lat="49.23657" lon="-0.07115">
        <ele>14</ele>
        <time>2023-12-06T15:36:44Z</time>
      </trkpt>
      <trkpt lat="49.23663" lon="-0.07123">
        <ele>14</ele>
        <time>2023-12-06T15:36:45Z</time>
      </trkpt>
      <trkpt lat="49.23668" lon="-0.0713">
        <ele>14.2</ele>
        <time>2023-12-06T15:36:46Z</time>
      </trkpt>
      <trkpt lat="49.23673" lon="-0.07139">
        <ele>14.2</ele>
        <time>2023-12-06T15:36:47Z</time>
      </trkpt>
      <trkpt lat="49.23677" lon="-0.07148">
        <ele>14.2</ele>
        <time>2023-12-06T15:36:48Z</time>
      </trkpt>
      <trkpt lat="49.23681" lon="-0.07157">
        <ele>14.2</ele>
        <time>2023-12-06T15:36:49Z</time>
      </trkpt>
      <trkpt lat="49.23685" lon="-0.07168">
        <ele>14.2</ele>
        <time>2023-12-06T15:36:50Z</time>
      </trkpt>
      <trkpt lat="49.23688" lon="-0.07178">
        <ele>14.2</ele>
        <time>2023-12-06T15:36:51Z</time>
      </trkpt>
      <trkpt lat="49.2369" lon="-0.07189">
        <ele>14.2</ele>
        <time>2023-12-06T15:36:52Z</time>
      </trkpt>
      <trkpt lat="49.23692" lon="-0.072">
        <ele>14.2</ele>
        <time>2023-12-06T15:36:53Z</time>
      </trkpt>
      <trkpt lat="49.23694" lon="-0.07211">
        <ele>14.2</ele>
        <time>2023-12-06T15:36:54Z</time>
      </trkpt>
      <trkpt lat="49.23696" lon="-0.07222">
        <ele>14.2</ele>
        <time>2023-12-06T15:36:55Z</time>
      </trkpt>
      <trkpt lat="49.23697" lon="-0.07234">
        <ele>14.2</ele>
        <time>2023-12-06T15:36:56Z</time>
      </trkpt>
      <trkpt lat="49.23698" lon="-0.07245">
        <ele>14.2</ele>
        <time>2023-12-06T15:36:57Z</time>
      </trkpt>
      <trkpt lat="49.23699" lon="-0.07257">
        <ele>14.2</ele>
        <time>2023-12-06T15:36:58Z</time>
      </trkpt>
      <trkpt lat="49.237" lon="-0.07269">
        <ele>14.2</ele>
        <time>2023-12-06T15:36:59Z</time>
      </trkpt>
      <trkpt lat="49.237" lon="-0.07281">
        <ele>14.2</ele>
        <time>2023-12-06T15:37:00Z</time>
      </trkpt>
      <trkpt lat="49.23702" lon="-0.07293">
        <ele>14.2</ele>
        <time>2023-12-06T15:37:01Z</time>
      </trkpt>
      <trkpt lat="49.23704" lon="-0.07305">
        <ele>14.2</ele>
        <time>2023-12-06T15:37:02Z</time>
      </trkpt>
      <trkpt lat="49.23706" lon="-0.07317">
        <ele>14.2</ele>
        <time>2023-12-06T15:37:03Z</time>
      </trkpt>
      <trkpt lat="49.23708" lon="-0.0733">
        <ele>14.2</ele>
        <time>2023-12-06T15:37:04Z</time>
      </trkpt>
      <trkpt lat="49.2371" lon="-0.07342">
        <ele>14.2</ele>
        <time>2023-12-06T15:37:05Z</time>
      </trkpt>
      <trkpt lat="49.23712" lon="-0.07355">
        <ele>14.2</ele>
        <time>2023-12-06T15:37:06Z</time>
      </trkpt>
      <trkpt lat="49.23715" lon="-0.07368">
        <ele>14.2</ele>
        <time>2023-12-06T15:37:07Z</time>
      </trkpt>
      <trkpt lat="49.23716" lon="-0.07381">
        <ele>14.2</ele>
        <time>2023-12-06T15:37:08Z</time>
      </trkpt>
      <trkpt lat="49.23718" lon="-0.07394">
        <ele>14.2</ele>
        <time>2023-12-06T15:37:09Z</time>
      </trkpt>
      <trkpt lat="49.23718" lon="-0.07407">
        <ele>14.2</ele>
        <time>2023-12-06T15:37:10Z</time>
      </trkpt>
      <trkpt lat="49.23719" lon="-0.0742">
        <ele>14.2</ele>
        <time>2023-12-06T15:37:11Z</time>
      </trkpt>
      <trkpt lat="49.2372" lon="-0.07432">
        <ele>14.2</ele>
        <time>2023-12-06T15:37:12Z</time>
      </trkpt>
      <trkpt lat="49.23721" lon="-0.07445">
        <ele>14.2</ele>
        <time>2023-12-06T15:37:13Z</time>
      </trkpt>
      <trkpt lat="49.23721" lon="-0.07458">
        <ele>14.2</ele>
        <time>2023-12-06T15:37:14Z</time>
      </trkpt>
      <trkpt lat="49.2372" lon="-0.0747">
        <ele>14.2</ele>
        <time>2023-12-06T15:37:15Z</time>
      </trkpt>
      <trkpt lat="49.23719" lon="-0.07483">
        <ele>14.2</ele>
        <time>2023-12-06T15:37:16Z</time>
      </trkpt>
      <trkpt lat="49.23718" lon="-0.07496">
        <ele>14.2</ele>
        <time>2023-12-06T15:37:17Z</time>
      </trkpt>
      <trkpt lat="49.23717" lon="-0.07509">
        <ele>14.2</ele>
        <time>2023-12-06T15:37:18Z</time>
      </trkpt>
      <trkpt lat="49.23716" lon="-0.07522">
        <ele>14.2</ele>
        <time>2023-12-06T15:37:19Z</time>
      </trkpt>
      <trkpt lat="49.23715" lon="-0.07534">
        <ele>14.4</ele>
        <time>2023-12-06T15:37:20Z</time>
      </trkpt>
      <trkpt lat="49.23715" lon="-0.07547">
        <ele>14.4</ele>
        <time>2023-12-06T15:37:21Z</time>
      </trkpt>
      <trkpt lat="49.23715" lon="-0.07559">
        <ele>14.4</ele>
        <time>2023-12-06T15:37:22Z</time>
      </trkpt>
      <trkpt lat="49.23715" lon="-0.07571">
        <ele>14.4</ele>
        <time>2023-12-06T15:37:23Z</time>
      </trkpt>
      <trkpt lat="49.23715" lon="-0.07582">
        <ele>14.4</ele>
        <time>2023-12-06T15:37:24Z</time>
      </trkpt>
      <trkpt lat="49.23715" lon="-0.07594">
        <ele>14.4</ele>
        <time>2023-12-06T15:37:25Z</time>
      </trkpt>
      <trkpt lat="49.23715" lon="-0.07606">
        <ele>14.4</ele>
        <time>2023-12-06T15:37:26Z</time>
      </trkpt>
      <trkpt lat="49.23715" lon="-0.07618">
        <ele>14.4</ele>
        <time>2023-12-06T15:37:27Z</time>
      </trkpt>
      <trkpt lat="49.23715" lon="-0.0763">
        <ele>14.4</ele>
        <time>2023-12-06T15:37:28Z</time>
      </trkpt>
      <trkpt lat="49.23714" lon="-0.07641">
        <ele>14.4</ele>
        <time>2023-12-06T15:37:29Z</time>
      </trkpt>
      <trkpt lat="49.23713" lon="-0.07653">
        <ele>14.4</ele>
        <time>2023-12-06T15:37:30Z</time>
      </trkpt>
      <trkpt lat="49.23712" lon="-0.07665">
        <ele>14.6</ele>
        <time>2023-12-06T15:37:31Z</time>
      </trkpt>
      <trkpt lat="49.23711" lon="-0.07676">
        <ele>14.4</ele>
        <time>2023-12-06T15:37:32Z</time>
      </trkpt>
      <trkpt lat="49.23711" lon="-0.07688">
        <ele>14.4</ele>
        <time>2023-12-06T15:37:33Z</time>
      </trkpt>
      <trkpt lat="49.2371" lon="-0.077">
        <ele>14.4</ele>
        <time>2023-12-06T15:37:34Z</time>
      </trkpt>
      <trkpt lat="49.2371" lon="-0.07711">
        <ele>14.4</ele>
        <time>2023-12-06T15:37:35Z</time>
      </trkpt>
      <trkpt lat="49.23711" lon="-0.07722">
        <ele>14.4</ele>
        <time>2023-12-06T15:37:36Z</time>
      </trkpt>
      <trkpt lat="49.23713" lon="-0.07733">
        <ele>14.4</ele>
        <time>2023-12-06T15:37:37Z</time>
      </trkpt>
      <trkpt lat="49.23714" lon="-0.07744">
        <ele>14.4</ele>
        <time>2023-12-06T15:37:38Z</time>
      </trkpt>
      <trkpt lat="49.23717" lon="-0.07755">
        <ele>14.4</ele>
        <time>2023-12-06T15:37:39Z</time>
      </trkpt>
      <trkpt lat="49.2372" lon="-0.07765">
        <ele>14.4</ele>
        <time>2023-12-06T15:37:40Z</time>
      </trkpt>
      <trkpt lat="49.23723" lon="-0.07776">
        <ele>14.2</ele>
        <time>2023-12-06T15:37:41Z</time>
      </trkpt>
      <trkpt lat="49.23726" lon="-0.07786">
        <ele>14.2</ele>
        <time>2023-12-06T15:37:42Z</time>
      </trkpt>
      <trkpt lat="49.23729" lon="-0.07796">
        <ele>14.2</ele>
        <time>2023-12-06T15:37:43Z</time>
      </trkpt>
      <trkpt lat="49.23732" lon="-0.07807">
        <ele>14</ele>
        <time>2023-12-06T15:37:44Z</time>
      </trkpt>
      <trkpt lat="49.23734" lon="-0.07818">
        <ele>14</ele>
        <time>2023-12-06T15:37:45Z</time>
      </trkpt>
      <trkpt lat="49.23735" lon="-0.07829">
        <ele>13.8</ele>
        <time>2023-12-06T15:37:46Z</time>
      </trkpt>
      <trkpt lat="49.23736" lon="-0.0784">
        <ele>13.8</ele>
        <time>2023-12-06T15:37:47Z</time>
      </trkpt>
      <trkpt lat="49.23735" lon="-0.07852">
        <ele>13.6</ele>
        <time>2023-12-06T15:37:48Z</time>
      </trkpt>
      <trkpt lat="49.23735" lon="-0.07863">
        <ele>13.6</ele>
        <time>2023-12-06T15:37:49Z</time>
      </trkpt>
      <trkpt lat="49.23733" lon="-0.07874">
        <ele>13.6</ele>
        <time>2023-12-06T15:37:50Z</time>
      </trkpt>
      <trkpt lat="49.23731" lon="-0.07885">
        <ele>13.6</ele>
        <time>2023-12-06T15:37:51Z</time>
      </trkpt>
      <trkpt lat="49.2373" lon="-0.07896">
        <ele>13.4</ele>
        <time>2023-12-06T15:37:52Z</time>
      </trkpt>
      <trkpt lat="49.23728" lon="-0.07907">
        <ele>13.4</ele>
        <time>2023-12-06T15:37:53Z</time>
      </trkpt>
      <trkpt lat="49.23726" lon="-0.07919">
        <ele>13.4</ele>
        <time>2023-12-06T15:37:54Z</time>
      </trkpt>
      <trkpt lat="49.23725" lon="-0.07931">
        <ele>13.4</ele>
        <time>2023-12-06T15:37:55Z</time>
      </trkpt>
      <trkpt lat="49.23723" lon="-0.07942">
        <ele>13.4</ele>
        <time>2023-12-06T15:37:56Z</time>
      </trkpt>
      <trkpt lat="49.23722" lon="-0.07954">
        <ele>13.4</ele>
        <time>2023-12-06T15:37:57Z</time>
      </trkpt>
      <trkpt lat="49.2372" lon="-0.07965">
        <ele>13.2</ele>
        <time>2023-12-06T15:37:58Z</time>
      </trkpt>
      <trkpt lat="49.23719" lon="-0.07977">
        <ele>13.2</ele>
        <time>2023-12-06T15:37:59Z</time>
      </trkpt>
      <trkpt lat="49.23717" lon="-0.07989">
        <ele>13</ele>
        <time>2023-12-06T15:38:00Z</time>
      </trkpt>
      <trkpt lat="49.23716" lon="-0.08">
        <ele>12.8</ele>
        <time>2023-12-06T15:38:01Z</time>
      </trkpt>
      <trkpt lat="49.23715" lon="-0.08012">
        <ele>12.8</ele>
        <time>2023-12-06T15:38:02Z</time>
      </trkpt>
      <trkpt lat="49.23714" lon="-0.08024">
        <ele>12.8</ele>
        <time>2023-12-06T15:38:03Z</time>
      </trkpt>
      <trkpt lat="49.23714" lon="-0.08036">
        <ele>12.6</ele>
        <time>2023-12-06T15:38:04Z</time>
      </trkpt>
      <trkpt lat="49.23714" lon="-0.08048">
        <ele>12.6</ele>
        <time>2023-12-06T15:38:05Z</time>
      </trkpt>
      <trkpt lat="49.23716" lon="-0.08059">
        <ele>12.6</ele>
        <time>2023-12-06T15:38:06Z</time>
      </trkpt>
      <trkpt lat="49.2372" lon="-0.0807">
        <ele>12.6</ele>
        <time>2023-12-06T15:38:07Z</time>
      </trkpt>
      <trkpt lat="49.23725" lon="-0.08079">
        <ele>12.6</ele>
        <time>2023-12-06T15:38:08Z</time>
      </trkpt>
      <trkpt lat="49.2373" lon="-0.08086">
        <ele>12.4</ele>
        <time>2023-12-06T15:38:09Z</time>
      </trkpt>
      <trkpt lat="49.23736" lon="-0.08094">
        <ele>12.4</ele>
        <time>2023-12-06T15:38:10Z</time>
      </trkpt>
      <trkpt lat="49.23742" lon="-0.081">
        <ele>12.4</ele>
        <time>2023-12-06T15:38:11Z</time>
      </trkpt>
      <trkpt lat="49.23748" lon="-0.08107">
        <ele>12.4</ele>
        <time>2023-12-06T15:38:12Z</time>
      </trkpt>
      <trkpt lat="49.23754" lon="-0.08114">
        <ele>12.4</ele>
        <time>2023-12-06T15:38:13Z</time>
      </trkpt>
      <trkpt lat="49.23759" lon="-0.0812">
        <ele>12.4</ele>
        <time>2023-12-06T15:38:14Z</time>
      </trkpt>
      <trkpt lat="49.23765" lon="-0.08127">
        <ele>12.4</ele>
        <time>2023-12-06T15:38:15Z</time>
      </trkpt>
      <trkpt lat="49.2377" lon="-0.08133">
        <ele>12.4</ele>
        <time>2023-12-06T15:38:16Z</time>
      </trkpt>
      <trkpt lat="49.23776" lon="-0.08139">
        <ele>12.4</ele>
        <time>2023-12-06T15:38:17Z</time>
      </trkpt>
      <trkpt lat="49.23783" lon="-0.08145">
        <ele>12.4</ele>
        <time>2023-12-06T15:38:18Z</time>
      </trkpt>
      <trkpt lat="49.23789" lon="-0.0815">
        <ele>12.6</ele>
        <time>2023-12-06T15:38:19Z</time>
      </trkpt>
      <trkpt lat="49.23795" lon="-0.08157">
        <ele>12.6</ele>
        <time>2023-12-06T15:38:20Z</time>
      </trkpt>
      <trkpt lat="49.23801" lon="-0.08164">
        <ele>12.6</ele>
        <time>2023-12-06T15:38:21Z</time>
      </trkpt>
      <trkpt lat="49.23807" lon="-0.08171">
        <ele>12.6</ele>
        <time>2023-12-06T15:38:22Z</time>
      </trkpt>
      <trkpt lat="49.23813" lon="-0.08178">
        <ele>13</ele>
        <time>2023-12-06T15:38:23Z</time>
      </trkpt>
      <trkpt lat="49.23819" lon="-0.08185">
        <ele>13.4</ele>
        <time>2023-12-06T15:38:24Z</time>
      </trkpt>
      <trkpt lat="49.23824" lon="-0.08193">
        <ele>13.6</ele>
        <time>2023-12-06T15:38:25Z</time>
      </trkpt>
      <trkpt lat="49.2383" lon="-0.082">
        <ele>13.8</ele>
        <time>2023-12-06T15:38:26Z</time>
      </trkpt>
      <trkpt lat="49.23836" lon="-0.08207">
        <ele>14.2</ele>
        <time>2023-12-06T15:38:27Z</time>
      </trkpt>
      <trkpt lat="49.23841" lon="-0.08214">
        <ele>14.4</ele>
        <time>2023-12-06T15:38:28Z</time>
      </trkpt>
      <trkpt lat="49.23846" lon="-0.08222">
        <ele>14.6</ele>
        <time>2023-12-06T15:38:29Z</time>
      </trkpt>
      <trkpt lat="49.23852" lon="-0.0823">
        <ele>14.8</ele>
        <time>2023-12-06T15:38:30Z</time>
      </trkpt>
      <trkpt lat="49.23857" lon="-0.08237">
        <ele>14.8</ele>
        <time>2023-12-06T15:38:31Z</time>
      </trkpt>
      <trkpt lat="49.23862" lon="-0.08244">
        <ele>15.2</ele>
        <time>2023-12-06T15:38:32Z</time>
      </trkpt>
      <trkpt lat="49.23867" lon="-0.08252">
        <ele>15.4</ele>
        <time>2023-12-06T15:38:33Z</time>
      </trkpt>
      <trkpt lat="49.23872" lon="-0.0826">
        <ele>15.6</ele>
        <time>2023-12-06T15:38:34Z</time>
      </trkpt>
      <trkpt lat="49.23876" lon="-0.0827">
        <ele>15.6</ele>
        <time>2023-12-06T15:38:35Z</time>
      </trkpt>
      <trkpt lat="49.23879" lon="-0.08281">
        <ele>15.8</ele>
        <time>2023-12-06T15:38:36Z</time>
      </trkpt>
      <trkpt lat="49.23881" lon="-0.08292">
        <ele>16</ele>
        <time>2023-12-06T15:38:37Z</time>
      </trkpt>
      <trkpt lat="49.23882" lon="-0.08304">
        <ele>16</ele>
        <time>2023-12-06T15:38:38Z</time>
      </trkpt>
      <trkpt lat="49.23883" lon="-0.08316">
        <ele>16</ele>
        <time>2023-12-06T15:38:39Z</time>
      </trkpt>
      <trkpt lat="49.23883" lon="-0.08329">
        <ele>16</ele>
        <time>2023-12-06T15:38:40Z</time>
      </trkpt>
      <trkpt lat="49.23883" lon="-0.08341">
        <ele>16</ele>
        <time>2023-12-06T15:38:41Z</time>
      </trkpt>
      <trkpt lat="49.23882" lon="-0.08353">
        <ele>16</ele>
        <time>2023-12-06T15:38:42Z</time>
      </trkpt>
      <trkpt lat="49.23882" lon="-0.08366">
        <ele>16</ele>
        <time>2023-12-06T15:38:43Z</time>
      </trkpt>
      <trkpt lat="49.23881" lon="-0.08378">
        <ele>16</ele>
        <time>2023-12-06T15:38:44Z</time>
      </trkpt>
      <trkpt lat="49.23881" lon="-0.08391">
        <ele>16</ele>
        <time>2023-12-06T15:38:45Z</time>
      </trkpt>
      <trkpt lat="49.2388" lon="-0.08403">
        <ele>16</ele>
        <time>2023-12-06T15:38:46Z</time>
      </trkpt>
      <trkpt lat="49.2388" lon="-0.08416">
        <ele>15.8</ele>
        <time>2023-12-06T15:38:47Z</time>
      </trkpt>
      <trkpt lat="49.2388" lon="-0.08429">
        <ele>15.6</ele>
        <time>2023-12-06T15:38:48Z</time>
      </trkpt>
      <trkpt lat="49.23881" lon="-0.08442">
        <ele>15.6</ele>
        <time>2023-12-06T15:38:49Z</time>
      </trkpt>
      <trkpt lat="49.23883" lon="-0.08454">
        <ele>15.4</ele>
        <time>2023-12-06T15:38:50Z</time>
      </trkpt>
      <trkpt lat="49.23885" lon="-0.08467">
        <ele>15.4</ele>
        <time>2023-12-06T15:38:51Z</time>
      </trkpt>
      <trkpt lat="49.23887" lon="-0.08479">
        <ele>15.4</ele>
        <time>2023-12-06T15:38:52Z</time>
      </trkpt>
      <trkpt lat="49.2389" lon="-0.08491">
        <ele>15.2</ele>
        <time>2023-12-06T15:38:53Z</time>
      </trkpt>
      <trkpt lat="49.23893" lon="-0.08503">
        <ele>15.2</ele>
        <time>2023-12-06T15:38:54Z</time>
      </trkpt>
      <trkpt lat="49.23896" lon="-0.08515">
        <ele>15.2</ele>
        <time>2023-12-06T15:38:55Z</time>
      </trkpt>
      <trkpt lat="49.23899" lon="-0.08526">
        <ele>15.2</ele>
        <time>2023-12-06T15:38:56Z</time>
      </trkpt>
      <trkpt lat="49.23903" lon="-0.08537">
        <ele>15.2</ele>
        <time>2023-12-06T15:38:57Z</time>
      </trkpt>
      <trkpt lat="49.23907" lon="-0.08548">
        <ele>15.2</ele>
        <time>2023-12-06T15:38:58Z</time>
      </trkpt>
      <trkpt lat="49.2391" lon="-0.08559">
        <ele>15</ele>
        <time>2023-12-06T15:38:59Z</time>
      </trkpt>
      <trkpt lat="49.23913" lon="-0.0857">
        <ele>15</ele>
        <time>2023-12-06T15:39:00Z</time>
      </trkpt>
      <trkpt lat="49.23916" lon="-0.08582">
        <ele>15</ele>
        <time>2023-12-06T15:39:01Z</time>
      </trkpt>
      <trkpt lat="49.23918" lon="-0.08594">
        <ele>15</ele>
        <time>2023-12-06T15:39:02Z</time>
      </trkpt>
      <trkpt lat="49.2392" lon="-0.08607">
        <ele>15</ele>
        <time>2023-12-06T15:39:03Z</time>
      </trkpt>
      <trkpt lat="49.23921" lon="-0.08619">
        <ele>15</ele>
        <time>2023-12-06T15:39:04Z</time>
      </trkpt>
      <trkpt lat="49.23922" lon="-0.08632">
        <ele>15</ele>
        <time>2023-12-06T15:39:05Z</time>
      </trkpt>
      <trkpt lat="49.23924" lon="-0.08644">
        <ele>15</ele>
        <time>2023-12-06T15:39:06Z</time>
      </trkpt>
      <trkpt lat="49.23926" lon="-0.08657">
        <ele>15</ele>
        <time>2023-12-06T15:39:07Z</time>
      </trkpt>
      <trkpt lat="49.23927" lon="-0.08669">
        <ele>15</ele>
        <time>2023-12-06T15:39:08Z</time>
      </trkpt>
      <trkpt lat="49.23928" lon="-0.08682">
        <ele>15</ele>
        <time>2023-12-06T15:39:09Z</time>
      </trkpt>
      <trkpt lat="49.2393" lon="-0.08694">
        <ele>15</ele>
        <time>2023-12-06T15:39:10Z</time>
      </trkpt>
      <trkpt lat="49.23932" lon="-0.08706">
        <ele>15</ele>
        <time>2023-12-06T15:39:11Z</time>
      </trkpt>
      <trkpt lat="49.23933" lon="-0.08718">
        <ele>15</ele>
        <time>2023-12-06T15:39:12Z</time>
      </trkpt>
      <trkpt lat="49.23936" lon="-0.08729">
        <ele>15</ele>
        <time>2023-12-06T15:39:13Z</time>
      </trkpt>
      <trkpt lat="49.23939" lon="-0.08741">
        <ele>15</ele>
        <time>2023-12-06T15:39:14Z</time>
      </trkpt>
      <trkpt lat="49.23941" lon="-0.08752">
        <ele>15</ele>
        <time>2023-12-06T15:39:15Z</time>
      </trkpt>
      <trkpt lat="49.23944" lon="-0.08764">
        <ele>15</ele>
        <time>2023-12-06T15:39:16Z</time>
      </trkpt>
      <trkpt lat="49.23947" lon="-0.08775">
        <ele>15</ele>
        <time>2023-12-06T15:39:17Z</time>
      </trkpt>
      <trkpt lat="49.2395" lon="-0.08786">
        <ele>15</ele>
        <time>2023-12-06T15:39:18Z</time>
      </trkpt>
      <trkpt lat="49.23952" lon="-0.08798">
        <ele>15</ele>
        <time>2023-12-06T15:39:19Z</time>
      </trkpt>
      <trkpt lat="49.23955" lon="-0.08809">
        <ele>15</ele>
        <time>2023-12-06T15:39:20Z</time>
      </trkpt>
      <trkpt lat="49.23957" lon="-0.08821">
        <ele>14.8</ele>
        <time>2023-12-06T15:39:21Z</time>
      </trkpt>
      <trkpt lat="49.23959" lon="-0.08833">
        <ele>14.8</ele>
        <time>2023-12-06T15:39:22Z</time>
      </trkpt>
      <trkpt lat="49.23961" lon="-0.08845">
        <ele>14.8</ele>
        <time>2023-12-06T15:39:23Z</time>
      </trkpt>
      <trkpt lat="49.23962" lon="-0.08857">
        <ele>14.8</ele>
        <time>2023-12-06T15:39:24Z</time>
      </trkpt>
      <trkpt lat="49.23964" lon="-0.0887">
        <ele>14.8</ele>
        <time>2023-12-06T15:39:25Z</time>
      </trkpt>
      <trkpt lat="49.23965" lon="-0.08882">
        <ele>14.8</ele>
        <time>2023-12-06T15:39:26Z</time>
      </trkpt>
      <trkpt lat="49.23966" lon="-0.08894">
        <ele>14.6</ele>
        <time>2023-12-06T15:39:27Z</time>
      </trkpt>
      <trkpt lat="49.23968" lon="-0.08906">
        <ele>14.6</ele>
        <time>2023-12-06T15:39:28Z</time>
      </trkpt>
      <trkpt lat="49.2397" lon="-0.08918">
        <ele>14.6</ele>
        <time>2023-12-06T15:39:29Z</time>
      </trkpt>
      <trkpt lat="49.23973" lon="-0.08929">
        <ele>14.6</ele>
        <time>2023-12-06T15:39:30Z</time>
      </trkpt>
      <trkpt lat="49.23976" lon="-0.0894">
        <ele>14.6</ele>
        <time>2023-12-06T15:39:31Z</time>
      </trkpt>
      <trkpt lat="49.2398" lon="-0.08951">
        <ele>14.6</ele>
        <time>2023-12-06T15:39:32Z</time>
      </trkpt>
      <trkpt lat="49.23985" lon="-0.0896">
        <ele>14.6</ele>
        <time>2023-12-06T15:39:33Z</time>
      </trkpt>
      <trkpt lat="49.2399" lon="-0.08969">
        <ele>14.6</ele>
        <time>2023-12-06T15:39:34Z</time>
      </trkpt>
      <trkpt lat="49.23995" lon="-0.08978">
        <ele>14.6</ele>
        <time>2023-12-06T15:39:35Z</time>
      </trkpt>
      <trkpt lat="49.24001" lon="-0.08987">
        <ele>14.6</ele>
        <time>2023-12-06T15:39:36Z</time>
      </trkpt>
      <trkpt lat="49.24006" lon="-0.08994">
        <ele>14.6</ele>
        <time>2023-12-06T15:39:37Z</time>
      </trkpt>
      <trkpt lat="49.24012" lon="-0.09002">
        <ele>14.4</ele>
        <time>2023-12-06T15:39:38Z</time>
      </trkpt>
      <trkpt lat="49.24018" lon="-0.09009">
        <ele>14.4</ele>
        <time>2023-12-06T15:39:39Z</time>
      </trkpt>
      <trkpt lat="49.24025" lon="-0.09016">
        <ele>14.4</ele>
        <time>2023-12-06T15:39:40Z</time>
      </trkpt>
      <trkpt lat="49.24032" lon="-0.09022">
        <ele>14.4</ele>
        <time>2023-12-06T15:39:41Z</time>
      </trkpt>
      <trkpt lat="49.24039" lon="-0.09027">
        <ele>14.2</ele>
        <time>2023-12-06T15:39:42Z</time>
      </trkpt>
      <trkpt lat="49.24046" lon="-0.09032">
        <ele>14.2</ele>
        <time>2023-12-06T15:39:43Z</time>
      </trkpt>
      <trkpt lat="49.24054" lon="-0.09036">
        <ele>14.2</ele>
        <time>2023-12-06T15:39:44Z</time>
      </trkpt>
      <trkpt lat="49.24062" lon="-0.09039">
        <ele>14.2</ele>
        <time>2023-12-06T15:39:45Z</time>
      </trkpt>
      <trkpt lat="49.24069" lon="-0.09044">
        <ele>14.2</ele>
        <time>2023-12-06T15:39:46Z</time>
      </trkpt>
      <trkpt lat="49.24076" lon="-0.0905">
        <ele>14.2</ele>
        <time>2023-12-06T15:39:47Z</time>
      </trkpt>
      <trkpt lat="49.24082" lon="-0.09056">
        <ele>14.2</ele>
        <time>2023-12-06T15:39:48Z</time>
      </trkpt>
      <trkpt lat="49.24088" lon="-0.09064">
        <ele>14.2</ele>
        <time>2023-12-06T15:39:49Z</time>
      </trkpt>
      <trkpt lat="49.24093" lon="-0.09074">
        <ele>14.2</ele>
        <time>2023-12-06T15:39:50Z</time>
      </trkpt>
      <trkpt lat="49.24097" lon="-0.09084">
        <ele>14.2</ele>
        <time>2023-12-06T15:39:51Z</time>
      </trkpt>
      <trkpt lat="49.24101" lon="-0.09095">
        <ele>14.2</ele>
        <time>2023-12-06T15:39:52Z</time>
      </trkpt>
      <trkpt lat="49.24105" lon="-0.09106">
        <ele>14.2</ele>
        <time>2023-12-06T15:39:53Z</time>
      </trkpt>
      <trkpt lat="49.24108" lon="-0.09117">
        <ele>14.2</ele>
        <time>2023-12-06T15:39:54Z</time>
      </trkpt>
      <trkpt lat="49.24112" lon="-0.09129">
        <ele>14.2</ele>
        <time>2023-12-06T15:39:55Z</time>
      </trkpt>
      <trkpt lat="49.24115" lon="-0.0914">
        <ele>14.4</ele>
        <time>2023-12-06T15:39:56Z</time>
      </trkpt>
      <trkpt lat="49.24118" lon="-0.09151">
        <ele>14.4</ele>
        <time>2023-12-06T15:39:57Z</time>
      </trkpt>
      <trkpt lat="49.24121" lon="-0.09162">
        <ele>14.4</ele>
        <time>2023-12-06T15:39:58Z</time>
      </trkpt>
      <trkpt lat="49.24124" lon="-0.09173">
        <ele>14.4</ele>
        <time>2023-12-06T15:39:59Z</time>
      </trkpt>
      <trkpt lat="49.24127" lon="-0.09185">
        <ele>14.4</ele>
        <time>2023-12-06T15:40:00Z</time>
      </trkpt>
      <trkpt lat="49.24129" lon="-0.09197">
        <ele>14.8</ele>
        <time>2023-12-06T15:40:01Z</time>
      </trkpt>
      <trkpt lat="49.24131" lon="-0.09208">
        <ele>14.6</ele>
        <time>2023-12-06T15:40:02Z</time>
      </trkpt>
      <trkpt lat="49.24133" lon="-0.0922">
        <ele>14.8</ele>
        <time>2023-12-06T15:40:03Z</time>
      </trkpt>
      <trkpt lat="49.24135" lon="-0.09232">
        <ele>14.6</ele>
        <time>2023-12-06T15:40:04Z</time>
      </trkpt>
      <trkpt lat="49.24136" lon="-0.09244">
        <ele>14.6</ele>
        <time>2023-12-06T15:40:05Z</time>
      </trkpt>
      <trkpt lat="49.24138" lon="-0.09256">
        <ele>14.8</ele>
        <time>2023-12-06T15:40:06Z</time>
      </trkpt>
      <trkpt lat="49.24139" lon="-0.09268">
        <ele>14.8</ele>
        <time>2023-12-06T15:40:07Z</time>
      </trkpt>
      <trkpt lat="49.24141" lon="-0.0928">
        <ele>14.8</ele>
        <time>2023-12-06T15:40:08Z</time>
      </trkpt>
      <trkpt lat="49.24142" lon="-0.09292">
        <ele>14.6</ele>
        <time>2023-12-06T15:40:09Z</time>
      </trkpt>
      <trkpt lat="49.24144" lon="-0.09305">
        <ele>14.8</ele>
        <time>2023-12-06T15:40:10Z</time>
      </trkpt>
      <trkpt lat="49.24145" lon="-0.09317">
        <ele>14.8</ele>
        <time>2023-12-06T15:40:11Z</time>
      </trkpt>
      <trkpt lat="49.24146" lon="-0.09329">
        <ele>14.8</ele>
        <time>2023-12-06T15:40:12Z</time>
      </trkpt>
      <trkpt lat="49.24147" lon="-0.09341">
        <ele>14.8</ele>
        <time>2023-12-06T15:40:13Z</time>
      </trkpt>
      <trkpt lat="49.24148" lon="-0.09353">
        <ele>14.8</ele>
        <time>2023-12-06T15:40:14Z</time>
      </trkpt>
      <trkpt lat="49.24149" lon="-0.09365">
        <ele>14.6</ele>
        <time>2023-12-06T15:40:15Z</time>
      </trkpt>
      <trkpt lat="49.24151" lon="-0.09377">
        <ele>15</ele>
        <time>2023-12-06T15:40:16Z</time>
      </trkpt>
      <trkpt lat="49.24152" lon="-0.09389">
        <ele>15</ele>
        <time>2023-12-06T15:40:17Z</time>
      </trkpt>
      <trkpt lat="49.24154" lon="-0.09401">
        <ele>15.2</ele>
        <time>2023-12-06T15:40:18Z</time>
      </trkpt>
      <trkpt lat="49.24155" lon="-0.09413">
        <ele>15.2</ele>
        <time>2023-12-06T15:40:19Z</time>
      </trkpt>
      <trkpt lat="49.24157" lon="-0.09425">
        <ele>15</ele>
        <time>2023-12-06T15:40:20Z</time>
      </trkpt>
      <trkpt lat="49.24158" lon="-0.09437">
        <ele>15.2</ele>
        <time>2023-12-06T15:40:21Z</time>
      </trkpt>
      <trkpt lat="49.2416" lon="-0.09449">
        <ele>15.2</ele>
        <time>2023-12-06T15:40:22Z</time>
      </trkpt>
      <trkpt lat="49.24162" lon="-0.09461">
        <ele>15.4</ele>
        <time>2023-12-06T15:40:23Z</time>
      </trkpt>
      <trkpt lat="49.24164" lon="-0.09473">
        <ele>15.6</ele>
        <time>2023-12-06T15:40:24Z</time>
      </trkpt>
      <trkpt lat="49.24167" lon="-0.09484">
        <ele>15.6</ele>
        <time>2023-12-06T15:40:25Z</time>
      </trkpt>
      <trkpt lat="49.2417" lon="-0.09495">
        <ele>15.6</ele>
        <time>2023-12-06T15:40:26Z</time>
      </trkpt>
      <trkpt lat="49.24173" lon="-0.09506">
        <ele>15.8</ele>
        <time>2023-12-06T15:40:27Z</time>
      </trkpt>
      <trkpt lat="49.24176" lon="-0.09517">
        <ele>15.8</ele>
        <time>2023-12-06T15:40:28Z</time>
      </trkpt>
      <trkpt lat="49.2418" lon="-0.09527">
        <ele>15.8</ele>
        <time>2023-12-06T15:40:29Z</time>
      </trkpt>
      <trkpt lat="49.24185" lon="-0.09537">
        <ele>15.8</ele>
        <time>2023-12-06T15:40:30Z</time>
      </trkpt>
      <trkpt lat="49.24189" lon="-0.09546">
        <ele>15.8</ele>
        <time>2023-12-06T15:40:31Z</time>
      </trkpt>
      <trkpt lat="49.24194" lon="-0.09555">
        <ele>15.8</ele>
        <time>2023-12-06T15:40:32Z</time>
      </trkpt>
      <trkpt lat="49.24199" lon="-0.09564">
        <ele>15.8</ele>
        <time>2023-12-06T15:40:33Z</time>
      </trkpt>
      <trkpt lat="49.24205" lon="-0.09573">
        <ele>15.8</ele>
        <time>2023-12-06T15:40:34Z</time>
      </trkpt>
      <trkpt lat="49.24211" lon="-0.0958">
        <ele>15.8</ele>
        <time>2023-12-06T15:40:35Z</time>
      </trkpt>
      <trkpt lat="49.24217" lon="-0.09588">
        <ele>15.8</ele>
        <time>2023-12-06T15:40:36Z</time>
      </trkpt>
      <trkpt lat="49.24223" lon="-0.09596">
        <ele>15.8</ele>
        <time>2023-12-06T15:40:37Z</time>
      </trkpt>
      <trkpt lat="49.2423" lon="-0.09603">
        <ele>15.8</ele>
        <time>2023-12-06T15:40:38Z</time>
      </trkpt>
      <trkpt lat="49.24237" lon="-0.0961">
        <ele>15.8</ele>
        <time>2023-12-06T15:40:39Z</time>
      </trkpt>
      <trkpt lat="49.24244" lon="-0.09617">
        <ele>15.8</ele>
        <time>2023-12-06T15:40:40Z</time>
      </trkpt>
      <trkpt lat="49.24251" lon="-0.09625">
        <ele>15.8</ele>
        <time>2023-12-06T15:40:41Z</time>
      </trkpt>
      <trkpt lat="49.24257" lon="-0.09632">
        <ele>15.8</ele>
        <time>2023-12-06T15:40:42Z</time>
      </trkpt>
      <trkpt lat="49.24264" lon="-0.09639">
        <ele>15.8</ele>
        <time>2023-12-06T15:40:43Z</time>
      </trkpt>
      <trkpt lat="49.24271" lon="-0.09646">
        <ele>15.6</ele>
        <time>2023-12-06T15:40:44Z</time>
      </trkpt>
      <trkpt lat="49.24278" lon="-0.09654">
        <ele>15.4</ele>
        <time>2023-12-06T15:40:45Z</time>
      </trkpt>
      <trkpt lat="49.24285" lon="-0.09661">
        <ele>15.4</ele>
        <time>2023-12-06T15:40:46Z</time>
      </trkpt>
      <trkpt lat="49.24292" lon="-0.09668">
        <ele>15.4</ele>
        <time>2023-12-06T15:40:47Z</time>
      </trkpt>
      <trkpt lat="49.24299" lon="-0.09675">
        <ele>15.4</ele>
        <time>2023-12-06T15:40:48Z</time>
      </trkpt>
      <trkpt lat="49.24305" lon="-0.09682">
        <ele>15.4</ele>
        <time>2023-12-06T15:40:49Z</time>
      </trkpt>
      <trkpt lat="49.24312" lon="-0.09689">
        <ele>15.4</ele>
        <time>2023-12-06T15:40:50Z</time>
      </trkpt>
      <trkpt lat="49.24318" lon="-0.09696">
        <ele>15.6</ele>
        <time>2023-12-06T15:40:51Z</time>
      </trkpt>
      <trkpt lat="49.24325" lon="-0.09703">
        <ele>15.6</ele>
        <time>2023-12-06T15:40:52Z</time>
      </trkpt>
      <trkpt lat="49.24331" lon="-0.0971">
        <ele>15.6</ele>
        <time>2023-12-06T15:40:53Z</time>
      </trkpt>
      <trkpt lat="49.24338" lon="-0.09717">
        <ele>15.6</ele>
        <time>2023-12-06T15:40:54Z</time>
      </trkpt>
      <trkpt lat="49.24345" lon="-0.09723">
        <ele>15.6</ele>
        <time>2023-12-06T15:40:55Z</time>
      </trkpt>
      <trkpt lat="49.24351" lon="-0.0973">
        <ele>15.6</ele>
        <time>2023-12-06T15:40:56Z</time>
      </trkpt>
      <trkpt lat="49.24358" lon="-0.09737">
        <ele>15.6</ele>
        <time>2023-12-06T15:40:57Z</time>
      </trkpt>
      <trkpt lat="49.24364" lon="-0.09743">
        <ele>15.6</ele>
        <time>2023-12-06T15:40:58Z</time>
      </trkpt>
      <trkpt lat="49.2437" lon="-0.09751">
        <ele>15.6</ele>
        <time>2023-12-06T15:40:59Z</time>
      </trkpt>
      <trkpt lat="49.24376" lon="-0.09758">
        <ele>15.6</ele>
        <time>2023-12-06T15:41:00Z</time>
      </trkpt>
      <trkpt lat="49.24381" lon="-0.09767">
        <ele>15.8</ele>
        <time>2023-12-06T15:41:01Z</time>
      </trkpt>
      <trkpt lat="49.24386" lon="-0.09777">
        <ele>15.8</ele>
        <time>2023-12-06T15:41:02Z</time>
      </trkpt>
      <trkpt lat="49.24391" lon="-0.09788">
        <ele>15.8</ele>
        <time>2023-12-06T15:41:03Z</time>
      </trkpt>
      <trkpt lat="49.24394" lon="-0.09798">
        <ele>16.2</ele>
        <time>2023-12-06T15:41:04Z</time>
      </trkpt>
      <trkpt lat="49.24398" lon="-0.09809">
        <ele>16.4</ele>
        <time>2023-12-06T15:41:05Z</time>
      </trkpt>
      <trkpt lat="49.24402" lon="-0.09821">
        <ele>16.8</ele>
        <time>2023-12-06T15:41:06Z</time>
      </trkpt>
      <trkpt lat="49.24405" lon="-0.09833">
        <ele>16.8</ele>
        <time>2023-12-06T15:41:07Z</time>
      </trkpt>
      <trkpt lat="49.24407" lon="-0.09845">
        <ele>17</ele>
        <time>2023-12-06T15:41:08Z</time>
      </trkpt>
      <trkpt lat="49.2441" lon="-0.09856">
        <ele>17.2</ele>
        <time>2023-12-06T15:41:09Z</time>
      </trkpt>
      <trkpt lat="49.24413" lon="-0.09869">
        <ele>17.4</ele>
        <time>2023-12-06T15:41:10Z</time>
      </trkpt>
      <trkpt lat="49.24416" lon="-0.09881">
        <ele>17.4</ele>
        <time>2023-12-06T15:41:11Z</time>
      </trkpt>
      <trkpt lat="49.24419" lon="-0.09892">
        <ele>17.6</ele>
        <time>2023-12-06T15:41:12Z</time>
      </trkpt>
      <trkpt lat="49.24423" lon="-0.09904">
        <ele>17.6</ele>
        <time>2023-12-06T15:41:13Z</time>
      </trkpt>
      <trkpt lat="49.24426" lon="-0.09916">
        <ele>17.8</ele>
        <time>2023-12-06T15:41:14Z</time>
      </trkpt>
      <trkpt lat="49.24429" lon="-0.09927">
        <ele>17.8</ele>
        <time>2023-12-06T15:41:15Z</time>
      </trkpt>
      <trkpt lat="49.24433" lon="-0.09939">
        <ele>18</ele>
        <time>2023-12-06T15:41:16Z</time>
      </trkpt>
      <trkpt lat="49.24436" lon="-0.09952">
        <ele>18</ele>
        <time>2023-12-06T15:41:17Z</time>
      </trkpt>
      <trkpt lat="49.2444" lon="-0.09963">
        <ele>18.2</ele>
        <time>2023-12-06T15:41:18Z</time>
      </trkpt>
      <trkpt lat="49.24445" lon="-0.09974">
        <ele>18.4</ele>
        <time>2023-12-06T15:41:19Z</time>
      </trkpt>
      <trkpt lat="49.2445" lon="-0.09985">
        <ele>18.4</ele>
        <time>2023-12-06T15:41:20Z</time>
      </trkpt>
      <trkpt lat="49.24457" lon="-0.09994">
        <ele>18.4</ele>
        <time>2023-12-06T15:41:21Z</time>
      </trkpt>
      <trkpt lat="49.24464" lon="-0.10003">
        <ele>18.6</ele>
        <time>2023-12-06T15:41:22Z</time>
      </trkpt>
      <trkpt lat="49.24472" lon="-0.10011">
        <ele>18.8</ele>
        <time>2023-12-06T15:41:23Z</time>
      </trkpt>
      <trkpt lat="49.2448" lon="-0.10019">
        <ele>18.8</ele>
        <time>2023-12-06T15:41:24Z</time>
      </trkpt>
      <trkpt lat="49.24487" lon="-0.10026">
        <ele>18.8</ele>
        <time>2023-12-06T15:41:25Z</time>
      </trkpt>
      <trkpt lat="49.24496" lon="-0.10033">
        <ele>18.8</ele>
        <time>2023-12-06T15:41:26Z</time>
      </trkpt>
      <trkpt lat="49.24504" lon="-0.10039">
        <ele>18.8</ele>
        <time>2023-12-06T15:41:27Z</time>
      </trkpt>
      <trkpt lat="49.24513" lon="-0.10046">
        <ele>18.8</ele>
        <time>2023-12-06T15:41:28Z</time>
      </trkpt>
      <trkpt lat="49.24521" lon="-0.10053">
        <ele>18.8</ele>
        <time>2023-12-06T15:41:29Z</time>
      </trkpt>
      <trkpt lat="49.24529" lon="-0.10059">
        <ele>18.2</ele>
        <time>2023-12-06T15:41:30Z</time>
      </trkpt>
      <trkpt lat="49.24538" lon="-0.10066">
        <ele>18</ele>
        <time>2023-12-06T15:41:31Z</time>
      </trkpt>
      <trkpt lat="49.24547" lon="-0.10073">
        <ele>17.4</ele>
        <time>2023-12-06T15:41:32Z</time>
      </trkpt>
      <trkpt lat="49.24556" lon="-0.10079">
        <ele>17</ele>
        <time>2023-12-06T15:41:33Z</time>
      </trkpt>
      <trkpt lat="49.24565" lon="-0.10087">
        <ele>16.4</ele>
        <time>2023-12-06T15:41:34Z</time>
      </trkpt>
      <trkpt lat="49.24574" lon="-0.10094">
        <ele>16</ele>
        <time>2023-12-06T15:41:35Z</time>
      </trkpt>
      <trkpt lat="49.24583" lon="-0.10101">
        <ele>15.2</ele>
        <time>2023-12-06T15:41:36Z</time>
      </trkpt>
      <trkpt lat="49.24592" lon="-0.10107">
        <ele>14.4</ele>
        <time>2023-12-06T15:41:37Z</time>
      </trkpt>
      <trkpt lat="49.24602" lon="-0.10114">
        <ele>14</ele>
        <time>2023-12-06T15:41:38Z</time>
      </trkpt>
      <trkpt lat="49.24611" lon="-0.10121">
        <ele>13.6</ele>
        <time>2023-12-06T15:41:39Z</time>
      </trkpt>
      <trkpt lat="49.24619" lon="-0.10128">
        <ele>13.2</ele>
        <time>2023-12-06T15:41:40Z</time>
      </trkpt>
      <trkpt lat="49.24628" lon="-0.10135">
        <ele>12.8</ele>
        <time>2023-12-06T15:41:41Z</time>
      </trkpt>
      <trkpt lat="49.24637" lon="-0.10142">
        <ele>12.2</ele>
        <time>2023-12-06T15:41:42Z</time>
      </trkpt>
      <trkpt lat="49.24646" lon="-0.10148">
        <ele>11.6</ele>
        <time>2023-12-06T15:41:43Z</time>
      </trkpt>
      <trkpt lat="49.24654" lon="-0.10154">
        <ele>11.2</ele>
        <time>2023-12-06T15:41:44Z</time>
      </trkpt>
      <trkpt lat="49.24662" lon="-0.10161">
        <ele>10.8</ele>
        <time>2023-12-06T15:41:45Z</time>
      </trkpt>
      <trkpt lat="49.2467" lon="-0.10167">
        <ele>10.6</ele>
        <time>2023-12-06T15:41:46Z</time>
      </trkpt>
      <trkpt lat="49.24678" lon="-0.10173">
        <ele>10.4</ele>
        <time>2023-12-06T15:41:47Z</time>
      </trkpt>
      <trkpt lat="49.24686" lon="-0.10178">
        <ele>10.2</ele>
        <time>2023-12-06T15:41:48Z</time>
      </trkpt>
      <trkpt lat="49.24693" lon="-0.10185">
        <ele>10.2</ele>
        <time>2023-12-06T15:41:49Z</time>
      </trkpt>
      <trkpt lat="49.24701" lon="-0.10191">
        <ele>10.2</ele>
        <time>2023-12-06T15:41:50Z</time>
      </trkpt>
      <trkpt lat="49.24708" lon="-0.10197">
        <ele>10.2</ele>
        <time>2023-12-06T15:41:51Z</time>
      </trkpt>
      <trkpt lat="49.24716" lon="-0.10202">
        <ele>10.2</ele>
        <time>2023-12-06T15:41:52Z</time>
      </trkpt>
      <trkpt lat="49.24724" lon="-0.10208">
        <ele>10.2</ele>
        <time>2023-12-06T15:41:53Z</time>
      </trkpt>
      <trkpt lat="49.24731" lon="-0.10213">
        <ele>10.2</ele>
        <time>2023-12-06T15:41:54Z</time>
      </trkpt>
      <trkpt lat="49.24739" lon="-0.10219">
        <ele>10.2</ele>
        <time>2023-12-06T15:41:55Z</time>
      </trkpt>
      <trkpt lat="49.24746" lon="-0.10225">
        <ele>10.2</ele>
        <time>2023-12-06T15:41:56Z</time>
      </trkpt>
      <trkpt lat="49.24753" lon="-0.1023">
        <ele>10.2</ele>
        <time>2023-12-06T15:41:57Z</time>
      </trkpt>
      <trkpt lat="49.2476" lon="-0.10237">
        <ele>10.2</ele>
        <time>2023-12-06T15:41:58Z</time>
      </trkpt>
      <trkpt lat="49.24767" lon="-0.10242">
        <ele>10.2</ele>
        <time>2023-12-06T15:41:59Z</time>
      </trkpt>
      <trkpt lat="49.24774" lon="-0.10248">
        <ele>10.2</ele>
        <time>2023-12-06T15:42:00Z</time>
      </trkpt>
      <trkpt lat="49.24781" lon="-0.10254">
        <ele>10.2</ele>
        <time>2023-12-06T15:42:01Z</time>
      </trkpt>
      <trkpt lat="49.24789" lon="-0.10259">
        <ele>10.4</ele>
        <time>2023-12-06T15:42:02Z</time>
      </trkpt>
      <trkpt lat="49.24796" lon="-0.10264">
        <ele>10.4</ele>
        <time>2023-12-06T15:42:03Z</time>
      </trkpt>
      <trkpt lat="49.24803" lon="-0.1027">
        <ele>10.4</ele>
        <time>2023-12-06T15:42:04Z</time>
      </trkpt>
      <trkpt lat="49.2481" lon="-0.10274">
        <ele>10.4</ele>
        <time>2023-12-06T15:42:05Z</time>
      </trkpt>
      <trkpt lat="49.24818" lon="-0.10279">
        <ele>10.6</ele>
        <time>2023-12-06T15:42:06Z</time>
      </trkpt>
      <trkpt lat="49.24825" lon="-0.10284">
        <ele>10.8</ele>
        <time>2023-12-06T15:42:07Z</time>
      </trkpt>
      <trkpt lat="49.24832" lon="-0.10287">
        <ele>11</ele>
        <time>2023-12-06T15:42:08Z</time>
      </trkpt>
      <trkpt lat="49.2484" lon="-0.1029">
        <ele>11.4</ele>
        <time>2023-12-06T15:42:09Z</time>
      </trkpt>
      <trkpt lat="49.24848" lon="-0.10292">
        <ele>11.4</ele>
        <time>2023-12-06T15:42:10Z</time>
      </trkpt>
      <trkpt lat="49.24855" lon="-0.10294">
        <ele>11.4</ele>
        <time>2023-12-06T15:42:11Z</time>
      </trkpt>
      <trkpt lat="49.24863" lon="-0.10294">
        <ele>11.6</ele>
        <time>2023-12-06T15:42:12Z</time>
      </trkpt>
      <trkpt lat="49.24871" lon="-0.10294">
        <ele>11.6</ele>
        <time>2023-12-06T15:42:13Z</time>
      </trkpt>
      <trkpt lat="49.24879" lon="-0.10293">
        <ele>11.6</ele>
        <time>2023-12-06T15:42:14Z</time>
      </trkpt>
      <trkpt lat="49.24887" lon="-0.10291">
        <ele>11.6</ele>
        <time>2023-12-06T15:42:15Z</time>
      </trkpt>
      <trkpt lat="49.24895" lon="-0.10288">
        <ele>11.6</ele>
        <time>2023-12-06T15:42:16Z</time>
      </trkpt>
      <trkpt lat="49.24902" lon="-0.10285">
        <ele>11.6</ele>
        <time>2023-12-06T15:42:17Z</time>
      </trkpt>
      <trkpt lat="49.2491" lon="-0.1028">
        <ele>11.6</ele>
        <time>2023-12-06T15:42:18Z</time>
      </trkpt>
      <trkpt lat="49.24917" lon="-0.10273">
        <ele>11.6</ele>
        <time>2023-12-06T15:42:19Z</time>
      </trkpt>
      <trkpt lat="49.24925" lon="-0.10266">
        <ele>11.8</ele>
        <time>2023-12-06T15:42:20Z</time>
      </trkpt>
      <trkpt lat="49.24932" lon="-0.10258">
        <ele>11.8</ele>
        <time>2023-12-06T15:42:21Z</time>
      </trkpt>
      <trkpt lat="49.24938" lon="-0.10249">
        <ele>11.8</ele>
        <time>2023-12-06T15:42:22Z</time>
      </trkpt>
      <trkpt lat="49.24943" lon="-0.10239">
        <ele>11.8</ele>
        <time>2023-12-06T15:42:23Z</time>
      </trkpt>
      <trkpt lat="49.24948" lon="-0.10229">
        <ele>11.8</ele>
        <time>2023-12-06T15:42:24Z</time>
      </trkpt>
      <trkpt lat="49.24953" lon="-0.10218">
        <ele>11.8</ele>
        <time>2023-12-06T15:42:25Z</time>
      </trkpt>
      <trkpt lat="49.24957" lon="-0.10207">
        <ele>11.6</ele>
        <time>2023-12-06T15:42:26Z</time>
      </trkpt>
      <trkpt lat="49.24961" lon="-0.10196">
        <ele>11.6</ele>
        <time>2023-12-06T15:42:27Z</time>
      </trkpt>
      <trkpt lat="49.24964" lon="-0.10185">
        <ele>11.6</ele>
        <time>2023-12-06T15:42:28Z</time>
      </trkpt>
      <trkpt lat="49.24968" lon="-0.10174">
        <ele>11.4</ele>
        <time>2023-12-06T15:42:29Z</time>
      </trkpt>
      <trkpt lat="49.24971" lon="-0.10163">
        <ele>11.4</ele>
        <time>2023-12-06T15:42:30Z</time>
      </trkpt>
      <trkpt lat="49.24975" lon="-0.10152">
        <ele>11.4</ele>
        <time>2023-12-06T15:42:31Z</time>
      </trkpt>
      <trkpt lat="49.24979" lon="-0.10141">
        <ele>11.2</ele>
        <time>2023-12-06T15:42:32Z</time>
      </trkpt>
      <trkpt lat="49.24983" lon="-0.10129">
        <ele>11.2</ele>
        <time>2023-12-06T15:42:33Z</time>
      </trkpt>
      <trkpt lat="49.24986" lon="-0.10118">
        <ele>11</ele>
        <time>2023-12-06T15:42:34Z</time>
      </trkpt>
      <trkpt lat="49.2499" lon="-0.10108">
        <ele>11</ele>
        <time>2023-12-06T15:42:35Z</time>
      </trkpt>
      <trkpt lat="49.24994" lon="-0.10097">
        <ele>11</ele>
        <time>2023-12-06T15:42:36Z</time>
      </trkpt>
      <trkpt lat="49.24999" lon="-0.10085">
        <ele>11</ele>
        <time>2023-12-06T15:42:37Z</time>
      </trkpt>
      <trkpt lat="49.25003" lon="-0.10074">
        <ele>11</ele>
        <time>2023-12-06T15:42:38Z</time>
      </trkpt>
      <trkpt lat="49.25007" lon="-0.10063">
        <ele>11</ele>
        <time>2023-12-06T15:42:39Z</time>
      </trkpt>
      <trkpt lat="49.25011" lon="-0.10051">
        <ele>11</ele>
        <time>2023-12-06T15:42:40Z</time>
      </trkpt>
      <trkpt lat="49.25015" lon="-0.1004">
        <ele>10.8</ele>
        <time>2023-12-06T15:42:41Z</time>
      </trkpt>
      <trkpt lat="49.25019" lon="-0.10028">
        <ele>10.8</ele>
        <time>2023-12-06T15:42:42Z</time>
      </trkpt>
      <trkpt lat="49.25024" lon="-0.10016">
        <ele>10.8</ele>
        <time>2023-12-06T15:42:43Z</time>
      </trkpt>
      <trkpt lat="49.25028" lon="-0.10004">
        <ele>10.8</ele>
        <time>2023-12-06T15:42:44Z</time>
      </trkpt>
      <trkpt lat="49.25032" lon="-0.09993">
        <ele>10.8</ele>
        <time>2023-12-06T15:42:45Z</time>
      </trkpt>
      <trkpt lat="49.25036" lon="-0.09981">
        <ele>10.8</ele>
        <time>2023-12-06T15:42:46Z</time>
      </trkpt>
      <trkpt lat="49.2504" lon="-0.09969">
        <ele>10.6</ele>
        <time>2023-12-06T15:42:47Z</time>
      </trkpt>
      <trkpt lat="49.25044" lon="-0.09958">
        <ele>10.6</ele>
        <time>2023-12-06T15:42:48Z</time>
      </trkpt>
      <trkpt lat="49.25049" lon="-0.09946">
        <ele>10.6</ele>
        <time>2023-12-06T15:42:49Z</time>
      </trkpt>
      <trkpt lat="49.25053" lon="-0.09935">
        <ele>10.6</ele>
        <time>2023-12-06T15:42:50Z</time>
      </trkpt>
      <trkpt lat="49.25057" lon="-0.09924">
        <ele>10.4</ele>
        <time>2023-12-06T15:42:51Z</time>
      </trkpt>
      <trkpt lat="49.25061" lon="-0.09912">
        <ele>10.4</ele>
        <time>2023-12-06T15:42:52Z</time>
      </trkpt>
      <trkpt lat="49.25065" lon="-0.09901">
        <ele>10.4</ele>
        <time>2023-12-06T15:42:53Z</time>
      </trkpt>
      <trkpt lat="49.25069" lon="-0.09889">
        <ele>10.2</ele>
        <time>2023-12-06T15:42:54Z</time>
      </trkpt>
      <trkpt lat="49.25074" lon="-0.09878">
        <ele>10.2</ele>
        <time>2023-12-06T15:42:55Z</time>
      </trkpt>
      <trkpt lat="49.25078" lon="-0.09867">
        <ele>10.2</ele>
        <time>2023-12-06T15:42:56Z</time>
      </trkpt>
      <trkpt lat="49.25083" lon="-0.09856">
        <ele>10.2</ele>
        <time>2023-12-06T15:42:57Z</time>
      </trkpt>
      <trkpt lat="49.25087" lon="-0.09845">
        <ele>10.2</ele>
        <time>2023-12-06T15:42:58Z</time>
      </trkpt>
      <trkpt lat="49.25091" lon="-0.09834">
        <ele>10</ele>
        <time>2023-12-06T15:42:59Z</time>
      </trkpt>
      <trkpt lat="49.25095" lon="-0.09823">
        <ele>10</ele>
        <time>2023-12-06T15:43:00Z</time>
      </trkpt>
      <trkpt lat="49.25099" lon="-0.09812">
        <ele>10</ele>
        <time>2023-12-06T15:43:01Z</time>
      </trkpt>
      <trkpt lat="49.25103" lon="-0.09801">
        <ele>10</ele>
        <time>2023-12-06T15:43:02Z</time>
      </trkpt>
      <trkpt lat="49.25107" lon="-0.0979">
        <ele>10</ele>
        <time>2023-12-06T15:43:03Z</time>
      </trkpt>
      <trkpt lat="49.25111" lon="-0.0978">
        <ele>10</ele>
        <time>2023-12-06T15:43:04Z</time>
      </trkpt>
      <trkpt lat="49.25115" lon="-0.0977">
        <ele>10</ele>
        <time>2023-12-06T15:43:05Z</time>
      </trkpt>
      <trkpt lat="49.2512" lon="-0.0976">
        <ele>10</ele>
        <time>2023-12-06T15:43:06Z</time>
      </trkpt>
      <trkpt lat="49.25125" lon="-0.09751">
        <ele>10</ele>
        <time>2023-12-06T15:43:07Z</time>
      </trkpt>
      <trkpt lat="49.25131" lon="-0.09743">
        <ele>10</ele>
        <time>2023-12-06T15:43:08Z</time>
      </trkpt>
      <trkpt lat="49.25137" lon="-0.09736">
        <ele>10</ele>
        <time>2023-12-06T15:43:09Z</time>
      </trkpt>
      <trkpt lat="49.25144" lon="-0.0973">
        <ele>10</ele>
        <time>2023-12-06T15:43:10Z</time>
      </trkpt>
      <trkpt lat="49.25151" lon="-0.09726">
        <ele>10</ele>
        <time>2023-12-06T15:43:11Z</time>
      </trkpt>
      <trkpt lat="49.25159" lon="-0.09722">
        <ele>10</ele>
        <time>2023-12-06T15:43:12Z</time>
      </trkpt>
      <trkpt lat="49.25166" lon="-0.09719">
        <ele>10.2</ele>
        <time>2023-12-06T15:43:13Z</time>
      </trkpt>
      <trkpt lat="49.25173" lon="-0.09716">
        <ele>10.2</ele>
        <time>2023-12-06T15:43:14Z</time>
      </trkpt>
      <trkpt lat="49.2518" lon="-0.09713">
        <ele>10.4</ele>
        <time>2023-12-06T15:43:15Z</time>
      </trkpt>
      <trkpt lat="49.25188" lon="-0.09711">
        <ele>10.4</ele>
        <time>2023-12-06T15:43:16Z</time>
      </trkpt>
      <trkpt lat="49.25196" lon="-0.09708">
        <ele>10.6</ele>
        <time>2023-12-06T15:43:17Z</time>
      </trkpt>
      <trkpt lat="49.25203" lon="-0.09705">
        <ele>10.6</ele>
        <time>2023-12-06T15:43:18Z</time>
      </trkpt>
      <trkpt lat="49.2521" lon="-0.09703">
        <ele>10.8</ele>
        <time>2023-12-06T15:43:19Z</time>
      </trkpt>
      <trkpt lat="49.25218" lon="-0.097">
        <ele>11</ele>
        <time>2023-12-06T15:43:20Z</time>
      </trkpt>
      <trkpt lat="49.25226" lon="-0.09697">
        <ele>11</ele>
        <time>2023-12-06T15:43:21Z</time>
      </trkpt>
      <trkpt lat="49.25234" lon="-0.09694">
        <ele>11</ele>
        <time>2023-12-06T15:43:22Z</time>
      </trkpt>
      <trkpt lat="49.25242" lon="-0.0969">
        <ele>11.2</ele>
        <time>2023-12-06T15:43:23Z</time>
      </trkpt>
      <trkpt lat="49.2525" lon="-0.09686">
        <ele>11.2</ele>
        <time>2023-12-06T15:43:24Z</time>
      </trkpt>
      <trkpt lat="49.25258" lon="-0.09681">
        <ele>11.2</ele>
        <time>2023-12-06T15:43:25Z</time>
      </trkpt>
      <trkpt lat="49.25265" lon="-0.09675">
        <ele>11.2</ele>
        <time>2023-12-06T15:43:26Z</time>
      </trkpt>
      <trkpt lat="49.25273" lon="-0.09668">
        <ele>11.4</ele>
        <time>2023-12-06T15:43:27Z</time>
      </trkpt>
      <trkpt lat="49.25279" lon="-0.09661">
        <ele>11.4</ele>
        <time>2023-12-06T15:43:28Z</time>
      </trkpt>
      <trkpt lat="49.25286" lon="-0.09654">
        <ele>11.4</ele>
        <time>2023-12-06T15:43:29Z</time>
      </trkpt>
      <trkpt lat="49.25293" lon="-0.09647">
        <ele>11.4</ele>
        <time>2023-12-06T15:43:30Z</time>
      </trkpt>
      <trkpt lat="49.253" lon="-0.09641">
        <ele>11.4</ele>
        <time>2023-12-06T15:43:31Z</time>
      </trkpt>
      <trkpt lat="49.25307" lon="-0.09635">
        <ele>11.4</ele>
        <time>2023-12-06T15:43:32Z</time>
      </trkpt>
      <trkpt lat="49.25315" lon="-0.0963">
        <ele>11.4</ele>
        <time>2023-12-06T15:43:33Z</time>
      </trkpt>
      <trkpt lat="49.25322" lon="-0.09627">
        <ele>11.4</ele>
        <time>2023-12-06T15:43:34Z</time>
      </trkpt>
      <trkpt lat="49.2533" lon="-0.09624">
        <ele>11.4</ele>
        <time>2023-12-06T15:43:35Z</time>
      </trkpt>
      <trkpt lat="49.25338" lon="-0.09622">
        <ele>11.4</ele>
        <time>2023-12-06T15:43:36Z</time>
      </trkpt>
      <trkpt lat="49.25346" lon="-0.0962">
        <ele>11.4</ele>
        <time>2023-12-06T15:43:37Z</time>
      </trkpt>
      <trkpt lat="49.25354" lon="-0.09619">
        <ele>11.4</ele>
        <time>2023-12-06T15:43:38Z</time>
      </trkpt>
      <trkpt lat="49.25362" lon="-0.09618">
        <ele>11.4</ele>
        <time>2023-12-06T15:43:39Z</time>
      </trkpt>
      <trkpt lat="49.2537" lon="-0.09617">
        <ele>11.4</ele>
        <time>2023-12-06T15:43:40Z</time>
      </trkpt>
      <trkpt lat="49.25377" lon="-0.09616">
        <ele>11.4</ele>
        <time>2023-12-06T15:43:41Z</time>
      </trkpt>
      <trkpt lat="49.25385" lon="-0.09614">
        <ele>11.4</ele>
        <time>2023-12-06T15:43:42Z</time>
      </trkpt>
      <trkpt lat="49.25393" lon="-0.09613">
        <ele>11.2</ele>
        <time>2023-12-06T15:43:43Z</time>
      </trkpt>
      <trkpt lat="49.25401" lon="-0.09611">
        <ele>11.2</ele>
        <time>2023-12-06T15:43:44Z</time>
      </trkpt>
      <trkpt lat="49.25408" lon="-0.0961">
        <ele>11.2</ele>
        <time>2023-12-06T15:43:45Z</time>
      </trkpt>
      <trkpt lat="49.25416" lon="-0.09608">
        <ele>11.2</ele>
        <time>2023-12-06T15:43:46Z</time>
      </trkpt>
      <trkpt lat="49.25424" lon="-0.09607">
        <ele>11.2</ele>
        <time>2023-12-06T15:43:47Z</time>
      </trkpt>
      <trkpt lat="49.25431" lon="-0.09606">
        <ele>11.2</ele>
        <time>2023-12-06T15:43:48Z</time>
      </trkpt>
      <trkpt lat="49.25439" lon="-0.09604">
        <ele>11.2</ele>
        <time>2023-12-06T15:43:49Z</time>
      </trkpt>
      <trkpt lat="49.25446" lon="-0.09603">
        <ele>11.2</ele>
        <time>2023-12-06T15:43:50Z</time>
      </trkpt>
      <trkpt lat="49.25454" lon="-0.09602">
        <ele>11.2</ele>
        <time>2023-12-06T15:43:51Z</time>
      </trkpt>
      <trkpt lat="49.25461" lon="-0.096">
        <ele>11.2</ele>
        <time>2023-12-06T15:43:52Z</time>
      </trkpt>
      <trkpt lat="49.25469" lon="-0.09599">
        <ele>11.2</ele>
        <time>2023-12-06T15:43:53Z</time>
      </trkpt>
      <trkpt lat="49.25476" lon="-0.09598">
        <ele>11.2</ele>
        <time>2023-12-06T15:43:54Z</time>
      </trkpt>
      <trkpt lat="49.25484" lon="-0.09597">
        <ele>11.2</ele>
        <time>2023-12-06T15:43:55Z</time>
      </trkpt>
      <trkpt lat="49.25491" lon="-0.09596">
        <ele>11.2</ele>
        <time>2023-12-06T15:43:56Z</time>
      </trkpt>
      <trkpt lat="49.25499" lon="-0.09595">
        <ele>11.2</ele>
        <time>2023-12-06T15:43:57Z</time>
      </trkpt>
      <trkpt lat="49.25507" lon="-0.09594">
        <ele>11.2</ele>
        <time>2023-12-06T15:43:58Z</time>
      </trkpt>
      <trkpt lat="49.25515" lon="-0.09594">
        <ele>11.2</ele>
        <time>2023-12-06T15:43:59Z</time>
      </trkpt>
      <trkpt lat="49.25522" lon="-0.09593">
        <ele>11.2</ele>
        <time>2023-12-06T15:44:00Z</time>
      </trkpt>
      <trkpt lat="49.2553" lon="-0.09593">
        <ele>11.2</ele>
        <time>2023-12-06T15:44:01Z</time>
      </trkpt>
      <trkpt lat="49.25538" lon="-0.09593">
        <ele>11.4</ele>
        <time>2023-12-06T15:44:02Z</time>
      </trkpt>
      <trkpt lat="49.25545" lon="-0.09593">
        <ele>11.6</ele>
        <time>2023-12-06T15:44:03Z</time>
      </trkpt>
      <trkpt lat="49.25553" lon="-0.09593">
        <ele>11.8</ele>
        <time>2023-12-06T15:44:04Z</time>
      </trkpt>
      <trkpt lat="49.25561" lon="-0.09594">
        <ele>11.8</ele>
        <time>2023-12-06T15:44:05Z</time>
      </trkpt>
      <trkpt lat="49.25568" lon="-0.09594">
        <ele>11.8</ele>
        <time>2023-12-06T15:44:06Z</time>
      </trkpt>
      <trkpt lat="49.25576" lon="-0.09594">
        <ele>12</ele>
        <time>2023-12-06T15:44:07Z</time>
      </trkpt>
      <trkpt lat="49.25584" lon="-0.09595">
        <ele>12.2</ele>
        <time>2023-12-06T15:44:08Z</time>
      </trkpt>
      <trkpt lat="49.25591" lon="-0.09595">
        <ele>12.2</ele>
        <time>2023-12-06T15:44:09Z</time>
      </trkpt>
      <trkpt lat="49.25598" lon="-0.09595">
        <ele>12.4</ele>
        <time>2023-12-06T15:44:10Z</time>
      </trkpt>
      <trkpt lat="49.25606" lon="-0.09595">
        <ele>12.6</ele>
        <time>2023-12-06T15:44:11Z</time>
      </trkpt>
      <trkpt lat="49.25613" lon="-0.09594">
        <ele>12.6</ele>
        <time>2023-12-06T15:44:12Z</time>
      </trkpt>
      <trkpt lat="49.25621" lon="-0.09593">
        <ele>12.6</ele>
        <time>2023-12-06T15:44:13Z</time>
      </trkpt>
      <trkpt lat="49.25628" lon="-0.09591">
        <ele>12.8</ele>
        <time>2023-12-06T15:44:14Z</time>
      </trkpt>
      <trkpt lat="49.25635" lon="-0.09589">
        <ele>12.8</ele>
        <time>2023-12-06T15:44:15Z</time>
      </trkpt>
      <trkpt lat="49.25642" lon="-0.09586">
        <ele>12.8</ele>
        <time>2023-12-06T15:44:16Z</time>
      </trkpt>
      <trkpt lat="49.25649" lon="-0.09582">
        <ele>13</ele>
        <time>2023-12-06T15:44:17Z</time>
      </trkpt>
      <trkpt lat="49.25656" lon="-0.09578">
        <ele>13.2</ele>
        <time>2023-12-06T15:44:18Z</time>
      </trkpt>
      <trkpt lat="49.25663" lon="-0.09574">
        <ele>13.4</ele>
        <time>2023-12-06T15:44:19Z</time>
      </trkpt>
      <trkpt lat="49.2567" lon="-0.09569">
        <ele>13.4</ele>
        <time>2023-12-06T15:44:20Z</time>
      </trkpt>
      <trkpt lat="49.25676" lon="-0.09564">
        <ele>13.6</ele>
        <time>2023-12-06T15:44:21Z</time>
      </trkpt>
      <trkpt lat="49.25683" lon="-0.09559">
        <ele>13.6</ele>
        <time>2023-12-06T15:44:22Z</time>
      </trkpt>
      <trkpt lat="49.2569" lon="-0.09554">
        <ele>13.6</ele>
        <time>2023-12-06T15:44:23Z</time>
      </trkpt>
      <trkpt lat="49.25696" lon="-0.0955">
        <ele>13.6</ele>
        <time>2023-12-06T15:44:24Z</time>
      </trkpt>
      <trkpt lat="49.25703" lon="-0.09545">
        <ele>13.6</ele>
        <time>2023-12-06T15:44:25Z</time>
      </trkpt>
      <trkpt lat="49.2571" lon="-0.0954">
        <ele>13.6</ele>
        <time>2023-12-06T15:44:26Z</time>
      </trkpt>
      <trkpt lat="49.25717" lon="-0.09535">
        <ele>13.6</ele>
        <time>2023-12-06T15:44:27Z</time>
      </trkpt>
      <trkpt lat="49.25724" lon="-0.0953">
        <ele>13.6</ele>
        <time>2023-12-06T15:44:28Z</time>
      </trkpt>
      <trkpt lat="49.2573" lon="-0.09524">
        <ele>13.6</ele>
        <time>2023-12-06T15:44:29Z</time>
      </trkpt>
      <trkpt lat="49.25737" lon="-0.0952">
        <ele>13.8</ele>
        <time>2023-12-06T15:44:30Z</time>
      </trkpt>
      <trkpt lat="49.25743" lon="-0.09515">
        <ele>13.8</ele>
        <time>2023-12-06T15:44:31Z</time>
      </trkpt>
      <trkpt lat="49.25749" lon="-0.0951">
        <ele>13.8</ele>
        <time>2023-12-06T15:44:32Z</time>
      </trkpt>
      <trkpt lat="49.25756" lon="-0.09505">
        <ele>13.8</ele>
        <time>2023-12-06T15:44:33Z</time>
      </trkpt>
      <trkpt lat="49.25763" lon="-0.095">
        <ele>13.8</ele>
        <time>2023-12-06T15:44:34Z</time>
      </trkpt>
      <trkpt lat="49.2577" lon="-0.09496">
        <ele>13.8</ele>
        <time>2023-12-06T15:44:35Z</time>
      </trkpt>
      <trkpt lat="49.25776" lon="-0.09491">
        <ele>13.8</ele>
        <time>2023-12-06T15:44:36Z</time>
      </trkpt>
      <trkpt lat="49.25783" lon="-0.09487">
        <ele>13.8</ele>
        <time>2023-12-06T15:44:37Z</time>
      </trkpt>
      <trkpt lat="49.25789" lon="-0.09484">
        <ele>14</ele>
        <time>2023-12-06T15:44:38Z</time>
      </trkpt>
      <trkpt lat="49.25795" lon="-0.09483">
        <ele>14</ele>
        <time>2023-12-06T15:44:39Z</time>
      </trkpt>
      <trkpt lat="49.25801" lon="-0.09481">
        <ele>14</ele>
        <time>2023-12-06T15:44:40Z</time>
      </trkpt>
      <trkpt lat="49.25807" lon="-0.0948">
        <ele>14.2</ele>
        <time>2023-12-06T15:44:41Z</time>
      </trkpt>
      <trkpt lat="49.25813" lon="-0.09479">
        <ele>14.2</ele>
        <time>2023-12-06T15:44:42Z</time>
      </trkpt>
      <trkpt lat="49.25818" lon="-0.09479">
        <ele>14.2</ele>
        <time>2023-12-06T15:44:43Z</time>
      </trkpt>
      <trkpt lat="49.25823" lon="-0.09479">
        <ele>14.4</ele>
        <time>2023-12-06T15:44:44Z</time>
      </trkpt>
      <trkpt lat="49.25827" lon="-0.09479">
        <ele>14.4</ele>
        <time>2023-12-06T15:44:45Z</time>
      </trkpt>
      <trkpt lat="49.2583" lon="-0.09478">
        <ele>14.6</ele>
        <time>2023-12-06T15:44:46Z</time>
      </trkpt>
      <trkpt lat="49.25833" lon="-0.09478">
        <ele>14.8</ele>
        <time>2023-12-06T15:44:47Z</time>
      </trkpt>
      <trkpt lat="49.25836" lon="-0.09478">
        <ele>15</ele>
        <time>2023-12-06T15:44:48Z</time>
      </trkpt>
      <trkpt lat="49.25837" lon="-0.09479">
        <ele>15</ele>
        <time>2023-12-06T15:44:49Z</time>
      </trkpt>
      <trkpt lat="49.25837" lon="-0.09479">
        <ele>15.2</ele>
        <time>2023-12-06T15:44:50Z</time>
      </trkpt>
      <trkpt lat="49.25837" lon="-0.09479">
        <ele>15.2</ele>
        <time>2023-12-06T15:44:51Z</time>
      </trkpt>
      <trkpt lat="49.25841" lon="-0.0948">
        <ele>16.2</ele>
        <time>2023-12-06T15:45:02Z</time>
      </trkpt>
      <trkpt lat="49.25843" lon="-0.0948">
        <ele>16.2</ele>
        <time>2023-12-06T15:45:03Z</time>
      </trkpt>
      <trkpt lat="49.25844" lon="-0.09481">
        <ele>16.2</ele>
        <time>2023-12-06T15:45:04Z</time>
      </trkpt>
      <trkpt lat="49.25846" lon="-0.09481">
        <ele>16.2</ele>
        <time>2023-12-06T15:45:05Z</time>
      </trkpt>
      <trkpt lat="49.25848" lon="-0.09482">
        <ele>16.2</ele>
        <time>2023-12-06T15:45:06Z</time>
      </trkpt>
      <trkpt lat="49.25851" lon="-0.09482">
        <ele>16.2</ele>
        <time>2023-12-06T15:45:07Z</time>
      </trkpt>
      <trkpt lat="49.25853" lon="-0.09483">
        <ele>16.2</ele>
        <time>2023-12-06T15:45:08Z</time>
      </trkpt>
      <trkpt lat="49.25856" lon="-0.09483">
        <ele>16.2</ele>
        <time>2023-12-06T15:45:09Z</time>
      </trkpt>
      <trkpt lat="49.25859" lon="-0.09483">
        <ele>16.2</ele>
        <time>2023-12-06T15:45:10Z</time>
      </trkpt>
      <trkpt lat="49.25862" lon="-0.09484">
        <ele>16.2</ele>
        <time>2023-12-06T15:45:11Z</time>
      </trkpt>
      <trkpt lat="49.25865" lon="-0.09484">
        <ele>16.2</ele>
        <time>2023-12-06T15:45:12Z</time>
      </trkpt>
      <trkpt lat="49.25868" lon="-0.09483">
        <ele>16.2</ele>
        <time>2023-12-06T15:45:13Z</time>
      </trkpt>
      <trkpt lat="49.25871" lon="-0.09483">
        <ele>16.2</ele>
        <time>2023-12-06T15:45:14Z</time>
      </trkpt>
      <trkpt lat="49.25874" lon="-0.09483">
        <ele>16.2</ele>
        <time>2023-12-06T15:45:15Z</time>
      </trkpt>
      <trkpt lat="49.25877" lon="-0.09484">
        <ele>16.2</ele>
        <time>2023-12-06T15:45:16Z</time>
      </trkpt>
      <trkpt lat="49.25879" lon="-0.09484">
        <ele>16.2</ele>
        <time>2023-12-06T15:45:17Z</time>
      </trkpt>
      <trkpt lat="49.25882" lon="-0.09484">
        <ele>16.2</ele>
        <time>2023-12-06T15:45:18Z</time>
      </trkpt>
      <trkpt lat="49.25884" lon="-0.09484">
        <ele>16.2</ele>
        <time>2023-12-06T15:45:19Z</time>
      </trkpt>
      <trkpt lat="49.25887" lon="-0.09485">
        <ele>16.2</ele>
        <time>2023-12-06T15:45:20Z</time>
      </trkpt>
      <trkpt lat="49.2589" lon="-0.09485">
        <ele>16.4</ele>
        <time>2023-12-06T15:45:21Z</time>
      </trkpt>
      <trkpt lat="49.25893" lon="-0.09486">
        <ele>16.4</ele>
        <time>2023-12-06T15:45:22Z</time>
      </trkpt>
      <trkpt lat="49.25896" lon="-0.09486">
        <ele>16.4</ele>
        <time>2023-12-06T15:45:23Z</time>
      </trkpt>
      <trkpt lat="49.25899" lon="-0.09487">
        <ele>16.4</ele>
        <time>2023-12-06T15:45:24Z</time>
      </trkpt>
      <trkpt lat="49.25903" lon="-0.09487">
        <ele>16.4</ele>
        <time>2023-12-06T15:45:25Z</time>
      </trkpt>
      <trkpt lat="49.25907" lon="-0.09488">
        <ele>16.6</ele>
        <time>2023-12-06T15:45:26Z</time>
      </trkpt>
      <trkpt lat="49.25911" lon="-0.09488">
        <ele>16.6</ele>
        <time>2023-12-06T15:45:27Z</time>
      </trkpt>
      <trkpt lat="49.25915" lon="-0.09489">
        <ele>16.8</ele>
        <time>2023-12-06T15:45:28Z</time>
      </trkpt>
      <trkpt lat="49.25919" lon="-0.0949">
        <ele>16.8</ele>
        <time>2023-12-06T15:45:29Z</time>
      </trkpt>
      <trkpt lat="49.25922" lon="-0.0949">
        <ele>16.8</ele>
        <time>2023-12-06T15:45:30Z</time>
      </trkpt>
      <trkpt lat="49.25926" lon="-0.09489">
        <ele>17</ele>
        <time>2023-12-06T15:45:31Z</time>
      </trkpt>
      <trkpt lat="49.2593" lon="-0.09489">
        <ele>17</ele>
        <time>2023-12-06T15:45:32Z</time>
      </trkpt>
      <trkpt lat="49.25935" lon="-0.09488">
        <ele>17</ele>
        <time>2023-12-06T15:45:33Z</time>
      </trkpt>
      <trkpt lat="49.25939" lon="-0.09487">
        <ele>17</ele>
        <time>2023-12-06T15:45:34Z</time>
      </trkpt>
      <trkpt lat="49.25943" lon="-0.09487">
        <ele>17</ele>
        <time>2023-12-06T15:45:35Z</time>
      </trkpt>
      <trkpt lat="49.25947" lon="-0.09487">
        <ele>17.2</ele>
        <time>2023-12-06T15:45:36Z</time>
      </trkpt>
      <trkpt lat="49.25951" lon="-0.09486">
        <ele>17.2</ele>
        <time>2023-12-06T15:45:37Z</time>
      </trkpt>
      <trkpt lat="49.25956" lon="-0.09484">
        <ele>17.4</ele>
        <time>2023-12-06T15:45:38Z</time>
      </trkpt>
      <trkpt lat="49.2596" lon="-0.09483">
        <ele>17.6</ele>
        <time>2023-12-06T15:45:39Z</time>
      </trkpt>
      <trkpt lat="49.25965" lon="-0.09481">
        <ele>17.8</ele>
        <time>2023-12-06T15:45:40Z</time>
      </trkpt>
      <trkpt lat="49.2597" lon="-0.0948">
        <ele>17.8</ele>
        <time>2023-12-06T15:45:41Z</time>
      </trkpt>
      <trkpt lat="49.25974" lon="-0.09479">
        <ele>18</ele>
        <time>2023-12-06T15:45:42Z</time>
      </trkpt>
      <trkpt lat="49.25978" lon="-0.09477">
        <ele>18</ele>
        <time>2023-12-06T15:45:43Z</time>
      </trkpt>
      <trkpt lat="49.25983" lon="-0.09475">
        <ele>18.2</ele>
        <time>2023-12-06T15:45:44Z</time>
      </trkpt>
      <trkpt lat="49.25987" lon="-0.09474">
        <ele>18.2</ele>
        <time>2023-12-06T15:45:45Z</time>
      </trkpt>
      <trkpt lat="49.25992" lon="-0.09473">
        <ele>18.2</ele>
        <time>2023-12-06T15:45:46Z</time>
      </trkpt>
      <trkpt lat="49.25998" lon="-0.09472">
        <ele>18.4</ele>
        <time>2023-12-06T15:45:47Z</time>
      </trkpt>
      <trkpt lat="49.26003" lon="-0.09471">
        <ele>18.4</ele>
        <time>2023-12-06T15:45:48Z</time>
      </trkpt>
      <trkpt lat="49.26009" lon="-0.09469">
        <ele>18.6</ele>
        <time>2023-12-06T15:45:49Z</time>
      </trkpt>
      <trkpt lat="49.26015" lon="-0.09468">
        <ele>18.6</ele>
        <time>2023-12-06T15:45:50Z</time>
      </trkpt>
      <trkpt lat="49.26021" lon="-0.09466">
        <ele>18.8</ele>
        <time>2023-12-06T15:45:51Z</time>
      </trkpt>
      <trkpt lat="49.26027" lon="-0.09465">
        <ele>19</ele>
        <time>2023-12-06T15:45:52Z</time>
      </trkpt>
      <trkpt lat="49.26033" lon="-0.09464">
        <ele>19</ele>
        <time>2023-12-06T15:45:53Z</time>
      </trkpt>
      <trkpt lat="49.26039" lon="-0.09462">
        <ele>19.2</ele>
        <time>2023-12-06T15:45:54Z</time>
      </trkpt>
      <trkpt lat="49.26046" lon="-0.09461">
        <ele>19.2</ele>
        <time>2023-12-06T15:45:55Z</time>
      </trkpt>
      <trkpt lat="49.26053" lon="-0.09459">
        <ele>19.2</ele>
        <time>2023-12-06T15:45:56Z</time>
      </trkpt>
      <trkpt lat="49.2606" lon="-0.09458">
        <ele>19.2</ele>
        <time>2023-12-06T15:45:57Z</time>
      </trkpt>
      <trkpt lat="49.26068" lon="-0.09457">
        <ele>19.2</ele>
        <time>2023-12-06T15:45:58Z</time>
      </trkpt>
      <trkpt lat="49.26076" lon="-0.09455">
        <ele>19.2</ele>
        <time>2023-12-06T15:45:59Z</time>
      </trkpt>
      <trkpt lat="49.26084" lon="-0.09454">
        <ele>19.2</ele>
        <time>2023-12-06T15:46:00Z</time>
      </trkpt>
      <trkpt lat="49.26092" lon="-0.09452">
        <ele>19.2</ele>
        <time>2023-12-06T15:46:01Z</time>
      </trkpt>
      <trkpt lat="49.261" lon="-0.0945">
        <ele>19.2</ele>
        <time>2023-12-06T15:46:02Z</time>
      </trkpt>
      <trkpt lat="49.26108" lon="-0.09449">
        <ele>19</ele>
        <time>2023-12-06T15:46:03Z</time>
      </trkpt>
      <trkpt lat="49.26115" lon="-0.09447">
        <ele>19</ele>
        <time>2023-12-06T15:46:04Z</time>
      </trkpt>
      <trkpt lat="49.26123" lon="-0.09446">
        <ele>18.8</ele>
        <time>2023-12-06T15:46:05Z</time>
      </trkpt>
      <trkpt lat="49.2613" lon="-0.09445">
        <ele>18.8</ele>
        <time>2023-12-06T15:46:06Z</time>
      </trkpt>
      <trkpt lat="49.26138" lon="-0.09443">
        <ele>18.6</ele>
        <time>2023-12-06T15:46:07Z</time>
      </trkpt>
      <trkpt lat="49.26145" lon="-0.09443">
        <ele>18.4</ele>
        <time>2023-12-06T15:46:08Z</time>
      </trkpt>
      <trkpt lat="49.26152" lon="-0.09444">
        <ele>18.2</ele>
        <time>2023-12-06T15:46:09Z</time>
      </trkpt>
      <trkpt lat="49.26159" lon="-0.09445">
        <ele>18</ele>
        <time>2023-12-06T15:46:10Z</time>
      </trkpt>
      <trkpt lat="49.26166" lon="-0.09448">
        <ele>17.8</ele>
        <time>2023-12-06T15:46:11Z</time>
      </trkpt>
      <trkpt lat="49.26173" lon="-0.09451">
        <ele>17.8</ele>
        <time>2023-12-06T15:46:12Z</time>
      </trkpt>
      <trkpt lat="49.2618" lon="-0.09456">
        <ele>17.8</ele>
        <time>2023-12-06T15:46:13Z</time>
      </trkpt>
      <trkpt lat="49.26187" lon="-0.0946">
        <ele>17.8</ele>
        <time>2023-12-06T15:46:14Z</time>
      </trkpt>
      <trkpt lat="49.26195" lon="-0.09464">
        <ele>17.6</ele>
        <time>2023-12-06T15:46:15Z</time>
      </trkpt>
      <trkpt lat="49.26202" lon="-0.09467">
        <ele>17.6</ele>
        <time>2023-12-06T15:46:16Z</time>
      </trkpt>
      <trkpt lat="49.2621" lon="-0.09468">
        <ele>17.6</ele>
        <time>2023-12-06T15:46:17Z</time>
      </trkpt>
      <trkpt lat="49.26218" lon="-0.09469">
        <ele>17.6</ele>
        <time>2023-12-06T15:46:18Z</time>
      </trkpt>
      <trkpt lat="49.26225" lon="-0.09468">
        <ele>17.4</ele>
        <time>2023-12-06T15:46:19Z</time>
      </trkpt>
      <trkpt lat="49.26233" lon="-0.09465">
        <ele>17.2</ele>
        <time>2023-12-06T15:46:20Z</time>
      </trkpt>
      <trkpt lat="49.2624" lon="-0.09461">
        <ele>17</ele>
        <time>2023-12-06T15:46:21Z</time>
      </trkpt>
      <trkpt lat="49.26247" lon="-0.09457">
        <ele>16.8</ele>
        <time>2023-12-06T15:46:22Z</time>
      </trkpt>
      <trkpt lat="49.26254" lon="-0.09452">
        <ele>16.8</ele>
        <time>2023-12-06T15:46:23Z</time>
      </trkpt>
      <trkpt lat="49.2626" lon="-0.09448">
        <ele>16.8</ele>
        <time>2023-12-06T15:46:24Z</time>
      </trkpt>
      <trkpt lat="49.26266" lon="-0.09444">
        <ele>16.6</ele>
        <time>2023-12-06T15:46:25Z</time>
      </trkpt>
      <trkpt lat="49.26272" lon="-0.09439">
        <ele>16.6</ele>
        <time>2023-12-06T15:46:26Z</time>
      </trkpt>
      <trkpt lat="49.26278" lon="-0.09436">
        <ele>16.6</ele>
        <time>2023-12-06T15:46:27Z</time>
      </trkpt>
      <trkpt lat="49.26284" lon="-0.09432">
        <ele>16.6</ele>
        <time>2023-12-06T15:46:28Z</time>
      </trkpt>
      <trkpt lat="49.2629" lon="-0.09429">
        <ele>16.6</ele>
        <time>2023-12-06T15:46:29Z</time>
      </trkpt>
      <trkpt lat="49.26295" lon="-0.09426">
        <ele>16.6</ele>
        <time>2023-12-06T15:46:30Z</time>
      </trkpt>
      <trkpt lat="49.26301" lon="-0.09423">
        <ele>17</ele>
        <time>2023-12-06T15:46:31Z</time>
      </trkpt>
      <trkpt lat="49.26306" lon="-0.09421">
        <ele>17.2</ele>
        <time>2023-12-06T15:46:32Z</time>
      </trkpt>
      <trkpt lat="49.26312" lon="-0.09419">
        <ele>17.8</ele>
        <time>2023-12-06T15:46:33Z</time>
      </trkpt>
      <trkpt lat="49.26318" lon="-0.09417">
        <ele>18</ele>
        <time>2023-12-06T15:46:34Z</time>
      </trkpt>
      <trkpt lat="49.26324" lon="-0.09416">
        <ele>18.4</ele>
        <time>2023-12-06T15:46:35Z</time>
      </trkpt>
      <trkpt lat="49.2633" lon="-0.09414">
        <ele>18.6</ele>
        <time>2023-12-06T15:46:36Z</time>
      </trkpt>
      <trkpt lat="49.26337" lon="-0.09413">
        <ele>19</ele>
        <time>2023-12-06T15:46:37Z</time>
      </trkpt>
      <trkpt lat="49.26343" lon="-0.09413">
        <ele>19.2</ele>
        <time>2023-12-06T15:46:38Z</time>
      </trkpt>
      <trkpt lat="49.26349" lon="-0.09412">
        <ele>19.6</ele>
        <time>2023-12-06T15:46:39Z</time>
      </trkpt>
      <trkpt lat="49.26355" lon="-0.09412">
        <ele>19.8</ele>
        <time>2023-12-06T15:46:40Z</time>
      </trkpt>
      <trkpt lat="49.26361" lon="-0.09412">
        <ele>20.2</ele>
        <time>2023-12-06T15:46:41Z</time>
      </trkpt>
      <trkpt lat="49.26367" lon="-0.09413">
        <ele>20.8</ele>
        <time>2023-12-06T15:46:42Z</time>
      </trkpt>
      <trkpt lat="49.26374" lon="-0.09413">
        <ele>21</ele>
        <time>2023-12-06T15:46:43Z</time>
      </trkpt>
      <trkpt lat="49.2638" lon="-0.09413">
        <ele>21</ele>
        <time>2023-12-06T15:46:44Z</time>
      </trkpt>
      <trkpt lat="49.26387" lon="-0.09413">
        <ele>21.2</ele>
        <time>2023-12-06T15:46:45Z</time>
      </trkpt>
      <trkpt lat="49.26393" lon="-0.09413">
        <ele>21.6</ele>
        <time>2023-12-06T15:46:46Z</time>
      </trkpt>
      <trkpt lat="49.264" lon="-0.09413">
        <ele>21.6</ele>
        <time>2023-12-06T15:46:47Z</time>
      </trkpt>
      <trkpt lat="49.26407" lon="-0.09413">
        <ele>21.8</ele>
        <time>2023-12-06T15:46:48Z</time>
      </trkpt>
      <trkpt lat="49.26414" lon="-0.09413">
        <ele>22</ele>
        <time>2023-12-06T15:46:49Z</time>
      </trkpt>
      <trkpt lat="49.26421" lon="-0.09414">
        <ele>22</ele>
        <time>2023-12-06T15:46:50Z</time>
      </trkpt>
      <trkpt lat="49.26428" lon="-0.09414">
        <ele>22.2</ele>
        <time>2023-12-06T15:46:51Z</time>
      </trkpt>
      <trkpt lat="49.26435" lon="-0.09414">
        <ele>22.2</ele>
        <time>2023-12-06T15:46:52Z</time>
      </trkpt>
      <trkpt lat="49.26441" lon="-0.09415">
        <ele>22.2</ele>
        <time>2023-12-06T15:46:53Z</time>
      </trkpt>
      <trkpt lat="49.26448" lon="-0.09415">
        <ele>22.2</ele>
        <time>2023-12-06T15:46:54Z</time>
      </trkpt>
      <trkpt lat="49.26455" lon="-0.09416">
        <ele>22.2</ele>
        <time>2023-12-06T15:46:55Z</time>
      </trkpt>
      <trkpt lat="49.26462" lon="-0.09416">
        <ele>22.2</ele>
        <time>2023-12-06T15:46:56Z</time>
      </trkpt>
      <trkpt lat="49.26469" lon="-0.09417">
        <ele>22.2</ele>
        <time>2023-12-06T15:46:57Z</time>
      </trkpt>
      <trkpt lat="49.26476" lon="-0.09417">
        <ele>22.2</ele>
        <time>2023-12-06T15:46:58Z</time>
      </trkpt>
      <trkpt lat="49.26483" lon="-0.09418">
        <ele>22.2</ele>
        <time>2023-12-06T15:46:59Z</time>
      </trkpt>
      <trkpt lat="49.2649" lon="-0.09418">
        <ele>22.2</ele>
        <time>2023-12-06T15:47:00Z</time>
      </trkpt>
      <trkpt lat="49.26497" lon="-0.09418">
        <ele>22.2</ele>
        <time>2023-12-06T15:47:01Z</time>
      </trkpt>
      <trkpt lat="49.26504" lon="-0.09419">
        <ele>22.2</ele>
        <time>2023-12-06T15:47:02Z</time>
      </trkpt>
      <trkpt lat="49.26511" lon="-0.09419">
        <ele>22</ele>
        <time>2023-12-06T15:47:03Z</time>
      </trkpt>
      <trkpt lat="49.26519" lon="-0.09419">
        <ele>21.8</ele>
        <time>2023-12-06T15:47:04Z</time>
      </trkpt>
      <trkpt lat="49.26526" lon="-0.09419">
        <ele>21.6</ele>
        <time>2023-12-06T15:47:05Z</time>
      </trkpt>
      <trkpt lat="49.26534" lon="-0.09419">
        <ele>21.6</ele>
        <time>2023-12-06T15:47:06Z</time>
      </trkpt>
      <trkpt lat="49.26541" lon="-0.0942">
        <ele>21.6</ele>
        <time>2023-12-06T15:47:07Z</time>
      </trkpt>
      <trkpt lat="49.26549" lon="-0.0942">
        <ele>21.4</ele>
        <time>2023-12-06T15:47:08Z</time>
      </trkpt>
      <trkpt lat="49.26557" lon="-0.0942">
        <ele>21.4</ele>
        <time>2023-12-06T15:47:09Z</time>
      </trkpt>
      <trkpt lat="49.26565" lon="-0.0942">
        <ele>21.2</ele>
        <time>2023-12-06T15:47:10Z</time>
      </trkpt>
      <trkpt lat="49.26573" lon="-0.0942">
        <ele>21</ele>
        <time>2023-12-06T15:47:11Z</time>
      </trkpt>
      <trkpt lat="49.26581" lon="-0.0942">
        <ele>20.8</ele>
        <time>2023-12-06T15:47:12Z</time>
      </trkpt>
      <trkpt lat="49.2659" lon="-0.09421">
        <ele>20.6</ele>
        <time>2023-12-06T15:47:13Z</time>
      </trkpt>
      <trkpt lat="49.26598" lon="-0.09421">
        <ele>20.6</ele>
        <time>2023-12-06T15:47:14Z</time>
      </trkpt>
      <trkpt lat="49.26606" lon="-0.09422">
        <ele>20.4</ele>
        <time>2023-12-06T15:47:15Z</time>
      </trkpt>
      <trkpt lat="49.26615" lon="-0.09422">
        <ele>20</ele>
        <time>2023-12-06T15:47:16Z</time>
      </trkpt>
      <trkpt lat="49.26624" lon="-0.09422">
        <ele>19.6</ele>
        <time>2023-12-06T15:47:17Z</time>
      </trkpt>
      <trkpt lat="49.26634" lon="-0.09422">
        <ele>19.2</ele>
        <time>2023-12-06T15:47:18Z</time>
      </trkpt>
      <trkpt lat="49.26642" lon="-0.09422">
        <ele>19</ele>
        <time>2023-12-06T15:47:19Z</time>
      </trkpt>
      <trkpt lat="49.26651" lon="-0.09423">
        <ele>18.6</ele>
        <time>2023-12-06T15:47:20Z</time>
      </trkpt>
      <trkpt lat="49.26661" lon="-0.09423">
        <ele>18</ele>
        <time>2023-12-06T15:47:21Z</time>
      </trkpt>
      <trkpt lat="49.26669" lon="-0.09424">
        <ele>17.4</ele>
        <time>2023-12-06T15:47:22Z</time>
      </trkpt>
      <trkpt lat="49.26678" lon="-0.09424">
        <ele>17</ele>
        <time>2023-12-06T15:47:23Z</time>
      </trkpt>
      <trkpt lat="49.26687" lon="-0.09424">
        <ele>16.6</ele>
        <time>2023-12-06T15:47:24Z</time>
      </trkpt>
      <trkpt lat="49.26695" lon="-0.09425">
        <ele>16</ele>
        <time>2023-12-06T15:47:25Z</time>
      </trkpt>
      <trkpt lat="49.26704" lon="-0.09425">
        <ele>15.6</ele>
        <time>2023-12-06T15:47:26Z</time>
      </trkpt>
      <trkpt lat="49.26712" lon="-0.09425">
        <ele>15</ele>
        <time>2023-12-06T15:47:27Z</time>
      </trkpt>
      <trkpt lat="49.2672" lon="-0.09425">
        <ele>14.6</ele>
        <time>2023-12-06T15:47:28Z</time>
      </trkpt>
      <trkpt lat="49.26728" lon="-0.09425">
        <ele>14.2</ele>
        <time>2023-12-06T15:47:29Z</time>
      </trkpt>
      <trkpt lat="49.26735" lon="-0.09425">
        <ele>14.2</ele>
        <time>2023-12-06T15:47:30Z</time>
      </trkpt>
      <trkpt lat="49.26742" lon="-0.09424">
        <ele>14</ele>
        <time>2023-12-06T15:47:31Z</time>
      </trkpt>
      <trkpt lat="49.26749" lon="-0.09424">
        <ele>14</ele>
        <time>2023-12-06T15:47:32Z</time>
      </trkpt>
      <trkpt lat="49.26756" lon="-0.09424">
        <ele>14</ele>
        <time>2023-12-06T15:47:33Z</time>
      </trkpt>
      <trkpt lat="49.26762" lon="-0.09423">
        <ele>14</ele>
        <time>2023-12-06T15:47:34Z</time>
      </trkpt>
      <trkpt lat="49.26769" lon="-0.09423">
        <ele>14</ele>
        <time>2023-12-06T15:47:35Z</time>
      </trkpt>
      <trkpt lat="49.26775" lon="-0.09423">
        <ele>14</ele>
        <time>2023-12-06T15:47:36Z</time>
      </trkpt>
      <trkpt lat="49.26782" lon="-0.09424">
        <ele>14</ele>
        <time>2023-12-06T15:47:37Z</time>
      </trkpt>
      <trkpt lat="49.26788" lon="-0.09424">
        <ele>14</ele>
        <time>2023-12-06T15:47:38Z</time>
      </trkpt>
      <trkpt lat="49.26794" lon="-0.09424">
        <ele>14.2</ele>
        <time>2023-12-06T15:47:39Z</time>
      </trkpt>
      <trkpt lat="49.268" lon="-0.09423">
        <ele>14.4</ele>
        <time>2023-12-06T15:47:40Z</time>
      </trkpt>
      <trkpt lat="49.26806" lon="-0.09423">
        <ele>14.8</ele>
        <time>2023-12-06T15:47:41Z</time>
      </trkpt>
      <trkpt lat="49.26812" lon="-0.09423">
        <ele>15.2</ele>
        <time>2023-12-06T15:47:42Z</time>
      </trkpt>
      <trkpt lat="49.26818" lon="-0.09423">
        <ele>15.4</ele>
        <time>2023-12-06T15:47:43Z</time>
      </trkpt>
      <trkpt lat="49.26824" lon="-0.09423">
        <ele>15.8</ele>
        <time>2023-12-06T15:47:44Z</time>
      </trkpt>
      <trkpt lat="49.2683" lon="-0.09423">
        <ele>16.2</ele>
        <time>2023-12-06T15:47:45Z</time>
      </trkpt>
      <trkpt lat="49.26835" lon="-0.09423">
        <ele>16.6</ele>
        <time>2023-12-06T15:47:46Z</time>
      </trkpt>
      <trkpt lat="49.2684" lon="-0.09422">
        <ele>17</ele>
        <time>2023-12-06T15:47:47Z</time>
      </trkpt>
      <trkpt lat="49.26846" lon="-0.09422">
        <ele>17.4</ele>
        <time>2023-12-06T15:47:48Z</time>
      </trkpt>
      <trkpt lat="49.26851" lon="-0.09421">
        <ele>17.8</ele>
        <time>2023-12-06T15:47:49Z</time>
      </trkpt>
      <trkpt lat="49.26857" lon="-0.09422">
        <ele>18.2</ele>
        <time>2023-12-06T15:47:50Z</time>
      </trkpt>
      <trkpt lat="49.26863" lon="-0.09421">
        <ele>18.4</ele>
        <time>2023-12-06T15:47:51Z</time>
      </trkpt>
      <trkpt lat="49.26869" lon="-0.09421">
        <ele>18.8</ele>
        <time>2023-12-06T15:47:52Z</time>
      </trkpt>
      <trkpt lat="49.26874" lon="-0.0942">
        <ele>19</ele>
        <time>2023-12-06T15:47:53Z</time>
      </trkpt>
      <trkpt lat="49.26878" lon="-0.0942">
        <ele>19.2</ele>
        <time>2023-12-06T15:47:54Z</time>
      </trkpt>
      <trkpt lat="49.26884" lon="-0.0942">
        <ele>19.6</ele>
        <time>2023-12-06T15:47:55Z</time>
      </trkpt>
      <trkpt lat="49.26889" lon="-0.0942">
        <ele>20</ele>
        <time>2023-12-06T15:47:56Z</time>
      </trkpt>
      <trkpt lat="49.26894" lon="-0.0942">
        <ele>20.2</ele>
        <time>2023-12-06T15:47:57Z</time>
      </trkpt>
      <trkpt lat="49.26899" lon="-0.09419">
        <ele>20.6</ele>
        <time>2023-12-06T15:47:58Z</time>
      </trkpt>
      <trkpt lat="49.26904" lon="-0.09419">
        <ele>21</ele>
        <time>2023-12-06T15:47:59Z</time>
      </trkpt>
      <trkpt lat="49.26909" lon="-0.09419">
        <ele>21.4</ele>
        <time>2023-12-06T15:48:00Z</time>
      </trkpt>
      <trkpt lat="49.26914" lon="-0.09419">
        <ele>21.6</ele>
        <time>2023-12-06T15:48:01Z</time>
      </trkpt>
      <trkpt lat="49.26919" lon="-0.09419">
        <ele>22</ele>
        <time>2023-12-06T15:48:02Z</time>
      </trkpt>
      <trkpt lat="49.26924" lon="-0.0942">
        <ele>22.4</ele>
        <time>2023-12-06T15:48:03Z</time>
      </trkpt>
      <trkpt lat="49.26929" lon="-0.0942">
        <ele>22.8</ele>
        <time>2023-12-06T15:48:04Z</time>
      </trkpt>
      <trkpt lat="49.26935" lon="-0.09419">
        <ele>23.2</ele>
        <time>2023-12-06T15:48:05Z</time>
      </trkpt>
      <trkpt lat="49.2694" lon="-0.09418">
        <ele>23.6</ele>
        <time>2023-12-06T15:48:06Z</time>
      </trkpt>
      <trkpt lat="49.26944" lon="-0.09417">
        <ele>23.8</ele>
        <time>2023-12-06T15:48:07Z</time>
      </trkpt>
      <trkpt lat="49.26949" lon="-0.09417">
        <ele>24.2</ele>
        <time>2023-12-06T15:48:08Z</time>
      </trkpt>
      <trkpt lat="49.26954" lon="-0.09416">
        <ele>24.4</ele>
        <time>2023-12-06T15:48:09Z</time>
      </trkpt>
      <trkpt lat="49.26959" lon="-0.09416">
        <ele>24.8</ele>
        <time>2023-12-06T15:48:10Z</time>
      </trkpt>
      <trkpt lat="49.26964" lon="-0.09417">
        <ele>25.2</ele>
        <time>2023-12-06T15:48:11Z</time>
      </trkpt>
      <trkpt lat="49.26969" lon="-0.09417">
        <ele>25.6</ele>
        <time>2023-12-06T15:48:12Z</time>
      </trkpt>
      <trkpt lat="49.26973" lon="-0.09417">
        <ele>25.8</ele>
        <time>2023-12-06T15:48:13Z</time>
      </trkpt>
      <trkpt lat="49.26978" lon="-0.09417">
        <ele>26</ele>
        <time>2023-12-06T15:48:14Z</time>
      </trkpt>
      <trkpt lat="49.26983" lon="-0.09418">
        <ele>26.4</ele>
        <time>2023-12-06T15:48:15Z</time>
      </trkpt>
      <trkpt lat="49.26988" lon="-0.09418">
        <ele>26.8</ele>
        <time>2023-12-06T15:48:16Z</time>
      </trkpt>
      <trkpt lat="49.26993" lon="-0.09418">
        <ele>27.2</ele>
        <time>2023-12-06T15:48:17Z</time>
      </trkpt>
      <trkpt lat="49.26999" lon="-0.09419">
        <ele>27.6</ele>
        <time>2023-12-06T15:48:18Z</time>
      </trkpt>
      <trkpt lat="49.27004" lon="-0.09419">
        <ele>27.8</ele>
        <time>2023-12-06T15:48:19Z</time>
      </trkpt>
      <trkpt lat="49.2701" lon="-0.09419">
        <ele>28.2</ele>
        <time>2023-12-06T15:48:20Z</time>
      </trkpt>
      <trkpt lat="49.27015" lon="-0.0942">
        <ele>28.4</ele>
        <time>2023-12-06T15:48:21Z</time>
      </trkpt>
      <trkpt lat="49.27021" lon="-0.0942">
        <ele>28.8</ele>
        <time>2023-12-06T15:48:22Z</time>
      </trkpt>
      <trkpt lat="49.27026" lon="-0.09421">
        <ele>29</ele>
        <time>2023-12-06T15:48:23Z</time>
      </trkpt>
      <trkpt lat="49.27032" lon="-0.09423">
        <ele>29.4</ele>
        <time>2023-12-06T15:48:24Z</time>
      </trkpt>
      <trkpt lat="49.27038" lon="-0.09425">
        <ele>29.4</ele>
        <time>2023-12-06T15:48:25Z</time>
      </trkpt>
      <trkpt lat="49.27044" lon="-0.09428">
        <ele>29.6</ele>
        <time>2023-12-06T15:48:26Z</time>
      </trkpt>
      <trkpt lat="49.2705" lon="-0.09432">
        <ele>29.6</ele>
        <time>2023-12-06T15:48:27Z</time>
      </trkpt>
      <trkpt lat="49.27056" lon="-0.09438">
        <ele>29.6</ele>
        <time>2023-12-06T15:48:28Z</time>
      </trkpt>
      <trkpt lat="49.27062" lon="-0.09443">
        <ele>29.6</ele>
        <time>2023-12-06T15:48:29Z</time>
      </trkpt>
      <trkpt lat="49.27068" lon="-0.09449">
        <ele>29.8</ele>
        <time>2023-12-06T15:48:30Z</time>
      </trkpt>
      <trkpt lat="49.27074" lon="-0.09455">
        <ele>29.8</ele>
        <time>2023-12-06T15:48:31Z</time>
      </trkpt>
      <trkpt lat="49.2708" lon="-0.0946">
        <ele>29.8</ele>
        <time>2023-12-06T15:48:32Z</time>
      </trkpt>
      <trkpt lat="49.27086" lon="-0.09464">
        <ele>29.8</ele>
        <time>2023-12-06T15:48:33Z</time>
      </trkpt>
      <trkpt lat="49.27093" lon="-0.09468">
        <ele>29.4</ele>
        <time>2023-12-06T15:48:34Z</time>
      </trkpt>
      <trkpt lat="49.271" lon="-0.09472">
        <ele>29.2</ele>
        <time>2023-12-06T15:48:35Z</time>
      </trkpt>
      <trkpt lat="49.27107" lon="-0.09476">
        <ele>29</ele>
        <time>2023-12-06T15:48:36Z</time>
      </trkpt>
      <trkpt lat="49.27114" lon="-0.09479">
        <ele>29</ele>
        <time>2023-12-06T15:48:37Z</time>
      </trkpt>
      <trkpt lat="49.27121" lon="-0.09483">
        <ele>28.6</ele>
        <time>2023-12-06T15:48:38Z</time>
      </trkpt>
      <trkpt lat="49.27129" lon="-0.09487">
        <ele>28.6</ele>
        <time>2023-12-06T15:48:39Z</time>
      </trkpt>
      <trkpt lat="49.27136" lon="-0.09491">
        <ele>28.2</ele>
        <time>2023-12-06T15:48:40Z</time>
      </trkpt>
      <trkpt lat="49.27144" lon="-0.09496">
        <ele>28</ele>
        <time>2023-12-06T15:48:41Z</time>
      </trkpt>
      <trkpt lat="49.27152" lon="-0.09502">
        <ele>27.8</ele>
        <time>2023-12-06T15:48:42Z</time>
      </trkpt>
      <trkpt lat="49.2716" lon="-0.09507">
        <ele>27.6</ele>
        <time>2023-12-06T15:48:43Z</time>
      </trkpt>
      <trkpt lat="49.27169" lon="-0.09512">
        <ele>27.4</ele>
        <time>2023-12-06T15:48:44Z</time>
      </trkpt>
      <trkpt lat="49.27178" lon="-0.09517">
        <ele>27</ele>
        <time>2023-12-06T15:48:45Z</time>
      </trkpt>
      <trkpt lat="49.27187" lon="-0.09521">
        <ele>26.6</ele>
        <time>2023-12-06T15:48:46Z</time>
      </trkpt>
      <trkpt lat="49.27196" lon="-0.09526">
        <ele>26.4</ele>
        <time>2023-12-06T15:48:47Z</time>
      </trkpt>
      <trkpt lat="49.27206" lon="-0.09529">
        <ele>26</ele>
        <time>2023-12-06T15:48:48Z</time>
      </trkpt>
      <trkpt lat="49.27216" lon="-0.09532">
        <ele>25.4</ele>
        <time>2023-12-06T15:48:49Z</time>
      </trkpt>
      <trkpt lat="49.27226" lon="-0.09534">
        <ele>25</ele>
        <time>2023-12-06T15:48:50Z</time>
      </trkpt>
      <trkpt lat="49.27237" lon="-0.09537">
        <ele>24.4</ele>
        <time>2023-12-06T15:48:51Z</time>
      </trkpt>
      <trkpt lat="49.27247" lon="-0.09539">
        <ele>23.6</ele>
        <time>2023-12-06T15:48:52Z</time>
      </trkpt>
      <trkpt lat="49.27258" lon="-0.09542">
        <ele>23</ele>
        <time>2023-12-06T15:48:53Z</time>
      </trkpt>
      <trkpt lat="49.27268" lon="-0.09544">
        <ele>22.2</ele>
        <time>2023-12-06T15:48:54Z</time>
      </trkpt>
      <trkpt lat="49.27279" lon="-0.09547">
        <ele>21.4</ele>
        <time>2023-12-06T15:48:55Z</time>
      </trkpt>
      <trkpt lat="49.2729" lon="-0.09549">
        <ele>20.8</ele>
        <time>2023-12-06T15:48:56Z</time>
      </trkpt>
      <trkpt lat="49.273" lon="-0.09551">
        <ele>20.4</ele>
        <time>2023-12-06T15:48:57Z</time>
      </trkpt>
      <trkpt lat="49.2731" lon="-0.09554">
        <ele>19.6</ele>
        <time>2023-12-06T15:48:58Z</time>
      </trkpt>
      <trkpt lat="49.2732" lon="-0.09557">
        <ele>18.8</ele>
        <time>2023-12-06T15:48:59Z</time>
      </trkpt>
      <trkpt lat="49.27329" lon="-0.0956">
        <ele>18.4</ele>
        <time>2023-12-06T15:49:00Z</time>
      </trkpt>
      <trkpt lat="49.27339" lon="-0.09562">
        <ele>17.8</ele>
        <time>2023-12-06T15:49:01Z</time>
      </trkpt>
      <trkpt lat="49.27349" lon="-0.09564">
        <ele>17.4</ele>
        <time>2023-12-06T15:49:02Z</time>
      </trkpt>
      <trkpt lat="49.27358" lon="-0.09567">
        <ele>17</ele>
        <time>2023-12-06T15:49:03Z</time>
      </trkpt>
      <trkpt lat="49.27368" lon="-0.0957">
        <ele>16.6</ele>
        <time>2023-12-06T15:49:04Z</time>
      </trkpt>
      <trkpt lat="49.27378" lon="-0.09573">
        <ele>16.4</ele>
        <time>2023-12-06T15:49:05Z</time>
      </trkpt>
      <trkpt lat="49.27388" lon="-0.09576">
        <ele>16.2</ele>
        <time>2023-12-06T15:49:06Z</time>
      </trkpt>
      <trkpt lat="49.27398" lon="-0.09579">
        <ele>16</ele>
        <time>2023-12-06T15:49:07Z</time>
      </trkpt>
      <trkpt lat="49.27408" lon="-0.09581">
        <ele>15.4</ele>
        <time>2023-12-06T15:49:08Z</time>
      </trkpt>
      <trkpt lat="49.27419" lon="-0.09583">
        <ele>15</ele>
        <time>2023-12-06T15:49:09Z</time>
      </trkpt>
      <trkpt lat="49.27429" lon="-0.09584">
        <ele>14.8</ele>
        <time>2023-12-06T15:49:10Z</time>
      </trkpt>
      <trkpt lat="49.27439" lon="-0.09584">
        <ele>14.6</ele>
        <time>2023-12-06T15:49:11Z</time>
      </trkpt>
      <trkpt lat="49.27449" lon="-0.09583">
        <ele>14.4</ele>
        <time>2023-12-06T15:49:12Z</time>
      </trkpt>
      <trkpt lat="49.27458" lon="-0.09582">
        <ele>14.2</ele>
        <time>2023-12-06T15:49:13Z</time>
      </trkpt>
      <trkpt lat="49.27468" lon="-0.0958">
        <ele>14</ele>
        <time>2023-12-06T15:49:14Z</time>
      </trkpt>
      <trkpt lat="49.27477" lon="-0.09579">
        <ele>13.6</ele>
        <time>2023-12-06T15:49:15Z</time>
      </trkpt>
      <trkpt lat="49.27486" lon="-0.09577">
        <ele>13.4</ele>
        <time>2023-12-06T15:49:16Z</time>
      </trkpt>
      <trkpt lat="49.27494" lon="-0.09576">
        <ele>13.2</ele>
        <time>2023-12-06T15:49:17Z</time>
      </trkpt>
      <trkpt lat="49.27502" lon="-0.09575">
        <ele>12.6</ele>
        <time>2023-12-06T15:49:18Z</time>
      </trkpt>
      <trkpt lat="49.27511" lon="-0.09574">
        <ele>12</ele>
        <time>2023-12-06T15:49:19Z</time>
      </trkpt>
      <trkpt lat="49.27518" lon="-0.09572">
        <ele>11.2</ele>
        <time>2023-12-06T15:49:20Z</time>
      </trkpt>
      <trkpt lat="49.27526" lon="-0.0957">
        <ele>11</ele>
        <time>2023-12-06T15:49:21Z</time>
      </trkpt>
      <trkpt lat="49.27533" lon="-0.09568">
        <ele>10.8</ele>
        <time>2023-12-06T15:49:22Z</time>
      </trkpt>
      <trkpt lat="49.2754" lon="-0.09565">
        <ele>10.6</ele>
        <time>2023-12-06T15:49:23Z</time>
      </trkpt>
      <trkpt lat="49.27547" lon="-0.09562">
        <ele>10.6</ele>
        <time>2023-12-06T15:49:24Z</time>
      </trkpt>
      <trkpt lat="49.27553" lon="-0.09559">
        <ele>10.6</ele>
        <time>2023-12-06T15:49:25Z</time>
      </trkpt>
      <trkpt lat="49.27559" lon="-0.09556">
        <ele>10.6</ele>
        <time>2023-12-06T15:49:26Z</time>
      </trkpt>
      <trkpt lat="49.27565" lon="-0.09555">
        <ele>10.6</ele>
        <time>2023-12-06T15:49:27Z</time>
      </trkpt>
      <trkpt lat="49.27572" lon="-0.09554">
        <ele>10.6</ele>
        <time>2023-12-06T15:49:28Z</time>
      </trkpt>
      <trkpt lat="49.27578" lon="-0.09553">
        <ele>10.6</ele>
        <time>2023-12-06T15:49:29Z</time>
      </trkpt>
      <trkpt lat="49.27584" lon="-0.09552">
        <ele>10.6</ele>
        <time>2023-12-06T15:49:30Z</time>
      </trkpt>
      <trkpt lat="49.27589" lon="-0.09551">
        <ele>10.6</ele>
        <time>2023-12-06T15:49:31Z</time>
      </trkpt>
      <trkpt lat="49.27595" lon="-0.09549">
        <ele>10.8</ele>
        <time>2023-12-06T15:49:32Z</time>
      </trkpt>
      <trkpt lat="49.27601" lon="-0.09548">
        <ele>10.8</ele>
        <time>2023-12-06T15:49:33Z</time>
      </trkpt>
      <trkpt lat="49.27607" lon="-0.09547">
        <ele>10.8</ele>
        <time>2023-12-06T15:49:34Z</time>
      </trkpt>
      <trkpt lat="49.27613" lon="-0.09546">
        <ele>11</ele>
        <time>2023-12-06T15:49:35Z</time>
      </trkpt>
      <trkpt lat="49.27619" lon="-0.09545">
        <ele>11</ele>
        <time>2023-12-06T15:49:36Z</time>
      </trkpt>
      <trkpt lat="49.27625" lon="-0.09544">
        <ele>11</ele>
        <time>2023-12-06T15:49:37Z</time>
      </trkpt>
      <trkpt lat="49.27632" lon="-0.09543">
        <ele>11</ele>
        <time>2023-12-06T15:49:38Z</time>
      </trkpt>
      <trkpt lat="49.27638" lon="-0.09542">
        <ele>11</ele>
        <time>2023-12-06T15:49:39Z</time>
      </trkpt>
      <trkpt lat="49.27644" lon="-0.09542">
        <ele>11</ele>
        <time>2023-12-06T15:49:40Z</time>
      </trkpt>
      <trkpt lat="49.2765" lon="-0.09541">
        <ele>11</ele>
        <time>2023-12-06T15:49:41Z</time>
      </trkpt>
      <trkpt lat="49.27656" lon="-0.09541">
        <ele>11</ele>
        <time>2023-12-06T15:49:42Z</time>
      </trkpt>
      <trkpt lat="49.27661" lon="-0.09541">
        <ele>11</ele>
        <time>2023-12-06T15:49:43Z</time>
      </trkpt>
      <trkpt lat="49.27667" lon="-0.09542">
        <ele>11.2</ele>
        <time>2023-12-06T15:49:44Z</time>
      </trkpt>
      <trkpt lat="49.27673" lon="-0.09543">
        <ele>11.2</ele>
        <time>2023-12-06T15:49:45Z</time>
      </trkpt>
      <trkpt lat="49.2768" lon="-0.09543">
        <ele>11.2</ele>
        <time>2023-12-06T15:49:46Z</time>
      </trkpt>
      <trkpt lat="49.27686" lon="-0.09543">
        <ele>11.2</ele>
        <time>2023-12-06T15:49:47Z</time>
      </trkpt>
      <trkpt lat="49.27692" lon="-0.09543">
        <ele>11.2</ele>
        <time>2023-12-06T15:49:48Z</time>
      </trkpt>
      <trkpt lat="49.27698" lon="-0.09542">
        <ele>11.2</ele>
        <time>2023-12-06T15:49:49Z</time>
      </trkpt>
      <trkpt lat="49.27704" lon="-0.09541">
        <ele>11</ele>
        <time>2023-12-06T15:49:50Z</time>
      </trkpt>
      <trkpt lat="49.2771" lon="-0.0954">
        <ele>11</ele>
        <time>2023-12-06T15:49:51Z</time>
      </trkpt>
      <trkpt lat="49.27716" lon="-0.0954">
        <ele>10.8</ele>
        <time>2023-12-06T15:49:52Z</time>
      </trkpt>
      <trkpt lat="49.27722" lon="-0.09539">
        <ele>11.2</ele>
        <time>2023-12-06T15:49:53Z</time>
      </trkpt>
      <trkpt lat="49.27728" lon="-0.09538">
        <ele>11.2</ele>
        <time>2023-12-06T15:49:54Z</time>
      </trkpt>
      <trkpt lat="49.27734" lon="-0.09537">
        <ele>11.2</ele>
        <time>2023-12-06T15:49:55Z</time>
      </trkpt>
      <trkpt lat="49.27739" lon="-0.09537">
        <ele>11.2</ele>
        <time>2023-12-06T15:49:56Z</time>
      </trkpt>
      <trkpt lat="49.27745" lon="-0.09536">
        <ele>11.2</ele>
        <time>2023-12-06T15:49:57Z</time>
      </trkpt>
      <trkpt lat="49.27751" lon="-0.09535">
        <ele>11.2</ele>
        <time>2023-12-06T15:49:58Z</time>
      </trkpt>
      <trkpt lat="49.27757" lon="-0.09534">
        <ele>11.4</ele>
        <time>2023-12-06T15:49:59Z</time>
      </trkpt>
      <trkpt lat="49.27763" lon="-0.09533">
        <ele>11.4</ele>
        <time>2023-12-06T15:50:00Z</time>
      </trkpt>
      <trkpt lat="49.27769" lon="-0.09531">
        <ele>11.4</ele>
        <time>2023-12-06T15:50:01Z</time>
      </trkpt>
      <trkpt lat="49.27775" lon="-0.0953">
        <ele>11.4</ele>
        <time>2023-12-06T15:50:02Z</time>
      </trkpt>
      <trkpt lat="49.27781" lon="-0.09528">
        <ele>11.4</ele>
        <time>2023-12-06T15:50:03Z</time>
      </trkpt>
      <trkpt lat="49.27787" lon="-0.09527">
        <ele>11.2</ele>
        <time>2023-12-06T15:50:04Z</time>
      </trkpt>
      <trkpt lat="49.27793" lon="-0.09526">
        <ele>11.2</ele>
        <time>2023-12-06T15:50:05Z</time>
      </trkpt>
      <trkpt lat="49.27799" lon="-0.09526">
        <ele>11.2</ele>
        <time>2023-12-06T15:50:06Z</time>
      </trkpt>
      <trkpt lat="49.27805" lon="-0.09526">
        <ele>11.2</ele>
        <time>2023-12-06T15:50:07Z</time>
      </trkpt>
      <trkpt lat="49.2781" lon="-0.09525">
        <ele>11.2</ele>
        <time>2023-12-06T15:50:08Z</time>
      </trkpt>
      <trkpt lat="49.27816" lon="-0.09524">
        <ele>11</ele>
        <time>2023-12-06T15:50:09Z</time>
      </trkpt>
      <trkpt lat="49.27822" lon="-0.09524">
        <ele>11.2</ele>
        <time>2023-12-06T15:50:10Z</time>
      </trkpt>
      <trkpt lat="49.27827" lon="-0.09523">
        <ele>11.2</ele>
        <time>2023-12-06T15:50:11Z</time>
      </trkpt>
      <trkpt lat="49.27833" lon="-0.09522">
        <ele>11.2</ele>
        <time>2023-12-06T15:50:12Z</time>
      </trkpt>
      <trkpt lat="49.27839" lon="-0.0952">
        <ele>11.2</ele>
        <time>2023-12-06T15:50:13Z</time>
      </trkpt>
      <trkpt lat="49.27845" lon="-0.0952">
        <ele>11.2</ele>
        <time>2023-12-06T15:50:14Z</time>
      </trkpt>
      <trkpt lat="49.27851" lon="-0.09519">
        <ele>11.2</ele>
        <time>2023-12-06T15:50:15Z</time>
      </trkpt>
      <trkpt lat="49.27857" lon="-0.09518">
        <ele>11.2</ele>
        <time>2023-12-06T15:50:16Z</time>
      </trkpt>
      <trkpt lat="49.27863" lon="-0.09518">
        <ele>11</ele>
        <time>2023-12-06T15:50:17Z</time>
      </trkpt>
      <trkpt lat="49.27869" lon="-0.09518">
        <ele>11</ele>
        <time>2023-12-06T15:50:18Z</time>
      </trkpt>
      <trkpt lat="49.27874" lon="-0.09517">
        <ele>11</ele>
        <time>2023-12-06T15:50:19Z</time>
      </trkpt>
      <trkpt lat="49.2788" lon="-0.09517">
        <ele>11</ele>
        <time>2023-12-06T15:50:20Z</time>
      </trkpt>
      <trkpt lat="49.27886" lon="-0.09517">
        <ele>11</ele>
        <time>2023-12-06T15:50:21Z</time>
      </trkpt>
      <trkpt lat="49.27893" lon="-0.09517">
        <ele>11</ele>
        <time>2023-12-06T15:50:22Z</time>
      </trkpt>
      <trkpt lat="49.27899" lon="-0.09518">
        <ele>11</ele>
        <time>2023-12-06T15:50:23Z</time>
      </trkpt>
      <trkpt lat="49.27905" lon="-0.09518">
        <ele>11</ele>
        <time>2023-12-06T15:50:24Z</time>
      </trkpt>
      <trkpt lat="49.27911" lon="-0.09518">
        <ele>11</ele>
        <time>2023-12-06T15:50:25Z</time>
      </trkpt>
      <trkpt lat="49.27917" lon="-0.09519">
        <ele>10.8</ele>
        <time>2023-12-06T15:50:26Z</time>
      </trkpt>
      <trkpt lat="49.27924" lon="-0.09519">
        <ele>10.8</ele>
        <time>2023-12-06T15:50:27Z</time>
      </trkpt>
      <trkpt lat="49.2793" lon="-0.0952">
        <ele>10.8</ele>
        <time>2023-12-06T15:50:28Z</time>
      </trkpt>
      <trkpt lat="49.27936" lon="-0.09521">
        <ele>10.8</ele>
        <time>2023-12-06T15:50:29Z</time>
      </trkpt>
      <trkpt lat="49.27942" lon="-0.09522">
        <ele>10.8</ele>
        <time>2023-12-06T15:50:30Z</time>
      </trkpt>
      <trkpt lat="49.27948" lon="-0.09523">
        <ele>10.8</ele>
        <time>2023-12-06T15:50:31Z</time>
      </trkpt>
      <trkpt lat="49.27954" lon="-0.09524">
        <ele>10.8</ele>
        <time>2023-12-06T15:50:32Z</time>
      </trkpt>
      <trkpt lat="49.2796" lon="-0.09525">
        <ele>10.8</ele>
        <time>2023-12-06T15:50:33Z</time>
      </trkpt>
      <trkpt lat="49.27966" lon="-0.09526">
        <ele>10.8</ele>
        <time>2023-12-06T15:50:34Z</time>
      </trkpt>
      <trkpt lat="49.27972" lon="-0.09528">
        <ele>10.8</ele>
        <time>2023-12-06T15:50:35Z</time>
      </trkpt>
      <trkpt lat="49.27979" lon="-0.09529">
        <ele>10.8</ele>
        <time>2023-12-06T15:50:36Z</time>
      </trkpt>
      <trkpt lat="49.27985" lon="-0.09531">
        <ele>10.8</ele>
        <time>2023-12-06T15:50:37Z</time>
      </trkpt>
      <trkpt lat="49.27992" lon="-0.09533">
        <ele>10.8</ele>
        <time>2023-12-06T15:50:38Z</time>
      </trkpt>
      <trkpt lat="49.27998" lon="-0.09535">
        <ele>10.8</ele>
        <time>2023-12-06T15:50:39Z</time>
      </trkpt>
      <trkpt lat="49.28005" lon="-0.09537">
        <ele>10.8</ele>
        <time>2023-12-06T15:50:40Z</time>
      </trkpt>
      <trkpt lat="49.28011" lon="-0.09539">
        <ele>10.8</ele>
        <time>2023-12-06T15:50:41Z</time>
      </trkpt>
      <trkpt lat="49.28017" lon="-0.09541">
        <ele>10.8</ele>
        <time>2023-12-06T15:50:42Z</time>
      </trkpt>
      <trkpt lat="49.28022" lon="-0.09544">
        <ele>10.8</ele>
        <time>2023-12-06T15:50:43Z</time>
      </trkpt>
      <trkpt lat="49.28027" lon="-0.09547">
        <ele>10.8</ele>
        <time>2023-12-06T15:50:44Z</time>
      </trkpt>
      <trkpt lat="49.28033" lon="-0.09549">
        <ele>10.8</ele>
        <time>2023-12-06T15:50:45Z</time>
      </trkpt>
      <trkpt lat="49.28038" lon="-0.09551">
        <ele>10.8</ele>
        <time>2023-12-06T15:50:46Z</time>
      </trkpt>
      <trkpt lat="49.28044" lon="-0.09554">
        <ele>11</ele>
        <time>2023-12-06T15:50:47Z</time>
      </trkpt>
      <trkpt lat="49.28049" lon="-0.09556">
        <ele>11</ele>
        <time>2023-12-06T15:50:48Z</time>
      </trkpt>
      <trkpt lat="49.28055" lon="-0.09559">
        <ele>11</ele>
        <time>2023-12-06T15:50:49Z</time>
      </trkpt>
      <trkpt lat="49.2806" lon="-0.09561">
        <ele>11</ele>
        <time>2023-12-06T15:50:50Z</time>
      </trkpt>
      <trkpt lat="49.28065" lon="-0.09564">
        <ele>11</ele>
        <time>2023-12-06T15:50:51Z</time>
      </trkpt>
      <trkpt lat="49.28071" lon="-0.09567">
        <ele>11</ele>
        <time>2023-12-06T15:50:52Z</time>
      </trkpt>
      <trkpt lat="49.28076" lon="-0.0957">
        <ele>11</ele>
        <time>2023-12-06T15:50:53Z</time>
      </trkpt>
      <trkpt lat="49.28081" lon="-0.09573">
        <ele>11</ele>
        <time>2023-12-06T15:50:54Z</time>
      </trkpt>
      <trkpt lat="49.28086" lon="-0.09576">
        <ele>11</ele>
        <time>2023-12-06T15:50:55Z</time>
      </trkpt>
      <trkpt lat="49.28092" lon="-0.0958">
        <ele>11</ele>
        <time>2023-12-06T15:50:56Z</time>
      </trkpt>
      <trkpt lat="49.28097" lon="-0.09583">
        <ele>11</ele>
        <time>2023-12-06T15:50:57Z</time>
      </trkpt>
      <trkpt lat="49.28102" lon="-0.09586">
        <ele>11</ele>
        <time>2023-12-06T15:50:58Z</time>
      </trkpt>
      <trkpt lat="49.28108" lon="-0.09588">
        <ele>11</ele>
        <time>2023-12-06T15:50:59Z</time>
      </trkpt>
      <trkpt lat="49.28113" lon="-0.09591">
        <ele>11</ele>
        <time>2023-12-06T15:51:00Z</time>
      </trkpt>
      <trkpt lat="49.28119" lon="-0.09595">
        <ele>11</ele>
        <time>2023-12-06T15:51:01Z</time>
      </trkpt>
      <trkpt lat="49.28125" lon="-0.09597">
        <ele>11</ele>
        <time>2023-12-06T15:51:02Z</time>
      </trkpt>
      <trkpt lat="49.28131" lon="-0.09601">
        <ele>11</ele>
        <time>2023-12-06T15:51:03Z</time>
      </trkpt>
      <trkpt lat="49.28137" lon="-0.09604">
        <ele>11</ele>
        <time>2023-12-06T15:51:04Z</time>
      </trkpt>
      <trkpt lat="49.28143" lon="-0.09607">
        <ele>10.6</ele>
        <time>2023-12-06T15:51:05Z</time>
      </trkpt>
      <trkpt lat="49.28148" lon="-0.09611">
        <ele>10.6</ele>
        <time>2023-12-06T15:51:06Z</time>
      </trkpt>
      <trkpt lat="49.28154" lon="-0.09615">
        <ele>10.6</ele>
        <time>2023-12-06T15:51:07Z</time>
      </trkpt>
      <trkpt lat="49.28159" lon="-0.09619">
        <ele>10.4</ele>
        <time>2023-12-06T15:51:08Z</time>
      </trkpt>
      <trkpt lat="49.28165" lon="-0.09622">
        <ele>10.4</ele>
        <time>2023-12-06T15:51:09Z</time>
      </trkpt>
      <trkpt lat="49.28171" lon="-0.09625">
        <ele>10.4</ele>
        <time>2023-12-06T15:51:10Z</time>
      </trkpt>
      <trkpt lat="49.28176" lon="-0.09628">
        <ele>10.4</ele>
        <time>2023-12-06T15:51:11Z</time>
      </trkpt>
      <trkpt lat="49.28182" lon="-0.09631">
        <ele>10.4</ele>
        <time>2023-12-06T15:51:12Z</time>
      </trkpt>
      <trkpt lat="49.28187" lon="-0.09635">
        <ele>10.4</ele>
        <time>2023-12-06T15:51:13Z</time>
      </trkpt>
      <trkpt lat="49.28192" lon="-0.09639">
        <ele>10.4</ele>
        <time>2023-12-06T15:51:14Z</time>
      </trkpt>
      <trkpt lat="49.28197" lon="-0.09643">
        <ele>10.4</ele>
        <time>2023-12-06T15:51:15Z</time>
      </trkpt>
      <trkpt lat="49.28202" lon="-0.09647">
        <ele>10.4</ele>
        <time>2023-12-06T15:51:16Z</time>
      </trkpt>
      <trkpt lat="49.28207" lon="-0.0965">
        <ele>10.4</ele>
        <time>2023-12-06T15:51:17Z</time>
      </trkpt>
      <trkpt lat="49.28213" lon="-0.09654">
        <ele>10.4</ele>
        <time>2023-12-06T15:51:18Z</time>
      </trkpt>
      <trkpt lat="49.28218" lon="-0.09657">
        <ele>10.4</ele>
        <time>2023-12-06T15:51:19Z</time>
      </trkpt>
      <trkpt lat="49.28223" lon="-0.0966">
        <ele>10.4</ele>
        <time>2023-12-06T15:51:20Z</time>
      </trkpt>
      <trkpt lat="49.28228" lon="-0.09663">
        <ele>10.4</ele>
        <time>2023-12-06T15:51:21Z</time>
      </trkpt>
      <trkpt lat="49.28233" lon="-0.09667">
        <ele>10.4</ele>
        <time>2023-12-06T15:51:22Z</time>
      </trkpt>
      <trkpt lat="49.28238" lon="-0.0967">
        <ele>10.4</ele>
        <time>2023-12-06T15:51:23Z</time>
      </trkpt>
      <trkpt lat="49.28243" lon="-0.09674">
        <ele>10.4</ele>
        <time>2023-12-06T15:51:24Z</time>
      </trkpt>
      <trkpt lat="49.28247" lon="-0.09677">
        <ele>10.4</ele>
        <time>2023-12-06T15:51:25Z</time>
      </trkpt>
      <trkpt lat="49.28252" lon="-0.0968">
        <ele>10.4</ele>
        <time>2023-12-06T15:51:26Z</time>
      </trkpt>
      <trkpt lat="49.28257" lon="-0.09684">
        <ele>10.4</ele>
        <time>2023-12-06T15:51:27Z</time>
      </trkpt>
      <trkpt lat="49.28261" lon="-0.09687">
        <ele>10.4</ele>
        <time>2023-12-06T15:51:28Z</time>
      </trkpt>
      <trkpt lat="49.28266" lon="-0.0969">
        <ele>10.4</ele>
        <time>2023-12-06T15:51:29Z</time>
      </trkpt>
      <trkpt lat="49.28271" lon="-0.09693">
        <ele>10.6</ele>
        <time>2023-12-06T15:51:30Z</time>
      </trkpt>
      <trkpt lat="49.28275" lon="-0.09695">
        <ele>10.6</ele>
        <time>2023-12-06T15:51:31Z</time>
      </trkpt>
      <trkpt lat="49.2828" lon="-0.09697">
        <ele>10.6</ele>
        <time>2023-12-06T15:51:32Z</time>
      </trkpt>
      <trkpt lat="49.28284" lon="-0.09699">
        <ele>10.8</ele>
        <time>2023-12-06T15:51:33Z</time>
      </trkpt>
      <trkpt lat="49.28288" lon="-0.09701">
        <ele>10.8</ele>
        <time>2023-12-06T15:51:34Z</time>
      </trkpt>
      <trkpt lat="49.28292" lon="-0.09703">
        <ele>10.8</ele>
        <time>2023-12-06T15:51:35Z</time>
      </trkpt>
      <trkpt lat="49.28295" lon="-0.09704">
        <ele>11</ele>
        <time>2023-12-06T15:51:36Z</time>
      </trkpt>
      <trkpt lat="49.28298" lon="-0.09705">
        <ele>11</ele>
        <time>2023-12-06T15:51:37Z</time>
      </trkpt>
      <trkpt lat="49.28301" lon="-0.09706">
        <ele>11</ele>
        <time>2023-12-06T15:51:38Z</time>
      </trkpt>
      <trkpt lat="49.28303" lon="-0.09706">
        <ele>11</ele>
        <time>2023-12-06T15:51:39Z</time>
      </trkpt>
      <trkpt lat="49.28305" lon="-0.09706">
        <ele>11</ele>
        <time>2023-12-06T15:51:40Z</time>
      </trkpt>
      <trkpt lat="49.28305" lon="-0.09706">
        <ele>11</ele>
        <time>2023-12-06T15:51:41Z</time>
      </trkpt>
      <trkpt lat="49.28305" lon="-0.09706">
        <ele>11.2</ele>
        <time>2023-12-06T15:51:42Z</time>
      </trkpt>
      <trkpt lat="49.28312" lon="-0.09707">
        <ele>11.6</ele>
        <time>2023-12-06T15:52:16Z</time>
      </trkpt>
      <trkpt lat="49.28314" lon="-0.09708">
        <ele>11.6</ele>
        <time>2023-12-06T15:52:17Z</time>
      </trkpt>
      <trkpt lat="49.28316" lon="-0.09708">
        <ele>11.6</ele>
        <time>2023-12-06T15:52:18Z</time>
      </trkpt>
      <trkpt lat="49.28318" lon="-0.09708">
        <ele>11.6</ele>
        <time>2023-12-06T15:52:19Z</time>
      </trkpt>
      <trkpt lat="49.28321" lon="-0.09709">
        <ele>11.6</ele>
        <time>2023-12-06T15:52:20Z</time>
      </trkpt>
      <trkpt lat="49.28324" lon="-0.0971">
        <ele>11.6</ele>
        <time>2023-12-06T15:52:21Z</time>
      </trkpt>
      <trkpt lat="49.28327" lon="-0.09711">
        <ele>11.6</ele>
        <time>2023-12-06T15:52:22Z</time>
      </trkpt>
      <trkpt lat="49.2833" lon="-0.09713">
        <ele>11.6</ele>
        <time>2023-12-06T15:52:23Z</time>
      </trkpt>
      <trkpt lat="49.28333" lon="-0.09714">
        <ele>11.6</ele>
        <time>2023-12-06T15:52:24Z</time>
      </trkpt>
      <trkpt lat="49.28337" lon="-0.09715">
        <ele>11.6</ele>
        <time>2023-12-06T15:52:25Z</time>
      </trkpt>
      <trkpt lat="49.28341" lon="-0.09716">
        <ele>11.6</ele>
        <time>2023-12-06T15:52:26Z</time>
      </trkpt>
      <trkpt lat="49.28345" lon="-0.09717">
        <ele>11.4</ele>
        <time>2023-12-06T15:52:27Z</time>
      </trkpt>
      <trkpt lat="49.28349" lon="-0.09718">
        <ele>11.4</ele>
        <time>2023-12-06T15:52:28Z</time>
      </trkpt>
      <trkpt lat="49.28353" lon="-0.09719">
        <ele>11.4</ele>
        <time>2023-12-06T15:52:29Z</time>
      </trkpt>
      <trkpt lat="49.28357" lon="-0.09719">
        <ele>11.4</ele>
        <time>2023-12-06T15:52:30Z</time>
      </trkpt>
      <trkpt lat="49.28361" lon="-0.0972">
        <ele>11.4</ele>
        <time>2023-12-06T15:52:31Z</time>
      </trkpt>
      <trkpt lat="49.28366" lon="-0.0972">
        <ele>11.2</ele>
        <time>2023-12-06T15:52:32Z</time>
      </trkpt>
      <trkpt lat="49.2837" lon="-0.0972">
        <ele>11.2</ele>
        <time>2023-12-06T15:52:33Z</time>
      </trkpt>
      <trkpt lat="49.28374" lon="-0.09721">
        <ele>11.2</ele>
        <time>2023-12-06T15:52:34Z</time>
      </trkpt>
      <trkpt lat="49.28378" lon="-0.09722">
        <ele>11.2</ele>
        <time>2023-12-06T15:52:35Z</time>
      </trkpt>
      <trkpt lat="49.28382" lon="-0.09722">
        <ele>11.2</ele>
        <time>2023-12-06T15:52:36Z</time>
      </trkpt>
      <trkpt lat="49.28386" lon="-0.09723">
        <ele>11.2</ele>
        <time>2023-12-06T15:52:37Z</time>
      </trkpt>
      <trkpt lat="49.28391" lon="-0.09724">
        <ele>11.2</ele>
        <time>2023-12-06T15:52:38Z</time>
      </trkpt>
      <trkpt lat="49.28395" lon="-0.09724">
        <ele>11.2</ele>
        <time>2023-12-06T15:52:39Z</time>
      </trkpt>
      <trkpt lat="49.284" lon="-0.09725">
        <ele>11.2</ele>
        <time>2023-12-06T15:52:40Z</time>
      </trkpt>
      <trkpt lat="49.28405" lon="-0.09726">
        <ele>11.2</ele>
        <time>2023-12-06T15:52:41Z</time>
      </trkpt>
      <trkpt lat="49.28409" lon="-0.09726">
        <ele>11.2</ele>
        <time>2023-12-06T15:52:42Z</time>
      </trkpt>
      <trkpt lat="49.28414" lon="-0.09727">
        <ele>11.2</ele>
        <time>2023-12-06T15:52:43Z</time>
      </trkpt>
      <trkpt lat="49.28419" lon="-0.09727">
        <ele>11.4</ele>
        <time>2023-12-06T15:52:44Z</time>
      </trkpt>
      <trkpt lat="49.28424" lon="-0.09728">
        <ele>11.4</ele>
        <time>2023-12-06T15:52:45Z</time>
      </trkpt>
      <trkpt lat="49.28428" lon="-0.09729">
        <ele>11.4</ele>
        <time>2023-12-06T15:52:46Z</time>
      </trkpt>
      <trkpt lat="49.28432" lon="-0.0973">
        <ele>11.4</ele>
        <time>2023-12-06T15:52:47Z</time>
      </trkpt>
      <trkpt lat="49.28437" lon="-0.0973">
        <ele>11.4</ele>
        <time>2023-12-06T15:52:48Z</time>
      </trkpt>
      <trkpt lat="49.28442" lon="-0.0973">
        <ele>11.4</ele>
        <time>2023-12-06T15:52:49Z</time>
      </trkpt>
      <trkpt lat="49.28446" lon="-0.09731">
        <ele>11.4</ele>
        <time>2023-12-06T15:52:50Z</time>
      </trkpt>
      <trkpt lat="49.28451" lon="-0.09731">
        <ele>11.4</ele>
        <time>2023-12-06T15:52:51Z</time>
      </trkpt>
      <trkpt lat="49.28456" lon="-0.09732">
        <ele>11.4</ele>
        <time>2023-12-06T15:52:52Z</time>
      </trkpt>
      <trkpt lat="49.28461" lon="-0.09732">
        <ele>11.4</ele>
        <time>2023-12-06T15:52:53Z</time>
      </trkpt>
      <trkpt lat="49.28465" lon="-0.09733">
        <ele>11.4</ele>
        <time>2023-12-06T15:52:54Z</time>
      </trkpt>
      <trkpt lat="49.28469" lon="-0.09734">
        <ele>11.6</ele>
        <time>2023-12-06T15:52:55Z</time>
      </trkpt>
      <trkpt lat="49.28473" lon="-0.09735">
        <ele>11.6</ele>
        <time>2023-12-06T15:52:56Z</time>
      </trkpt>
      <trkpt lat="49.28477" lon="-0.09735">
        <ele>11.8</ele>
        <time>2023-12-06T15:52:57Z</time>
      </trkpt>
      <trkpt lat="49.28481" lon="-0.09735">
        <ele>11.8</ele>
        <time>2023-12-06T15:52:58Z</time>
      </trkpt>
      <trkpt lat="49.28485" lon="-0.09735">
        <ele>12</ele>
        <time>2023-12-06T15:52:59Z</time>
      </trkpt>
      <trkpt lat="49.28489" lon="-0.09735">
        <ele>12.2</ele>
        <time>2023-12-06T15:53:00Z</time>
      </trkpt>
      <trkpt lat="49.28493" lon="-0.09735">
        <ele>12.2</ele>
        <time>2023-12-06T15:53:01Z</time>
      </trkpt>
      <trkpt lat="49.28497" lon="-0.09734">
        <ele>12.4</ele>
        <time>2023-12-06T15:53:02Z</time>
      </trkpt>
      <trkpt lat="49.28501" lon="-0.09734">
        <ele>12.4</ele>
        <time>2023-12-06T15:53:03Z</time>
      </trkpt>
      <trkpt lat="49.28505" lon="-0.09732">
        <ele>12.4</ele>
        <time>2023-12-06T15:53:04Z</time>
      </trkpt>
      <trkpt lat="49.28509" lon="-0.09731">
        <ele>12.6</ele>
        <time>2023-12-06T15:53:05Z</time>
      </trkpt>
      <trkpt lat="49.28512" lon="-0.09729">
        <ele>12.6</ele>
        <time>2023-12-06T15:53:06Z</time>
      </trkpt>
      <trkpt lat="49.28516" lon="-0.09728">
        <ele>12.6</ele>
        <time>2023-12-06T15:53:07Z</time>
      </trkpt>
      <trkpt lat="49.28519" lon="-0.09727">
        <ele>12.8</ele>
        <time>2023-12-06T15:53:08Z</time>
      </trkpt>
      <trkpt lat="49.28522" lon="-0.09726">
        <ele>12.8</ele>
        <time>2023-12-06T15:53:09Z</time>
      </trkpt>
      <trkpt lat="49.28526" lon="-0.09726">
        <ele>12.8</ele>
        <time>2023-12-06T15:53:10Z</time>
      </trkpt>
      <trkpt lat="49.2853" lon="-0.09725">
        <ele>13</ele>
        <time>2023-12-06T15:53:11Z</time>
      </trkpt>
      <trkpt lat="49.28534" lon="-0.09724">
        <ele>13</ele>
        <time>2023-12-06T15:53:12Z</time>
      </trkpt>
      <trkpt lat="49.28537" lon="-0.09723">
        <ele>13.2</ele>
        <time>2023-12-06T15:53:13Z</time>
      </trkpt>
      <trkpt lat="49.28541" lon="-0.09721">
        <ele>13.2</ele>
        <time>2023-12-06T15:53:14Z</time>
      </trkpt>
      <trkpt lat="49.28544" lon="-0.09718">
        <ele>13.2</ele>
        <time>2023-12-06T15:53:15Z</time>
      </trkpt>
      <trkpt lat="49.28546" lon="-0.09716">
        <ele>13.2</ele>
        <time>2023-12-06T15:53:16Z</time>
      </trkpt>
      <trkpt lat="49.28548" lon="-0.09714">
        <ele>13.2</ele>
        <time>2023-12-06T15:53:17Z</time>
      </trkpt>
      <trkpt lat="49.2855" lon="-0.09713">
        <ele>13.2</ele>
        <time>2023-12-06T15:53:18Z</time>
      </trkpt>
      <trkpt lat="49.28552" lon="-0.09713">
        <ele>13.2</ele>
        <time>2023-12-06T15:53:19Z</time>
      </trkpt>
      <trkpt lat="49.28554" lon="-0.09714">
        <ele>13.2</ele>
        <time>2023-12-06T15:53:20Z</time>
      </trkpt>
      <trkpt lat="49.28556" lon="-0.09717">
        <ele>13.2</ele>
        <time>2023-12-06T15:53:21Z</time>
      </trkpt>
      <trkpt lat="49.28558" lon="-0.09721">
        <ele>13.2</ele>
        <time>2023-12-06T15:53:22Z</time>
      </trkpt>
      <trkpt lat="49.2856" lon="-0.09724">
        <ele>13.2</ele>
        <time>2023-12-06T15:53:23Z</time>
      </trkpt>
      <trkpt lat="49.28562" lon="-0.09728">
        <ele>13.2</ele>
        <time>2023-12-06T15:53:24Z</time>
      </trkpt>
      <trkpt lat="49.28564" lon="-0.09732">
        <ele>13.2</ele>
        <time>2023-12-06T15:53:25Z</time>
      </trkpt>
      <trkpt lat="49.28566" lon="-0.09737">
        <ele>13.2</ele>
        <time>2023-12-06T15:53:26Z</time>
      </trkpt>
      <trkpt lat="49.28568" lon="-0.09742">
        <ele>13.2</ele>
        <time>2023-12-06T15:53:27Z</time>
      </trkpt>
      <trkpt lat="49.28571" lon="-0.09747">
        <ele>13.2</ele>
        <time>2023-12-06T15:53:28Z</time>
      </trkpt>
      <trkpt lat="49.28574" lon="-0.09752">
        <ele>13</ele>
        <time>2023-12-06T15:53:29Z</time>
      </trkpt>
      <trkpt lat="49.28577" lon="-0.09757">
        <ele>13</ele>
        <time>2023-12-06T15:53:30Z</time>
      </trkpt>
      <trkpt lat="49.2858" lon="-0.09762">
        <ele>13</ele>
        <time>2023-12-06T15:53:31Z</time>
      </trkpt>
      <trkpt lat="49.28583" lon="-0.09767">
        <ele>13</ele>
        <time>2023-12-06T15:53:32Z</time>
      </trkpt>
      <trkpt lat="49.28586" lon="-0.09771">
        <ele>13</ele>
        <time>2023-12-06T15:53:33Z</time>
      </trkpt>
      <trkpt lat="49.28589" lon="-0.09775">
        <ele>12.8</ele>
        <time>2023-12-06T15:53:34Z</time>
      </trkpt>
      <trkpt lat="49.28591" lon="-0.0978">
        <ele>12.8</ele>
        <time>2023-12-06T15:53:35Z</time>
      </trkpt>
      <trkpt lat="49.28594" lon="-0.09785">
        <ele>12.6</ele>
        <time>2023-12-06T15:53:36Z</time>
      </trkpt>
      <trkpt lat="49.28598" lon="-0.0979">
        <ele>12.6</ele>
        <time>2023-12-06T15:53:37Z</time>
      </trkpt>
      <trkpt lat="49.28601" lon="-0.09795">
        <ele>12.4</ele>
        <time>2023-12-06T15:53:38Z</time>
      </trkpt>
      <trkpt lat="49.28604" lon="-0.098">
        <ele>12.4</ele>
        <time>2023-12-06T15:53:39Z</time>
      </trkpt>
      <trkpt lat="49.28608" lon="-0.09805">
        <ele>12.4</ele>
        <time>2023-12-06T15:53:40Z</time>
      </trkpt>
      <trkpt lat="49.28611" lon="-0.09809">
        <ele>12.4</ele>
        <time>2023-12-06T15:53:41Z</time>
      </trkpt>
      <trkpt lat="49.28615" lon="-0.09813">
        <ele>12.2</ele>
        <time>2023-12-06T15:53:42Z</time>
      </trkpt>
      <trkpt lat="49.28619" lon="-0.09818">
        <ele>12.2</ele>
        <time>2023-12-06T15:53:43Z</time>
      </trkpt>
      <trkpt lat="49.28623" lon="-0.09822">
        <ele>12.2</ele>
        <time>2023-12-06T15:53:44Z</time>
      </trkpt>
      <trkpt lat="49.28627" lon="-0.09826">
        <ele>12.2</ele>
        <time>2023-12-06T15:53:45Z</time>
      </trkpt>
      <trkpt lat="49.28631" lon="-0.0983">
        <ele>12.2</ele>
        <time>2023-12-06T15:53:46Z</time>
      </trkpt>
      <trkpt lat="49.28633" lon="-0.09835">
        <ele>12.2</ele>
        <time>2023-12-06T15:53:47Z</time>
      </trkpt>
      <trkpt lat="49.28637" lon="-0.09839">
        <ele>12.2</ele>
        <time>2023-12-06T15:53:48Z</time>
      </trkpt>
      <trkpt lat="49.28641" lon="-0.09844">
        <ele>12.2</ele>
        <time>2023-12-06T15:53:49Z</time>
      </trkpt>
      <trkpt lat="49.28644" lon="-0.09849">
        <ele>12.2</ele>
        <time>2023-12-06T15:53:50Z</time>
      </trkpt>
      <trkpt lat="49.28647" lon="-0.09853">
        <ele>12</ele>
        <time>2023-12-06T15:53:51Z</time>
      </trkpt>
      <trkpt lat="49.2865" lon="-0.09857">
        <ele>12</ele>
        <time>2023-12-06T15:53:52Z</time>
      </trkpt>
      <trkpt lat="49.28653" lon="-0.09861">
        <ele>12</ele>
        <time>2023-12-06T15:53:53Z</time>
      </trkpt>
      <trkpt lat="49.28656" lon="-0.09866">
        <ele>12</ele>
        <time>2023-12-06T15:53:54Z</time>
      </trkpt>
      <trkpt lat="49.28659" lon="-0.0987">
        <ele>12</ele>
        <time>2023-12-06T15:53:55Z</time>
      </trkpt>
      <trkpt lat="49.28662" lon="-0.09874">
        <ele>12</ele>
        <time>2023-12-06T15:53:56Z</time>
      </trkpt>
      <trkpt lat="49.28665" lon="-0.09878">
        <ele>12</ele>
        <time>2023-12-06T15:53:57Z</time>
      </trkpt>
      <trkpt lat="49.28668" lon="-0.09883">
        <ele>12</ele>
        <time>2023-12-06T15:53:58Z</time>
      </trkpt>
      <trkpt lat="49.28671" lon="-0.09887">
        <ele>12</ele>
        <time>2023-12-06T15:53:59Z</time>
      </trkpt>
      <trkpt lat="49.28673" lon="-0.09891">
        <ele>12</ele>
        <time>2023-12-06T15:54:00Z</time>
      </trkpt>
      <trkpt lat="49.28675" lon="-0.09893">
        <ele>11.8</ele>
        <time>2023-12-06T15:54:01Z</time>
      </trkpt>
      <trkpt lat="49.28677" lon="-0.09895">
        <ele>11.8</ele>
        <time>2023-12-06T15:54:02Z</time>
      </trkpt>
      <trkpt lat="49.28679" lon="-0.09897">
        <ele>11.8</ele>
        <time>2023-12-06T15:54:03Z</time>
      </trkpt>
      <trkpt lat="49.28683" lon="-0.09896">
        <ele>11.8</ele>
        <time>2023-12-06T15:54:04Z</time>
      </trkpt>
      <trkpt lat="49.28686" lon="-0.09894">
        <ele>11.6</ele>
        <time>2023-12-06T15:54:05Z</time>
      </trkpt>
      <trkpt lat="49.28689" lon="-0.0989">
        <ele>11.6</ele>
        <time>2023-12-06T15:54:06Z</time>
      </trkpt>
      <trkpt lat="49.28692" lon="-0.09885">
        <ele>11.6</ele>
        <time>2023-12-06T15:54:07Z</time>
      </trkpt>
      <trkpt lat="49.28697" lon="-0.09881">
        <ele>11.6</ele>
        <time>2023-12-06T15:54:08Z</time>
      </trkpt>
      <trkpt lat="49.28701" lon="-0.09877">
        <ele>11.6</ele>
        <time>2023-12-06T15:54:09Z</time>
      </trkpt>
      <trkpt lat="49.28706" lon="-0.09873">
        <ele>11.6</ele>
        <time>2023-12-06T15:54:10Z</time>
      </trkpt>
      <trkpt lat="49.2871" lon="-0.09868">
        <ele>11.4</ele>
        <time>2023-12-06T15:54:11Z</time>
      </trkpt>
      <trkpt lat="49.28715" lon="-0.09863">
        <ele>11.4</ele>
        <time>2023-12-06T15:54:12Z</time>
      </trkpt>
      <trkpt lat="49.2872" lon="-0.09858">
        <ele>11.4</ele>
        <time>2023-12-06T15:54:13Z</time>
      </trkpt>
      <trkpt lat="49.28724" lon="-0.09853">
        <ele>11.2</ele>
        <time>2023-12-06T15:54:14Z</time>
      </trkpt>
      <trkpt lat="49.28729" lon="-0.09848">
        <ele>11</ele>
        <time>2023-12-06T15:54:15Z</time>
      </trkpt>
      <trkpt lat="49.28734" lon="-0.09844">
        <ele>11</ele>
        <time>2023-12-06T15:54:16Z</time>
      </trkpt>
      <trkpt lat="49.28739" lon="-0.09839">
        <ele>11</ele>
        <time>2023-12-06T15:54:17Z</time>
      </trkpt>
      <trkpt lat="49.28744" lon="-0.09834">
        <ele>10.8</ele>
        <time>2023-12-06T15:54:18Z</time>
      </trkpt>
      <trkpt lat="49.28749" lon="-0.09829">
        <ele>10.8</ele>
        <time>2023-12-06T15:54:19Z</time>
      </trkpt>
      <trkpt lat="49.28754" lon="-0.09824">
        <ele>10.6</ele>
        <time>2023-12-06T15:54:20Z</time>
      </trkpt>
      <trkpt lat="49.28759" lon="-0.09819">
        <ele>10.6</ele>
        <time>2023-12-06T15:54:21Z</time>
      </trkpt>
      <trkpt lat="49.28764" lon="-0.09814">
        <ele>10.6</ele>
        <time>2023-12-06T15:54:22Z</time>
      </trkpt>
      <trkpt lat="49.28769" lon="-0.09808">
        <ele>10.4</ele>
        <time>2023-12-06T15:54:23Z</time>
      </trkpt>
      <trkpt lat="49.28774" lon="-0.09803">
        <ele>10.4</ele>
        <time>2023-12-06T15:54:24Z</time>
      </trkpt>
      <trkpt lat="49.28778" lon="-0.09799">
        <ele>10.4</ele>
        <time>2023-12-06T15:54:25Z</time>
      </trkpt>
      <trkpt lat="49.28783" lon="-0.09794">
        <ele>10.4</ele>
        <time>2023-12-06T15:54:26Z</time>
      </trkpt>
      <trkpt lat="49.28788" lon="-0.0979">
        <ele>10.4</ele>
        <time>2023-12-06T15:54:27Z</time>
      </trkpt>
      <trkpt lat="49.28793" lon="-0.09785">
        <ele>10.2</ele>
        <time>2023-12-06T15:54:28Z</time>
      </trkpt>
      <trkpt lat="49.28798" lon="-0.09779">
        <ele>10.2</ele>
        <time>2023-12-06T15:54:29Z</time>
      </trkpt>
      <trkpt lat="49.28802" lon="-0.09773">
        <ele>10.2</ele>
        <time>2023-12-06T15:54:30Z</time>
      </trkpt>
      <trkpt lat="49.28806" lon="-0.09766">
        <ele>10.2</ele>
        <time>2023-12-06T15:54:31Z</time>
      </trkpt>
      <trkpt lat="49.2881" lon="-0.09759">
        <ele>10.2</ele>
        <time>2023-12-06T15:54:32Z</time>
      </trkpt>
      <trkpt lat="49.28814" lon="-0.09753">
        <ele>10.2</ele>
        <time>2023-12-06T15:54:33Z</time>
      </trkpt>
      <trkpt lat="49.28818" lon="-0.09746">
        <ele>10.2</ele>
        <time>2023-12-06T15:54:34Z</time>
      </trkpt>
      <trkpt lat="49.28822" lon="-0.09739">
        <ele>10.2</ele>
        <time>2023-12-06T15:54:35Z</time>
      </trkpt>
      <trkpt lat="49.28825" lon="-0.09731">
        <ele>10</ele>
        <time>2023-12-06T15:54:36Z</time>
      </trkpt>
      <trkpt lat="49.28829" lon="-0.09724">
        <ele>10</ele>
        <time>2023-12-06T15:54:37Z</time>
      </trkpt>
      <trkpt lat="49.28833" lon="-0.09717">
        <ele>10</ele>
        <time>2023-12-06T15:54:38Z</time>
      </trkpt>
      <trkpt lat="49.28837" lon="-0.09709">
        <ele>10</ele>
        <time>2023-12-06T15:54:39Z</time>
      </trkpt>
      <trkpt lat="49.2884" lon="-0.09702">
        <ele>10</ele>
        <time>2023-12-06T15:54:40Z</time>
      </trkpt>
      <trkpt lat="49.28844" lon="-0.09694">
        <ele>10</ele>
        <time>2023-12-06T15:54:41Z</time>
      </trkpt>
      <trkpt lat="49.28848" lon="-0.09686">
        <ele>10</ele>
        <time>2023-12-06T15:54:42Z</time>
      </trkpt>
      <trkpt lat="49.28851" lon="-0.09679">
        <ele>10</ele>
        <time>2023-12-06T15:54:43Z</time>
      </trkpt>
      <trkpt lat="49.28855" lon="-0.09672">
        <ele>10.2</ele>
        <time>2023-12-06T15:54:44Z</time>
      </trkpt>
      <trkpt lat="49.28859" lon="-0.09665">
        <ele>10.2</ele>
        <time>2023-12-06T15:54:45Z</time>
      </trkpt>
      <trkpt lat="49.28862" lon="-0.09658">
        <ele>10.2</ele>
        <time>2023-12-06T15:54:46Z</time>
      </trkpt>
      <trkpt lat="49.28865" lon="-0.09651">
        <ele>10.2</ele>
        <time>2023-12-06T15:54:47Z</time>
      </trkpt>
      <trkpt lat="49.28869" lon="-0.09644">
        <ele>10.2</ele>
        <time>2023-12-06T15:54:48Z</time>
      </trkpt>
      <trkpt lat="49.28872" lon="-0.09637">
        <ele>10</ele>
        <time>2023-12-06T15:54:49Z</time>
      </trkpt>
      <trkpt lat="49.28874" lon="-0.0963">
        <ele>10</ele>
        <time>2023-12-06T15:54:50Z</time>
      </trkpt>
      <trkpt lat="49.28876" lon="-0.09623">
        <ele>10</ele>
        <time>2023-12-06T15:54:51Z</time>
      </trkpt>
      <trkpt lat="49.28878" lon="-0.09614">
        <ele>10</ele>
        <time>2023-12-06T15:54:52Z</time>
      </trkpt>
      <trkpt lat="49.28879" lon="-0.09606">
        <ele>10</ele>
        <time>2023-12-06T15:54:53Z</time>
      </trkpt>
      <trkpt lat="49.28881" lon="-0.09599">
        <ele>10</ele>
        <time>2023-12-06T15:54:54Z</time>
      </trkpt>
      <trkpt lat="49.28886" lon="-0.09593">
        <ele>10</ele>
        <time>2023-12-06T15:54:55Z</time>
      </trkpt>
      <trkpt lat="49.2889" lon="-0.09587">
        <ele>10.2</ele>
        <time>2023-12-06T15:54:56Z</time>
      </trkpt>
      <trkpt lat="49.28895" lon="-0.0958">
        <ele>10</ele>
        <time>2023-12-06T15:54:57Z</time>
      </trkpt>
      <trkpt lat="49.289" lon="-0.09574">
        <ele>10</ele>
        <time>2023-12-06T15:54:58Z</time>
      </trkpt>
      <trkpt lat="49.28905" lon="-0.09566">
        <ele>10</ele>
        <time>2023-12-06T15:54:59Z</time>
      </trkpt>
      <trkpt lat="49.2891" lon="-0.09559">
        <ele>10.2</ele>
        <time>2023-12-06T15:55:00Z</time>
      </trkpt>
      <trkpt lat="49.28915" lon="-0.09552">
        <ele>10.2</ele>
        <time>2023-12-06T15:55:01Z</time>
      </trkpt>
      <trkpt lat="49.2892" lon="-0.09545">
        <ele>10.2</ele>
        <time>2023-12-06T15:55:02Z</time>
      </trkpt>
      <trkpt lat="49.28925" lon="-0.09538">
        <ele>10.2</ele>
        <time>2023-12-06T15:55:03Z</time>
      </trkpt>
      <trkpt lat="49.2893" lon="-0.09531">
        <ele>10.2</ele>
        <time>2023-12-06T15:55:04Z</time>
      </trkpt>
      <trkpt lat="49.28935" lon="-0.09524">
        <ele>10.2</ele>
        <time>2023-12-06T15:55:05Z</time>
      </trkpt>
      <trkpt lat="49.2894" lon="-0.09517">
        <ele>10.2</ele>
        <time>2023-12-06T15:55:06Z</time>
      </trkpt>
      <trkpt lat="49.28946" lon="-0.09511">
        <ele>10.2</ele>
        <time>2023-12-06T15:55:07Z</time>
      </trkpt>
      <trkpt lat="49.28951" lon="-0.09505">
        <ele>10.2</ele>
        <time>2023-12-06T15:55:08Z</time>
      </trkpt>
      <trkpt lat="49.28957" lon="-0.09498">
        <ele>10.2</ele>
        <time>2023-12-06T15:55:09Z</time>
      </trkpt>
      <trkpt lat="49.28962" lon="-0.09492">
        <ele>10.2</ele>
        <time>2023-12-06T15:55:10Z</time>
      </trkpt>
      <trkpt lat="49.28967" lon="-0.09485">
        <ele>10.2</ele>
        <time>2023-12-06T15:55:11Z</time>
      </trkpt>
      <trkpt lat="49.28972" lon="-0.09479">
        <ele>10.2</ele>
        <time>2023-12-06T15:55:12Z</time>
      </trkpt>
      <trkpt lat="49.28977" lon="-0.09472">
        <ele>10.2</ele>
        <time>2023-12-06T15:55:13Z</time>
      </trkpt>
      <trkpt lat="49.28982" lon="-0.09466">
        <ele>10.2</ele>
        <time>2023-12-06T15:55:14Z</time>
      </trkpt>
      <trkpt lat="49.28986" lon="-0.0946">
        <ele>10.2</ele>
        <time>2023-12-06T15:55:15Z</time>
      </trkpt>
      <trkpt lat="49.28991" lon="-0.09455">
        <ele>10.2</ele>
        <time>2023-12-06T15:55:16Z</time>
      </trkpt>
      <trkpt lat="49.28994" lon="-0.0945">
        <ele>10.2</ele>
        <time>2023-12-06T15:55:17Z</time>
      </trkpt>
      <trkpt lat="49.28998" lon="-0.09446">
        <ele>10.2</ele>
        <time>2023-12-06T15:55:18Z</time>
      </trkpt>
      <trkpt lat="49.29001" lon="-0.09443">
        <ele>10.2</ele>
        <time>2023-12-06T15:55:19Z</time>
      </trkpt>
      <trkpt lat="49.29006" lon="-0.09443">
        <ele>10.2</ele>
        <time>2023-12-06T15:55:20Z</time>
      </trkpt>
      <trkpt lat="49.2901" lon="-0.09446">
        <ele>10.2</ele>
        <time>2023-12-06T15:55:21Z</time>
      </trkpt>
      <trkpt lat="49.29014" lon="-0.09451">
        <ele>10.2</ele>
        <time>2023-12-06T15:55:22Z</time>
      </trkpt>
      <trkpt lat="49.29018" lon="-0.09457">
        <ele>10.4</ele>
        <time>2023-12-06T15:55:23Z</time>
      </trkpt>
      <trkpt lat="49.29022" lon="-0.09463">
        <ele>10.4</ele>
        <time>2023-12-06T15:55:24Z</time>
      </trkpt>
      <trkpt lat="49.29026" lon="-0.0947">
        <ele>10.4</ele>
        <time>2023-12-06T15:55:25Z</time>
      </trkpt>
      <trkpt lat="49.2903" lon="-0.09477">
        <ele>10.6</ele>
        <time>2023-12-06T15:55:26Z</time>
      </trkpt>
      <trkpt lat="49.29034" lon="-0.09484">
        <ele>10.6</ele>
        <time>2023-12-06T15:55:27Z</time>
      </trkpt>
      <trkpt lat="49.29038" lon="-0.09491">
        <ele>10.6</ele>
        <time>2023-12-06T15:55:28Z</time>
      </trkpt>
      <trkpt lat="49.29041" lon="-0.09497">
        <ele>10.6</ele>
        <time>2023-12-06T15:55:29Z</time>
      </trkpt>
      <trkpt lat="49.29045" lon="-0.09504">
        <ele>10.6</ele>
        <time>2023-12-06T15:55:30Z</time>
      </trkpt>
      <trkpt lat="49.29049" lon="-0.0951">
        <ele>10.6</ele>
        <time>2023-12-06T15:55:31Z</time>
      </trkpt>
      <trkpt lat="49.29052" lon="-0.09515">
        <ele>10.6</ele>
        <time>2023-12-06T15:55:32Z</time>
      </trkpt>
      <trkpt lat="49.29056" lon="-0.09521">
        <ele>10.6</ele>
        <time>2023-12-06T15:55:33Z</time>
      </trkpt>
      <trkpt lat="49.29059" lon="-0.09526">
        <ele>10.8</ele>
        <time>2023-12-06T15:55:34Z</time>
      </trkpt>
      <trkpt lat="49.29063" lon="-0.09531">
        <ele>10.8</ele>
        <time>2023-12-06T15:55:35Z</time>
      </trkpt>
      <trkpt lat="49.29066" lon="-0.09537">
        <ele>10.8</ele>
        <time>2023-12-06T15:55:36Z</time>
      </trkpt>
      <trkpt lat="49.29069" lon="-0.09543">
        <ele>10.8</ele>
        <time>2023-12-06T15:55:37Z</time>
      </trkpt>
      <trkpt lat="49.29072" lon="-0.09549">
        <ele>10.8</ele>
        <time>2023-12-06T15:55:38Z</time>
      </trkpt>
      <trkpt lat="49.29075" lon="-0.09555">
        <ele>10.8</ele>
        <time>2023-12-06T15:55:39Z</time>
      </trkpt>
      <trkpt lat="49.29077" lon="-0.09561">
        <ele>10.8</ele>
        <time>2023-12-06T15:55:40Z</time>
      </trkpt>
      <trkpt lat="49.29079" lon="-0.09568">
        <ele>10.8</ele>
        <time>2023-12-06T15:55:41Z</time>
      </trkpt>
      <trkpt lat="49.29081" lon="-0.09574">
        <ele>10.8</ele>
        <time>2023-12-06T15:55:42Z</time>
      </trkpt>
      <trkpt lat="49.29083" lon="-0.0958">
        <ele>10.8</ele>
        <time>2023-12-06T15:55:43Z</time>
      </trkpt>
      <trkpt lat="49.29084" lon="-0.09586">
        <ele>10.8</ele>
        <time>2023-12-06T15:55:44Z</time>
      </trkpt>
      <trkpt lat="49.29086" lon="-0.0959">
        <ele>10.8</ele>
        <time>2023-12-06T15:55:45Z</time>
      </trkpt>
      <trkpt lat="49.29087" lon="-0.09594">
        <ele>11</ele>
        <time>2023-12-06T15:55:46Z</time>
      </trkpt>
      <trkpt lat="49.29088" lon="-0.09595">
        <ele>11</ele>
        <time>2023-12-06T15:55:47Z</time>
      </trkpt>
      <trkpt lat="49.29088" lon="-0.09595">
        <ele>11</ele>
        <time>2023-12-06T15:55:48Z</time>
      </trkpt>
      <trkpt lat="49.29088" lon="-0.09595">
        <ele>11</ele>
        <time>2023-12-06T15:55:49Z</time>
      </trkpt>
      <trkpt lat="49.29091" lon="-0.09602">
        <ele>11.6</ele>
        <time>2023-12-06T15:56:11Z</time>
      </trkpt>
      <trkpt lat="49.29092" lon="-0.09605">
        <ele>11.6</ele>
        <time>2023-12-06T15:56:12Z</time>
      </trkpt>
      <trkpt lat="49.29093" lon="-0.09608">
        <ele>11.6</ele>
        <time>2023-12-06T15:56:13Z</time>
      </trkpt>
      <trkpt lat="49.29095" lon="-0.09612">
        <ele>11.6</ele>
        <time>2023-12-06T15:56:14Z</time>
      </trkpt>
      <trkpt lat="49.29096" lon="-0.09616">
        <ele>11.6</ele>
        <time>2023-12-06T15:56:15Z</time>
      </trkpt>
      <trkpt lat="49.29098" lon="-0.0962">
        <ele>11.6</ele>
        <time>2023-12-06T15:56:16Z</time>
      </trkpt>
      <trkpt lat="49.291" lon="-0.09625">
        <ele>11.6</ele>
        <time>2023-12-06T15:56:17Z</time>
      </trkpt>
      <trkpt lat="49.29102" lon="-0.0963">
        <ele>11.6</ele>
        <time>2023-12-06T15:56:18Z</time>
      </trkpt>
      <trkpt lat="49.29104" lon="-0.09636">
        <ele>11.6</ele>
        <time>2023-12-06T15:56:19Z</time>
      </trkpt>
      <trkpt lat="49.29106" lon="-0.09642">
        <ele>11.6</ele>
        <time>2023-12-06T15:56:20Z</time>
      </trkpt>
      <trkpt lat="49.29108" lon="-0.09649">
        <ele>11.6</ele>
        <time>2023-12-06T15:56:21Z</time>
      </trkpt>
      <trkpt lat="49.2911" lon="-0.09657">
        <ele>11.6</ele>
        <time>2023-12-06T15:56:22Z</time>
      </trkpt>
      <trkpt lat="49.29111" lon="-0.09665">
        <ele>11.4</ele>
        <time>2023-12-06T15:56:23Z</time>
      </trkpt>
      <trkpt lat="49.29111" lon="-0.09673">
        <ele>11.4</ele>
        <time>2023-12-06T15:56:24Z</time>
      </trkpt>
      <trkpt lat="49.2911" lon="-0.09682">
        <ele>11.4</ele>
        <time>2023-12-06T15:56:25Z</time>
      </trkpt>
      <trkpt lat="49.29108" lon="-0.09691">
        <ele>11.4</ele>
        <time>2023-12-06T15:56:26Z</time>
      </trkpt>
      <trkpt lat="49.29106" lon="-0.097">
        <ele>11.2</ele>
        <time>2023-12-06T15:56:27Z</time>
      </trkpt>
      <trkpt lat="49.29104" lon="-0.09709">
        <ele>10.8</ele>
        <time>2023-12-06T15:56:28Z</time>
      </trkpt>
      <trkpt lat="49.29102" lon="-0.09718">
        <ele>10.8</ele>
        <time>2023-12-06T15:56:29Z</time>
      </trkpt>
      <trkpt lat="49.29101" lon="-0.09727">
        <ele>10.8</ele>
        <time>2023-12-06T15:56:30Z</time>
      </trkpt>
      <trkpt lat="49.29101" lon="-0.09737">
        <ele>10.6</ele>
        <time>2023-12-06T15:56:31Z</time>
      </trkpt>
      <trkpt lat="49.29101" lon="-0.09747">
        <ele>10.6</ele>
        <time>2023-12-06T15:56:32Z</time>
      </trkpt>
      <trkpt lat="49.29103" lon="-0.09757">
        <ele>10.6</ele>
        <time>2023-12-06T15:56:33Z</time>
      </trkpt>
      <trkpt lat="49.29105" lon="-0.09767">
        <ele>10.4</ele>
        <time>2023-12-06T15:56:34Z</time>
      </trkpt>
      <trkpt lat="49.29107" lon="-0.09777">
        <ele>10.4</ele>
        <time>2023-12-06T15:56:35Z</time>
      </trkpt>
      <trkpt lat="49.29109" lon="-0.09786">
        <ele>10.4</ele>
        <time>2023-12-06T15:56:36Z</time>
      </trkpt>
      <trkpt lat="49.29112" lon="-0.09796">
        <ele>10.4</ele>
        <time>2023-12-06T15:56:37Z</time>
      </trkpt>
      <trkpt lat="49.29114" lon="-0.09806">
        <ele>10.2</ele>
        <time>2023-12-06T15:56:38Z</time>
      </trkpt>
      <trkpt lat="49.29116" lon="-0.09815">
        <ele>10.2</ele>
        <time>2023-12-06T15:56:39Z</time>
      </trkpt>
      <trkpt lat="49.29118" lon="-0.09825">
        <ele>10</ele>
        <time>2023-12-06T15:56:40Z</time>
      </trkpt>
      <trkpt lat="49.29121" lon="-0.09834">
        <ele>9.8</ele>
        <time>2023-12-06T15:56:41Z</time>
      </trkpt>
      <trkpt lat="49.29123" lon="-0.09844">
        <ele>9.6</ele>
        <time>2023-12-06T15:56:42Z</time>
      </trkpt>
      <trkpt lat="49.29125" lon="-0.09853">
        <ele>9.4</ele>
        <time>2023-12-06T15:56:43Z</time>
      </trkpt>
      <trkpt lat="49.29127" lon="-0.09862">
        <ele>9.4</ele>
        <time>2023-12-06T15:56:44Z</time>
      </trkpt>
      <trkpt lat="49.29129" lon="-0.09871">
        <ele>9.2</ele>
        <time>2023-12-06T15:56:45Z</time>
      </trkpt>
      <trkpt lat="49.29131" lon="-0.0988">
        <ele>9.2</ele>
        <time>2023-12-06T15:56:46Z</time>
      </trkpt>
      <trkpt lat="49.29133" lon="-0.09888">
        <ele>9.2</ele>
        <time>2023-12-06T15:56:47Z</time>
      </trkpt>
      <trkpt lat="49.29134" lon="-0.09897">
        <ele>9.2</ele>
        <time>2023-12-06T15:56:48Z</time>
      </trkpt>
      <trkpt lat="49.29136" lon="-0.09905">
        <ele>9.2</ele>
        <time>2023-12-06T15:56:49Z</time>
      </trkpt>
      <trkpt lat="49.29137" lon="-0.09913">
        <ele>9.2</ele>
        <time>2023-12-06T15:56:50Z</time>
      </trkpt>
      <trkpt lat="49.29138" lon="-0.09921">
        <ele>9.2</ele>
        <time>2023-12-06T15:56:51Z</time>
      </trkpt>
      <trkpt lat="49.29139" lon="-0.09928">
        <ele>9.2</ele>
        <time>2023-12-06T15:56:52Z</time>
      </trkpt>
      <trkpt lat="49.2914" lon="-0.09935">
        <ele>9.2</ele>
        <time>2023-12-06T15:56:53Z</time>
      </trkpt>
      <trkpt lat="49.2914" lon="-0.09942">
        <ele>9.2</ele>
        <time>2023-12-06T15:56:54Z</time>
      </trkpt>
      <trkpt lat="49.29141" lon="-0.09949">
        <ele>9.4</ele>
        <time>2023-12-06T15:56:55Z</time>
      </trkpt>
      <trkpt lat="49.2914" lon="-0.09955">
        <ele>9.4</ele>
        <time>2023-12-06T15:56:56Z</time>
      </trkpt>
      <trkpt lat="49.2914" lon="-0.0996">
        <ele>9.4</ele>
        <time>2023-12-06T15:56:57Z</time>
      </trkpt>
      <trkpt lat="49.2914" lon="-0.09964">
        <ele>9.8</ele>
        <time>2023-12-06T15:56:58Z</time>
      </trkpt>
      <trkpt lat="49.2914" lon="-0.09968">
        <ele>9.8</ele>
        <time>2023-12-06T15:56:59Z</time>
      </trkpt>
      <trkpt lat="49.2914" lon="-0.09971">
        <ele>9.6</ele>
        <time>2023-12-06T15:57:00Z</time>
      </trkpt>
      <trkpt lat="49.29138" lon="-0.09973">
        <ele>9.8</ele>
        <time>2023-12-06T15:57:01Z</time>
      </trkpt>
      <trkpt lat="49.29137" lon="-0.09971">
        <ele>9.8</ele>
        <time>2023-12-06T15:57:02Z</time>
      </trkpt>
      <trkpt lat="49.29135" lon="-0.0997">
        <ele>9.8</ele>
        <time>2023-12-06T15:57:03Z</time>
      </trkpt>
      <trkpt lat="49.29134" lon="-0.09969">
        <ele>9.8</ele>
        <time>2023-12-06T15:57:04Z</time>
      </trkpt>
      <trkpt lat="49.29132" lon="-0.09968">
        <ele>10</ele>
        <time>2023-12-06T15:57:05Z</time>
      </trkpt>
      <trkpt lat="49.2913" lon="-0.09967">
        <ele>9.2</ele>
        <time>2023-12-06T15:59:42Z</time>
      </trkpt>
      <trkpt lat="49.29129" lon="-0.09966">
        <ele>9.2</ele>
        <time>2023-12-06T15:59:43Z</time>
      </trkpt>
      <trkpt lat="49.29127" lon="-0.09965">
        <ele>9.2</ele>
        <time>2023-12-06T15:59:44Z</time>
      </trkpt>
      <trkpt lat="49.29126" lon="-0.09964">
        <ele>9.4</ele>
        <time>2023-12-06T15:59:53Z</time>
      </trkpt>
      <trkpt lat="49.29124" lon="-0.09963">
        <ele>9.4</ele>
        <time>2023-12-06T15:59:54Z</time>
      </trkpt>
      <trkpt lat="49.29123" lon="-0.09962">
        <ele>9.4</ele>
        <time>2023-12-06T15:59:55Z</time>
      </trkpt>
      <trkpt lat="49.29121" lon="-0.09961">
        <ele>9.4</ele>
        <time>2023-12-06T15:59:56Z</time>
      </trkpt>
      <trkpt lat="49.29119" lon="-0.0996">
        <ele>9</ele>
        <time>2023-12-06T16:00:15Z</time>
      </trkpt>
      <trkpt lat="49.29118" lon="-0.09959">
        <ele>8.8</ele>
        <time>2023-12-06T16:00:16Z</time>
      </trkpt>
      <trkpt lat="49.29116" lon="-0.09958">
        <ele>8.8</ele>
        <time>2023-12-06T16:00:17Z</time>
      </trkpt>
      <trkpt lat="49.29115" lon="-0.09957">
        <ele>8.8</ele>
        <time>2023-12-06T16:00:18Z</time>
      </trkpt>
      <trkpt lat="49.29113" lon="-0.09956">
        <ele>8.8</ele>
        <time>2023-12-06T16:00:19Z</time>
      </trkpt>
      <trkpt lat="49.29112" lon="-0.09955">
        <ele>8.8</ele>
        <time>2023-12-06T16:00:20Z</time>
      </trkpt>
      <trkpt lat="49.2911" lon="-0.09954">
        <ele>8.8</ele>
        <time>2023-12-06T16:00:21Z</time>
      </trkpt>
      <trkpt lat="49.29109" lon="-0.09952">
        <ele>8.8</ele>
        <time>2023-12-06T16:00:22Z</time>
      </trkpt>
      <trkpt lat="49.29107" lon="-0.09951">
        <ele>8.8</ele>
        <time>2023-12-06T16:00:23Z</time>
      </trkpt>
      <trkpt lat="49.29105" lon="-0.0995">
        <ele>8.8</ele>
        <time>2023-12-06T16:00:24Z</time>
      </trkpt>
      <trkpt lat="49.29104" lon="-0.09949">
        <ele>8.8</ele>
        <time>2023-12-06T16:00:25Z</time>
      </trkpt>
      <trkpt lat="49.29102" lon="-0.09948">
        <ele>8.8</ele>
        <time>2023-12-06T16:00:26Z</time>
      </trkpt>
      <trkpt lat="49.29101" lon="-0.09947">
        <ele>9</ele>
        <time>2023-12-06T16:00:27Z</time>
      </trkpt>
      <trkpt lat="49.29099" lon="-0.09946">
        <ele>9</ele>
        <time>2023-12-06T16:00:28Z</time>
      </trkpt>
      <trkpt lat="49.29098" lon="-0.09945">
        <ele>8.8</ele>
        <time>2023-12-06T16:00:29Z</time>
      </trkpt>
      <trkpt lat="49.29096" lon="-0.09944">
        <ele>8.8</ele>
        <time>2023-12-06T16:00:30Z</time>
      </trkpt>
      <trkpt lat="49.29095" lon="-0.09943">
        <ele>8.8</ele>
        <time>2023-12-06T16:00:31Z</time>
      </trkpt>
      <trkpt lat="49.29093" lon="-0.09942">
        <ele>8.8</ele>
        <time>2023-12-06T16:00:32Z</time>
      </trkpt>
      <trkpt lat="49.29076" lon="-0.09938">
        <ele>8.8</ele>
        <time>2023-12-06T16:00:33Z</time>
      </trkpt>
      <trkpt lat="49.29059" lon="-0.09935">
        <ele>8.8</ele>
        <time>2023-12-06T16:00:34Z</time>
      </trkpt>
      <trkpt lat="49.29056" lon="-0.09936">
        <ele>8.8</ele>
        <time>2023-12-06T16:00:35Z</time>
      </trkpt>
      <trkpt lat="49.29052" lon="-0.09937">
        <ele>8.8</ele>
        <time>2023-12-06T16:00:36Z</time>
      </trkpt>
      <trkpt lat="49.29042" lon="-0.09942">
        <ele>8.8</ele>
        <time>2023-12-06T16:00:37Z</time>
      </trkpt>
      <trkpt lat="49.29039" lon="-0.09945">
        <ele>8.8</ele>
        <time>2023-12-06T16:00:38Z</time>
      </trkpt>
      <trkpt lat="49.29046" lon="-0.09949">
        <ele>8.8</ele>
        <time>2023-12-06T16:00:39Z</time>
      </trkpt>
    </trkseg>
  </trk>
</gpx>